<?xml version="1.0" encoding="UTF-8" standalone="no" ?>
<gpx xmlns="http://www.topografix.com/GPX/1/1" xmlns:xsi="http://www.w3.org/2001/XMLSchema-instance" xsi:schemaLocation="http://www.topografix.com/GPX/1/1 http://www.topografix.com/GPX/1/1/gpx.xsd" version="1.1" creator="VisuGPX - https://www.visugpx.com">
  <metadata>
    <name>Sortie les vaux de Cernay</name>
  </metadata>
  <trk>
    <name><![CDATA[Sortie vélo le matin_1]]></name>
    <extensions>
      <line xmlns="http://www.topografix.com/GPX/gpx_style/0/2">
        <color>0000FF</color>
        <width>4</width>
      </line>
    </extensions>
    <trkseg>
      <trkpt lat="48.62251" lon="2.01862">
        <ele>71.2</ele>
        <time>2026-01-30T07:43:05Z</time>
      </trkpt>
      <trkpt lat="48.62251" lon="2.01862">
        <ele>71.2</ele>
        <time>2026-01-30T07:43:06Z</time>
      </trkpt>
      <trkpt lat="48.62251" lon="2.01862">
        <ele>70.8</ele>
        <time>2026-01-30T07:43:21Z</time>
      </trkpt>
      <trkpt lat="48.6225" lon="2.01866">
        <ele>70.8</ele>
        <time>2026-01-30T07:43:22Z</time>
      </trkpt>
      <trkpt lat="48.62248" lon="2.01868">
        <ele>70.8</ele>
        <time>2026-01-30T07:43:23Z</time>
      </trkpt>
      <trkpt lat="48.62245" lon="2.0187">
        <ele>70.4</ele>
        <time>2026-01-30T07:43:24Z</time>
      </trkpt>
      <trkpt lat="48.62242" lon="2.0187">
        <ele>70.4</ele>
        <time>2026-01-30T07:43:25Z</time>
      </trkpt>
      <trkpt lat="48.62239" lon="2.01869">
        <ele>70.4</ele>
        <time>2026-01-30T07:43:26Z</time>
      </trkpt>
      <trkpt lat="48.62238" lon="2.01866">
        <ele>70.4</ele>
        <time>2026-01-30T07:43:27Z</time>
      </trkpt>
      <trkpt lat="48.62236" lon="2.01862">
        <ele>70.2</ele>
        <time>2026-01-30T07:43:28Z</time>
      </trkpt>
      <trkpt lat="48.62237" lon="2.01857">
        <ele>70.2</ele>
        <time>2026-01-30T07:43:29Z</time>
      </trkpt>
      <trkpt lat="48.62237" lon="2.01851">
        <ele>70.2</ele>
        <time>2026-01-30T07:43:30Z</time>
      </trkpt>
      <trkpt lat="48.62238" lon="2.01846">
        <ele>70</ele>
        <time>2026-01-30T07:43:31Z</time>
      </trkpt>
      <trkpt lat="48.62239" lon="2.01841">
        <ele>70.2</ele>
        <time>2026-01-30T07:43:32Z</time>
      </trkpt>
      <trkpt lat="48.62239" lon="2.01835">
        <ele>70.2</ele>
        <time>2026-01-30T07:43:33Z</time>
      </trkpt>
      <trkpt lat="48.6224" lon="2.01829">
        <ele>70.2</ele>
        <time>2026-01-30T07:43:34Z</time>
      </trkpt>
      <trkpt lat="48.6224" lon="2.01825">
        <ele>70.2</ele>
        <time>2026-01-30T07:43:35Z</time>
      </trkpt>
      <trkpt lat="48.6224" lon="2.01819">
        <ele>70</ele>
        <time>2026-01-30T07:43:36Z</time>
      </trkpt>
      <trkpt lat="48.6224" lon="2.01814">
        <ele>70</ele>
        <time>2026-01-30T07:43:37Z</time>
      </trkpt>
      <trkpt lat="48.6224" lon="2.01807">
        <ele>70</ele>
        <time>2026-01-30T07:43:38Z</time>
      </trkpt>
      <trkpt lat="48.62241" lon="2.01801">
        <ele>70</ele>
        <time>2026-01-30T07:43:39Z</time>
      </trkpt>
      <trkpt lat="48.62241" lon="2.01795">
        <ele>70.6</ele>
        <time>2026-01-30T07:43:40Z</time>
      </trkpt>
      <trkpt lat="48.62241" lon="2.01788">
        <ele>70.6</ele>
        <time>2026-01-30T07:43:41Z</time>
      </trkpt>
      <trkpt lat="48.62242" lon="2.01781">
        <ele>70.6</ele>
        <time>2026-01-30T07:43:42Z</time>
      </trkpt>
      <trkpt lat="48.62242" lon="2.01775">
        <ele>70.4</ele>
        <time>2026-01-30T07:43:43Z</time>
      </trkpt>
      <trkpt lat="48.62242" lon="2.01768">
        <ele>70.6</ele>
        <time>2026-01-30T07:43:44Z</time>
      </trkpt>
      <trkpt lat="48.62243" lon="2.01761">
        <ele>70.6</ele>
        <time>2026-01-30T07:43:45Z</time>
      </trkpt>
      <trkpt lat="48.62243" lon="2.01755">
        <ele>70.6</ele>
        <time>2026-01-30T07:43:46Z</time>
      </trkpt>
      <trkpt lat="48.62245" lon="2.01748">
        <ele>70.6</ele>
        <time>2026-01-30T07:43:47Z</time>
      </trkpt>
      <trkpt lat="48.62245" lon="2.01742">
        <ele>70.6</ele>
        <time>2026-01-30T07:43:48Z</time>
      </trkpt>
      <trkpt lat="48.62246" lon="2.01735">
        <ele>70.6</ele>
        <time>2026-01-30T07:43:49Z</time>
      </trkpt>
      <trkpt lat="48.62247" lon="2.01728">
        <ele>70.6</ele>
        <time>2026-01-30T07:43:50Z</time>
      </trkpt>
      <trkpt lat="48.62247" lon="2.0172">
        <ele>70.2</ele>
        <time>2026-01-30T07:43:51Z</time>
      </trkpt>
      <trkpt lat="48.62248" lon="2.01713">
        <ele>70</ele>
        <time>2026-01-30T07:43:52Z</time>
      </trkpt>
      <trkpt lat="48.62249" lon="2.01705">
        <ele>70</ele>
        <time>2026-01-30T07:43:53Z</time>
      </trkpt>
      <trkpt lat="48.6225" lon="2.01698">
        <ele>70</ele>
        <time>2026-01-30T07:43:54Z</time>
      </trkpt>
      <trkpt lat="48.62253" lon="2.01688">
        <ele>69.8</ele>
        <time>2026-01-30T07:43:55Z</time>
      </trkpt>
      <trkpt lat="48.62254" lon="2.01685">
        <ele>70</ele>
        <time>2026-01-30T07:43:56Z</time>
      </trkpt>
      <trkpt lat="48.62254" lon="2.01678">
        <ele>70</ele>
        <time>2026-01-30T07:43:57Z</time>
      </trkpt>
      <trkpt lat="48.62253" lon="2.0167">
        <ele>70</ele>
        <time>2026-01-30T07:43:58Z</time>
      </trkpt>
      <trkpt lat="48.62254" lon="2.01664">
        <ele>70</ele>
        <time>2026-01-30T07:43:59Z</time>
      </trkpt>
      <trkpt lat="48.62254" lon="2.01658">
        <ele>70.6</ele>
        <time>2026-01-30T07:44:00Z</time>
      </trkpt>
      <trkpt lat="48.62254" lon="2.0165">
        <ele>70.6</ele>
        <time>2026-01-30T07:44:01Z</time>
      </trkpt>
      <trkpt lat="48.62255" lon="2.01643">
        <ele>70.6</ele>
        <time>2026-01-30T07:44:02Z</time>
      </trkpt>
      <trkpt lat="48.62255" lon="2.01636">
        <ele>70.6</ele>
        <time>2026-01-30T07:44:03Z</time>
      </trkpt>
      <trkpt lat="48.62255" lon="2.01628">
        <ele>70.6</ele>
        <time>2026-01-30T07:44:04Z</time>
      </trkpt>
      <trkpt lat="48.62255" lon="2.0162">
        <ele>70.6</ele>
        <time>2026-01-30T07:44:05Z</time>
      </trkpt>
      <trkpt lat="48.62254" lon="2.01611">
        <ele>70.6</ele>
        <time>2026-01-30T07:44:06Z</time>
      </trkpt>
      <trkpt lat="48.62254" lon="2.01602">
        <ele>70.4</ele>
        <time>2026-01-30T07:44:07Z</time>
      </trkpt>
      <trkpt lat="48.62253" lon="2.01594">
        <ele>70.4</ele>
        <time>2026-01-30T07:44:08Z</time>
      </trkpt>
      <trkpt lat="48.62253" lon="2.01586">
        <ele>70.4</ele>
        <time>2026-01-30T07:44:09Z</time>
      </trkpt>
      <trkpt lat="48.62253" lon="2.01578">
        <ele>70.4</ele>
        <time>2026-01-30T07:44:10Z</time>
      </trkpt>
      <trkpt lat="48.62253" lon="2.0157">
        <ele>70.6</ele>
        <time>2026-01-30T07:44:11Z</time>
      </trkpt>
      <trkpt lat="48.62253" lon="2.01561">
        <ele>70.6</ele>
        <time>2026-01-30T07:44:12Z</time>
      </trkpt>
      <trkpt lat="48.62253" lon="2.01553">
        <ele>70.6</ele>
        <time>2026-01-30T07:44:13Z</time>
      </trkpt>
      <trkpt lat="48.62253" lon="2.01544">
        <ele>70.6</ele>
        <time>2026-01-30T07:44:14Z</time>
      </trkpt>
      <trkpt lat="48.62253" lon="2.01536">
        <ele>70.6</ele>
        <time>2026-01-30T07:44:15Z</time>
      </trkpt>
      <trkpt lat="48.62253" lon="2.01527">
        <ele>71.6</ele>
        <time>2026-01-30T07:44:16Z</time>
      </trkpt>
      <trkpt lat="48.62253" lon="2.01519">
        <ele>71.6</ele>
        <time>2026-01-30T07:44:17Z</time>
      </trkpt>
      <trkpt lat="48.62253" lon="2.01511">
        <ele>71.6</ele>
        <time>2026-01-30T07:44:18Z</time>
      </trkpt>
      <trkpt lat="48.62253" lon="2.01502">
        <ele>71.4</ele>
        <time>2026-01-30T07:44:19Z</time>
      </trkpt>
      <trkpt lat="48.62253" lon="2.01494">
        <ele>71.8</ele>
        <time>2026-01-30T07:44:20Z</time>
      </trkpt>
      <trkpt lat="48.62253" lon="2.01485">
        <ele>71.8</ele>
        <time>2026-01-30T07:44:21Z</time>
      </trkpt>
      <trkpt lat="48.62254" lon="2.01477">
        <ele>71.8</ele>
        <time>2026-01-30T07:44:22Z</time>
      </trkpt>
      <trkpt lat="48.62254" lon="2.01468">
        <ele>71.8</ele>
        <time>2026-01-30T07:44:23Z</time>
      </trkpt>
      <trkpt lat="48.62254" lon="2.0146">
        <ele>71.6</ele>
        <time>2026-01-30T07:44:24Z</time>
      </trkpt>
      <trkpt lat="48.62254" lon="2.01451">
        <ele>71.6</ele>
        <time>2026-01-30T07:44:25Z</time>
      </trkpt>
      <trkpt lat="48.62254" lon="2.01443">
        <ele>71.6</ele>
        <time>2026-01-30T07:44:26Z</time>
      </trkpt>
      <trkpt lat="48.62254" lon="2.01434">
        <ele>71.6</ele>
        <time>2026-01-30T07:44:27Z</time>
      </trkpt>
      <trkpt lat="48.62254" lon="2.01426">
        <ele>71.8</ele>
        <time>2026-01-30T07:44:28Z</time>
      </trkpt>
      <trkpt lat="48.62254" lon="2.01418">
        <ele>71.8</ele>
        <time>2026-01-30T07:44:29Z</time>
      </trkpt>
      <trkpt lat="48.62254" lon="2.01409">
        <ele>71.8</ele>
        <time>2026-01-30T07:44:30Z</time>
      </trkpt>
      <trkpt lat="48.62254" lon="2.01401">
        <ele>71.8</ele>
        <time>2026-01-30T07:44:31Z</time>
      </trkpt>
      <trkpt lat="48.62254" lon="2.01393">
        <ele>72.8</ele>
        <time>2026-01-30T07:44:32Z</time>
      </trkpt>
      <trkpt lat="48.62254" lon="2.01385">
        <ele>72.8</ele>
        <time>2026-01-30T07:44:33Z</time>
      </trkpt>
      <trkpt lat="48.62254" lon="2.01377">
        <ele>72.8</ele>
        <time>2026-01-30T07:44:34Z</time>
      </trkpt>
      <trkpt lat="48.62254" lon="2.01369">
        <ele>72.8</ele>
        <time>2026-01-30T07:44:35Z</time>
      </trkpt>
      <trkpt lat="48.62255" lon="2.01361">
        <ele>72.6</ele>
        <time>2026-01-30T07:44:36Z</time>
      </trkpt>
      <trkpt lat="48.62255" lon="2.01353">
        <ele>72.6</ele>
        <time>2026-01-30T07:44:37Z</time>
      </trkpt>
      <trkpt lat="48.62255" lon="2.01345">
        <ele>72.6</ele>
        <time>2026-01-30T07:44:38Z</time>
      </trkpt>
      <trkpt lat="48.62255" lon="2.01337">
        <ele>73.6</ele>
        <time>2026-01-30T07:44:39Z</time>
      </trkpt>
      <trkpt lat="48.62255" lon="2.0133">
        <ele>73.6</ele>
        <time>2026-01-30T07:44:40Z</time>
      </trkpt>
      <trkpt lat="48.62255" lon="2.01322">
        <ele>73.6</ele>
        <time>2026-01-30T07:44:41Z</time>
      </trkpt>
      <trkpt lat="48.62255" lon="2.01315">
        <ele>73.6</ele>
        <time>2026-01-30T07:44:42Z</time>
      </trkpt>
      <trkpt lat="48.62255" lon="2.01308">
        <ele>74</ele>
        <time>2026-01-30T07:44:43Z</time>
      </trkpt>
      <trkpt lat="48.62255" lon="2.01301">
        <ele>74.4</ele>
        <time>2026-01-30T07:44:44Z</time>
      </trkpt>
      <trkpt lat="48.62255" lon="2.01293">
        <ele>74.4</ele>
        <time>2026-01-30T07:44:45Z</time>
      </trkpt>
      <trkpt lat="48.62256" lon="2.01286">
        <ele>74.4</ele>
        <time>2026-01-30T07:44:46Z</time>
      </trkpt>
      <trkpt lat="48.62256" lon="2.01279">
        <ele>74.4</ele>
        <time>2026-01-30T07:44:47Z</time>
      </trkpt>
      <trkpt lat="48.62256" lon="2.01272">
        <ele>74.8</ele>
        <time>2026-01-30T07:44:48Z</time>
      </trkpt>
      <trkpt lat="48.62256" lon="2.01265">
        <ele>74.8</ele>
        <time>2026-01-30T07:44:49Z</time>
      </trkpt>
      <trkpt lat="48.62256" lon="2.01258">
        <ele>74.8</ele>
        <time>2026-01-30T07:44:50Z</time>
      </trkpt>
      <trkpt lat="48.62256" lon="2.01251">
        <ele>75.2</ele>
        <time>2026-01-30T07:44:51Z</time>
      </trkpt>
      <trkpt lat="48.62256" lon="2.01244">
        <ele>75.4</ele>
        <time>2026-01-30T07:44:52Z</time>
      </trkpt>
      <trkpt lat="48.62256" lon="2.01238">
        <ele>75.4</ele>
        <time>2026-01-30T07:44:53Z</time>
      </trkpt>
      <trkpt lat="48.62256" lon="2.01231">
        <ele>75.4</ele>
        <time>2026-01-30T07:44:54Z</time>
      </trkpt>
      <trkpt lat="48.62256" lon="2.01224">
        <ele>76.4</ele>
        <time>2026-01-30T07:44:55Z</time>
      </trkpt>
      <trkpt lat="48.62257" lon="2.01218">
        <ele>76.6</ele>
        <time>2026-01-30T07:44:56Z</time>
      </trkpt>
      <trkpt lat="48.62257" lon="2.01211">
        <ele>76.6</ele>
        <time>2026-01-30T07:44:57Z</time>
      </trkpt>
      <trkpt lat="48.62257" lon="2.01205">
        <ele>76.6</ele>
        <time>2026-01-30T07:44:58Z</time>
      </trkpt>
      <trkpt lat="48.62257" lon="2.01198">
        <ele>76.6</ele>
        <time>2026-01-30T07:44:59Z</time>
      </trkpt>
      <trkpt lat="48.62258" lon="2.01192">
        <ele>77</ele>
        <time>2026-01-30T07:45:00Z</time>
      </trkpt>
      <trkpt lat="48.62258" lon="2.01185">
        <ele>77</ele>
        <time>2026-01-30T07:45:01Z</time>
      </trkpt>
      <trkpt lat="48.62258" lon="2.01178">
        <ele>77</ele>
        <time>2026-01-30T07:45:02Z</time>
      </trkpt>
      <trkpt lat="48.62258" lon="2.01171">
        <ele>77</ele>
        <time>2026-01-30T07:45:03Z</time>
      </trkpt>
      <trkpt lat="48.62258" lon="2.01164">
        <ele>76.6</ele>
        <time>2026-01-30T07:45:04Z</time>
      </trkpt>
      <trkpt lat="48.62258" lon="2.01157">
        <ele>76.6</ele>
        <time>2026-01-30T07:45:05Z</time>
      </trkpt>
      <trkpt lat="48.62259" lon="2.0115">
        <ele>76.6</ele>
        <time>2026-01-30T07:45:06Z</time>
      </trkpt>
      <trkpt lat="48.62259" lon="2.01143">
        <ele>76.8</ele>
        <time>2026-01-30T07:45:07Z</time>
      </trkpt>
      <trkpt lat="48.62259" lon="2.01135">
        <ele>77.2</ele>
        <time>2026-01-30T07:45:08Z</time>
      </trkpt>
      <trkpt lat="48.62259" lon="2.01127">
        <ele>77.2</ele>
        <time>2026-01-30T07:45:09Z</time>
      </trkpt>
      <trkpt lat="48.62259" lon="2.01119">
        <ele>77.2</ele>
        <time>2026-01-30T07:45:10Z</time>
      </trkpt>
      <trkpt lat="48.62259" lon="2.0111">
        <ele>76.2</ele>
        <time>2026-01-30T07:45:11Z</time>
      </trkpt>
      <trkpt lat="48.62258" lon="2.01101">
        <ele>74.8</ele>
        <time>2026-01-30T07:45:12Z</time>
      </trkpt>
      <trkpt lat="48.62257" lon="2.01092">
        <ele>74.8</ele>
        <time>2026-01-30T07:45:13Z</time>
      </trkpt>
      <trkpt lat="48.62256" lon="2.01082">
        <ele>74.8</ele>
        <time>2026-01-30T07:45:14Z</time>
      </trkpt>
      <trkpt lat="48.62255" lon="2.01072">
        <ele>73.8</ele>
        <time>2026-01-30T07:45:15Z</time>
      </trkpt>
      <trkpt lat="48.62254" lon="2.01061">
        <ele>72.4</ele>
        <time>2026-01-30T07:45:16Z</time>
      </trkpt>
      <trkpt lat="48.62252" lon="2.0105">
        <ele>72.4</ele>
        <time>2026-01-30T07:45:17Z</time>
      </trkpt>
      <trkpt lat="48.62251" lon="2.0104">
        <ele>72.4</ele>
        <time>2026-01-30T07:45:18Z</time>
      </trkpt>
      <trkpt lat="48.6225" lon="2.01029">
        <ele>71.4</ele>
        <time>2026-01-30T07:45:19Z</time>
      </trkpt>
      <trkpt lat="48.62249" lon="2.01017">
        <ele>70.4</ele>
        <time>2026-01-30T07:45:20Z</time>
      </trkpt>
      <trkpt lat="48.62248" lon="2.01006">
        <ele>70.4</ele>
        <time>2026-01-30T07:45:21Z</time>
      </trkpt>
      <trkpt lat="48.62246" lon="2.00993">
        <ele>70.4</ele>
        <time>2026-01-30T07:45:22Z</time>
      </trkpt>
      <trkpt lat="48.62245" lon="2.00981">
        <ele>69.4</ele>
        <time>2026-01-30T07:45:23Z</time>
      </trkpt>
      <trkpt lat="48.62243" lon="2.00968">
        <ele>67.8</ele>
        <time>2026-01-30T07:45:24Z</time>
      </trkpt>
      <trkpt lat="48.62242" lon="2.00953">
        <ele>67.8</ele>
        <time>2026-01-30T07:45:25Z</time>
      </trkpt>
      <trkpt lat="48.6224" lon="2.0094">
        <ele>67.8</ele>
        <time>2026-01-30T07:45:26Z</time>
      </trkpt>
      <trkpt lat="48.62238" lon="2.00926">
        <ele>66.8</ele>
        <time>2026-01-30T07:45:27Z</time>
      </trkpt>
      <trkpt lat="48.62236" lon="2.00912">
        <ele>64</ele>
        <time>2026-01-30T07:45:28Z</time>
      </trkpt>
      <trkpt lat="48.62234" lon="2.00897">
        <ele>64</ele>
        <time>2026-01-30T07:45:29Z</time>
      </trkpt>
      <trkpt lat="48.62231" lon="2.00882">
        <ele>64</ele>
        <time>2026-01-30T07:45:30Z</time>
      </trkpt>
      <trkpt lat="48.62229" lon="2.00867">
        <ele>63</ele>
        <time>2026-01-30T07:45:31Z</time>
      </trkpt>
      <trkpt lat="48.62227" lon="2.00852">
        <ele>61.8</ele>
        <time>2026-01-30T07:45:32Z</time>
      </trkpt>
      <trkpt lat="48.62225" lon="2.00836">
        <ele>61.8</ele>
        <time>2026-01-30T07:45:33Z</time>
      </trkpt>
      <trkpt lat="48.62224" lon="2.0082">
        <ele>61.8</ele>
        <time>2026-01-30T07:45:34Z</time>
      </trkpt>
      <trkpt lat="48.62222" lon="2.00804">
        <ele>61.8</ele>
        <time>2026-01-30T07:45:35Z</time>
      </trkpt>
      <trkpt lat="48.6222" lon="2.00788">
        <ele>59.8</ele>
        <time>2026-01-30T07:45:36Z</time>
      </trkpt>
      <trkpt lat="48.62218" lon="2.00772">
        <ele>59.8</ele>
        <time>2026-01-30T07:45:37Z</time>
      </trkpt>
      <trkpt lat="48.62216" lon="2.00755">
        <ele>59.8</ele>
        <time>2026-01-30T07:45:38Z</time>
      </trkpt>
      <trkpt lat="48.62214" lon="2.00739">
        <ele>58.8</ele>
        <time>2026-01-30T07:45:39Z</time>
      </trkpt>
      <trkpt lat="48.62212" lon="2.00723">
        <ele>57.8</ele>
        <time>2026-01-30T07:45:40Z</time>
      </trkpt>
      <trkpt lat="48.6221" lon="2.00708">
        <ele>57.8</ele>
        <time>2026-01-30T07:45:41Z</time>
      </trkpt>
      <trkpt lat="48.62208" lon="2.00693">
        <ele>57.8</ele>
        <time>2026-01-30T07:45:42Z</time>
      </trkpt>
      <trkpt lat="48.62207" lon="2.00678">
        <ele>57.8</ele>
        <time>2026-01-30T07:45:43Z</time>
      </trkpt>
      <trkpt lat="48.62206" lon="2.00664">
        <ele>58</ele>
        <time>2026-01-30T07:45:44Z</time>
      </trkpt>
      <trkpt lat="48.62204" lon="2.0065">
        <ele>58</ele>
        <time>2026-01-30T07:45:45Z</time>
      </trkpt>
      <trkpt lat="48.62203" lon="2.00636">
        <ele>58</ele>
        <time>2026-01-30T07:45:46Z</time>
      </trkpt>
      <trkpt lat="48.62201" lon="2.00622">
        <ele>58</ele>
        <time>2026-01-30T07:45:47Z</time>
      </trkpt>
      <trkpt lat="48.62199" lon="2.00609">
        <ele>58.4</ele>
        <time>2026-01-30T07:45:48Z</time>
      </trkpt>
      <trkpt lat="48.62198" lon="2.00596">
        <ele>58.4</ele>
        <time>2026-01-30T07:45:49Z</time>
      </trkpt>
      <trkpt lat="48.62196" lon="2.00582">
        <ele>58.4</ele>
        <time>2026-01-30T07:45:50Z</time>
      </trkpt>
      <trkpt lat="48.62195" lon="2.00569">
        <ele>58.4</ele>
        <time>2026-01-30T07:45:51Z</time>
      </trkpt>
      <trkpt lat="48.62193" lon="2.00557">
        <ele>58.2</ele>
        <time>2026-01-30T07:45:52Z</time>
      </trkpt>
      <trkpt lat="48.62192" lon="2.00544">
        <ele>58.2</ele>
        <time>2026-01-30T07:45:53Z</time>
      </trkpt>
      <trkpt lat="48.62191" lon="2.00532">
        <ele>58.2</ele>
        <time>2026-01-30T07:45:54Z</time>
      </trkpt>
      <trkpt lat="48.6219" lon="2.0052">
        <ele>58.2</ele>
        <time>2026-01-30T07:45:55Z</time>
      </trkpt>
      <trkpt lat="48.62189" lon="2.00508">
        <ele>58.6</ele>
        <time>2026-01-30T07:45:56Z</time>
      </trkpt>
      <trkpt lat="48.62188" lon="2.00496">
        <ele>58.6</ele>
        <time>2026-01-30T07:45:57Z</time>
      </trkpt>
      <trkpt lat="48.62186" lon="2.00483">
        <ele>58.6</ele>
        <time>2026-01-30T07:45:58Z</time>
      </trkpt>
      <trkpt lat="48.62185" lon="2.00472">
        <ele>58.2</ele>
        <time>2026-01-30T07:45:59Z</time>
      </trkpt>
      <trkpt lat="48.62183" lon="2.0046">
        <ele>57.8</ele>
        <time>2026-01-30T07:46:00Z</time>
      </trkpt>
      <trkpt lat="48.62182" lon="2.00449">
        <ele>57.8</ele>
        <time>2026-01-30T07:46:01Z</time>
      </trkpt>
      <trkpt lat="48.62181" lon="2.00437">
        <ele>57.8</ele>
        <time>2026-01-30T07:46:02Z</time>
      </trkpt>
      <trkpt lat="48.6218" lon="2.00426">
        <ele>58</ele>
        <time>2026-01-30T07:46:03Z</time>
      </trkpt>
      <trkpt lat="48.62178" lon="2.00414">
        <ele>57.4</ele>
        <time>2026-01-30T07:46:04Z</time>
      </trkpt>
      <trkpt lat="48.62177" lon="2.00402">
        <ele>57.4</ele>
        <time>2026-01-30T07:46:05Z</time>
      </trkpt>
      <trkpt lat="48.62176" lon="2.00391">
        <ele>57.4</ele>
        <time>2026-01-30T07:46:06Z</time>
      </trkpt>
      <trkpt lat="48.62174" lon="2.00379">
        <ele>57.8</ele>
        <time>2026-01-30T07:46:07Z</time>
      </trkpt>
      <trkpt lat="48.62172" lon="2.00367">
        <ele>58.2</ele>
        <time>2026-01-30T07:46:08Z</time>
      </trkpt>
      <trkpt lat="48.62171" lon="2.00356">
        <ele>58.2</ele>
        <time>2026-01-30T07:46:09Z</time>
      </trkpt>
      <trkpt lat="48.62169" lon="2.00345">
        <ele>58.2</ele>
        <time>2026-01-30T07:46:10Z</time>
      </trkpt>
      <trkpt lat="48.62168" lon="2.00334">
        <ele>58.2</ele>
        <time>2026-01-30T07:46:11Z</time>
      </trkpt>
      <trkpt lat="48.62166" lon="2.00323">
        <ele>58.4</ele>
        <time>2026-01-30T07:46:12Z</time>
      </trkpt>
      <trkpt lat="48.62164" lon="2.00312">
        <ele>58.4</ele>
        <time>2026-01-30T07:46:13Z</time>
      </trkpt>
      <trkpt lat="48.62163" lon="2.00302">
        <ele>58.4</ele>
        <time>2026-01-30T07:46:14Z</time>
      </trkpt>
      <trkpt lat="48.62161" lon="2.00292">
        <ele>59.4</ele>
        <time>2026-01-30T07:46:15Z</time>
      </trkpt>
      <trkpt lat="48.6216" lon="2.00282">
        <ele>59.4</ele>
        <time>2026-01-30T07:46:16Z</time>
      </trkpt>
      <trkpt lat="48.62159" lon="2.00272">
        <ele>59.4</ele>
        <time>2026-01-30T07:46:17Z</time>
      </trkpt>
      <trkpt lat="48.62157" lon="2.00262">
        <ele>59.4</ele>
        <time>2026-01-30T07:46:18Z</time>
      </trkpt>
      <trkpt lat="48.62154" lon="2.00252">
        <ele>59</ele>
        <time>2026-01-30T07:46:19Z</time>
      </trkpt>
      <trkpt lat="48.62151" lon="2.00243">
        <ele>58.2</ele>
        <time>2026-01-30T07:46:20Z</time>
      </trkpt>
      <trkpt lat="48.62147" lon="2.00234">
        <ele>58.2</ele>
        <time>2026-01-30T07:46:21Z</time>
      </trkpt>
      <trkpt lat="48.62144" lon="2.00224">
        <ele>58.2</ele>
        <time>2026-01-30T07:46:22Z</time>
      </trkpt>
      <trkpt lat="48.62141" lon="2.00215">
        <ele>58.2</ele>
        <time>2026-01-30T07:46:23Z</time>
      </trkpt>
      <trkpt lat="48.62137" lon="2.00205">
        <ele>57.4</ele>
        <time>2026-01-30T07:46:24Z</time>
      </trkpt>
      <trkpt lat="48.62134" lon="2.00195">
        <ele>57.4</ele>
        <time>2026-01-30T07:46:25Z</time>
      </trkpt>
      <trkpt lat="48.6213" lon="2.00185">
        <ele>57.4</ele>
        <time>2026-01-30T07:46:26Z</time>
      </trkpt>
      <trkpt lat="48.62126" lon="2.00175">
        <ele>56.4</ele>
        <time>2026-01-30T07:46:27Z</time>
      </trkpt>
      <trkpt lat="48.62122" lon="2.00164">
        <ele>55.6</ele>
        <time>2026-01-30T07:46:28Z</time>
      </trkpt>
      <trkpt lat="48.62117" lon="2.00154">
        <ele>55.6</ele>
        <time>2026-01-30T07:46:29Z</time>
      </trkpt>
      <trkpt lat="48.62113" lon="2.00144">
        <ele>55.6</ele>
        <time>2026-01-30T07:46:30Z</time>
      </trkpt>
      <trkpt lat="48.62109" lon="2.00134">
        <ele>54.8</ele>
        <time>2026-01-30T07:46:31Z</time>
      </trkpt>
      <trkpt lat="48.62106" lon="2.00123">
        <ele>54.4</ele>
        <time>2026-01-30T07:46:32Z</time>
      </trkpt>
      <trkpt lat="48.62102" lon="2.00113">
        <ele>54.4</ele>
        <time>2026-01-30T07:46:33Z</time>
      </trkpt>
      <trkpt lat="48.62098" lon="2.00103">
        <ele>54.4</ele>
        <time>2026-01-30T07:46:34Z</time>
      </trkpt>
      <trkpt lat="48.62094" lon="2.00093">
        <ele>54.4</ele>
        <time>2026-01-30T07:46:35Z</time>
      </trkpt>
      <trkpt lat="48.6209" lon="2.00083">
        <ele>54.4</ele>
        <time>2026-01-30T07:46:36Z</time>
      </trkpt>
      <trkpt lat="48.62087" lon="2.00073">
        <ele>54.4</ele>
        <time>2026-01-30T07:46:37Z</time>
      </trkpt>
      <trkpt lat="48.62083" lon="2.00062">
        <ele>54.4</ele>
        <time>2026-01-30T07:46:38Z</time>
      </trkpt>
      <trkpt lat="48.6208" lon="2.00051">
        <ele>53.6</ele>
        <time>2026-01-30T07:46:39Z</time>
      </trkpt>
      <trkpt lat="48.62077" lon="2.0004">
        <ele>53.2</ele>
        <time>2026-01-30T07:46:40Z</time>
      </trkpt>
      <trkpt lat="48.62075" lon="2.00028">
        <ele>53.2</ele>
        <time>2026-01-30T07:46:41Z</time>
      </trkpt>
      <trkpt lat="48.62073" lon="2.00016">
        <ele>53.2</ele>
        <time>2026-01-30T07:46:42Z</time>
      </trkpt>
      <trkpt lat="48.62071" lon="2.00005">
        <ele>53.8</ele>
        <time>2026-01-30T07:46:43Z</time>
      </trkpt>
      <trkpt lat="48.62069" lon="1.99993">
        <ele>54</ele>
        <time>2026-01-30T07:46:44Z</time>
      </trkpt>
      <trkpt lat="48.62068" lon="1.99982">
        <ele>54</ele>
        <time>2026-01-30T07:46:45Z</time>
      </trkpt>
      <trkpt lat="48.62066" lon="1.99971">
        <ele>54</ele>
        <time>2026-01-30T07:46:46Z</time>
      </trkpt>
      <trkpt lat="48.62065" lon="1.99959">
        <ele>53.4</ele>
        <time>2026-01-30T07:46:47Z</time>
      </trkpt>
      <trkpt lat="48.62064" lon="1.99949">
        <ele>54.2</ele>
        <time>2026-01-30T07:46:48Z</time>
      </trkpt>
      <trkpt lat="48.62062" lon="1.99938">
        <ele>54.2</ele>
        <time>2026-01-30T07:46:49Z</time>
      </trkpt>
      <trkpt lat="48.62061" lon="1.99929">
        <ele>54.2</ele>
        <time>2026-01-30T07:46:50Z</time>
      </trkpt>
      <trkpt lat="48.62061" lon="1.9992">
        <ele>54.2</ele>
        <time>2026-01-30T07:46:51Z</time>
      </trkpt>
      <trkpt lat="48.62061" lon="1.99913">
        <ele>55.8</ele>
        <time>2026-01-30T07:46:52Z</time>
      </trkpt>
      <trkpt lat="48.62062" lon="1.99908">
        <ele>55.8</ele>
        <time>2026-01-30T07:46:53Z</time>
      </trkpt>
      <trkpt lat="48.62062" lon="1.99904">
        <ele>55.8</ele>
        <time>2026-01-30T07:46:54Z</time>
      </trkpt>
      <trkpt lat="48.62064" lon="1.99901">
        <ele>56.8</ele>
        <time>2026-01-30T07:46:55Z</time>
      </trkpt>
      <trkpt lat="48.62066" lon="1.99898">
        <ele>56.6</ele>
        <time>2026-01-30T07:46:56Z</time>
      </trkpt>
      <trkpt lat="48.62068" lon="1.99895">
        <ele>56.6</ele>
        <time>2026-01-30T07:46:57Z</time>
      </trkpt>
      <trkpt lat="48.62071" lon="1.99892">
        <ele>56.6</ele>
        <time>2026-01-30T07:46:58Z</time>
      </trkpt>
      <trkpt lat="48.62074" lon="1.99889">
        <ele>56.4</ele>
        <time>2026-01-30T07:46:59Z</time>
      </trkpt>
      <trkpt lat="48.62078" lon="1.99886">
        <ele>56.8</ele>
        <time>2026-01-30T07:47:00Z</time>
      </trkpt>
      <trkpt lat="48.62081" lon="1.99883">
        <ele>56.8</ele>
        <time>2026-01-30T07:47:01Z</time>
      </trkpt>
      <trkpt lat="48.62085" lon="1.9988">
        <ele>56.8</ele>
        <time>2026-01-30T07:47:02Z</time>
      </trkpt>
      <trkpt lat="48.62089" lon="1.99878">
        <ele>56.4</ele>
        <time>2026-01-30T07:47:03Z</time>
      </trkpt>
      <trkpt lat="48.62093" lon="1.99875">
        <ele>56.4</ele>
        <time>2026-01-30T07:47:04Z</time>
      </trkpt>
      <trkpt lat="48.62097" lon="1.99873">
        <ele>56.4</ele>
        <time>2026-01-30T07:47:05Z</time>
      </trkpt>
      <trkpt lat="48.62101" lon="1.9987">
        <ele>56.4</ele>
        <time>2026-01-30T07:47:06Z</time>
      </trkpt>
      <trkpt lat="48.62106" lon="1.99868">
        <ele>56.4</ele>
        <time>2026-01-30T07:47:07Z</time>
      </trkpt>
      <trkpt lat="48.6211" lon="1.99864">
        <ele>57</ele>
        <time>2026-01-30T07:47:08Z</time>
      </trkpt>
      <trkpt lat="48.62114" lon="1.99861">
        <ele>57</ele>
        <time>2026-01-30T07:47:09Z</time>
      </trkpt>
      <trkpt lat="48.62118" lon="1.99859">
        <ele>57</ele>
        <time>2026-01-30T07:47:10Z</time>
      </trkpt>
      <trkpt lat="48.62122" lon="1.99856">
        <ele>57.6</ele>
        <time>2026-01-30T07:47:11Z</time>
      </trkpt>
      <trkpt lat="48.62126" lon="1.99852">
        <ele>57.6</ele>
        <time>2026-01-30T07:47:12Z</time>
      </trkpt>
      <trkpt lat="48.62131" lon="1.99849">
        <ele>57.6</ele>
        <time>2026-01-30T07:47:13Z</time>
      </trkpt>
      <trkpt lat="48.62135" lon="1.99845">
        <ele>57.6</ele>
        <time>2026-01-30T07:47:14Z</time>
      </trkpt>
      <trkpt lat="48.62139" lon="1.99842">
        <ele>57.6</ele>
        <time>2026-01-30T07:47:15Z</time>
      </trkpt>
      <trkpt lat="48.62143" lon="1.99838">
        <ele>58</ele>
        <time>2026-01-30T07:47:16Z</time>
      </trkpt>
      <trkpt lat="48.62148" lon="1.99835">
        <ele>58</ele>
        <time>2026-01-30T07:47:17Z</time>
      </trkpt>
      <trkpt lat="48.62152" lon="1.99831">
        <ele>58</ele>
        <time>2026-01-30T07:47:18Z</time>
      </trkpt>
      <trkpt lat="48.62156" lon="1.99828">
        <ele>58.8</ele>
        <time>2026-01-30T07:47:19Z</time>
      </trkpt>
      <trkpt lat="48.6216" lon="1.99824">
        <ele>59</ele>
        <time>2026-01-30T07:47:20Z</time>
      </trkpt>
      <trkpt lat="48.62163" lon="1.9982">
        <ele>59</ele>
        <time>2026-01-30T07:47:21Z</time>
      </trkpt>
      <trkpt lat="48.62167" lon="1.99815">
        <ele>59</ele>
        <time>2026-01-30T07:47:22Z</time>
      </trkpt>
      <trkpt lat="48.62171" lon="1.99811">
        <ele>58.6</ele>
        <time>2026-01-30T07:47:23Z</time>
      </trkpt>
      <trkpt lat="48.62175" lon="1.99806">
        <ele>58.8</ele>
        <time>2026-01-30T07:47:24Z</time>
      </trkpt>
      <trkpt lat="48.62178" lon="1.99802">
        <ele>58.8</ele>
        <time>2026-01-30T07:47:25Z</time>
      </trkpt>
      <trkpt lat="48.62182" lon="1.99797">
        <ele>58.8</ele>
        <time>2026-01-30T07:47:26Z</time>
      </trkpt>
      <trkpt lat="48.62185" lon="1.99793">
        <ele>59.6</ele>
        <time>2026-01-30T07:47:27Z</time>
      </trkpt>
      <trkpt lat="48.62189" lon="1.99788">
        <ele>60</ele>
        <time>2026-01-30T07:47:28Z</time>
      </trkpt>
      <trkpt lat="48.62192" lon="1.99782">
        <ele>60</ele>
        <time>2026-01-30T07:47:29Z</time>
      </trkpt>
      <trkpt lat="48.62195" lon="1.99777">
        <ele>60</ele>
        <time>2026-01-30T07:47:30Z</time>
      </trkpt>
      <trkpt lat="48.62198" lon="1.99771">
        <ele>60</ele>
        <time>2026-01-30T07:47:31Z</time>
      </trkpt>
      <trkpt lat="48.622" lon="1.99764">
        <ele>59</ele>
        <time>2026-01-30T07:47:32Z</time>
      </trkpt>
      <trkpt lat="48.62203" lon="1.99756">
        <ele>59</ele>
        <time>2026-01-30T07:47:33Z</time>
      </trkpt>
      <trkpt lat="48.62204" lon="1.99748">
        <ele>59</ele>
        <time>2026-01-30T07:47:34Z</time>
      </trkpt>
      <trkpt lat="48.62206" lon="1.99739">
        <ele>59</ele>
        <time>2026-01-30T07:47:35Z</time>
      </trkpt>
      <trkpt lat="48.62206" lon="1.9973">
        <ele>58.4</ele>
        <time>2026-01-30T07:47:36Z</time>
      </trkpt>
      <trkpt lat="48.62206" lon="1.99721">
        <ele>58.4</ele>
        <time>2026-01-30T07:47:37Z</time>
      </trkpt>
      <trkpt lat="48.62206" lon="1.99712">
        <ele>58.4</ele>
        <time>2026-01-30T07:47:38Z</time>
      </trkpt>
      <trkpt lat="48.62206" lon="1.99703">
        <ele>58</ele>
        <time>2026-01-30T07:47:39Z</time>
      </trkpt>
      <trkpt lat="48.62206" lon="1.99693">
        <ele>57.4</ele>
        <time>2026-01-30T07:47:40Z</time>
      </trkpt>
      <trkpt lat="48.62206" lon="1.99684">
        <ele>57.4</ele>
        <time>2026-01-30T07:47:41Z</time>
      </trkpt>
      <trkpt lat="48.62207" lon="1.99674">
        <ele>57.4</ele>
        <time>2026-01-30T07:47:42Z</time>
      </trkpt>
      <trkpt lat="48.62208" lon="1.99665">
        <ele>57.4</ele>
        <time>2026-01-30T07:47:43Z</time>
      </trkpt>
      <trkpt lat="48.62209" lon="1.99654">
        <ele>56</ele>
        <time>2026-01-30T07:47:44Z</time>
      </trkpt>
      <trkpt lat="48.6221" lon="1.99643">
        <ele>56</ele>
        <time>2026-01-30T07:47:45Z</time>
      </trkpt>
      <trkpt lat="48.62212" lon="1.99632">
        <ele>56</ele>
        <time>2026-01-30T07:47:46Z</time>
      </trkpt>
      <trkpt lat="48.62213" lon="1.9962">
        <ele>55</ele>
        <time>2026-01-30T07:47:47Z</time>
      </trkpt>
      <trkpt lat="48.62215" lon="1.99609">
        <ele>53.8</ele>
        <time>2026-01-30T07:47:48Z</time>
      </trkpt>
      <trkpt lat="48.62216" lon="1.99596">
        <ele>53.8</ele>
        <time>2026-01-30T07:47:49Z</time>
      </trkpt>
      <trkpt lat="48.62217" lon="1.99584">
        <ele>53.8</ele>
        <time>2026-01-30T07:47:50Z</time>
      </trkpt>
      <trkpt lat="48.62217" lon="1.9957">
        <ele>53.8</ele>
        <time>2026-01-30T07:47:51Z</time>
      </trkpt>
      <trkpt lat="48.62217" lon="1.99557">
        <ele>51.2</ele>
        <time>2026-01-30T07:47:52Z</time>
      </trkpt>
      <trkpt lat="48.62217" lon="1.99543">
        <ele>51.2</ele>
        <time>2026-01-30T07:47:53Z</time>
      </trkpt>
      <trkpt lat="48.62216" lon="1.99529">
        <ele>51.2</ele>
        <time>2026-01-30T07:47:54Z</time>
      </trkpt>
      <trkpt lat="48.62216" lon="1.99515">
        <ele>50.2</ele>
        <time>2026-01-30T07:47:55Z</time>
      </trkpt>
      <trkpt lat="48.62217" lon="1.99501">
        <ele>49.2</ele>
        <time>2026-01-30T07:47:56Z</time>
      </trkpt>
      <trkpt lat="48.62217" lon="1.99487">
        <ele>49.2</ele>
        <time>2026-01-30T07:47:57Z</time>
      </trkpt>
      <trkpt lat="48.62217" lon="1.99472">
        <ele>49.2</ele>
        <time>2026-01-30T07:47:58Z</time>
      </trkpt>
      <trkpt lat="48.62216" lon="1.99458">
        <ele>48.2</ele>
        <time>2026-01-30T07:47:59Z</time>
      </trkpt>
      <trkpt lat="48.62216" lon="1.99444">
        <ele>47.4</ele>
        <time>2026-01-30T07:48:00Z</time>
      </trkpt>
      <trkpt lat="48.62215" lon="1.99429">
        <ele>47.4</ele>
        <time>2026-01-30T07:48:01Z</time>
      </trkpt>
      <trkpt lat="48.62215" lon="1.99415">
        <ele>47.4</ele>
        <time>2026-01-30T07:48:02Z</time>
      </trkpt>
      <trkpt lat="48.62214" lon="1.99401">
        <ele>47</ele>
        <time>2026-01-30T07:48:03Z</time>
      </trkpt>
      <trkpt lat="48.62214" lon="1.99387">
        <ele>47.6</ele>
        <time>2026-01-30T07:48:04Z</time>
      </trkpt>
      <trkpt lat="48.62213" lon="1.99374">
        <ele>47.6</ele>
        <time>2026-01-30T07:48:05Z</time>
      </trkpt>
      <trkpt lat="48.62212" lon="1.99361">
        <ele>47.6</ele>
        <time>2026-01-30T07:48:06Z</time>
      </trkpt>
      <trkpt lat="48.62211" lon="1.99348">
        <ele>46.6</ele>
        <time>2026-01-30T07:48:07Z</time>
      </trkpt>
      <trkpt lat="48.6221" lon="1.99335">
        <ele>46.8</ele>
        <time>2026-01-30T07:48:08Z</time>
      </trkpt>
      <trkpt lat="48.62208" lon="1.99323">
        <ele>46.8</ele>
        <time>2026-01-30T07:48:09Z</time>
      </trkpt>
      <trkpt lat="48.62206" lon="1.99311">
        <ele>46.8</ele>
        <time>2026-01-30T07:48:10Z</time>
      </trkpt>
      <trkpt lat="48.62204" lon="1.99299">
        <ele>47</ele>
        <time>2026-01-30T07:48:11Z</time>
      </trkpt>
      <trkpt lat="48.62201" lon="1.99288">
        <ele>47.4</ele>
        <time>2026-01-30T07:48:12Z</time>
      </trkpt>
      <trkpt lat="48.62198" lon="1.99277">
        <ele>47.4</ele>
        <time>2026-01-30T07:48:13Z</time>
      </trkpt>
      <trkpt lat="48.62195" lon="1.99267">
        <ele>47.4</ele>
        <time>2026-01-30T07:48:14Z</time>
      </trkpt>
      <trkpt lat="48.62192" lon="1.99257">
        <ele>47.4</ele>
        <time>2026-01-30T07:48:15Z</time>
      </trkpt>
      <trkpt lat="48.6219" lon="1.99247">
        <ele>48.8</ele>
        <time>2026-01-30T07:48:16Z</time>
      </trkpt>
      <trkpt lat="48.62187" lon="1.99238">
        <ele>48.8</ele>
        <time>2026-01-30T07:48:17Z</time>
      </trkpt>
      <trkpt lat="48.62187" lon="1.99229">
        <ele>48.8</ele>
        <time>2026-01-30T07:48:18Z</time>
      </trkpt>
      <trkpt lat="48.62188" lon="1.9922">
        <ele>48.8</ele>
        <time>2026-01-30T07:48:19Z</time>
      </trkpt>
      <trkpt lat="48.62192" lon="1.99212">
        <ele>48</ele>
        <time>2026-01-30T07:48:20Z</time>
      </trkpt>
      <trkpt lat="48.62196" lon="1.99206">
        <ele>48</ele>
        <time>2026-01-30T07:48:21Z</time>
      </trkpt>
      <trkpt lat="48.62201" lon="1.99199">
        <ele>48</ele>
        <time>2026-01-30T07:48:22Z</time>
      </trkpt>
      <trkpt lat="48.62206" lon="1.99192">
        <ele>47.2</ele>
        <time>2026-01-30T07:48:23Z</time>
      </trkpt>
      <trkpt lat="48.62211" lon="1.99186">
        <ele>46.6</ele>
        <time>2026-01-30T07:48:24Z</time>
      </trkpt>
      <trkpt lat="48.62217" lon="1.9918">
        <ele>46.6</ele>
        <time>2026-01-30T07:48:25Z</time>
      </trkpt>
      <trkpt lat="48.62223" lon="1.99173">
        <ele>46.6</ele>
        <time>2026-01-30T07:48:26Z</time>
      </trkpt>
      <trkpt lat="48.62228" lon="1.99167">
        <ele>46.6</ele>
        <time>2026-01-30T07:48:27Z</time>
      </trkpt>
      <trkpt lat="48.62234" lon="1.9916">
        <ele>46.4</ele>
        <time>2026-01-30T07:48:28Z</time>
      </trkpt>
      <trkpt lat="48.6224" lon="1.99154">
        <ele>46.4</ele>
        <time>2026-01-30T07:48:29Z</time>
      </trkpt>
      <trkpt lat="48.62245" lon="1.99148">
        <ele>46.4</ele>
        <time>2026-01-30T07:48:30Z</time>
      </trkpt>
      <trkpt lat="48.6225" lon="1.99141">
        <ele>47.2</ele>
        <time>2026-01-30T07:48:31Z</time>
      </trkpt>
      <trkpt lat="48.62256" lon="1.99135">
        <ele>47.2</ele>
        <time>2026-01-30T07:48:32Z</time>
      </trkpt>
      <trkpt lat="48.62261" lon="1.99129">
        <ele>47.2</ele>
        <time>2026-01-30T07:48:33Z</time>
      </trkpt>
      <trkpt lat="48.62267" lon="1.99123">
        <ele>47.2</ele>
        <time>2026-01-30T07:48:34Z</time>
      </trkpt>
      <trkpt lat="48.62272" lon="1.99117">
        <ele>47.4</ele>
        <time>2026-01-30T07:48:35Z</time>
      </trkpt>
      <trkpt lat="48.62277" lon="1.99111">
        <ele>47.6</ele>
        <time>2026-01-30T07:48:36Z</time>
      </trkpt>
      <trkpt lat="48.62283" lon="1.99105">
        <ele>47.6</ele>
        <time>2026-01-30T07:48:37Z</time>
      </trkpt>
      <trkpt lat="48.62288" lon="1.99099">
        <ele>47.6</ele>
        <time>2026-01-30T07:48:38Z</time>
      </trkpt>
      <trkpt lat="48.62293" lon="1.99094">
        <ele>47.6</ele>
        <time>2026-01-30T07:48:39Z</time>
      </trkpt>
      <trkpt lat="48.62299" lon="1.99088">
        <ele>48</ele>
        <time>2026-01-30T07:48:40Z</time>
      </trkpt>
      <trkpt lat="48.62304" lon="1.99082">
        <ele>48</ele>
        <time>2026-01-30T07:48:41Z</time>
      </trkpt>
      <trkpt lat="48.62309" lon="1.99076">
        <ele>48</ele>
        <time>2026-01-30T07:48:42Z</time>
      </trkpt>
      <trkpt lat="48.62314" lon="1.99069">
        <ele>48</ele>
        <time>2026-01-30T07:48:43Z</time>
      </trkpt>
      <trkpt lat="48.62318" lon="1.99062">
        <ele>48.2</ele>
        <time>2026-01-30T07:48:44Z</time>
      </trkpt>
      <trkpt lat="48.62322" lon="1.99055">
        <ele>48.2</ele>
        <time>2026-01-30T07:48:45Z</time>
      </trkpt>
      <trkpt lat="48.62326" lon="1.99049">
        <ele>48.2</ele>
        <time>2026-01-30T07:48:46Z</time>
      </trkpt>
      <trkpt lat="48.62331" lon="1.99042">
        <ele>48.8</ele>
        <time>2026-01-30T07:48:47Z</time>
      </trkpt>
      <trkpt lat="48.62334" lon="1.99035">
        <ele>49.8</ele>
        <time>2026-01-30T07:48:48Z</time>
      </trkpt>
      <trkpt lat="48.62338" lon="1.99027">
        <ele>49.8</ele>
        <time>2026-01-30T07:48:49Z</time>
      </trkpt>
      <trkpt lat="48.6234" lon="1.99019">
        <ele>49.8</ele>
        <time>2026-01-30T07:48:50Z</time>
      </trkpt>
      <trkpt lat="48.62342" lon="1.9901">
        <ele>49.8</ele>
        <time>2026-01-30T07:48:51Z</time>
      </trkpt>
      <trkpt lat="48.62342" lon="1.99002">
        <ele>50.2</ele>
        <time>2026-01-30T07:48:52Z</time>
      </trkpt>
      <trkpt lat="48.62342" lon="1.98993">
        <ele>50.2</ele>
        <time>2026-01-30T07:48:53Z</time>
      </trkpt>
      <trkpt lat="48.62342" lon="1.98985">
        <ele>50.2</ele>
        <time>2026-01-30T07:48:54Z</time>
      </trkpt>
      <trkpt lat="48.62341" lon="1.98976">
        <ele>50.2</ele>
        <time>2026-01-30T07:48:55Z</time>
      </trkpt>
      <trkpt lat="48.62339" lon="1.98968">
        <ele>50.2</ele>
        <time>2026-01-30T07:48:56Z</time>
      </trkpt>
      <trkpt lat="48.62338" lon="1.9896">
        <ele>50.2</ele>
        <time>2026-01-30T07:48:57Z</time>
      </trkpt>
      <trkpt lat="48.62337" lon="1.98952">
        <ele>50.2</ele>
        <time>2026-01-30T07:48:58Z</time>
      </trkpt>
      <trkpt lat="48.62336" lon="1.98944">
        <ele>50.6</ele>
        <time>2026-01-30T07:48:59Z</time>
      </trkpt>
      <trkpt lat="48.62335" lon="1.98936">
        <ele>51</ele>
        <time>2026-01-30T07:49:00Z</time>
      </trkpt>
      <trkpt lat="48.62334" lon="1.98928">
        <ele>51</ele>
        <time>2026-01-30T07:49:01Z</time>
      </trkpt>
      <trkpt lat="48.62334" lon="1.9892">
        <ele>51</ele>
        <time>2026-01-30T07:49:02Z</time>
      </trkpt>
      <trkpt lat="48.62334" lon="1.98912">
        <ele>51</ele>
        <time>2026-01-30T07:49:03Z</time>
      </trkpt>
      <trkpt lat="48.62335" lon="1.98903">
        <ele>50.6</ele>
        <time>2026-01-30T07:49:04Z</time>
      </trkpt>
      <trkpt lat="48.62336" lon="1.98896">
        <ele>50.6</ele>
        <time>2026-01-30T07:49:05Z</time>
      </trkpt>
      <trkpt lat="48.62338" lon="1.98888">
        <ele>50.6</ele>
        <time>2026-01-30T07:49:06Z</time>
      </trkpt>
      <trkpt lat="48.6234" lon="1.9888">
        <ele>51</ele>
        <time>2026-01-30T07:49:07Z</time>
      </trkpt>
      <trkpt lat="48.62342" lon="1.98873">
        <ele>51</ele>
        <time>2026-01-30T07:49:08Z</time>
      </trkpt>
      <trkpt lat="48.62345" lon="1.98865">
        <ele>51</ele>
        <time>2026-01-30T07:49:09Z</time>
      </trkpt>
      <trkpt lat="48.62347" lon="1.98857">
        <ele>51</ele>
        <time>2026-01-30T07:49:10Z</time>
      </trkpt>
      <trkpt lat="48.6235" lon="1.9885">
        <ele>51.2</ele>
        <time>2026-01-30T07:49:11Z</time>
      </trkpt>
      <trkpt lat="48.62353" lon="1.98843">
        <ele>51.8</ele>
        <time>2026-01-30T07:49:12Z</time>
      </trkpt>
      <trkpt lat="48.62356" lon="1.98836">
        <ele>51.8</ele>
        <time>2026-01-30T07:49:13Z</time>
      </trkpt>
      <trkpt lat="48.62359" lon="1.98829">
        <ele>51.8</ele>
        <time>2026-01-30T07:49:14Z</time>
      </trkpt>
      <trkpt lat="48.62362" lon="1.98822">
        <ele>52</ele>
        <time>2026-01-30T07:49:15Z</time>
      </trkpt>
      <trkpt lat="48.62365" lon="1.98815">
        <ele>52.2</ele>
        <time>2026-01-30T07:49:16Z</time>
      </trkpt>
      <trkpt lat="48.62368" lon="1.98808">
        <ele>52.2</ele>
        <time>2026-01-30T07:49:17Z</time>
      </trkpt>
      <trkpt lat="48.62372" lon="1.98802">
        <ele>52.2</ele>
        <time>2026-01-30T07:49:18Z</time>
      </trkpt>
      <trkpt lat="48.62375" lon="1.98795">
        <ele>52.8</ele>
        <time>2026-01-30T07:49:19Z</time>
      </trkpt>
      <trkpt lat="48.62379" lon="1.98788">
        <ele>52.8</ele>
        <time>2026-01-30T07:49:20Z</time>
      </trkpt>
      <trkpt lat="48.62382" lon="1.98782">
        <ele>52.8</ele>
        <time>2026-01-30T07:49:21Z</time>
      </trkpt>
      <trkpt lat="48.62386" lon="1.98776">
        <ele>52.8</ele>
        <time>2026-01-30T07:49:22Z</time>
      </trkpt>
      <trkpt lat="48.62389" lon="1.98769">
        <ele>52.8</ele>
        <time>2026-01-30T07:49:23Z</time>
      </trkpt>
      <trkpt lat="48.62392" lon="1.98763">
        <ele>53.6</ele>
        <time>2026-01-30T07:49:24Z</time>
      </trkpt>
      <trkpt lat="48.62395" lon="1.98756">
        <ele>53.6</ele>
        <time>2026-01-30T07:49:25Z</time>
      </trkpt>
      <trkpt lat="48.62398" lon="1.9875">
        <ele>53.6</ele>
        <time>2026-01-30T07:49:26Z</time>
      </trkpt>
      <trkpt lat="48.62401" lon="1.98743">
        <ele>53.6</ele>
        <time>2026-01-30T07:49:27Z</time>
      </trkpt>
      <trkpt lat="48.62404" lon="1.98736">
        <ele>53.6</ele>
        <time>2026-01-30T07:49:28Z</time>
      </trkpt>
      <trkpt lat="48.62406" lon="1.98728">
        <ele>53.6</ele>
        <time>2026-01-30T07:49:29Z</time>
      </trkpt>
      <trkpt lat="48.62408" lon="1.98721">
        <ele>53.6</ele>
        <time>2026-01-30T07:49:30Z</time>
      </trkpt>
      <trkpt lat="48.62411" lon="1.98714">
        <ele>54</ele>
        <time>2026-01-30T07:49:31Z</time>
      </trkpt>
      <trkpt lat="48.62413" lon="1.98706">
        <ele>54</ele>
        <time>2026-01-30T07:49:32Z</time>
      </trkpt>
      <trkpt lat="48.62415" lon="1.98699">
        <ele>54</ele>
        <time>2026-01-30T07:49:33Z</time>
      </trkpt>
      <trkpt lat="48.62417" lon="1.98691">
        <ele>54</ele>
        <time>2026-01-30T07:49:34Z</time>
      </trkpt>
      <trkpt lat="48.62419" lon="1.98684">
        <ele>54</ele>
        <time>2026-01-30T07:49:35Z</time>
      </trkpt>
      <trkpt lat="48.62422" lon="1.98676">
        <ele>55.2</ele>
        <time>2026-01-30T07:49:36Z</time>
      </trkpt>
      <trkpt lat="48.62424" lon="1.98669">
        <ele>55.2</ele>
        <time>2026-01-30T07:49:37Z</time>
      </trkpt>
      <trkpt lat="48.62425" lon="1.98662">
        <ele>55.2</ele>
        <time>2026-01-30T07:49:38Z</time>
      </trkpt>
      <trkpt lat="48.62427" lon="1.98655">
        <ele>55.2</ele>
        <time>2026-01-30T07:49:39Z</time>
      </trkpt>
      <trkpt lat="48.62429" lon="1.98648">
        <ele>55.8</ele>
        <time>2026-01-30T07:49:40Z</time>
      </trkpt>
      <trkpt lat="48.62431" lon="1.98641">
        <ele>55.8</ele>
        <time>2026-01-30T07:49:41Z</time>
      </trkpt>
      <trkpt lat="48.62433" lon="1.98635">
        <ele>55.8</ele>
        <time>2026-01-30T07:49:42Z</time>
      </trkpt>
      <trkpt lat="48.62435" lon="1.98628">
        <ele>56.4</ele>
        <time>2026-01-30T07:49:43Z</time>
      </trkpt>
      <trkpt lat="48.62437" lon="1.98621">
        <ele>56.2</ele>
        <time>2026-01-30T07:49:44Z</time>
      </trkpt>
      <trkpt lat="48.62439" lon="1.98614">
        <ele>56.2</ele>
        <time>2026-01-30T07:49:45Z</time>
      </trkpt>
      <trkpt lat="48.62441" lon="1.98607">
        <ele>56.2</ele>
        <time>2026-01-30T07:49:46Z</time>
      </trkpt>
      <trkpt lat="48.62443" lon="1.986">
        <ele>56.6</ele>
        <time>2026-01-30T07:49:47Z</time>
      </trkpt>
      <trkpt lat="48.62445" lon="1.98593">
        <ele>56.8</ele>
        <time>2026-01-30T07:49:48Z</time>
      </trkpt>
      <trkpt lat="48.62447" lon="1.98586">
        <ele>56.8</ele>
        <time>2026-01-30T07:49:49Z</time>
      </trkpt>
      <trkpt lat="48.62449" lon="1.98579">
        <ele>56.8</ele>
        <time>2026-01-30T07:49:50Z</time>
      </trkpt>
      <trkpt lat="48.62451" lon="1.98572">
        <ele>57</ele>
        <time>2026-01-30T07:49:51Z</time>
      </trkpt>
      <trkpt lat="48.62453" lon="1.98565">
        <ele>57.6</ele>
        <time>2026-01-30T07:49:52Z</time>
      </trkpt>
      <trkpt lat="48.62455" lon="1.98559">
        <ele>57.6</ele>
        <time>2026-01-30T07:49:53Z</time>
      </trkpt>
      <trkpt lat="48.62457" lon="1.98552">
        <ele>57.6</ele>
        <time>2026-01-30T07:49:54Z</time>
      </trkpt>
      <trkpt lat="48.62459" lon="1.98545">
        <ele>58.2</ele>
        <time>2026-01-30T07:49:55Z</time>
      </trkpt>
      <trkpt lat="48.62461" lon="1.98538">
        <ele>58.4</ele>
        <time>2026-01-30T07:49:56Z</time>
      </trkpt>
      <trkpt lat="48.62463" lon="1.98531">
        <ele>58.4</ele>
        <time>2026-01-30T07:49:57Z</time>
      </trkpt>
      <trkpt lat="48.62465" lon="1.98524">
        <ele>58.4</ele>
        <time>2026-01-30T07:49:58Z</time>
      </trkpt>
      <trkpt lat="48.62467" lon="1.98517">
        <ele>58.4</ele>
        <time>2026-01-30T07:49:59Z</time>
      </trkpt>
      <trkpt lat="48.62469" lon="1.9851">
        <ele>58.6</ele>
        <time>2026-01-30T07:50:00Z</time>
      </trkpt>
      <trkpt lat="48.62471" lon="1.98503">
        <ele>58.6</ele>
        <time>2026-01-30T07:50:01Z</time>
      </trkpt>
      <trkpt lat="48.62473" lon="1.98496">
        <ele>58.6</ele>
        <time>2026-01-30T07:50:02Z</time>
      </trkpt>
      <trkpt lat="48.62475" lon="1.98489">
        <ele>58.6</ele>
        <time>2026-01-30T07:50:03Z</time>
      </trkpt>
      <trkpt lat="48.62477" lon="1.98482">
        <ele>59</ele>
        <time>2026-01-30T07:50:04Z</time>
      </trkpt>
      <trkpt lat="48.62479" lon="1.98475">
        <ele>59</ele>
        <time>2026-01-30T07:50:05Z</time>
      </trkpt>
      <trkpt lat="48.62481" lon="1.98468">
        <ele>59</ele>
        <time>2026-01-30T07:50:06Z</time>
      </trkpt>
      <trkpt lat="48.62483" lon="1.98461">
        <ele>59</ele>
        <time>2026-01-30T07:50:07Z</time>
      </trkpt>
      <trkpt lat="48.62485" lon="1.98454">
        <ele>59.4</ele>
        <time>2026-01-30T07:50:08Z</time>
      </trkpt>
      <trkpt lat="48.62487" lon="1.98447">
        <ele>59.4</ele>
        <time>2026-01-30T07:50:09Z</time>
      </trkpt>
      <trkpt lat="48.62489" lon="1.9844">
        <ele>59.4</ele>
        <time>2026-01-30T07:50:10Z</time>
      </trkpt>
      <trkpt lat="48.62491" lon="1.98433">
        <ele>59.6</ele>
        <time>2026-01-30T07:50:11Z</time>
      </trkpt>
      <trkpt lat="48.62493" lon="1.98426">
        <ele>60</ele>
        <time>2026-01-30T07:50:12Z</time>
      </trkpt>
      <trkpt lat="48.62496" lon="1.98419">
        <ele>60</ele>
        <time>2026-01-30T07:50:13Z</time>
      </trkpt>
      <trkpt lat="48.62498" lon="1.98412">
        <ele>60</ele>
        <time>2026-01-30T07:50:14Z</time>
      </trkpt>
      <trkpt lat="48.625" lon="1.98405">
        <ele>60.2</ele>
        <time>2026-01-30T07:50:15Z</time>
      </trkpt>
      <trkpt lat="48.62502" lon="1.98398">
        <ele>60</ele>
        <time>2026-01-30T07:50:16Z</time>
      </trkpt>
      <trkpt lat="48.62504" lon="1.98391">
        <ele>60</ele>
        <time>2026-01-30T07:50:17Z</time>
      </trkpt>
      <trkpt lat="48.62506" lon="1.98383">
        <ele>60</ele>
        <time>2026-01-30T07:50:18Z</time>
      </trkpt>
      <trkpt lat="48.62508" lon="1.98376">
        <ele>60.2</ele>
        <time>2026-01-30T07:50:19Z</time>
      </trkpt>
      <trkpt lat="48.6251" lon="1.98369">
        <ele>60.4</ele>
        <time>2026-01-30T07:50:20Z</time>
      </trkpt>
      <trkpt lat="48.62512" lon="1.98362">
        <ele>60.4</ele>
        <time>2026-01-30T07:50:21Z</time>
      </trkpt>
      <trkpt lat="48.62514" lon="1.98355">
        <ele>60.4</ele>
        <time>2026-01-30T07:50:22Z</time>
      </trkpt>
      <trkpt lat="48.62516" lon="1.98348">
        <ele>60.4</ele>
        <time>2026-01-30T07:50:23Z</time>
      </trkpt>
      <trkpt lat="48.62518" lon="1.9834">
        <ele>61</ele>
        <time>2026-01-30T07:50:24Z</time>
      </trkpt>
      <trkpt lat="48.6252" lon="1.98333">
        <ele>61</ele>
        <time>2026-01-30T07:50:25Z</time>
      </trkpt>
      <trkpt lat="48.62522" lon="1.98326">
        <ele>61</ele>
        <time>2026-01-30T07:50:26Z</time>
      </trkpt>
      <trkpt lat="48.62524" lon="1.98319">
        <ele>61.6</ele>
        <time>2026-01-30T07:50:27Z</time>
      </trkpt>
      <trkpt lat="48.62526" lon="1.98312">
        <ele>61.4</ele>
        <time>2026-01-30T07:50:28Z</time>
      </trkpt>
      <trkpt lat="48.62528" lon="1.98305">
        <ele>61.4</ele>
        <time>2026-01-30T07:50:29Z</time>
      </trkpt>
      <trkpt lat="48.6253" lon="1.98297">
        <ele>61.4</ele>
        <time>2026-01-30T07:50:30Z</time>
      </trkpt>
      <trkpt lat="48.62532" lon="1.9829">
        <ele>61.6</ele>
        <time>2026-01-30T07:50:31Z</time>
      </trkpt>
      <trkpt lat="48.62534" lon="1.98283">
        <ele>62.2</ele>
        <time>2026-01-30T07:50:32Z</time>
      </trkpt>
      <trkpt lat="48.62536" lon="1.98276">
        <ele>62.2</ele>
        <time>2026-01-30T07:50:33Z</time>
      </trkpt>
      <trkpt lat="48.62538" lon="1.9827">
        <ele>62.2</ele>
        <time>2026-01-30T07:50:34Z</time>
      </trkpt>
      <trkpt lat="48.62541" lon="1.98263">
        <ele>62.2</ele>
        <time>2026-01-30T07:50:35Z</time>
      </trkpt>
      <trkpt lat="48.62543" lon="1.98256">
        <ele>63</ele>
        <time>2026-01-30T07:50:36Z</time>
      </trkpt>
      <trkpt lat="48.62545" lon="1.98249">
        <ele>63</ele>
        <time>2026-01-30T07:50:37Z</time>
      </trkpt>
      <trkpt lat="48.62547" lon="1.98242">
        <ele>63</ele>
        <time>2026-01-30T07:50:38Z</time>
      </trkpt>
      <trkpt lat="48.62549" lon="1.98235">
        <ele>63</ele>
        <time>2026-01-30T07:50:39Z</time>
      </trkpt>
      <trkpt lat="48.62551" lon="1.98229">
        <ele>63.4</ele>
        <time>2026-01-30T07:50:40Z</time>
      </trkpt>
      <trkpt lat="48.62553" lon="1.98222">
        <ele>63.4</ele>
        <time>2026-01-30T07:50:41Z</time>
      </trkpt>
      <trkpt lat="48.62554" lon="1.98215">
        <ele>63.4</ele>
        <time>2026-01-30T07:50:42Z</time>
      </trkpt>
      <trkpt lat="48.62556" lon="1.98209">
        <ele>63.8</ele>
        <time>2026-01-30T07:50:43Z</time>
      </trkpt>
      <trkpt lat="48.62558" lon="1.98202">
        <ele>63.6</ele>
        <time>2026-01-30T07:50:44Z</time>
      </trkpt>
      <trkpt lat="48.6256" lon="1.98196">
        <ele>63.6</ele>
        <time>2026-01-30T07:50:45Z</time>
      </trkpt>
      <trkpt lat="48.62562" lon="1.98189">
        <ele>63.6</ele>
        <time>2026-01-30T07:50:46Z</time>
      </trkpt>
      <trkpt lat="48.62563" lon="1.98183">
        <ele>64.6</ele>
        <time>2026-01-30T07:50:47Z</time>
      </trkpt>
      <trkpt lat="48.62565" lon="1.98177">
        <ele>64.8</ele>
        <time>2026-01-30T07:50:48Z</time>
      </trkpt>
      <trkpt lat="48.62567" lon="1.98171">
        <ele>64.8</ele>
        <time>2026-01-30T07:50:49Z</time>
      </trkpt>
      <trkpt lat="48.62568" lon="1.98165">
        <ele>64.8</ele>
        <time>2026-01-30T07:50:50Z</time>
      </trkpt>
      <trkpt lat="48.6257" lon="1.98159">
        <ele>64.8</ele>
        <time>2026-01-30T07:50:51Z</time>
      </trkpt>
      <trkpt lat="48.62572" lon="1.98153">
        <ele>65.2</ele>
        <time>2026-01-30T07:50:52Z</time>
      </trkpt>
      <trkpt lat="48.62574" lon="1.98147">
        <ele>65.2</ele>
        <time>2026-01-30T07:50:53Z</time>
      </trkpt>
      <trkpt lat="48.62575" lon="1.98142">
        <ele>65.2</ele>
        <time>2026-01-30T07:50:54Z</time>
      </trkpt>
      <trkpt lat="48.62577" lon="1.98136">
        <ele>65.8</ele>
        <time>2026-01-30T07:50:55Z</time>
      </trkpt>
      <trkpt lat="48.62579" lon="1.9813">
        <ele>65.6</ele>
        <time>2026-01-30T07:50:56Z</time>
      </trkpt>
      <trkpt lat="48.6258" lon="1.98125">
        <ele>65.6</ele>
        <time>2026-01-30T07:50:57Z</time>
      </trkpt>
      <trkpt lat="48.62582" lon="1.98119">
        <ele>65.6</ele>
        <time>2026-01-30T07:50:58Z</time>
      </trkpt>
      <trkpt lat="48.62584" lon="1.98113">
        <ele>66.6</ele>
        <time>2026-01-30T07:50:59Z</time>
      </trkpt>
      <trkpt lat="48.62586" lon="1.98107">
        <ele>67.2</ele>
        <time>2026-01-30T07:51:00Z</time>
      </trkpt>
      <trkpt lat="48.62587" lon="1.98102">
        <ele>67.2</ele>
        <time>2026-01-30T07:51:01Z</time>
      </trkpt>
      <trkpt lat="48.62589" lon="1.98096">
        <ele>67.2</ele>
        <time>2026-01-30T07:51:02Z</time>
      </trkpt>
      <trkpt lat="48.62591" lon="1.9809">
        <ele>67.2</ele>
        <time>2026-01-30T07:51:03Z</time>
      </trkpt>
      <trkpt lat="48.62592" lon="1.98085">
        <ele>67.6</ele>
        <time>2026-01-30T07:51:04Z</time>
      </trkpt>
      <trkpt lat="48.62594" lon="1.98079">
        <ele>67.6</ele>
        <time>2026-01-30T07:51:05Z</time>
      </trkpt>
      <trkpt lat="48.62596" lon="1.98073">
        <ele>67.6</ele>
        <time>2026-01-30T07:51:06Z</time>
      </trkpt>
      <trkpt lat="48.62598" lon="1.98068">
        <ele>67.6</ele>
        <time>2026-01-30T07:51:07Z</time>
      </trkpt>
      <trkpt lat="48.62599" lon="1.98062">
        <ele>68.2</ele>
        <time>2026-01-30T07:51:08Z</time>
      </trkpt>
      <trkpt lat="48.62601" lon="1.98056">
        <ele>68.2</ele>
        <time>2026-01-30T07:51:09Z</time>
      </trkpt>
      <trkpt lat="48.62603" lon="1.9805">
        <ele>68.2</ele>
        <time>2026-01-30T07:51:10Z</time>
      </trkpt>
      <trkpt lat="48.62604" lon="1.98045">
        <ele>69</ele>
        <time>2026-01-30T07:51:11Z</time>
      </trkpt>
      <trkpt lat="48.62606" lon="1.98039">
        <ele>68.8</ele>
        <time>2026-01-30T07:51:12Z</time>
      </trkpt>
      <trkpt lat="48.62607" lon="1.98033">
        <ele>68.8</ele>
        <time>2026-01-30T07:51:13Z</time>
      </trkpt>
      <trkpt lat="48.62609" lon="1.98028">
        <ele>68.8</ele>
        <time>2026-01-30T07:51:14Z</time>
      </trkpt>
      <trkpt lat="48.62611" lon="1.98022">
        <ele>69.6</ele>
        <time>2026-01-30T07:51:15Z</time>
      </trkpt>
      <trkpt lat="48.62612" lon="1.98016">
        <ele>69.4</ele>
        <time>2026-01-30T07:51:16Z</time>
      </trkpt>
      <trkpt lat="48.62614" lon="1.9801">
        <ele>69.4</ele>
        <time>2026-01-30T07:51:17Z</time>
      </trkpt>
      <trkpt lat="48.62616" lon="1.98004">
        <ele>69.4</ele>
        <time>2026-01-30T07:51:18Z</time>
      </trkpt>
      <trkpt lat="48.62618" lon="1.97998">
        <ele>69.6</ele>
        <time>2026-01-30T07:51:19Z</time>
      </trkpt>
      <trkpt lat="48.62619" lon="1.97993">
        <ele>70</ele>
        <time>2026-01-30T07:51:20Z</time>
      </trkpt>
      <trkpt lat="48.62621" lon="1.97987">
        <ele>70</ele>
        <time>2026-01-30T07:51:21Z</time>
      </trkpt>
      <trkpt lat="48.62622" lon="1.97981">
        <ele>70</ele>
        <time>2026-01-30T07:51:22Z</time>
      </trkpt>
      <trkpt lat="48.62624" lon="1.97975">
        <ele>70.8</ele>
        <time>2026-01-30T07:51:23Z</time>
      </trkpt>
      <trkpt lat="48.62625" lon="1.97969">
        <ele>70.8</ele>
        <time>2026-01-30T07:51:24Z</time>
      </trkpt>
      <trkpt lat="48.62626" lon="1.97963">
        <ele>70.8</ele>
        <time>2026-01-30T07:51:25Z</time>
      </trkpt>
      <trkpt lat="48.62627" lon="1.97957">
        <ele>70.8</ele>
        <time>2026-01-30T07:51:26Z</time>
      </trkpt>
      <trkpt lat="48.62628" lon="1.9795">
        <ele>70.2</ele>
        <time>2026-01-30T07:51:27Z</time>
      </trkpt>
      <trkpt lat="48.62629" lon="1.97944">
        <ele>70.8</ele>
        <time>2026-01-30T07:51:28Z</time>
      </trkpt>
      <trkpt lat="48.6263" lon="1.97938">
        <ele>70.8</ele>
        <time>2026-01-30T07:51:29Z</time>
      </trkpt>
      <trkpt lat="48.62631" lon="1.97931">
        <ele>70.8</ele>
        <time>2026-01-30T07:51:30Z</time>
      </trkpt>
      <trkpt lat="48.62632" lon="1.97925">
        <ele>71.2</ele>
        <time>2026-01-30T07:51:31Z</time>
      </trkpt>
      <trkpt lat="48.62632" lon="1.97918">
        <ele>71.4</ele>
        <time>2026-01-30T07:51:32Z</time>
      </trkpt>
      <trkpt lat="48.62633" lon="1.97912">
        <ele>71.4</ele>
        <time>2026-01-30T07:51:33Z</time>
      </trkpt>
      <trkpt lat="48.62633" lon="1.97905">
        <ele>71.4</ele>
        <time>2026-01-30T07:51:34Z</time>
      </trkpt>
      <trkpt lat="48.62634" lon="1.97899">
        <ele>71.4</ele>
        <time>2026-01-30T07:51:35Z</time>
      </trkpt>
      <trkpt lat="48.62634" lon="1.97893">
        <ele>72</ele>
        <time>2026-01-30T07:51:36Z</time>
      </trkpt>
      <trkpt lat="48.62635" lon="1.97886">
        <ele>72</ele>
        <time>2026-01-30T07:51:37Z</time>
      </trkpt>
      <trkpt lat="48.62635" lon="1.97879">
        <ele>72</ele>
        <time>2026-01-30T07:51:38Z</time>
      </trkpt>
      <trkpt lat="48.62636" lon="1.97873">
        <ele>71.8</ele>
        <time>2026-01-30T07:51:39Z</time>
      </trkpt>
      <trkpt lat="48.62636" lon="1.97866">
        <ele>72.4</ele>
        <time>2026-01-30T07:51:40Z</time>
      </trkpt>
      <trkpt lat="48.62636" lon="1.9786">
        <ele>72.4</ele>
        <time>2026-01-30T07:51:41Z</time>
      </trkpt>
      <trkpt lat="48.62637" lon="1.97853">
        <ele>72.4</ele>
        <time>2026-01-30T07:51:42Z</time>
      </trkpt>
      <trkpt lat="48.62637" lon="1.97846">
        <ele>72.8</ele>
        <time>2026-01-30T07:51:43Z</time>
      </trkpt>
      <trkpt lat="48.62637" lon="1.9784">
        <ele>72.4</ele>
        <time>2026-01-30T07:51:44Z</time>
      </trkpt>
      <trkpt lat="48.62638" lon="1.97833">
        <ele>72.4</ele>
        <time>2026-01-30T07:51:45Z</time>
      </trkpt>
      <trkpt lat="48.62638" lon="1.97826">
        <ele>72.4</ele>
        <time>2026-01-30T07:51:46Z</time>
      </trkpt>
      <trkpt lat="48.62638" lon="1.9782">
        <ele>73</ele>
        <time>2026-01-30T07:51:47Z</time>
      </trkpt>
      <trkpt lat="48.62638" lon="1.97813">
        <ele>73</ele>
        <time>2026-01-30T07:51:48Z</time>
      </trkpt>
      <trkpt lat="48.62639" lon="1.97806">
        <ele>73</ele>
        <time>2026-01-30T07:51:49Z</time>
      </trkpt>
      <trkpt lat="48.62639" lon="1.978">
        <ele>73</ele>
        <time>2026-01-30T07:51:50Z</time>
      </trkpt>
      <trkpt lat="48.62639" lon="1.97793">
        <ele>73.4</ele>
        <time>2026-01-30T07:51:51Z</time>
      </trkpt>
      <trkpt lat="48.62639" lon="1.97787">
        <ele>73.4</ele>
        <time>2026-01-30T07:51:52Z</time>
      </trkpt>
      <trkpt lat="48.6264" lon="1.9778">
        <ele>73.4</ele>
        <time>2026-01-30T07:51:53Z</time>
      </trkpt>
      <trkpt lat="48.6264" lon="1.97773">
        <ele>73.4</ele>
        <time>2026-01-30T07:51:54Z</time>
      </trkpt>
      <trkpt lat="48.62641" lon="1.97767">
        <ele>73.4</ele>
        <time>2026-01-30T07:51:55Z</time>
      </trkpt>
      <trkpt lat="48.62641" lon="1.9776">
        <ele>73.8</ele>
        <time>2026-01-30T07:51:56Z</time>
      </trkpt>
      <trkpt lat="48.62641" lon="1.97754">
        <ele>73.8</ele>
        <time>2026-01-30T07:51:57Z</time>
      </trkpt>
      <trkpt lat="48.62642" lon="1.97747">
        <ele>73.8</ele>
        <time>2026-01-30T07:51:58Z</time>
      </trkpt>
      <trkpt lat="48.62642" lon="1.9774">
        <ele>74.2</ele>
        <time>2026-01-30T07:51:59Z</time>
      </trkpt>
      <trkpt lat="48.62642" lon="1.97734">
        <ele>74.2</ele>
        <time>2026-01-30T07:52:00Z</time>
      </trkpt>
      <trkpt lat="48.62643" lon="1.97727">
        <ele>74.2</ele>
        <time>2026-01-30T07:52:01Z</time>
      </trkpt>
      <trkpt lat="48.62643" lon="1.9772">
        <ele>74.2</ele>
        <time>2026-01-30T07:52:02Z</time>
      </trkpt>
      <trkpt lat="48.62644" lon="1.97714">
        <ele>74.2</ele>
        <time>2026-01-30T07:52:03Z</time>
      </trkpt>
      <trkpt lat="48.62644" lon="1.97707">
        <ele>74.4</ele>
        <time>2026-01-30T07:52:04Z</time>
      </trkpt>
      <trkpt lat="48.62644" lon="1.97701">
        <ele>74.4</ele>
        <time>2026-01-30T07:52:05Z</time>
      </trkpt>
      <trkpt lat="48.62644" lon="1.97694">
        <ele>74.4</ele>
        <time>2026-01-30T07:52:06Z</time>
      </trkpt>
      <trkpt lat="48.62645" lon="1.97688">
        <ele>74.4</ele>
        <time>2026-01-30T07:52:07Z</time>
      </trkpt>
      <trkpt lat="48.62645" lon="1.97681">
        <ele>74.8</ele>
        <time>2026-01-30T07:52:08Z</time>
      </trkpt>
      <trkpt lat="48.62645" lon="1.97675">
        <ele>74.8</ele>
        <time>2026-01-30T07:52:09Z</time>
      </trkpt>
      <trkpt lat="48.62646" lon="1.97668">
        <ele>74.8</ele>
        <time>2026-01-30T07:52:10Z</time>
      </trkpt>
      <trkpt lat="48.62646" lon="1.97662">
        <ele>75.2</ele>
        <time>2026-01-30T07:52:11Z</time>
      </trkpt>
      <trkpt lat="48.62646" lon="1.97655">
        <ele>76</ele>
        <time>2026-01-30T07:52:12Z</time>
      </trkpt>
      <trkpt lat="48.62646" lon="1.97649">
        <ele>76</ele>
        <time>2026-01-30T07:52:13Z</time>
      </trkpt>
      <trkpt lat="48.62647" lon="1.97642">
        <ele>76</ele>
        <time>2026-01-30T07:52:14Z</time>
      </trkpt>
      <trkpt lat="48.62647" lon="1.97636">
        <ele>76.2</ele>
        <time>2026-01-30T07:52:15Z</time>
      </trkpt>
      <trkpt lat="48.62647" lon="1.97629">
        <ele>76.4</ele>
        <time>2026-01-30T07:52:16Z</time>
      </trkpt>
      <trkpt lat="48.62648" lon="1.97623">
        <ele>76.4</ele>
        <time>2026-01-30T07:52:17Z</time>
      </trkpt>
      <trkpt lat="48.62648" lon="1.97616">
        <ele>76.4</ele>
        <time>2026-01-30T07:52:18Z</time>
      </trkpt>
      <trkpt lat="48.62648" lon="1.9761">
        <ele>76.6</ele>
        <time>2026-01-30T07:52:19Z</time>
      </trkpt>
      <trkpt lat="48.62649" lon="1.97603">
        <ele>76.8</ele>
        <time>2026-01-30T07:52:20Z</time>
      </trkpt>
      <trkpt lat="48.62649" lon="1.97596">
        <ele>76.8</ele>
        <time>2026-01-30T07:52:21Z</time>
      </trkpt>
      <trkpt lat="48.62649" lon="1.9759">
        <ele>76.8</ele>
        <time>2026-01-30T07:52:22Z</time>
      </trkpt>
      <trkpt lat="48.6265" lon="1.97583">
        <ele>77.2</ele>
        <time>2026-01-30T07:52:23Z</time>
      </trkpt>
      <trkpt lat="48.6265" lon="1.97577">
        <ele>77.6</ele>
        <time>2026-01-30T07:52:24Z</time>
      </trkpt>
      <trkpt lat="48.6265" lon="1.9757">
        <ele>77.6</ele>
        <time>2026-01-30T07:52:25Z</time>
      </trkpt>
      <trkpt lat="48.62651" lon="1.97564">
        <ele>77.6</ele>
        <time>2026-01-30T07:52:26Z</time>
      </trkpt>
      <trkpt lat="48.62651" lon="1.97558">
        <ele>78</ele>
        <time>2026-01-30T07:52:27Z</time>
      </trkpt>
      <trkpt lat="48.62651" lon="1.97551">
        <ele>78.2</ele>
        <time>2026-01-30T07:52:28Z</time>
      </trkpt>
      <trkpt lat="48.62651" lon="1.97545">
        <ele>78.2</ele>
        <time>2026-01-30T07:52:29Z</time>
      </trkpt>
      <trkpt lat="48.62652" lon="1.97539">
        <ele>78.2</ele>
        <time>2026-01-30T07:52:30Z</time>
      </trkpt>
      <trkpt lat="48.62652" lon="1.97533">
        <ele>78.4</ele>
        <time>2026-01-30T07:52:31Z</time>
      </trkpt>
      <trkpt lat="48.62653" lon="1.97526">
        <ele>79</ele>
        <time>2026-01-30T07:52:32Z</time>
      </trkpt>
      <trkpt lat="48.62653" lon="1.9752">
        <ele>79</ele>
        <time>2026-01-30T07:52:33Z</time>
      </trkpt>
      <trkpt lat="48.62653" lon="1.97514">
        <ele>79</ele>
        <time>2026-01-30T07:52:34Z</time>
      </trkpt>
      <trkpt lat="48.62653" lon="1.97508">
        <ele>79</ele>
        <time>2026-01-30T07:52:35Z</time>
      </trkpt>
      <trkpt lat="48.62654" lon="1.97502">
        <ele>79</ele>
        <time>2026-01-30T07:52:36Z</time>
      </trkpt>
      <trkpt lat="48.62654" lon="1.97496">
        <ele>79</ele>
        <time>2026-01-30T07:52:37Z</time>
      </trkpt>
      <trkpt lat="48.62654" lon="1.97489">
        <ele>79</ele>
        <time>2026-01-30T07:52:38Z</time>
      </trkpt>
      <trkpt lat="48.62654" lon="1.97483">
        <ele>80</ele>
        <time>2026-01-30T07:52:39Z</time>
      </trkpt>
      <trkpt lat="48.62655" lon="1.97477">
        <ele>80.8</ele>
        <time>2026-01-30T07:52:40Z</time>
      </trkpt>
      <trkpt lat="48.62655" lon="1.97471">
        <ele>80.8</ele>
        <time>2026-01-30T07:52:41Z</time>
      </trkpt>
      <trkpt lat="48.62655" lon="1.97465">
        <ele>80.8</ele>
        <time>2026-01-30T07:52:42Z</time>
      </trkpt>
      <trkpt lat="48.62656" lon="1.97458">
        <ele>81.4</ele>
        <time>2026-01-30T07:52:43Z</time>
      </trkpt>
      <trkpt lat="48.62656" lon="1.97452">
        <ele>81</ele>
        <time>2026-01-30T07:52:44Z</time>
      </trkpt>
      <trkpt lat="48.62656" lon="1.97446">
        <ele>81</ele>
        <time>2026-01-30T07:52:45Z</time>
      </trkpt>
      <trkpt lat="48.62657" lon="1.9744">
        <ele>81</ele>
        <time>2026-01-30T07:52:46Z</time>
      </trkpt>
      <trkpt lat="48.62657" lon="1.97434">
        <ele>82</ele>
        <time>2026-01-30T07:52:47Z</time>
      </trkpt>
      <trkpt lat="48.62658" lon="1.97428">
        <ele>82</ele>
        <time>2026-01-30T07:52:48Z</time>
      </trkpt>
      <trkpt lat="48.62658" lon="1.97422">
        <ele>82</ele>
        <time>2026-01-30T07:52:49Z</time>
      </trkpt>
      <trkpt lat="48.62658" lon="1.97416">
        <ele>82</ele>
        <time>2026-01-30T07:52:50Z</time>
      </trkpt>
      <trkpt lat="48.62658" lon="1.9741">
        <ele>83</ele>
        <time>2026-01-30T07:52:51Z</time>
      </trkpt>
      <trkpt lat="48.62659" lon="1.97404">
        <ele>82.6</ele>
        <time>2026-01-30T07:52:52Z</time>
      </trkpt>
      <trkpt lat="48.62659" lon="1.97397">
        <ele>82.6</ele>
        <time>2026-01-30T07:52:53Z</time>
      </trkpt>
      <trkpt lat="48.62659" lon="1.97392">
        <ele>82.6</ele>
        <time>2026-01-30T07:52:54Z</time>
      </trkpt>
      <trkpt lat="48.62659" lon="1.97386">
        <ele>83.6</ele>
        <time>2026-01-30T07:52:55Z</time>
      </trkpt>
      <trkpt lat="48.6266" lon="1.9738">
        <ele>83.8</ele>
        <time>2026-01-30T07:52:56Z</time>
      </trkpt>
      <trkpt lat="48.6266" lon="1.97374">
        <ele>83.8</ele>
        <time>2026-01-30T07:52:57Z</time>
      </trkpt>
      <trkpt lat="48.6266" lon="1.97368">
        <ele>83.8</ele>
        <time>2026-01-30T07:52:58Z</time>
      </trkpt>
      <trkpt lat="48.6266" lon="1.97362">
        <ele>84.4</ele>
        <time>2026-01-30T07:52:59Z</time>
      </trkpt>
      <trkpt lat="48.62661" lon="1.97356">
        <ele>85</ele>
        <time>2026-01-30T07:53:00Z</time>
      </trkpt>
      <trkpt lat="48.62661" lon="1.9735">
        <ele>85</ele>
        <time>2026-01-30T07:53:01Z</time>
      </trkpt>
      <trkpt lat="48.62662" lon="1.97344">
        <ele>85</ele>
        <time>2026-01-30T07:53:02Z</time>
      </trkpt>
      <trkpt lat="48.62662" lon="1.97339">
        <ele>85.2</ele>
        <time>2026-01-30T07:53:03Z</time>
      </trkpt>
      <trkpt lat="48.62662" lon="1.97333">
        <ele>85.4</ele>
        <time>2026-01-30T07:53:04Z</time>
      </trkpt>
      <trkpt lat="48.62663" lon="1.97327">
        <ele>85.4</ele>
        <time>2026-01-30T07:53:05Z</time>
      </trkpt>
      <trkpt lat="48.62663" lon="1.97321">
        <ele>85.4</ele>
        <time>2026-01-30T07:53:06Z</time>
      </trkpt>
      <trkpt lat="48.62664" lon="1.97316">
        <ele>86.2</ele>
        <time>2026-01-30T07:53:07Z</time>
      </trkpt>
      <trkpt lat="48.62664" lon="1.9731">
        <ele>86.4</ele>
        <time>2026-01-30T07:53:08Z</time>
      </trkpt>
      <trkpt lat="48.62665" lon="1.97305">
        <ele>86.4</ele>
        <time>2026-01-30T07:53:09Z</time>
      </trkpt>
      <trkpt lat="48.62666" lon="1.973">
        <ele>86.4</ele>
        <time>2026-01-30T07:53:10Z</time>
      </trkpt>
      <trkpt lat="48.62666" lon="1.97294">
        <ele>86.8</ele>
        <time>2026-01-30T07:53:11Z</time>
      </trkpt>
      <trkpt lat="48.62667" lon="1.97289">
        <ele>87</ele>
        <time>2026-01-30T07:53:12Z</time>
      </trkpt>
      <trkpt lat="48.62668" lon="1.97283">
        <ele>87</ele>
        <time>2026-01-30T07:53:13Z</time>
      </trkpt>
      <trkpt lat="48.62668" lon="1.97277">
        <ele>87</ele>
        <time>2026-01-30T07:53:14Z</time>
      </trkpt>
      <trkpt lat="48.62668" lon="1.97272">
        <ele>88</ele>
        <time>2026-01-30T07:53:15Z</time>
      </trkpt>
      <trkpt lat="48.62669" lon="1.97265">
        <ele>88.2</ele>
        <time>2026-01-30T07:53:16Z</time>
      </trkpt>
      <trkpt lat="48.6267" lon="1.97259">
        <ele>88.2</ele>
        <time>2026-01-30T07:53:17Z</time>
      </trkpt>
      <trkpt lat="48.62671" lon="1.97253">
        <ele>88.2</ele>
        <time>2026-01-30T07:53:18Z</time>
      </trkpt>
      <trkpt lat="48.62671" lon="1.97247">
        <ele>88.2</ele>
        <time>2026-01-30T07:53:19Z</time>
      </trkpt>
      <trkpt lat="48.62672" lon="1.97241">
        <ele>88.4</ele>
        <time>2026-01-30T07:53:20Z</time>
      </trkpt>
      <trkpt lat="48.62673" lon="1.97236">
        <ele>88.4</ele>
        <time>2026-01-30T07:53:21Z</time>
      </trkpt>
      <trkpt lat="48.62674" lon="1.9723">
        <ele>88.4</ele>
        <time>2026-01-30T07:53:22Z</time>
      </trkpt>
      <trkpt lat="48.62674" lon="1.97224">
        <ele>89</ele>
        <time>2026-01-30T07:53:23Z</time>
      </trkpt>
      <trkpt lat="48.62675" lon="1.97218">
        <ele>89</ele>
        <time>2026-01-30T07:53:24Z</time>
      </trkpt>
      <trkpt lat="48.62676" lon="1.97212">
        <ele>89</ele>
        <time>2026-01-30T07:53:25Z</time>
      </trkpt>
      <trkpt lat="48.62676" lon="1.97206">
        <ele>89</ele>
        <time>2026-01-30T07:53:26Z</time>
      </trkpt>
      <trkpt lat="48.62677" lon="1.972">
        <ele>89.8</ele>
        <time>2026-01-30T07:53:27Z</time>
      </trkpt>
      <trkpt lat="48.62678" lon="1.97194">
        <ele>89.8</ele>
        <time>2026-01-30T07:53:28Z</time>
      </trkpt>
      <trkpt lat="48.62679" lon="1.97187">
        <ele>89.8</ele>
        <time>2026-01-30T07:53:29Z</time>
      </trkpt>
      <trkpt lat="48.62679" lon="1.97182">
        <ele>89.8</ele>
        <time>2026-01-30T07:53:30Z</time>
      </trkpt>
      <trkpt lat="48.6268" lon="1.97175">
        <ele>89.8</ele>
        <time>2026-01-30T07:53:31Z</time>
      </trkpt>
      <trkpt lat="48.62681" lon="1.97168">
        <ele>89.6</ele>
        <time>2026-01-30T07:53:32Z</time>
      </trkpt>
      <trkpt lat="48.62682" lon="1.97162">
        <ele>89.6</ele>
        <time>2026-01-30T07:53:33Z</time>
      </trkpt>
      <trkpt lat="48.62683" lon="1.97156">
        <ele>89.6</ele>
        <time>2026-01-30T07:53:34Z</time>
      </trkpt>
      <trkpt lat="48.62683" lon="1.97148">
        <ele>88.8</ele>
        <time>2026-01-30T07:53:35Z</time>
      </trkpt>
      <trkpt lat="48.62685" lon="1.97141">
        <ele>88.6</ele>
        <time>2026-01-30T07:53:36Z</time>
      </trkpt>
      <trkpt lat="48.62685" lon="1.97132">
        <ele>88.6</ele>
        <time>2026-01-30T07:53:37Z</time>
      </trkpt>
      <trkpt lat="48.62686" lon="1.97123">
        <ele>88.6</ele>
        <time>2026-01-30T07:53:38Z</time>
      </trkpt>
      <trkpt lat="48.62687" lon="1.97113">
        <ele>87.6</ele>
        <time>2026-01-30T07:53:39Z</time>
      </trkpt>
      <trkpt lat="48.62688" lon="1.97103">
        <ele>86.2</ele>
        <time>2026-01-30T07:53:40Z</time>
      </trkpt>
      <trkpt lat="48.62689" lon="1.97093">
        <ele>86.2</ele>
        <time>2026-01-30T07:53:41Z</time>
      </trkpt>
      <trkpt lat="48.6269" lon="1.97081">
        <ele>86.2</ele>
        <time>2026-01-30T07:53:42Z</time>
      </trkpt>
      <trkpt lat="48.62691" lon="1.97069">
        <ele>85.2</ele>
        <time>2026-01-30T07:53:43Z</time>
      </trkpt>
      <trkpt lat="48.62693" lon="1.97058">
        <ele>83.6</ele>
        <time>2026-01-30T07:53:44Z</time>
      </trkpt>
      <trkpt lat="48.62694" lon="1.97045">
        <ele>83.6</ele>
        <time>2026-01-30T07:53:45Z</time>
      </trkpt>
      <trkpt lat="48.62696" lon="1.97032">
        <ele>83.6</ele>
        <time>2026-01-30T07:53:46Z</time>
      </trkpt>
      <trkpt lat="48.62698" lon="1.97019">
        <ele>82.6</ele>
        <time>2026-01-30T07:53:47Z</time>
      </trkpt>
      <trkpt lat="48.62701" lon="1.97005">
        <ele>80.2</ele>
        <time>2026-01-30T07:53:48Z</time>
      </trkpt>
      <trkpt lat="48.62705" lon="1.96993">
        <ele>80.2</ele>
        <time>2026-01-30T07:53:49Z</time>
      </trkpt>
      <trkpt lat="48.6271" lon="1.9698">
        <ele>80.2</ele>
        <time>2026-01-30T07:53:50Z</time>
      </trkpt>
      <trkpt lat="48.62714" lon="1.96966">
        <ele>79.2</ele>
        <time>2026-01-30T07:53:51Z</time>
      </trkpt>
      <trkpt lat="48.62719" lon="1.96953">
        <ele>78.4</ele>
        <time>2026-01-30T07:53:52Z</time>
      </trkpt>
      <trkpt lat="48.62725" lon="1.96943">
        <ele>78.4</ele>
        <time>2026-01-30T07:53:53Z</time>
      </trkpt>
      <trkpt lat="48.62731" lon="1.96933">
        <ele>78.4</ele>
        <time>2026-01-30T07:53:54Z</time>
      </trkpt>
      <trkpt lat="48.62737" lon="1.96923">
        <ele>78.4</ele>
        <time>2026-01-30T07:53:55Z</time>
      </trkpt>
      <trkpt lat="48.62744" lon="1.96914">
        <ele>78.4</ele>
        <time>2026-01-30T07:53:56Z</time>
      </trkpt>
      <trkpt lat="48.62749" lon="1.96904">
        <ele>78.4</ele>
        <time>2026-01-30T07:53:57Z</time>
      </trkpt>
      <trkpt lat="48.62755" lon="1.96895">
        <ele>78.4</ele>
        <time>2026-01-30T07:53:58Z</time>
      </trkpt>
      <trkpt lat="48.6276" lon="1.96883">
        <ele>79.4</ele>
        <time>2026-01-30T07:53:59Z</time>
      </trkpt>
      <trkpt lat="48.62766" lon="1.96874">
        <ele>79.2</ele>
        <time>2026-01-30T07:54:00Z</time>
      </trkpt>
      <trkpt lat="48.62771" lon="1.96865">
        <ele>79.2</ele>
        <time>2026-01-30T07:54:01Z</time>
      </trkpt>
      <trkpt lat="48.62776" lon="1.96857">
        <ele>79.2</ele>
        <time>2026-01-30T07:54:02Z</time>
      </trkpt>
      <trkpt lat="48.62782" lon="1.96849">
        <ele>80.2</ele>
        <time>2026-01-30T07:54:03Z</time>
      </trkpt>
      <trkpt lat="48.62787" lon="1.96841">
        <ele>80.8</ele>
        <time>2026-01-30T07:54:04Z</time>
      </trkpt>
      <trkpt lat="48.62792" lon="1.96833">
        <ele>80.8</ele>
        <time>2026-01-30T07:54:05Z</time>
      </trkpt>
      <trkpt lat="48.62796" lon="1.96824">
        <ele>80.8</ele>
        <time>2026-01-30T07:54:06Z</time>
      </trkpt>
      <trkpt lat="48.628" lon="1.96817">
        <ele>81.6</ele>
        <time>2026-01-30T07:54:07Z</time>
      </trkpt>
      <trkpt lat="48.62805" lon="1.96809">
        <ele>81.4</ele>
        <time>2026-01-30T07:54:08Z</time>
      </trkpt>
      <trkpt lat="48.62809" lon="1.96801">
        <ele>81.4</ele>
        <time>2026-01-30T07:54:09Z</time>
      </trkpt>
      <trkpt lat="48.62813" lon="1.96794">
        <ele>81.4</ele>
        <time>2026-01-30T07:54:10Z</time>
      </trkpt>
      <trkpt lat="48.62817" lon="1.96786">
        <ele>82</ele>
        <time>2026-01-30T07:54:11Z</time>
      </trkpt>
      <trkpt lat="48.62821" lon="1.96778">
        <ele>82.8</ele>
        <time>2026-01-30T07:54:12Z</time>
      </trkpt>
      <trkpt lat="48.62825" lon="1.9677">
        <ele>82.8</ele>
        <time>2026-01-30T07:54:13Z</time>
      </trkpt>
      <trkpt lat="48.62829" lon="1.96762">
        <ele>82.8</ele>
        <time>2026-01-30T07:54:14Z</time>
      </trkpt>
      <trkpt lat="48.62833" lon="1.96754">
        <ele>82.8</ele>
        <time>2026-01-30T07:54:15Z</time>
      </trkpt>
      <trkpt lat="48.62837" lon="1.96746">
        <ele>82.2</ele>
        <time>2026-01-30T07:54:16Z</time>
      </trkpt>
      <trkpt lat="48.62841" lon="1.96738">
        <ele>82.2</ele>
        <time>2026-01-30T07:54:17Z</time>
      </trkpt>
      <trkpt lat="48.62845" lon="1.96729">
        <ele>82.2</ele>
        <time>2026-01-30T07:54:18Z</time>
      </trkpt>
      <trkpt lat="48.62849" lon="1.96721">
        <ele>81.8</ele>
        <time>2026-01-30T07:54:19Z</time>
      </trkpt>
      <trkpt lat="48.62854" lon="1.96713">
        <ele>81.6</ele>
        <time>2026-01-30T07:54:20Z</time>
      </trkpt>
      <trkpt lat="48.62858" lon="1.96704">
        <ele>81.6</ele>
        <time>2026-01-30T07:54:21Z</time>
      </trkpt>
      <trkpt lat="48.62862" lon="1.96694">
        <ele>81.6</ele>
        <time>2026-01-30T07:54:22Z</time>
      </trkpt>
      <trkpt lat="48.62866" lon="1.96685">
        <ele>81.2</ele>
        <time>2026-01-30T07:54:23Z</time>
      </trkpt>
      <trkpt lat="48.6287" lon="1.96676">
        <ele>81</ele>
        <time>2026-01-30T07:54:24Z</time>
      </trkpt>
      <trkpt lat="48.62874" lon="1.96667">
        <ele>81</ele>
        <time>2026-01-30T07:54:25Z</time>
      </trkpt>
      <trkpt lat="48.62878" lon="1.96658">
        <ele>81</ele>
        <time>2026-01-30T07:54:26Z</time>
      </trkpt>
      <trkpt lat="48.62883" lon="1.96649">
        <ele>80.4</ele>
        <time>2026-01-30T07:54:27Z</time>
      </trkpt>
      <trkpt lat="48.62887" lon="1.9664">
        <ele>80.4</ele>
        <time>2026-01-30T07:54:28Z</time>
      </trkpt>
      <trkpt lat="48.62892" lon="1.96631">
        <ele>80.4</ele>
        <time>2026-01-30T07:54:29Z</time>
      </trkpt>
      <trkpt lat="48.62897" lon="1.96623">
        <ele>80.4</ele>
        <time>2026-01-30T07:54:30Z</time>
      </trkpt>
      <trkpt lat="48.62902" lon="1.96615">
        <ele>80.2</ele>
        <time>2026-01-30T07:54:31Z</time>
      </trkpt>
      <trkpt lat="48.62907" lon="1.96606">
        <ele>80</ele>
        <time>2026-01-30T07:54:32Z</time>
      </trkpt>
      <trkpt lat="48.62912" lon="1.96598">
        <ele>80</ele>
        <time>2026-01-30T07:54:33Z</time>
      </trkpt>
      <trkpt lat="48.62917" lon="1.96589">
        <ele>80</ele>
        <time>2026-01-30T07:54:34Z</time>
      </trkpt>
      <trkpt lat="48.62922" lon="1.96581">
        <ele>80</ele>
        <time>2026-01-30T07:54:35Z</time>
      </trkpt>
      <trkpt lat="48.62928" lon="1.96573">
        <ele>79.8</ele>
        <time>2026-01-30T07:54:36Z</time>
      </trkpt>
      <trkpt lat="48.62933" lon="1.96565">
        <ele>79.8</ele>
        <time>2026-01-30T07:54:37Z</time>
      </trkpt>
      <trkpt lat="48.62938" lon="1.96557">
        <ele>79.8</ele>
        <time>2026-01-30T07:54:38Z</time>
      </trkpt>
      <trkpt lat="48.62943" lon="1.96549">
        <ele>79.2</ele>
        <time>2026-01-30T07:54:39Z</time>
      </trkpt>
      <trkpt lat="48.62948" lon="1.96541">
        <ele>78.8</ele>
        <time>2026-01-30T07:54:40Z</time>
      </trkpt>
      <trkpt lat="48.62953" lon="1.96532">
        <ele>78.8</ele>
        <time>2026-01-30T07:54:41Z</time>
      </trkpt>
      <trkpt lat="48.62958" lon="1.96524">
        <ele>78.8</ele>
        <time>2026-01-30T07:54:42Z</time>
      </trkpt>
      <trkpt lat="48.62964" lon="1.96515">
        <ele>78.8</ele>
        <time>2026-01-30T07:54:43Z</time>
      </trkpt>
      <trkpt lat="48.62969" lon="1.96507">
        <ele>78.4</ele>
        <time>2026-01-30T07:54:44Z</time>
      </trkpt>
      <trkpt lat="48.62975" lon="1.96498">
        <ele>78.4</ele>
        <time>2026-01-30T07:54:45Z</time>
      </trkpt>
      <trkpt lat="48.62981" lon="1.96489">
        <ele>78.4</ele>
        <time>2026-01-30T07:54:46Z</time>
      </trkpt>
      <trkpt lat="48.62986" lon="1.9648">
        <ele>77.4</ele>
        <time>2026-01-30T07:54:47Z</time>
      </trkpt>
      <trkpt lat="48.62991" lon="1.96471">
        <ele>76.8</ele>
        <time>2026-01-30T07:54:48Z</time>
      </trkpt>
      <trkpt lat="48.62997" lon="1.9646">
        <ele>76.8</ele>
        <time>2026-01-30T07:54:49Z</time>
      </trkpt>
      <trkpt lat="48.63002" lon="1.9645">
        <ele>76.8</ele>
        <time>2026-01-30T07:54:50Z</time>
      </trkpt>
      <trkpt lat="48.63007" lon="1.9644">
        <ele>75.8</ele>
        <time>2026-01-30T07:54:51Z</time>
      </trkpt>
      <trkpt lat="48.63013" lon="1.9643">
        <ele>74.8</ele>
        <time>2026-01-30T07:54:52Z</time>
      </trkpt>
      <trkpt lat="48.63018" lon="1.96421">
        <ele>74.8</ele>
        <time>2026-01-30T07:54:53Z</time>
      </trkpt>
      <trkpt lat="48.63024" lon="1.96412">
        <ele>74.8</ele>
        <time>2026-01-30T07:54:54Z</time>
      </trkpt>
      <trkpt lat="48.6303" lon="1.96402">
        <ele>74.8</ele>
        <time>2026-01-30T07:54:55Z</time>
      </trkpt>
      <trkpt lat="48.63035" lon="1.96391">
        <ele>75</ele>
        <time>2026-01-30T07:54:56Z</time>
      </trkpt>
      <trkpt lat="48.6304" lon="1.96381">
        <ele>75</ele>
        <time>2026-01-30T07:54:57Z</time>
      </trkpt>
      <trkpt lat="48.63045" lon="1.96371">
        <ele>75</ele>
        <time>2026-01-30T07:54:58Z</time>
      </trkpt>
      <trkpt lat="48.6305" lon="1.96362">
        <ele>76</ele>
        <time>2026-01-30T07:54:59Z</time>
      </trkpt>
      <trkpt lat="48.63054" lon="1.96352">
        <ele>76.4</ele>
        <time>2026-01-30T07:55:00Z</time>
      </trkpt>
      <trkpt lat="48.63058" lon="1.96341">
        <ele>76.4</ele>
        <time>2026-01-30T07:55:01Z</time>
      </trkpt>
      <trkpt lat="48.63061" lon="1.96332">
        <ele>76.4</ele>
        <time>2026-01-30T07:55:02Z</time>
      </trkpt>
      <trkpt lat="48.63065" lon="1.96323">
        <ele>77.4</ele>
        <time>2026-01-30T07:55:03Z</time>
      </trkpt>
      <trkpt lat="48.63068" lon="1.96315">
        <ele>77.8</ele>
        <time>2026-01-30T07:55:04Z</time>
      </trkpt>
      <trkpt lat="48.63071" lon="1.96307">
        <ele>77.8</ele>
        <time>2026-01-30T07:55:05Z</time>
      </trkpt>
      <trkpt lat="48.63075" lon="1.96299">
        <ele>77.8</ele>
        <time>2026-01-30T07:55:06Z</time>
      </trkpt>
      <trkpt lat="48.63078" lon="1.96292">
        <ele>78.6</ele>
        <time>2026-01-30T07:55:07Z</time>
      </trkpt>
      <trkpt lat="48.63081" lon="1.96284">
        <ele>78.6</ele>
        <time>2026-01-30T07:55:08Z</time>
      </trkpt>
      <trkpt lat="48.63084" lon="1.96277">
        <ele>78.6</ele>
        <time>2026-01-30T07:55:09Z</time>
      </trkpt>
      <trkpt lat="48.63087" lon="1.96269">
        <ele>78.6</ele>
        <time>2026-01-30T07:55:10Z</time>
      </trkpt>
      <trkpt lat="48.63091" lon="1.96263">
        <ele>79.6</ele>
        <time>2026-01-30T07:55:11Z</time>
      </trkpt>
      <trkpt lat="48.63093" lon="1.96255">
        <ele>79.8</ele>
        <time>2026-01-30T07:55:12Z</time>
      </trkpt>
      <trkpt lat="48.63096" lon="1.96248">
        <ele>79.8</ele>
        <time>2026-01-30T07:55:13Z</time>
      </trkpt>
      <trkpt lat="48.631" lon="1.9624">
        <ele>79.8</ele>
        <time>2026-01-30T07:55:14Z</time>
      </trkpt>
      <trkpt lat="48.63102" lon="1.96233">
        <ele>79.6</ele>
        <time>2026-01-30T07:55:15Z</time>
      </trkpt>
      <trkpt lat="48.63105" lon="1.96226">
        <ele>79.6</ele>
        <time>2026-01-30T07:55:16Z</time>
      </trkpt>
      <trkpt lat="48.63108" lon="1.96217">
        <ele>79.6</ele>
        <time>2026-01-30T07:55:17Z</time>
      </trkpt>
      <trkpt lat="48.6311" lon="1.96208">
        <ele>79.6</ele>
        <time>2026-01-30T07:55:18Z</time>
      </trkpt>
      <trkpt lat="48.63113" lon="1.96199">
        <ele>79.8</ele>
        <time>2026-01-30T07:55:19Z</time>
      </trkpt>
      <trkpt lat="48.63115" lon="1.9619">
        <ele>79.2</ele>
        <time>2026-01-30T07:55:20Z</time>
      </trkpt>
      <trkpt lat="48.63117" lon="1.9618">
        <ele>79.2</ele>
        <time>2026-01-30T07:55:21Z</time>
      </trkpt>
      <trkpt lat="48.63119" lon="1.96171">
        <ele>79.2</ele>
        <time>2026-01-30T07:55:22Z</time>
      </trkpt>
      <trkpt lat="48.63121" lon="1.96162">
        <ele>79.2</ele>
        <time>2026-01-30T07:55:23Z</time>
      </trkpt>
      <trkpt lat="48.63124" lon="1.96152">
        <ele>79</ele>
        <time>2026-01-30T07:55:24Z</time>
      </trkpt>
      <trkpt lat="48.63126" lon="1.96143">
        <ele>79</ele>
        <time>2026-01-30T07:55:25Z</time>
      </trkpt>
      <trkpt lat="48.63128" lon="1.96134">
        <ele>79</ele>
        <time>2026-01-30T07:55:26Z</time>
      </trkpt>
      <trkpt lat="48.63131" lon="1.96125">
        <ele>78.4</ele>
        <time>2026-01-30T07:55:27Z</time>
      </trkpt>
      <trkpt lat="48.63133" lon="1.96114">
        <ele>77.8</ele>
        <time>2026-01-30T07:55:28Z</time>
      </trkpt>
      <trkpt lat="48.63135" lon="1.96104">
        <ele>77.8</ele>
        <time>2026-01-30T07:55:29Z</time>
      </trkpt>
      <trkpt lat="48.63137" lon="1.96094">
        <ele>77.8</ele>
        <time>2026-01-30T07:55:30Z</time>
      </trkpt>
      <trkpt lat="48.63139" lon="1.96082">
        <ele>77.2</ele>
        <time>2026-01-30T07:55:31Z</time>
      </trkpt>
      <trkpt lat="48.63141" lon="1.96071">
        <ele>76.8</ele>
        <time>2026-01-30T07:55:32Z</time>
      </trkpt>
      <trkpt lat="48.63144" lon="1.9606">
        <ele>76.8</ele>
        <time>2026-01-30T07:55:33Z</time>
      </trkpt>
      <trkpt lat="48.63146" lon="1.96049">
        <ele>76.8</ele>
        <time>2026-01-30T07:55:34Z</time>
      </trkpt>
      <trkpt lat="48.63148" lon="1.96038">
        <ele>75.8</ele>
        <time>2026-01-30T07:55:35Z</time>
      </trkpt>
      <trkpt lat="48.63151" lon="1.96026">
        <ele>75</ele>
        <time>2026-01-30T07:55:36Z</time>
      </trkpt>
      <trkpt lat="48.63153" lon="1.96014">
        <ele>75</ele>
        <time>2026-01-30T07:55:37Z</time>
      </trkpt>
      <trkpt lat="48.63155" lon="1.96002">
        <ele>75</ele>
        <time>2026-01-30T07:55:38Z</time>
      </trkpt>
      <trkpt lat="48.63158" lon="1.95991">
        <ele>75</ele>
        <time>2026-01-30T07:55:39Z</time>
      </trkpt>
      <trkpt lat="48.6316" lon="1.95979">
        <ele>74.2</ele>
        <time>2026-01-30T07:55:40Z</time>
      </trkpt>
      <trkpt lat="48.63162" lon="1.95968">
        <ele>74.2</ele>
        <time>2026-01-30T07:55:41Z</time>
      </trkpt>
      <trkpt lat="48.63165" lon="1.95956">
        <ele>74.2</ele>
        <time>2026-01-30T07:55:42Z</time>
      </trkpt>
      <trkpt lat="48.63168" lon="1.95945">
        <ele>74.2</ele>
        <time>2026-01-30T07:55:43Z</time>
      </trkpt>
      <trkpt lat="48.6317" lon="1.95933">
        <ele>73</ele>
        <time>2026-01-30T07:55:44Z</time>
      </trkpt>
      <trkpt lat="48.63174" lon="1.9592">
        <ele>73</ele>
        <time>2026-01-30T07:55:45Z</time>
      </trkpt>
      <trkpt lat="48.63177" lon="1.95907">
        <ele>73</ele>
        <time>2026-01-30T07:55:46Z</time>
      </trkpt>
      <trkpt lat="48.63181" lon="1.95895">
        <ele>72</ele>
        <time>2026-01-30T07:55:47Z</time>
      </trkpt>
      <trkpt lat="48.63185" lon="1.95883">
        <ele>71.2</ele>
        <time>2026-01-30T07:55:48Z</time>
      </trkpt>
      <trkpt lat="48.63189" lon="1.95871">
        <ele>71.2</ele>
        <time>2026-01-30T07:55:49Z</time>
      </trkpt>
      <trkpt lat="48.63194" lon="1.95859">
        <ele>71.2</ele>
        <time>2026-01-30T07:55:50Z</time>
      </trkpt>
      <trkpt lat="48.632" lon="1.95848">
        <ele>71</ele>
        <time>2026-01-30T07:55:51Z</time>
      </trkpt>
      <trkpt lat="48.63206" lon="1.95837">
        <ele>70.8</ele>
        <time>2026-01-30T07:55:52Z</time>
      </trkpt>
      <trkpt lat="48.63212" lon="1.95827">
        <ele>70.8</ele>
        <time>2026-01-30T07:55:53Z</time>
      </trkpt>
      <trkpt lat="48.63218" lon="1.95818">
        <ele>70.8</ele>
        <time>2026-01-30T07:55:54Z</time>
      </trkpt>
      <trkpt lat="48.63224" lon="1.95809">
        <ele>71.8</ele>
        <time>2026-01-30T07:55:55Z</time>
      </trkpt>
      <trkpt lat="48.63229" lon="1.958">
        <ele>72.6</ele>
        <time>2026-01-30T07:55:56Z</time>
      </trkpt>
      <trkpt lat="48.63235" lon="1.95792">
        <ele>72.6</ele>
        <time>2026-01-30T07:55:57Z</time>
      </trkpt>
      <trkpt lat="48.6324" lon="1.95784">
        <ele>72.6</ele>
        <time>2026-01-30T07:55:58Z</time>
      </trkpt>
      <trkpt lat="48.63246" lon="1.95776">
        <ele>72.6</ele>
        <time>2026-01-30T07:55:59Z</time>
      </trkpt>
      <trkpt lat="48.63251" lon="1.95768">
        <ele>73.6</ele>
        <time>2026-01-30T07:56:00Z</time>
      </trkpt>
      <trkpt lat="48.63255" lon="1.95761">
        <ele>73.6</ele>
        <time>2026-01-30T07:56:01Z</time>
      </trkpt>
      <trkpt lat="48.6326" lon="1.95753">
        <ele>73.6</ele>
        <time>2026-01-30T07:56:02Z</time>
      </trkpt>
      <trkpt lat="48.63265" lon="1.95746">
        <ele>73.6</ele>
        <time>2026-01-30T07:56:03Z</time>
      </trkpt>
      <trkpt lat="48.6327" lon="1.95738">
        <ele>73.6</ele>
        <time>2026-01-30T07:56:04Z</time>
      </trkpt>
      <trkpt lat="48.63275" lon="1.95731">
        <ele>73.6</ele>
        <time>2026-01-30T07:56:05Z</time>
      </trkpt>
      <trkpt lat="48.6328" lon="1.95723">
        <ele>73.6</ele>
        <time>2026-01-30T07:56:06Z</time>
      </trkpt>
      <trkpt lat="48.63285" lon="1.95716">
        <ele>72.6</ele>
        <time>2026-01-30T07:56:07Z</time>
      </trkpt>
      <trkpt lat="48.63291" lon="1.95708">
        <ele>72.4</ele>
        <time>2026-01-30T07:56:08Z</time>
      </trkpt>
      <trkpt lat="48.63296" lon="1.957">
        <ele>72.4</ele>
        <time>2026-01-30T07:56:09Z</time>
      </trkpt>
      <trkpt lat="48.63301" lon="1.95691">
        <ele>72.4</ele>
        <time>2026-01-30T07:56:10Z</time>
      </trkpt>
      <trkpt lat="48.63307" lon="1.95683">
        <ele>71.8</ele>
        <time>2026-01-30T07:56:11Z</time>
      </trkpt>
      <trkpt lat="48.63312" lon="1.95675">
        <ele>72.2</ele>
        <time>2026-01-30T07:56:12Z</time>
      </trkpt>
      <trkpt lat="48.63317" lon="1.95667">
        <ele>72.2</ele>
        <time>2026-01-30T07:56:13Z</time>
      </trkpt>
      <trkpt lat="48.63323" lon="1.95659">
        <ele>72.2</ele>
        <time>2026-01-30T07:56:14Z</time>
      </trkpt>
      <trkpt lat="48.63328" lon="1.9565">
        <ele>71.2</ele>
        <time>2026-01-30T07:56:15Z</time>
      </trkpt>
      <trkpt lat="48.63333" lon="1.95642">
        <ele>71.8</ele>
        <time>2026-01-30T07:56:16Z</time>
      </trkpt>
      <trkpt lat="48.63339" lon="1.95634">
        <ele>71.8</ele>
        <time>2026-01-30T07:56:17Z</time>
      </trkpt>
      <trkpt lat="48.63344" lon="1.95626">
        <ele>71.8</ele>
        <time>2026-01-30T07:56:18Z</time>
      </trkpt>
      <trkpt lat="48.63349" lon="1.95617">
        <ele>71.4</ele>
        <time>2026-01-30T07:56:19Z</time>
      </trkpt>
      <trkpt lat="48.63354" lon="1.95609">
        <ele>71.2</ele>
        <time>2026-01-30T07:56:20Z</time>
      </trkpt>
      <trkpt lat="48.6336" lon="1.95601">
        <ele>71.2</ele>
        <time>2026-01-30T07:56:21Z</time>
      </trkpt>
      <trkpt lat="48.63365" lon="1.95594">
        <ele>71.2</ele>
        <time>2026-01-30T07:56:22Z</time>
      </trkpt>
      <trkpt lat="48.6337" lon="1.95586">
        <ele>71.2</ele>
        <time>2026-01-30T07:56:23Z</time>
      </trkpt>
      <trkpt lat="48.63375" lon="1.95579">
        <ele>71.4</ele>
        <time>2026-01-30T07:56:24Z</time>
      </trkpt>
      <trkpt lat="48.6338" lon="1.95571">
        <ele>71.4</ele>
        <time>2026-01-30T07:56:25Z</time>
      </trkpt>
      <trkpt lat="48.63385" lon="1.95565">
        <ele>71.4</ele>
        <time>2026-01-30T07:56:26Z</time>
      </trkpt>
      <trkpt lat="48.63391" lon="1.95558">
        <ele>71.4</ele>
        <time>2026-01-30T07:56:27Z</time>
      </trkpt>
      <trkpt lat="48.63396" lon="1.95551">
        <ele>71.4</ele>
        <time>2026-01-30T07:56:28Z</time>
      </trkpt>
      <trkpt lat="48.63401" lon="1.95544">
        <ele>71.4</ele>
        <time>2026-01-30T07:56:29Z</time>
      </trkpt>
      <trkpt lat="48.63406" lon="1.95537">
        <ele>71.4</ele>
        <time>2026-01-30T07:56:30Z</time>
      </trkpt>
      <trkpt lat="48.63411" lon="1.9553">
        <ele>70.8</ele>
        <time>2026-01-30T07:56:31Z</time>
      </trkpt>
      <trkpt lat="48.63416" lon="1.95523">
        <ele>70.4</ele>
        <time>2026-01-30T07:56:32Z</time>
      </trkpt>
      <trkpt lat="48.63421" lon="1.95516">
        <ele>70.4</ele>
        <time>2026-01-30T07:56:33Z</time>
      </trkpt>
      <trkpt lat="48.63426" lon="1.95509">
        <ele>70.4</ele>
        <time>2026-01-30T07:56:34Z</time>
      </trkpt>
      <trkpt lat="48.63432" lon="1.95501">
        <ele>70</ele>
        <time>2026-01-30T07:56:35Z</time>
      </trkpt>
      <trkpt lat="48.63437" lon="1.95493">
        <ele>70</ele>
        <time>2026-01-30T07:56:36Z</time>
      </trkpt>
      <trkpt lat="48.63442" lon="1.95485">
        <ele>70</ele>
        <time>2026-01-30T07:56:37Z</time>
      </trkpt>
      <trkpt lat="48.63447" lon="1.95477">
        <ele>70</ele>
        <time>2026-01-30T07:56:38Z</time>
      </trkpt>
      <trkpt lat="48.63452" lon="1.95468">
        <ele>70</ele>
        <time>2026-01-30T07:56:39Z</time>
      </trkpt>
      <trkpt lat="48.63458" lon="1.95459">
        <ele>69</ele>
        <time>2026-01-30T07:56:40Z</time>
      </trkpt>
      <trkpt lat="48.63464" lon="1.95452">
        <ele>69</ele>
        <time>2026-01-30T07:56:41Z</time>
      </trkpt>
      <trkpt lat="48.6347" lon="1.95445">
        <ele>69</ele>
        <time>2026-01-30T07:56:42Z</time>
      </trkpt>
      <trkpt lat="48.63477" lon="1.95439">
        <ele>68</ele>
        <time>2026-01-30T07:56:43Z</time>
      </trkpt>
      <trkpt lat="48.63484" lon="1.95432">
        <ele>67.8</ele>
        <time>2026-01-30T07:56:44Z</time>
      </trkpt>
      <trkpt lat="48.63491" lon="1.95426">
        <ele>67.8</ele>
        <time>2026-01-30T07:56:45Z</time>
      </trkpt>
      <trkpt lat="48.63498" lon="1.9542">
        <ele>67.8</ele>
        <time>2026-01-30T07:56:46Z</time>
      </trkpt>
      <trkpt lat="48.63506" lon="1.95415">
        <ele>67.2</ele>
        <time>2026-01-30T07:56:47Z</time>
      </trkpt>
      <trkpt lat="48.63513" lon="1.95411">
        <ele>67.2</ele>
        <time>2026-01-30T07:56:48Z</time>
      </trkpt>
      <trkpt lat="48.63521" lon="1.95406">
        <ele>67.2</ele>
        <time>2026-01-30T07:56:49Z</time>
      </trkpt>
      <trkpt lat="48.63529" lon="1.95402">
        <ele>67.2</ele>
        <time>2026-01-30T07:56:50Z</time>
      </trkpt>
      <trkpt lat="48.63536" lon="1.95398">
        <ele>66.4</ele>
        <time>2026-01-30T07:56:51Z</time>
      </trkpt>
      <trkpt lat="48.63544" lon="1.95394">
        <ele>65.4</ele>
        <time>2026-01-30T07:56:52Z</time>
      </trkpt>
      <trkpt lat="48.63552" lon="1.95391">
        <ele>65.4</ele>
        <time>2026-01-30T07:56:53Z</time>
      </trkpt>
      <trkpt lat="48.63561" lon="1.95391">
        <ele>65.4</ele>
        <time>2026-01-30T07:56:54Z</time>
      </trkpt>
      <trkpt lat="48.63569" lon="1.95391">
        <ele>65.4</ele>
        <time>2026-01-30T07:56:55Z</time>
      </trkpt>
      <trkpt lat="48.63577" lon="1.95391">
        <ele>65.8</ele>
        <time>2026-01-30T07:56:56Z</time>
      </trkpt>
      <trkpt lat="48.63585" lon="1.95393">
        <ele>65.8</ele>
        <time>2026-01-30T07:56:57Z</time>
      </trkpt>
      <trkpt lat="48.63593" lon="1.95395">
        <ele>65.8</ele>
        <time>2026-01-30T07:56:58Z</time>
      </trkpt>
      <trkpt lat="48.63601" lon="1.95398">
        <ele>65.6</ele>
        <time>2026-01-30T07:56:59Z</time>
      </trkpt>
      <trkpt lat="48.63608" lon="1.95401">
        <ele>65.4</ele>
        <time>2026-01-30T07:57:00Z</time>
      </trkpt>
      <trkpt lat="48.63616" lon="1.95404">
        <ele>65.4</ele>
        <time>2026-01-30T07:57:01Z</time>
      </trkpt>
      <trkpt lat="48.63623" lon="1.95406">
        <ele>65.4</ele>
        <time>2026-01-30T07:57:02Z</time>
      </trkpt>
      <trkpt lat="48.6363" lon="1.95409">
        <ele>65.8</ele>
        <time>2026-01-30T07:57:03Z</time>
      </trkpt>
      <trkpt lat="48.63638" lon="1.95412">
        <ele>65.8</ele>
        <time>2026-01-30T07:57:04Z</time>
      </trkpt>
      <trkpt lat="48.63645" lon="1.95415">
        <ele>65.8</ele>
        <time>2026-01-30T07:57:05Z</time>
      </trkpt>
      <trkpt lat="48.63652" lon="1.95417">
        <ele>65.8</ele>
        <time>2026-01-30T07:57:06Z</time>
      </trkpt>
      <trkpt lat="48.6366" lon="1.9542">
        <ele>65.8</ele>
        <time>2026-01-30T07:57:07Z</time>
      </trkpt>
      <trkpt lat="48.63666" lon="1.95422">
        <ele>66.2</ele>
        <time>2026-01-30T07:57:08Z</time>
      </trkpt>
      <trkpt lat="48.63673" lon="1.95424">
        <ele>66.2</ele>
        <time>2026-01-30T07:57:09Z</time>
      </trkpt>
      <trkpt lat="48.6368" lon="1.95426">
        <ele>66.2</ele>
        <time>2026-01-30T07:57:10Z</time>
      </trkpt>
      <trkpt lat="48.63686" lon="1.95428">
        <ele>67.2</ele>
        <time>2026-01-30T07:57:11Z</time>
      </trkpt>
      <trkpt lat="48.63693" lon="1.9543">
        <ele>67.4</ele>
        <time>2026-01-30T07:57:12Z</time>
      </trkpt>
      <trkpt lat="48.63699" lon="1.95431">
        <ele>67.4</ele>
        <time>2026-01-30T07:57:13Z</time>
      </trkpt>
      <trkpt lat="48.63705" lon="1.95432">
        <ele>67.4</ele>
        <time>2026-01-30T07:57:14Z</time>
      </trkpt>
      <trkpt lat="48.63711" lon="1.95431">
        <ele>68.4</ele>
        <time>2026-01-30T07:57:15Z</time>
      </trkpt>
      <trkpt lat="48.63716" lon="1.9543">
        <ele>69.4</ele>
        <time>2026-01-30T07:57:16Z</time>
      </trkpt>
      <trkpt lat="48.63721" lon="1.95428">
        <ele>69.4</ele>
        <time>2026-01-30T07:57:17Z</time>
      </trkpt>
      <trkpt lat="48.63726" lon="1.95424">
        <ele>69.4</ele>
        <time>2026-01-30T07:57:18Z</time>
      </trkpt>
      <trkpt lat="48.6373" lon="1.9542">
        <ele>70.4</ele>
        <time>2026-01-30T07:57:19Z</time>
      </trkpt>
      <trkpt lat="48.63734" lon="1.95415">
        <ele>71</ele>
        <time>2026-01-30T07:57:20Z</time>
      </trkpt>
      <trkpt lat="48.63738" lon="1.95409">
        <ele>71</ele>
        <time>2026-01-30T07:57:21Z</time>
      </trkpt>
      <trkpt lat="48.63741" lon="1.95403">
        <ele>71</ele>
        <time>2026-01-30T07:57:22Z</time>
      </trkpt>
      <trkpt lat="48.63744" lon="1.95397">
        <ele>71</ele>
        <time>2026-01-30T07:57:23Z</time>
      </trkpt>
      <trkpt lat="48.63747" lon="1.95391">
        <ele>71.2</ele>
        <time>2026-01-30T07:57:24Z</time>
      </trkpt>
      <trkpt lat="48.6375" lon="1.95386">
        <ele>71.2</ele>
        <time>2026-01-30T07:57:25Z</time>
      </trkpt>
      <trkpt lat="48.63753" lon="1.95379">
        <ele>71.2</ele>
        <time>2026-01-30T07:57:26Z</time>
      </trkpt>
      <trkpt lat="48.63755" lon="1.95372">
        <ele>72.2</ele>
        <time>2026-01-30T07:57:27Z</time>
      </trkpt>
      <trkpt lat="48.63758" lon="1.95366">
        <ele>72.4</ele>
        <time>2026-01-30T07:57:28Z</time>
      </trkpt>
      <trkpt lat="48.6376" lon="1.95359">
        <ele>72.4</ele>
        <time>2026-01-30T07:57:29Z</time>
      </trkpt>
      <trkpt lat="48.63762" lon="1.95352">
        <ele>72.4</ele>
        <time>2026-01-30T07:57:30Z</time>
      </trkpt>
      <trkpt lat="48.63765" lon="1.95345">
        <ele>72.4</ele>
        <time>2026-01-30T07:57:31Z</time>
      </trkpt>
      <trkpt lat="48.63767" lon="1.95338">
        <ele>72.8</ele>
        <time>2026-01-30T07:57:32Z</time>
      </trkpt>
      <trkpt lat="48.6377" lon="1.95331">
        <ele>72.8</ele>
        <time>2026-01-30T07:57:33Z</time>
      </trkpt>
      <trkpt lat="48.63772" lon="1.95324">
        <ele>72.8</ele>
        <time>2026-01-30T07:57:34Z</time>
      </trkpt>
      <trkpt lat="48.63775" lon="1.95317">
        <ele>72.8</ele>
        <time>2026-01-30T07:57:35Z</time>
      </trkpt>
      <trkpt lat="48.63777" lon="1.9531">
        <ele>72.6</ele>
        <time>2026-01-30T07:57:36Z</time>
      </trkpt>
      <trkpt lat="48.6378" lon="1.95303">
        <ele>72.6</ele>
        <time>2026-01-30T07:57:37Z</time>
      </trkpt>
      <trkpt lat="48.63782" lon="1.95295">
        <ele>72.6</ele>
        <time>2026-01-30T07:57:38Z</time>
      </trkpt>
      <trkpt lat="48.63785" lon="1.95288">
        <ele>73.4</ele>
        <time>2026-01-30T07:57:39Z</time>
      </trkpt>
      <trkpt lat="48.63787" lon="1.95281">
        <ele>72.8</ele>
        <time>2026-01-30T07:57:40Z</time>
      </trkpt>
      <trkpt lat="48.63789" lon="1.95273">
        <ele>72.8</ele>
        <time>2026-01-30T07:57:41Z</time>
      </trkpt>
      <trkpt lat="48.63792" lon="1.95266">
        <ele>72.8</ele>
        <time>2026-01-30T07:57:42Z</time>
      </trkpt>
      <trkpt lat="48.63794" lon="1.95258">
        <ele>72.8</ele>
        <time>2026-01-30T07:57:43Z</time>
      </trkpt>
      <trkpt lat="48.63797" lon="1.95251">
        <ele>72.8</ele>
        <time>2026-01-30T07:57:44Z</time>
      </trkpt>
      <trkpt lat="48.63799" lon="1.95243">
        <ele>72.8</ele>
        <time>2026-01-30T07:57:45Z</time>
      </trkpt>
      <trkpt lat="48.63801" lon="1.95236">
        <ele>72.8</ele>
        <time>2026-01-30T07:57:46Z</time>
      </trkpt>
      <trkpt lat="48.63803" lon="1.95229">
        <ele>72.8</ele>
        <time>2026-01-30T07:57:47Z</time>
      </trkpt>
      <trkpt lat="48.63805" lon="1.95221">
        <ele>73</ele>
        <time>2026-01-30T07:57:48Z</time>
      </trkpt>
      <trkpt lat="48.63807" lon="1.95213">
        <ele>73</ele>
        <time>2026-01-30T07:57:49Z</time>
      </trkpt>
      <trkpt lat="48.63809" lon="1.95205">
        <ele>73</ele>
        <time>2026-01-30T07:57:50Z</time>
      </trkpt>
      <trkpt lat="48.63812" lon="1.95198">
        <ele>72.6</ele>
        <time>2026-01-30T07:57:51Z</time>
      </trkpt>
      <trkpt lat="48.63815" lon="1.95192">
        <ele>72.8</ele>
        <time>2026-01-30T07:57:52Z</time>
      </trkpt>
      <trkpt lat="48.63816" lon="1.95183">
        <ele>72.8</ele>
        <time>2026-01-30T07:57:53Z</time>
      </trkpt>
      <trkpt lat="48.63817" lon="1.95175">
        <ele>72.8</ele>
        <time>2026-01-30T07:57:54Z</time>
      </trkpt>
      <trkpt lat="48.63819" lon="1.95166">
        <ele>72.8</ele>
        <time>2026-01-30T07:57:55Z</time>
      </trkpt>
      <trkpt lat="48.63822" lon="1.95157">
        <ele>70.6</ele>
        <time>2026-01-30T07:57:56Z</time>
      </trkpt>
      <trkpt lat="48.63827" lon="1.95149">
        <ele>70.6</ele>
        <time>2026-01-30T07:57:57Z</time>
      </trkpt>
      <trkpt lat="48.63831" lon="1.95142">
        <ele>70.6</ele>
        <time>2026-01-30T07:57:58Z</time>
      </trkpt>
      <trkpt lat="48.63836" lon="1.95134">
        <ele>70.6</ele>
        <time>2026-01-30T07:57:59Z</time>
      </trkpt>
      <trkpt lat="48.63841" lon="1.95127">
        <ele>70</ele>
        <time>2026-01-30T07:58:00Z</time>
      </trkpt>
      <trkpt lat="48.63846" lon="1.9512">
        <ele>70</ele>
        <time>2026-01-30T07:58:01Z</time>
      </trkpt>
      <trkpt lat="48.63851" lon="1.95113">
        <ele>70</ele>
        <time>2026-01-30T07:58:02Z</time>
      </trkpt>
      <trkpt lat="48.63857" lon="1.95107">
        <ele>69.8</ele>
        <time>2026-01-30T07:58:03Z</time>
      </trkpt>
      <trkpt lat="48.63863" lon="1.95102">
        <ele>70</ele>
        <time>2026-01-30T07:58:04Z</time>
      </trkpt>
      <trkpt lat="48.63869" lon="1.95098">
        <ele>70</ele>
        <time>2026-01-30T07:58:05Z</time>
      </trkpt>
      <trkpt lat="48.63875" lon="1.95094">
        <ele>70</ele>
        <time>2026-01-30T07:58:06Z</time>
      </trkpt>
      <trkpt lat="48.63881" lon="1.95091">
        <ele>70</ele>
        <time>2026-01-30T07:58:07Z</time>
      </trkpt>
      <trkpt lat="48.63887" lon="1.95088">
        <ele>71</ele>
        <time>2026-01-30T07:58:08Z</time>
      </trkpt>
      <trkpt lat="48.63893" lon="1.95085">
        <ele>71</ele>
        <time>2026-01-30T07:58:09Z</time>
      </trkpt>
      <trkpt lat="48.63899" lon="1.95082">
        <ele>71</ele>
        <time>2026-01-30T07:58:10Z</time>
      </trkpt>
      <trkpt lat="48.63904" lon="1.9508">
        <ele>71</ele>
        <time>2026-01-30T07:58:11Z</time>
      </trkpt>
      <trkpt lat="48.6391" lon="1.95078">
        <ele>70.6</ele>
        <time>2026-01-30T07:58:12Z</time>
      </trkpt>
      <trkpt lat="48.63916" lon="1.95074">
        <ele>70.6</ele>
        <time>2026-01-30T07:58:13Z</time>
      </trkpt>
      <trkpt lat="48.63922" lon="1.9507">
        <ele>70.6</ele>
        <time>2026-01-30T07:58:14Z</time>
      </trkpt>
      <trkpt lat="48.63928" lon="1.95067">
        <ele>70.6</ele>
        <time>2026-01-30T07:58:15Z</time>
      </trkpt>
      <trkpt lat="48.63933" lon="1.95063">
        <ele>70.6</ele>
        <time>2026-01-30T07:58:16Z</time>
      </trkpt>
      <trkpt lat="48.63939" lon="1.95058">
        <ele>70.6</ele>
        <time>2026-01-30T07:58:17Z</time>
      </trkpt>
      <trkpt lat="48.63945" lon="1.95054">
        <ele>70.6</ele>
        <time>2026-01-30T07:58:18Z</time>
      </trkpt>
      <trkpt lat="48.63951" lon="1.9505">
        <ele>71.2</ele>
        <time>2026-01-30T07:58:19Z</time>
      </trkpt>
      <trkpt lat="48.63957" lon="1.95046">
        <ele>71</ele>
        <time>2026-01-30T07:58:20Z</time>
      </trkpt>
      <trkpt lat="48.63963" lon="1.95042">
        <ele>71</ele>
        <time>2026-01-30T07:58:21Z</time>
      </trkpt>
      <trkpt lat="48.63968" lon="1.95038">
        <ele>71</ele>
        <time>2026-01-30T07:58:22Z</time>
      </trkpt>
      <trkpt lat="48.63974" lon="1.95035">
        <ele>71</ele>
        <time>2026-01-30T07:58:23Z</time>
      </trkpt>
      <trkpt lat="48.6398" lon="1.95031">
        <ele>70.6</ele>
        <time>2026-01-30T07:58:24Z</time>
      </trkpt>
      <trkpt lat="48.63986" lon="1.95028">
        <ele>70.6</ele>
        <time>2026-01-30T07:58:25Z</time>
      </trkpt>
      <trkpt lat="48.63992" lon="1.95026">
        <ele>70.6</ele>
        <time>2026-01-30T07:58:26Z</time>
      </trkpt>
      <trkpt lat="48.63998" lon="1.95024">
        <ele>71</ele>
        <time>2026-01-30T07:58:27Z</time>
      </trkpt>
      <trkpt lat="48.64004" lon="1.95023">
        <ele>70.8</ele>
        <time>2026-01-30T07:58:28Z</time>
      </trkpt>
      <trkpt lat="48.6401" lon="1.95022">
        <ele>70.8</ele>
        <time>2026-01-30T07:58:29Z</time>
      </trkpt>
      <trkpt lat="48.64016" lon="1.95022">
        <ele>70.8</ele>
        <time>2026-01-30T07:58:30Z</time>
      </trkpt>
      <trkpt lat="48.64022" lon="1.95022">
        <ele>70.4</ele>
        <time>2026-01-30T07:58:31Z</time>
      </trkpt>
      <trkpt lat="48.64028" lon="1.95021">
        <ele>70.8</ele>
        <time>2026-01-30T07:58:32Z</time>
      </trkpt>
      <trkpt lat="48.64035" lon="1.95022">
        <ele>70.8</ele>
        <time>2026-01-30T07:58:33Z</time>
      </trkpt>
      <trkpt lat="48.64041" lon="1.95022">
        <ele>70.8</ele>
        <time>2026-01-30T07:58:34Z</time>
      </trkpt>
      <trkpt lat="48.64048" lon="1.95023">
        <ele>70</ele>
        <time>2026-01-30T07:58:35Z</time>
      </trkpt>
      <trkpt lat="48.64054" lon="1.95025">
        <ele>70.2</ele>
        <time>2026-01-30T07:58:36Z</time>
      </trkpt>
      <trkpt lat="48.64059" lon="1.95028">
        <ele>70.2</ele>
        <time>2026-01-30T07:58:37Z</time>
      </trkpt>
      <trkpt lat="48.64063" lon="1.95032">
        <ele>70.2</ele>
        <time>2026-01-30T07:58:38Z</time>
      </trkpt>
      <trkpt lat="48.64068" lon="1.95036">
        <ele>70.2</ele>
        <time>2026-01-30T07:58:39Z</time>
      </trkpt>
      <trkpt lat="48.64072" lon="1.9504">
        <ele>70.6</ele>
        <time>2026-01-30T07:58:40Z</time>
      </trkpt>
      <trkpt lat="48.64077" lon="1.95044">
        <ele>70.6</ele>
        <time>2026-01-30T07:58:41Z</time>
      </trkpt>
      <trkpt lat="48.64082" lon="1.95047">
        <ele>70.6</ele>
        <time>2026-01-30T07:58:42Z</time>
      </trkpt>
      <trkpt lat="48.64087" lon="1.95051">
        <ele>70.6</ele>
        <time>2026-01-30T07:58:43Z</time>
      </trkpt>
      <trkpt lat="48.64092" lon="1.95054">
        <ele>71.4</ele>
        <time>2026-01-30T07:58:44Z</time>
      </trkpt>
      <trkpt lat="48.64098" lon="1.95057">
        <ele>71.4</ele>
        <time>2026-01-30T07:58:45Z</time>
      </trkpt>
      <trkpt lat="48.64104" lon="1.95059">
        <ele>71.4</ele>
        <time>2026-01-30T07:58:46Z</time>
      </trkpt>
      <trkpt lat="48.64109" lon="1.95061">
        <ele>71.8</ele>
        <time>2026-01-30T07:58:47Z</time>
      </trkpt>
      <trkpt lat="48.64115" lon="1.95064">
        <ele>71.8</ele>
        <time>2026-01-30T07:58:48Z</time>
      </trkpt>
      <trkpt lat="48.64119" lon="1.95067">
        <ele>71.8</ele>
        <time>2026-01-30T07:58:49Z</time>
      </trkpt>
      <trkpt lat="48.64125" lon="1.95069">
        <ele>71.8</ele>
        <time>2026-01-30T07:58:50Z</time>
      </trkpt>
      <trkpt lat="48.6413" lon="1.95071">
        <ele>71.8</ele>
        <time>2026-01-30T07:58:51Z</time>
      </trkpt>
      <trkpt lat="48.64135" lon="1.95073">
        <ele>72.4</ele>
        <time>2026-01-30T07:58:52Z</time>
      </trkpt>
      <trkpt lat="48.64141" lon="1.95075">
        <ele>72.4</ele>
        <time>2026-01-30T07:58:53Z</time>
      </trkpt>
      <trkpt lat="48.64146" lon="1.95077">
        <ele>72.4</ele>
        <time>2026-01-30T07:58:54Z</time>
      </trkpt>
      <trkpt lat="48.64152" lon="1.95079">
        <ele>72.4</ele>
        <time>2026-01-30T07:58:55Z</time>
      </trkpt>
      <trkpt lat="48.64158" lon="1.9508">
        <ele>72.4</ele>
        <time>2026-01-30T07:58:56Z</time>
      </trkpt>
      <trkpt lat="48.64163" lon="1.95081">
        <ele>72.4</ele>
        <time>2026-01-30T07:58:57Z</time>
      </trkpt>
      <trkpt lat="48.64169" lon="1.95083">
        <ele>72.4</ele>
        <time>2026-01-30T07:58:58Z</time>
      </trkpt>
      <trkpt lat="48.64175" lon="1.95085">
        <ele>72.4</ele>
        <time>2026-01-30T07:58:59Z</time>
      </trkpt>
      <trkpt lat="48.6418" lon="1.95086">
        <ele>72.4</ele>
        <time>2026-01-30T07:59:00Z</time>
      </trkpt>
      <trkpt lat="48.64186" lon="1.95088">
        <ele>72.4</ele>
        <time>2026-01-30T07:59:01Z</time>
      </trkpt>
      <trkpt lat="48.64191" lon="1.9509">
        <ele>72.4</ele>
        <time>2026-01-30T07:59:02Z</time>
      </trkpt>
      <trkpt lat="48.64197" lon="1.95091">
        <ele>73</ele>
        <time>2026-01-30T07:59:03Z</time>
      </trkpt>
      <trkpt lat="48.64202" lon="1.95093">
        <ele>72.6</ele>
        <time>2026-01-30T07:59:04Z</time>
      </trkpt>
      <trkpt lat="48.64208" lon="1.95094">
        <ele>72.6</ele>
        <time>2026-01-30T07:59:05Z</time>
      </trkpt>
      <trkpt lat="48.64213" lon="1.95096">
        <ele>72.6</ele>
        <time>2026-01-30T07:59:06Z</time>
      </trkpt>
      <trkpt lat="48.64218" lon="1.95098">
        <ele>73.6</ele>
        <time>2026-01-30T07:59:07Z</time>
      </trkpt>
      <trkpt lat="48.64223" lon="1.951">
        <ele>73.2</ele>
        <time>2026-01-30T07:59:08Z</time>
      </trkpt>
      <trkpt lat="48.64229" lon="1.95102">
        <ele>73.2</ele>
        <time>2026-01-30T07:59:09Z</time>
      </trkpt>
      <trkpt lat="48.64234" lon="1.95104">
        <ele>73.2</ele>
        <time>2026-01-30T07:59:10Z</time>
      </trkpt>
      <trkpt lat="48.6424" lon="1.95105">
        <ele>73</ele>
        <time>2026-01-30T07:59:11Z</time>
      </trkpt>
      <trkpt lat="48.64245" lon="1.95107">
        <ele>73.2</ele>
        <time>2026-01-30T07:59:12Z</time>
      </trkpt>
      <trkpt lat="48.6425" lon="1.95109">
        <ele>73.2</ele>
        <time>2026-01-30T07:59:13Z</time>
      </trkpt>
      <trkpt lat="48.64256" lon="1.95111">
        <ele>73.2</ele>
        <time>2026-01-30T07:59:14Z</time>
      </trkpt>
      <trkpt lat="48.64262" lon="1.95113">
        <ele>73.2</ele>
        <time>2026-01-30T07:59:15Z</time>
      </trkpt>
      <trkpt lat="48.64267" lon="1.95114">
        <ele>73.4</ele>
        <time>2026-01-30T07:59:16Z</time>
      </trkpt>
      <trkpt lat="48.64272" lon="1.95116">
        <ele>73.4</ele>
        <time>2026-01-30T07:59:17Z</time>
      </trkpt>
      <trkpt lat="48.64278" lon="1.95118">
        <ele>73.4</ele>
        <time>2026-01-30T07:59:18Z</time>
      </trkpt>
      <trkpt lat="48.64283" lon="1.9512">
        <ele>73.4</ele>
        <time>2026-01-30T07:59:19Z</time>
      </trkpt>
      <trkpt lat="48.64288" lon="1.95121">
        <ele>73.6</ele>
        <time>2026-01-30T07:59:20Z</time>
      </trkpt>
      <trkpt lat="48.64294" lon="1.95122">
        <ele>73.6</ele>
        <time>2026-01-30T07:59:21Z</time>
      </trkpt>
      <trkpt lat="48.64299" lon="1.95123">
        <ele>73.6</ele>
        <time>2026-01-30T07:59:22Z</time>
      </trkpt>
      <trkpt lat="48.64305" lon="1.95123">
        <ele>73.6</ele>
        <time>2026-01-30T07:59:23Z</time>
      </trkpt>
      <trkpt lat="48.6431" lon="1.95123">
        <ele>73.8</ele>
        <time>2026-01-30T07:59:24Z</time>
      </trkpt>
      <trkpt lat="48.64316" lon="1.95123">
        <ele>73.8</ele>
        <time>2026-01-30T07:59:25Z</time>
      </trkpt>
      <trkpt lat="48.64321" lon="1.95122">
        <ele>73.8</ele>
        <time>2026-01-30T07:59:26Z</time>
      </trkpt>
      <trkpt lat="48.64327" lon="1.9512">
        <ele>73.8</ele>
        <time>2026-01-30T07:59:27Z</time>
      </trkpt>
      <trkpt lat="48.64332" lon="1.95118">
        <ele>74</ele>
        <time>2026-01-30T07:59:28Z</time>
      </trkpt>
      <trkpt lat="48.64337" lon="1.95116">
        <ele>74</ele>
        <time>2026-01-30T07:59:29Z</time>
      </trkpt>
      <trkpt lat="48.64342" lon="1.95114">
        <ele>74</ele>
        <time>2026-01-30T07:59:30Z</time>
      </trkpt>
      <trkpt lat="48.64347" lon="1.95111">
        <ele>74.6</ele>
        <time>2026-01-30T07:59:31Z</time>
      </trkpt>
      <trkpt lat="48.64351" lon="1.95109">
        <ele>75</ele>
        <time>2026-01-30T07:59:32Z</time>
      </trkpt>
      <trkpt lat="48.64356" lon="1.95106">
        <ele>75</ele>
        <time>2026-01-30T07:59:33Z</time>
      </trkpt>
      <trkpt lat="48.6436" lon="1.95104">
        <ele>75</ele>
        <time>2026-01-30T07:59:34Z</time>
      </trkpt>
      <trkpt lat="48.64364" lon="1.95101">
        <ele>75.6</ele>
        <time>2026-01-30T07:59:35Z</time>
      </trkpt>
      <trkpt lat="48.64368" lon="1.95099">
        <ele>76</ele>
        <time>2026-01-30T07:59:36Z</time>
      </trkpt>
      <trkpt lat="48.64372" lon="1.95097">
        <ele>76</ele>
        <time>2026-01-30T07:59:37Z</time>
      </trkpt>
      <trkpt lat="48.64376" lon="1.95095">
        <ele>76</ele>
        <time>2026-01-30T07:59:38Z</time>
      </trkpt>
      <trkpt lat="48.6438" lon="1.95093">
        <ele>76.6</ele>
        <time>2026-01-30T07:59:39Z</time>
      </trkpt>
      <trkpt lat="48.64384" lon="1.95091">
        <ele>77.2</ele>
        <time>2026-01-30T07:59:40Z</time>
      </trkpt>
      <trkpt lat="48.64388" lon="1.95089">
        <ele>77.2</ele>
        <time>2026-01-30T07:59:41Z</time>
      </trkpt>
      <trkpt lat="48.64393" lon="1.95087">
        <ele>77.2</ele>
        <time>2026-01-30T07:59:42Z</time>
      </trkpt>
      <trkpt lat="48.64397" lon="1.95085">
        <ele>77.2</ele>
        <time>2026-01-30T07:59:43Z</time>
      </trkpt>
      <trkpt lat="48.644" lon="1.95084">
        <ele>77.6</ele>
        <time>2026-01-30T07:59:44Z</time>
      </trkpt>
      <trkpt lat="48.64405" lon="1.95082">
        <ele>77.6</ele>
        <time>2026-01-30T07:59:45Z</time>
      </trkpt>
      <trkpt lat="48.64409" lon="1.95081">
        <ele>77.6</ele>
        <time>2026-01-30T07:59:46Z</time>
      </trkpt>
      <trkpt lat="48.64413" lon="1.95079">
        <ele>78.2</ele>
        <time>2026-01-30T07:59:47Z</time>
      </trkpt>
      <trkpt lat="48.64417" lon="1.95078">
        <ele>78.2</ele>
        <time>2026-01-30T07:59:48Z</time>
      </trkpt>
      <trkpt lat="48.6442" lon="1.95076">
        <ele>78.2</ele>
        <time>2026-01-30T07:59:49Z</time>
      </trkpt>
      <trkpt lat="48.64424" lon="1.95074">
        <ele>78.2</ele>
        <time>2026-01-30T07:59:50Z</time>
      </trkpt>
      <trkpt lat="48.64428" lon="1.95073">
        <ele>78.8</ele>
        <time>2026-01-30T07:59:51Z</time>
      </trkpt>
      <trkpt lat="48.64431" lon="1.95071">
        <ele>79.2</ele>
        <time>2026-01-30T07:59:52Z</time>
      </trkpt>
      <trkpt lat="48.64435" lon="1.9507">
        <ele>79.2</ele>
        <time>2026-01-30T07:59:53Z</time>
      </trkpt>
      <trkpt lat="48.64439" lon="1.95069">
        <ele>79.2</ele>
        <time>2026-01-30T07:59:54Z</time>
      </trkpt>
      <trkpt lat="48.64442" lon="1.95068">
        <ele>79.2</ele>
        <time>2026-01-30T07:59:55Z</time>
      </trkpt>
      <trkpt lat="48.64446" lon="1.95067">
        <ele>79.8</ele>
        <time>2026-01-30T07:59:56Z</time>
      </trkpt>
      <trkpt lat="48.6445" lon="1.95066">
        <ele>79.8</ele>
        <time>2026-01-30T07:59:57Z</time>
      </trkpt>
      <trkpt lat="48.64453" lon="1.95065">
        <ele>79.8</ele>
        <time>2026-01-30T07:59:58Z</time>
      </trkpt>
      <trkpt lat="48.64457" lon="1.95065">
        <ele>79.8</ele>
        <time>2026-01-30T07:59:59Z</time>
      </trkpt>
      <trkpt lat="48.6446" lon="1.95064">
        <ele>80.4</ele>
        <time>2026-01-30T08:00:00Z</time>
      </trkpt>
      <trkpt lat="48.64464" lon="1.95064">
        <ele>80.4</ele>
        <time>2026-01-30T08:00:01Z</time>
      </trkpt>
      <trkpt lat="48.64468" lon="1.95064">
        <ele>80.4</ele>
        <time>2026-01-30T08:00:02Z</time>
      </trkpt>
      <trkpt lat="48.64471" lon="1.95064">
        <ele>80.8</ele>
        <time>2026-01-30T08:00:03Z</time>
      </trkpt>
      <trkpt lat="48.64475" lon="1.95064">
        <ele>81</ele>
        <time>2026-01-30T08:00:04Z</time>
      </trkpt>
      <trkpt lat="48.64479" lon="1.95064">
        <ele>81</ele>
        <time>2026-01-30T08:00:05Z</time>
      </trkpt>
      <trkpt lat="48.64482" lon="1.95064">
        <ele>81</ele>
        <time>2026-01-30T08:00:06Z</time>
      </trkpt>
      <trkpt lat="48.64486" lon="1.95065">
        <ele>81.4</ele>
        <time>2026-01-30T08:00:07Z</time>
      </trkpt>
      <trkpt lat="48.64489" lon="1.95066">
        <ele>81.8</ele>
        <time>2026-01-30T08:00:08Z</time>
      </trkpt>
      <trkpt lat="48.64493" lon="1.95067">
        <ele>81.8</ele>
        <time>2026-01-30T08:00:09Z</time>
      </trkpt>
      <trkpt lat="48.64496" lon="1.95068">
        <ele>81.8</ele>
        <time>2026-01-30T08:00:10Z</time>
      </trkpt>
      <trkpt lat="48.645" lon="1.95069">
        <ele>81.8</ele>
        <time>2026-01-30T08:00:11Z</time>
      </trkpt>
      <trkpt lat="48.64503" lon="1.9507">
        <ele>82.2</ele>
        <time>2026-01-30T08:00:12Z</time>
      </trkpt>
      <trkpt lat="48.64506" lon="1.95071">
        <ele>82.2</ele>
        <time>2026-01-30T08:00:13Z</time>
      </trkpt>
      <trkpt lat="48.6451" lon="1.95072">
        <ele>82.2</ele>
        <time>2026-01-30T08:00:14Z</time>
      </trkpt>
      <trkpt lat="48.64513" lon="1.95073">
        <ele>83.2</ele>
        <time>2026-01-30T08:00:15Z</time>
      </trkpt>
      <trkpt lat="48.64516" lon="1.95074">
        <ele>83.2</ele>
        <time>2026-01-30T08:00:16Z</time>
      </trkpt>
      <trkpt lat="48.64519" lon="1.95075">
        <ele>83.2</ele>
        <time>2026-01-30T08:00:17Z</time>
      </trkpt>
      <trkpt lat="48.64523" lon="1.95076">
        <ele>83.2</ele>
        <time>2026-01-30T08:00:18Z</time>
      </trkpt>
      <trkpt lat="48.64526" lon="1.95077">
        <ele>84</ele>
        <time>2026-01-30T08:00:19Z</time>
      </trkpt>
      <trkpt lat="48.64529" lon="1.95078">
        <ele>84.4</ele>
        <time>2026-01-30T08:00:20Z</time>
      </trkpt>
      <trkpt lat="48.64532" lon="1.95079">
        <ele>84.4</ele>
        <time>2026-01-30T08:00:21Z</time>
      </trkpt>
      <trkpt lat="48.64535" lon="1.9508">
        <ele>84.4</ele>
        <time>2026-01-30T08:00:22Z</time>
      </trkpt>
      <trkpt lat="48.64538" lon="1.95081">
        <ele>85</ele>
        <time>2026-01-30T08:00:23Z</time>
      </trkpt>
      <trkpt lat="48.64541" lon="1.95082">
        <ele>85.4</ele>
        <time>2026-01-30T08:00:24Z</time>
      </trkpt>
      <trkpt lat="48.64544" lon="1.95083">
        <ele>85.4</ele>
        <time>2026-01-30T08:00:25Z</time>
      </trkpt>
      <trkpt lat="48.64548" lon="1.95084">
        <ele>85.4</ele>
        <time>2026-01-30T08:00:26Z</time>
      </trkpt>
      <trkpt lat="48.64551" lon="1.95085">
        <ele>86.2</ele>
        <time>2026-01-30T08:00:27Z</time>
      </trkpt>
      <trkpt lat="48.64554" lon="1.95086">
        <ele>86.2</ele>
        <time>2026-01-30T08:00:28Z</time>
      </trkpt>
      <trkpt lat="48.64557" lon="1.95086">
        <ele>86.2</ele>
        <time>2026-01-30T08:00:29Z</time>
      </trkpt>
      <trkpt lat="48.6456" lon="1.95086">
        <ele>86.2</ele>
        <time>2026-01-30T08:00:30Z</time>
      </trkpt>
      <trkpt lat="48.64563" lon="1.95087">
        <ele>86.6</ele>
        <time>2026-01-30T08:00:31Z</time>
      </trkpt>
      <trkpt lat="48.64566" lon="1.95087">
        <ele>87</ele>
        <time>2026-01-30T08:00:32Z</time>
      </trkpt>
      <trkpt lat="48.64569" lon="1.95088">
        <ele>87</ele>
        <time>2026-01-30T08:00:33Z</time>
      </trkpt>
      <trkpt lat="48.64572" lon="1.95088">
        <ele>87</ele>
        <time>2026-01-30T08:00:34Z</time>
      </trkpt>
      <trkpt lat="48.64575" lon="1.95088">
        <ele>87</ele>
        <time>2026-01-30T08:00:35Z</time>
      </trkpt>
      <trkpt lat="48.64578" lon="1.95088">
        <ele>87.4</ele>
        <time>2026-01-30T08:00:36Z</time>
      </trkpt>
      <trkpt lat="48.64582" lon="1.95088">
        <ele>87.4</ele>
        <time>2026-01-30T08:00:37Z</time>
      </trkpt>
      <trkpt lat="48.64585" lon="1.95088">
        <ele>87.4</ele>
        <time>2026-01-30T08:00:38Z</time>
      </trkpt>
      <trkpt lat="48.64588" lon="1.95088">
        <ele>87.4</ele>
        <time>2026-01-30T08:00:39Z</time>
      </trkpt>
      <trkpt lat="48.64592" lon="1.95087">
        <ele>88</ele>
        <time>2026-01-30T08:00:40Z</time>
      </trkpt>
      <trkpt lat="48.64595" lon="1.95087">
        <ele>88</ele>
        <time>2026-01-30T08:00:41Z</time>
      </trkpt>
      <trkpt lat="48.64598" lon="1.95086">
        <ele>88</ele>
        <time>2026-01-30T08:00:42Z</time>
      </trkpt>
      <trkpt lat="48.64601" lon="1.95086">
        <ele>88</ele>
        <time>2026-01-30T08:00:43Z</time>
      </trkpt>
      <trkpt lat="48.64605" lon="1.95085">
        <ele>88.8</ele>
        <time>2026-01-30T08:00:44Z</time>
      </trkpt>
      <trkpt lat="48.64608" lon="1.95084">
        <ele>88.8</ele>
        <time>2026-01-30T08:00:45Z</time>
      </trkpt>
      <trkpt lat="48.64611" lon="1.95083">
        <ele>88.8</ele>
        <time>2026-01-30T08:00:46Z</time>
      </trkpt>
      <trkpt lat="48.64614" lon="1.95081">
        <ele>88.8</ele>
        <time>2026-01-30T08:00:47Z</time>
      </trkpt>
      <trkpt lat="48.64617" lon="1.9508">
        <ele>89.2</ele>
        <time>2026-01-30T08:00:48Z</time>
      </trkpt>
      <trkpt lat="48.64621" lon="1.95079">
        <ele>89.2</ele>
        <time>2026-01-30T08:00:49Z</time>
      </trkpt>
      <trkpt lat="48.64624" lon="1.95078">
        <ele>89.2</ele>
        <time>2026-01-30T08:00:50Z</time>
      </trkpt>
      <trkpt lat="48.64627" lon="1.95076">
        <ele>90.2</ele>
        <time>2026-01-30T08:00:51Z</time>
      </trkpt>
      <trkpt lat="48.6463" lon="1.95074">
        <ele>89.8</ele>
        <time>2026-01-30T08:00:52Z</time>
      </trkpt>
      <trkpt lat="48.64633" lon="1.95072">
        <ele>89.8</ele>
        <time>2026-01-30T08:00:53Z</time>
      </trkpt>
      <trkpt lat="48.64636" lon="1.9507">
        <ele>89.8</ele>
        <time>2026-01-30T08:00:54Z</time>
      </trkpt>
      <trkpt lat="48.64639" lon="1.95068">
        <ele>89.8</ele>
        <time>2026-01-30T08:00:55Z</time>
      </trkpt>
      <trkpt lat="48.64642" lon="1.95065">
        <ele>90.2</ele>
        <time>2026-01-30T08:00:56Z</time>
      </trkpt>
      <trkpt lat="48.64645" lon="1.95063">
        <ele>90.2</ele>
        <time>2026-01-30T08:00:57Z</time>
      </trkpt>
      <trkpt lat="48.64648" lon="1.95061">
        <ele>90.2</ele>
        <time>2026-01-30T08:00:58Z</time>
      </trkpt>
      <trkpt lat="48.64651" lon="1.95059">
        <ele>90.2</ele>
        <time>2026-01-30T08:00:59Z</time>
      </trkpt>
      <trkpt lat="48.64654" lon="1.95057">
        <ele>91.4</ele>
        <time>2026-01-30T08:01:00Z</time>
      </trkpt>
      <trkpt lat="48.64657" lon="1.95055">
        <ele>91.4</ele>
        <time>2026-01-30T08:01:01Z</time>
      </trkpt>
      <trkpt lat="48.6466" lon="1.95052">
        <ele>91.4</ele>
        <time>2026-01-30T08:01:02Z</time>
      </trkpt>
      <trkpt lat="48.64663" lon="1.9505">
        <ele>91.4</ele>
        <time>2026-01-30T08:01:03Z</time>
      </trkpt>
      <trkpt lat="48.64666" lon="1.95048">
        <ele>91.8</ele>
        <time>2026-01-30T08:01:04Z</time>
      </trkpt>
      <trkpt lat="48.64669" lon="1.95045">
        <ele>91.8</ele>
        <time>2026-01-30T08:01:05Z</time>
      </trkpt>
      <trkpt lat="48.64672" lon="1.95043">
        <ele>91.8</ele>
        <time>2026-01-30T08:01:06Z</time>
      </trkpt>
      <trkpt lat="48.64674" lon="1.9504">
        <ele>91.8</ele>
        <time>2026-01-30T08:01:07Z</time>
      </trkpt>
      <trkpt lat="48.64677" lon="1.95038">
        <ele>92.2</ele>
        <time>2026-01-30T08:01:08Z</time>
      </trkpt>
      <trkpt lat="48.6468" lon="1.95035">
        <ele>92.2</ele>
        <time>2026-01-30T08:01:09Z</time>
      </trkpt>
      <trkpt lat="48.64684" lon="1.95032">
        <ele>92.2</ele>
        <time>2026-01-30T08:01:10Z</time>
      </trkpt>
      <trkpt lat="48.64687" lon="1.95029">
        <ele>92.2</ele>
        <time>2026-01-30T08:01:11Z</time>
      </trkpt>
      <trkpt lat="48.6469" lon="1.95027">
        <ele>92.2</ele>
        <time>2026-01-30T08:01:12Z</time>
      </trkpt>
      <trkpt lat="48.64694" lon="1.95024">
        <ele>92.2</ele>
        <time>2026-01-30T08:01:13Z</time>
      </trkpt>
      <trkpt lat="48.64697" lon="1.95021">
        <ele>92.2</ele>
        <time>2026-01-30T08:01:14Z</time>
      </trkpt>
      <trkpt lat="48.647" lon="1.95019">
        <ele>92.2</ele>
        <time>2026-01-30T08:01:15Z</time>
      </trkpt>
      <trkpt lat="48.64704" lon="1.95016">
        <ele>92.6</ele>
        <time>2026-01-30T08:01:16Z</time>
      </trkpt>
      <trkpt lat="48.64707" lon="1.95013">
        <ele>92.6</ele>
        <time>2026-01-30T08:01:17Z</time>
      </trkpt>
      <trkpt lat="48.64711" lon="1.9501">
        <ele>92.6</ele>
        <time>2026-01-30T08:01:18Z</time>
      </trkpt>
      <trkpt lat="48.64714" lon="1.95007">
        <ele>92.6</ele>
        <time>2026-01-30T08:01:19Z</time>
      </trkpt>
      <trkpt lat="48.64718" lon="1.95004">
        <ele>92.8</ele>
        <time>2026-01-30T08:01:20Z</time>
      </trkpt>
      <trkpt lat="48.64721" lon="1.95002">
        <ele>92.8</ele>
        <time>2026-01-30T08:01:21Z</time>
      </trkpt>
      <trkpt lat="48.64725" lon="1.94999">
        <ele>92.8</ele>
        <time>2026-01-30T08:01:22Z</time>
      </trkpt>
      <trkpt lat="48.64728" lon="1.94996">
        <ele>93.2</ele>
        <time>2026-01-30T08:01:23Z</time>
      </trkpt>
      <trkpt lat="48.64732" lon="1.94994">
        <ele>93.2</ele>
        <time>2026-01-30T08:01:24Z</time>
      </trkpt>
      <trkpt lat="48.64735" lon="1.94991">
        <ele>93.2</ele>
        <time>2026-01-30T08:01:25Z</time>
      </trkpt>
      <trkpt lat="48.64739" lon="1.94989">
        <ele>93.2</ele>
        <time>2026-01-30T08:01:26Z</time>
      </trkpt>
      <trkpt lat="48.64742" lon="1.94987">
        <ele>93.2</ele>
        <time>2026-01-30T08:01:27Z</time>
      </trkpt>
      <trkpt lat="48.64746" lon="1.94985">
        <ele>93</ele>
        <time>2026-01-30T08:01:28Z</time>
      </trkpt>
      <trkpt lat="48.64749" lon="1.94983">
        <ele>93</ele>
        <time>2026-01-30T08:01:29Z</time>
      </trkpt>
      <trkpt lat="48.64753" lon="1.9498">
        <ele>93</ele>
        <time>2026-01-30T08:01:30Z</time>
      </trkpt>
      <trkpt lat="48.64757" lon="1.94977">
        <ele>93.4</ele>
        <time>2026-01-30T08:01:31Z</time>
      </trkpt>
      <trkpt lat="48.6476" lon="1.94974">
        <ele>93.4</ele>
        <time>2026-01-30T08:01:32Z</time>
      </trkpt>
      <trkpt lat="48.64764" lon="1.94971">
        <ele>93.4</ele>
        <time>2026-01-30T08:01:33Z</time>
      </trkpt>
      <trkpt lat="48.64768" lon="1.94969">
        <ele>93.4</ele>
        <time>2026-01-30T08:01:34Z</time>
      </trkpt>
      <trkpt lat="48.64771" lon="1.94966">
        <ele>94</ele>
        <time>2026-01-30T08:01:35Z</time>
      </trkpt>
      <trkpt lat="48.64775" lon="1.94963">
        <ele>93.6</ele>
        <time>2026-01-30T08:01:36Z</time>
      </trkpt>
      <trkpt lat="48.64779" lon="1.94961">
        <ele>93.6</ele>
        <time>2026-01-30T08:01:37Z</time>
      </trkpt>
      <trkpt lat="48.64782" lon="1.94958">
        <ele>93.6</ele>
        <time>2026-01-30T08:01:38Z</time>
      </trkpt>
      <trkpt lat="48.64786" lon="1.94956">
        <ele>94.4</ele>
        <time>2026-01-30T08:01:39Z</time>
      </trkpt>
      <trkpt lat="48.64789" lon="1.94954">
        <ele>94.6</ele>
        <time>2026-01-30T08:01:40Z</time>
      </trkpt>
      <trkpt lat="48.64793" lon="1.94952">
        <ele>94.6</ele>
        <time>2026-01-30T08:01:41Z</time>
      </trkpt>
      <trkpt lat="48.64797" lon="1.94949">
        <ele>94.6</ele>
        <time>2026-01-30T08:01:42Z</time>
      </trkpt>
      <trkpt lat="48.64801" lon="1.94947">
        <ele>94.6</ele>
        <time>2026-01-30T08:01:43Z</time>
      </trkpt>
      <trkpt lat="48.64805" lon="1.94944">
        <ele>95</ele>
        <time>2026-01-30T08:01:44Z</time>
      </trkpt>
      <trkpt lat="48.64809" lon="1.94942">
        <ele>95</ele>
        <time>2026-01-30T08:01:45Z</time>
      </trkpt>
      <trkpt lat="48.64813" lon="1.94939">
        <ele>95</ele>
        <time>2026-01-30T08:01:46Z</time>
      </trkpt>
      <trkpt lat="48.64817" lon="1.94936">
        <ele>95</ele>
        <time>2026-01-30T08:01:47Z</time>
      </trkpt>
      <trkpt lat="48.64821" lon="1.94933">
        <ele>95.4</ele>
        <time>2026-01-30T08:01:48Z</time>
      </trkpt>
      <trkpt lat="48.64825" lon="1.94931">
        <ele>95.4</ele>
        <time>2026-01-30T08:01:49Z</time>
      </trkpt>
      <trkpt lat="48.64829" lon="1.94928">
        <ele>95.4</ele>
        <time>2026-01-30T08:01:50Z</time>
      </trkpt>
      <trkpt lat="48.64833" lon="1.94926">
        <ele>95.4</ele>
        <time>2026-01-30T08:01:51Z</time>
      </trkpt>
      <trkpt lat="48.64837" lon="1.94923">
        <ele>95.6</ele>
        <time>2026-01-30T08:01:52Z</time>
      </trkpt>
      <trkpt lat="48.64841" lon="1.94921">
        <ele>95.6</ele>
        <time>2026-01-30T08:01:53Z</time>
      </trkpt>
      <trkpt lat="48.64846" lon="1.94919">
        <ele>95.6</ele>
        <time>2026-01-30T08:01:54Z</time>
      </trkpt>
      <trkpt lat="48.6485" lon="1.94917">
        <ele>95.6</ele>
        <time>2026-01-30T08:01:55Z</time>
      </trkpt>
      <trkpt lat="48.64854" lon="1.94915">
        <ele>96</ele>
        <time>2026-01-30T08:01:56Z</time>
      </trkpt>
      <trkpt lat="48.64858" lon="1.94912">
        <ele>96</ele>
        <time>2026-01-30T08:01:57Z</time>
      </trkpt>
      <trkpt lat="48.64862" lon="1.9491">
        <ele>96</ele>
        <time>2026-01-30T08:01:58Z</time>
      </trkpt>
      <trkpt lat="48.64866" lon="1.94909">
        <ele>96.4</ele>
        <time>2026-01-30T08:01:59Z</time>
      </trkpt>
      <trkpt lat="48.6487" lon="1.94908">
        <ele>96.4</ele>
        <time>2026-01-30T08:02:00Z</time>
      </trkpt>
      <trkpt lat="48.64874" lon="1.94906">
        <ele>96.4</ele>
        <time>2026-01-30T08:02:01Z</time>
      </trkpt>
      <trkpt lat="48.64879" lon="1.94905">
        <ele>96.4</ele>
        <time>2026-01-30T08:02:02Z</time>
      </trkpt>
      <trkpt lat="48.64883" lon="1.94904">
        <ele>96.4</ele>
        <time>2026-01-30T08:02:03Z</time>
      </trkpt>
      <trkpt lat="48.64887" lon="1.94902">
        <ele>97</ele>
        <time>2026-01-30T08:02:04Z</time>
      </trkpt>
      <trkpt lat="48.64891" lon="1.949">
        <ele>97</ele>
        <time>2026-01-30T08:02:05Z</time>
      </trkpt>
      <trkpt lat="48.64896" lon="1.94899">
        <ele>97</ele>
        <time>2026-01-30T08:02:06Z</time>
      </trkpt>
      <trkpt lat="48.649" lon="1.94897">
        <ele>97</ele>
        <time>2026-01-30T08:02:07Z</time>
      </trkpt>
      <trkpt lat="48.64904" lon="1.94896">
        <ele>97.4</ele>
        <time>2026-01-30T08:02:08Z</time>
      </trkpt>
      <trkpt lat="48.64908" lon="1.94894">
        <ele>97.4</ele>
        <time>2026-01-30T08:02:09Z</time>
      </trkpt>
      <trkpt lat="48.64913" lon="1.94892">
        <ele>97.4</ele>
        <time>2026-01-30T08:02:10Z</time>
      </trkpt>
      <trkpt lat="48.64917" lon="1.9489">
        <ele>98</ele>
        <time>2026-01-30T08:02:11Z</time>
      </trkpt>
      <trkpt lat="48.64921" lon="1.94887">
        <ele>97.8</ele>
        <time>2026-01-30T08:02:12Z</time>
      </trkpt>
      <trkpt lat="48.64926" lon="1.94885">
        <ele>97.8</ele>
        <time>2026-01-30T08:02:13Z</time>
      </trkpt>
      <trkpt lat="48.6493" lon="1.94882">
        <ele>97.8</ele>
        <time>2026-01-30T08:02:14Z</time>
      </trkpt>
      <trkpt lat="48.64935" lon="1.94878">
        <ele>97.8</ele>
        <time>2026-01-30T08:02:15Z</time>
      </trkpt>
      <trkpt lat="48.64939" lon="1.94875">
        <ele>97.8</ele>
        <time>2026-01-30T08:02:16Z</time>
      </trkpt>
      <trkpt lat="48.64944" lon="1.94872">
        <ele>97.8</ele>
        <time>2026-01-30T08:02:17Z</time>
      </trkpt>
      <trkpt lat="48.64948" lon="1.94868">
        <ele>97.8</ele>
        <time>2026-01-30T08:02:18Z</time>
      </trkpt>
      <trkpt lat="48.64953" lon="1.94864">
        <ele>97.2</ele>
        <time>2026-01-30T08:02:19Z</time>
      </trkpt>
      <trkpt lat="48.64957" lon="1.9486">
        <ele>97.2</ele>
        <time>2026-01-30T08:02:20Z</time>
      </trkpt>
      <trkpt lat="48.64962" lon="1.94856">
        <ele>97.2</ele>
        <time>2026-01-30T08:02:21Z</time>
      </trkpt>
      <trkpt lat="48.64966" lon="1.94851">
        <ele>97.2</ele>
        <time>2026-01-30T08:02:22Z</time>
      </trkpt>
      <trkpt lat="48.64971" lon="1.94846">
        <ele>96.6</ele>
        <time>2026-01-30T08:02:23Z</time>
      </trkpt>
      <trkpt lat="48.64976" lon="1.9484">
        <ele>96</ele>
        <time>2026-01-30T08:02:24Z</time>
      </trkpt>
      <trkpt lat="48.6498" lon="1.94836">
        <ele>96</ele>
        <time>2026-01-30T08:02:25Z</time>
      </trkpt>
      <trkpt lat="48.64985" lon="1.94831">
        <ele>96</ele>
        <time>2026-01-30T08:02:26Z</time>
      </trkpt>
      <trkpt lat="48.6499" lon="1.94826">
        <ele>96</ele>
        <time>2026-01-30T08:02:27Z</time>
      </trkpt>
      <trkpt lat="48.64996" lon="1.94821">
        <ele>95.4</ele>
        <time>2026-01-30T08:02:28Z</time>
      </trkpt>
      <trkpt lat="48.65001" lon="1.94816">
        <ele>95.4</ele>
        <time>2026-01-30T08:02:29Z</time>
      </trkpt>
      <trkpt lat="48.65006" lon="1.9481">
        <ele>95.4</ele>
        <time>2026-01-30T08:02:30Z</time>
      </trkpt>
      <trkpt lat="48.65012" lon="1.94803">
        <ele>94.6</ele>
        <time>2026-01-30T08:02:31Z</time>
      </trkpt>
      <trkpt lat="48.65018" lon="1.94798">
        <ele>93.4</ele>
        <time>2026-01-30T08:02:32Z</time>
      </trkpt>
      <trkpt lat="48.65025" lon="1.94792">
        <ele>93.4</ele>
        <time>2026-01-30T08:02:33Z</time>
      </trkpt>
      <trkpt lat="48.65031" lon="1.94785">
        <ele>93.4</ele>
        <time>2026-01-30T08:02:34Z</time>
      </trkpt>
      <trkpt lat="48.65038" lon="1.94778">
        <ele>92.4</ele>
        <time>2026-01-30T08:02:35Z</time>
      </trkpt>
      <trkpt lat="48.65045" lon="1.94771">
        <ele>90.8</ele>
        <time>2026-01-30T08:02:36Z</time>
      </trkpt>
      <trkpt lat="48.65052" lon="1.94765">
        <ele>90.8</ele>
        <time>2026-01-30T08:02:37Z</time>
      </trkpt>
      <trkpt lat="48.65059" lon="1.94758">
        <ele>90.8</ele>
        <time>2026-01-30T08:02:38Z</time>
      </trkpt>
      <trkpt lat="48.65067" lon="1.94751">
        <ele>89.8</ele>
        <time>2026-01-30T08:02:39Z</time>
      </trkpt>
      <trkpt lat="48.65074" lon="1.94744">
        <ele>88.6</ele>
        <time>2026-01-30T08:02:40Z</time>
      </trkpt>
      <trkpt lat="48.65082" lon="1.94736">
        <ele>88.6</ele>
        <time>2026-01-30T08:02:41Z</time>
      </trkpt>
      <trkpt lat="48.6509" lon="1.94727">
        <ele>88.6</ele>
        <time>2026-01-30T08:02:42Z</time>
      </trkpt>
      <trkpt lat="48.65097" lon="1.94719">
        <ele>87.6</ele>
        <time>2026-01-30T08:02:43Z</time>
      </trkpt>
      <trkpt lat="48.65105" lon="1.9471">
        <ele>86</ele>
        <time>2026-01-30T08:02:44Z</time>
      </trkpt>
      <trkpt lat="48.65113" lon="1.94701">
        <ele>86</ele>
        <time>2026-01-30T08:02:45Z</time>
      </trkpt>
      <trkpt lat="48.65121" lon="1.94692">
        <ele>86</ele>
        <time>2026-01-30T08:02:46Z</time>
      </trkpt>
      <trkpt lat="48.65129" lon="1.94683">
        <ele>85</ele>
        <time>2026-01-30T08:02:47Z</time>
      </trkpt>
      <trkpt lat="48.65137" lon="1.94674">
        <ele>83.8</ele>
        <time>2026-01-30T08:02:48Z</time>
      </trkpt>
      <trkpt lat="48.65145" lon="1.94665">
        <ele>83.8</ele>
        <time>2026-01-30T08:02:49Z</time>
      </trkpt>
      <trkpt lat="48.65152" lon="1.94656">
        <ele>83.8</ele>
        <time>2026-01-30T08:02:50Z</time>
      </trkpt>
      <trkpt lat="48.65159" lon="1.94648">
        <ele>83.8</ele>
        <time>2026-01-30T08:02:51Z</time>
      </trkpt>
      <trkpt lat="48.65166" lon="1.9464">
        <ele>83.8</ele>
        <time>2026-01-30T08:02:52Z</time>
      </trkpt>
      <trkpt lat="48.65173" lon="1.94631">
        <ele>83.8</ele>
        <time>2026-01-30T08:02:53Z</time>
      </trkpt>
      <trkpt lat="48.6518" lon="1.94622">
        <ele>83.8</ele>
        <time>2026-01-30T08:02:54Z</time>
      </trkpt>
      <trkpt lat="48.65186" lon="1.94612">
        <ele>84.4</ele>
        <time>2026-01-30T08:02:55Z</time>
      </trkpt>
      <trkpt lat="48.65192" lon="1.94601">
        <ele>84.4</ele>
        <time>2026-01-30T08:02:56Z</time>
      </trkpt>
      <trkpt lat="48.65197" lon="1.9459">
        <ele>84.4</ele>
        <time>2026-01-30T08:02:57Z</time>
      </trkpt>
      <trkpt lat="48.65202" lon="1.9458">
        <ele>84.4</ele>
        <time>2026-01-30T08:02:58Z</time>
      </trkpt>
      <trkpt lat="48.65206" lon="1.94568">
        <ele>85.4</ele>
        <time>2026-01-30T08:02:59Z</time>
      </trkpt>
      <trkpt lat="48.6521" lon="1.94557">
        <ele>85.6</ele>
        <time>2026-01-30T08:03:00Z</time>
      </trkpt>
      <trkpt lat="48.65214" lon="1.94545">
        <ele>85.6</ele>
        <time>2026-01-30T08:03:01Z</time>
      </trkpt>
      <trkpt lat="48.65218" lon="1.94535">
        <ele>85.6</ele>
        <time>2026-01-30T08:03:02Z</time>
      </trkpt>
      <trkpt lat="48.65223" lon="1.94525">
        <ele>85.6</ele>
        <time>2026-01-30T08:03:03Z</time>
      </trkpt>
      <trkpt lat="48.65227" lon="1.94515">
        <ele>85.4</ele>
        <time>2026-01-30T08:03:04Z</time>
      </trkpt>
      <trkpt lat="48.65231" lon="1.94505">
        <ele>85.4</ele>
        <time>2026-01-30T08:03:05Z</time>
      </trkpt>
      <trkpt lat="48.65235" lon="1.94495">
        <ele>85.4</ele>
        <time>2026-01-30T08:03:06Z</time>
      </trkpt>
      <trkpt lat="48.65239" lon="1.94485">
        <ele>85.8</ele>
        <time>2026-01-30T08:03:07Z</time>
      </trkpt>
      <trkpt lat="48.65242" lon="1.94475">
        <ele>86</ele>
        <time>2026-01-30T08:03:08Z</time>
      </trkpt>
      <trkpt lat="48.65246" lon="1.94466">
        <ele>86</ele>
        <time>2026-01-30T08:03:09Z</time>
      </trkpt>
      <trkpt lat="48.65249" lon="1.94457">
        <ele>86</ele>
        <time>2026-01-30T08:03:10Z</time>
      </trkpt>
      <trkpt lat="48.65252" lon="1.94449">
        <ele>86.4</ele>
        <time>2026-01-30T08:03:11Z</time>
      </trkpt>
      <trkpt lat="48.65255" lon="1.9444">
        <ele>86</ele>
        <time>2026-01-30T08:03:12Z</time>
      </trkpt>
      <trkpt lat="48.65259" lon="1.94432">
        <ele>86</ele>
        <time>2026-01-30T08:03:13Z</time>
      </trkpt>
      <trkpt lat="48.65261" lon="1.94423">
        <ele>86</ele>
        <time>2026-01-30T08:03:14Z</time>
      </trkpt>
      <trkpt lat="48.65264" lon="1.94415">
        <ele>86.2</ele>
        <time>2026-01-30T08:03:15Z</time>
      </trkpt>
      <trkpt lat="48.65268" lon="1.94406">
        <ele>86.6</ele>
        <time>2026-01-30T08:03:16Z</time>
      </trkpt>
      <trkpt lat="48.65271" lon="1.94398">
        <ele>86.6</ele>
        <time>2026-01-30T08:03:17Z</time>
      </trkpt>
      <trkpt lat="48.65274" lon="1.9439">
        <ele>86.6</ele>
        <time>2026-01-30T08:03:18Z</time>
      </trkpt>
      <trkpt lat="48.65277" lon="1.94381">
        <ele>86.4</ele>
        <time>2026-01-30T08:03:19Z</time>
      </trkpt>
      <trkpt lat="48.6528" lon="1.94373">
        <ele>86.6</ele>
        <time>2026-01-30T08:03:20Z</time>
      </trkpt>
      <trkpt lat="48.65284" lon="1.94366">
        <ele>86.6</ele>
        <time>2026-01-30T08:03:21Z</time>
      </trkpt>
      <trkpt lat="48.65286" lon="1.9436">
        <ele>86.6</ele>
        <time>2026-01-30T08:03:22Z</time>
      </trkpt>
      <trkpt lat="48.6529" lon="1.94352">
        <ele>86.6</ele>
        <time>2026-01-30T08:03:23Z</time>
      </trkpt>
      <trkpt lat="48.65293" lon="1.94345">
        <ele>86.8</ele>
        <time>2026-01-30T08:03:24Z</time>
      </trkpt>
      <trkpt lat="48.65296" lon="1.94337">
        <ele>86.8</ele>
        <time>2026-01-30T08:03:25Z</time>
      </trkpt>
      <trkpt lat="48.65299" lon="1.94331">
        <ele>86.8</ele>
        <time>2026-01-30T08:03:26Z</time>
      </trkpt>
      <trkpt lat="48.65302" lon="1.94323">
        <ele>86.8</ele>
        <time>2026-01-30T08:03:27Z</time>
      </trkpt>
      <trkpt lat="48.65305" lon="1.94316">
        <ele>87.8</ele>
        <time>2026-01-30T08:03:28Z</time>
      </trkpt>
      <trkpt lat="48.65307" lon="1.94308">
        <ele>87.8</ele>
        <time>2026-01-30T08:03:29Z</time>
      </trkpt>
      <trkpt lat="48.6531" lon="1.94301">
        <ele>87.8</ele>
        <time>2026-01-30T08:03:30Z</time>
      </trkpt>
      <trkpt lat="48.65313" lon="1.94294">
        <ele>87.6</ele>
        <time>2026-01-30T08:03:31Z</time>
      </trkpt>
      <trkpt lat="48.65315" lon="1.94286">
        <ele>87.8</ele>
        <time>2026-01-30T08:03:32Z</time>
      </trkpt>
      <trkpt lat="48.65318" lon="1.94279">
        <ele>87.8</ele>
        <time>2026-01-30T08:03:33Z</time>
      </trkpt>
      <trkpt lat="48.65321" lon="1.94272">
        <ele>87.8</ele>
        <time>2026-01-30T08:03:34Z</time>
      </trkpt>
      <trkpt lat="48.65324" lon="1.94265">
        <ele>87.8</ele>
        <time>2026-01-30T08:03:35Z</time>
      </trkpt>
      <trkpt lat="48.65327" lon="1.94259">
        <ele>88</ele>
        <time>2026-01-30T08:03:36Z</time>
      </trkpt>
      <trkpt lat="48.65329" lon="1.94253">
        <ele>88</ele>
        <time>2026-01-30T08:03:37Z</time>
      </trkpt>
      <trkpt lat="48.65332" lon="1.94246">
        <ele>88</ele>
        <time>2026-01-30T08:03:38Z</time>
      </trkpt>
      <trkpt lat="48.65334" lon="1.94239">
        <ele>88</ele>
        <time>2026-01-30T08:03:39Z</time>
      </trkpt>
      <trkpt lat="48.65337" lon="1.94234">
        <ele>88.6</ele>
        <time>2026-01-30T08:03:40Z</time>
      </trkpt>
      <trkpt lat="48.6534" lon="1.94228">
        <ele>88.6</ele>
        <time>2026-01-30T08:03:41Z</time>
      </trkpt>
      <trkpt lat="48.65343" lon="1.94223">
        <ele>88.6</ele>
        <time>2026-01-30T08:03:42Z</time>
      </trkpt>
      <trkpt lat="48.65345" lon="1.94217">
        <ele>88.6</ele>
        <time>2026-01-30T08:03:43Z</time>
      </trkpt>
      <trkpt lat="48.65348" lon="1.94212">
        <ele>89.2</ele>
        <time>2026-01-30T08:03:44Z</time>
      </trkpt>
      <trkpt lat="48.65351" lon="1.94206">
        <ele>89.2</ele>
        <time>2026-01-30T08:03:45Z</time>
      </trkpt>
      <trkpt lat="48.65353" lon="1.942">
        <ele>89.2</ele>
        <time>2026-01-30T08:03:46Z</time>
      </trkpt>
      <trkpt lat="48.65356" lon="1.94195">
        <ele>89.2</ele>
        <time>2026-01-30T08:03:47Z</time>
      </trkpt>
      <trkpt lat="48.65358" lon="1.94189">
        <ele>89.8</ele>
        <time>2026-01-30T08:03:48Z</time>
      </trkpt>
      <trkpt lat="48.65361" lon="1.94183">
        <ele>89.8</ele>
        <time>2026-01-30T08:03:49Z</time>
      </trkpt>
      <trkpt lat="48.65363" lon="1.94177">
        <ele>89.8</ele>
        <time>2026-01-30T08:03:50Z</time>
      </trkpt>
      <trkpt lat="48.65365" lon="1.94171">
        <ele>89.8</ele>
        <time>2026-01-30T08:03:51Z</time>
      </trkpt>
      <trkpt lat="48.65368" lon="1.94164">
        <ele>90.4</ele>
        <time>2026-01-30T08:03:52Z</time>
      </trkpt>
      <trkpt lat="48.65371" lon="1.94158">
        <ele>90.4</ele>
        <time>2026-01-30T08:03:53Z</time>
      </trkpt>
      <trkpt lat="48.65374" lon="1.94151">
        <ele>90.4</ele>
        <time>2026-01-30T08:03:54Z</time>
      </trkpt>
      <trkpt lat="48.65377" lon="1.94145">
        <ele>90.4</ele>
        <time>2026-01-30T08:03:55Z</time>
      </trkpt>
      <trkpt lat="48.65381" lon="1.94138">
        <ele>90.4</ele>
        <time>2026-01-30T08:03:56Z</time>
      </trkpt>
      <trkpt lat="48.65385" lon="1.9413">
        <ele>90.4</ele>
        <time>2026-01-30T08:03:57Z</time>
      </trkpt>
      <trkpt lat="48.6539" lon="1.94122">
        <ele>90.4</ele>
        <time>2026-01-30T08:03:58Z</time>
      </trkpt>
      <trkpt lat="48.65394" lon="1.94115">
        <ele>91</ele>
        <time>2026-01-30T08:03:59Z</time>
      </trkpt>
      <trkpt lat="48.65398" lon="1.94108">
        <ele>91.6</ele>
        <time>2026-01-30T08:04:00Z</time>
      </trkpt>
      <trkpt lat="48.65403" lon="1.94101">
        <ele>91.6</ele>
        <time>2026-01-30T08:04:01Z</time>
      </trkpt>
      <trkpt lat="48.65408" lon="1.94095">
        <ele>91.6</ele>
        <time>2026-01-30T08:04:02Z</time>
      </trkpt>
      <trkpt lat="48.65412" lon="1.9409">
        <ele>92</ele>
        <time>2026-01-30T08:04:03Z</time>
      </trkpt>
      <trkpt lat="48.65417" lon="1.94085">
        <ele>92.2</ele>
        <time>2026-01-30T08:04:04Z</time>
      </trkpt>
      <trkpt lat="48.65422" lon="1.9408">
        <ele>92.2</ele>
        <time>2026-01-30T08:04:05Z</time>
      </trkpt>
      <trkpt lat="48.65426" lon="1.94075">
        <ele>92.2</ele>
        <time>2026-01-30T08:04:06Z</time>
      </trkpt>
      <trkpt lat="48.65431" lon="1.9407">
        <ele>92.2</ele>
        <time>2026-01-30T08:04:07Z</time>
      </trkpt>
      <trkpt lat="48.65435" lon="1.94066">
        <ele>92.4</ele>
        <time>2026-01-30T08:04:08Z</time>
      </trkpt>
      <trkpt lat="48.65439" lon="1.94061">
        <ele>92.4</ele>
        <time>2026-01-30T08:04:09Z</time>
      </trkpt>
      <trkpt lat="48.65444" lon="1.94055">
        <ele>92.4</ele>
        <time>2026-01-30T08:04:10Z</time>
      </trkpt>
      <trkpt lat="48.65448" lon="1.94051">
        <ele>92.2</ele>
        <time>2026-01-30T08:04:11Z</time>
      </trkpt>
      <trkpt lat="48.65452" lon="1.94046">
        <ele>92.8</ele>
        <time>2026-01-30T08:04:12Z</time>
      </trkpt>
      <trkpt lat="48.65456" lon="1.94042">
        <ele>92.8</ele>
        <time>2026-01-30T08:04:13Z</time>
      </trkpt>
      <trkpt lat="48.6546" lon="1.94037">
        <ele>92.8</ele>
        <time>2026-01-30T08:04:14Z</time>
      </trkpt>
      <trkpt lat="48.65464" lon="1.94033">
        <ele>92.4</ele>
        <time>2026-01-30T08:04:15Z</time>
      </trkpt>
      <trkpt lat="48.65468" lon="1.94029">
        <ele>92</ele>
        <time>2026-01-30T08:04:16Z</time>
      </trkpt>
      <trkpt lat="48.65473" lon="1.94024">
        <ele>92</ele>
        <time>2026-01-30T08:04:17Z</time>
      </trkpt>
      <trkpt lat="48.65477" lon="1.9402">
        <ele>92</ele>
        <time>2026-01-30T08:04:18Z</time>
      </trkpt>
      <trkpt lat="48.65482" lon="1.94015">
        <ele>91</ele>
        <time>2026-01-30T08:04:19Z</time>
      </trkpt>
      <trkpt lat="48.65488" lon="1.9401">
        <ele>91.2</ele>
        <time>2026-01-30T08:04:20Z</time>
      </trkpt>
      <trkpt lat="48.65494" lon="1.94006">
        <ele>91.2</ele>
        <time>2026-01-30T08:04:21Z</time>
      </trkpt>
      <trkpt lat="48.655" lon="1.94002">
        <ele>91.2</ele>
        <time>2026-01-30T08:04:22Z</time>
      </trkpt>
      <trkpt lat="48.65506" lon="1.93999">
        <ele>91</ele>
        <time>2026-01-30T08:04:23Z</time>
      </trkpt>
      <trkpt lat="48.65513" lon="1.93996">
        <ele>90.4</ele>
        <time>2026-01-30T08:04:24Z</time>
      </trkpt>
      <trkpt lat="48.65519" lon="1.93994">
        <ele>90.4</ele>
        <time>2026-01-30T08:04:25Z</time>
      </trkpt>
      <trkpt lat="48.65525" lon="1.93993">
        <ele>90.4</ele>
        <time>2026-01-30T08:04:26Z</time>
      </trkpt>
      <trkpt lat="48.65531" lon="1.93991">
        <ele>90.4</ele>
        <time>2026-01-30T08:04:27Z</time>
      </trkpt>
      <trkpt lat="48.65537" lon="1.93989">
        <ele>90.2</ele>
        <time>2026-01-30T08:04:28Z</time>
      </trkpt>
      <trkpt lat="48.65545" lon="1.93985">
        <ele>90.2</ele>
        <time>2026-01-30T08:04:29Z</time>
      </trkpt>
      <trkpt lat="48.65551" lon="1.93982">
        <ele>90.2</ele>
        <time>2026-01-30T08:04:30Z</time>
      </trkpt>
      <trkpt lat="48.65558" lon="1.9398">
        <ele>90.2</ele>
        <time>2026-01-30T08:04:31Z</time>
      </trkpt>
      <trkpt lat="48.65563" lon="1.93978">
        <ele>90.4</ele>
        <time>2026-01-30T08:04:32Z</time>
      </trkpt>
      <trkpt lat="48.65569" lon="1.93974">
        <ele>90.4</ele>
        <time>2026-01-30T08:04:33Z</time>
      </trkpt>
      <trkpt lat="48.65574" lon="1.9397">
        <ele>90.4</ele>
        <time>2026-01-30T08:04:34Z</time>
      </trkpt>
      <trkpt lat="48.65579" lon="1.93965">
        <ele>91.4</ele>
        <time>2026-01-30T08:04:35Z</time>
      </trkpt>
      <trkpt lat="48.65583" lon="1.9396">
        <ele>92.6</ele>
        <time>2026-01-30T08:04:36Z</time>
      </trkpt>
      <trkpt lat="48.65587" lon="1.93955">
        <ele>92.6</ele>
        <time>2026-01-30T08:04:37Z</time>
      </trkpt>
      <trkpt lat="48.65592" lon="1.9395">
        <ele>92.6</ele>
        <time>2026-01-30T08:04:38Z</time>
      </trkpt>
      <trkpt lat="48.65596" lon="1.93944">
        <ele>93.4</ele>
        <time>2026-01-30T08:04:39Z</time>
      </trkpt>
      <trkpt lat="48.65599" lon="1.93939">
        <ele>94.2</ele>
        <time>2026-01-30T08:04:40Z</time>
      </trkpt>
      <trkpt lat="48.65602" lon="1.93934">
        <ele>94.2</ele>
        <time>2026-01-30T08:04:41Z</time>
      </trkpt>
      <trkpt lat="48.65605" lon="1.93929">
        <ele>94.2</ele>
        <time>2026-01-30T08:04:42Z</time>
      </trkpt>
      <trkpt lat="48.65608" lon="1.93925">
        <ele>94.2</ele>
        <time>2026-01-30T08:04:43Z</time>
      </trkpt>
      <trkpt lat="48.6561" lon="1.93921">
        <ele>94.8</ele>
        <time>2026-01-30T08:04:44Z</time>
      </trkpt>
      <trkpt lat="48.65613" lon="1.93916">
        <ele>94.8</ele>
        <time>2026-01-30T08:04:45Z</time>
      </trkpt>
      <trkpt lat="48.65615" lon="1.93912">
        <ele>94.8</ele>
        <time>2026-01-30T08:04:46Z</time>
      </trkpt>
      <trkpt lat="48.65617" lon="1.93907">
        <ele>95.6</ele>
        <time>2026-01-30T08:04:47Z</time>
      </trkpt>
      <trkpt lat="48.6562" lon="1.93902">
        <ele>95.8</ele>
        <time>2026-01-30T08:04:48Z</time>
      </trkpt>
      <trkpt lat="48.65622" lon="1.93897">
        <ele>95.8</ele>
        <time>2026-01-30T08:04:49Z</time>
      </trkpt>
      <trkpt lat="48.65624" lon="1.93893">
        <ele>95.8</ele>
        <time>2026-01-30T08:04:50Z</time>
      </trkpt>
      <trkpt lat="48.65627" lon="1.93888">
        <ele>95.8</ele>
        <time>2026-01-30T08:04:51Z</time>
      </trkpt>
      <trkpt lat="48.65629" lon="1.93883">
        <ele>96.4</ele>
        <time>2026-01-30T08:04:52Z</time>
      </trkpt>
      <trkpt lat="48.65631" lon="1.93878">
        <ele>96.4</ele>
        <time>2026-01-30T08:04:53Z</time>
      </trkpt>
      <trkpt lat="48.65633" lon="1.93874">
        <ele>96.4</ele>
        <time>2026-01-30T08:04:54Z</time>
      </trkpt>
      <trkpt lat="48.65635" lon="1.93869">
        <ele>97</ele>
        <time>2026-01-30T08:04:55Z</time>
      </trkpt>
      <trkpt lat="48.65637" lon="1.93864">
        <ele>97.4</ele>
        <time>2026-01-30T08:04:56Z</time>
      </trkpt>
      <trkpt lat="48.65639" lon="1.93858">
        <ele>97.4</ele>
        <time>2026-01-30T08:04:57Z</time>
      </trkpt>
      <trkpt lat="48.65642" lon="1.93853">
        <ele>97.4</ele>
        <time>2026-01-30T08:04:58Z</time>
      </trkpt>
      <trkpt lat="48.65644" lon="1.93849">
        <ele>97.8</ele>
        <time>2026-01-30T08:04:59Z</time>
      </trkpt>
      <trkpt lat="48.65645" lon="1.93844">
        <ele>98.2</ele>
        <time>2026-01-30T08:05:00Z</time>
      </trkpt>
      <trkpt lat="48.65647" lon="1.93838">
        <ele>98.2</ele>
        <time>2026-01-30T08:05:01Z</time>
      </trkpt>
      <trkpt lat="48.65649" lon="1.93834">
        <ele>98.2</ele>
        <time>2026-01-30T08:05:02Z</time>
      </trkpt>
      <trkpt lat="48.6565" lon="1.93829">
        <ele>98.2</ele>
        <time>2026-01-30T08:05:03Z</time>
      </trkpt>
      <trkpt lat="48.65652" lon="1.93824">
        <ele>98.8</ele>
        <time>2026-01-30T08:05:04Z</time>
      </trkpt>
      <trkpt lat="48.65654" lon="1.93819">
        <ele>98.8</ele>
        <time>2026-01-30T08:05:05Z</time>
      </trkpt>
      <trkpt lat="48.65656" lon="1.93815">
        <ele>98.8</ele>
        <time>2026-01-30T08:05:06Z</time>
      </trkpt>
      <trkpt lat="48.65658" lon="1.9381">
        <ele>98.8</ele>
        <time>2026-01-30T08:05:07Z</time>
      </trkpt>
      <trkpt lat="48.6566" lon="1.93805">
        <ele>99.4</ele>
        <time>2026-01-30T08:05:08Z</time>
      </trkpt>
      <trkpt lat="48.65662" lon="1.938">
        <ele>99.4</ele>
        <time>2026-01-30T08:05:09Z</time>
      </trkpt>
      <trkpt lat="48.65664" lon="1.93795">
        <ele>99.4</ele>
        <time>2026-01-30T08:05:10Z</time>
      </trkpt>
      <trkpt lat="48.65666" lon="1.9379">
        <ele>100.4</ele>
        <time>2026-01-30T08:05:11Z</time>
      </trkpt>
      <trkpt lat="48.65668" lon="1.93784">
        <ele>100.2</ele>
        <time>2026-01-30T08:05:12Z</time>
      </trkpt>
      <trkpt lat="48.65669" lon="1.9378">
        <ele>100.2</ele>
        <time>2026-01-30T08:05:13Z</time>
      </trkpt>
      <trkpt lat="48.65672" lon="1.93776">
        <ele>100.2</ele>
        <time>2026-01-30T08:05:14Z</time>
      </trkpt>
      <trkpt lat="48.65674" lon="1.93772">
        <ele>100.2</ele>
        <time>2026-01-30T08:05:15Z</time>
      </trkpt>
      <trkpt lat="48.65676" lon="1.93768">
        <ele>101.6</ele>
        <time>2026-01-30T08:05:16Z</time>
      </trkpt>
      <trkpt lat="48.65678" lon="1.93763">
        <ele>101.6</ele>
        <time>2026-01-30T08:05:17Z</time>
      </trkpt>
      <trkpt lat="48.6568" lon="1.93759">
        <ele>101.6</ele>
        <time>2026-01-30T08:05:18Z</time>
      </trkpt>
      <trkpt lat="48.65682" lon="1.93754">
        <ele>101.6</ele>
        <time>2026-01-30T08:05:19Z</time>
      </trkpt>
      <trkpt lat="48.65685" lon="1.93749">
        <ele>102.2</ele>
        <time>2026-01-30T08:05:20Z</time>
      </trkpt>
      <trkpt lat="48.65687" lon="1.93745">
        <ele>102.2</ele>
        <time>2026-01-30T08:05:21Z</time>
      </trkpt>
      <trkpt lat="48.65689" lon="1.93741">
        <ele>102.2</ele>
        <time>2026-01-30T08:05:22Z</time>
      </trkpt>
      <trkpt lat="48.65691" lon="1.93737">
        <ele>102.2</ele>
        <time>2026-01-30T08:05:23Z</time>
      </trkpt>
      <trkpt lat="48.65693" lon="1.93732">
        <ele>102.6</ele>
        <time>2026-01-30T08:05:24Z</time>
      </trkpt>
      <trkpt lat="48.65695" lon="1.93728">
        <ele>102.6</ele>
        <time>2026-01-30T08:05:25Z</time>
      </trkpt>
      <trkpt lat="48.65697" lon="1.93724">
        <ele>102.6</ele>
        <time>2026-01-30T08:05:26Z</time>
      </trkpt>
      <trkpt lat="48.65699" lon="1.93719">
        <ele>103.2</ele>
        <time>2026-01-30T08:05:27Z</time>
      </trkpt>
      <trkpt lat="48.65701" lon="1.93715">
        <ele>103.4</ele>
        <time>2026-01-30T08:05:28Z</time>
      </trkpt>
      <trkpt lat="48.65703" lon="1.93711">
        <ele>103.4</ele>
        <time>2026-01-30T08:05:29Z</time>
      </trkpt>
      <trkpt lat="48.65705" lon="1.93706">
        <ele>103.4</ele>
        <time>2026-01-30T08:05:30Z</time>
      </trkpt>
      <trkpt lat="48.65707" lon="1.93702">
        <ele>104.4</ele>
        <time>2026-01-30T08:05:31Z</time>
      </trkpt>
      <trkpt lat="48.65708" lon="1.93696">
        <ele>104.4</ele>
        <time>2026-01-30T08:05:32Z</time>
      </trkpt>
      <trkpt lat="48.6571" lon="1.93692">
        <ele>104.4</ele>
        <time>2026-01-30T08:05:33Z</time>
      </trkpt>
      <trkpt lat="48.65712" lon="1.93687">
        <ele>104.4</ele>
        <time>2026-01-30T08:05:34Z</time>
      </trkpt>
      <trkpt lat="48.65714" lon="1.93683">
        <ele>104.6</ele>
        <time>2026-01-30T08:05:35Z</time>
      </trkpt>
      <trkpt lat="48.65716" lon="1.93679">
        <ele>105</ele>
        <time>2026-01-30T08:05:36Z</time>
      </trkpt>
      <trkpt lat="48.65718" lon="1.93676">
        <ele>105</ele>
        <time>2026-01-30T08:05:37Z</time>
      </trkpt>
      <trkpt lat="48.6572" lon="1.93671">
        <ele>105</ele>
        <time>2026-01-30T08:05:38Z</time>
      </trkpt>
      <trkpt lat="48.65722" lon="1.93666">
        <ele>105.8</ele>
        <time>2026-01-30T08:05:39Z</time>
      </trkpt>
      <trkpt lat="48.65724" lon="1.93662">
        <ele>106</ele>
        <time>2026-01-30T08:05:40Z</time>
      </trkpt>
      <trkpt lat="48.65726" lon="1.93658">
        <ele>106</ele>
        <time>2026-01-30T08:05:41Z</time>
      </trkpt>
      <trkpt lat="48.65728" lon="1.93654">
        <ele>106</ele>
        <time>2026-01-30T08:05:42Z</time>
      </trkpt>
      <trkpt lat="48.6573" lon="1.93648">
        <ele>106.4</ele>
        <time>2026-01-30T08:05:43Z</time>
      </trkpt>
      <trkpt lat="48.65733" lon="1.93644">
        <ele>106.8</ele>
        <time>2026-01-30T08:05:44Z</time>
      </trkpt>
      <trkpt lat="48.65735" lon="1.9364">
        <ele>106.8</ele>
        <time>2026-01-30T08:05:45Z</time>
      </trkpt>
      <trkpt lat="48.65737" lon="1.93636">
        <ele>106.8</ele>
        <time>2026-01-30T08:05:46Z</time>
      </trkpt>
      <trkpt lat="48.65739" lon="1.93629">
        <ele>106.8</ele>
        <time>2026-01-30T08:05:47Z</time>
      </trkpt>
      <trkpt lat="48.65741" lon="1.93625">
        <ele>107.6</ele>
        <time>2026-01-30T08:05:48Z</time>
      </trkpt>
      <trkpt lat="48.65743" lon="1.93622">
        <ele>107.6</ele>
        <time>2026-01-30T08:05:49Z</time>
      </trkpt>
      <trkpt lat="48.65746" lon="1.93618">
        <ele>107.6</ele>
        <time>2026-01-30T08:05:50Z</time>
      </trkpt>
      <trkpt lat="48.65748" lon="1.93615">
        <ele>108.2</ele>
        <time>2026-01-30T08:05:51Z</time>
      </trkpt>
      <trkpt lat="48.6575" lon="1.93611">
        <ele>108.6</ele>
        <time>2026-01-30T08:05:52Z</time>
      </trkpt>
      <trkpt lat="48.65753" lon="1.93608">
        <ele>108.6</ele>
        <time>2026-01-30T08:05:53Z</time>
      </trkpt>
      <trkpt lat="48.65756" lon="1.93606">
        <ele>108.6</ele>
        <time>2026-01-30T08:05:54Z</time>
      </trkpt>
      <trkpt lat="48.65759" lon="1.93602">
        <ele>109</ele>
        <time>2026-01-30T08:05:55Z</time>
      </trkpt>
      <trkpt lat="48.65762" lon="1.93599">
        <ele>109.4</ele>
        <time>2026-01-30T08:05:56Z</time>
      </trkpt>
      <trkpt lat="48.65765" lon="1.93596">
        <ele>109.4</ele>
        <time>2026-01-30T08:05:57Z</time>
      </trkpt>
      <trkpt lat="48.65768" lon="1.93594">
        <ele>109.4</ele>
        <time>2026-01-30T08:05:58Z</time>
      </trkpt>
      <trkpt lat="48.65771" lon="1.93591">
        <ele>110</ele>
        <time>2026-01-30T08:05:59Z</time>
      </trkpt>
      <trkpt lat="48.65775" lon="1.93588">
        <ele>110</ele>
        <time>2026-01-30T08:06:00Z</time>
      </trkpt>
      <trkpt lat="48.65778" lon="1.93586">
        <ele>110</ele>
        <time>2026-01-30T08:06:01Z</time>
      </trkpt>
      <trkpt lat="48.65781" lon="1.93582">
        <ele>110</ele>
        <time>2026-01-30T08:06:02Z</time>
      </trkpt>
      <trkpt lat="48.65784" lon="1.93579">
        <ele>110.6</ele>
        <time>2026-01-30T08:06:03Z</time>
      </trkpt>
      <trkpt lat="48.65787" lon="1.93576">
        <ele>110.8</ele>
        <time>2026-01-30T08:06:04Z</time>
      </trkpt>
      <trkpt lat="48.6579" lon="1.93574">
        <ele>110.8</ele>
        <time>2026-01-30T08:06:05Z</time>
      </trkpt>
      <trkpt lat="48.65794" lon="1.93571">
        <ele>110.8</ele>
        <time>2026-01-30T08:06:06Z</time>
      </trkpt>
      <trkpt lat="48.65797" lon="1.93568">
        <ele>111.6</ele>
        <time>2026-01-30T08:06:07Z</time>
      </trkpt>
      <trkpt lat="48.65801" lon="1.93566">
        <ele>111.8</ele>
        <time>2026-01-30T08:06:08Z</time>
      </trkpt>
      <trkpt lat="48.65804" lon="1.93564">
        <ele>111.8</ele>
        <time>2026-01-30T08:06:09Z</time>
      </trkpt>
      <trkpt lat="48.65808" lon="1.93561">
        <ele>111.8</ele>
        <time>2026-01-30T08:06:10Z</time>
      </trkpt>
      <trkpt lat="48.65811" lon="1.93559">
        <ele>112.4</ele>
        <time>2026-01-30T08:06:11Z</time>
      </trkpt>
      <trkpt lat="48.65815" lon="1.93557">
        <ele>112.6</ele>
        <time>2026-01-30T08:06:12Z</time>
      </trkpt>
      <trkpt lat="48.65818" lon="1.93554">
        <ele>112.6</ele>
        <time>2026-01-30T08:06:13Z</time>
      </trkpt>
      <trkpt lat="48.65822" lon="1.93552">
        <ele>112.6</ele>
        <time>2026-01-30T08:06:14Z</time>
      </trkpt>
      <trkpt lat="48.65825" lon="1.93549">
        <ele>113.6</ele>
        <time>2026-01-30T08:06:15Z</time>
      </trkpt>
      <trkpt lat="48.65829" lon="1.93547">
        <ele>113.6</ele>
        <time>2026-01-30T08:06:16Z</time>
      </trkpt>
      <trkpt lat="48.65832" lon="1.93545">
        <ele>113.6</ele>
        <time>2026-01-30T08:06:17Z</time>
      </trkpt>
      <trkpt lat="48.65835" lon="1.93542">
        <ele>113.6</ele>
        <time>2026-01-30T08:06:18Z</time>
      </trkpt>
      <trkpt lat="48.65838" lon="1.93539">
        <ele>114.6</ele>
        <time>2026-01-30T08:06:19Z</time>
      </trkpt>
      <trkpt lat="48.65842" lon="1.93536">
        <ele>114.4</ele>
        <time>2026-01-30T08:06:20Z</time>
      </trkpt>
      <trkpt lat="48.65845" lon="1.93534">
        <ele>114.4</ele>
        <time>2026-01-30T08:06:21Z</time>
      </trkpt>
      <trkpt lat="48.65849" lon="1.93532">
        <ele>114.4</ele>
        <time>2026-01-30T08:06:22Z</time>
      </trkpt>
      <trkpt lat="48.65852" lon="1.93529">
        <ele>114.8</ele>
        <time>2026-01-30T08:06:23Z</time>
      </trkpt>
      <trkpt lat="48.65856" lon="1.93526">
        <ele>114.8</ele>
        <time>2026-01-30T08:06:24Z</time>
      </trkpt>
      <trkpt lat="48.65859" lon="1.93523">
        <ele>114.8</ele>
        <time>2026-01-30T08:06:25Z</time>
      </trkpt>
      <trkpt lat="48.65863" lon="1.93521">
        <ele>114.8</ele>
        <time>2026-01-30T08:06:26Z</time>
      </trkpt>
      <trkpt lat="48.65866" lon="1.93518">
        <ele>115.4</ele>
        <time>2026-01-30T08:06:27Z</time>
      </trkpt>
      <trkpt lat="48.6587" lon="1.93516">
        <ele>115.2</ele>
        <time>2026-01-30T08:06:28Z</time>
      </trkpt>
      <trkpt lat="48.65873" lon="1.93513">
        <ele>115.2</ele>
        <time>2026-01-30T08:06:29Z</time>
      </trkpt>
      <trkpt lat="48.65876" lon="1.9351">
        <ele>115.2</ele>
        <time>2026-01-30T08:06:30Z</time>
      </trkpt>
      <trkpt lat="48.65879" lon="1.93507">
        <ele>115.4</ele>
        <time>2026-01-30T08:06:31Z</time>
      </trkpt>
      <trkpt lat="48.65883" lon="1.93504">
        <ele>115.4</ele>
        <time>2026-01-30T08:06:32Z</time>
      </trkpt>
      <trkpt lat="48.65887" lon="1.935">
        <ele>115.4</ele>
        <time>2026-01-30T08:06:33Z</time>
      </trkpt>
      <trkpt lat="48.6589" lon="1.93496">
        <ele>115.4</ele>
        <time>2026-01-30T08:06:34Z</time>
      </trkpt>
      <trkpt lat="48.65893" lon="1.93492">
        <ele>115.4</ele>
        <time>2026-01-30T08:06:35Z</time>
      </trkpt>
      <trkpt lat="48.65897" lon="1.93489">
        <ele>115.4</ele>
        <time>2026-01-30T08:06:36Z</time>
      </trkpt>
      <trkpt lat="48.65901" lon="1.93485">
        <ele>115.4</ele>
        <time>2026-01-30T08:06:37Z</time>
      </trkpt>
      <trkpt lat="48.65904" lon="1.9348">
        <ele>115.4</ele>
        <time>2026-01-30T08:06:38Z</time>
      </trkpt>
      <trkpt lat="48.65907" lon="1.93477">
        <ele>115.4</ele>
        <time>2026-01-30T08:06:39Z</time>
      </trkpt>
      <trkpt lat="48.65911" lon="1.93472">
        <ele>115.8</ele>
        <time>2026-01-30T08:06:40Z</time>
      </trkpt>
      <trkpt lat="48.65914" lon="1.93467">
        <ele>115.8</ele>
        <time>2026-01-30T08:06:41Z</time>
      </trkpt>
      <trkpt lat="48.65917" lon="1.93463">
        <ele>115.8</ele>
        <time>2026-01-30T08:06:42Z</time>
      </trkpt>
      <trkpt lat="48.65921" lon="1.93458">
        <ele>115.4</ele>
        <time>2026-01-30T08:06:43Z</time>
      </trkpt>
      <trkpt lat="48.65925" lon="1.93454">
        <ele>115.6</ele>
        <time>2026-01-30T08:06:44Z</time>
      </trkpt>
      <trkpt lat="48.65929" lon="1.93448">
        <ele>115.6</ele>
        <time>2026-01-30T08:06:45Z</time>
      </trkpt>
      <trkpt lat="48.65933" lon="1.93443">
        <ele>115.6</ele>
        <time>2026-01-30T08:06:46Z</time>
      </trkpt>
      <trkpt lat="48.65936" lon="1.93439">
        <ele>116</ele>
        <time>2026-01-30T08:06:47Z</time>
      </trkpt>
      <trkpt lat="48.65939" lon="1.93435">
        <ele>116</ele>
        <time>2026-01-30T08:06:48Z</time>
      </trkpt>
      <trkpt lat="48.65941" lon="1.93431">
        <ele>116</ele>
        <time>2026-01-30T08:06:49Z</time>
      </trkpt>
      <trkpt lat="48.65945" lon="1.93426">
        <ele>116</ele>
        <time>2026-01-30T08:06:50Z</time>
      </trkpt>
      <trkpt lat="48.65949" lon="1.93421">
        <ele>115.8</ele>
        <time>2026-01-30T08:06:51Z</time>
      </trkpt>
      <trkpt lat="48.65954" lon="1.93416">
        <ele>116</ele>
        <time>2026-01-30T08:06:52Z</time>
      </trkpt>
      <trkpt lat="48.65958" lon="1.93411">
        <ele>116</ele>
        <time>2026-01-30T08:06:53Z</time>
      </trkpt>
      <trkpt lat="48.65962" lon="1.93407">
        <ele>116</ele>
        <time>2026-01-30T08:06:54Z</time>
      </trkpt>
      <trkpt lat="48.65967" lon="1.93402">
        <ele>115.8</ele>
        <time>2026-01-30T08:06:55Z</time>
      </trkpt>
      <trkpt lat="48.65971" lon="1.93398">
        <ele>116</ele>
        <time>2026-01-30T08:06:56Z</time>
      </trkpt>
      <trkpt lat="48.65976" lon="1.93394">
        <ele>116</ele>
        <time>2026-01-30T08:06:57Z</time>
      </trkpt>
      <trkpt lat="48.65982" lon="1.93389">
        <ele>116</ele>
        <time>2026-01-30T08:06:58Z</time>
      </trkpt>
      <trkpt lat="48.65987" lon="1.93386">
        <ele>115.6</ele>
        <time>2026-01-30T08:06:59Z</time>
      </trkpt>
      <trkpt lat="48.65992" lon="1.93382">
        <ele>116</ele>
        <time>2026-01-30T08:07:00Z</time>
      </trkpt>
      <trkpt lat="48.65997" lon="1.9338">
        <ele>116</ele>
        <time>2026-01-30T08:07:01Z</time>
      </trkpt>
      <trkpt lat="48.66002" lon="1.93377">
        <ele>116</ele>
        <time>2026-01-30T08:07:02Z</time>
      </trkpt>
      <trkpt lat="48.66007" lon="1.93374">
        <ele>115.4</ele>
        <time>2026-01-30T08:07:03Z</time>
      </trkpt>
      <trkpt lat="48.66012" lon="1.9337">
        <ele>115.2</ele>
        <time>2026-01-30T08:07:04Z</time>
      </trkpt>
      <trkpt lat="48.66017" lon="1.93367">
        <ele>115.2</ele>
        <time>2026-01-30T08:07:05Z</time>
      </trkpt>
      <trkpt lat="48.66022" lon="1.93364">
        <ele>115.2</ele>
        <time>2026-01-30T08:07:06Z</time>
      </trkpt>
      <trkpt lat="48.66028" lon="1.93361">
        <ele>115.2</ele>
        <time>2026-01-30T08:07:07Z</time>
      </trkpt>
      <trkpt lat="48.66033" lon="1.93359">
        <ele>116</ele>
        <time>2026-01-30T08:07:08Z</time>
      </trkpt>
      <trkpt lat="48.66039" lon="1.93356">
        <ele>116</ele>
        <time>2026-01-30T08:07:09Z</time>
      </trkpt>
      <trkpt lat="48.66044" lon="1.93354">
        <ele>116</ele>
        <time>2026-01-30T08:07:10Z</time>
      </trkpt>
      <trkpt lat="48.6605" lon="1.93352">
        <ele>116</ele>
        <time>2026-01-30T08:07:11Z</time>
      </trkpt>
      <trkpt lat="48.66056" lon="1.93349">
        <ele>116</ele>
        <time>2026-01-30T08:07:12Z</time>
      </trkpt>
      <trkpt lat="48.66061" lon="1.93347">
        <ele>116</ele>
        <time>2026-01-30T08:07:13Z</time>
      </trkpt>
      <trkpt lat="48.66067" lon="1.93345">
        <ele>116</ele>
        <time>2026-01-30T08:07:14Z</time>
      </trkpt>
      <trkpt lat="48.66072" lon="1.93342">
        <ele>115.6</ele>
        <time>2026-01-30T08:07:15Z</time>
      </trkpt>
      <trkpt lat="48.66078" lon="1.9334">
        <ele>116.2</ele>
        <time>2026-01-30T08:07:16Z</time>
      </trkpt>
      <trkpt lat="48.66084" lon="1.93337">
        <ele>116.2</ele>
        <time>2026-01-30T08:07:17Z</time>
      </trkpt>
      <trkpt lat="48.66089" lon="1.93335">
        <ele>116.2</ele>
        <time>2026-01-30T08:07:18Z</time>
      </trkpt>
      <trkpt lat="48.66095" lon="1.93332">
        <ele>115.6</ele>
        <time>2026-01-30T08:07:19Z</time>
      </trkpt>
      <trkpt lat="48.661" lon="1.93329">
        <ele>115.8</ele>
        <time>2026-01-30T08:07:20Z</time>
      </trkpt>
      <trkpt lat="48.66105" lon="1.93325">
        <ele>115.8</ele>
        <time>2026-01-30T08:07:21Z</time>
      </trkpt>
      <trkpt lat="48.6611" lon="1.93322">
        <ele>115.8</ele>
        <time>2026-01-30T08:07:22Z</time>
      </trkpt>
      <trkpt lat="48.66115" lon="1.93317">
        <ele>115.8</ele>
        <time>2026-01-30T08:07:23Z</time>
      </trkpt>
      <trkpt lat="48.66121" lon="1.93313">
        <ele>115.4</ele>
        <time>2026-01-30T08:07:24Z</time>
      </trkpt>
      <trkpt lat="48.66126" lon="1.93307">
        <ele>115.4</ele>
        <time>2026-01-30T08:07:25Z</time>
      </trkpt>
      <trkpt lat="48.66132" lon="1.93301">
        <ele>115.4</ele>
        <time>2026-01-30T08:07:26Z</time>
      </trkpt>
      <trkpt lat="48.66137" lon="1.93295">
        <ele>115.2</ele>
        <time>2026-01-30T08:07:27Z</time>
      </trkpt>
      <trkpt lat="48.66142" lon="1.93289">
        <ele>115.4</ele>
        <time>2026-01-30T08:07:28Z</time>
      </trkpt>
      <trkpt lat="48.66147" lon="1.93283">
        <ele>115.4</ele>
        <time>2026-01-30T08:07:29Z</time>
      </trkpt>
      <trkpt lat="48.66151" lon="1.93277">
        <ele>115.4</ele>
        <time>2026-01-30T08:07:30Z</time>
      </trkpt>
      <trkpt lat="48.66157" lon="1.93271">
        <ele>115.2</ele>
        <time>2026-01-30T08:07:31Z</time>
      </trkpt>
      <trkpt lat="48.66162" lon="1.93265">
        <ele>115.6</ele>
        <time>2026-01-30T08:07:32Z</time>
      </trkpt>
      <trkpt lat="48.66168" lon="1.93261">
        <ele>115.6</ele>
        <time>2026-01-30T08:07:33Z</time>
      </trkpt>
      <trkpt lat="48.66174" lon="1.93258">
        <ele>115.6</ele>
        <time>2026-01-30T08:07:34Z</time>
      </trkpt>
      <trkpt lat="48.66178" lon="1.93257">
        <ele>115.6</ele>
        <time>2026-01-30T08:07:35Z</time>
      </trkpt>
      <trkpt lat="48.66184" lon="1.93257">
        <ele>115.6</ele>
        <time>2026-01-30T08:07:36Z</time>
      </trkpt>
      <trkpt lat="48.6619" lon="1.93255">
        <ele>115.6</ele>
        <time>2026-01-30T08:07:37Z</time>
      </trkpt>
      <trkpt lat="48.66197" lon="1.93254">
        <ele>115.6</ele>
        <time>2026-01-30T08:07:38Z</time>
      </trkpt>
      <trkpt lat="48.66203" lon="1.93254">
        <ele>115.6</ele>
        <time>2026-01-30T08:07:39Z</time>
      </trkpt>
      <trkpt lat="48.66209" lon="1.93254">
        <ele>116</ele>
        <time>2026-01-30T08:07:40Z</time>
      </trkpt>
      <trkpt lat="48.66216" lon="1.93254">
        <ele>116</ele>
        <time>2026-01-30T08:07:41Z</time>
      </trkpt>
      <trkpt lat="48.66223" lon="1.93254">
        <ele>116</ele>
        <time>2026-01-30T08:07:42Z</time>
      </trkpt>
      <trkpt lat="48.66229" lon="1.93254">
        <ele>116</ele>
        <time>2026-01-30T08:07:43Z</time>
      </trkpt>
      <trkpt lat="48.66236" lon="1.93254">
        <ele>116.4</ele>
        <time>2026-01-30T08:07:44Z</time>
      </trkpt>
      <trkpt lat="48.66242" lon="1.93253">
        <ele>116.4</ele>
        <time>2026-01-30T08:07:45Z</time>
      </trkpt>
      <trkpt lat="48.66249" lon="1.93252">
        <ele>116.4</ele>
        <time>2026-01-30T08:07:46Z</time>
      </trkpt>
      <trkpt lat="48.66255" lon="1.93252">
        <ele>115.8</ele>
        <time>2026-01-30T08:07:47Z</time>
      </trkpt>
      <trkpt lat="48.66262" lon="1.9325">
        <ele>116.2</ele>
        <time>2026-01-30T08:07:48Z</time>
      </trkpt>
      <trkpt lat="48.66268" lon="1.93248">
        <ele>116.2</ele>
        <time>2026-01-30T08:07:49Z</time>
      </trkpt>
      <trkpt lat="48.66275" lon="1.93246">
        <ele>116.2</ele>
        <time>2026-01-30T08:07:50Z</time>
      </trkpt>
      <trkpt lat="48.66281" lon="1.93244">
        <ele>116.2</ele>
        <time>2026-01-30T08:07:51Z</time>
      </trkpt>
      <trkpt lat="48.66288" lon="1.93241">
        <ele>115.4</ele>
        <time>2026-01-30T08:07:52Z</time>
      </trkpt>
      <trkpt lat="48.66294" lon="1.93237">
        <ele>115.4</ele>
        <time>2026-01-30T08:07:53Z</time>
      </trkpt>
      <trkpt lat="48.66301" lon="1.93233">
        <ele>115.4</ele>
        <time>2026-01-30T08:07:54Z</time>
      </trkpt>
      <trkpt lat="48.66306" lon="1.93229">
        <ele>115.4</ele>
        <time>2026-01-30T08:07:55Z</time>
      </trkpt>
      <trkpt lat="48.66312" lon="1.93225">
        <ele>115.4</ele>
        <time>2026-01-30T08:07:56Z</time>
      </trkpt>
      <trkpt lat="48.66319" lon="1.93219">
        <ele>115.4</ele>
        <time>2026-01-30T08:07:57Z</time>
      </trkpt>
      <trkpt lat="48.66325" lon="1.93214">
        <ele>115.4</ele>
        <time>2026-01-30T08:07:58Z</time>
      </trkpt>
      <trkpt lat="48.66331" lon="1.93209">
        <ele>115</ele>
        <time>2026-01-30T08:07:59Z</time>
      </trkpt>
      <trkpt lat="48.66337" lon="1.93204">
        <ele>112</ele>
        <time>2026-01-30T08:08:00Z</time>
      </trkpt>
      <trkpt lat="48.66343" lon="1.932">
        <ele>112</ele>
        <time>2026-01-30T08:08:01Z</time>
      </trkpt>
      <trkpt lat="48.66349" lon="1.93195">
        <ele>112</ele>
        <time>2026-01-30T08:08:02Z</time>
      </trkpt>
      <trkpt lat="48.66355" lon="1.93191">
        <ele>113</ele>
        <time>2026-01-30T08:08:03Z</time>
      </trkpt>
      <trkpt lat="48.66361" lon="1.93187">
        <ele>114.4</ele>
        <time>2026-01-30T08:08:04Z</time>
      </trkpt>
      <trkpt lat="48.66366" lon="1.93183">
        <ele>114.4</ele>
        <time>2026-01-30T08:08:05Z</time>
      </trkpt>
      <trkpt lat="48.6637" lon="1.9318">
        <ele>114.4</ele>
        <time>2026-01-30T08:08:06Z</time>
      </trkpt>
      <trkpt lat="48.66373" lon="1.93177">
        <ele>115.4</ele>
        <time>2026-01-30T08:08:07Z</time>
      </trkpt>
      <trkpt lat="48.66375" lon="1.93176">
        <ele>115.6</ele>
        <time>2026-01-30T08:08:08Z</time>
      </trkpt>
      <trkpt lat="48.66377" lon="1.93174">
        <ele>115.6</ele>
        <time>2026-01-30T08:08:09Z</time>
      </trkpt>
      <trkpt lat="48.66379" lon="1.93174">
        <ele>115.6</ele>
        <time>2026-01-30T08:08:10Z</time>
      </trkpt>
      <trkpt lat="48.6638" lon="1.93174">
        <ele>115.6</ele>
        <time>2026-01-30T08:08:11Z</time>
      </trkpt>
      <trkpt lat="48.66382" lon="1.93173">
        <ele>115.2</ele>
        <time>2026-01-30T08:08:12Z</time>
      </trkpt>
      <trkpt lat="48.66385" lon="1.93171">
        <ele>115.2</ele>
        <time>2026-01-30T08:08:13Z</time>
      </trkpt>
      <trkpt lat="48.66388" lon="1.93166">
        <ele>115.2</ele>
        <time>2026-01-30T08:08:14Z</time>
      </trkpt>
      <trkpt lat="48.66389" lon="1.93161">
        <ele>115.2</ele>
        <time>2026-01-30T08:08:15Z</time>
      </trkpt>
      <trkpt lat="48.66391" lon="1.93157">
        <ele>114.4</ele>
        <time>2026-01-30T08:08:16Z</time>
      </trkpt>
      <trkpt lat="48.66391" lon="1.93151">
        <ele>114.4</ele>
        <time>2026-01-30T08:08:17Z</time>
      </trkpt>
      <trkpt lat="48.66392" lon="1.93146">
        <ele>114.4</ele>
        <time>2026-01-30T08:08:18Z</time>
      </trkpt>
      <trkpt lat="48.66392" lon="1.93138">
        <ele>113.4</ele>
        <time>2026-01-30T08:08:19Z</time>
      </trkpt>
      <trkpt lat="48.66392" lon="1.93131">
        <ele>113.4</ele>
        <time>2026-01-30T08:08:20Z</time>
      </trkpt>
      <trkpt lat="48.66392" lon="1.93123">
        <ele>113.4</ele>
        <time>2026-01-30T08:08:21Z</time>
      </trkpt>
      <trkpt lat="48.66393" lon="1.93114">
        <ele>113.4</ele>
        <time>2026-01-30T08:08:22Z</time>
      </trkpt>
      <trkpt lat="48.66393" lon="1.93105">
        <ele>112.4</ele>
        <time>2026-01-30T08:08:23Z</time>
      </trkpt>
      <trkpt lat="48.66393" lon="1.93095">
        <ele>112.2</ele>
        <time>2026-01-30T08:08:24Z</time>
      </trkpt>
      <trkpt lat="48.66392" lon="1.93084">
        <ele>112.2</ele>
        <time>2026-01-30T08:08:25Z</time>
      </trkpt>
      <trkpt lat="48.66391" lon="1.93074">
        <ele>112.2</ele>
        <time>2026-01-30T08:08:26Z</time>
      </trkpt>
      <trkpt lat="48.6639" lon="1.93063">
        <ele>111.8</ele>
        <time>2026-01-30T08:08:27Z</time>
      </trkpt>
      <trkpt lat="48.6639" lon="1.93052">
        <ele>111.4</ele>
        <time>2026-01-30T08:08:28Z</time>
      </trkpt>
      <trkpt lat="48.66389" lon="1.9304">
        <ele>111.4</ele>
        <time>2026-01-30T08:08:29Z</time>
      </trkpt>
      <trkpt lat="48.66388" lon="1.93029">
        <ele>111.4</ele>
        <time>2026-01-30T08:08:30Z</time>
      </trkpt>
      <trkpt lat="48.66387" lon="1.93018">
        <ele>111.2</ele>
        <time>2026-01-30T08:08:31Z</time>
      </trkpt>
      <trkpt lat="48.66385" lon="1.93007">
        <ele>111.6</ele>
        <time>2026-01-30T08:08:32Z</time>
      </trkpt>
      <trkpt lat="48.66384" lon="1.92997">
        <ele>111.6</ele>
        <time>2026-01-30T08:08:33Z</time>
      </trkpt>
      <trkpt lat="48.66383" lon="1.92986">
        <ele>111.6</ele>
        <time>2026-01-30T08:08:34Z</time>
      </trkpt>
      <trkpt lat="48.66383" lon="1.92977">
        <ele>111.6</ele>
        <time>2026-01-30T08:08:35Z</time>
      </trkpt>
      <trkpt lat="48.66385" lon="1.92967">
        <ele>111.2</ele>
        <time>2026-01-30T08:08:36Z</time>
      </trkpt>
      <trkpt lat="48.66388" lon="1.9296">
        <ele>111.2</ele>
        <time>2026-01-30T08:08:37Z</time>
      </trkpt>
      <trkpt lat="48.66392" lon="1.92953">
        <ele>111.2</ele>
        <time>2026-01-30T08:08:38Z</time>
      </trkpt>
      <trkpt lat="48.66397" lon="1.92949">
        <ele>111.6</ele>
        <time>2026-01-30T08:08:39Z</time>
      </trkpt>
      <trkpt lat="48.66403" lon="1.92945">
        <ele>112.4</ele>
        <time>2026-01-30T08:08:40Z</time>
      </trkpt>
      <trkpt lat="48.66407" lon="1.92941">
        <ele>112.4</ele>
        <time>2026-01-30T08:08:41Z</time>
      </trkpt>
      <trkpt lat="48.66413" lon="1.92937">
        <ele>112.4</ele>
        <time>2026-01-30T08:08:42Z</time>
      </trkpt>
      <trkpt lat="48.66418" lon="1.92933">
        <ele>112</ele>
        <time>2026-01-30T08:08:43Z</time>
      </trkpt>
      <trkpt lat="48.66423" lon="1.9293">
        <ele>112.2</ele>
        <time>2026-01-30T08:08:44Z</time>
      </trkpt>
      <trkpt lat="48.66429" lon="1.92927">
        <ele>112.2</ele>
        <time>2026-01-30T08:08:45Z</time>
      </trkpt>
      <trkpt lat="48.66434" lon="1.92924">
        <ele>112.2</ele>
        <time>2026-01-30T08:08:46Z</time>
      </trkpt>
      <trkpt lat="48.66439" lon="1.92921">
        <ele>112.8</ele>
        <time>2026-01-30T08:08:47Z</time>
      </trkpt>
      <trkpt lat="48.66444" lon="1.92918">
        <ele>112.8</ele>
        <time>2026-01-30T08:08:48Z</time>
      </trkpt>
      <trkpt lat="48.66449" lon="1.92915">
        <ele>112.8</ele>
        <time>2026-01-30T08:08:49Z</time>
      </trkpt>
      <trkpt lat="48.66454" lon="1.92911">
        <ele>112.8</ele>
        <time>2026-01-30T08:08:50Z</time>
      </trkpt>
      <trkpt lat="48.66459" lon="1.92907">
        <ele>113.8</ele>
        <time>2026-01-30T08:08:51Z</time>
      </trkpt>
      <trkpt lat="48.66464" lon="1.92905">
        <ele>113.4</ele>
        <time>2026-01-30T08:08:52Z</time>
      </trkpt>
      <trkpt lat="48.66469" lon="1.92901">
        <ele>113.4</ele>
        <time>2026-01-30T08:08:53Z</time>
      </trkpt>
      <trkpt lat="48.66473" lon="1.92897">
        <ele>113.4</ele>
        <time>2026-01-30T08:08:54Z</time>
      </trkpt>
      <trkpt lat="48.66478" lon="1.92895">
        <ele>114.4</ele>
        <time>2026-01-30T08:08:55Z</time>
      </trkpt>
      <trkpt lat="48.66484" lon="1.92893">
        <ele>114</ele>
        <time>2026-01-30T08:08:56Z</time>
      </trkpt>
      <trkpt lat="48.66489" lon="1.92891">
        <ele>114</ele>
        <time>2026-01-30T08:08:57Z</time>
      </trkpt>
      <trkpt lat="48.66493" lon="1.92889">
        <ele>114</ele>
        <time>2026-01-30T08:08:58Z</time>
      </trkpt>
      <trkpt lat="48.66498" lon="1.92888">
        <ele>114.2</ele>
        <time>2026-01-30T08:08:59Z</time>
      </trkpt>
      <trkpt lat="48.66502" lon="1.92886">
        <ele>115.4</ele>
        <time>2026-01-30T08:09:00Z</time>
      </trkpt>
      <trkpt lat="48.66506" lon="1.92885">
        <ele>115.4</ele>
        <time>2026-01-30T08:09:01Z</time>
      </trkpt>
      <trkpt lat="48.6651" lon="1.92886">
        <ele>115.4</ele>
        <time>2026-01-30T08:09:02Z</time>
      </trkpt>
      <trkpt lat="48.66514" lon="1.92886">
        <ele>114.6</ele>
        <time>2026-01-30T08:09:03Z</time>
      </trkpt>
      <trkpt lat="48.66518" lon="1.92887">
        <ele>113.6</ele>
        <time>2026-01-30T08:09:04Z</time>
      </trkpt>
      <trkpt lat="48.66523" lon="1.92886">
        <ele>113.6</ele>
        <time>2026-01-30T08:09:05Z</time>
      </trkpt>
      <trkpt lat="48.66528" lon="1.92887">
        <ele>113.6</ele>
        <time>2026-01-30T08:09:06Z</time>
      </trkpt>
      <trkpt lat="48.66534" lon="1.92887">
        <ele>114.6</ele>
        <time>2026-01-30T08:09:07Z</time>
      </trkpt>
      <trkpt lat="48.66539" lon="1.92887">
        <ele>114.8</ele>
        <time>2026-01-30T08:09:08Z</time>
      </trkpt>
      <trkpt lat="48.66544" lon="1.92887">
        <ele>114.8</ele>
        <time>2026-01-30T08:09:09Z</time>
      </trkpt>
      <trkpt lat="48.66549" lon="1.92887">
        <ele>114.8</ele>
        <time>2026-01-30T08:09:10Z</time>
      </trkpt>
      <trkpt lat="48.66554" lon="1.92886">
        <ele>115</ele>
        <time>2026-01-30T08:09:11Z</time>
      </trkpt>
      <trkpt lat="48.6656" lon="1.92885">
        <ele>115.2</ele>
        <time>2026-01-30T08:09:12Z</time>
      </trkpt>
      <trkpt lat="48.66566" lon="1.92883">
        <ele>115.2</ele>
        <time>2026-01-30T08:09:13Z</time>
      </trkpt>
      <trkpt lat="48.66571" lon="1.92881">
        <ele>115.2</ele>
        <time>2026-01-30T08:09:14Z</time>
      </trkpt>
      <trkpt lat="48.66576" lon="1.92878">
        <ele>114.6</ele>
        <time>2026-01-30T08:09:15Z</time>
      </trkpt>
      <trkpt lat="48.66582" lon="1.92875">
        <ele>115.2</ele>
        <time>2026-01-30T08:09:16Z</time>
      </trkpt>
      <trkpt lat="48.66587" lon="1.92871">
        <ele>115.2</ele>
        <time>2026-01-30T08:09:17Z</time>
      </trkpt>
      <trkpt lat="48.66592" lon="1.92867">
        <ele>115.2</ele>
        <time>2026-01-30T08:09:18Z</time>
      </trkpt>
      <trkpt lat="48.66597" lon="1.92862">
        <ele>115.6</ele>
        <time>2026-01-30T08:09:19Z</time>
      </trkpt>
      <trkpt lat="48.66602" lon="1.92858">
        <ele>115.6</ele>
        <time>2026-01-30T08:09:20Z</time>
      </trkpt>
      <trkpt lat="48.66606" lon="1.92853">
        <ele>115.6</ele>
        <time>2026-01-30T08:09:21Z</time>
      </trkpt>
      <trkpt lat="48.66612" lon="1.92849">
        <ele>115.6</ele>
        <time>2026-01-30T08:09:22Z</time>
      </trkpt>
      <trkpt lat="48.66616" lon="1.92843">
        <ele>116</ele>
        <time>2026-01-30T08:09:23Z</time>
      </trkpt>
      <trkpt lat="48.66621" lon="1.92839">
        <ele>116</ele>
        <time>2026-01-30T08:09:24Z</time>
      </trkpt>
      <trkpt lat="48.66626" lon="1.92834">
        <ele>116</ele>
        <time>2026-01-30T08:09:25Z</time>
      </trkpt>
      <trkpt lat="48.66631" lon="1.92829">
        <ele>116</ele>
        <time>2026-01-30T08:09:26Z</time>
      </trkpt>
      <trkpt lat="48.66635" lon="1.92823">
        <ele>116</ele>
        <time>2026-01-30T08:09:27Z</time>
      </trkpt>
      <trkpt lat="48.6664" lon="1.92818">
        <ele>116.8</ele>
        <time>2026-01-30T08:09:28Z</time>
      </trkpt>
      <trkpt lat="48.66644" lon="1.92814">
        <ele>116.8</ele>
        <time>2026-01-30T08:09:29Z</time>
      </trkpt>
      <trkpt lat="48.66649" lon="1.92809">
        <ele>116.8</ele>
        <time>2026-01-30T08:09:30Z</time>
      </trkpt>
      <trkpt lat="48.66653" lon="1.92804">
        <ele>116.8</ele>
        <time>2026-01-30T08:09:31Z</time>
      </trkpt>
      <trkpt lat="48.66658" lon="1.92799">
        <ele>115.8</ele>
        <time>2026-01-30T08:09:32Z</time>
      </trkpt>
      <trkpt lat="48.66662" lon="1.92793">
        <ele>115.8</ele>
        <time>2026-01-30T08:09:33Z</time>
      </trkpt>
      <trkpt lat="48.66667" lon="1.92789">
        <ele>115.8</ele>
        <time>2026-01-30T08:09:34Z</time>
      </trkpt>
      <trkpt lat="48.66671" lon="1.92784">
        <ele>115.8</ele>
        <time>2026-01-30T08:09:35Z</time>
      </trkpt>
      <trkpt lat="48.66676" lon="1.9278">
        <ele>116.6</ele>
        <time>2026-01-30T08:09:36Z</time>
      </trkpt>
      <trkpt lat="48.66681" lon="1.92775">
        <ele>116.6</ele>
        <time>2026-01-30T08:09:37Z</time>
      </trkpt>
      <trkpt lat="48.66685" lon="1.92771">
        <ele>116.6</ele>
        <time>2026-01-30T08:09:38Z</time>
      </trkpt>
      <trkpt lat="48.6669" lon="1.92766">
        <ele>116.6</ele>
        <time>2026-01-30T08:09:39Z</time>
      </trkpt>
      <trkpt lat="48.66694" lon="1.92762">
        <ele>117.4</ele>
        <time>2026-01-30T08:09:40Z</time>
      </trkpt>
      <trkpt lat="48.66699" lon="1.92758">
        <ele>117.4</ele>
        <time>2026-01-30T08:09:41Z</time>
      </trkpt>
      <trkpt lat="48.66703" lon="1.92753">
        <ele>117.4</ele>
        <time>2026-01-30T08:09:42Z</time>
      </trkpt>
      <trkpt lat="48.66708" lon="1.92748">
        <ele>117.4</ele>
        <time>2026-01-30T08:09:43Z</time>
      </trkpt>
      <trkpt lat="48.66712" lon="1.92743">
        <ele>117.2</ele>
        <time>2026-01-30T08:09:44Z</time>
      </trkpt>
      <trkpt lat="48.66716" lon="1.92738">
        <ele>117.2</ele>
        <time>2026-01-30T08:09:45Z</time>
      </trkpt>
      <trkpt lat="48.66721" lon="1.92734">
        <ele>117.2</ele>
        <time>2026-01-30T08:09:46Z</time>
      </trkpt>
      <trkpt lat="48.66725" lon="1.92729">
        <ele>117.4</ele>
        <time>2026-01-30T08:09:47Z</time>
      </trkpt>
      <trkpt lat="48.6673" lon="1.92725">
        <ele>117.6</ele>
        <time>2026-01-30T08:09:48Z</time>
      </trkpt>
      <trkpt lat="48.66734" lon="1.9272">
        <ele>117.6</ele>
        <time>2026-01-30T08:09:49Z</time>
      </trkpt>
      <trkpt lat="48.66738" lon="1.92715">
        <ele>117.6</ele>
        <time>2026-01-30T08:09:50Z</time>
      </trkpt>
      <trkpt lat="48.66743" lon="1.9271">
        <ele>118.6</ele>
        <time>2026-01-30T08:09:51Z</time>
      </trkpt>
      <trkpt lat="48.66747" lon="1.92704">
        <ele>118.8</ele>
        <time>2026-01-30T08:09:52Z</time>
      </trkpt>
      <trkpt lat="48.66751" lon="1.92699">
        <ele>118.8</ele>
        <time>2026-01-30T08:09:53Z</time>
      </trkpt>
      <trkpt lat="48.66756" lon="1.92694">
        <ele>118.8</ele>
        <time>2026-01-30T08:09:54Z</time>
      </trkpt>
      <trkpt lat="48.6676" lon="1.92689">
        <ele>118.8</ele>
        <time>2026-01-30T08:09:55Z</time>
      </trkpt>
      <trkpt lat="48.66764" lon="1.92684">
        <ele>119</ele>
        <time>2026-01-30T08:09:56Z</time>
      </trkpt>
      <trkpt lat="48.66769" lon="1.92679">
        <ele>119</ele>
        <time>2026-01-30T08:09:57Z</time>
      </trkpt>
      <trkpt lat="48.66773" lon="1.92673">
        <ele>119</ele>
        <time>2026-01-30T08:09:58Z</time>
      </trkpt>
      <trkpt lat="48.66777" lon="1.92667">
        <ele>119</ele>
        <time>2026-01-30T08:09:59Z</time>
      </trkpt>
      <trkpt lat="48.66782" lon="1.92661">
        <ele>119</ele>
        <time>2026-01-30T08:10:00Z</time>
      </trkpt>
      <trkpt lat="48.66786" lon="1.92655">
        <ele>119</ele>
        <time>2026-01-30T08:10:01Z</time>
      </trkpt>
      <trkpt lat="48.6679" lon="1.92649">
        <ele>119</ele>
        <time>2026-01-30T08:10:02Z</time>
      </trkpt>
      <trkpt lat="48.66793" lon="1.92644">
        <ele>119</ele>
        <time>2026-01-30T08:10:03Z</time>
      </trkpt>
      <trkpt lat="48.66797" lon="1.92638">
        <ele>119.2</ele>
        <time>2026-01-30T08:10:04Z</time>
      </trkpt>
      <trkpt lat="48.66801" lon="1.92632">
        <ele>119.2</ele>
        <time>2026-01-30T08:10:05Z</time>
      </trkpt>
      <trkpt lat="48.66805" lon="1.92626">
        <ele>119.2</ele>
        <time>2026-01-30T08:10:06Z</time>
      </trkpt>
      <trkpt lat="48.66809" lon="1.9262">
        <ele>119.2</ele>
        <time>2026-01-30T08:10:07Z</time>
      </trkpt>
      <trkpt lat="48.66814" lon="1.92614">
        <ele>118.8</ele>
        <time>2026-01-30T08:10:08Z</time>
      </trkpt>
      <trkpt lat="48.66818" lon="1.92608">
        <ele>118.8</ele>
        <time>2026-01-30T08:10:09Z</time>
      </trkpt>
      <trkpt lat="48.66822" lon="1.92601">
        <ele>118.8</ele>
        <time>2026-01-30T08:10:10Z</time>
      </trkpt>
      <trkpt lat="48.66826" lon="1.92595">
        <ele>119</ele>
        <time>2026-01-30T08:10:11Z</time>
      </trkpt>
      <trkpt lat="48.66831" lon="1.92589">
        <ele>119.2</ele>
        <time>2026-01-30T08:10:12Z</time>
      </trkpt>
      <trkpt lat="48.66835" lon="1.92583">
        <ele>119.2</ele>
        <time>2026-01-30T08:10:13Z</time>
      </trkpt>
      <trkpt lat="48.66839" lon="1.92577">
        <ele>119.2</ele>
        <time>2026-01-30T08:10:14Z</time>
      </trkpt>
      <trkpt lat="48.66843" lon="1.9257">
        <ele>119.2</ele>
        <time>2026-01-30T08:10:15Z</time>
      </trkpt>
      <trkpt lat="48.66848" lon="1.92564">
        <ele>119.4</ele>
        <time>2026-01-30T08:10:16Z</time>
      </trkpt>
      <trkpt lat="48.66852" lon="1.92557">
        <ele>119.4</ele>
        <time>2026-01-30T08:10:17Z</time>
      </trkpt>
      <trkpt lat="48.66856" lon="1.9255">
        <ele>119.4</ele>
        <time>2026-01-30T08:10:18Z</time>
      </trkpt>
      <trkpt lat="48.66861" lon="1.92543">
        <ele>119.4</ele>
        <time>2026-01-30T08:10:19Z</time>
      </trkpt>
      <trkpt lat="48.66865" lon="1.92536">
        <ele>119.8</ele>
        <time>2026-01-30T08:10:20Z</time>
      </trkpt>
      <trkpt lat="48.66869" lon="1.92529">
        <ele>119.8</ele>
        <time>2026-01-30T08:10:21Z</time>
      </trkpt>
      <trkpt lat="48.66873" lon="1.92522">
        <ele>119.8</ele>
        <time>2026-01-30T08:10:22Z</time>
      </trkpt>
      <trkpt lat="48.66877" lon="1.92515">
        <ele>119.2</ele>
        <time>2026-01-30T08:10:23Z</time>
      </trkpt>
      <trkpt lat="48.66881" lon="1.92507">
        <ele>120.2</ele>
        <time>2026-01-30T08:10:24Z</time>
      </trkpt>
      <trkpt lat="48.66884" lon="1.92499">
        <ele>120.2</ele>
        <time>2026-01-30T08:10:25Z</time>
      </trkpt>
      <trkpt lat="48.66888" lon="1.92491">
        <ele>120.2</ele>
        <time>2026-01-30T08:10:26Z</time>
      </trkpt>
      <trkpt lat="48.66892" lon="1.92483">
        <ele>119.2</ele>
        <time>2026-01-30T08:10:27Z</time>
      </trkpt>
      <trkpt lat="48.66895" lon="1.92475">
        <ele>119.2</ele>
        <time>2026-01-30T08:10:28Z</time>
      </trkpt>
      <trkpt lat="48.66899" lon="1.92467">
        <ele>119.2</ele>
        <time>2026-01-30T08:10:29Z</time>
      </trkpt>
      <trkpt lat="48.66902" lon="1.92458">
        <ele>119.2</ele>
        <time>2026-01-30T08:10:30Z</time>
      </trkpt>
      <trkpt lat="48.66906" lon="1.9245">
        <ele>119.2</ele>
        <time>2026-01-30T08:10:31Z</time>
      </trkpt>
      <trkpt lat="48.66909" lon="1.92441">
        <ele>119</ele>
        <time>2026-01-30T08:10:32Z</time>
      </trkpt>
      <trkpt lat="48.66913" lon="1.92433">
        <ele>119</ele>
        <time>2026-01-30T08:10:33Z</time>
      </trkpt>
      <trkpt lat="48.66916" lon="1.92424">
        <ele>119</ele>
        <time>2026-01-30T08:10:34Z</time>
      </trkpt>
      <trkpt lat="48.66919" lon="1.92416">
        <ele>119</ele>
        <time>2026-01-30T08:10:35Z</time>
      </trkpt>
      <trkpt lat="48.66923" lon="1.92408">
        <ele>119.2</ele>
        <time>2026-01-30T08:10:36Z</time>
      </trkpt>
      <trkpt lat="48.66927" lon="1.924">
        <ele>119.2</ele>
        <time>2026-01-30T08:10:37Z</time>
      </trkpt>
      <trkpt lat="48.6693" lon="1.92393">
        <ele>119.2</ele>
        <time>2026-01-30T08:10:38Z</time>
      </trkpt>
      <trkpt lat="48.66934" lon="1.92385">
        <ele>119</ele>
        <time>2026-01-30T08:10:39Z</time>
      </trkpt>
      <trkpt lat="48.66937" lon="1.92377">
        <ele>119.4</ele>
        <time>2026-01-30T08:10:40Z</time>
      </trkpt>
      <trkpt lat="48.66941" lon="1.92368">
        <ele>119.4</ele>
        <time>2026-01-30T08:10:41Z</time>
      </trkpt>
      <trkpt lat="48.66944" lon="1.9236">
        <ele>119.4</ele>
        <time>2026-01-30T08:10:42Z</time>
      </trkpt>
      <trkpt lat="48.66947" lon="1.92351">
        <ele>118.6</ele>
        <time>2026-01-30T08:10:43Z</time>
      </trkpt>
      <trkpt lat="48.6695" lon="1.92343">
        <ele>118.6</ele>
        <time>2026-01-30T08:10:44Z</time>
      </trkpt>
      <trkpt lat="48.66954" lon="1.92334">
        <ele>118.6</ele>
        <time>2026-01-30T08:10:45Z</time>
      </trkpt>
      <trkpt lat="48.66956" lon="1.92325">
        <ele>118.6</ele>
        <time>2026-01-30T08:10:46Z</time>
      </trkpt>
      <trkpt lat="48.66959" lon="1.92316">
        <ele>118.8</ele>
        <time>2026-01-30T08:10:47Z</time>
      </trkpt>
      <trkpt lat="48.66962" lon="1.92307">
        <ele>119.2</ele>
        <time>2026-01-30T08:10:48Z</time>
      </trkpt>
      <trkpt lat="48.66965" lon="1.92298">
        <ele>119.2</ele>
        <time>2026-01-30T08:10:49Z</time>
      </trkpt>
      <trkpt lat="48.66967" lon="1.92288">
        <ele>119.2</ele>
        <time>2026-01-30T08:10:50Z</time>
      </trkpt>
      <trkpt lat="48.6697" lon="1.92279">
        <ele>119</ele>
        <time>2026-01-30T08:10:51Z</time>
      </trkpt>
      <trkpt lat="48.66972" lon="1.9227">
        <ele>119.8</ele>
        <time>2026-01-30T08:10:52Z</time>
      </trkpt>
      <trkpt lat="48.66974" lon="1.9226">
        <ele>119.8</ele>
        <time>2026-01-30T08:10:53Z</time>
      </trkpt>
      <trkpt lat="48.66977" lon="1.92251">
        <ele>119.8</ele>
        <time>2026-01-30T08:10:54Z</time>
      </trkpt>
      <trkpt lat="48.66979" lon="1.92242">
        <ele>119.8</ele>
        <time>2026-01-30T08:10:55Z</time>
      </trkpt>
      <trkpt lat="48.66981" lon="1.92233">
        <ele>119.2</ele>
        <time>2026-01-30T08:10:56Z</time>
      </trkpt>
      <trkpt lat="48.66984" lon="1.92223">
        <ele>119.2</ele>
        <time>2026-01-30T08:10:57Z</time>
      </trkpt>
      <trkpt lat="48.66986" lon="1.92214">
        <ele>119.2</ele>
        <time>2026-01-30T08:10:58Z</time>
      </trkpt>
      <trkpt lat="48.66989" lon="1.92205">
        <ele>119.2</ele>
        <time>2026-01-30T08:10:59Z</time>
      </trkpt>
      <trkpt lat="48.66992" lon="1.92196">
        <ele>119.6</ele>
        <time>2026-01-30T08:11:00Z</time>
      </trkpt>
      <trkpt lat="48.66995" lon="1.92187">
        <ele>119.6</ele>
        <time>2026-01-30T08:11:01Z</time>
      </trkpt>
      <trkpt lat="48.66998" lon="1.92178">
        <ele>119.6</ele>
        <time>2026-01-30T08:11:02Z</time>
      </trkpt>
      <trkpt lat="48.67001" lon="1.92169">
        <ele>119.2</ele>
        <time>2026-01-30T08:11:03Z</time>
      </trkpt>
      <trkpt lat="48.67004" lon="1.9216">
        <ele>119.2</ele>
        <time>2026-01-30T08:11:04Z</time>
      </trkpt>
      <trkpt lat="48.67007" lon="1.92151">
        <ele>119.2</ele>
        <time>2026-01-30T08:11:05Z</time>
      </trkpt>
      <trkpt lat="48.6701" lon="1.92142">
        <ele>119.2</ele>
        <time>2026-01-30T08:11:06Z</time>
      </trkpt>
      <trkpt lat="48.67014" lon="1.92133">
        <ele>119.2</ele>
        <time>2026-01-30T08:11:07Z</time>
      </trkpt>
      <trkpt lat="48.67017" lon="1.92125">
        <ele>119</ele>
        <time>2026-01-30T08:11:08Z</time>
      </trkpt>
      <trkpt lat="48.67021" lon="1.92117">
        <ele>119</ele>
        <time>2026-01-30T08:11:09Z</time>
      </trkpt>
      <trkpt lat="48.67024" lon="1.92109">
        <ele>119</ele>
        <time>2026-01-30T08:11:10Z</time>
      </trkpt>
      <trkpt lat="48.67028" lon="1.92101">
        <ele>119.4</ele>
        <time>2026-01-30T08:11:11Z</time>
      </trkpt>
      <trkpt lat="48.67031" lon="1.92092">
        <ele>119.8</ele>
        <time>2026-01-30T08:11:12Z</time>
      </trkpt>
      <trkpt lat="48.67034" lon="1.92084">
        <ele>119.8</ele>
        <time>2026-01-30T08:11:13Z</time>
      </trkpt>
      <trkpt lat="48.67038" lon="1.92076">
        <ele>119.8</ele>
        <time>2026-01-30T08:11:14Z</time>
      </trkpt>
      <trkpt lat="48.67041" lon="1.92068">
        <ele>120</ele>
        <time>2026-01-30T08:11:15Z</time>
      </trkpt>
      <trkpt lat="48.67045" lon="1.9206">
        <ele>120</ele>
        <time>2026-01-30T08:11:16Z</time>
      </trkpt>
      <trkpt lat="48.67049" lon="1.92052">
        <ele>120</ele>
        <time>2026-01-30T08:11:17Z</time>
      </trkpt>
      <trkpt lat="48.67052" lon="1.92043">
        <ele>120</ele>
        <time>2026-01-30T08:11:18Z</time>
      </trkpt>
      <trkpt lat="48.67056" lon="1.92035">
        <ele>120</ele>
        <time>2026-01-30T08:11:19Z</time>
      </trkpt>
      <trkpt lat="48.67059" lon="1.92027">
        <ele>120</ele>
        <time>2026-01-30T08:11:20Z</time>
      </trkpt>
      <trkpt lat="48.67063" lon="1.92019">
        <ele>120</ele>
        <time>2026-01-30T08:11:21Z</time>
      </trkpt>
      <trkpt lat="48.67067" lon="1.92011">
        <ele>120</ele>
        <time>2026-01-30T08:11:22Z</time>
      </trkpt>
      <trkpt lat="48.6707" lon="1.92003">
        <ele>120</ele>
        <time>2026-01-30T08:11:23Z</time>
      </trkpt>
      <trkpt lat="48.67074" lon="1.91995">
        <ele>120.6</ele>
        <time>2026-01-30T08:11:24Z</time>
      </trkpt>
      <trkpt lat="48.67078" lon="1.91987">
        <ele>120.6</ele>
        <time>2026-01-30T08:11:25Z</time>
      </trkpt>
      <trkpt lat="48.67081" lon="1.91978">
        <ele>120.6</ele>
        <time>2026-01-30T08:11:26Z</time>
      </trkpt>
      <trkpt lat="48.67085" lon="1.9197">
        <ele>120.6</ele>
        <time>2026-01-30T08:11:27Z</time>
      </trkpt>
      <trkpt lat="48.67089" lon="1.91962">
        <ele>120</ele>
        <time>2026-01-30T08:11:28Z</time>
      </trkpt>
      <trkpt lat="48.67093" lon="1.91953">
        <ele>120</ele>
        <time>2026-01-30T08:11:29Z</time>
      </trkpt>
      <trkpt lat="48.67097" lon="1.91945">
        <ele>120</ele>
        <time>2026-01-30T08:11:30Z</time>
      </trkpt>
      <trkpt lat="48.67101" lon="1.91937">
        <ele>120</ele>
        <time>2026-01-30T08:11:31Z</time>
      </trkpt>
      <trkpt lat="48.67105" lon="1.91928">
        <ele>119.8</ele>
        <time>2026-01-30T08:11:32Z</time>
      </trkpt>
      <trkpt lat="48.67109" lon="1.9192">
        <ele>119.8</ele>
        <time>2026-01-30T08:11:33Z</time>
      </trkpt>
      <trkpt lat="48.67113" lon="1.91912">
        <ele>119.8</ele>
        <time>2026-01-30T08:11:34Z</time>
      </trkpt>
      <trkpt lat="48.67117" lon="1.91903">
        <ele>120.2</ele>
        <time>2026-01-30T08:11:35Z</time>
      </trkpt>
      <trkpt lat="48.67121" lon="1.91895">
        <ele>120.4</ele>
        <time>2026-01-30T08:11:36Z</time>
      </trkpt>
      <trkpt lat="48.67125" lon="1.91887">
        <ele>120.4</ele>
        <time>2026-01-30T08:11:37Z</time>
      </trkpt>
      <trkpt lat="48.6713" lon="1.91878">
        <ele>120.4</ele>
        <time>2026-01-30T08:11:38Z</time>
      </trkpt>
      <trkpt lat="48.67134" lon="1.9187">
        <ele>120.4</ele>
        <time>2026-01-30T08:11:39Z</time>
      </trkpt>
      <trkpt lat="48.67138" lon="1.91862">
        <ele>119.8</ele>
        <time>2026-01-30T08:11:40Z</time>
      </trkpt>
      <trkpt lat="48.67142" lon="1.91853">
        <ele>119.8</ele>
        <time>2026-01-30T08:11:41Z</time>
      </trkpt>
      <trkpt lat="48.67147" lon="1.91845">
        <ele>119.8</ele>
        <time>2026-01-30T08:11:42Z</time>
      </trkpt>
      <trkpt lat="48.67151" lon="1.91837">
        <ele>119.8</ele>
        <time>2026-01-30T08:11:43Z</time>
      </trkpt>
      <trkpt lat="48.67156" lon="1.91829">
        <ele>119.2</ele>
        <time>2026-01-30T08:11:44Z</time>
      </trkpt>
      <trkpt lat="48.67161" lon="1.91821">
        <ele>119.2</ele>
        <time>2026-01-30T08:11:45Z</time>
      </trkpt>
      <trkpt lat="48.67165" lon="1.91813">
        <ele>119.2</ele>
        <time>2026-01-30T08:11:46Z</time>
      </trkpt>
      <trkpt lat="48.6717" lon="1.91806">
        <ele>120</ele>
        <time>2026-01-30T08:11:47Z</time>
      </trkpt>
      <trkpt lat="48.67175" lon="1.91799">
        <ele>120.2</ele>
        <time>2026-01-30T08:11:48Z</time>
      </trkpt>
      <trkpt lat="48.6718" lon="1.91791">
        <ele>120.2</ele>
        <time>2026-01-30T08:11:49Z</time>
      </trkpt>
      <trkpt lat="48.67186" lon="1.91785">
        <ele>120.2</ele>
        <time>2026-01-30T08:11:50Z</time>
      </trkpt>
      <trkpt lat="48.67191" lon="1.91778">
        <ele>120.2</ele>
        <time>2026-01-30T08:11:51Z</time>
      </trkpt>
      <trkpt lat="48.67196" lon="1.91771">
        <ele>119.8</ele>
        <time>2026-01-30T08:11:52Z</time>
      </trkpt>
      <trkpt lat="48.67201" lon="1.91764">
        <ele>119.8</ele>
        <time>2026-01-30T08:11:53Z</time>
      </trkpt>
      <trkpt lat="48.67206" lon="1.91757">
        <ele>119.8</ele>
        <time>2026-01-30T08:11:54Z</time>
      </trkpt>
      <trkpt lat="48.67211" lon="1.91751">
        <ele>119.8</ele>
        <time>2026-01-30T08:11:55Z</time>
      </trkpt>
      <trkpt lat="48.67216" lon="1.91744">
        <ele>119.8</ele>
        <time>2026-01-30T08:11:56Z</time>
      </trkpt>
      <trkpt lat="48.67222" lon="1.91737">
        <ele>119.8</ele>
        <time>2026-01-30T08:11:57Z</time>
      </trkpt>
      <trkpt lat="48.67227" lon="1.91731">
        <ele>119.8</ele>
        <time>2026-01-30T08:11:58Z</time>
      </trkpt>
      <trkpt lat="48.67232" lon="1.91724">
        <ele>119.8</ele>
        <time>2026-01-30T08:11:59Z</time>
      </trkpt>
      <trkpt lat="48.67237" lon="1.91718">
        <ele>119.8</ele>
        <time>2026-01-30T08:12:00Z</time>
      </trkpt>
      <trkpt lat="48.67243" lon="1.91711">
        <ele>119.8</ele>
        <time>2026-01-30T08:12:01Z</time>
      </trkpt>
      <trkpt lat="48.67248" lon="1.91705">
        <ele>119.8</ele>
        <time>2026-01-30T08:12:02Z</time>
      </trkpt>
      <trkpt lat="48.67253" lon="1.91698">
        <ele>119.8</ele>
        <time>2026-01-30T08:12:03Z</time>
      </trkpt>
      <trkpt lat="48.67258" lon="1.91692">
        <ele>120</ele>
        <time>2026-01-30T08:12:04Z</time>
      </trkpt>
      <trkpt lat="48.67264" lon="1.91685">
        <ele>120</ele>
        <time>2026-01-30T08:12:05Z</time>
      </trkpt>
      <trkpt lat="48.67269" lon="1.91678">
        <ele>120</ele>
        <time>2026-01-30T08:12:06Z</time>
      </trkpt>
      <trkpt lat="48.67274" lon="1.91672">
        <ele>120</ele>
        <time>2026-01-30T08:12:07Z</time>
      </trkpt>
      <trkpt lat="48.67279" lon="1.91665">
        <ele>120</ele>
        <time>2026-01-30T08:12:08Z</time>
      </trkpt>
      <trkpt lat="48.67285" lon="1.91658">
        <ele>120</ele>
        <time>2026-01-30T08:12:09Z</time>
      </trkpt>
      <trkpt lat="48.6729" lon="1.91652">
        <ele>120</ele>
        <time>2026-01-30T08:12:10Z</time>
      </trkpt>
      <trkpt lat="48.67295" lon="1.91645">
        <ele>120</ele>
        <time>2026-01-30T08:12:11Z</time>
      </trkpt>
      <trkpt lat="48.673" lon="1.91638">
        <ele>120.4</ele>
        <time>2026-01-30T08:12:12Z</time>
      </trkpt>
      <trkpt lat="48.67305" lon="1.91631">
        <ele>120.4</ele>
        <time>2026-01-30T08:12:13Z</time>
      </trkpt>
      <trkpt lat="48.6731" lon="1.91624">
        <ele>120.4</ele>
        <time>2026-01-30T08:12:14Z</time>
      </trkpt>
      <trkpt lat="48.67315" lon="1.91617">
        <ele>120.4</ele>
        <time>2026-01-30T08:12:15Z</time>
      </trkpt>
      <trkpt lat="48.6732" lon="1.9161">
        <ele>120.2</ele>
        <time>2026-01-30T08:12:16Z</time>
      </trkpt>
      <trkpt lat="48.67325" lon="1.91603">
        <ele>120.2</ele>
        <time>2026-01-30T08:12:17Z</time>
      </trkpt>
      <trkpt lat="48.6733" lon="1.91596">
        <ele>120.2</ele>
        <time>2026-01-30T08:12:18Z</time>
      </trkpt>
      <trkpt lat="48.67336" lon="1.91589">
        <ele>119.6</ele>
        <time>2026-01-30T08:12:19Z</time>
      </trkpt>
      <trkpt lat="48.67341" lon="1.91583">
        <ele>120.4</ele>
        <time>2026-01-30T08:12:20Z</time>
      </trkpt>
      <trkpt lat="48.67346" lon="1.91577">
        <ele>120.4</ele>
        <time>2026-01-30T08:12:21Z</time>
      </trkpt>
      <trkpt lat="48.67352" lon="1.9157">
        <ele>120.4</ele>
        <time>2026-01-30T08:12:22Z</time>
      </trkpt>
      <trkpt lat="48.67357" lon="1.91564">
        <ele>120.2</ele>
        <time>2026-01-30T08:12:23Z</time>
      </trkpt>
      <trkpt lat="48.67363" lon="1.91558">
        <ele>120.4</ele>
        <time>2026-01-30T08:12:24Z</time>
      </trkpt>
      <trkpt lat="48.67368" lon="1.91553">
        <ele>120.4</ele>
        <time>2026-01-30T08:12:25Z</time>
      </trkpt>
      <trkpt lat="48.67374" lon="1.91547">
        <ele>120.4</ele>
        <time>2026-01-30T08:12:26Z</time>
      </trkpt>
      <trkpt lat="48.6738" lon="1.91541">
        <ele>120</ele>
        <time>2026-01-30T08:12:27Z</time>
      </trkpt>
      <trkpt lat="48.67385" lon="1.91535">
        <ele>120.2</ele>
        <time>2026-01-30T08:12:28Z</time>
      </trkpt>
      <trkpt lat="48.67391" lon="1.9153">
        <ele>120.2</ele>
        <time>2026-01-30T08:12:29Z</time>
      </trkpt>
      <trkpt lat="48.67397" lon="1.91525">
        <ele>120.2</ele>
        <time>2026-01-30T08:12:30Z</time>
      </trkpt>
      <trkpt lat="48.67404" lon="1.9152">
        <ele>120.2</ele>
        <time>2026-01-30T08:12:31Z</time>
      </trkpt>
      <trkpt lat="48.6741" lon="1.91517">
        <ele>120.2</ele>
        <time>2026-01-30T08:12:32Z</time>
      </trkpt>
      <trkpt lat="48.67417" lon="1.91514">
        <ele>120.2</ele>
        <time>2026-01-30T08:12:33Z</time>
      </trkpt>
      <trkpt lat="48.67424" lon="1.91513">
        <ele>120.2</ele>
        <time>2026-01-30T08:12:34Z</time>
      </trkpt>
      <trkpt lat="48.6743" lon="1.91515">
        <ele>120.2</ele>
        <time>2026-01-30T08:12:35Z</time>
      </trkpt>
      <trkpt lat="48.67437" lon="1.91517">
        <ele>120.4</ele>
        <time>2026-01-30T08:12:36Z</time>
      </trkpt>
      <trkpt lat="48.67443" lon="1.9152">
        <ele>120.4</ele>
        <time>2026-01-30T08:12:37Z</time>
      </trkpt>
      <trkpt lat="48.6745" lon="1.91523">
        <ele>120.4</ele>
        <time>2026-01-30T08:12:38Z</time>
      </trkpt>
      <trkpt lat="48.67457" lon="1.91526">
        <ele>120.4</ele>
        <time>2026-01-30T08:12:39Z</time>
      </trkpt>
      <trkpt lat="48.67463" lon="1.9153">
        <ele>120.2</ele>
        <time>2026-01-30T08:12:40Z</time>
      </trkpt>
      <trkpt lat="48.6747" lon="1.91533">
        <ele>120.2</ele>
        <time>2026-01-30T08:12:41Z</time>
      </trkpt>
      <trkpt lat="48.67476" lon="1.91536">
        <ele>120.2</ele>
        <time>2026-01-30T08:12:42Z</time>
      </trkpt>
      <trkpt lat="48.67483" lon="1.91539">
        <ele>120.2</ele>
        <time>2026-01-30T08:12:43Z</time>
      </trkpt>
      <trkpt lat="48.6749" lon="1.91541">
        <ele>120.4</ele>
        <time>2026-01-30T08:12:44Z</time>
      </trkpt>
      <trkpt lat="48.67496" lon="1.91544">
        <ele>120.4</ele>
        <time>2026-01-30T08:12:45Z</time>
      </trkpt>
      <trkpt lat="48.67503" lon="1.91547">
        <ele>120.4</ele>
        <time>2026-01-30T08:12:46Z</time>
      </trkpt>
      <trkpt lat="48.67509" lon="1.9155">
        <ele>121.2</ele>
        <time>2026-01-30T08:12:47Z</time>
      </trkpt>
      <trkpt lat="48.67516" lon="1.91553">
        <ele>120.4</ele>
        <time>2026-01-30T08:12:48Z</time>
      </trkpt>
      <trkpt lat="48.67523" lon="1.91555">
        <ele>120.4</ele>
        <time>2026-01-30T08:12:49Z</time>
      </trkpt>
      <trkpt lat="48.67529" lon="1.91558">
        <ele>120.4</ele>
        <time>2026-01-30T08:12:50Z</time>
      </trkpt>
      <trkpt lat="48.67536" lon="1.91561">
        <ele>120.8</ele>
        <time>2026-01-30T08:12:51Z</time>
      </trkpt>
      <trkpt lat="48.67542" lon="1.91563">
        <ele>120.8</ele>
        <time>2026-01-30T08:12:52Z</time>
      </trkpt>
      <trkpt lat="48.67549" lon="1.91566">
        <ele>120.8</ele>
        <time>2026-01-30T08:12:53Z</time>
      </trkpt>
      <trkpt lat="48.67555" lon="1.91569">
        <ele>120.8</ele>
        <time>2026-01-30T08:12:54Z</time>
      </trkpt>
      <trkpt lat="48.67562" lon="1.91572">
        <ele>120.8</ele>
        <time>2026-01-30T08:12:55Z</time>
      </trkpt>
      <trkpt lat="48.67568" lon="1.91574">
        <ele>121</ele>
        <time>2026-01-30T08:12:56Z</time>
      </trkpt>
      <trkpt lat="48.67574" lon="1.91577">
        <ele>121</ele>
        <time>2026-01-30T08:12:57Z</time>
      </trkpt>
      <trkpt lat="48.67581" lon="1.9158">
        <ele>121</ele>
        <time>2026-01-30T08:12:58Z</time>
      </trkpt>
      <trkpt lat="48.67588" lon="1.91582">
        <ele>121</ele>
        <time>2026-01-30T08:12:59Z</time>
      </trkpt>
      <trkpt lat="48.67594" lon="1.91585">
        <ele>121.2</ele>
        <time>2026-01-30T08:13:00Z</time>
      </trkpt>
      <trkpt lat="48.676" lon="1.91588">
        <ele>121.2</ele>
        <time>2026-01-30T08:13:01Z</time>
      </trkpt>
      <trkpt lat="48.67607" lon="1.91591">
        <ele>121.2</ele>
        <time>2026-01-30T08:13:02Z</time>
      </trkpt>
      <trkpt lat="48.67613" lon="1.91593">
        <ele>121.2</ele>
        <time>2026-01-30T08:13:03Z</time>
      </trkpt>
      <trkpt lat="48.67619" lon="1.91596">
        <ele>121.6</ele>
        <time>2026-01-30T08:13:04Z</time>
      </trkpt>
      <trkpt lat="48.67625" lon="1.91599">
        <ele>121.6</ele>
        <time>2026-01-30T08:13:05Z</time>
      </trkpt>
      <trkpt lat="48.67632" lon="1.91601">
        <ele>121.6</ele>
        <time>2026-01-30T08:13:06Z</time>
      </trkpt>
      <trkpt lat="48.67638" lon="1.91602">
        <ele>121.6</ele>
        <time>2026-01-30T08:13:07Z</time>
      </trkpt>
      <trkpt lat="48.67644" lon="1.916">
        <ele>121.2</ele>
        <time>2026-01-30T08:13:08Z</time>
      </trkpt>
      <trkpt lat="48.67649" lon="1.91596">
        <ele>121.2</ele>
        <time>2026-01-30T08:13:09Z</time>
      </trkpt>
      <trkpt lat="48.67653" lon="1.9159">
        <ele>121.2</ele>
        <time>2026-01-30T08:13:10Z</time>
      </trkpt>
      <trkpt lat="48.67656" lon="1.91582">
        <ele>121.2</ele>
        <time>2026-01-30T08:13:11Z</time>
      </trkpt>
      <trkpt lat="48.67657" lon="1.91573">
        <ele>120.4</ele>
        <time>2026-01-30T08:13:12Z</time>
      </trkpt>
      <trkpt lat="48.67659" lon="1.91564">
        <ele>120.4</ele>
        <time>2026-01-30T08:13:13Z</time>
      </trkpt>
      <trkpt lat="48.6766" lon="1.91555">
        <ele>120.4</ele>
        <time>2026-01-30T08:13:14Z</time>
      </trkpt>
      <trkpt lat="48.67661" lon="1.91546">
        <ele>119.8</ele>
        <time>2026-01-30T08:13:15Z</time>
      </trkpt>
      <trkpt lat="48.67662" lon="1.91537">
        <ele>120.4</ele>
        <time>2026-01-30T08:13:16Z</time>
      </trkpt>
      <trkpt lat="48.67664" lon="1.91527">
        <ele>120.4</ele>
        <time>2026-01-30T08:13:17Z</time>
      </trkpt>
      <trkpt lat="48.67665" lon="1.91518">
        <ele>120.4</ele>
        <time>2026-01-30T08:13:18Z</time>
      </trkpt>
      <trkpt lat="48.67667" lon="1.91509">
        <ele>120</ele>
        <time>2026-01-30T08:13:19Z</time>
      </trkpt>
      <trkpt lat="48.67668" lon="1.915">
        <ele>120</ele>
        <time>2026-01-30T08:13:20Z</time>
      </trkpt>
      <trkpt lat="48.67669" lon="1.91491">
        <ele>120</ele>
        <time>2026-01-30T08:13:21Z</time>
      </trkpt>
      <trkpt lat="48.67671" lon="1.91482">
        <ele>120</ele>
        <time>2026-01-30T08:13:22Z</time>
      </trkpt>
      <trkpt lat="48.67672" lon="1.91473">
        <ele>120</ele>
        <time>2026-01-30T08:13:23Z</time>
      </trkpt>
      <trkpt lat="48.67673" lon="1.91463">
        <ele>119.8</ele>
        <time>2026-01-30T08:13:24Z</time>
      </trkpt>
      <trkpt lat="48.67675" lon="1.91454">
        <ele>119.8</ele>
        <time>2026-01-30T08:13:25Z</time>
      </trkpt>
      <trkpt lat="48.67676" lon="1.91445">
        <ele>119.8</ele>
        <time>2026-01-30T08:13:26Z</time>
      </trkpt>
      <trkpt lat="48.67678" lon="1.91436">
        <ele>119.8</ele>
        <time>2026-01-30T08:13:27Z</time>
      </trkpt>
      <trkpt lat="48.67679" lon="1.91427">
        <ele>120.6</ele>
        <time>2026-01-30T08:13:28Z</time>
      </trkpt>
      <trkpt lat="48.67681" lon="1.91418">
        <ele>120.6</ele>
        <time>2026-01-30T08:13:29Z</time>
      </trkpt>
      <trkpt lat="48.67683" lon="1.91409">
        <ele>120.6</ele>
        <time>2026-01-30T08:13:30Z</time>
      </trkpt>
      <trkpt lat="48.67684" lon="1.91399">
        <ele>120.2</ele>
        <time>2026-01-30T08:13:31Z</time>
      </trkpt>
      <trkpt lat="48.67686" lon="1.91389">
        <ele>118.8</ele>
        <time>2026-01-30T08:13:32Z</time>
      </trkpt>
      <trkpt lat="48.67687" lon="1.91378">
        <ele>118.8</ele>
        <time>2026-01-30T08:13:33Z</time>
      </trkpt>
      <trkpt lat="48.67689" lon="1.91367">
        <ele>118.8</ele>
        <time>2026-01-30T08:13:34Z</time>
      </trkpt>
      <trkpt lat="48.6769" lon="1.91356">
        <ele>118.8</ele>
        <time>2026-01-30T08:13:35Z</time>
      </trkpt>
      <trkpt lat="48.67692" lon="1.91345">
        <ele>118.6</ele>
        <time>2026-01-30T08:13:36Z</time>
      </trkpt>
      <trkpt lat="48.67693" lon="1.91334">
        <ele>118.6</ele>
        <time>2026-01-30T08:13:37Z</time>
      </trkpt>
      <trkpt lat="48.67695" lon="1.91324">
        <ele>118.6</ele>
        <time>2026-01-30T08:13:38Z</time>
      </trkpt>
      <trkpt lat="48.67697" lon="1.91314">
        <ele>119.4</ele>
        <time>2026-01-30T08:13:39Z</time>
      </trkpt>
      <trkpt lat="48.67698" lon="1.91304">
        <ele>119.6</ele>
        <time>2026-01-30T08:13:40Z</time>
      </trkpt>
      <trkpt lat="48.677" lon="1.91293">
        <ele>119.6</ele>
        <time>2026-01-30T08:13:41Z</time>
      </trkpt>
      <trkpt lat="48.67702" lon="1.91283">
        <ele>119.6</ele>
        <time>2026-01-30T08:13:42Z</time>
      </trkpt>
      <trkpt lat="48.67703" lon="1.91273">
        <ele>119.6</ele>
        <time>2026-01-30T08:13:43Z</time>
      </trkpt>
      <trkpt lat="48.67705" lon="1.91263">
        <ele>119.6</ele>
        <time>2026-01-30T08:13:44Z</time>
      </trkpt>
      <trkpt lat="48.67706" lon="1.91252">
        <ele>119.6</ele>
        <time>2026-01-30T08:13:45Z</time>
      </trkpt>
      <trkpt lat="48.67707" lon="1.91242">
        <ele>119.6</ele>
        <time>2026-01-30T08:13:46Z</time>
      </trkpt>
      <trkpt lat="48.67706" lon="1.91233">
        <ele>120.2</ele>
        <time>2026-01-30T08:13:47Z</time>
      </trkpt>
      <trkpt lat="48.67704" lon="1.91223">
        <ele>119.4</ele>
        <time>2026-01-30T08:13:48Z</time>
      </trkpt>
      <trkpt lat="48.67702" lon="1.91213">
        <ele>119.4</ele>
        <time>2026-01-30T08:13:49Z</time>
      </trkpt>
      <trkpt lat="48.67702" lon="1.91203">
        <ele>119.4</ele>
        <time>2026-01-30T08:13:50Z</time>
      </trkpt>
      <trkpt lat="48.67701" lon="1.91193">
        <ele>119.4</ele>
        <time>2026-01-30T08:13:51Z</time>
      </trkpt>
      <trkpt lat="48.67702" lon="1.91182">
        <ele>119.2</ele>
        <time>2026-01-30T08:13:52Z</time>
      </trkpt>
      <trkpt lat="48.67702" lon="1.91172">
        <ele>119.2</ele>
        <time>2026-01-30T08:13:53Z</time>
      </trkpt>
      <trkpt lat="48.67702" lon="1.91162">
        <ele>119.2</ele>
        <time>2026-01-30T08:13:54Z</time>
      </trkpt>
      <trkpt lat="48.67701" lon="1.91152">
        <ele>119.6</ele>
        <time>2026-01-30T08:13:55Z</time>
      </trkpt>
      <trkpt lat="48.67701" lon="1.91142">
        <ele>119.8</ele>
        <time>2026-01-30T08:13:56Z</time>
      </trkpt>
      <trkpt lat="48.677" lon="1.91132">
        <ele>119.8</ele>
        <time>2026-01-30T08:13:57Z</time>
      </trkpt>
      <trkpt lat="48.677" lon="1.91122">
        <ele>119.8</ele>
        <time>2026-01-30T08:13:58Z</time>
      </trkpt>
      <trkpt lat="48.67699" lon="1.91111">
        <ele>119.8</ele>
        <time>2026-01-30T08:13:59Z</time>
      </trkpt>
      <trkpt lat="48.67699" lon="1.91101">
        <ele>119.8</ele>
        <time>2026-01-30T08:14:00Z</time>
      </trkpt>
      <trkpt lat="48.67699" lon="1.91091">
        <ele>119.8</ele>
        <time>2026-01-30T08:14:01Z</time>
      </trkpt>
      <trkpt lat="48.67699" lon="1.91081">
        <ele>119.8</ele>
        <time>2026-01-30T08:14:02Z</time>
      </trkpt>
      <trkpt lat="48.67699" lon="1.91072">
        <ele>119.8</ele>
        <time>2026-01-30T08:14:03Z</time>
      </trkpt>
      <trkpt lat="48.67699" lon="1.91062">
        <ele>119.8</ele>
        <time>2026-01-30T08:14:04Z</time>
      </trkpt>
      <trkpt lat="48.67699" lon="1.91051">
        <ele>119.8</ele>
        <time>2026-01-30T08:14:05Z</time>
      </trkpt>
      <trkpt lat="48.67699" lon="1.91041">
        <ele>119.8</ele>
        <time>2026-01-30T08:14:06Z</time>
      </trkpt>
      <trkpt lat="48.67699" lon="1.91031">
        <ele>119.8</ele>
        <time>2026-01-30T08:14:07Z</time>
      </trkpt>
      <trkpt lat="48.67699" lon="1.91021">
        <ele>119.6</ele>
        <time>2026-01-30T08:14:08Z</time>
      </trkpt>
      <trkpt lat="48.677" lon="1.91011">
        <ele>119.6</ele>
        <time>2026-01-30T08:14:09Z</time>
      </trkpt>
      <trkpt lat="48.677" lon="1.91001">
        <ele>119.6</ele>
        <time>2026-01-30T08:14:10Z</time>
      </trkpt>
      <trkpt lat="48.67701" lon="1.90991">
        <ele>119.6</ele>
        <time>2026-01-30T08:14:11Z</time>
      </trkpt>
      <trkpt lat="48.67701" lon="1.90981">
        <ele>119.6</ele>
        <time>2026-01-30T08:14:12Z</time>
      </trkpt>
      <trkpt lat="48.67702" lon="1.9097">
        <ele>119.6</ele>
        <time>2026-01-30T08:14:13Z</time>
      </trkpt>
      <trkpt lat="48.67702" lon="1.9096">
        <ele>119.6</ele>
        <time>2026-01-30T08:14:14Z</time>
      </trkpt>
      <trkpt lat="48.67703" lon="1.9095">
        <ele>119.6</ele>
        <time>2026-01-30T08:14:15Z</time>
      </trkpt>
      <trkpt lat="48.67703" lon="1.9094">
        <ele>120</ele>
        <time>2026-01-30T08:14:16Z</time>
      </trkpt>
      <trkpt lat="48.67704" lon="1.9093">
        <ele>120</ele>
        <time>2026-01-30T08:14:17Z</time>
      </trkpt>
      <trkpt lat="48.67705" lon="1.9092">
        <ele>120</ele>
        <time>2026-01-30T08:14:18Z</time>
      </trkpt>
      <trkpt lat="48.67705" lon="1.9091">
        <ele>119.8</ele>
        <time>2026-01-30T08:14:19Z</time>
      </trkpt>
      <trkpt lat="48.67706" lon="1.909">
        <ele>119.6</ele>
        <time>2026-01-30T08:14:20Z</time>
      </trkpt>
      <trkpt lat="48.67707" lon="1.90891">
        <ele>119.6</ele>
        <time>2026-01-30T08:14:21Z</time>
      </trkpt>
      <trkpt lat="48.67709" lon="1.90881">
        <ele>119.6</ele>
        <time>2026-01-30T08:14:22Z</time>
      </trkpt>
      <trkpt lat="48.6771" lon="1.90871">
        <ele>119.6</ele>
        <time>2026-01-30T08:14:23Z</time>
      </trkpt>
      <trkpt lat="48.67711" lon="1.90861">
        <ele>119.8</ele>
        <time>2026-01-30T08:14:24Z</time>
      </trkpt>
      <trkpt lat="48.67712" lon="1.90851">
        <ele>119.8</ele>
        <time>2026-01-30T08:14:25Z</time>
      </trkpt>
      <trkpt lat="48.67713" lon="1.90841">
        <ele>119.8</ele>
        <time>2026-01-30T08:14:26Z</time>
      </trkpt>
      <trkpt lat="48.67715" lon="1.90832">
        <ele>120</ele>
        <time>2026-01-30T08:14:27Z</time>
      </trkpt>
      <trkpt lat="48.67716" lon="1.90822">
        <ele>120.2</ele>
        <time>2026-01-30T08:14:28Z</time>
      </trkpt>
      <trkpt lat="48.67718" lon="1.90813">
        <ele>120.2</ele>
        <time>2026-01-30T08:14:29Z</time>
      </trkpt>
      <trkpt lat="48.67719" lon="1.90803">
        <ele>120.2</ele>
        <time>2026-01-30T08:14:30Z</time>
      </trkpt>
      <trkpt lat="48.6772" lon="1.90794">
        <ele>120.2</ele>
        <time>2026-01-30T08:14:31Z</time>
      </trkpt>
      <trkpt lat="48.67722" lon="1.90784">
        <ele>120</ele>
        <time>2026-01-30T08:14:32Z</time>
      </trkpt>
      <trkpt lat="48.67723" lon="1.90774">
        <ele>120</ele>
        <time>2026-01-30T08:14:33Z</time>
      </trkpt>
      <trkpt lat="48.67724" lon="1.90765">
        <ele>120</ele>
        <time>2026-01-30T08:14:34Z</time>
      </trkpt>
      <trkpt lat="48.67726" lon="1.90755">
        <ele>120</ele>
        <time>2026-01-30T08:14:35Z</time>
      </trkpt>
      <trkpt lat="48.67727" lon="1.90746">
        <ele>120</ele>
        <time>2026-01-30T08:14:36Z</time>
      </trkpt>
      <trkpt lat="48.67728" lon="1.90736">
        <ele>120</ele>
        <time>2026-01-30T08:14:37Z</time>
      </trkpt>
      <trkpt lat="48.67729" lon="1.90726">
        <ele>120</ele>
        <time>2026-01-30T08:14:38Z</time>
      </trkpt>
      <trkpt lat="48.6773" lon="1.90717">
        <ele>119.6</ele>
        <time>2026-01-30T08:14:39Z</time>
      </trkpt>
      <trkpt lat="48.67732" lon="1.90707">
        <ele>119.8</ele>
        <time>2026-01-30T08:14:40Z</time>
      </trkpt>
      <trkpt lat="48.67733" lon="1.90698">
        <ele>119.8</ele>
        <time>2026-01-30T08:14:41Z</time>
      </trkpt>
      <trkpt lat="48.67734" lon="1.90688">
        <ele>119.8</ele>
        <time>2026-01-30T08:14:42Z</time>
      </trkpt>
      <trkpt lat="48.67735" lon="1.90678">
        <ele>119.2</ele>
        <time>2026-01-30T08:14:43Z</time>
      </trkpt>
      <trkpt lat="48.67736" lon="1.90669">
        <ele>119.8</ele>
        <time>2026-01-30T08:14:44Z</time>
      </trkpt>
      <trkpt lat="48.67737" lon="1.90659">
        <ele>119.8</ele>
        <time>2026-01-30T08:14:45Z</time>
      </trkpt>
      <trkpt lat="48.67738" lon="1.90649">
        <ele>119.8</ele>
        <time>2026-01-30T08:14:46Z</time>
      </trkpt>
      <trkpt lat="48.6774" lon="1.9064">
        <ele>119.8</ele>
        <time>2026-01-30T08:14:47Z</time>
      </trkpt>
      <trkpt lat="48.67741" lon="1.9063">
        <ele>120</ele>
        <time>2026-01-30T08:14:48Z</time>
      </trkpt>
      <trkpt lat="48.67742" lon="1.9062">
        <ele>120</ele>
        <time>2026-01-30T08:14:49Z</time>
      </trkpt>
      <trkpt lat="48.67743" lon="1.90611">
        <ele>120</ele>
        <time>2026-01-30T08:14:50Z</time>
      </trkpt>
      <trkpt lat="48.67744" lon="1.90601">
        <ele>119.6</ele>
        <time>2026-01-30T08:14:51Z</time>
      </trkpt>
      <trkpt lat="48.67745" lon="1.90591">
        <ele>119.8</ele>
        <time>2026-01-30T08:14:52Z</time>
      </trkpt>
      <trkpt lat="48.67747" lon="1.90582">
        <ele>119.8</ele>
        <time>2026-01-30T08:14:53Z</time>
      </trkpt>
      <trkpt lat="48.67748" lon="1.90572">
        <ele>119.8</ele>
        <time>2026-01-30T08:14:54Z</time>
      </trkpt>
      <trkpt lat="48.67749" lon="1.90562">
        <ele>119.8</ele>
        <time>2026-01-30T08:14:55Z</time>
      </trkpt>
      <trkpt lat="48.67751" lon="1.90552">
        <ele>119.6</ele>
        <time>2026-01-30T08:14:56Z</time>
      </trkpt>
      <trkpt lat="48.67752" lon="1.90543">
        <ele>119.6</ele>
        <time>2026-01-30T08:14:57Z</time>
      </trkpt>
      <trkpt lat="48.67754" lon="1.90533">
        <ele>119.6</ele>
        <time>2026-01-30T08:14:58Z</time>
      </trkpt>
      <trkpt lat="48.67755" lon="1.90523">
        <ele>119.6</ele>
        <time>2026-01-30T08:14:59Z</time>
      </trkpt>
      <trkpt lat="48.67756" lon="1.90513">
        <ele>119.8</ele>
        <time>2026-01-30T08:15:00Z</time>
      </trkpt>
      <trkpt lat="48.67758" lon="1.90503">
        <ele>119.8</ele>
        <time>2026-01-30T08:15:01Z</time>
      </trkpt>
      <trkpt lat="48.67759" lon="1.90493">
        <ele>119.8</ele>
        <time>2026-01-30T08:15:02Z</time>
      </trkpt>
      <trkpt lat="48.67761" lon="1.90483">
        <ele>119.6</ele>
        <time>2026-01-30T08:15:03Z</time>
      </trkpt>
      <trkpt lat="48.67763" lon="1.90473">
        <ele>120</ele>
        <time>2026-01-30T08:15:04Z</time>
      </trkpt>
      <trkpt lat="48.67764" lon="1.90463">
        <ele>120</ele>
        <time>2026-01-30T08:15:05Z</time>
      </trkpt>
      <trkpt lat="48.67765" lon="1.90453">
        <ele>120</ele>
        <time>2026-01-30T08:15:06Z</time>
      </trkpt>
      <trkpt lat="48.67767" lon="1.90443">
        <ele>119.8</ele>
        <time>2026-01-30T08:15:07Z</time>
      </trkpt>
      <trkpt lat="48.67768" lon="1.90433">
        <ele>119.8</ele>
        <time>2026-01-30T08:15:08Z</time>
      </trkpt>
      <trkpt lat="48.6777" lon="1.90424">
        <ele>119.8</ele>
        <time>2026-01-30T08:15:09Z</time>
      </trkpt>
      <trkpt lat="48.67771" lon="1.90414">
        <ele>119.8</ele>
        <time>2026-01-30T08:15:10Z</time>
      </trkpt>
      <trkpt lat="48.67773" lon="1.90404">
        <ele>119.8</ele>
        <time>2026-01-30T08:15:11Z</time>
      </trkpt>
      <trkpt lat="48.67774" lon="1.90394">
        <ele>119.8</ele>
        <time>2026-01-30T08:15:12Z</time>
      </trkpt>
      <trkpt lat="48.67776" lon="1.90384">
        <ele>119.8</ele>
        <time>2026-01-30T08:15:13Z</time>
      </trkpt>
      <trkpt lat="48.67777" lon="1.90374">
        <ele>119.8</ele>
        <time>2026-01-30T08:15:14Z</time>
      </trkpt>
      <trkpt lat="48.67779" lon="1.90364">
        <ele>119.8</ele>
        <time>2026-01-30T08:15:15Z</time>
      </trkpt>
      <trkpt lat="48.6778" lon="1.90355">
        <ele>119.8</ele>
        <time>2026-01-30T08:15:16Z</time>
      </trkpt>
      <trkpt lat="48.67782" lon="1.90345">
        <ele>119.8</ele>
        <time>2026-01-30T08:15:17Z</time>
      </trkpt>
      <trkpt lat="48.67783" lon="1.90335">
        <ele>119.8</ele>
        <time>2026-01-30T08:15:18Z</time>
      </trkpt>
      <trkpt lat="48.67785" lon="1.90325">
        <ele>119.8</ele>
        <time>2026-01-30T08:15:19Z</time>
      </trkpt>
      <trkpt lat="48.67787" lon="1.90315">
        <ele>119.8</ele>
        <time>2026-01-30T08:15:20Z</time>
      </trkpt>
      <trkpt lat="48.67788" lon="1.90305">
        <ele>119.8</ele>
        <time>2026-01-30T08:15:21Z</time>
      </trkpt>
      <trkpt lat="48.6779" lon="1.90295">
        <ele>119.8</ele>
        <time>2026-01-30T08:15:22Z</time>
      </trkpt>
      <trkpt lat="48.67791" lon="1.90286">
        <ele>119.8</ele>
        <time>2026-01-30T08:15:23Z</time>
      </trkpt>
      <trkpt lat="48.67793" lon="1.90276">
        <ele>119.8</ele>
        <time>2026-01-30T08:15:24Z</time>
      </trkpt>
      <trkpt lat="48.67794" lon="1.90266">
        <ele>119.8</ele>
        <time>2026-01-30T08:15:25Z</time>
      </trkpt>
      <trkpt lat="48.67796" lon="1.90256">
        <ele>119.8</ele>
        <time>2026-01-30T08:15:26Z</time>
      </trkpt>
      <trkpt lat="48.67797" lon="1.90246">
        <ele>119.8</ele>
        <time>2026-01-30T08:15:27Z</time>
      </trkpt>
      <trkpt lat="48.67799" lon="1.90236">
        <ele>119.8</ele>
        <time>2026-01-30T08:15:28Z</time>
      </trkpt>
      <trkpt lat="48.678" lon="1.90226">
        <ele>119.8</ele>
        <time>2026-01-30T08:15:29Z</time>
      </trkpt>
      <trkpt lat="48.67801" lon="1.90216">
        <ele>119.8</ele>
        <time>2026-01-30T08:15:30Z</time>
      </trkpt>
      <trkpt lat="48.67803" lon="1.90206">
        <ele>119.8</ele>
        <time>2026-01-30T08:15:31Z</time>
      </trkpt>
      <trkpt lat="48.67804" lon="1.90196">
        <ele>119.8</ele>
        <time>2026-01-30T08:15:32Z</time>
      </trkpt>
      <trkpt lat="48.67806" lon="1.90186">
        <ele>119.8</ele>
        <time>2026-01-30T08:15:33Z</time>
      </trkpt>
      <trkpt lat="48.67808" lon="1.90176">
        <ele>119.8</ele>
        <time>2026-01-30T08:15:34Z</time>
      </trkpt>
      <trkpt lat="48.67809" lon="1.90166">
        <ele>119.8</ele>
        <time>2026-01-30T08:15:35Z</time>
      </trkpt>
      <trkpt lat="48.67811" lon="1.90156">
        <ele>119.2</ele>
        <time>2026-01-30T08:15:36Z</time>
      </trkpt>
      <trkpt lat="48.67813" lon="1.90146">
        <ele>119.2</ele>
        <time>2026-01-30T08:15:37Z</time>
      </trkpt>
      <trkpt lat="48.67815" lon="1.90136">
        <ele>119.2</ele>
        <time>2026-01-30T08:15:38Z</time>
      </trkpt>
      <trkpt lat="48.67818" lon="1.90126">
        <ele>119.8</ele>
        <time>2026-01-30T08:15:39Z</time>
      </trkpt>
      <trkpt lat="48.67821" lon="1.90117">
        <ele>119.2</ele>
        <time>2026-01-30T08:15:40Z</time>
      </trkpt>
      <trkpt lat="48.67825" lon="1.90108">
        <ele>119.2</ele>
        <time>2026-01-30T08:15:41Z</time>
      </trkpt>
      <trkpt lat="48.67829" lon="1.901">
        <ele>119.2</ele>
        <time>2026-01-30T08:15:42Z</time>
      </trkpt>
      <trkpt lat="48.67834" lon="1.90092">
        <ele>119.2</ele>
        <time>2026-01-30T08:15:43Z</time>
      </trkpt>
      <trkpt lat="48.67839" lon="1.90084">
        <ele>120</ele>
        <time>2026-01-30T08:15:44Z</time>
      </trkpt>
      <trkpt lat="48.67844" lon="1.90077">
        <ele>120</ele>
        <time>2026-01-30T08:15:45Z</time>
      </trkpt>
      <trkpt lat="48.67849" lon="1.9007">
        <ele>120</ele>
        <time>2026-01-30T08:15:46Z</time>
      </trkpt>
      <trkpt lat="48.67855" lon="1.90064">
        <ele>120</ele>
        <time>2026-01-30T08:15:47Z</time>
      </trkpt>
      <trkpt lat="48.67861" lon="1.90058">
        <ele>119.8</ele>
        <time>2026-01-30T08:15:48Z</time>
      </trkpt>
      <trkpt lat="48.67866" lon="1.90052">
        <ele>119.8</ele>
        <time>2026-01-30T08:15:49Z</time>
      </trkpt>
      <trkpt lat="48.67872" lon="1.90045">
        <ele>119.8</ele>
        <time>2026-01-30T08:15:50Z</time>
      </trkpt>
      <trkpt lat="48.67878" lon="1.90039">
        <ele>119.4</ele>
        <time>2026-01-30T08:15:51Z</time>
      </trkpt>
      <trkpt lat="48.67884" lon="1.90034">
        <ele>119.8</ele>
        <time>2026-01-30T08:15:52Z</time>
      </trkpt>
      <trkpt lat="48.6789" lon="1.90028">
        <ele>119.8</ele>
        <time>2026-01-30T08:15:53Z</time>
      </trkpt>
      <trkpt lat="48.67896" lon="1.90022">
        <ele>119.8</ele>
        <time>2026-01-30T08:15:54Z</time>
      </trkpt>
      <trkpt lat="48.67901" lon="1.90016">
        <ele>119.8</ele>
        <time>2026-01-30T08:15:55Z</time>
      </trkpt>
      <trkpt lat="48.67907" lon="1.9001">
        <ele>119.8</ele>
        <time>2026-01-30T08:15:56Z</time>
      </trkpt>
      <trkpt lat="48.67913" lon="1.90004">
        <ele>119.8</ele>
        <time>2026-01-30T08:15:57Z</time>
      </trkpt>
      <trkpt lat="48.67919" lon="1.89998">
        <ele>119.8</ele>
        <time>2026-01-30T08:15:58Z</time>
      </trkpt>
      <trkpt lat="48.67925" lon="1.89992">
        <ele>119.8</ele>
        <time>2026-01-30T08:15:59Z</time>
      </trkpt>
      <trkpt lat="48.67931" lon="1.89987">
        <ele>119.6</ele>
        <time>2026-01-30T08:16:00Z</time>
      </trkpt>
      <trkpt lat="48.67936" lon="1.89981">
        <ele>119.6</ele>
        <time>2026-01-30T08:16:01Z</time>
      </trkpt>
      <trkpt lat="48.67942" lon="1.89975">
        <ele>119.6</ele>
        <time>2026-01-30T08:16:02Z</time>
      </trkpt>
      <trkpt lat="48.67948" lon="1.89969">
        <ele>119.6</ele>
        <time>2026-01-30T08:16:03Z</time>
      </trkpt>
      <trkpt lat="48.67954" lon="1.89963">
        <ele>119.8</ele>
        <time>2026-01-30T08:16:04Z</time>
      </trkpt>
      <trkpt lat="48.6796" lon="1.89958">
        <ele>119.8</ele>
        <time>2026-01-30T08:16:05Z</time>
      </trkpt>
      <trkpt lat="48.67966" lon="1.89953">
        <ele>119.8</ele>
        <time>2026-01-30T08:16:06Z</time>
      </trkpt>
      <trkpt lat="48.67972" lon="1.89947">
        <ele>119.8</ele>
        <time>2026-01-30T08:16:07Z</time>
      </trkpt>
      <trkpt lat="48.67978" lon="1.89942">
        <ele>119.2</ele>
        <time>2026-01-30T08:16:08Z</time>
      </trkpt>
      <trkpt lat="48.67985" lon="1.89936">
        <ele>119.2</ele>
        <time>2026-01-30T08:16:09Z</time>
      </trkpt>
      <trkpt lat="48.67991" lon="1.8993">
        <ele>119.2</ele>
        <time>2026-01-30T08:16:10Z</time>
      </trkpt>
      <trkpt lat="48.67997" lon="1.89925">
        <ele>119.2</ele>
        <time>2026-01-30T08:16:11Z</time>
      </trkpt>
      <trkpt lat="48.68003" lon="1.89919">
        <ele>119.2</ele>
        <time>2026-01-30T08:16:12Z</time>
      </trkpt>
      <trkpt lat="48.6801" lon="1.89913">
        <ele>119.2</ele>
        <time>2026-01-30T08:16:13Z</time>
      </trkpt>
      <trkpt lat="48.68016" lon="1.89908">
        <ele>119.2</ele>
        <time>2026-01-30T08:16:14Z</time>
      </trkpt>
      <trkpt lat="48.68022" lon="1.89902">
        <ele>118.6</ele>
        <time>2026-01-30T08:16:15Z</time>
      </trkpt>
      <trkpt lat="48.68028" lon="1.89896">
        <ele>119</ele>
        <time>2026-01-30T08:16:16Z</time>
      </trkpt>
      <trkpt lat="48.68034" lon="1.89889">
        <ele>119</ele>
        <time>2026-01-30T08:16:17Z</time>
      </trkpt>
      <trkpt lat="48.6804" lon="1.89881">
        <ele>119</ele>
        <time>2026-01-30T08:16:18Z</time>
      </trkpt>
      <trkpt lat="48.68044" lon="1.89873">
        <ele>119</ele>
        <time>2026-01-30T08:16:19Z</time>
      </trkpt>
      <trkpt lat="48.68048" lon="1.89863">
        <ele>117.8</ele>
        <time>2026-01-30T08:16:20Z</time>
      </trkpt>
      <trkpt lat="48.6805" lon="1.89853">
        <ele>117.8</ele>
        <time>2026-01-30T08:16:21Z</time>
      </trkpt>
      <trkpt lat="48.68052" lon="1.89843">
        <ele>117.8</ele>
        <time>2026-01-30T08:16:22Z</time>
      </trkpt>
      <trkpt lat="48.68054" lon="1.89833">
        <ele>117.8</ele>
        <time>2026-01-30T08:16:23Z</time>
      </trkpt>
      <trkpt lat="48.68054" lon="1.89823">
        <ele>117.4</ele>
        <time>2026-01-30T08:16:24Z</time>
      </trkpt>
      <trkpt lat="48.68054" lon="1.89813">
        <ele>117.4</ele>
        <time>2026-01-30T08:16:25Z</time>
      </trkpt>
      <trkpt lat="48.68054" lon="1.89803">
        <ele>117.4</ele>
        <time>2026-01-30T08:16:26Z</time>
      </trkpt>
      <trkpt lat="48.68053" lon="1.89792">
        <ele>117.4</ele>
        <time>2026-01-30T08:16:27Z</time>
      </trkpt>
      <trkpt lat="48.68053" lon="1.89782">
        <ele>117.6</ele>
        <time>2026-01-30T08:16:28Z</time>
      </trkpt>
      <trkpt lat="48.68052" lon="1.89772">
        <ele>117.6</ele>
        <time>2026-01-30T08:16:29Z</time>
      </trkpt>
      <trkpt lat="48.68051" lon="1.89762">
        <ele>117.6</ele>
        <time>2026-01-30T08:16:30Z</time>
      </trkpt>
      <trkpt lat="48.68051" lon="1.89752">
        <ele>118</ele>
        <time>2026-01-30T08:16:31Z</time>
      </trkpt>
      <trkpt lat="48.6805" lon="1.89742">
        <ele>118.2</ele>
        <time>2026-01-30T08:16:32Z</time>
      </trkpt>
      <trkpt lat="48.6805" lon="1.89732">
        <ele>118.2</ele>
        <time>2026-01-30T08:16:33Z</time>
      </trkpt>
      <trkpt lat="48.6805" lon="1.89722">
        <ele>118.2</ele>
        <time>2026-01-30T08:16:34Z</time>
      </trkpt>
      <trkpt lat="48.68049" lon="1.89712">
        <ele>118.2</ele>
        <time>2026-01-30T08:16:35Z</time>
      </trkpt>
      <trkpt lat="48.68048" lon="1.89702">
        <ele>118.4</ele>
        <time>2026-01-30T08:16:36Z</time>
      </trkpt>
      <trkpt lat="48.68048" lon="1.89693">
        <ele>118.4</ele>
        <time>2026-01-30T08:16:37Z</time>
      </trkpt>
      <trkpt lat="48.68048" lon="1.89683">
        <ele>118.4</ele>
        <time>2026-01-30T08:16:38Z</time>
      </trkpt>
      <trkpt lat="48.68048" lon="1.89673">
        <ele>118.4</ele>
        <time>2026-01-30T08:16:39Z</time>
      </trkpt>
      <trkpt lat="48.68047" lon="1.89664">
        <ele>118.6</ele>
        <time>2026-01-30T08:16:40Z</time>
      </trkpt>
      <trkpt lat="48.68046" lon="1.89654">
        <ele>118.6</ele>
        <time>2026-01-30T08:16:41Z</time>
      </trkpt>
      <trkpt lat="48.68046" lon="1.89644">
        <ele>118.6</ele>
        <time>2026-01-30T08:16:42Z</time>
      </trkpt>
      <trkpt lat="48.68045" lon="1.89635">
        <ele>118.6</ele>
        <time>2026-01-30T08:16:43Z</time>
      </trkpt>
      <trkpt lat="48.68044" lon="1.89625">
        <ele>119</ele>
        <time>2026-01-30T08:16:44Z</time>
      </trkpt>
      <trkpt lat="48.68043" lon="1.89615">
        <ele>119</ele>
        <time>2026-01-30T08:16:45Z</time>
      </trkpt>
      <trkpt lat="48.68043" lon="1.89606">
        <ele>119</ele>
        <time>2026-01-30T08:16:46Z</time>
      </trkpt>
      <trkpt lat="48.68043" lon="1.89597">
        <ele>118.6</ele>
        <time>2026-01-30T08:16:47Z</time>
      </trkpt>
      <trkpt lat="48.68042" lon="1.89587">
        <ele>118.6</ele>
        <time>2026-01-30T08:16:48Z</time>
      </trkpt>
      <trkpt lat="48.68042" lon="1.89578">
        <ele>118.6</ele>
        <time>2026-01-30T08:16:49Z</time>
      </trkpt>
      <trkpt lat="48.68041" lon="1.89569">
        <ele>118.6</ele>
        <time>2026-01-30T08:16:50Z</time>
      </trkpt>
      <trkpt lat="48.6804" lon="1.8956">
        <ele>119.2</ele>
        <time>2026-01-30T08:16:51Z</time>
      </trkpt>
      <trkpt lat="48.6804" lon="1.8955">
        <ele>119</ele>
        <time>2026-01-30T08:16:52Z</time>
      </trkpt>
      <trkpt lat="48.68039" lon="1.8954">
        <ele>119</ele>
        <time>2026-01-30T08:16:53Z</time>
      </trkpt>
      <trkpt lat="48.68038" lon="1.8953">
        <ele>119</ele>
        <time>2026-01-30T08:16:54Z</time>
      </trkpt>
      <trkpt lat="48.68038" lon="1.8952">
        <ele>118.6</ele>
        <time>2026-01-30T08:16:55Z</time>
      </trkpt>
      <trkpt lat="48.68037" lon="1.89509">
        <ele>119</ele>
        <time>2026-01-30T08:16:56Z</time>
      </trkpt>
      <trkpt lat="48.68036" lon="1.89499">
        <ele>119</ele>
        <time>2026-01-30T08:16:57Z</time>
      </trkpt>
      <trkpt lat="48.68035" lon="1.89489">
        <ele>119</ele>
        <time>2026-01-30T08:16:58Z</time>
      </trkpt>
      <trkpt lat="48.68035" lon="1.89478">
        <ele>119.4</ele>
        <time>2026-01-30T08:16:59Z</time>
      </trkpt>
      <trkpt lat="48.68034" lon="1.89468">
        <ele>119</ele>
        <time>2026-01-30T08:17:00Z</time>
      </trkpt>
      <trkpt lat="48.68034" lon="1.89458">
        <ele>119</ele>
        <time>2026-01-30T08:17:01Z</time>
      </trkpt>
      <trkpt lat="48.68033" lon="1.89448">
        <ele>119</ele>
        <time>2026-01-30T08:17:02Z</time>
      </trkpt>
      <trkpt lat="48.68032" lon="1.89438">
        <ele>119</ele>
        <time>2026-01-30T08:17:03Z</time>
      </trkpt>
      <trkpt lat="48.68031" lon="1.89428">
        <ele>119</ele>
        <time>2026-01-30T08:17:04Z</time>
      </trkpt>
      <trkpt lat="48.6803" lon="1.89418">
        <ele>119</ele>
        <time>2026-01-30T08:17:05Z</time>
      </trkpt>
      <trkpt lat="48.6803" lon="1.89409">
        <ele>119</ele>
        <time>2026-01-30T08:17:06Z</time>
      </trkpt>
      <trkpt lat="48.6803" lon="1.89399">
        <ele>119</ele>
        <time>2026-01-30T08:17:07Z</time>
      </trkpt>
      <trkpt lat="48.68031" lon="1.89389">
        <ele>119.8</ele>
        <time>2026-01-30T08:17:08Z</time>
      </trkpt>
      <trkpt lat="48.68033" lon="1.89379">
        <ele>119.8</ele>
        <time>2026-01-30T08:17:09Z</time>
      </trkpt>
      <trkpt lat="48.68037" lon="1.89372">
        <ele>119.8</ele>
        <time>2026-01-30T08:17:10Z</time>
      </trkpt>
      <trkpt lat="48.68042" lon="1.89366">
        <ele>120.2</ele>
        <time>2026-01-30T08:17:11Z</time>
      </trkpt>
      <trkpt lat="48.68048" lon="1.89362">
        <ele>120</ele>
        <time>2026-01-30T08:17:12Z</time>
      </trkpt>
      <trkpt lat="48.68054" lon="1.89358">
        <ele>120</ele>
        <time>2026-01-30T08:17:13Z</time>
      </trkpt>
      <trkpt lat="48.6806" lon="1.89354">
        <ele>120</ele>
        <time>2026-01-30T08:17:14Z</time>
      </trkpt>
      <trkpt lat="48.68066" lon="1.8935">
        <ele>120.8</ele>
        <time>2026-01-30T08:17:15Z</time>
      </trkpt>
      <trkpt lat="48.68072" lon="1.89347">
        <ele>121</ele>
        <time>2026-01-30T08:17:16Z</time>
      </trkpt>
      <trkpt lat="48.68078" lon="1.89343">
        <ele>121</ele>
        <time>2026-01-30T08:17:17Z</time>
      </trkpt>
      <trkpt lat="48.68084" lon="1.8934">
        <ele>121</ele>
        <time>2026-01-30T08:17:18Z</time>
      </trkpt>
      <trkpt lat="48.68089" lon="1.89336">
        <ele>120.6</ele>
        <time>2026-01-30T08:17:19Z</time>
      </trkpt>
      <trkpt lat="48.68096" lon="1.89333">
        <ele>121</ele>
        <time>2026-01-30T08:17:20Z</time>
      </trkpt>
      <trkpt lat="48.68102" lon="1.89329">
        <ele>121</ele>
        <time>2026-01-30T08:17:21Z</time>
      </trkpt>
      <trkpt lat="48.68108" lon="1.89325">
        <ele>121</ele>
        <time>2026-01-30T08:17:22Z</time>
      </trkpt>
      <trkpt lat="48.68114" lon="1.89322">
        <ele>120.2</ele>
        <time>2026-01-30T08:17:23Z</time>
      </trkpt>
      <trkpt lat="48.6812" lon="1.89319">
        <ele>120.4</ele>
        <time>2026-01-30T08:17:24Z</time>
      </trkpt>
      <trkpt lat="48.68126" lon="1.89315">
        <ele>120.4</ele>
        <time>2026-01-30T08:17:25Z</time>
      </trkpt>
      <trkpt lat="48.68132" lon="1.89311">
        <ele>120.4</ele>
        <time>2026-01-30T08:17:26Z</time>
      </trkpt>
      <trkpt lat="48.68138" lon="1.89307">
        <ele>120.6</ele>
        <time>2026-01-30T08:17:27Z</time>
      </trkpt>
      <trkpt lat="48.68144" lon="1.89303">
        <ele>120.6</ele>
        <time>2026-01-30T08:17:28Z</time>
      </trkpt>
      <trkpt lat="48.6815" lon="1.893">
        <ele>120.6</ele>
        <time>2026-01-30T08:17:29Z</time>
      </trkpt>
      <trkpt lat="48.68156" lon="1.89296">
        <ele>120.6</ele>
        <time>2026-01-30T08:17:30Z</time>
      </trkpt>
      <trkpt lat="48.68162" lon="1.89292">
        <ele>121.6</ele>
        <time>2026-01-30T08:17:31Z</time>
      </trkpt>
      <trkpt lat="48.68168" lon="1.89288">
        <ele>122</ele>
        <time>2026-01-30T08:17:32Z</time>
      </trkpt>
      <trkpt lat="48.68173" lon="1.89283">
        <ele>122</ele>
        <time>2026-01-30T08:17:33Z</time>
      </trkpt>
      <trkpt lat="48.68179" lon="1.89279">
        <ele>122</ele>
        <time>2026-01-30T08:17:34Z</time>
      </trkpt>
      <trkpt lat="48.68185" lon="1.89274">
        <ele>121.6</ele>
        <time>2026-01-30T08:17:35Z</time>
      </trkpt>
      <trkpt lat="48.68191" lon="1.8927">
        <ele>121.4</ele>
        <time>2026-01-30T08:17:36Z</time>
      </trkpt>
      <trkpt lat="48.68197" lon="1.89266">
        <ele>121.4</ele>
        <time>2026-01-30T08:17:37Z</time>
      </trkpt>
      <trkpt lat="48.68203" lon="1.89263">
        <ele>121.4</ele>
        <time>2026-01-30T08:17:38Z</time>
      </trkpt>
      <trkpt lat="48.68209" lon="1.89259">
        <ele>121.4</ele>
        <time>2026-01-30T08:17:39Z</time>
      </trkpt>
      <trkpt lat="48.68215" lon="1.89256">
        <ele>121.6</ele>
        <time>2026-01-30T08:17:40Z</time>
      </trkpt>
      <trkpt lat="48.68221" lon="1.89252">
        <ele>121.6</ele>
        <time>2026-01-30T08:17:41Z</time>
      </trkpt>
      <trkpt lat="48.68227" lon="1.89248">
        <ele>121.6</ele>
        <time>2026-01-30T08:17:42Z</time>
      </trkpt>
      <trkpt lat="48.68234" lon="1.89243">
        <ele>121.8</ele>
        <time>2026-01-30T08:17:43Z</time>
      </trkpt>
      <trkpt lat="48.6824" lon="1.89239">
        <ele>121.6</ele>
        <time>2026-01-30T08:17:44Z</time>
      </trkpt>
      <trkpt lat="48.68246" lon="1.89234">
        <ele>121.6</ele>
        <time>2026-01-30T08:17:45Z</time>
      </trkpt>
      <trkpt lat="48.68252" lon="1.89229">
        <ele>121.6</ele>
        <time>2026-01-30T08:17:46Z</time>
      </trkpt>
      <trkpt lat="48.68258" lon="1.89223">
        <ele>121.6</ele>
        <time>2026-01-30T08:17:47Z</time>
      </trkpt>
      <trkpt lat="48.68264" lon="1.89218">
        <ele>121.8</ele>
        <time>2026-01-30T08:17:48Z</time>
      </trkpt>
      <trkpt lat="48.6827" lon="1.89213">
        <ele>121.8</ele>
        <time>2026-01-30T08:17:49Z</time>
      </trkpt>
      <trkpt lat="48.68275" lon="1.89206">
        <ele>121.8</ele>
        <time>2026-01-30T08:17:50Z</time>
      </trkpt>
      <trkpt lat="48.68281" lon="1.89199">
        <ele>121.2</ele>
        <time>2026-01-30T08:17:51Z</time>
      </trkpt>
      <trkpt lat="48.68286" lon="1.89192">
        <ele>121.8</ele>
        <time>2026-01-30T08:17:52Z</time>
      </trkpt>
      <trkpt lat="48.68291" lon="1.89184">
        <ele>121.8</ele>
        <time>2026-01-30T08:17:53Z</time>
      </trkpt>
      <trkpt lat="48.68297" lon="1.89177">
        <ele>121.8</ele>
        <time>2026-01-30T08:17:54Z</time>
      </trkpt>
      <trkpt lat="48.68302" lon="1.89171">
        <ele>121.8</ele>
        <time>2026-01-30T08:17:55Z</time>
      </trkpt>
      <trkpt lat="48.68308" lon="1.89164">
        <ele>121.6</ele>
        <time>2026-01-30T08:17:56Z</time>
      </trkpt>
      <trkpt lat="48.68313" lon="1.89157">
        <ele>121.6</ele>
        <time>2026-01-30T08:17:57Z</time>
      </trkpt>
      <trkpt lat="48.68318" lon="1.89149">
        <ele>121.6</ele>
        <time>2026-01-30T08:17:58Z</time>
      </trkpt>
      <trkpt lat="48.68324" lon="1.89141">
        <ele>121.6</ele>
        <time>2026-01-30T08:17:59Z</time>
      </trkpt>
      <trkpt lat="48.68329" lon="1.89134">
        <ele>121.6</ele>
        <time>2026-01-30T08:18:00Z</time>
      </trkpt>
      <trkpt lat="48.68335" lon="1.89127">
        <ele>121.6</ele>
        <time>2026-01-30T08:18:01Z</time>
      </trkpt>
      <trkpt lat="48.6834" lon="1.89119">
        <ele>121.6</ele>
        <time>2026-01-30T08:18:02Z</time>
      </trkpt>
      <trkpt lat="48.68345" lon="1.89111">
        <ele>121.6</ele>
        <time>2026-01-30T08:18:03Z</time>
      </trkpt>
      <trkpt lat="48.68351" lon="1.89103">
        <ele>121</ele>
        <time>2026-01-30T08:18:04Z</time>
      </trkpt>
      <trkpt lat="48.68356" lon="1.89095">
        <ele>121</ele>
        <time>2026-01-30T08:18:05Z</time>
      </trkpt>
      <trkpt lat="48.68361" lon="1.89087">
        <ele>121</ele>
        <time>2026-01-30T08:18:06Z</time>
      </trkpt>
      <trkpt lat="48.68367" lon="1.89078">
        <ele>120.4</ele>
        <time>2026-01-30T08:18:07Z</time>
      </trkpt>
      <trkpt lat="48.68372" lon="1.8907">
        <ele>120.4</ele>
        <time>2026-01-30T08:18:08Z</time>
      </trkpt>
      <trkpt lat="48.68378" lon="1.89061">
        <ele>120.4</ele>
        <time>2026-01-30T08:18:09Z</time>
      </trkpt>
      <trkpt lat="48.68384" lon="1.89054">
        <ele>120.4</ele>
        <time>2026-01-30T08:18:10Z</time>
      </trkpt>
      <trkpt lat="48.6839" lon="1.89046">
        <ele>120.2</ele>
        <time>2026-01-30T08:18:11Z</time>
      </trkpt>
      <trkpt lat="48.68395" lon="1.89037">
        <ele>120</ele>
        <time>2026-01-30T08:18:12Z</time>
      </trkpt>
      <trkpt lat="48.68401" lon="1.89029">
        <ele>120</ele>
        <time>2026-01-30T08:18:13Z</time>
      </trkpt>
      <trkpt lat="48.68407" lon="1.8902">
        <ele>120</ele>
        <time>2026-01-30T08:18:14Z</time>
      </trkpt>
      <trkpt lat="48.68412" lon="1.89012">
        <ele>120</ele>
        <time>2026-01-30T08:18:15Z</time>
      </trkpt>
      <trkpt lat="48.68418" lon="1.89004">
        <ele>120</ele>
        <time>2026-01-30T08:18:16Z</time>
      </trkpt>
      <trkpt lat="48.68424" lon="1.88996">
        <ele>120</ele>
        <time>2026-01-30T08:18:17Z</time>
      </trkpt>
      <trkpt lat="48.6843" lon="1.88988">
        <ele>120</ele>
        <time>2026-01-30T08:18:18Z</time>
      </trkpt>
      <trkpt lat="48.68436" lon="1.88979">
        <ele>119.8</ele>
        <time>2026-01-30T08:18:19Z</time>
      </trkpt>
      <trkpt lat="48.68441" lon="1.88971">
        <ele>119.6</ele>
        <time>2026-01-30T08:18:20Z</time>
      </trkpt>
      <trkpt lat="48.68447" lon="1.88963">
        <ele>119.6</ele>
        <time>2026-01-30T08:18:21Z</time>
      </trkpt>
      <trkpt lat="48.68453" lon="1.88956">
        <ele>119.6</ele>
        <time>2026-01-30T08:18:22Z</time>
      </trkpt>
      <trkpt lat="48.68459" lon="1.88948">
        <ele>119.4</ele>
        <time>2026-01-30T08:18:23Z</time>
      </trkpt>
      <trkpt lat="48.68465" lon="1.88939">
        <ele>119.4</ele>
        <time>2026-01-30T08:18:24Z</time>
      </trkpt>
      <trkpt lat="48.6847" lon="1.88931">
        <ele>119.4</ele>
        <time>2026-01-30T08:18:25Z</time>
      </trkpt>
      <trkpt lat="48.68476" lon="1.88922">
        <ele>119.4</ele>
        <time>2026-01-30T08:18:26Z</time>
      </trkpt>
      <trkpt lat="48.68482" lon="1.88913">
        <ele>119</ele>
        <time>2026-01-30T08:18:27Z</time>
      </trkpt>
      <trkpt lat="48.68488" lon="1.88905">
        <ele>119.2</ele>
        <time>2026-01-30T08:18:28Z</time>
      </trkpt>
      <trkpt lat="48.68494" lon="1.88897">
        <ele>119.2</ele>
        <time>2026-01-30T08:18:29Z</time>
      </trkpt>
      <trkpt lat="48.68499" lon="1.88889">
        <ele>119.2</ele>
        <time>2026-01-30T08:18:30Z</time>
      </trkpt>
      <trkpt lat="48.68505" lon="1.8888">
        <ele>119</ele>
        <time>2026-01-30T08:18:31Z</time>
      </trkpt>
      <trkpt lat="48.68511" lon="1.88872">
        <ele>118.6</ele>
        <time>2026-01-30T08:18:32Z</time>
      </trkpt>
      <trkpt lat="48.68517" lon="1.88864">
        <ele>118.6</ele>
        <time>2026-01-30T08:18:33Z</time>
      </trkpt>
      <trkpt lat="48.68523" lon="1.88856">
        <ele>118.6</ele>
        <time>2026-01-30T08:18:34Z</time>
      </trkpt>
      <trkpt lat="48.68529" lon="1.88847">
        <ele>118.8</ele>
        <time>2026-01-30T08:18:35Z</time>
      </trkpt>
      <trkpt lat="48.68535" lon="1.88839">
        <ele>118.6</ele>
        <time>2026-01-30T08:18:36Z</time>
      </trkpt>
      <trkpt lat="48.68542" lon="1.88831">
        <ele>118.6</ele>
        <time>2026-01-30T08:18:37Z</time>
      </trkpt>
      <trkpt lat="48.68548" lon="1.88823">
        <ele>118.6</ele>
        <time>2026-01-30T08:18:38Z</time>
      </trkpt>
      <trkpt lat="48.68555" lon="1.88816">
        <ele>118.6</ele>
        <time>2026-01-30T08:18:39Z</time>
      </trkpt>
      <trkpt lat="48.68562" lon="1.8881">
        <ele>118.2</ele>
        <time>2026-01-30T08:18:40Z</time>
      </trkpt>
      <trkpt lat="48.6857" lon="1.88805">
        <ele>118.2</ele>
        <time>2026-01-30T08:18:41Z</time>
      </trkpt>
      <trkpt lat="48.68578" lon="1.88803">
        <ele>118.2</ele>
        <time>2026-01-30T08:18:42Z</time>
      </trkpt>
      <trkpt lat="48.68586" lon="1.88802">
        <ele>118.2</ele>
        <time>2026-01-30T08:18:43Z</time>
      </trkpt>
      <trkpt lat="48.68593" lon="1.88801">
        <ele>118.2</ele>
        <time>2026-01-30T08:18:44Z</time>
      </trkpt>
      <trkpt lat="48.68601" lon="1.88799">
        <ele>118.2</ele>
        <time>2026-01-30T08:18:45Z</time>
      </trkpt>
      <trkpt lat="48.68608" lon="1.88798">
        <ele>118.2</ele>
        <time>2026-01-30T08:18:46Z</time>
      </trkpt>
      <trkpt lat="48.68616" lon="1.88798">
        <ele>117.4</ele>
        <time>2026-01-30T08:18:47Z</time>
      </trkpt>
      <trkpt lat="48.68624" lon="1.88797">
        <ele>117.2</ele>
        <time>2026-01-30T08:18:48Z</time>
      </trkpt>
      <trkpt lat="48.68632" lon="1.88796">
        <ele>117.2</ele>
        <time>2026-01-30T08:18:49Z</time>
      </trkpt>
      <trkpt lat="48.68639" lon="1.88796">
        <ele>117.2</ele>
        <time>2026-01-30T08:18:50Z</time>
      </trkpt>
      <trkpt lat="48.68647" lon="1.88796">
        <ele>117.2</ele>
        <time>2026-01-30T08:18:51Z</time>
      </trkpt>
      <trkpt lat="48.68653" lon="1.88797">
        <ele>117.6</ele>
        <time>2026-01-30T08:18:52Z</time>
      </trkpt>
      <trkpt lat="48.68661" lon="1.88797">
        <ele>117.6</ele>
        <time>2026-01-30T08:18:53Z</time>
      </trkpt>
      <trkpt lat="48.68668" lon="1.88798">
        <ele>117.6</ele>
        <time>2026-01-30T08:18:54Z</time>
      </trkpt>
      <trkpt lat="48.68675" lon="1.88799">
        <ele>117.6</ele>
        <time>2026-01-30T08:18:55Z</time>
      </trkpt>
      <trkpt lat="48.68681" lon="1.88801">
        <ele>117.4</ele>
        <time>2026-01-30T08:18:56Z</time>
      </trkpt>
      <trkpt lat="48.68689" lon="1.88801">
        <ele>117.4</ele>
        <time>2026-01-30T08:18:57Z</time>
      </trkpt>
      <trkpt lat="48.68696" lon="1.88802">
        <ele>117.4</ele>
        <time>2026-01-30T08:18:58Z</time>
      </trkpt>
      <trkpt lat="48.68703" lon="1.88802">
        <ele>117.4</ele>
        <time>2026-01-30T08:18:59Z</time>
      </trkpt>
      <trkpt lat="48.68711" lon="1.88801">
        <ele>117.4</ele>
        <time>2026-01-30T08:19:00Z</time>
      </trkpt>
      <trkpt lat="48.68719" lon="1.88799">
        <ele>117.4</ele>
        <time>2026-01-30T08:19:01Z</time>
      </trkpt>
      <trkpt lat="48.68727" lon="1.88797">
        <ele>117.4</ele>
        <time>2026-01-30T08:19:02Z</time>
      </trkpt>
      <trkpt lat="48.68734" lon="1.88794">
        <ele>117</ele>
        <time>2026-01-30T08:19:03Z</time>
      </trkpt>
      <trkpt lat="48.68742" lon="1.8879">
        <ele>117.2</ele>
        <time>2026-01-30T08:19:04Z</time>
      </trkpt>
      <trkpt lat="48.68751" lon="1.88786">
        <ele>117.2</ele>
        <time>2026-01-30T08:19:05Z</time>
      </trkpt>
      <trkpt lat="48.68759" lon="1.88781">
        <ele>117.2</ele>
        <time>2026-01-30T08:19:06Z</time>
      </trkpt>
      <trkpt lat="48.68766" lon="1.88776">
        <ele>117</ele>
        <time>2026-01-30T08:19:07Z</time>
      </trkpt>
      <trkpt lat="48.68773" lon="1.88771">
        <ele>117</ele>
        <time>2026-01-30T08:19:08Z</time>
      </trkpt>
      <trkpt lat="48.68781" lon="1.88764">
        <ele>117</ele>
        <time>2026-01-30T08:19:09Z</time>
      </trkpt>
      <trkpt lat="48.68788" lon="1.88758">
        <ele>117</ele>
        <time>2026-01-30T08:19:10Z</time>
      </trkpt>
      <trkpt lat="48.68795" lon="1.88752">
        <ele>116.6</ele>
        <time>2026-01-30T08:19:11Z</time>
      </trkpt>
      <trkpt lat="48.68803" lon="1.88746">
        <ele>116.2</ele>
        <time>2026-01-30T08:19:12Z</time>
      </trkpt>
      <trkpt lat="48.6881" lon="1.8874">
        <ele>116.2</ele>
        <time>2026-01-30T08:19:13Z</time>
      </trkpt>
      <trkpt lat="48.68817" lon="1.88733">
        <ele>116.2</ele>
        <time>2026-01-30T08:19:14Z</time>
      </trkpt>
      <trkpt lat="48.68824" lon="1.88727">
        <ele>116.8</ele>
        <time>2026-01-30T08:19:15Z</time>
      </trkpt>
      <trkpt lat="48.68832" lon="1.88721">
        <ele>116.6</ele>
        <time>2026-01-30T08:19:16Z</time>
      </trkpt>
      <trkpt lat="48.68839" lon="1.88715">
        <ele>116.6</ele>
        <time>2026-01-30T08:19:17Z</time>
      </trkpt>
      <trkpt lat="48.68847" lon="1.88709">
        <ele>116.6</ele>
        <time>2026-01-30T08:19:18Z</time>
      </trkpt>
      <trkpt lat="48.68854" lon="1.88703">
        <ele>116.6</ele>
        <time>2026-01-30T08:19:19Z</time>
      </trkpt>
      <trkpt lat="48.68862" lon="1.88698">
        <ele>116.2</ele>
        <time>2026-01-30T08:19:20Z</time>
      </trkpt>
      <trkpt lat="48.68871" lon="1.88694">
        <ele>116.2</ele>
        <time>2026-01-30T08:19:21Z</time>
      </trkpt>
      <trkpt lat="48.68879" lon="1.8869">
        <ele>116.2</ele>
        <time>2026-01-30T08:19:22Z</time>
      </trkpt>
      <trkpt lat="48.68887" lon="1.88686">
        <ele>115.2</ele>
        <time>2026-01-30T08:19:23Z</time>
      </trkpt>
      <trkpt lat="48.68895" lon="1.88681">
        <ele>114.8</ele>
        <time>2026-01-30T08:19:24Z</time>
      </trkpt>
      <trkpt lat="48.68903" lon="1.88677">
        <ele>114.8</ele>
        <time>2026-01-30T08:19:25Z</time>
      </trkpt>
      <trkpt lat="48.68912" lon="1.88673">
        <ele>114.8</ele>
        <time>2026-01-30T08:19:26Z</time>
      </trkpt>
      <trkpt lat="48.6892" lon="1.8867">
        <ele>114.8</ele>
        <time>2026-01-30T08:19:27Z</time>
      </trkpt>
      <trkpt lat="48.68928" lon="1.88666">
        <ele>115.4</ele>
        <time>2026-01-30T08:19:28Z</time>
      </trkpt>
      <trkpt lat="48.68935" lon="1.88663">
        <ele>115.4</ele>
        <time>2026-01-30T08:19:29Z</time>
      </trkpt>
      <trkpt lat="48.68942" lon="1.8866">
        <ele>115.4</ele>
        <time>2026-01-30T08:19:30Z</time>
      </trkpt>
      <trkpt lat="48.6895" lon="1.88657">
        <ele>116.4</ele>
        <time>2026-01-30T08:19:31Z</time>
      </trkpt>
      <trkpt lat="48.68957" lon="1.88654">
        <ele>116.6</ele>
        <time>2026-01-30T08:19:32Z</time>
      </trkpt>
      <trkpt lat="48.68965" lon="1.88652">
        <ele>116.6</ele>
        <time>2026-01-30T08:19:33Z</time>
      </trkpt>
      <trkpt lat="48.68973" lon="1.88649">
        <ele>116.6</ele>
        <time>2026-01-30T08:19:34Z</time>
      </trkpt>
      <trkpt lat="48.6898" lon="1.88646">
        <ele>116.4</ele>
        <time>2026-01-30T08:19:35Z</time>
      </trkpt>
      <trkpt lat="48.68988" lon="1.88643">
        <ele>116.6</ele>
        <time>2026-01-30T08:19:36Z</time>
      </trkpt>
      <trkpt lat="48.68995" lon="1.8864">
        <ele>116.6</ele>
        <time>2026-01-30T08:19:37Z</time>
      </trkpt>
      <trkpt lat="48.69002" lon="1.88637">
        <ele>116.6</ele>
        <time>2026-01-30T08:19:38Z</time>
      </trkpt>
      <trkpt lat="48.6901" lon="1.88635">
        <ele>116.6</ele>
        <time>2026-01-30T08:19:39Z</time>
      </trkpt>
      <trkpt lat="48.69017" lon="1.88633">
        <ele>116.4</ele>
        <time>2026-01-30T08:19:40Z</time>
      </trkpt>
      <trkpt lat="48.69024" lon="1.88631">
        <ele>116.4</ele>
        <time>2026-01-30T08:19:41Z</time>
      </trkpt>
      <trkpt lat="48.69032" lon="1.88629">
        <ele>116.4</ele>
        <time>2026-01-30T08:19:42Z</time>
      </trkpt>
      <trkpt lat="48.69039" lon="1.88627">
        <ele>116.4</ele>
        <time>2026-01-30T08:19:43Z</time>
      </trkpt>
      <trkpt lat="48.69047" lon="1.88624">
        <ele>115.4</ele>
        <time>2026-01-30T08:19:44Z</time>
      </trkpt>
      <trkpt lat="48.69055" lon="1.88623">
        <ele>115.4</ele>
        <time>2026-01-30T08:19:45Z</time>
      </trkpt>
      <trkpt lat="48.69061" lon="1.88623">
        <ele>115.4</ele>
        <time>2026-01-30T08:19:46Z</time>
      </trkpt>
      <trkpt lat="48.69068" lon="1.88623">
        <ele>114.6</ele>
        <time>2026-01-30T08:19:47Z</time>
      </trkpt>
      <trkpt lat="48.69075" lon="1.88623">
        <ele>114.8</ele>
        <time>2026-01-30T08:19:48Z</time>
      </trkpt>
      <trkpt lat="48.69083" lon="1.88624">
        <ele>114.8</ele>
        <time>2026-01-30T08:19:49Z</time>
      </trkpt>
      <trkpt lat="48.69091" lon="1.88625">
        <ele>114.8</ele>
        <time>2026-01-30T08:19:50Z</time>
      </trkpt>
      <trkpt lat="48.69098" lon="1.88625">
        <ele>114.8</ele>
        <time>2026-01-30T08:19:51Z</time>
      </trkpt>
      <trkpt lat="48.69105" lon="1.88626">
        <ele>115.4</ele>
        <time>2026-01-30T08:19:52Z</time>
      </trkpt>
      <trkpt lat="48.69112" lon="1.88626">
        <ele>115.4</ele>
        <time>2026-01-30T08:19:53Z</time>
      </trkpt>
      <trkpt lat="48.69119" lon="1.88627">
        <ele>115.4</ele>
        <time>2026-01-30T08:19:54Z</time>
      </trkpt>
      <trkpt lat="48.69126" lon="1.88627">
        <ele>116.4</ele>
        <time>2026-01-30T08:19:55Z</time>
      </trkpt>
      <trkpt lat="48.69133" lon="1.88628">
        <ele>117.6</ele>
        <time>2026-01-30T08:19:56Z</time>
      </trkpt>
      <trkpt lat="48.6914" lon="1.88628">
        <ele>117.6</ele>
        <time>2026-01-30T08:19:57Z</time>
      </trkpt>
      <trkpt lat="48.69146" lon="1.88628">
        <ele>117.6</ele>
        <time>2026-01-30T08:19:58Z</time>
      </trkpt>
      <trkpt lat="48.69152" lon="1.88628">
        <ele>118</ele>
        <time>2026-01-30T08:19:59Z</time>
      </trkpt>
      <trkpt lat="48.69159" lon="1.88629">
        <ele>118</ele>
        <time>2026-01-30T08:20:00Z</time>
      </trkpt>
      <trkpt lat="48.69166" lon="1.88629">
        <ele>118</ele>
        <time>2026-01-30T08:20:01Z</time>
      </trkpt>
      <trkpt lat="48.69173" lon="1.88629">
        <ele>118</ele>
        <time>2026-01-30T08:20:02Z</time>
      </trkpt>
      <trkpt lat="48.69181" lon="1.8863">
        <ele>117</ele>
        <time>2026-01-30T08:20:03Z</time>
      </trkpt>
      <trkpt lat="48.6919" lon="1.88631">
        <ele>117.2</ele>
        <time>2026-01-30T08:20:04Z</time>
      </trkpt>
      <trkpt lat="48.69199" lon="1.88632">
        <ele>117.2</ele>
        <time>2026-01-30T08:20:05Z</time>
      </trkpt>
      <trkpt lat="48.69208" lon="1.88633">
        <ele>117.2</ele>
        <time>2026-01-30T08:20:06Z</time>
      </trkpt>
      <trkpt lat="48.69216" lon="1.88633">
        <ele>117.2</ele>
        <time>2026-01-30T08:20:07Z</time>
      </trkpt>
      <trkpt lat="48.69223" lon="1.88633">
        <ele>117.2</ele>
        <time>2026-01-30T08:20:08Z</time>
      </trkpt>
      <trkpt lat="48.69231" lon="1.88634">
        <ele>117.2</ele>
        <time>2026-01-30T08:20:09Z</time>
      </trkpt>
      <trkpt lat="48.69238" lon="1.88635">
        <ele>117.2</ele>
        <time>2026-01-30T08:20:10Z</time>
      </trkpt>
      <trkpt lat="48.69246" lon="1.88636">
        <ele>117.2</ele>
        <time>2026-01-30T08:20:11Z</time>
      </trkpt>
      <trkpt lat="48.69253" lon="1.88637">
        <ele>116.8</ele>
        <time>2026-01-30T08:20:12Z</time>
      </trkpt>
      <trkpt lat="48.6926" lon="1.88638">
        <ele>116.8</ele>
        <time>2026-01-30T08:20:13Z</time>
      </trkpt>
      <trkpt lat="48.69267" lon="1.88639">
        <ele>116.8</ele>
        <time>2026-01-30T08:20:14Z</time>
      </trkpt>
      <trkpt lat="48.69275" lon="1.88639">
        <ele>117.8</ele>
        <time>2026-01-30T08:20:15Z</time>
      </trkpt>
      <trkpt lat="48.69282" lon="1.8864">
        <ele>118.4</ele>
        <time>2026-01-30T08:20:16Z</time>
      </trkpt>
      <trkpt lat="48.69289" lon="1.88641">
        <ele>118.4</ele>
        <time>2026-01-30T08:20:17Z</time>
      </trkpt>
      <trkpt lat="48.69296" lon="1.88643">
        <ele>118.4</ele>
        <time>2026-01-30T08:20:18Z</time>
      </trkpt>
      <trkpt lat="48.69304" lon="1.88644">
        <ele>117.6</ele>
        <time>2026-01-30T08:20:19Z</time>
      </trkpt>
      <trkpt lat="48.69312" lon="1.88645">
        <ele>117.4</ele>
        <time>2026-01-30T08:20:20Z</time>
      </trkpt>
      <trkpt lat="48.69319" lon="1.88646">
        <ele>117.4</ele>
        <time>2026-01-30T08:20:21Z</time>
      </trkpt>
      <trkpt lat="48.69326" lon="1.88647">
        <ele>117.4</ele>
        <time>2026-01-30T08:20:22Z</time>
      </trkpt>
      <trkpt lat="48.69333" lon="1.88649">
        <ele>117.4</ele>
        <time>2026-01-30T08:20:23Z</time>
      </trkpt>
      <trkpt lat="48.6934" lon="1.88651">
        <ele>116.2</ele>
        <time>2026-01-30T08:20:24Z</time>
      </trkpt>
      <trkpt lat="48.69347" lon="1.88652">
        <ele>116.2</ele>
        <time>2026-01-30T08:20:25Z</time>
      </trkpt>
      <trkpt lat="48.69355" lon="1.88653">
        <ele>116.2</ele>
        <time>2026-01-30T08:20:26Z</time>
      </trkpt>
      <trkpt lat="48.69363" lon="1.88655">
        <ele>116.2</ele>
        <time>2026-01-30T08:20:27Z</time>
      </trkpt>
      <trkpt lat="48.69371" lon="1.88657">
        <ele>116.8</ele>
        <time>2026-01-30T08:20:28Z</time>
      </trkpt>
      <trkpt lat="48.69379" lon="1.8866">
        <ele>116.8</ele>
        <time>2026-01-30T08:20:29Z</time>
      </trkpt>
      <trkpt lat="48.69386" lon="1.88662">
        <ele>116.8</ele>
        <time>2026-01-30T08:20:30Z</time>
      </trkpt>
      <trkpt lat="48.69393" lon="1.88663">
        <ele>116.8</ele>
        <time>2026-01-30T08:20:31Z</time>
      </trkpt>
      <trkpt lat="48.694" lon="1.88666">
        <ele>117.4</ele>
        <time>2026-01-30T08:20:32Z</time>
      </trkpt>
      <trkpt lat="48.69406" lon="1.88667">
        <ele>117.4</ele>
        <time>2026-01-30T08:20:33Z</time>
      </trkpt>
      <trkpt lat="48.69413" lon="1.88669">
        <ele>117.4</ele>
        <time>2026-01-30T08:20:34Z</time>
      </trkpt>
      <trkpt lat="48.6942" lon="1.88671">
        <ele>117.4</ele>
        <time>2026-01-30T08:20:35Z</time>
      </trkpt>
      <trkpt lat="48.69427" lon="1.88673">
        <ele>118</ele>
        <time>2026-01-30T08:20:36Z</time>
      </trkpt>
      <trkpt lat="48.69434" lon="1.88675">
        <ele>118</ele>
        <time>2026-01-30T08:20:37Z</time>
      </trkpt>
      <trkpt lat="48.69442" lon="1.88677">
        <ele>118</ele>
        <time>2026-01-30T08:20:38Z</time>
      </trkpt>
      <trkpt lat="48.69449" lon="1.88679">
        <ele>118</ele>
        <time>2026-01-30T08:20:39Z</time>
      </trkpt>
      <trkpt lat="48.69456" lon="1.88681">
        <ele>118.2</ele>
        <time>2026-01-30T08:20:40Z</time>
      </trkpt>
      <trkpt lat="48.69463" lon="1.88683">
        <ele>118.2</ele>
        <time>2026-01-30T08:20:41Z</time>
      </trkpt>
      <trkpt lat="48.6947" lon="1.88684">
        <ele>118.2</ele>
        <time>2026-01-30T08:20:42Z</time>
      </trkpt>
      <trkpt lat="48.69477" lon="1.88686">
        <ele>118.2</ele>
        <time>2026-01-30T08:20:43Z</time>
      </trkpt>
      <trkpt lat="48.69484" lon="1.88687">
        <ele>118.6</ele>
        <time>2026-01-30T08:20:44Z</time>
      </trkpt>
      <trkpt lat="48.69491" lon="1.88688">
        <ele>118.6</ele>
        <time>2026-01-30T08:20:45Z</time>
      </trkpt>
      <trkpt lat="48.69498" lon="1.88689">
        <ele>118.6</ele>
        <time>2026-01-30T08:20:46Z</time>
      </trkpt>
      <trkpt lat="48.69505" lon="1.88689">
        <ele>118.6</ele>
        <time>2026-01-30T08:20:47Z</time>
      </trkpt>
      <trkpt lat="48.69512" lon="1.88689">
        <ele>118.6</ele>
        <time>2026-01-30T08:20:48Z</time>
      </trkpt>
      <trkpt lat="48.69519" lon="1.88688">
        <ele>118.6</ele>
        <time>2026-01-30T08:20:49Z</time>
      </trkpt>
      <trkpt lat="48.69526" lon="1.88685">
        <ele>118.6</ele>
        <time>2026-01-30T08:20:50Z</time>
      </trkpt>
      <trkpt lat="48.69533" lon="1.88683">
        <ele>119.2</ele>
        <time>2026-01-30T08:20:51Z</time>
      </trkpt>
      <trkpt lat="48.6954" lon="1.88683">
        <ele>119.4</ele>
        <time>2026-01-30T08:20:52Z</time>
      </trkpt>
      <trkpt lat="48.69547" lon="1.88685">
        <ele>119.4</ele>
        <time>2026-01-30T08:20:53Z</time>
      </trkpt>
      <trkpt lat="48.69554" lon="1.88686">
        <ele>119.4</ele>
        <time>2026-01-30T08:20:54Z</time>
      </trkpt>
      <trkpt lat="48.69561" lon="1.88687">
        <ele>119.4</ele>
        <time>2026-01-30T08:20:55Z</time>
      </trkpt>
      <trkpt lat="48.69569" lon="1.88688">
        <ele>118.6</ele>
        <time>2026-01-30T08:20:56Z</time>
      </trkpt>
      <trkpt lat="48.69576" lon="1.88688">
        <ele>118.6</ele>
        <time>2026-01-30T08:20:57Z</time>
      </trkpt>
      <trkpt lat="48.69583" lon="1.88689">
        <ele>118.6</ele>
        <time>2026-01-30T08:20:58Z</time>
      </trkpt>
      <trkpt lat="48.69591" lon="1.8869">
        <ele>118.6</ele>
        <time>2026-01-30T08:20:59Z</time>
      </trkpt>
      <trkpt lat="48.69599" lon="1.88692">
        <ele>116.6</ele>
        <time>2026-01-30T08:21:00Z</time>
      </trkpt>
      <trkpt lat="48.69607" lon="1.88694">
        <ele>116.6</ele>
        <time>2026-01-30T08:21:01Z</time>
      </trkpt>
      <trkpt lat="48.69615" lon="1.88697">
        <ele>116.6</ele>
        <time>2026-01-30T08:21:02Z</time>
      </trkpt>
      <trkpt lat="48.69624" lon="1.887">
        <ele>116.6</ele>
        <time>2026-01-30T08:21:03Z</time>
      </trkpt>
      <trkpt lat="48.69632" lon="1.88703">
        <ele>114.2</ele>
        <time>2026-01-30T08:21:04Z</time>
      </trkpt>
      <trkpt lat="48.69641" lon="1.88707">
        <ele>114.2</ele>
        <time>2026-01-30T08:21:05Z</time>
      </trkpt>
      <trkpt lat="48.6965" lon="1.8871">
        <ele>114.2</ele>
        <time>2026-01-30T08:21:06Z</time>
      </trkpt>
      <trkpt lat="48.69659" lon="1.88713">
        <ele>113.2</ele>
        <time>2026-01-30T08:21:07Z</time>
      </trkpt>
      <trkpt lat="48.69668" lon="1.88715">
        <ele>111.8</ele>
        <time>2026-01-30T08:21:08Z</time>
      </trkpt>
      <trkpt lat="48.69678" lon="1.88716">
        <ele>111.8</ele>
        <time>2026-01-30T08:21:09Z</time>
      </trkpt>
      <trkpt lat="48.69688" lon="1.88716">
        <ele>111.8</ele>
        <time>2026-01-30T08:21:10Z</time>
      </trkpt>
      <trkpt lat="48.69698" lon="1.88714">
        <ele>110.8</ele>
        <time>2026-01-30T08:21:11Z</time>
      </trkpt>
      <trkpt lat="48.69708" lon="1.88712">
        <ele>108.8</ele>
        <time>2026-01-30T08:21:12Z</time>
      </trkpt>
      <trkpt lat="48.69718" lon="1.88709">
        <ele>108.8</ele>
        <time>2026-01-30T08:21:13Z</time>
      </trkpt>
      <trkpt lat="48.69729" lon="1.88705">
        <ele>108.8</ele>
        <time>2026-01-30T08:21:14Z</time>
      </trkpt>
      <trkpt lat="48.6974" lon="1.88702">
        <ele>107.8</ele>
        <time>2026-01-30T08:21:15Z</time>
      </trkpt>
      <trkpt lat="48.6975" lon="1.88699">
        <ele>105.2</ele>
        <time>2026-01-30T08:21:16Z</time>
      </trkpt>
      <trkpt lat="48.69761" lon="1.88696">
        <ele>105.2</ele>
        <time>2026-01-30T08:21:17Z</time>
      </trkpt>
      <trkpt lat="48.69771" lon="1.88692">
        <ele>105.2</ele>
        <time>2026-01-30T08:21:18Z</time>
      </trkpt>
      <trkpt lat="48.69781" lon="1.88688">
        <ele>104.2</ele>
        <time>2026-01-30T08:21:19Z</time>
      </trkpt>
      <trkpt lat="48.69791" lon="1.88686">
        <ele>104.4</ele>
        <time>2026-01-30T08:21:20Z</time>
      </trkpt>
      <trkpt lat="48.69801" lon="1.88684">
        <ele>104.4</ele>
        <time>2026-01-30T08:21:21Z</time>
      </trkpt>
      <trkpt lat="48.6981" lon="1.88684">
        <ele>104.4</ele>
        <time>2026-01-30T08:21:22Z</time>
      </trkpt>
      <trkpt lat="48.6982" lon="1.88685">
        <ele>104.4</ele>
        <time>2026-01-30T08:21:23Z</time>
      </trkpt>
      <trkpt lat="48.6983" lon="1.88685">
        <ele>103.2</ele>
        <time>2026-01-30T08:21:24Z</time>
      </trkpt>
      <trkpt lat="48.69839" lon="1.88687">
        <ele>103.2</ele>
        <time>2026-01-30T08:21:25Z</time>
      </trkpt>
      <trkpt lat="48.69848" lon="1.88688">
        <ele>103.2</ele>
        <time>2026-01-30T08:21:26Z</time>
      </trkpt>
      <trkpt lat="48.69856" lon="1.8869">
        <ele>103.2</ele>
        <time>2026-01-30T08:21:27Z</time>
      </trkpt>
      <trkpt lat="48.69865" lon="1.88691">
        <ele>104.2</ele>
        <time>2026-01-30T08:21:28Z</time>
      </trkpt>
      <trkpt lat="48.69873" lon="1.88692">
        <ele>104.2</ele>
        <time>2026-01-30T08:21:29Z</time>
      </trkpt>
      <trkpt lat="48.69881" lon="1.88694">
        <ele>104.2</ele>
        <time>2026-01-30T08:21:30Z</time>
      </trkpt>
      <trkpt lat="48.69888" lon="1.88695">
        <ele>104.2</ele>
        <time>2026-01-30T08:21:31Z</time>
      </trkpt>
      <trkpt lat="48.69895" lon="1.88698">
        <ele>105.8</ele>
        <time>2026-01-30T08:21:32Z</time>
      </trkpt>
      <trkpt lat="48.69902" lon="1.88701">
        <ele>105.8</ele>
        <time>2026-01-30T08:21:33Z</time>
      </trkpt>
      <trkpt lat="48.69909" lon="1.88705">
        <ele>105.8</ele>
        <time>2026-01-30T08:21:34Z</time>
      </trkpt>
      <trkpt lat="48.69916" lon="1.88708">
        <ele>105.8</ele>
        <time>2026-01-30T08:21:35Z</time>
      </trkpt>
      <trkpt lat="48.69923" lon="1.88711">
        <ele>105</ele>
        <time>2026-01-30T08:21:36Z</time>
      </trkpt>
      <trkpt lat="48.6993" lon="1.88714">
        <ele>105</ele>
        <time>2026-01-30T08:21:37Z</time>
      </trkpt>
      <trkpt lat="48.69937" lon="1.88717">
        <ele>105</ele>
        <time>2026-01-30T08:21:38Z</time>
      </trkpt>
      <trkpt lat="48.69944" lon="1.88719">
        <ele>105</ele>
        <time>2026-01-30T08:21:39Z</time>
      </trkpt>
      <trkpt lat="48.69951" lon="1.8872">
        <ele>105.6</ele>
        <time>2026-01-30T08:21:40Z</time>
      </trkpt>
      <trkpt lat="48.69958" lon="1.8872">
        <ele>105.6</ele>
        <time>2026-01-30T08:21:41Z</time>
      </trkpt>
      <trkpt lat="48.69965" lon="1.8872">
        <ele>105.6</ele>
        <time>2026-01-30T08:21:42Z</time>
      </trkpt>
      <trkpt lat="48.69972" lon="1.88719">
        <ele>105.2</ele>
        <time>2026-01-30T08:21:43Z</time>
      </trkpt>
      <trkpt lat="48.6998" lon="1.88718">
        <ele>104.4</ele>
        <time>2026-01-30T08:21:44Z</time>
      </trkpt>
      <trkpt lat="48.69987" lon="1.88717">
        <ele>104.4</ele>
        <time>2026-01-30T08:21:45Z</time>
      </trkpt>
      <trkpt lat="48.69994" lon="1.88714">
        <ele>104.4</ele>
        <time>2026-01-30T08:21:46Z</time>
      </trkpt>
      <trkpt lat="48.7" lon="1.88709">
        <ele>105.2</ele>
        <time>2026-01-30T08:21:47Z</time>
      </trkpt>
      <trkpt lat="48.70005" lon="1.88705">
        <ele>105.2</ele>
        <time>2026-01-30T08:21:48Z</time>
      </trkpt>
      <trkpt lat="48.7001" lon="1.88699">
        <ele>105.2</ele>
        <time>2026-01-30T08:21:49Z</time>
      </trkpt>
      <trkpt lat="48.70015" lon="1.88692">
        <ele>105.2</ele>
        <time>2026-01-30T08:21:50Z</time>
      </trkpt>
      <trkpt lat="48.70018" lon="1.88684">
        <ele>104.2</ele>
        <time>2026-01-30T08:21:51Z</time>
      </trkpt>
      <trkpt lat="48.70022" lon="1.88676">
        <ele>103.6</ele>
        <time>2026-01-30T08:21:52Z</time>
      </trkpt>
      <trkpt lat="48.70026" lon="1.88668">
        <ele>103.6</ele>
        <time>2026-01-30T08:21:53Z</time>
      </trkpt>
      <trkpt lat="48.7003" lon="1.8866">
        <ele>103.6</ele>
        <time>2026-01-30T08:21:54Z</time>
      </trkpt>
      <trkpt lat="48.70034" lon="1.88652">
        <ele>103.6</ele>
        <time>2026-01-30T08:21:55Z</time>
      </trkpt>
      <trkpt lat="48.70038" lon="1.88643">
        <ele>102.2</ele>
        <time>2026-01-30T08:21:56Z</time>
      </trkpt>
      <trkpt lat="48.70042" lon="1.88634">
        <ele>102.2</ele>
        <time>2026-01-30T08:21:57Z</time>
      </trkpt>
      <trkpt lat="48.70045" lon="1.88626">
        <ele>102.2</ele>
        <time>2026-01-30T08:21:58Z</time>
      </trkpt>
      <trkpt lat="48.70049" lon="1.88617">
        <ele>102.2</ele>
        <time>2026-01-30T08:21:59Z</time>
      </trkpt>
      <trkpt lat="48.70052" lon="1.88608">
        <ele>102.4</ele>
        <time>2026-01-30T08:22:00Z</time>
      </trkpt>
      <trkpt lat="48.70056" lon="1.886">
        <ele>102.4</ele>
        <time>2026-01-30T08:22:01Z</time>
      </trkpt>
      <trkpt lat="48.7006" lon="1.88591">
        <ele>102.4</ele>
        <time>2026-01-30T08:22:02Z</time>
      </trkpt>
      <trkpt lat="48.70064" lon="1.88582">
        <ele>101.4</ele>
        <time>2026-01-30T08:22:03Z</time>
      </trkpt>
      <trkpt lat="48.70067" lon="1.88573">
        <ele>100.6</ele>
        <time>2026-01-30T08:22:04Z</time>
      </trkpt>
      <trkpt lat="48.7007" lon="1.88564">
        <ele>100.6</ele>
        <time>2026-01-30T08:22:05Z</time>
      </trkpt>
      <trkpt lat="48.70072" lon="1.88555">
        <ele>100.6</ele>
        <time>2026-01-30T08:22:06Z</time>
      </trkpt>
      <trkpt lat="48.70073" lon="1.88546">
        <ele>100.6</ele>
        <time>2026-01-30T08:22:07Z</time>
      </trkpt>
      <trkpt lat="48.70075" lon="1.88537">
        <ele>99.6</ele>
        <time>2026-01-30T08:22:08Z</time>
      </trkpt>
      <trkpt lat="48.70075" lon="1.88528">
        <ele>99.6</ele>
        <time>2026-01-30T08:22:09Z</time>
      </trkpt>
      <trkpt lat="48.70077" lon="1.88518">
        <ele>99.6</ele>
        <time>2026-01-30T08:22:10Z</time>
      </trkpt>
      <trkpt lat="48.70077" lon="1.88507">
        <ele>98.6</ele>
        <time>2026-01-30T08:22:11Z</time>
      </trkpt>
      <trkpt lat="48.70079" lon="1.88496">
        <ele>97.2</ele>
        <time>2026-01-30T08:22:12Z</time>
      </trkpt>
      <trkpt lat="48.70083" lon="1.88486">
        <ele>97.2</ele>
        <time>2026-01-30T08:22:13Z</time>
      </trkpt>
      <trkpt lat="48.70089" lon="1.88477">
        <ele>97.2</ele>
        <time>2026-01-30T08:22:14Z</time>
      </trkpt>
      <trkpt lat="48.70095" lon="1.88469">
        <ele>96.2</ele>
        <time>2026-01-30T08:22:15Z</time>
      </trkpt>
      <trkpt lat="48.70101" lon="1.88462">
        <ele>94.8</ele>
        <time>2026-01-30T08:22:16Z</time>
      </trkpt>
      <trkpt lat="48.70108" lon="1.88455">
        <ele>94.8</ele>
        <time>2026-01-30T08:22:17Z</time>
      </trkpt>
      <trkpt lat="48.70114" lon="1.8845">
        <ele>94.8</ele>
        <time>2026-01-30T08:22:18Z</time>
      </trkpt>
      <trkpt lat="48.70121" lon="1.88446">
        <ele>94.8</ele>
        <time>2026-01-30T08:22:19Z</time>
      </trkpt>
      <trkpt lat="48.70127" lon="1.88445">
        <ele>94.2</ele>
        <time>2026-01-30T08:22:20Z</time>
      </trkpt>
      <trkpt lat="48.70133" lon="1.88447">
        <ele>94.2</ele>
        <time>2026-01-30T08:22:21Z</time>
      </trkpt>
      <trkpt lat="48.70139" lon="1.88449">
        <ele>94.2</ele>
        <time>2026-01-30T08:22:22Z</time>
      </trkpt>
      <trkpt lat="48.70146" lon="1.88452">
        <ele>94.2</ele>
        <time>2026-01-30T08:22:23Z</time>
      </trkpt>
      <trkpt lat="48.70152" lon="1.88455">
        <ele>94.2</ele>
        <time>2026-01-30T08:22:24Z</time>
      </trkpt>
      <trkpt lat="48.70159" lon="1.88459">
        <ele>94.2</ele>
        <time>2026-01-30T08:22:25Z</time>
      </trkpt>
      <trkpt lat="48.70165" lon="1.88463">
        <ele>94.2</ele>
        <time>2026-01-30T08:22:26Z</time>
      </trkpt>
      <trkpt lat="48.70172" lon="1.88466">
        <ele>93.6</ele>
        <time>2026-01-30T08:22:27Z</time>
      </trkpt>
      <trkpt lat="48.70178" lon="1.8847">
        <ele>93.4</ele>
        <time>2026-01-30T08:22:28Z</time>
      </trkpt>
      <trkpt lat="48.70185" lon="1.88474">
        <ele>93.4</ele>
        <time>2026-01-30T08:22:29Z</time>
      </trkpt>
      <trkpt lat="48.70192" lon="1.88478">
        <ele>93.4</ele>
        <time>2026-01-30T08:22:30Z</time>
      </trkpt>
      <trkpt lat="48.70198" lon="1.88481">
        <ele>93.4</ele>
        <time>2026-01-30T08:22:31Z</time>
      </trkpt>
      <trkpt lat="48.70204" lon="1.88484">
        <ele>93.2</ele>
        <time>2026-01-30T08:22:32Z</time>
      </trkpt>
      <trkpt lat="48.7021" lon="1.88488">
        <ele>93.2</ele>
        <time>2026-01-30T08:22:33Z</time>
      </trkpt>
      <trkpt lat="48.70217" lon="1.88493">
        <ele>93.2</ele>
        <time>2026-01-30T08:22:34Z</time>
      </trkpt>
      <trkpt lat="48.70223" lon="1.88496">
        <ele>92.8</ele>
        <time>2026-01-30T08:22:35Z</time>
      </trkpt>
      <trkpt lat="48.70229" lon="1.88499">
        <ele>93.4</ele>
        <time>2026-01-30T08:22:36Z</time>
      </trkpt>
      <trkpt lat="48.70235" lon="1.88504">
        <ele>93.4</ele>
        <time>2026-01-30T08:22:37Z</time>
      </trkpt>
      <trkpt lat="48.7024" lon="1.88509">
        <ele>93.4</ele>
        <time>2026-01-30T08:22:38Z</time>
      </trkpt>
      <trkpt lat="48.70243" lon="1.88516">
        <ele>93.8</ele>
        <time>2026-01-30T08:22:39Z</time>
      </trkpt>
      <trkpt lat="48.70247" lon="1.88523">
        <ele>94.2</ele>
        <time>2026-01-30T08:22:40Z</time>
      </trkpt>
      <trkpt lat="48.70249" lon="1.88531">
        <ele>94.2</ele>
        <time>2026-01-30T08:22:41Z</time>
      </trkpt>
      <trkpt lat="48.7025" lon="1.88539">
        <ele>94.2</ele>
        <time>2026-01-30T08:22:42Z</time>
      </trkpt>
      <trkpt lat="48.70251" lon="1.88549">
        <ele>94.2</ele>
        <time>2026-01-30T08:22:43Z</time>
      </trkpt>
      <trkpt lat="48.70251" lon="1.88558">
        <ele>93.4</ele>
        <time>2026-01-30T08:22:44Z</time>
      </trkpt>
      <trkpt lat="48.70251" lon="1.88567">
        <ele>93.4</ele>
        <time>2026-01-30T08:22:45Z</time>
      </trkpt>
      <trkpt lat="48.7025" lon="1.88575">
        <ele>93.4</ele>
        <time>2026-01-30T08:22:46Z</time>
      </trkpt>
      <trkpt lat="48.70249" lon="1.88584">
        <ele>93.4</ele>
        <time>2026-01-30T08:22:47Z</time>
      </trkpt>
      <trkpt lat="48.70247" lon="1.88592">
        <ele>92</ele>
        <time>2026-01-30T08:22:48Z</time>
      </trkpt>
      <trkpt lat="48.70246" lon="1.88602">
        <ele>92</ele>
        <time>2026-01-30T08:22:49Z</time>
      </trkpt>
      <trkpt lat="48.70244" lon="1.88612">
        <ele>92</ele>
        <time>2026-01-30T08:22:50Z</time>
      </trkpt>
      <trkpt lat="48.70242" lon="1.88621">
        <ele>92.2</ele>
        <time>2026-01-30T08:22:51Z</time>
      </trkpt>
      <trkpt lat="48.70241" lon="1.88631">
        <ele>91.8</ele>
        <time>2026-01-30T08:22:52Z</time>
      </trkpt>
      <trkpt lat="48.7024" lon="1.88642">
        <ele>91.8</ele>
        <time>2026-01-30T08:22:53Z</time>
      </trkpt>
      <trkpt lat="48.70238" lon="1.88652">
        <ele>91.8</ele>
        <time>2026-01-30T08:22:54Z</time>
      </trkpt>
      <trkpt lat="48.70236" lon="1.88662">
        <ele>90.8</ele>
        <time>2026-01-30T08:22:55Z</time>
      </trkpt>
      <trkpt lat="48.70235" lon="1.88673">
        <ele>90.8</ele>
        <time>2026-01-30T08:22:56Z</time>
      </trkpt>
      <trkpt lat="48.70233" lon="1.88684">
        <ele>90.8</ele>
        <time>2026-01-30T08:22:57Z</time>
      </trkpt>
      <trkpt lat="48.70231" lon="1.88695">
        <ele>90.8</ele>
        <time>2026-01-30T08:22:58Z</time>
      </trkpt>
      <trkpt lat="48.7023" lon="1.88705">
        <ele>89.8</ele>
        <time>2026-01-30T08:22:59Z</time>
      </trkpt>
      <trkpt lat="48.7023" lon="1.88716">
        <ele>88.6</ele>
        <time>2026-01-30T08:23:00Z</time>
      </trkpt>
      <trkpt lat="48.70229" lon="1.88727">
        <ele>88.6</ele>
        <time>2026-01-30T08:23:01Z</time>
      </trkpt>
      <trkpt lat="48.70228" lon="1.88739">
        <ele>88.6</ele>
        <time>2026-01-30T08:23:02Z</time>
      </trkpt>
      <trkpt lat="48.70228" lon="1.88751">
        <ele>87.6</ele>
        <time>2026-01-30T08:23:03Z</time>
      </trkpt>
      <trkpt lat="48.70227" lon="1.88763">
        <ele>86.2</ele>
        <time>2026-01-30T08:23:04Z</time>
      </trkpt>
      <trkpt lat="48.70227" lon="1.88776">
        <ele>86.2</ele>
        <time>2026-01-30T08:23:05Z</time>
      </trkpt>
      <trkpt lat="48.70228" lon="1.88789">
        <ele>86.2</ele>
        <time>2026-01-30T08:23:06Z</time>
      </trkpt>
      <trkpt lat="48.70228" lon="1.88802">
        <ele>85.2</ele>
        <time>2026-01-30T08:23:07Z</time>
      </trkpt>
      <trkpt lat="48.70229" lon="1.88816">
        <ele>83</ele>
        <time>2026-01-30T08:23:08Z</time>
      </trkpt>
      <trkpt lat="48.70229" lon="1.88831">
        <ele>83</ele>
        <time>2026-01-30T08:23:09Z</time>
      </trkpt>
      <trkpt lat="48.7023" lon="1.88845">
        <ele>83</ele>
        <time>2026-01-30T08:23:10Z</time>
      </trkpt>
      <trkpt lat="48.70231" lon="1.8886">
        <ele>82</ele>
        <time>2026-01-30T08:23:11Z</time>
      </trkpt>
      <trkpt lat="48.70231" lon="1.88875">
        <ele>81.2</ele>
        <time>2026-01-30T08:23:12Z</time>
      </trkpt>
      <trkpt lat="48.70232" lon="1.88889">
        <ele>81.2</ele>
        <time>2026-01-30T08:23:13Z</time>
      </trkpt>
      <trkpt lat="48.70233" lon="1.88904">
        <ele>81.2</ele>
        <time>2026-01-30T08:23:14Z</time>
      </trkpt>
      <trkpt lat="48.70233" lon="1.88918">
        <ele>81.2</ele>
        <time>2026-01-30T08:23:15Z</time>
      </trkpt>
      <trkpt lat="48.70233" lon="1.88933">
        <ele>81</ele>
        <time>2026-01-30T08:23:16Z</time>
      </trkpt>
      <trkpt lat="48.70233" lon="1.88947">
        <ele>81</ele>
        <time>2026-01-30T08:23:17Z</time>
      </trkpt>
      <trkpt lat="48.70232" lon="1.88961">
        <ele>81</ele>
        <time>2026-01-30T08:23:18Z</time>
      </trkpt>
      <trkpt lat="48.70231" lon="1.88974">
        <ele>81</ele>
        <time>2026-01-30T08:23:19Z</time>
      </trkpt>
      <trkpt lat="48.70228" lon="1.88987">
        <ele>80.8</ele>
        <time>2026-01-30T08:23:20Z</time>
      </trkpt>
      <trkpt lat="48.70224" lon="1.88999">
        <ele>80.8</ele>
        <time>2026-01-30T08:23:21Z</time>
      </trkpt>
      <trkpt lat="48.70221" lon="1.8901">
        <ele>80.8</ele>
        <time>2026-01-30T08:23:22Z</time>
      </trkpt>
      <trkpt lat="48.70217" lon="1.89021">
        <ele>80.8</ele>
        <time>2026-01-30T08:23:23Z</time>
      </trkpt>
      <trkpt lat="48.70215" lon="1.89033">
        <ele>81.2</ele>
        <time>2026-01-30T08:23:24Z</time>
      </trkpt>
      <trkpt lat="48.70212" lon="1.89044">
        <ele>81.2</ele>
        <time>2026-01-30T08:23:25Z</time>
      </trkpt>
      <trkpt lat="48.7021" lon="1.89056">
        <ele>81.2</ele>
        <time>2026-01-30T08:23:26Z</time>
      </trkpt>
      <trkpt lat="48.70207" lon="1.89067">
        <ele>82</ele>
        <time>2026-01-30T08:23:27Z</time>
      </trkpt>
      <trkpt lat="48.70205" lon="1.89078">
        <ele>82.4</ele>
        <time>2026-01-30T08:23:28Z</time>
      </trkpt>
      <trkpt lat="48.70203" lon="1.89088">
        <ele>82.4</ele>
        <time>2026-01-30T08:23:29Z</time>
      </trkpt>
      <trkpt lat="48.702" lon="1.89099">
        <ele>82.4</ele>
        <time>2026-01-30T08:23:30Z</time>
      </trkpt>
      <trkpt lat="48.70198" lon="1.8911">
        <ele>82.4</ele>
        <time>2026-01-30T08:23:31Z</time>
      </trkpt>
      <trkpt lat="48.70196" lon="1.8912">
        <ele>83.2</ele>
        <time>2026-01-30T08:23:32Z</time>
      </trkpt>
      <trkpt lat="48.70194" lon="1.89129">
        <ele>83.2</ele>
        <time>2026-01-30T08:23:33Z</time>
      </trkpt>
      <trkpt lat="48.70193" lon="1.89138">
        <ele>83.2</ele>
        <time>2026-01-30T08:23:34Z</time>
      </trkpt>
      <trkpt lat="48.70191" lon="1.89147">
        <ele>83.2</ele>
        <time>2026-01-30T08:23:35Z</time>
      </trkpt>
      <trkpt lat="48.70189" lon="1.89156">
        <ele>83.4</ele>
        <time>2026-01-30T08:23:36Z</time>
      </trkpt>
      <trkpt lat="48.70187" lon="1.89164">
        <ele>83.4</ele>
        <time>2026-01-30T08:23:37Z</time>
      </trkpt>
      <trkpt lat="48.70185" lon="1.89173">
        <ele>83.4</ele>
        <time>2026-01-30T08:23:38Z</time>
      </trkpt>
      <trkpt lat="48.70183" lon="1.89181">
        <ele>84</ele>
        <time>2026-01-30T08:23:39Z</time>
      </trkpt>
      <trkpt lat="48.70181" lon="1.89189">
        <ele>84</ele>
        <time>2026-01-30T08:23:40Z</time>
      </trkpt>
      <trkpt lat="48.70179" lon="1.89198">
        <ele>84</ele>
        <time>2026-01-30T08:23:41Z</time>
      </trkpt>
      <trkpt lat="48.70177" lon="1.89207">
        <ele>84</ele>
        <time>2026-01-30T08:23:42Z</time>
      </trkpt>
      <trkpt lat="48.70175" lon="1.89215">
        <ele>85</ele>
        <time>2026-01-30T08:23:43Z</time>
      </trkpt>
      <trkpt lat="48.70173" lon="1.89224">
        <ele>85.4</ele>
        <time>2026-01-30T08:23:44Z</time>
      </trkpt>
      <trkpt lat="48.7017" lon="1.89233">
        <ele>85.4</ele>
        <time>2026-01-30T08:23:45Z</time>
      </trkpt>
      <trkpt lat="48.70168" lon="1.89242">
        <ele>85.4</ele>
        <time>2026-01-30T08:23:46Z</time>
      </trkpt>
      <trkpt lat="48.70165" lon="1.8925">
        <ele>85.4</ele>
        <time>2026-01-30T08:23:47Z</time>
      </trkpt>
      <trkpt lat="48.70163" lon="1.89259">
        <ele>85.8</ele>
        <time>2026-01-30T08:23:48Z</time>
      </trkpt>
      <trkpt lat="48.7016" lon="1.89267">
        <ele>85.8</ele>
        <time>2026-01-30T08:23:49Z</time>
      </trkpt>
      <trkpt lat="48.70158" lon="1.89276">
        <ele>85.8</ele>
        <time>2026-01-30T08:23:50Z</time>
      </trkpt>
      <trkpt lat="48.70155" lon="1.89284">
        <ele>85.8</ele>
        <time>2026-01-30T08:23:51Z</time>
      </trkpt>
      <trkpt lat="48.70152" lon="1.89293">
        <ele>85.6</ele>
        <time>2026-01-30T08:23:52Z</time>
      </trkpt>
      <trkpt lat="48.70149" lon="1.89301">
        <ele>85.6</ele>
        <time>2026-01-30T08:23:53Z</time>
      </trkpt>
      <trkpt lat="48.70145" lon="1.89309">
        <ele>85.6</ele>
        <time>2026-01-30T08:23:54Z</time>
      </trkpt>
      <trkpt lat="48.70142" lon="1.89317">
        <ele>85.8</ele>
        <time>2026-01-30T08:23:55Z</time>
      </trkpt>
      <trkpt lat="48.70139" lon="1.89325">
        <ele>85.4</ele>
        <time>2026-01-30T08:23:56Z</time>
      </trkpt>
      <trkpt lat="48.70136" lon="1.89333">
        <ele>85.4</ele>
        <time>2026-01-30T08:23:57Z</time>
      </trkpt>
      <trkpt lat="48.70132" lon="1.89342">
        <ele>85.4</ele>
        <time>2026-01-30T08:23:58Z</time>
      </trkpt>
      <trkpt lat="48.70129" lon="1.89351">
        <ele>84.8</ele>
        <time>2026-01-30T08:23:59Z</time>
      </trkpt>
      <trkpt lat="48.70125" lon="1.8936">
        <ele>85</ele>
        <time>2026-01-30T08:24:00Z</time>
      </trkpt>
      <trkpt lat="48.70122" lon="1.89369">
        <ele>85</ele>
        <time>2026-01-30T08:24:01Z</time>
      </trkpt>
      <trkpt lat="48.70118" lon="1.89378">
        <ele>85</ele>
        <time>2026-01-30T08:24:02Z</time>
      </trkpt>
      <trkpt lat="48.70114" lon="1.89388">
        <ele>84.2</ele>
        <time>2026-01-30T08:24:03Z</time>
      </trkpt>
      <trkpt lat="48.70111" lon="1.89397">
        <ele>84.2</ele>
        <time>2026-01-30T08:24:04Z</time>
      </trkpt>
      <trkpt lat="48.70107" lon="1.89406">
        <ele>84.2</ele>
        <time>2026-01-30T08:24:05Z</time>
      </trkpt>
      <trkpt lat="48.70102" lon="1.89416">
        <ele>84.2</ele>
        <time>2026-01-30T08:24:06Z</time>
      </trkpt>
      <trkpt lat="48.70098" lon="1.89425">
        <ele>83.2</ele>
        <time>2026-01-30T08:24:07Z</time>
      </trkpt>
      <trkpt lat="48.70093" lon="1.89435">
        <ele>82.6</ele>
        <time>2026-01-30T08:24:08Z</time>
      </trkpt>
      <trkpt lat="48.70089" lon="1.89444">
        <ele>82.6</ele>
        <time>2026-01-30T08:24:09Z</time>
      </trkpt>
      <trkpt lat="48.70084" lon="1.89453">
        <ele>82.6</ele>
        <time>2026-01-30T08:24:10Z</time>
      </trkpt>
      <trkpt lat="48.70079" lon="1.89462">
        <ele>82.6</ele>
        <time>2026-01-30T08:24:11Z</time>
      </trkpt>
      <trkpt lat="48.70074" lon="1.89472">
        <ele>82.2</ele>
        <time>2026-01-30T08:24:12Z</time>
      </trkpt>
      <trkpt lat="48.70069" lon="1.89481">
        <ele>82.2</ele>
        <time>2026-01-30T08:24:13Z</time>
      </trkpt>
      <trkpt lat="48.70064" lon="1.8949">
        <ele>82.2</ele>
        <time>2026-01-30T08:24:14Z</time>
      </trkpt>
      <trkpt lat="48.70059" lon="1.895">
        <ele>81.2</ele>
        <time>2026-01-30T08:24:15Z</time>
      </trkpt>
      <trkpt lat="48.70054" lon="1.89509">
        <ele>80.8</ele>
        <time>2026-01-30T08:24:16Z</time>
      </trkpt>
      <trkpt lat="48.70049" lon="1.89519">
        <ele>80.8</ele>
        <time>2026-01-30T08:24:17Z</time>
      </trkpt>
      <trkpt lat="48.70044" lon="1.89528">
        <ele>80.8</ele>
        <time>2026-01-30T08:24:18Z</time>
      </trkpt>
      <trkpt lat="48.70038" lon="1.89536">
        <ele>80.8</ele>
        <time>2026-01-30T08:24:19Z</time>
      </trkpt>
      <trkpt lat="48.70033" lon="1.89544">
        <ele>80.6</ele>
        <time>2026-01-30T08:24:20Z</time>
      </trkpt>
      <trkpt lat="48.70027" lon="1.89552">
        <ele>80.6</ele>
        <time>2026-01-30T08:24:21Z</time>
      </trkpt>
      <trkpt lat="48.7002" lon="1.89559">
        <ele>80.6</ele>
        <time>2026-01-30T08:24:22Z</time>
      </trkpt>
      <trkpt lat="48.70013" lon="1.89566">
        <ele>80.6</ele>
        <time>2026-01-30T08:24:23Z</time>
      </trkpt>
      <trkpt lat="48.70006" lon="1.89571">
        <ele>80.2</ele>
        <time>2026-01-30T08:24:24Z</time>
      </trkpt>
      <trkpt lat="48.69999" lon="1.89573">
        <ele>80.2</ele>
        <time>2026-01-30T08:24:25Z</time>
      </trkpt>
      <trkpt lat="48.69991" lon="1.89575">
        <ele>80.2</ele>
        <time>2026-01-30T08:24:26Z</time>
      </trkpt>
      <trkpt lat="48.69983" lon="1.89574">
        <ele>80.6</ele>
        <time>2026-01-30T08:24:27Z</time>
      </trkpt>
      <trkpt lat="48.69976" lon="1.89572">
        <ele>80.8</ele>
        <time>2026-01-30T08:24:28Z</time>
      </trkpt>
      <trkpt lat="48.6997" lon="1.89569">
        <ele>80.8</ele>
        <time>2026-01-30T08:24:29Z</time>
      </trkpt>
      <trkpt lat="48.69963" lon="1.89566">
        <ele>80.8</ele>
        <time>2026-01-30T08:24:30Z</time>
      </trkpt>
      <trkpt lat="48.69957" lon="1.89563">
        <ele>81.4</ele>
        <time>2026-01-30T08:24:31Z</time>
      </trkpt>
      <trkpt lat="48.69951" lon="1.8956">
        <ele>81.8</ele>
        <time>2026-01-30T08:24:32Z</time>
      </trkpt>
      <trkpt lat="48.69945" lon="1.89557">
        <ele>81.8</ele>
        <time>2026-01-30T08:24:33Z</time>
      </trkpt>
      <trkpt lat="48.69939" lon="1.89554">
        <ele>81.8</ele>
        <time>2026-01-30T08:24:34Z</time>
      </trkpt>
      <trkpt lat="48.69933" lon="1.89553">
        <ele>81.8</ele>
        <time>2026-01-30T08:24:35Z</time>
      </trkpt>
      <trkpt lat="48.69927" lon="1.89552">
        <ele>82.6</ele>
        <time>2026-01-30T08:24:36Z</time>
      </trkpt>
      <trkpt lat="48.69921" lon="1.89553">
        <ele>82.6</ele>
        <time>2026-01-30T08:24:37Z</time>
      </trkpt>
      <trkpt lat="48.69914" lon="1.89554">
        <ele>82.6</ele>
        <time>2026-01-30T08:24:38Z</time>
      </trkpt>
      <trkpt lat="48.69908" lon="1.89555">
        <ele>82.6</ele>
        <time>2026-01-30T08:24:39Z</time>
      </trkpt>
      <trkpt lat="48.69901" lon="1.89557">
        <ele>82.8</ele>
        <time>2026-01-30T08:24:40Z</time>
      </trkpt>
      <trkpt lat="48.69896" lon="1.89559">
        <ele>82.8</ele>
        <time>2026-01-30T08:24:41Z</time>
      </trkpt>
      <trkpt lat="48.6989" lon="1.8956">
        <ele>82.8</ele>
        <time>2026-01-30T08:24:42Z</time>
      </trkpt>
      <trkpt lat="48.69885" lon="1.8956">
        <ele>82.8</ele>
        <time>2026-01-30T08:24:43Z</time>
      </trkpt>
      <trkpt lat="48.6988" lon="1.89563">
        <ele>83.2</ele>
        <time>2026-01-30T08:24:44Z</time>
      </trkpt>
      <trkpt lat="48.69874" lon="1.89564">
        <ele>83.2</ele>
        <time>2026-01-30T08:24:45Z</time>
      </trkpt>
      <trkpt lat="48.69868" lon="1.89567">
        <ele>83.2</ele>
        <time>2026-01-30T08:24:46Z</time>
      </trkpt>
      <trkpt lat="48.69863" lon="1.89569">
        <ele>83.2</ele>
        <time>2026-01-30T08:24:47Z</time>
      </trkpt>
      <trkpt lat="48.69858" lon="1.89572">
        <ele>84</ele>
        <time>2026-01-30T08:24:48Z</time>
      </trkpt>
      <trkpt lat="48.69853" lon="1.89575">
        <ele>84</ele>
        <time>2026-01-30T08:24:49Z</time>
      </trkpt>
      <trkpt lat="48.69847" lon="1.89578">
        <ele>84</ele>
        <time>2026-01-30T08:24:50Z</time>
      </trkpt>
      <trkpt lat="48.69841" lon="1.89581">
        <ele>84</ele>
        <time>2026-01-30T08:24:51Z</time>
      </trkpt>
      <trkpt lat="48.69836" lon="1.89584">
        <ele>84.2</ele>
        <time>2026-01-30T08:24:52Z</time>
      </trkpt>
      <trkpt lat="48.69831" lon="1.89589">
        <ele>84.2</ele>
        <time>2026-01-30T08:24:53Z</time>
      </trkpt>
      <trkpt lat="48.69827" lon="1.89593">
        <ele>84.2</ele>
        <time>2026-01-30T08:24:54Z</time>
      </trkpt>
      <trkpt lat="48.69822" lon="1.89598">
        <ele>85.2</ele>
        <time>2026-01-30T08:24:55Z</time>
      </trkpt>
      <trkpt lat="48.69818" lon="1.89604">
        <ele>85.4</ele>
        <time>2026-01-30T08:24:56Z</time>
      </trkpt>
      <trkpt lat="48.69814" lon="1.89611">
        <ele>85.4</ele>
        <time>2026-01-30T08:24:57Z</time>
      </trkpt>
      <trkpt lat="48.69811" lon="1.89618">
        <ele>85.4</ele>
        <time>2026-01-30T08:24:58Z</time>
      </trkpt>
      <trkpt lat="48.69808" lon="1.89626">
        <ele>84.4</ele>
        <time>2026-01-30T08:24:59Z</time>
      </trkpt>
      <trkpt lat="48.69805" lon="1.89634">
        <ele>83.4</ele>
        <time>2026-01-30T08:25:00Z</time>
      </trkpt>
      <trkpt lat="48.69802" lon="1.89643">
        <ele>83.4</ele>
        <time>2026-01-30T08:25:01Z</time>
      </trkpt>
      <trkpt lat="48.69799" lon="1.89653">
        <ele>83.4</ele>
        <time>2026-01-30T08:25:02Z</time>
      </trkpt>
      <trkpt lat="48.69796" lon="1.89662">
        <ele>82.4</ele>
        <time>2026-01-30T08:25:03Z</time>
      </trkpt>
      <trkpt lat="48.69794" lon="1.89674">
        <ele>81.8</ele>
        <time>2026-01-30T08:25:04Z</time>
      </trkpt>
      <trkpt lat="48.69792" lon="1.89684">
        <ele>81.8</ele>
        <time>2026-01-30T08:25:05Z</time>
      </trkpt>
      <trkpt lat="48.69792" lon="1.89694">
        <ele>81.8</ele>
        <time>2026-01-30T08:25:06Z</time>
      </trkpt>
      <trkpt lat="48.69793" lon="1.89706">
        <ele>81.2</ele>
        <time>2026-01-30T08:25:07Z</time>
      </trkpt>
      <trkpt lat="48.69793" lon="1.89716">
        <ele>81</ele>
        <time>2026-01-30T08:25:08Z</time>
      </trkpt>
      <trkpt lat="48.69795" lon="1.89727">
        <ele>81</ele>
        <time>2026-01-30T08:25:09Z</time>
      </trkpt>
      <trkpt lat="48.69797" lon="1.89739">
        <ele>81</ele>
        <time>2026-01-30T08:25:10Z</time>
      </trkpt>
      <trkpt lat="48.698" lon="1.89751">
        <ele>80.4</ele>
        <time>2026-01-30T08:25:11Z</time>
      </trkpt>
      <trkpt lat="48.69802" lon="1.89762">
        <ele>80.4</ele>
        <time>2026-01-30T08:25:12Z</time>
      </trkpt>
      <trkpt lat="48.69804" lon="1.89773">
        <ele>80.4</ele>
        <time>2026-01-30T08:25:13Z</time>
      </trkpt>
      <trkpt lat="48.69806" lon="1.89784">
        <ele>80.4</ele>
        <time>2026-01-30T08:25:14Z</time>
      </trkpt>
      <trkpt lat="48.69809" lon="1.89795">
        <ele>80.4</ele>
        <time>2026-01-30T08:25:15Z</time>
      </trkpt>
      <trkpt lat="48.69811" lon="1.89807">
        <ele>80.2</ele>
        <time>2026-01-30T08:25:16Z</time>
      </trkpt>
      <trkpt lat="48.69813" lon="1.89818">
        <ele>80.2</ele>
        <time>2026-01-30T08:25:17Z</time>
      </trkpt>
      <trkpt lat="48.69817" lon="1.89828">
        <ele>80.2</ele>
        <time>2026-01-30T08:25:18Z</time>
      </trkpt>
      <trkpt lat="48.6982" lon="1.89839">
        <ele>79.6</ele>
        <time>2026-01-30T08:25:19Z</time>
      </trkpt>
      <trkpt lat="48.69822" lon="1.8985">
        <ele>79.6</ele>
        <time>2026-01-30T08:25:20Z</time>
      </trkpt>
      <trkpt lat="48.69824" lon="1.89861">
        <ele>79.6</ele>
        <time>2026-01-30T08:25:21Z</time>
      </trkpt>
      <trkpt lat="48.69827" lon="1.89873">
        <ele>79.6</ele>
        <time>2026-01-30T08:25:22Z</time>
      </trkpt>
      <trkpt lat="48.69828" lon="1.89885">
        <ele>79.6</ele>
        <time>2026-01-30T08:25:23Z</time>
      </trkpt>
      <trkpt lat="48.6983" lon="1.89896">
        <ele>80</ele>
        <time>2026-01-30T08:25:24Z</time>
      </trkpt>
      <trkpt lat="48.69831" lon="1.89907">
        <ele>80</ele>
        <time>2026-01-30T08:25:25Z</time>
      </trkpt>
      <trkpt lat="48.69833" lon="1.89918">
        <ele>80</ele>
        <time>2026-01-30T08:25:26Z</time>
      </trkpt>
      <trkpt lat="48.69834" lon="1.89929">
        <ele>80.8</ele>
        <time>2026-01-30T08:25:27Z</time>
      </trkpt>
      <trkpt lat="48.69833" lon="1.89941">
        <ele>80.8</ele>
        <time>2026-01-30T08:25:28Z</time>
      </trkpt>
      <trkpt lat="48.69834" lon="1.89952">
        <ele>80.8</ele>
        <time>2026-01-30T08:25:29Z</time>
      </trkpt>
      <trkpt lat="48.69833" lon="1.89962">
        <ele>80.8</ele>
        <time>2026-01-30T08:25:30Z</time>
      </trkpt>
      <trkpt lat="48.69833" lon="1.89971">
        <ele>81.6</ele>
        <time>2026-01-30T08:25:31Z</time>
      </trkpt>
      <trkpt lat="48.69833" lon="1.89981">
        <ele>82.4</ele>
        <time>2026-01-30T08:25:32Z</time>
      </trkpt>
      <trkpt lat="48.69832" lon="1.89991">
        <ele>82.4</ele>
        <time>2026-01-30T08:25:33Z</time>
      </trkpt>
      <trkpt lat="48.69832" lon="1.90001">
        <ele>82.4</ele>
        <time>2026-01-30T08:25:34Z</time>
      </trkpt>
      <trkpt lat="48.69832" lon="1.90011">
        <ele>83.4</ele>
        <time>2026-01-30T08:25:35Z</time>
      </trkpt>
      <trkpt lat="48.69832" lon="1.9002">
        <ele>83.4</ele>
        <time>2026-01-30T08:25:36Z</time>
      </trkpt>
      <trkpt lat="48.69831" lon="1.90028">
        <ele>83.4</ele>
        <time>2026-01-30T08:25:37Z</time>
      </trkpt>
      <trkpt lat="48.69831" lon="1.90037">
        <ele>83.4</ele>
        <time>2026-01-30T08:25:38Z</time>
      </trkpt>
      <trkpt lat="48.69831" lon="1.90045">
        <ele>83.4</ele>
        <time>2026-01-30T08:25:39Z</time>
      </trkpt>
      <trkpt lat="48.6983" lon="1.90053">
        <ele>84.6</ele>
        <time>2026-01-30T08:25:40Z</time>
      </trkpt>
      <trkpt lat="48.6983" lon="1.90063">
        <ele>84.6</ele>
        <time>2026-01-30T08:25:41Z</time>
      </trkpt>
      <trkpt lat="48.6983" lon="1.90072">
        <ele>84.6</ele>
        <time>2026-01-30T08:25:42Z</time>
      </trkpt>
      <trkpt lat="48.69829" lon="1.9008">
        <ele>84.6</ele>
        <time>2026-01-30T08:25:43Z</time>
      </trkpt>
      <trkpt lat="48.69829" lon="1.90089">
        <ele>85.4</ele>
        <time>2026-01-30T08:25:44Z</time>
      </trkpt>
      <trkpt lat="48.69829" lon="1.90099">
        <ele>85.4</ele>
        <time>2026-01-30T08:25:45Z</time>
      </trkpt>
      <trkpt lat="48.69828" lon="1.90107">
        <ele>85.4</ele>
        <time>2026-01-30T08:25:46Z</time>
      </trkpt>
      <trkpt lat="48.69827" lon="1.90115">
        <ele>85.4</ele>
        <time>2026-01-30T08:25:47Z</time>
      </trkpt>
      <trkpt lat="48.69827" lon="1.90125">
        <ele>86.4</ele>
        <time>2026-01-30T08:25:48Z</time>
      </trkpt>
      <trkpt lat="48.69828" lon="1.90134">
        <ele>86.4</ele>
        <time>2026-01-30T08:25:49Z</time>
      </trkpt>
      <trkpt lat="48.69828" lon="1.90142">
        <ele>86.4</ele>
        <time>2026-01-30T08:25:50Z</time>
      </trkpt>
      <trkpt lat="48.69828" lon="1.90151">
        <ele>86.4</ele>
        <time>2026-01-30T08:25:51Z</time>
      </trkpt>
      <trkpt lat="48.69827" lon="1.90159">
        <ele>86.8</ele>
        <time>2026-01-30T08:25:52Z</time>
      </trkpt>
      <trkpt lat="48.69827" lon="1.90168">
        <ele>86.8</ele>
        <time>2026-01-30T08:25:53Z</time>
      </trkpt>
      <trkpt lat="48.69826" lon="1.90177">
        <ele>86.8</ele>
        <time>2026-01-30T08:25:54Z</time>
      </trkpt>
      <trkpt lat="48.69826" lon="1.90187">
        <ele>86.8</ele>
        <time>2026-01-30T08:25:55Z</time>
      </trkpt>
      <trkpt lat="48.69826" lon="1.90197">
        <ele>87.2</ele>
        <time>2026-01-30T08:25:56Z</time>
      </trkpt>
      <trkpt lat="48.69825" lon="1.90206">
        <ele>87.2</ele>
        <time>2026-01-30T08:25:57Z</time>
      </trkpt>
      <trkpt lat="48.69824" lon="1.90215">
        <ele>87.2</ele>
        <time>2026-01-30T08:25:58Z</time>
      </trkpt>
      <trkpt lat="48.69822" lon="1.90224">
        <ele>87.2</ele>
        <time>2026-01-30T08:25:59Z</time>
      </trkpt>
      <trkpt lat="48.6982" lon="1.90234">
        <ele>87.2</ele>
        <time>2026-01-30T08:26:00Z</time>
      </trkpt>
      <trkpt lat="48.69818" lon="1.90242">
        <ele>87.2</ele>
        <time>2026-01-30T08:26:01Z</time>
      </trkpt>
      <trkpt lat="48.69814" lon="1.9025">
        <ele>87.2</ele>
        <time>2026-01-30T08:26:02Z</time>
      </trkpt>
      <trkpt lat="48.69811" lon="1.90257">
        <ele>87.2</ele>
        <time>2026-01-30T08:26:03Z</time>
      </trkpt>
      <trkpt lat="48.69809" lon="1.90262">
        <ele>87.8</ele>
        <time>2026-01-30T08:26:04Z</time>
      </trkpt>
      <trkpt lat="48.69806" lon="1.90268">
        <ele>87.8</ele>
        <time>2026-01-30T08:26:05Z</time>
      </trkpt>
      <trkpt lat="48.69803" lon="1.90274">
        <ele>87.8</ele>
        <time>2026-01-30T08:26:06Z</time>
      </trkpt>
      <trkpt lat="48.69801" lon="1.90278">
        <ele>88.6</ele>
        <time>2026-01-30T08:26:07Z</time>
      </trkpt>
      <trkpt lat="48.69799" lon="1.90284">
        <ele>88.4</ele>
        <time>2026-01-30T08:26:08Z</time>
      </trkpt>
      <trkpt lat="48.69796" lon="1.90289">
        <ele>88.4</ele>
        <time>2026-01-30T08:26:09Z</time>
      </trkpt>
      <trkpt lat="48.69793" lon="1.90293">
        <ele>88.4</ele>
        <time>2026-01-30T08:26:10Z</time>
      </trkpt>
      <trkpt lat="48.69791" lon="1.90298">
        <ele>88.4</ele>
        <time>2026-01-30T08:26:11Z</time>
      </trkpt>
      <trkpt lat="48.69788" lon="1.90303">
        <ele>85</ele>
        <time>2026-01-30T08:26:12Z</time>
      </trkpt>
      <trkpt lat="48.69785" lon="1.90308">
        <ele>85</ele>
        <time>2026-01-30T08:26:13Z</time>
      </trkpt>
      <trkpt lat="48.69781" lon="1.90316">
        <ele>85</ele>
        <time>2026-01-30T08:26:14Z</time>
      </trkpt>
      <trkpt lat="48.69777" lon="1.90325">
        <ele>85.6</ele>
        <time>2026-01-30T08:26:15Z</time>
      </trkpt>
      <trkpt lat="48.69773" lon="1.90335">
        <ele>84.4</ele>
        <time>2026-01-30T08:26:16Z</time>
      </trkpt>
      <trkpt lat="48.69769" lon="1.90344">
        <ele>84.4</ele>
        <time>2026-01-30T08:26:17Z</time>
      </trkpt>
      <trkpt lat="48.69766" lon="1.90354">
        <ele>84.4</ele>
        <time>2026-01-30T08:26:18Z</time>
      </trkpt>
      <trkpt lat="48.69763" lon="1.90361">
        <ele>84.2</ele>
        <time>2026-01-30T08:26:19Z</time>
      </trkpt>
      <trkpt lat="48.6976" lon="1.90369">
        <ele>83.8</ele>
        <time>2026-01-30T08:26:20Z</time>
      </trkpt>
      <trkpt lat="48.69757" lon="1.90377">
        <ele>83.8</ele>
        <time>2026-01-30T08:26:21Z</time>
      </trkpt>
      <trkpt lat="48.69754" lon="1.90386">
        <ele>83.8</ele>
        <time>2026-01-30T08:26:22Z</time>
      </trkpt>
      <trkpt lat="48.69751" lon="1.90394">
        <ele>83.8</ele>
        <time>2026-01-30T08:26:23Z</time>
      </trkpt>
      <trkpt lat="48.69747" lon="1.90404">
        <ele>84</ele>
        <time>2026-01-30T08:26:24Z</time>
      </trkpt>
      <trkpt lat="48.69743" lon="1.90414">
        <ele>84</ele>
        <time>2026-01-30T08:26:25Z</time>
      </trkpt>
      <trkpt lat="48.69738" lon="1.90422">
        <ele>84</ele>
        <time>2026-01-30T08:26:26Z</time>
      </trkpt>
      <trkpt lat="48.69733" lon="1.9043">
        <ele>83.8</ele>
        <time>2026-01-30T08:26:27Z</time>
      </trkpt>
      <trkpt lat="48.69727" lon="1.90438">
        <ele>83.4</ele>
        <time>2026-01-30T08:26:28Z</time>
      </trkpt>
      <trkpt lat="48.69721" lon="1.90446">
        <ele>83.4</ele>
        <time>2026-01-30T08:26:29Z</time>
      </trkpt>
      <trkpt lat="48.69715" lon="1.90455">
        <ele>83.4</ele>
        <time>2026-01-30T08:26:30Z</time>
      </trkpt>
      <trkpt lat="48.69707" lon="1.90463">
        <ele>83.4</ele>
        <time>2026-01-30T08:26:31Z</time>
      </trkpt>
      <trkpt lat="48.697" lon="1.90472">
        <ele>82.4</ele>
        <time>2026-01-30T08:26:32Z</time>
      </trkpt>
      <trkpt lat="48.69692" lon="1.90481">
        <ele>82.4</ele>
        <time>2026-01-30T08:26:33Z</time>
      </trkpt>
      <trkpt lat="48.69684" lon="1.90489">
        <ele>82.4</ele>
        <time>2026-01-30T08:26:34Z</time>
      </trkpt>
      <trkpt lat="48.69677" lon="1.90497">
        <ele>81.4</ele>
        <time>2026-01-30T08:26:35Z</time>
      </trkpt>
      <trkpt lat="48.69669" lon="1.90506">
        <ele>80</ele>
        <time>2026-01-30T08:26:36Z</time>
      </trkpt>
      <trkpt lat="48.69662" lon="1.90514">
        <ele>80</ele>
        <time>2026-01-30T08:26:37Z</time>
      </trkpt>
      <trkpt lat="48.69654" lon="1.90525">
        <ele>80</ele>
        <time>2026-01-30T08:26:38Z</time>
      </trkpt>
      <trkpt lat="48.69647" lon="1.90538">
        <ele>79</ele>
        <time>2026-01-30T08:26:39Z</time>
      </trkpt>
      <trkpt lat="48.6964" lon="1.90552">
        <ele>78</ele>
        <time>2026-01-30T08:26:40Z</time>
      </trkpt>
      <trkpt lat="48.69634" lon="1.90566">
        <ele>78</ele>
        <time>2026-01-30T08:26:41Z</time>
      </trkpt>
      <trkpt lat="48.69629" lon="1.90579">
        <ele>78</ele>
        <time>2026-01-30T08:26:42Z</time>
      </trkpt>
      <trkpt lat="48.69623" lon="1.90591">
        <ele>77</ele>
        <time>2026-01-30T08:26:43Z</time>
      </trkpt>
      <trkpt lat="48.69618" lon="1.90601">
        <ele>76.4</ele>
        <time>2026-01-30T08:26:44Z</time>
      </trkpt>
      <trkpt lat="48.69611" lon="1.90613">
        <ele>76.4</ele>
        <time>2026-01-30T08:26:45Z</time>
      </trkpt>
      <trkpt lat="48.69605" lon="1.90623">
        <ele>76.4</ele>
        <time>2026-01-30T08:26:46Z</time>
      </trkpt>
      <trkpt lat="48.69599" lon="1.90633">
        <ele>76.4</ele>
        <time>2026-01-30T08:26:47Z</time>
      </trkpt>
      <trkpt lat="48.69587" lon="1.9065">
        <ele>76.6</ele>
        <time>2026-01-30T08:26:48Z</time>
      </trkpt>
      <trkpt lat="48.69581" lon="1.9066">
        <ele>76.6</ele>
        <time>2026-01-30T08:26:49Z</time>
      </trkpt>
      <trkpt lat="48.69575" lon="1.90669">
        <ele>76.6</ele>
        <time>2026-01-30T08:26:50Z</time>
      </trkpt>
      <trkpt lat="48.69558" lon="1.90698">
        <ele>77.6</ele>
        <time>2026-01-30T08:26:51Z</time>
      </trkpt>
      <trkpt lat="48.69551" lon="1.90705">
        <ele>79</ele>
        <time>2026-01-30T08:26:52Z</time>
      </trkpt>
      <trkpt lat="48.69545" lon="1.90709">
        <ele>79</ele>
        <time>2026-01-30T08:26:53Z</time>
      </trkpt>
      <trkpt lat="48.69539" lon="1.90714">
        <ele>79</ele>
        <time>2026-01-30T08:26:54Z</time>
      </trkpt>
      <trkpt lat="48.69533" lon="1.90718">
        <ele>80</ele>
        <time>2026-01-30T08:26:55Z</time>
      </trkpt>
      <trkpt lat="48.69528" lon="1.90721">
        <ele>82</ele>
        <time>2026-01-30T08:26:56Z</time>
      </trkpt>
      <trkpt lat="48.69522" lon="1.90726">
        <ele>82</ele>
        <time>2026-01-30T08:26:57Z</time>
      </trkpt>
      <trkpt lat="48.69517" lon="1.9073">
        <ele>82</ele>
        <time>2026-01-30T08:26:58Z</time>
      </trkpt>
      <trkpt lat="48.69512" lon="1.90734">
        <ele>82</ele>
        <time>2026-01-30T08:26:59Z</time>
      </trkpt>
      <trkpt lat="48.69507" lon="1.90737">
        <ele>82.8</ele>
        <time>2026-01-30T08:27:00Z</time>
      </trkpt>
      <trkpt lat="48.69502" lon="1.90739">
        <ele>82.8</ele>
        <time>2026-01-30T08:27:01Z</time>
      </trkpt>
      <trkpt lat="48.69497" lon="1.90743">
        <ele>82.8</ele>
        <time>2026-01-30T08:27:02Z</time>
      </trkpt>
      <trkpt lat="48.69492" lon="1.90744">
        <ele>83.2</ele>
        <time>2026-01-30T08:27:03Z</time>
      </trkpt>
      <trkpt lat="48.69486" lon="1.90748">
        <ele>83.4</ele>
        <time>2026-01-30T08:27:04Z</time>
      </trkpt>
      <trkpt lat="48.6948" lon="1.9075">
        <ele>83.4</ele>
        <time>2026-01-30T08:27:05Z</time>
      </trkpt>
      <trkpt lat="48.69473" lon="1.90752">
        <ele>83.4</ele>
        <time>2026-01-30T08:27:06Z</time>
      </trkpt>
      <trkpt lat="48.69467" lon="1.90754">
        <ele>83.8</ele>
        <time>2026-01-30T08:27:07Z</time>
      </trkpt>
      <trkpt lat="48.6946" lon="1.90755">
        <ele>84.2</ele>
        <time>2026-01-30T08:27:08Z</time>
      </trkpt>
      <trkpt lat="48.69454" lon="1.90756">
        <ele>84.2</ele>
        <time>2026-01-30T08:27:09Z</time>
      </trkpt>
      <trkpt lat="48.69447" lon="1.90757">
        <ele>84.2</ele>
        <time>2026-01-30T08:27:10Z</time>
      </trkpt>
      <trkpt lat="48.6944" lon="1.90758">
        <ele>85.2</ele>
        <time>2026-01-30T08:27:11Z</time>
      </trkpt>
      <trkpt lat="48.69433" lon="1.90759">
        <ele>85</ele>
        <time>2026-01-30T08:27:12Z</time>
      </trkpt>
      <trkpt lat="48.69426" lon="1.90758">
        <ele>85</ele>
        <time>2026-01-30T08:27:13Z</time>
      </trkpt>
      <trkpt lat="48.6942" lon="1.90758">
        <ele>85</ele>
        <time>2026-01-30T08:27:14Z</time>
      </trkpt>
      <trkpt lat="48.69414" lon="1.90759">
        <ele>85.8</ele>
        <time>2026-01-30T08:27:15Z</time>
      </trkpt>
      <trkpt lat="48.69406" lon="1.90759">
        <ele>85.8</ele>
        <time>2026-01-30T08:27:16Z</time>
      </trkpt>
      <trkpt lat="48.694" lon="1.90761">
        <ele>85.8</ele>
        <time>2026-01-30T08:27:17Z</time>
      </trkpt>
      <trkpt lat="48.69393" lon="1.90763">
        <ele>85.8</ele>
        <time>2026-01-30T08:27:18Z</time>
      </trkpt>
      <trkpt lat="48.69387" lon="1.90766">
        <ele>86.2</ele>
        <time>2026-01-30T08:27:19Z</time>
      </trkpt>
      <trkpt lat="48.69381" lon="1.90768">
        <ele>86</ele>
        <time>2026-01-30T08:27:20Z</time>
      </trkpt>
      <trkpt lat="48.69375" lon="1.90772">
        <ele>86</ele>
        <time>2026-01-30T08:27:21Z</time>
      </trkpt>
      <trkpt lat="48.69369" lon="1.90776">
        <ele>86</ele>
        <time>2026-01-30T08:27:22Z</time>
      </trkpt>
      <trkpt lat="48.69363" lon="1.90781">
        <ele>85</ele>
        <time>2026-01-30T08:27:23Z</time>
      </trkpt>
      <trkpt lat="48.69356" lon="1.90787">
        <ele>84.2</ele>
        <time>2026-01-30T08:27:24Z</time>
      </trkpt>
      <trkpt lat="48.69349" lon="1.90793">
        <ele>84.2</ele>
        <time>2026-01-30T08:27:25Z</time>
      </trkpt>
      <trkpt lat="48.69343" lon="1.90801">
        <ele>84.2</ele>
        <time>2026-01-30T08:27:26Z</time>
      </trkpt>
      <trkpt lat="48.69337" lon="1.90809">
        <ele>84.2</ele>
        <time>2026-01-30T08:27:27Z</time>
      </trkpt>
      <trkpt lat="48.6933" lon="1.90817">
        <ele>83.8</ele>
        <time>2026-01-30T08:27:28Z</time>
      </trkpt>
      <trkpt lat="48.69325" lon="1.90823">
        <ele>83.8</ele>
        <time>2026-01-30T08:27:29Z</time>
      </trkpt>
      <trkpt lat="48.69319" lon="1.9083">
        <ele>83.8</ele>
        <time>2026-01-30T08:27:30Z</time>
      </trkpt>
      <trkpt lat="48.69313" lon="1.90836">
        <ele>83.8</ele>
        <time>2026-01-30T08:27:31Z</time>
      </trkpt>
      <trkpt lat="48.69307" lon="1.90842">
        <ele>83.6</ele>
        <time>2026-01-30T08:27:32Z</time>
      </trkpt>
      <trkpt lat="48.69301" lon="1.90849">
        <ele>83.6</ele>
        <time>2026-01-30T08:27:33Z</time>
      </trkpt>
      <trkpt lat="48.69296" lon="1.90855">
        <ele>83.6</ele>
        <time>2026-01-30T08:27:34Z</time>
      </trkpt>
      <trkpt lat="48.6929" lon="1.90862">
        <ele>84</ele>
        <time>2026-01-30T08:27:35Z</time>
      </trkpt>
      <trkpt lat="48.69284" lon="1.90868">
        <ele>83.2</ele>
        <time>2026-01-30T08:27:36Z</time>
      </trkpt>
      <trkpt lat="48.69279" lon="1.90874">
        <ele>83.2</ele>
        <time>2026-01-30T08:27:37Z</time>
      </trkpt>
      <trkpt lat="48.69273" lon="1.90881">
        <ele>83.2</ele>
        <time>2026-01-30T08:27:38Z</time>
      </trkpt>
      <trkpt lat="48.69268" lon="1.90887">
        <ele>83.2</ele>
        <time>2026-01-30T08:27:39Z</time>
      </trkpt>
      <trkpt lat="48.69262" lon="1.90894">
        <ele>82.8</ele>
        <time>2026-01-30T08:27:40Z</time>
      </trkpt>
      <trkpt lat="48.69256" lon="1.90902">
        <ele>82.8</ele>
        <time>2026-01-30T08:27:41Z</time>
      </trkpt>
      <trkpt lat="48.6925" lon="1.9091">
        <ele>82.8</ele>
        <time>2026-01-30T08:27:42Z</time>
      </trkpt>
      <trkpt lat="48.69244" lon="1.90917">
        <ele>82.4</ele>
        <time>2026-01-30T08:27:43Z</time>
      </trkpt>
      <trkpt lat="48.69238" lon="1.90924">
        <ele>82</ele>
        <time>2026-01-30T08:27:44Z</time>
      </trkpt>
      <trkpt lat="48.69232" lon="1.90932">
        <ele>82</ele>
        <time>2026-01-30T08:27:45Z</time>
      </trkpt>
      <trkpt lat="48.69225" lon="1.9094">
        <ele>82</ele>
        <time>2026-01-30T08:27:46Z</time>
      </trkpt>
      <trkpt lat="48.69219" lon="1.90946">
        <ele>81</ele>
        <time>2026-01-30T08:27:47Z</time>
      </trkpt>
      <trkpt lat="48.69213" lon="1.90954">
        <ele>80.6</ele>
        <time>2026-01-30T08:27:48Z</time>
      </trkpt>
      <trkpt lat="48.69207" lon="1.90961">
        <ele>80.6</ele>
        <time>2026-01-30T08:27:49Z</time>
      </trkpt>
      <trkpt lat="48.692" lon="1.90968">
        <ele>80.6</ele>
        <time>2026-01-30T08:27:50Z</time>
      </trkpt>
      <trkpt lat="48.69194" lon="1.90976">
        <ele>79.6</ele>
        <time>2026-01-30T08:27:51Z</time>
      </trkpt>
      <trkpt lat="48.69187" lon="1.90984">
        <ele>79</ele>
        <time>2026-01-30T08:27:52Z</time>
      </trkpt>
      <trkpt lat="48.6918" lon="1.90992">
        <ele>79</ele>
        <time>2026-01-30T08:27:53Z</time>
      </trkpt>
      <trkpt lat="48.69173" lon="1.91">
        <ele>79</ele>
        <time>2026-01-30T08:27:54Z</time>
      </trkpt>
      <trkpt lat="48.69166" lon="1.91007">
        <ele>78</ele>
        <time>2026-01-30T08:27:55Z</time>
      </trkpt>
      <trkpt lat="48.69159" lon="1.91014">
        <ele>76.4</ele>
        <time>2026-01-30T08:27:56Z</time>
      </trkpt>
      <trkpt lat="48.69152" lon="1.91022">
        <ele>76.4</ele>
        <time>2026-01-30T08:27:57Z</time>
      </trkpt>
      <trkpt lat="48.69146" lon="1.9103">
        <ele>76.4</ele>
        <time>2026-01-30T08:27:58Z</time>
      </trkpt>
      <trkpt lat="48.69139" lon="1.9104">
        <ele>75.4</ele>
        <time>2026-01-30T08:27:59Z</time>
      </trkpt>
      <trkpt lat="48.69132" lon="1.91051">
        <ele>72.8</ele>
        <time>2026-01-30T08:28:00Z</time>
      </trkpt>
      <trkpt lat="48.69125" lon="1.91063">
        <ele>72.8</ele>
        <time>2026-01-30T08:28:01Z</time>
      </trkpt>
      <trkpt lat="48.69118" lon="1.91076">
        <ele>72.8</ele>
        <time>2026-01-30T08:28:02Z</time>
      </trkpt>
      <trkpt lat="48.69112" lon="1.9109">
        <ele>71.8</ele>
        <time>2026-01-30T08:28:03Z</time>
      </trkpt>
      <trkpt lat="48.69107" lon="1.91105">
        <ele>68.8</ele>
        <time>2026-01-30T08:28:04Z</time>
      </trkpt>
      <trkpt lat="48.69101" lon="1.9112">
        <ele>68.8</ele>
        <time>2026-01-30T08:28:05Z</time>
      </trkpt>
      <trkpt lat="48.69096" lon="1.91134">
        <ele>68.8</ele>
        <time>2026-01-30T08:28:06Z</time>
      </trkpt>
      <trkpt lat="48.6909" lon="1.91147">
        <ele>67.8</ele>
        <time>2026-01-30T08:28:07Z</time>
      </trkpt>
      <trkpt lat="48.69084" lon="1.91157">
        <ele>67</ele>
        <time>2026-01-30T08:28:08Z</time>
      </trkpt>
      <trkpt lat="48.69076" lon="1.91171">
        <ele>67</ele>
        <time>2026-01-30T08:28:09Z</time>
      </trkpt>
      <trkpt lat="48.69069" lon="1.91182">
        <ele>67</ele>
        <time>2026-01-30T08:28:10Z</time>
      </trkpt>
      <trkpt lat="48.69062" lon="1.91193">
        <ele>67</ele>
        <time>2026-01-30T08:28:11Z</time>
      </trkpt>
      <trkpt lat="48.69055" lon="1.91205">
        <ele>67.2</ele>
        <time>2026-01-30T08:28:12Z</time>
      </trkpt>
      <trkpt lat="48.69048" lon="1.91214">
        <ele>67.2</ele>
        <time>2026-01-30T08:28:13Z</time>
      </trkpt>
      <trkpt lat="48.69042" lon="1.91223">
        <ele>67.2</ele>
        <time>2026-01-30T08:28:14Z</time>
      </trkpt>
      <trkpt lat="48.69034" lon="1.91235">
        <ele>67.2</ele>
        <time>2026-01-30T08:28:15Z</time>
      </trkpt>
      <trkpt lat="48.69028" lon="1.91246">
        <ele>66.6</ele>
        <time>2026-01-30T08:28:16Z</time>
      </trkpt>
      <trkpt lat="48.69022" lon="1.91258">
        <ele>66.6</ele>
        <time>2026-01-30T08:28:17Z</time>
      </trkpt>
      <trkpt lat="48.69015" lon="1.91273">
        <ele>66.6</ele>
        <time>2026-01-30T08:28:18Z</time>
      </trkpt>
      <trkpt lat="48.69009" lon="1.91287">
        <ele>66.6</ele>
        <time>2026-01-30T08:28:19Z</time>
      </trkpt>
      <trkpt lat="48.69005" lon="1.913">
        <ele>67.6</ele>
        <time>2026-01-30T08:28:20Z</time>
      </trkpt>
      <trkpt lat="48.69" lon="1.91312">
        <ele>67.6</ele>
        <time>2026-01-30T08:28:21Z</time>
      </trkpt>
      <trkpt lat="48.68996" lon="1.91326">
        <ele>67.6</ele>
        <time>2026-01-30T08:28:22Z</time>
      </trkpt>
      <trkpt lat="48.68993" lon="1.91339">
        <ele>68.6</ele>
        <time>2026-01-30T08:28:23Z</time>
      </trkpt>
      <trkpt lat="48.68991" lon="1.91352">
        <ele>68.8</ele>
        <time>2026-01-30T08:28:24Z</time>
      </trkpt>
      <trkpt lat="48.68988" lon="1.91365">
        <ele>68.8</ele>
        <time>2026-01-30T08:28:25Z</time>
      </trkpt>
      <trkpt lat="48.68986" lon="1.91378">
        <ele>68.8</ele>
        <time>2026-01-30T08:28:26Z</time>
      </trkpt>
      <trkpt lat="48.68984" lon="1.9139">
        <ele>69.8</ele>
        <time>2026-01-30T08:28:27Z</time>
      </trkpt>
      <trkpt lat="48.68982" lon="1.91402">
        <ele>70.2</ele>
        <time>2026-01-30T08:28:28Z</time>
      </trkpt>
      <trkpt lat="48.6898" lon="1.91413">
        <ele>70.2</ele>
        <time>2026-01-30T08:28:29Z</time>
      </trkpt>
      <trkpt lat="48.68978" lon="1.91422">
        <ele>70.2</ele>
        <time>2026-01-30T08:28:30Z</time>
      </trkpt>
      <trkpt lat="48.68976" lon="1.91433">
        <ele>71.2</ele>
        <time>2026-01-30T08:28:31Z</time>
      </trkpt>
      <trkpt lat="48.68974" lon="1.91445">
        <ele>71.8</ele>
        <time>2026-01-30T08:28:32Z</time>
      </trkpt>
      <trkpt lat="48.68972" lon="1.91456">
        <ele>71.8</ele>
        <time>2026-01-30T08:28:33Z</time>
      </trkpt>
      <trkpt lat="48.6897" lon="1.91468">
        <ele>71.8</ele>
        <time>2026-01-30T08:28:34Z</time>
      </trkpt>
      <trkpt lat="48.68968" lon="1.9148">
        <ele>71.8</ele>
        <time>2026-01-30T08:28:35Z</time>
      </trkpt>
      <trkpt lat="48.68967" lon="1.91491">
        <ele>72</ele>
        <time>2026-01-30T08:28:36Z</time>
      </trkpt>
      <trkpt lat="48.68964" lon="1.91502">
        <ele>72</ele>
        <time>2026-01-30T08:28:37Z</time>
      </trkpt>
      <trkpt lat="48.68962" lon="1.91513">
        <ele>72</ele>
        <time>2026-01-30T08:28:38Z</time>
      </trkpt>
      <trkpt lat="48.68961" lon="1.91525">
        <ele>71</ele>
        <time>2026-01-30T08:28:39Z</time>
      </trkpt>
      <trkpt lat="48.68958" lon="1.91537">
        <ele>69.8</ele>
        <time>2026-01-30T08:28:40Z</time>
      </trkpt>
      <trkpt lat="48.68956" lon="1.91549">
        <ele>69.8</ele>
        <time>2026-01-30T08:28:41Z</time>
      </trkpt>
      <trkpt lat="48.68955" lon="1.91561">
        <ele>69.8</ele>
        <time>2026-01-30T08:28:42Z</time>
      </trkpt>
      <trkpt lat="48.68953" lon="1.91574">
        <ele>69.8</ele>
        <time>2026-01-30T08:28:43Z</time>
      </trkpt>
      <trkpt lat="48.6895" lon="1.91587">
        <ele>69.4</ele>
        <time>2026-01-30T08:28:44Z</time>
      </trkpt>
      <trkpt lat="48.68948" lon="1.91598">
        <ele>69.4</ele>
        <time>2026-01-30T08:28:45Z</time>
      </trkpt>
      <trkpt lat="48.68946" lon="1.91609">
        <ele>69.4</ele>
        <time>2026-01-30T08:28:46Z</time>
      </trkpt>
      <trkpt lat="48.68945" lon="1.91619">
        <ele>69.4</ele>
        <time>2026-01-30T08:28:47Z</time>
      </trkpt>
      <trkpt lat="48.68943" lon="1.91631">
        <ele>69.6</ele>
        <time>2026-01-30T08:28:48Z</time>
      </trkpt>
      <trkpt lat="48.68942" lon="1.9164">
        <ele>69.6</ele>
        <time>2026-01-30T08:28:49Z</time>
      </trkpt>
      <trkpt lat="48.68941" lon="1.91651">
        <ele>69.6</ele>
        <time>2026-01-30T08:28:50Z</time>
      </trkpt>
      <trkpt lat="48.6894" lon="1.91663">
        <ele>69.6</ele>
        <time>2026-01-30T08:28:51Z</time>
      </trkpt>
      <trkpt lat="48.68939" lon="1.91674">
        <ele>69.2</ele>
        <time>2026-01-30T08:28:52Z</time>
      </trkpt>
      <trkpt lat="48.68938" lon="1.91685">
        <ele>69.2</ele>
        <time>2026-01-30T08:28:53Z</time>
      </trkpt>
      <trkpt lat="48.68937" lon="1.91697">
        <ele>69.2</ele>
        <time>2026-01-30T08:28:54Z</time>
      </trkpt>
      <trkpt lat="48.68937" lon="1.9171">
        <ele>69.2</ele>
        <time>2026-01-30T08:28:55Z</time>
      </trkpt>
      <trkpt lat="48.68936" lon="1.91721">
        <ele>69.6</ele>
        <time>2026-01-30T08:28:56Z</time>
      </trkpt>
      <trkpt lat="48.68933" lon="1.91732">
        <ele>69.6</ele>
        <time>2026-01-30T08:28:57Z</time>
      </trkpt>
      <trkpt lat="48.6893" lon="1.91742">
        <ele>69.6</ele>
        <time>2026-01-30T08:28:58Z</time>
      </trkpt>
      <trkpt lat="48.68927" lon="1.91751">
        <ele>70</ele>
        <time>2026-01-30T08:28:59Z</time>
      </trkpt>
      <trkpt lat="48.68922" lon="1.91757">
        <ele>70.2</ele>
        <time>2026-01-30T08:29:00Z</time>
      </trkpt>
      <trkpt lat="48.68917" lon="1.91763">
        <ele>70.2</ele>
        <time>2026-01-30T08:29:01Z</time>
      </trkpt>
      <trkpt lat="48.68912" lon="1.91768">
        <ele>70.2</ele>
        <time>2026-01-30T08:29:02Z</time>
      </trkpt>
      <trkpt lat="48.68906" lon="1.91773">
        <ele>70.2</ele>
        <time>2026-01-30T08:29:03Z</time>
      </trkpt>
      <trkpt lat="48.689" lon="1.91776">
        <ele>70.8</ele>
        <time>2026-01-30T08:29:04Z</time>
      </trkpt>
      <trkpt lat="48.68895" lon="1.91777">
        <ele>70.8</ele>
        <time>2026-01-30T08:29:05Z</time>
      </trkpt>
      <trkpt lat="48.6889" lon="1.91781">
        <ele>70.8</ele>
        <time>2026-01-30T08:29:06Z</time>
      </trkpt>
      <trkpt lat="48.68884" lon="1.91785">
        <ele>71.8</ele>
        <time>2026-01-30T08:29:07Z</time>
      </trkpt>
      <trkpt lat="48.6888" lon="1.91791">
        <ele>73</ele>
        <time>2026-01-30T08:29:08Z</time>
      </trkpt>
      <trkpt lat="48.68875" lon="1.91796">
        <ele>73</ele>
        <time>2026-01-30T08:29:09Z</time>
      </trkpt>
      <trkpt lat="48.68871" lon="1.918">
        <ele>73</ele>
        <time>2026-01-30T08:29:10Z</time>
      </trkpt>
      <trkpt lat="48.68867" lon="1.91805">
        <ele>73</ele>
        <time>2026-01-30T08:29:11Z</time>
      </trkpt>
      <trkpt lat="48.68864" lon="1.9181">
        <ele>74.2</ele>
        <time>2026-01-30T08:29:12Z</time>
      </trkpt>
      <trkpt lat="48.68861" lon="1.91815">
        <ele>74.2</ele>
        <time>2026-01-30T08:29:13Z</time>
      </trkpt>
      <trkpt lat="48.68858" lon="1.91819">
        <ele>74.2</ele>
        <time>2026-01-30T08:29:14Z</time>
      </trkpt>
      <trkpt lat="48.68855" lon="1.91823">
        <ele>75</ele>
        <time>2026-01-30T08:29:15Z</time>
      </trkpt>
      <trkpt lat="48.68852" lon="1.91826">
        <ele>75.2</ele>
        <time>2026-01-30T08:29:16Z</time>
      </trkpt>
      <trkpt lat="48.68849" lon="1.91831">
        <ele>75.2</ele>
        <time>2026-01-30T08:29:17Z</time>
      </trkpt>
      <trkpt lat="48.68845" lon="1.91835">
        <ele>75.2</ele>
        <time>2026-01-30T08:29:18Z</time>
      </trkpt>
      <trkpt lat="48.68841" lon="1.9184">
        <ele>76</ele>
        <time>2026-01-30T08:29:19Z</time>
      </trkpt>
      <trkpt lat="48.68838" lon="1.91845">
        <ele>76.2</ele>
        <time>2026-01-30T08:29:20Z</time>
      </trkpt>
      <trkpt lat="48.68835" lon="1.91847">
        <ele>76.2</ele>
        <time>2026-01-30T08:29:21Z</time>
      </trkpt>
      <trkpt lat="48.68831" lon="1.91854">
        <ele>76.2</ele>
        <time>2026-01-30T08:29:22Z</time>
      </trkpt>
      <trkpt lat="48.68828" lon="1.91859">
        <ele>77.2</ele>
        <time>2026-01-30T08:29:23Z</time>
      </trkpt>
      <trkpt lat="48.68824" lon="1.91864">
        <ele>78</ele>
        <time>2026-01-30T08:29:24Z</time>
      </trkpt>
      <trkpt lat="48.68822" lon="1.91867">
        <ele>78</ele>
        <time>2026-01-30T08:29:25Z</time>
      </trkpt>
      <trkpt lat="48.68819" lon="1.91871">
        <ele>78</ele>
        <time>2026-01-30T08:29:26Z</time>
      </trkpt>
      <trkpt lat="48.68816" lon="1.91877">
        <ele>78.8</ele>
        <time>2026-01-30T08:29:27Z</time>
      </trkpt>
      <trkpt lat="48.68812" lon="1.91883">
        <ele>79</ele>
        <time>2026-01-30T08:29:28Z</time>
      </trkpt>
      <trkpt lat="48.68809" lon="1.91889">
        <ele>79</ele>
        <time>2026-01-30T08:29:29Z</time>
      </trkpt>
      <trkpt lat="48.68806" lon="1.91896">
        <ele>79</ele>
        <time>2026-01-30T08:29:30Z</time>
      </trkpt>
      <trkpt lat="48.68803" lon="1.91902">
        <ele>79</ele>
        <time>2026-01-30T08:29:31Z</time>
      </trkpt>
      <trkpt lat="48.688" lon="1.91907">
        <ele>79.4</ele>
        <time>2026-01-30T08:29:32Z</time>
      </trkpt>
      <trkpt lat="48.68797" lon="1.91913">
        <ele>79.4</ele>
        <time>2026-01-30T08:29:33Z</time>
      </trkpt>
      <trkpt lat="48.68793" lon="1.9192">
        <ele>79.4</ele>
        <time>2026-01-30T08:29:34Z</time>
      </trkpt>
      <trkpt lat="48.68789" lon="1.91926">
        <ele>78.8</ele>
        <time>2026-01-30T08:29:35Z</time>
      </trkpt>
      <trkpt lat="48.68786" lon="1.91932">
        <ele>79.2</ele>
        <time>2026-01-30T08:29:36Z</time>
      </trkpt>
      <trkpt lat="48.68783" lon="1.91938">
        <ele>79.2</ele>
        <time>2026-01-30T08:29:37Z</time>
      </trkpt>
      <trkpt lat="48.6878" lon="1.91943">
        <ele>79.2</ele>
        <time>2026-01-30T08:29:38Z</time>
      </trkpt>
      <trkpt lat="48.68777" lon="1.91949">
        <ele>78.2</ele>
        <time>2026-01-30T08:29:39Z</time>
      </trkpt>
      <trkpt lat="48.68773" lon="1.91955">
        <ele>78.2</ele>
        <time>2026-01-30T08:29:40Z</time>
      </trkpt>
      <trkpt lat="48.6877" lon="1.91962">
        <ele>78.2</ele>
        <time>2026-01-30T08:29:41Z</time>
      </trkpt>
      <trkpt lat="48.68767" lon="1.91969">
        <ele>78.2</ele>
        <time>2026-01-30T08:29:42Z</time>
      </trkpt>
      <trkpt lat="48.68763" lon="1.91976">
        <ele>77.2</ele>
        <time>2026-01-30T08:29:43Z</time>
      </trkpt>
      <trkpt lat="48.68759" lon="1.91985">
        <ele>76.8</ele>
        <time>2026-01-30T08:29:44Z</time>
      </trkpt>
      <trkpt lat="48.68755" lon="1.91994">
        <ele>76.8</ele>
        <time>2026-01-30T08:29:45Z</time>
      </trkpt>
      <trkpt lat="48.68751" lon="1.92002">
        <ele>76.8</ele>
        <time>2026-01-30T08:29:46Z</time>
      </trkpt>
      <trkpt lat="48.68747" lon="1.9201">
        <ele>77.4</ele>
        <time>2026-01-30T08:29:47Z</time>
      </trkpt>
      <trkpt lat="48.68743" lon="1.92019">
        <ele>77.4</ele>
        <time>2026-01-30T08:29:48Z</time>
      </trkpt>
      <trkpt lat="48.68738" lon="1.92028">
        <ele>77.4</ele>
        <time>2026-01-30T08:29:49Z</time>
      </trkpt>
      <trkpt lat="48.68734" lon="1.92037">
        <ele>77.4</ele>
        <time>2026-01-30T08:29:50Z</time>
      </trkpt>
      <trkpt lat="48.68729" lon="1.92045">
        <ele>78.4</ele>
        <time>2026-01-30T08:29:51Z</time>
      </trkpt>
      <trkpt lat="48.68725" lon="1.92052">
        <ele>78.6</ele>
        <time>2026-01-30T08:29:52Z</time>
      </trkpt>
      <trkpt lat="48.68721" lon="1.9206">
        <ele>78.6</ele>
        <time>2026-01-30T08:29:53Z</time>
      </trkpt>
      <trkpt lat="48.68717" lon="1.92067">
        <ele>78.6</ele>
        <time>2026-01-30T08:29:54Z</time>
      </trkpt>
      <trkpt lat="48.68712" lon="1.92074">
        <ele>78.6</ele>
        <time>2026-01-30T08:29:55Z</time>
      </trkpt>
      <trkpt lat="48.68708" lon="1.9208">
        <ele>79</ele>
        <time>2026-01-30T08:29:56Z</time>
      </trkpt>
      <trkpt lat="48.68704" lon="1.92086">
        <ele>79</ele>
        <time>2026-01-30T08:29:57Z</time>
      </trkpt>
      <trkpt lat="48.68699" lon="1.92094">
        <ele>79</ele>
        <time>2026-01-30T08:29:58Z</time>
      </trkpt>
      <trkpt lat="48.68694" lon="1.92101">
        <ele>78</ele>
        <time>2026-01-30T08:29:59Z</time>
      </trkpt>
      <trkpt lat="48.6869" lon="1.92109">
        <ele>76.8</ele>
        <time>2026-01-30T08:30:00Z</time>
      </trkpt>
      <trkpt lat="48.68685" lon="1.92116">
        <ele>76.8</ele>
        <time>2026-01-30T08:30:01Z</time>
      </trkpt>
      <trkpt lat="48.68679" lon="1.92123">
        <ele>76.8</ele>
        <time>2026-01-30T08:30:02Z</time>
      </trkpt>
      <trkpt lat="48.68675" lon="1.9213">
        <ele>75.8</ele>
        <time>2026-01-30T08:30:03Z</time>
      </trkpt>
      <trkpt lat="48.6867" lon="1.92138">
        <ele>75.2</ele>
        <time>2026-01-30T08:30:04Z</time>
      </trkpt>
      <trkpt lat="48.68664" lon="1.92146">
        <ele>75.2</ele>
        <time>2026-01-30T08:30:05Z</time>
      </trkpt>
      <trkpt lat="48.68658" lon="1.92155">
        <ele>75.2</ele>
        <time>2026-01-30T08:30:06Z</time>
      </trkpt>
      <trkpt lat="48.68652" lon="1.92164">
        <ele>74.2</ele>
        <time>2026-01-30T08:30:07Z</time>
      </trkpt>
      <trkpt lat="48.68647" lon="1.92172">
        <ele>72.4</ele>
        <time>2026-01-30T08:30:08Z</time>
      </trkpt>
      <trkpt lat="48.68642" lon="1.92181">
        <ele>72.4</ele>
        <time>2026-01-30T08:30:09Z</time>
      </trkpt>
      <trkpt lat="48.68636" lon="1.92191">
        <ele>72.4</ele>
        <time>2026-01-30T08:30:10Z</time>
      </trkpt>
      <trkpt lat="48.68631" lon="1.922">
        <ele>72</ele>
        <time>2026-01-30T08:30:11Z</time>
      </trkpt>
      <trkpt lat="48.68626" lon="1.9221">
        <ele>72</ele>
        <time>2026-01-30T08:30:12Z</time>
      </trkpt>
      <trkpt lat="48.6862" lon="1.92221">
        <ele>72</ele>
        <time>2026-01-30T08:30:13Z</time>
      </trkpt>
      <trkpt lat="48.68615" lon="1.92233">
        <ele>72</ele>
        <time>2026-01-30T08:30:14Z</time>
      </trkpt>
      <trkpt lat="48.6861" lon="1.92246">
        <ele>71</ele>
        <time>2026-01-30T08:30:15Z</time>
      </trkpt>
      <trkpt lat="48.68605" lon="1.92258">
        <ele>71.2</ele>
        <time>2026-01-30T08:30:16Z</time>
      </trkpt>
      <trkpt lat="48.68601" lon="1.92269">
        <ele>71.2</ele>
        <time>2026-01-30T08:30:17Z</time>
      </trkpt>
      <trkpt lat="48.68597" lon="1.92282">
        <ele>71.2</ele>
        <time>2026-01-30T08:30:18Z</time>
      </trkpt>
      <trkpt lat="48.68594" lon="1.92293">
        <ele>71.2</ele>
        <time>2026-01-30T08:30:19Z</time>
      </trkpt>
      <trkpt lat="48.6859" lon="1.92304">
        <ele>72.8</ele>
        <time>2026-01-30T08:30:20Z</time>
      </trkpt>
      <trkpt lat="48.68586" lon="1.92315">
        <ele>72.8</ele>
        <time>2026-01-30T08:30:21Z</time>
      </trkpt>
      <trkpt lat="48.68583" lon="1.92324">
        <ele>72.8</ele>
        <time>2026-01-30T08:30:22Z</time>
      </trkpt>
      <trkpt lat="48.68579" lon="1.92333">
        <ele>73.2</ele>
        <time>2026-01-30T08:30:23Z</time>
      </trkpt>
      <trkpt lat="48.68576" lon="1.92343">
        <ele>74.2</ele>
        <time>2026-01-30T08:30:24Z</time>
      </trkpt>
      <trkpt lat="48.68573" lon="1.92352">
        <ele>74.2</ele>
        <time>2026-01-30T08:30:25Z</time>
      </trkpt>
      <trkpt lat="48.6857" lon="1.92362">
        <ele>74.2</ele>
        <time>2026-01-30T08:30:26Z</time>
      </trkpt>
      <trkpt lat="48.68567" lon="1.92371">
        <ele>74.2</ele>
        <time>2026-01-30T08:30:27Z</time>
      </trkpt>
      <trkpt lat="48.68565" lon="1.92378">
        <ele>75.4</ele>
        <time>2026-01-30T08:30:28Z</time>
      </trkpt>
      <trkpt lat="48.68562" lon="1.92386">
        <ele>75.4</ele>
        <time>2026-01-30T08:30:29Z</time>
      </trkpt>
      <trkpt lat="48.68559" lon="1.92394">
        <ele>75.4</ele>
        <time>2026-01-30T08:30:30Z</time>
      </trkpt>
      <trkpt lat="48.68557" lon="1.92401">
        <ele>75</ele>
        <time>2026-01-30T08:30:31Z</time>
      </trkpt>
      <trkpt lat="48.68553" lon="1.92411">
        <ele>75</ele>
        <time>2026-01-30T08:30:32Z</time>
      </trkpt>
      <trkpt lat="48.68551" lon="1.92421">
        <ele>75</ele>
        <time>2026-01-30T08:30:33Z</time>
      </trkpt>
      <trkpt lat="48.68548" lon="1.9243">
        <ele>75</ele>
        <time>2026-01-30T08:30:34Z</time>
      </trkpt>
      <trkpt lat="48.68545" lon="1.92442">
        <ele>74</ele>
        <time>2026-01-30T08:30:35Z</time>
      </trkpt>
      <trkpt lat="48.68543" lon="1.92453">
        <ele>71.8</ele>
        <time>2026-01-30T08:30:36Z</time>
      </trkpt>
      <trkpt lat="48.6854" lon="1.92464">
        <ele>71.8</ele>
        <time>2026-01-30T08:30:37Z</time>
      </trkpt>
      <trkpt lat="48.68538" lon="1.92477">
        <ele>71.8</ele>
        <time>2026-01-30T08:30:38Z</time>
      </trkpt>
      <trkpt lat="48.68535" lon="1.92489">
        <ele>70.8</ele>
        <time>2026-01-30T08:30:39Z</time>
      </trkpt>
      <trkpt lat="48.68531" lon="1.92502">
        <ele>69.8</ele>
        <time>2026-01-30T08:30:40Z</time>
      </trkpt>
      <trkpt lat="48.6853" lon="1.92513">
        <ele>69.8</ele>
        <time>2026-01-30T08:30:41Z</time>
      </trkpt>
      <trkpt lat="48.68527" lon="1.92525">
        <ele>69.8</ele>
        <time>2026-01-30T08:30:42Z</time>
      </trkpt>
      <trkpt lat="48.68524" lon="1.92537">
        <ele>69.6</ele>
        <time>2026-01-30T08:30:43Z</time>
      </trkpt>
      <trkpt lat="48.68521" lon="1.92547">
        <ele>70</ele>
        <time>2026-01-30T08:30:44Z</time>
      </trkpt>
      <trkpt lat="48.68518" lon="1.92559">
        <ele>70</ele>
        <time>2026-01-30T08:30:45Z</time>
      </trkpt>
      <trkpt lat="48.68514" lon="1.9257">
        <ele>70</ele>
        <time>2026-01-30T08:30:46Z</time>
      </trkpt>
      <trkpt lat="48.6851" lon="1.92583">
        <ele>70</ele>
        <time>2026-01-30T08:30:47Z</time>
      </trkpt>
      <trkpt lat="48.68506" lon="1.92596">
        <ele>70.4</ele>
        <time>2026-01-30T08:30:48Z</time>
      </trkpt>
      <trkpt lat="48.68502" lon="1.92608">
        <ele>70.4</ele>
        <time>2026-01-30T08:30:49Z</time>
      </trkpt>
      <trkpt lat="48.68496" lon="1.92618">
        <ele>70.4</ele>
        <time>2026-01-30T08:30:50Z</time>
      </trkpt>
      <trkpt lat="48.68491" lon="1.92628">
        <ele>70.4</ele>
        <time>2026-01-30T08:30:51Z</time>
      </trkpt>
      <trkpt lat="48.68485" lon="1.92638">
        <ele>71.2</ele>
        <time>2026-01-30T08:30:52Z</time>
      </trkpt>
      <trkpt lat="48.68481" lon="1.92647">
        <ele>71.2</ele>
        <time>2026-01-30T08:30:53Z</time>
      </trkpt>
      <trkpt lat="48.68476" lon="1.92656">
        <ele>71.2</ele>
        <time>2026-01-30T08:30:54Z</time>
      </trkpt>
      <trkpt lat="48.68472" lon="1.92665">
        <ele>71.8</ele>
        <time>2026-01-30T08:30:55Z</time>
      </trkpt>
      <trkpt lat="48.68468" lon="1.92671">
        <ele>71.2</ele>
        <time>2026-01-30T08:30:56Z</time>
      </trkpt>
      <trkpt lat="48.68465" lon="1.92678">
        <ele>71.2</ele>
        <time>2026-01-30T08:30:57Z</time>
      </trkpt>
      <trkpt lat="48.6846" lon="1.92686">
        <ele>71.2</ele>
        <time>2026-01-30T08:30:58Z</time>
      </trkpt>
      <trkpt lat="48.68457" lon="1.92693">
        <ele>72.2</ele>
        <time>2026-01-30T08:30:59Z</time>
      </trkpt>
      <trkpt lat="48.68453" lon="1.92699">
        <ele>73.4</ele>
        <time>2026-01-30T08:31:00Z</time>
      </trkpt>
      <trkpt lat="48.6845" lon="1.92706">
        <ele>73.4</ele>
        <time>2026-01-30T08:31:01Z</time>
      </trkpt>
      <trkpt lat="48.68446" lon="1.92713">
        <ele>73.4</ele>
        <time>2026-01-30T08:31:02Z</time>
      </trkpt>
      <trkpt lat="48.68443" lon="1.92718">
        <ele>74.2</ele>
        <time>2026-01-30T08:31:03Z</time>
      </trkpt>
      <trkpt lat="48.6844" lon="1.92725">
        <ele>74.4</ele>
        <time>2026-01-30T08:31:04Z</time>
      </trkpt>
      <trkpt lat="48.68437" lon="1.9273">
        <ele>74.4</ele>
        <time>2026-01-30T08:31:05Z</time>
      </trkpt>
      <trkpt lat="48.68434" lon="1.92735">
        <ele>74.4</ele>
        <time>2026-01-30T08:31:06Z</time>
      </trkpt>
      <trkpt lat="48.68431" lon="1.9274">
        <ele>74.8</ele>
        <time>2026-01-30T08:31:07Z</time>
      </trkpt>
      <trkpt lat="48.68429" lon="1.92745">
        <ele>75</ele>
        <time>2026-01-30T08:31:08Z</time>
      </trkpt>
      <trkpt lat="48.68427" lon="1.9275">
        <ele>75</ele>
        <time>2026-01-30T08:31:09Z</time>
      </trkpt>
      <trkpt lat="48.68425" lon="1.92755">
        <ele>75</ele>
        <time>2026-01-30T08:31:10Z</time>
      </trkpt>
      <trkpt lat="48.68422" lon="1.9276">
        <ele>76</ele>
        <time>2026-01-30T08:31:11Z</time>
      </trkpt>
      <trkpt lat="48.68419" lon="1.92766">
        <ele>76</ele>
        <time>2026-01-30T08:31:12Z</time>
      </trkpt>
      <trkpt lat="48.68417" lon="1.9277">
        <ele>76</ele>
        <time>2026-01-30T08:31:13Z</time>
      </trkpt>
      <trkpt lat="48.68413" lon="1.92776">
        <ele>76</ele>
        <time>2026-01-30T08:31:14Z</time>
      </trkpt>
      <trkpt lat="48.68411" lon="1.92781">
        <ele>76.6</ele>
        <time>2026-01-30T08:31:15Z</time>
      </trkpt>
      <trkpt lat="48.68408" lon="1.92787">
        <ele>77.2</ele>
        <time>2026-01-30T08:31:16Z</time>
      </trkpt>
      <trkpt lat="48.68405" lon="1.92791">
        <ele>77.2</ele>
        <time>2026-01-30T08:31:17Z</time>
      </trkpt>
      <trkpt lat="48.68402" lon="1.92797">
        <ele>77.2</ele>
        <time>2026-01-30T08:31:18Z</time>
      </trkpt>
      <trkpt lat="48.684" lon="1.92801">
        <ele>77.8</ele>
        <time>2026-01-30T08:31:19Z</time>
      </trkpt>
      <trkpt lat="48.68397" lon="1.92806">
        <ele>78.2</ele>
        <time>2026-01-30T08:31:20Z</time>
      </trkpt>
      <trkpt lat="48.68395" lon="1.92811">
        <ele>78.2</ele>
        <time>2026-01-30T08:31:21Z</time>
      </trkpt>
      <trkpt lat="48.68392" lon="1.92815">
        <ele>78.2</ele>
        <time>2026-01-30T08:31:22Z</time>
      </trkpt>
      <trkpt lat="48.6839" lon="1.92821">
        <ele>78.4</ele>
        <time>2026-01-30T08:31:23Z</time>
      </trkpt>
      <trkpt lat="48.68387" lon="1.92825">
        <ele>78.8</ele>
        <time>2026-01-30T08:31:24Z</time>
      </trkpt>
      <trkpt lat="48.68385" lon="1.9283">
        <ele>78.8</ele>
        <time>2026-01-30T08:31:25Z</time>
      </trkpt>
      <trkpt lat="48.68382" lon="1.92834">
        <ele>78.8</ele>
        <time>2026-01-30T08:31:26Z</time>
      </trkpt>
      <trkpt lat="48.6838" lon="1.92839">
        <ele>79.2</ele>
        <time>2026-01-30T08:31:27Z</time>
      </trkpt>
      <trkpt lat="48.68377" lon="1.92844">
        <ele>79.6</ele>
        <time>2026-01-30T08:31:28Z</time>
      </trkpt>
      <trkpt lat="48.68375" lon="1.92849">
        <ele>79.6</ele>
        <time>2026-01-30T08:31:29Z</time>
      </trkpt>
      <trkpt lat="48.68372" lon="1.92853">
        <ele>79.6</ele>
        <time>2026-01-30T08:31:30Z</time>
      </trkpt>
      <trkpt lat="48.68369" lon="1.92857">
        <ele>79.6</ele>
        <time>2026-01-30T08:31:31Z</time>
      </trkpt>
      <trkpt lat="48.68367" lon="1.92861">
        <ele>80.2</ele>
        <time>2026-01-30T08:31:32Z</time>
      </trkpt>
      <trkpt lat="48.68364" lon="1.92865">
        <ele>80.2</ele>
        <time>2026-01-30T08:31:33Z</time>
      </trkpt>
      <trkpt lat="48.68361" lon="1.92869">
        <ele>80.2</ele>
        <time>2026-01-30T08:31:34Z</time>
      </trkpt>
      <trkpt lat="48.68359" lon="1.92873">
        <ele>81</ele>
        <time>2026-01-30T08:31:35Z</time>
      </trkpt>
      <trkpt lat="48.68356" lon="1.92877">
        <ele>81.4</ele>
        <time>2026-01-30T08:31:36Z</time>
      </trkpt>
      <trkpt lat="48.68353" lon="1.92882">
        <ele>81.4</ele>
        <time>2026-01-30T08:31:37Z</time>
      </trkpt>
      <trkpt lat="48.6835" lon="1.92885">
        <ele>81.4</ele>
        <time>2026-01-30T08:31:38Z</time>
      </trkpt>
      <trkpt lat="48.68347" lon="1.92889">
        <ele>82.4</ele>
        <time>2026-01-30T08:31:39Z</time>
      </trkpt>
      <trkpt lat="48.68344" lon="1.92892">
        <ele>82.6</ele>
        <time>2026-01-30T08:31:40Z</time>
      </trkpt>
      <trkpt lat="48.68342" lon="1.92895">
        <ele>82.6</ele>
        <time>2026-01-30T08:31:41Z</time>
      </trkpt>
      <trkpt lat="48.68339" lon="1.92899">
        <ele>82.6</ele>
        <time>2026-01-30T08:31:42Z</time>
      </trkpt>
      <trkpt lat="48.68336" lon="1.92902">
        <ele>83.2</ele>
        <time>2026-01-30T08:31:43Z</time>
      </trkpt>
      <trkpt lat="48.68334" lon="1.92906">
        <ele>83.6</ele>
        <time>2026-01-30T08:31:44Z</time>
      </trkpt>
      <trkpt lat="48.68331" lon="1.9291">
        <ele>83.6</ele>
        <time>2026-01-30T08:31:45Z</time>
      </trkpt>
      <trkpt lat="48.68327" lon="1.92914">
        <ele>83.6</ele>
        <time>2026-01-30T08:31:46Z</time>
      </trkpt>
      <trkpt lat="48.68324" lon="1.92918">
        <ele>84.6</ele>
        <time>2026-01-30T08:31:47Z</time>
      </trkpt>
      <trkpt lat="48.68321" lon="1.92922">
        <ele>84.4</ele>
        <time>2026-01-30T08:31:48Z</time>
      </trkpt>
      <trkpt lat="48.68319" lon="1.92926">
        <ele>84.4</ele>
        <time>2026-01-30T08:31:49Z</time>
      </trkpt>
      <trkpt lat="48.68316" lon="1.92929">
        <ele>84.4</ele>
        <time>2026-01-30T08:31:50Z</time>
      </trkpt>
      <trkpt lat="48.68314" lon="1.92933">
        <ele>85.4</ele>
        <time>2026-01-30T08:31:51Z</time>
      </trkpt>
      <trkpt lat="48.68312" lon="1.92937">
        <ele>86.2</ele>
        <time>2026-01-30T08:31:52Z</time>
      </trkpt>
      <trkpt lat="48.6831" lon="1.92941">
        <ele>86.2</ele>
        <time>2026-01-30T08:31:53Z</time>
      </trkpt>
      <trkpt lat="48.68308" lon="1.92943">
        <ele>86.2</ele>
        <time>2026-01-30T08:31:54Z</time>
      </trkpt>
      <trkpt lat="48.68306" lon="1.92946">
        <ele>87.2</ele>
        <time>2026-01-30T08:31:55Z</time>
      </trkpt>
      <trkpt lat="48.68303" lon="1.9295">
        <ele>87.2</ele>
        <time>2026-01-30T08:31:56Z</time>
      </trkpt>
      <trkpt lat="48.68301" lon="1.92953">
        <ele>87.2</ele>
        <time>2026-01-30T08:31:57Z</time>
      </trkpt>
      <trkpt lat="48.68299" lon="1.92955">
        <ele>87.2</ele>
        <time>2026-01-30T08:31:58Z</time>
      </trkpt>
      <trkpt lat="48.68296" lon="1.92959">
        <ele>88</ele>
        <time>2026-01-30T08:31:59Z</time>
      </trkpt>
      <trkpt lat="48.68294" lon="1.92962">
        <ele>88.4</ele>
        <time>2026-01-30T08:32:00Z</time>
      </trkpt>
      <trkpt lat="48.68292" lon="1.92966">
        <ele>88.4</ele>
        <time>2026-01-30T08:32:01Z</time>
      </trkpt>
      <trkpt lat="48.6829" lon="1.9297">
        <ele>88.4</ele>
        <time>2026-01-30T08:32:02Z</time>
      </trkpt>
      <trkpt lat="48.68287" lon="1.92974">
        <ele>88.4</ele>
        <time>2026-01-30T08:32:03Z</time>
      </trkpt>
      <trkpt lat="48.68286" lon="1.92976">
        <ele>89.2</ele>
        <time>2026-01-30T08:32:04Z</time>
      </trkpt>
      <trkpt lat="48.68284" lon="1.92979">
        <ele>89.2</ele>
        <time>2026-01-30T08:32:05Z</time>
      </trkpt>
      <trkpt lat="48.68282" lon="1.92981">
        <ele>89.2</ele>
        <time>2026-01-30T08:32:06Z</time>
      </trkpt>
      <trkpt lat="48.68279" lon="1.92985">
        <ele>89.2</ele>
        <time>2026-01-30T08:32:07Z</time>
      </trkpt>
      <trkpt lat="48.68276" lon="1.9299">
        <ele>90.2</ele>
        <time>2026-01-30T08:32:08Z</time>
      </trkpt>
      <trkpt lat="48.68273" lon="1.92994">
        <ele>90.2</ele>
        <time>2026-01-30T08:32:09Z</time>
      </trkpt>
      <trkpt lat="48.6827" lon="1.92998">
        <ele>90.2</ele>
        <time>2026-01-30T08:32:10Z</time>
      </trkpt>
      <trkpt lat="48.68268" lon="1.93002">
        <ele>91.2</ele>
        <time>2026-01-30T08:32:11Z</time>
      </trkpt>
      <trkpt lat="48.68265" lon="1.93006">
        <ele>91.6</ele>
        <time>2026-01-30T08:32:12Z</time>
      </trkpt>
      <trkpt lat="48.68262" lon="1.9301">
        <ele>91.6</ele>
        <time>2026-01-30T08:32:13Z</time>
      </trkpt>
      <trkpt lat="48.6826" lon="1.93013">
        <ele>91.6</ele>
        <time>2026-01-30T08:32:14Z</time>
      </trkpt>
      <trkpt lat="48.68257" lon="1.93017">
        <ele>92.6</ele>
        <time>2026-01-30T08:32:15Z</time>
      </trkpt>
      <trkpt lat="48.68255" lon="1.9302">
        <ele>93</ele>
        <time>2026-01-30T08:32:16Z</time>
      </trkpt>
      <trkpt lat="48.68253" lon="1.93025">
        <ele>93</ele>
        <time>2026-01-30T08:32:17Z</time>
      </trkpt>
      <trkpt lat="48.6825" lon="1.9303">
        <ele>93</ele>
        <time>2026-01-30T08:32:18Z</time>
      </trkpt>
      <trkpt lat="48.68248" lon="1.93033">
        <ele>93</ele>
        <time>2026-01-30T08:32:19Z</time>
      </trkpt>
      <trkpt lat="48.68246" lon="1.93038">
        <ele>93.4</ele>
        <time>2026-01-30T08:32:20Z</time>
      </trkpt>
      <trkpt lat="48.68244" lon="1.93043">
        <ele>93.4</ele>
        <time>2026-01-30T08:32:21Z</time>
      </trkpt>
      <trkpt lat="48.68242" lon="1.93048">
        <ele>93.4</ele>
        <time>2026-01-30T08:32:22Z</time>
      </trkpt>
      <trkpt lat="48.6824" lon="1.93055">
        <ele>94.2</ele>
        <time>2026-01-30T08:32:23Z</time>
      </trkpt>
      <trkpt lat="48.68239" lon="1.93062">
        <ele>94.2</ele>
        <time>2026-01-30T08:32:24Z</time>
      </trkpt>
      <trkpt lat="48.68238" lon="1.93068">
        <ele>94.2</ele>
        <time>2026-01-30T08:32:25Z</time>
      </trkpt>
      <trkpt lat="48.68237" lon="1.93076">
        <ele>94.2</ele>
        <time>2026-01-30T08:32:26Z</time>
      </trkpt>
      <trkpt lat="48.68236" lon="1.93084">
        <ele>94.8</ele>
        <time>2026-01-30T08:32:27Z</time>
      </trkpt>
      <trkpt lat="48.68234" lon="1.93092">
        <ele>94.8</ele>
        <time>2026-01-30T08:32:28Z</time>
      </trkpt>
      <trkpt lat="48.68233" lon="1.93098">
        <ele>94.8</ele>
        <time>2026-01-30T08:32:29Z</time>
      </trkpt>
      <trkpt lat="48.68233" lon="1.93105">
        <ele>94.8</ele>
        <time>2026-01-30T08:32:30Z</time>
      </trkpt>
      <trkpt lat="48.68232" lon="1.93111">
        <ele>95.6</ele>
        <time>2026-01-30T08:32:31Z</time>
      </trkpt>
      <trkpt lat="48.68231" lon="1.93118">
        <ele>95.8</ele>
        <time>2026-01-30T08:32:32Z</time>
      </trkpt>
      <trkpt lat="48.6823" lon="1.93124">
        <ele>95.8</ele>
        <time>2026-01-30T08:32:33Z</time>
      </trkpt>
      <trkpt lat="48.6823" lon="1.9313">
        <ele>95.8</ele>
        <time>2026-01-30T08:32:34Z</time>
      </trkpt>
      <trkpt lat="48.68229" lon="1.93136">
        <ele>96</ele>
        <time>2026-01-30T08:32:35Z</time>
      </trkpt>
      <trkpt lat="48.68228" lon="1.93141">
        <ele>95.6</ele>
        <time>2026-01-30T08:32:36Z</time>
      </trkpt>
      <trkpt lat="48.68228" lon="1.93146">
        <ele>95.6</ele>
        <time>2026-01-30T08:32:37Z</time>
      </trkpt>
      <trkpt lat="48.68226" lon="1.93153">
        <ele>95.6</ele>
        <time>2026-01-30T08:32:38Z</time>
      </trkpt>
      <trkpt lat="48.68223" lon="1.93159">
        <ele>94.6</ele>
        <time>2026-01-30T08:32:39Z</time>
      </trkpt>
      <trkpt lat="48.6822" lon="1.93165">
        <ele>94</ele>
        <time>2026-01-30T08:32:40Z</time>
      </trkpt>
      <trkpt lat="48.68217" lon="1.93171">
        <ele>94</ele>
        <time>2026-01-30T08:32:41Z</time>
      </trkpt>
      <trkpt lat="48.68213" lon="1.93174">
        <ele>94</ele>
        <time>2026-01-30T08:32:42Z</time>
      </trkpt>
      <trkpt lat="48.68209" lon="1.93179">
        <ele>93</ele>
        <time>2026-01-30T08:32:43Z</time>
      </trkpt>
      <trkpt lat="48.68204" lon="1.93185">
        <ele>91.2</ele>
        <time>2026-01-30T08:32:44Z</time>
      </trkpt>
      <trkpt lat="48.68199" lon="1.93194">
        <ele>91.2</ele>
        <time>2026-01-30T08:32:45Z</time>
      </trkpt>
      <trkpt lat="48.68195" lon="1.93204">
        <ele>91.2</ele>
        <time>2026-01-30T08:32:46Z</time>
      </trkpt>
      <trkpt lat="48.68191" lon="1.93215">
        <ele>90.2</ele>
        <time>2026-01-30T08:32:47Z</time>
      </trkpt>
      <trkpt lat="48.68189" lon="1.93228">
        <ele>86.8</ele>
        <time>2026-01-30T08:32:48Z</time>
      </trkpt>
      <trkpt lat="48.68186" lon="1.93242">
        <ele>86.8</ele>
        <time>2026-01-30T08:32:49Z</time>
      </trkpt>
      <trkpt lat="48.68185" lon="1.93256">
        <ele>86.8</ele>
        <time>2026-01-30T08:32:50Z</time>
      </trkpt>
      <trkpt lat="48.68182" lon="1.9327">
        <ele>85.8</ele>
        <time>2026-01-30T08:32:51Z</time>
      </trkpt>
      <trkpt lat="48.68179" lon="1.93284">
        <ele>82.4</ele>
        <time>2026-01-30T08:32:52Z</time>
      </trkpt>
      <trkpt lat="48.68173" lon="1.93297">
        <ele>82.4</ele>
        <time>2026-01-30T08:32:53Z</time>
      </trkpt>
      <trkpt lat="48.68166" lon="1.93309">
        <ele>82.4</ele>
        <time>2026-01-30T08:32:54Z</time>
      </trkpt>
      <trkpt lat="48.6816" lon="1.93319">
        <ele>81.4</ele>
        <time>2026-01-30T08:32:55Z</time>
      </trkpt>
      <trkpt lat="48.68152" lon="1.93331">
        <ele>78.2</ele>
        <time>2026-01-30T08:32:56Z</time>
      </trkpt>
      <trkpt lat="48.68146" lon="1.93346">
        <ele>78.2</ele>
        <time>2026-01-30T08:32:57Z</time>
      </trkpt>
      <trkpt lat="48.68142" lon="1.93361">
        <ele>78.2</ele>
        <time>2026-01-30T08:32:58Z</time>
      </trkpt>
      <trkpt lat="48.68138" lon="1.93377">
        <ele>78.2</ele>
        <time>2026-01-30T08:32:59Z</time>
      </trkpt>
      <trkpt lat="48.68134" lon="1.93393">
        <ele>74.6</ele>
        <time>2026-01-30T08:33:00Z</time>
      </trkpt>
      <trkpt lat="48.6813" lon="1.93409">
        <ele>74.6</ele>
        <time>2026-01-30T08:33:01Z</time>
      </trkpt>
      <trkpt lat="48.68126" lon="1.93427">
        <ele>74.6</ele>
        <time>2026-01-30T08:33:02Z</time>
      </trkpt>
      <trkpt lat="48.68123" lon="1.93444">
        <ele>73.6</ele>
        <time>2026-01-30T08:33:03Z</time>
      </trkpt>
      <trkpt lat="48.68119" lon="1.93462">
        <ele>70.8</ele>
        <time>2026-01-30T08:33:04Z</time>
      </trkpt>
      <trkpt lat="48.68117" lon="1.9348">
        <ele>70.8</ele>
        <time>2026-01-30T08:33:05Z</time>
      </trkpt>
      <trkpt lat="48.68115" lon="1.93497">
        <ele>70.8</ele>
        <time>2026-01-30T08:33:06Z</time>
      </trkpt>
      <trkpt lat="48.68115" lon="1.93515">
        <ele>69.8</ele>
        <time>2026-01-30T08:33:07Z</time>
      </trkpt>
      <trkpt lat="48.68115" lon="1.93533">
        <ele>67.8</ele>
        <time>2026-01-30T08:33:08Z</time>
      </trkpt>
      <trkpt lat="48.68116" lon="1.93552">
        <ele>67.8</ele>
        <time>2026-01-30T08:33:09Z</time>
      </trkpt>
      <trkpt lat="48.68117" lon="1.9357">
        <ele>67.8</ele>
        <time>2026-01-30T08:33:10Z</time>
      </trkpt>
      <trkpt lat="48.68118" lon="1.93587">
        <ele>67.8</ele>
        <time>2026-01-30T08:33:11Z</time>
      </trkpt>
      <trkpt lat="48.6812" lon="1.93604">
        <ele>66.2</ele>
        <time>2026-01-30T08:33:12Z</time>
      </trkpt>
      <trkpt lat="48.68122" lon="1.9362">
        <ele>66.2</ele>
        <time>2026-01-30T08:33:13Z</time>
      </trkpt>
      <trkpt lat="48.68124" lon="1.93635">
        <ele>66.2</ele>
        <time>2026-01-30T08:33:14Z</time>
      </trkpt>
      <trkpt lat="48.68125" lon="1.93651">
        <ele>66.4</ele>
        <time>2026-01-30T08:33:15Z</time>
      </trkpt>
      <trkpt lat="48.68126" lon="1.93667">
        <ele>66.6</ele>
        <time>2026-01-30T08:33:16Z</time>
      </trkpt>
      <trkpt lat="48.68129" lon="1.93683">
        <ele>66.6</ele>
        <time>2026-01-30T08:33:17Z</time>
      </trkpt>
      <trkpt lat="48.68129" lon="1.93698">
        <ele>66.6</ele>
        <time>2026-01-30T08:33:18Z</time>
      </trkpt>
      <trkpt lat="48.68132" lon="1.93713">
        <ele>67.6</ele>
        <time>2026-01-30T08:33:19Z</time>
      </trkpt>
      <trkpt lat="48.68134" lon="1.93726">
        <ele>68.2</ele>
        <time>2026-01-30T08:33:20Z</time>
      </trkpt>
      <trkpt lat="48.68135" lon="1.93739">
        <ele>68.2</ele>
        <time>2026-01-30T08:33:21Z</time>
      </trkpt>
      <trkpt lat="48.68138" lon="1.93752">
        <ele>68.2</ele>
        <time>2026-01-30T08:33:22Z</time>
      </trkpt>
      <trkpt lat="48.6814" lon="1.93765">
        <ele>68.2</ele>
        <time>2026-01-30T08:33:23Z</time>
      </trkpt>
      <trkpt lat="48.68141" lon="1.93777">
        <ele>68.8</ele>
        <time>2026-01-30T08:33:24Z</time>
      </trkpt>
      <trkpt lat="48.68141" lon="1.93788">
        <ele>68.8</ele>
        <time>2026-01-30T08:33:25Z</time>
      </trkpt>
      <trkpt lat="48.68143" lon="1.93799">
        <ele>68.8</ele>
        <time>2026-01-30T08:33:26Z</time>
      </trkpt>
      <trkpt lat="48.68146" lon="1.93811">
        <ele>68.2</ele>
        <time>2026-01-30T08:33:27Z</time>
      </trkpt>
      <trkpt lat="48.68148" lon="1.93824">
        <ele>68.4</ele>
        <time>2026-01-30T08:33:28Z</time>
      </trkpt>
      <trkpt lat="48.68149" lon="1.93836">
        <ele>68.4</ele>
        <time>2026-01-30T08:33:29Z</time>
      </trkpt>
      <trkpt lat="48.68151" lon="1.93849">
        <ele>68.4</ele>
        <time>2026-01-30T08:33:30Z</time>
      </trkpt>
      <trkpt lat="48.68153" lon="1.93862">
        <ele>67.6</ele>
        <time>2026-01-30T08:33:31Z</time>
      </trkpt>
      <trkpt lat="48.68154" lon="1.93875">
        <ele>66.8</ele>
        <time>2026-01-30T08:33:32Z</time>
      </trkpt>
      <trkpt lat="48.68154" lon="1.93889">
        <ele>66.8</ele>
        <time>2026-01-30T08:33:33Z</time>
      </trkpt>
      <trkpt lat="48.68155" lon="1.93904">
        <ele>66.8</ele>
        <time>2026-01-30T08:33:34Z</time>
      </trkpt>
      <trkpt lat="48.68155" lon="1.93919">
        <ele>65.8</ele>
        <time>2026-01-30T08:33:35Z</time>
      </trkpt>
      <trkpt lat="48.68156" lon="1.93933">
        <ele>64.8</ele>
        <time>2026-01-30T08:33:36Z</time>
      </trkpt>
      <trkpt lat="48.68156" lon="1.93948">
        <ele>64.8</ele>
        <time>2026-01-30T08:33:37Z</time>
      </trkpt>
      <trkpt lat="48.68156" lon="1.93962">
        <ele>64.8</ele>
        <time>2026-01-30T08:33:38Z</time>
      </trkpt>
      <trkpt lat="48.68156" lon="1.93977">
        <ele>64.2</ele>
        <time>2026-01-30T08:33:39Z</time>
      </trkpt>
      <trkpt lat="48.68156" lon="1.93991">
        <ele>64.2</ele>
        <time>2026-01-30T08:33:40Z</time>
      </trkpt>
      <trkpt lat="48.68156" lon="1.94005">
        <ele>64.2</ele>
        <time>2026-01-30T08:33:41Z</time>
      </trkpt>
      <trkpt lat="48.68157" lon="1.94019">
        <ele>64.2</ele>
        <time>2026-01-30T08:33:42Z</time>
      </trkpt>
      <trkpt lat="48.68158" lon="1.94032">
        <ele>65.2</ele>
        <time>2026-01-30T08:33:43Z</time>
      </trkpt>
      <trkpt lat="48.68158" lon="1.94046">
        <ele>65.8</ele>
        <time>2026-01-30T08:33:44Z</time>
      </trkpt>
      <trkpt lat="48.68158" lon="1.94059">
        <ele>65.8</ele>
        <time>2026-01-30T08:33:45Z</time>
      </trkpt>
      <trkpt lat="48.68157" lon="1.94072">
        <ele>65.8</ele>
        <time>2026-01-30T08:33:46Z</time>
      </trkpt>
      <trkpt lat="48.68156" lon="1.94084">
        <ele>65.8</ele>
        <time>2026-01-30T08:33:47Z</time>
      </trkpt>
      <trkpt lat="48.68155" lon="1.94095">
        <ele>67.6</ele>
        <time>2026-01-30T08:33:48Z</time>
      </trkpt>
      <trkpt lat="48.68153" lon="1.94105">
        <ele>67.6</ele>
        <time>2026-01-30T08:33:49Z</time>
      </trkpt>
      <trkpt lat="48.68151" lon="1.94115">
        <ele>67.6</ele>
        <time>2026-01-30T08:33:50Z</time>
      </trkpt>
      <trkpt lat="48.68148" lon="1.94125">
        <ele>67.6</ele>
        <time>2026-01-30T08:33:51Z</time>
      </trkpt>
      <trkpt lat="48.68146" lon="1.94135">
        <ele>66.2</ele>
        <time>2026-01-30T08:33:52Z</time>
      </trkpt>
      <trkpt lat="48.68143" lon="1.94146">
        <ele>66.2</ele>
        <time>2026-01-30T08:33:53Z</time>
      </trkpt>
      <trkpt lat="48.6814" lon="1.94156">
        <ele>66.2</ele>
        <time>2026-01-30T08:33:54Z</time>
      </trkpt>
      <trkpt lat="48.68137" lon="1.94167">
        <ele>65.6</ele>
        <time>2026-01-30T08:33:55Z</time>
      </trkpt>
      <trkpt lat="48.68133" lon="1.94178">
        <ele>65.4</ele>
        <time>2026-01-30T08:33:56Z</time>
      </trkpt>
      <trkpt lat="48.6813" lon="1.94188">
        <ele>65.4</ele>
        <time>2026-01-30T08:33:57Z</time>
      </trkpt>
      <trkpt lat="48.68126" lon="1.94198">
        <ele>65.4</ele>
        <time>2026-01-30T08:33:58Z</time>
      </trkpt>
      <trkpt lat="48.68122" lon="1.94207">
        <ele>64.4</ele>
        <time>2026-01-30T08:33:59Z</time>
      </trkpt>
      <trkpt lat="48.68119" lon="1.94216">
        <ele>63.4</ele>
        <time>2026-01-30T08:34:00Z</time>
      </trkpt>
      <trkpt lat="48.68114" lon="1.94224">
        <ele>63.4</ele>
        <time>2026-01-30T08:34:01Z</time>
      </trkpt>
      <trkpt lat="48.68109" lon="1.94235">
        <ele>63.4</ele>
        <time>2026-01-30T08:34:02Z</time>
      </trkpt>
      <trkpt lat="48.68104" lon="1.94245">
        <ele>62.6</ele>
        <time>2026-01-30T08:34:03Z</time>
      </trkpt>
      <trkpt lat="48.68099" lon="1.94257">
        <ele>62.8</ele>
        <time>2026-01-30T08:34:04Z</time>
      </trkpt>
      <trkpt lat="48.68094" lon="1.94267">
        <ele>62.8</ele>
        <time>2026-01-30T08:34:05Z</time>
      </trkpt>
      <trkpt lat="48.6809" lon="1.94277">
        <ele>62.8</ele>
        <time>2026-01-30T08:34:06Z</time>
      </trkpt>
      <trkpt lat="48.68084" lon="1.94286">
        <ele>62.8</ele>
        <time>2026-01-30T08:34:07Z</time>
      </trkpt>
      <trkpt lat="48.6808" lon="1.94295">
        <ele>62</ele>
        <time>2026-01-30T08:34:08Z</time>
      </trkpt>
      <trkpt lat="48.68077" lon="1.94301">
        <ele>62</ele>
        <time>2026-01-30T08:34:09Z</time>
      </trkpt>
      <trkpt lat="48.68073" lon="1.94309">
        <ele>62</ele>
        <time>2026-01-30T08:34:10Z</time>
      </trkpt>
      <trkpt lat="48.68068" lon="1.94316">
        <ele>62</ele>
        <time>2026-01-30T08:34:11Z</time>
      </trkpt>
      <trkpt lat="48.68063" lon="1.94324">
        <ele>62.8</ele>
        <time>2026-01-30T08:34:12Z</time>
      </trkpt>
      <trkpt lat="48.68059" lon="1.94332">
        <ele>62.8</ele>
        <time>2026-01-30T08:34:13Z</time>
      </trkpt>
      <trkpt lat="48.68054" lon="1.94339">
        <ele>62.8</ele>
        <time>2026-01-30T08:34:14Z</time>
      </trkpt>
      <trkpt lat="48.6805" lon="1.94345">
        <ele>63.8</ele>
        <time>2026-01-30T08:34:15Z</time>
      </trkpt>
      <trkpt lat="48.68045" lon="1.94351">
        <ele>64.2</ele>
        <time>2026-01-30T08:34:16Z</time>
      </trkpt>
      <trkpt lat="48.68041" lon="1.9436">
        <ele>64.2</ele>
        <time>2026-01-30T08:34:17Z</time>
      </trkpt>
      <trkpt lat="48.68038" lon="1.94368">
        <ele>64.2</ele>
        <time>2026-01-30T08:34:18Z</time>
      </trkpt>
      <trkpt lat="48.68034" lon="1.94376">
        <ele>64.2</ele>
        <time>2026-01-30T08:34:19Z</time>
      </trkpt>
      <trkpt lat="48.68029" lon="1.94384">
        <ele>64.2</ele>
        <time>2026-01-30T08:34:20Z</time>
      </trkpt>
      <trkpt lat="48.68026" lon="1.94392">
        <ele>64.2</ele>
        <time>2026-01-30T08:34:21Z</time>
      </trkpt>
      <trkpt lat="48.68022" lon="1.94399">
        <ele>64.2</ele>
        <time>2026-01-30T08:34:22Z</time>
      </trkpt>
      <trkpt lat="48.68018" lon="1.94406">
        <ele>64.2</ele>
        <time>2026-01-30T08:34:23Z</time>
      </trkpt>
      <trkpt lat="48.68013" lon="1.94414">
        <ele>63.6</ele>
        <time>2026-01-30T08:34:24Z</time>
      </trkpt>
      <trkpt lat="48.68009" lon="1.94422">
        <ele>63.6</ele>
        <time>2026-01-30T08:34:25Z</time>
      </trkpt>
      <trkpt lat="48.68004" lon="1.94429">
        <ele>63.6</ele>
        <time>2026-01-30T08:34:26Z</time>
      </trkpt>
      <trkpt lat="48.67999" lon="1.94436">
        <ele>64.6</ele>
        <time>2026-01-30T08:34:27Z</time>
      </trkpt>
      <trkpt lat="48.67994" lon="1.94442">
        <ele>64.8</ele>
        <time>2026-01-30T08:34:28Z</time>
      </trkpt>
      <trkpt lat="48.67989" lon="1.94448">
        <ele>64.8</ele>
        <time>2026-01-30T08:34:29Z</time>
      </trkpt>
      <trkpt lat="48.67985" lon="1.94452">
        <ele>64.8</ele>
        <time>2026-01-30T08:34:30Z</time>
      </trkpt>
      <trkpt lat="48.67981" lon="1.94458">
        <ele>64.8</ele>
        <time>2026-01-30T08:34:31Z</time>
      </trkpt>
      <trkpt lat="48.67975" lon="1.94465">
        <ele>65</ele>
        <time>2026-01-30T08:34:32Z</time>
      </trkpt>
      <trkpt lat="48.6797" lon="1.94472">
        <ele>65</ele>
        <time>2026-01-30T08:34:33Z</time>
      </trkpt>
      <trkpt lat="48.67964" lon="1.94479">
        <ele>65</ele>
        <time>2026-01-30T08:34:34Z</time>
      </trkpt>
      <trkpt lat="48.67958" lon="1.94486">
        <ele>65.8</ele>
        <time>2026-01-30T08:34:35Z</time>
      </trkpt>
      <trkpt lat="48.67953" lon="1.94493">
        <ele>65.6</ele>
        <time>2026-01-30T08:34:36Z</time>
      </trkpt>
      <trkpt lat="48.67947" lon="1.94501">
        <ele>65.6</ele>
        <time>2026-01-30T08:34:37Z</time>
      </trkpt>
      <trkpt lat="48.67942" lon="1.94509">
        <ele>65.6</ele>
        <time>2026-01-30T08:34:38Z</time>
      </trkpt>
      <trkpt lat="48.67936" lon="1.94517">
        <ele>65.6</ele>
        <time>2026-01-30T08:34:39Z</time>
      </trkpt>
      <trkpt lat="48.67931" lon="1.94525">
        <ele>65.8</ele>
        <time>2026-01-30T08:34:40Z</time>
      </trkpt>
      <trkpt lat="48.67926" lon="1.94533">
        <ele>65.8</ele>
        <time>2026-01-30T08:34:41Z</time>
      </trkpt>
      <trkpt lat="48.67921" lon="1.94541">
        <ele>65.8</ele>
        <time>2026-01-30T08:34:42Z</time>
      </trkpt>
      <trkpt lat="48.67916" lon="1.94549">
        <ele>65.8</ele>
        <time>2026-01-30T08:34:43Z</time>
      </trkpt>
      <trkpt lat="48.67911" lon="1.94558">
        <ele>65.8</ele>
        <time>2026-01-30T08:34:44Z</time>
      </trkpt>
      <trkpt lat="48.67905" lon="1.94566">
        <ele>65.8</ele>
        <time>2026-01-30T08:34:45Z</time>
      </trkpt>
      <trkpt lat="48.679" lon="1.94575">
        <ele>65.8</ele>
        <time>2026-01-30T08:34:46Z</time>
      </trkpt>
      <trkpt lat="48.67895" lon="1.94585">
        <ele>65.8</ele>
        <time>2026-01-30T08:34:47Z</time>
      </trkpt>
      <trkpt lat="48.67891" lon="1.94593">
        <ele>65.2</ele>
        <time>2026-01-30T08:34:48Z</time>
      </trkpt>
      <trkpt lat="48.67886" lon="1.94602">
        <ele>65.2</ele>
        <time>2026-01-30T08:34:49Z</time>
      </trkpt>
      <trkpt lat="48.67882" lon="1.9461">
        <ele>65.2</ele>
        <time>2026-01-30T08:34:50Z</time>
      </trkpt>
      <trkpt lat="48.67877" lon="1.94621">
        <ele>65.8</ele>
        <time>2026-01-30T08:34:51Z</time>
      </trkpt>
      <trkpt lat="48.67873" lon="1.9463">
        <ele>65.8</ele>
        <time>2026-01-30T08:34:52Z</time>
      </trkpt>
      <trkpt lat="48.67869" lon="1.94639">
        <ele>65.8</ele>
        <time>2026-01-30T08:34:53Z</time>
      </trkpt>
      <trkpt lat="48.67865" lon="1.94649">
        <ele>65.8</ele>
        <time>2026-01-30T08:34:54Z</time>
      </trkpt>
      <trkpt lat="48.67861" lon="1.94658">
        <ele>65.8</ele>
        <time>2026-01-30T08:34:55Z</time>
      </trkpt>
      <trkpt lat="48.67858" lon="1.94666">
        <ele>66.4</ele>
        <time>2026-01-30T08:34:56Z</time>
      </trkpt>
      <trkpt lat="48.67855" lon="1.94675">
        <ele>66.4</ele>
        <time>2026-01-30T08:34:57Z</time>
      </trkpt>
      <trkpt lat="48.67851" lon="1.94684">
        <ele>66.4</ele>
        <time>2026-01-30T08:34:58Z</time>
      </trkpt>
      <trkpt lat="48.67848" lon="1.94695">
        <ele>66.4</ele>
        <time>2026-01-30T08:34:59Z</time>
      </trkpt>
      <trkpt lat="48.67845" lon="1.94705">
        <ele>66.8</ele>
        <time>2026-01-30T08:35:00Z</time>
      </trkpt>
      <trkpt lat="48.67842" lon="1.94714">
        <ele>66.8</ele>
        <time>2026-01-30T08:35:01Z</time>
      </trkpt>
      <trkpt lat="48.67839" lon="1.94724">
        <ele>66.8</ele>
        <time>2026-01-30T08:35:02Z</time>
      </trkpt>
      <trkpt lat="48.67837" lon="1.94732">
        <ele>67</ele>
        <time>2026-01-30T08:35:03Z</time>
      </trkpt>
      <trkpt lat="48.67833" lon="1.94742">
        <ele>67.4</ele>
        <time>2026-01-30T08:35:04Z</time>
      </trkpt>
      <trkpt lat="48.6783" lon="1.9475">
        <ele>67.4</ele>
        <time>2026-01-30T08:35:05Z</time>
      </trkpt>
      <trkpt lat="48.67827" lon="1.94759">
        <ele>67.4</ele>
        <time>2026-01-30T08:35:06Z</time>
      </trkpt>
      <trkpt lat="48.67824" lon="1.94768">
        <ele>67</ele>
        <time>2026-01-30T08:35:07Z</time>
      </trkpt>
      <trkpt lat="48.67822" lon="1.94778">
        <ele>67</ele>
        <time>2026-01-30T08:35:08Z</time>
      </trkpt>
      <trkpt lat="48.67819" lon="1.94786">
        <ele>67</ele>
        <time>2026-01-30T08:35:09Z</time>
      </trkpt>
      <trkpt lat="48.67817" lon="1.94794">
        <ele>67</ele>
        <time>2026-01-30T08:35:10Z</time>
      </trkpt>
      <trkpt lat="48.67814" lon="1.94803">
        <ele>67</ele>
        <time>2026-01-30T08:35:11Z</time>
      </trkpt>
      <trkpt lat="48.6781" lon="1.94813">
        <ele>67</ele>
        <time>2026-01-30T08:35:12Z</time>
      </trkpt>
      <trkpt lat="48.67806" lon="1.94822">
        <ele>67</ele>
        <time>2026-01-30T08:35:13Z</time>
      </trkpt>
      <trkpt lat="48.67802" lon="1.94829">
        <ele>67</ele>
        <time>2026-01-30T08:35:14Z</time>
      </trkpt>
      <trkpt lat="48.67798" lon="1.94836">
        <ele>66.4</ele>
        <time>2026-01-30T08:35:15Z</time>
      </trkpt>
      <trkpt lat="48.67794" lon="1.94843">
        <ele>66</ele>
        <time>2026-01-30T08:35:16Z</time>
      </trkpt>
      <trkpt lat="48.6779" lon="1.94849">
        <ele>66</ele>
        <time>2026-01-30T08:35:17Z</time>
      </trkpt>
      <trkpt lat="48.67785" lon="1.94857">
        <ele>66</ele>
        <time>2026-01-30T08:35:18Z</time>
      </trkpt>
      <trkpt lat="48.6778" lon="1.94865">
        <ele>66.4</ele>
        <time>2026-01-30T08:35:19Z</time>
      </trkpt>
      <trkpt lat="48.67775" lon="1.94873">
        <ele>66.4</ele>
        <time>2026-01-30T08:35:20Z</time>
      </trkpt>
      <trkpt lat="48.6777" lon="1.94883">
        <ele>66.4</ele>
        <time>2026-01-30T08:35:21Z</time>
      </trkpt>
      <trkpt lat="48.67766" lon="1.94892">
        <ele>66.4</ele>
        <time>2026-01-30T08:35:22Z</time>
      </trkpt>
      <trkpt lat="48.67762" lon="1.94901">
        <ele>66.4</ele>
        <time>2026-01-30T08:35:23Z</time>
      </trkpt>
      <trkpt lat="48.67759" lon="1.94912">
        <ele>66</ele>
        <time>2026-01-30T08:35:24Z</time>
      </trkpt>
      <trkpt lat="48.67756" lon="1.94922">
        <ele>66</ele>
        <time>2026-01-30T08:35:25Z</time>
      </trkpt>
      <trkpt lat="48.67753" lon="1.94933">
        <ele>66</ele>
        <time>2026-01-30T08:35:26Z</time>
      </trkpt>
      <trkpt lat="48.6775" lon="1.94944">
        <ele>66.4</ele>
        <time>2026-01-30T08:35:27Z</time>
      </trkpt>
      <trkpt lat="48.67747" lon="1.94955">
        <ele>66.6</ele>
        <time>2026-01-30T08:35:28Z</time>
      </trkpt>
      <trkpt lat="48.67744" lon="1.94965">
        <ele>66.6</ele>
        <time>2026-01-30T08:35:29Z</time>
      </trkpt>
      <trkpt lat="48.67741" lon="1.94976">
        <ele>66.6</ele>
        <time>2026-01-30T08:35:30Z</time>
      </trkpt>
      <trkpt lat="48.67739" lon="1.94986">
        <ele>66.4</ele>
        <time>2026-01-30T08:35:31Z</time>
      </trkpt>
      <trkpt lat="48.67736" lon="1.94998">
        <ele>66.2</ele>
        <time>2026-01-30T08:35:32Z</time>
      </trkpt>
      <trkpt lat="48.67734" lon="1.95008">
        <ele>66.2</ele>
        <time>2026-01-30T08:35:33Z</time>
      </trkpt>
      <trkpt lat="48.67731" lon="1.95018">
        <ele>66.2</ele>
        <time>2026-01-30T08:35:34Z</time>
      </trkpt>
      <trkpt lat="48.67728" lon="1.95029">
        <ele>66.2</ele>
        <time>2026-01-30T08:35:35Z</time>
      </trkpt>
      <trkpt lat="48.67726" lon="1.95039">
        <ele>66.8</ele>
        <time>2026-01-30T08:35:36Z</time>
      </trkpt>
      <trkpt lat="48.67723" lon="1.9505">
        <ele>66.8</ele>
        <time>2026-01-30T08:35:37Z</time>
      </trkpt>
      <trkpt lat="48.67721" lon="1.95061">
        <ele>66.8</ele>
        <time>2026-01-30T08:35:38Z</time>
      </trkpt>
      <trkpt lat="48.67718" lon="1.95072">
        <ele>67.2</ele>
        <time>2026-01-30T08:35:39Z</time>
      </trkpt>
      <trkpt lat="48.67716" lon="1.95083">
        <ele>67.4</ele>
        <time>2026-01-30T08:35:40Z</time>
      </trkpt>
      <trkpt lat="48.67714" lon="1.95093">
        <ele>67.4</ele>
        <time>2026-01-30T08:35:41Z</time>
      </trkpt>
      <trkpt lat="48.67712" lon="1.95105">
        <ele>67.4</ele>
        <time>2026-01-30T08:35:42Z</time>
      </trkpt>
      <trkpt lat="48.6771" lon="1.95115">
        <ele>67.4</ele>
        <time>2026-01-30T08:35:43Z</time>
      </trkpt>
      <trkpt lat="48.67709" lon="1.95125">
        <ele>67.2</ele>
        <time>2026-01-30T08:35:44Z</time>
      </trkpt>
      <trkpt lat="48.67708" lon="1.95136">
        <ele>67.2</ele>
        <time>2026-01-30T08:35:45Z</time>
      </trkpt>
      <trkpt lat="48.67707" lon="1.95147">
        <ele>67.2</ele>
        <time>2026-01-30T08:35:46Z</time>
      </trkpt>
      <trkpt lat="48.67705" lon="1.95158">
        <ele>67.2</ele>
        <time>2026-01-30T08:35:47Z</time>
      </trkpt>
      <trkpt lat="48.67704" lon="1.95169">
        <ele>66.8</ele>
        <time>2026-01-30T08:35:48Z</time>
      </trkpt>
      <trkpt lat="48.67701" lon="1.95181">
        <ele>66.8</ele>
        <time>2026-01-30T08:35:49Z</time>
      </trkpt>
      <trkpt lat="48.67697" lon="1.95191">
        <ele>66.8</ele>
        <time>2026-01-30T08:35:50Z</time>
      </trkpt>
      <trkpt lat="48.67693" lon="1.95202">
        <ele>66</ele>
        <time>2026-01-30T08:35:51Z</time>
      </trkpt>
      <trkpt lat="48.6769" lon="1.95212">
        <ele>65.8</ele>
        <time>2026-01-30T08:35:52Z</time>
      </trkpt>
      <trkpt lat="48.67686" lon="1.95221">
        <ele>65.8</ele>
        <time>2026-01-30T08:35:53Z</time>
      </trkpt>
      <trkpt lat="48.67682" lon="1.9523">
        <ele>65.8</ele>
        <time>2026-01-30T08:35:54Z</time>
      </trkpt>
      <trkpt lat="48.67679" lon="1.95238">
        <ele>64.8</ele>
        <time>2026-01-30T08:35:55Z</time>
      </trkpt>
      <trkpt lat="48.67674" lon="1.95248">
        <ele>64.4</ele>
        <time>2026-01-30T08:35:56Z</time>
      </trkpt>
      <trkpt lat="48.67669" lon="1.95258">
        <ele>64.4</ele>
        <time>2026-01-30T08:35:57Z</time>
      </trkpt>
      <trkpt lat="48.67664" lon="1.95268">
        <ele>64.4</ele>
        <time>2026-01-30T08:35:58Z</time>
      </trkpt>
      <trkpt lat="48.67659" lon="1.95277">
        <ele>63.6</ele>
        <time>2026-01-30T08:35:59Z</time>
      </trkpt>
      <trkpt lat="48.67655" lon="1.95289">
        <ele>64.2</ele>
        <time>2026-01-30T08:36:00Z</time>
      </trkpt>
      <trkpt lat="48.67651" lon="1.95301">
        <ele>64.2</ele>
        <time>2026-01-30T08:36:01Z</time>
      </trkpt>
      <trkpt lat="48.67648" lon="1.95312">
        <ele>64.2</ele>
        <time>2026-01-30T08:36:02Z</time>
      </trkpt>
      <trkpt lat="48.67645" lon="1.95324">
        <ele>63.4</ele>
        <time>2026-01-30T08:36:03Z</time>
      </trkpt>
      <trkpt lat="48.67642" lon="1.95336">
        <ele>63.4</ele>
        <time>2026-01-30T08:36:04Z</time>
      </trkpt>
      <trkpt lat="48.6764" lon="1.95349">
        <ele>63.4</ele>
        <time>2026-01-30T08:36:05Z</time>
      </trkpt>
      <trkpt lat="48.67638" lon="1.95361">
        <ele>63.4</ele>
        <time>2026-01-30T08:36:06Z</time>
      </trkpt>
      <trkpt lat="48.67637" lon="1.95373">
        <ele>64.4</ele>
        <time>2026-01-30T08:36:07Z</time>
      </trkpt>
      <trkpt lat="48.67636" lon="1.95385">
        <ele>65</ele>
        <time>2026-01-30T08:36:08Z</time>
      </trkpt>
      <trkpt lat="48.67634" lon="1.95396">
        <ele>65</ele>
        <time>2026-01-30T08:36:09Z</time>
      </trkpt>
      <trkpt lat="48.67633" lon="1.95406">
        <ele>65</ele>
        <time>2026-01-30T08:36:10Z</time>
      </trkpt>
      <trkpt lat="48.67631" lon="1.95417">
        <ele>65.8</ele>
        <time>2026-01-30T08:36:11Z</time>
      </trkpt>
      <trkpt lat="48.67629" lon="1.95426">
        <ele>66.2</ele>
        <time>2026-01-30T08:36:12Z</time>
      </trkpt>
      <trkpt lat="48.67627" lon="1.95435">
        <ele>66.2</ele>
        <time>2026-01-30T08:36:13Z</time>
      </trkpt>
      <trkpt lat="48.67624" lon="1.95444">
        <ele>66.2</ele>
        <time>2026-01-30T08:36:14Z</time>
      </trkpt>
      <trkpt lat="48.67621" lon="1.95453">
        <ele>66.4</ele>
        <time>2026-01-30T08:36:15Z</time>
      </trkpt>
      <trkpt lat="48.67617" lon="1.95462">
        <ele>66.6</ele>
        <time>2026-01-30T08:36:16Z</time>
      </trkpt>
      <trkpt lat="48.67613" lon="1.95469">
        <ele>66.6</ele>
        <time>2026-01-30T08:36:17Z</time>
      </trkpt>
      <trkpt lat="48.67609" lon="1.95475">
        <ele>66.6</ele>
        <time>2026-01-30T08:36:18Z</time>
      </trkpt>
      <trkpt lat="48.67605" lon="1.9548">
        <ele>67.4</ele>
        <time>2026-01-30T08:36:19Z</time>
      </trkpt>
      <trkpt lat="48.676" lon="1.95486">
        <ele>67.6</ele>
        <time>2026-01-30T08:36:20Z</time>
      </trkpt>
      <trkpt lat="48.67594" lon="1.95491">
        <ele>67.6</ele>
        <time>2026-01-30T08:36:21Z</time>
      </trkpt>
      <trkpt lat="48.67589" lon="1.95496">
        <ele>67.6</ele>
        <time>2026-01-30T08:36:22Z</time>
      </trkpt>
      <trkpt lat="48.67585" lon="1.95501">
        <ele>67.6</ele>
        <time>2026-01-30T08:36:23Z</time>
      </trkpt>
      <trkpt lat="48.67579" lon="1.95506">
        <ele>67.4</ele>
        <time>2026-01-30T08:36:24Z</time>
      </trkpt>
      <trkpt lat="48.67573" lon="1.95511">
        <ele>67.4</ele>
        <time>2026-01-30T08:36:25Z</time>
      </trkpt>
      <trkpt lat="48.67568" lon="1.95518">
        <ele>67.4</ele>
        <time>2026-01-30T08:36:26Z</time>
      </trkpt>
      <trkpt lat="48.67563" lon="1.95523">
        <ele>66.6</ele>
        <time>2026-01-30T08:36:27Z</time>
      </trkpt>
      <trkpt lat="48.67557" lon="1.95527">
        <ele>66.2</ele>
        <time>2026-01-30T08:36:28Z</time>
      </trkpt>
      <trkpt lat="48.67551" lon="1.95533">
        <ele>66.2</ele>
        <time>2026-01-30T08:36:29Z</time>
      </trkpt>
      <trkpt lat="48.67544" lon="1.95537">
        <ele>66.2</ele>
        <time>2026-01-30T08:36:30Z</time>
      </trkpt>
      <trkpt lat="48.67536" lon="1.95541">
        <ele>65.2</ele>
        <time>2026-01-30T08:36:31Z</time>
      </trkpt>
      <trkpt lat="48.67529" lon="1.95542">
        <ele>65.2</ele>
        <time>2026-01-30T08:36:32Z</time>
      </trkpt>
      <trkpt lat="48.67522" lon="1.95545">
        <ele>65.2</ele>
        <time>2026-01-30T08:36:33Z</time>
      </trkpt>
      <trkpt lat="48.67515" lon="1.95546">
        <ele>65.2</ele>
        <time>2026-01-30T08:36:34Z</time>
      </trkpt>
      <trkpt lat="48.67507" lon="1.95546">
        <ele>64.2</ele>
        <time>2026-01-30T08:36:35Z</time>
      </trkpt>
      <trkpt lat="48.67499" lon="1.95545">
        <ele>63.6</ele>
        <time>2026-01-30T08:36:36Z</time>
      </trkpt>
      <trkpt lat="48.67492" lon="1.95544">
        <ele>63.6</ele>
        <time>2026-01-30T08:36:37Z</time>
      </trkpt>
      <trkpt lat="48.67484" lon="1.95543">
        <ele>63.6</ele>
        <time>2026-01-30T08:36:38Z</time>
      </trkpt>
      <trkpt lat="48.67477" lon="1.95543">
        <ele>64</ele>
        <time>2026-01-30T08:36:39Z</time>
      </trkpt>
      <trkpt lat="48.6747" lon="1.95543">
        <ele>63.6</ele>
        <time>2026-01-30T08:36:40Z</time>
      </trkpt>
      <trkpt lat="48.67462" lon="1.95545">
        <ele>63.6</ele>
        <time>2026-01-30T08:36:41Z</time>
      </trkpt>
      <trkpt lat="48.67455" lon="1.95548">
        <ele>63.6</ele>
        <time>2026-01-30T08:36:42Z</time>
      </trkpt>
      <trkpt lat="48.67448" lon="1.95554">
        <ele>64.2</ele>
        <time>2026-01-30T08:36:43Z</time>
      </trkpt>
      <trkpt lat="48.67441" lon="1.95559">
        <ele>63.6</ele>
        <time>2026-01-30T08:36:44Z</time>
      </trkpt>
      <trkpt lat="48.67435" lon="1.95566">
        <ele>63.6</ele>
        <time>2026-01-30T08:36:45Z</time>
      </trkpt>
      <trkpt lat="48.67429" lon="1.95575">
        <ele>63.6</ele>
        <time>2026-01-30T08:36:46Z</time>
      </trkpt>
      <trkpt lat="48.67425" lon="1.95584">
        <ele>63.6</ele>
        <time>2026-01-30T08:36:47Z</time>
      </trkpt>
      <trkpt lat="48.67422" lon="1.95594">
        <ele>63.6</ele>
        <time>2026-01-30T08:36:48Z</time>
      </trkpt>
      <trkpt lat="48.67419" lon="1.95606">
        <ele>63.6</ele>
        <time>2026-01-30T08:36:49Z</time>
      </trkpt>
      <trkpt lat="48.67419" lon="1.95618">
        <ele>63.6</ele>
        <time>2026-01-30T08:36:50Z</time>
      </trkpt>
      <trkpt lat="48.67419" lon="1.95629">
        <ele>64.4</ele>
        <time>2026-01-30T08:36:51Z</time>
      </trkpt>
      <trkpt lat="48.6742" lon="1.95639">
        <ele>64.6</ele>
        <time>2026-01-30T08:36:52Z</time>
      </trkpt>
      <trkpt lat="48.6742" lon="1.95651">
        <ele>64.6</ele>
        <time>2026-01-30T08:36:53Z</time>
      </trkpt>
      <trkpt lat="48.6742" lon="1.95662">
        <ele>64.6</ele>
        <time>2026-01-30T08:36:54Z</time>
      </trkpt>
      <trkpt lat="48.67421" lon="1.95672">
        <ele>65</ele>
        <time>2026-01-30T08:36:55Z</time>
      </trkpt>
      <trkpt lat="48.67421" lon="1.95682">
        <ele>65</ele>
        <time>2026-01-30T08:36:56Z</time>
      </trkpt>
      <trkpt lat="48.67422" lon="1.95693">
        <ele>65</ele>
        <time>2026-01-30T08:36:57Z</time>
      </trkpt>
      <trkpt lat="48.67422" lon="1.95703">
        <ele>65</ele>
        <time>2026-01-30T08:36:58Z</time>
      </trkpt>
      <trkpt lat="48.67423" lon="1.95714">
        <ele>65</ele>
        <time>2026-01-30T08:36:59Z</time>
      </trkpt>
      <trkpt lat="48.67423" lon="1.95724">
        <ele>65.6</ele>
        <time>2026-01-30T08:37:00Z</time>
      </trkpt>
      <trkpt lat="48.67423" lon="1.95734">
        <ele>65.6</ele>
        <time>2026-01-30T08:37:01Z</time>
      </trkpt>
      <trkpt lat="48.67423" lon="1.95743">
        <ele>65.6</ele>
        <time>2026-01-30T08:37:02Z</time>
      </trkpt>
      <trkpt lat="48.67423" lon="1.95755">
        <ele>65.6</ele>
        <time>2026-01-30T08:37:03Z</time>
      </trkpt>
      <trkpt lat="48.67423" lon="1.95765">
        <ele>66.4</ele>
        <time>2026-01-30T08:37:04Z</time>
      </trkpt>
      <trkpt lat="48.67423" lon="1.95775">
        <ele>66.4</ele>
        <time>2026-01-30T08:37:05Z</time>
      </trkpt>
      <trkpt lat="48.67422" lon="1.95787">
        <ele>66.4</ele>
        <time>2026-01-30T08:37:06Z</time>
      </trkpt>
      <trkpt lat="48.67422" lon="1.95798">
        <ele>65.8</ele>
        <time>2026-01-30T08:37:07Z</time>
      </trkpt>
      <trkpt lat="48.67422" lon="1.95809">
        <ele>66.4</ele>
        <time>2026-01-30T08:37:08Z</time>
      </trkpt>
      <trkpt lat="48.67422" lon="1.9582">
        <ele>66.4</ele>
        <time>2026-01-30T08:37:09Z</time>
      </trkpt>
      <trkpt lat="48.67422" lon="1.95832">
        <ele>66.4</ele>
        <time>2026-01-30T08:37:10Z</time>
      </trkpt>
      <trkpt lat="48.67421" lon="1.95844">
        <ele>66.2</ele>
        <time>2026-01-30T08:37:11Z</time>
      </trkpt>
      <trkpt lat="48.67421" lon="1.95856">
        <ele>66</ele>
        <time>2026-01-30T08:37:12Z</time>
      </trkpt>
      <trkpt lat="48.6742" lon="1.95868">
        <ele>66</ele>
        <time>2026-01-30T08:37:13Z</time>
      </trkpt>
      <trkpt lat="48.6742" lon="1.9588">
        <ele>66</ele>
        <time>2026-01-30T08:37:14Z</time>
      </trkpt>
      <trkpt lat="48.67419" lon="1.95892">
        <ele>65.2</ele>
        <time>2026-01-30T08:37:15Z</time>
      </trkpt>
      <trkpt lat="48.67418" lon="1.95904">
        <ele>64.4</ele>
        <time>2026-01-30T08:37:16Z</time>
      </trkpt>
      <trkpt lat="48.67417" lon="1.95916">
        <ele>64.4</ele>
        <time>2026-01-30T08:37:17Z</time>
      </trkpt>
      <trkpt lat="48.67416" lon="1.95928">
        <ele>64.4</ele>
        <time>2026-01-30T08:37:18Z</time>
      </trkpt>
      <trkpt lat="48.67414" lon="1.9594">
        <ele>64.4</ele>
        <time>2026-01-30T08:37:19Z</time>
      </trkpt>
      <trkpt lat="48.67413" lon="1.95952">
        <ele>63.8</ele>
        <time>2026-01-30T08:37:20Z</time>
      </trkpt>
      <trkpt lat="48.67411" lon="1.95963">
        <ele>63.8</ele>
        <time>2026-01-30T08:37:21Z</time>
      </trkpt>
      <trkpt lat="48.67409" lon="1.95975">
        <ele>63.8</ele>
        <time>2026-01-30T08:37:22Z</time>
      </trkpt>
      <trkpt lat="48.67407" lon="1.95986">
        <ele>62.8</ele>
        <time>2026-01-30T08:37:23Z</time>
      </trkpt>
      <trkpt lat="48.67405" lon="1.95998">
        <ele>62.4</ele>
        <time>2026-01-30T08:37:24Z</time>
      </trkpt>
      <trkpt lat="48.67404" lon="1.96009">
        <ele>62.4</ele>
        <time>2026-01-30T08:37:25Z</time>
      </trkpt>
      <trkpt lat="48.67402" lon="1.9602">
        <ele>62.4</ele>
        <time>2026-01-30T08:37:26Z</time>
      </trkpt>
      <trkpt lat="48.674" lon="1.9603">
        <ele>63.2</ele>
        <time>2026-01-30T08:37:27Z</time>
      </trkpt>
      <trkpt lat="48.67399" lon="1.96041">
        <ele>63</ele>
        <time>2026-01-30T08:37:28Z</time>
      </trkpt>
      <trkpt lat="48.67398" lon="1.9605">
        <ele>63</ele>
        <time>2026-01-30T08:37:29Z</time>
      </trkpt>
      <trkpt lat="48.67398" lon="1.9606">
        <ele>63</ele>
        <time>2026-01-30T08:37:30Z</time>
      </trkpt>
      <trkpt lat="48.67397" lon="1.96069">
        <ele>64</ele>
        <time>2026-01-30T08:37:31Z</time>
      </trkpt>
      <trkpt lat="48.67396" lon="1.96078">
        <ele>64.8</ele>
        <time>2026-01-30T08:37:32Z</time>
      </trkpt>
      <trkpt lat="48.67397" lon="1.96086">
        <ele>64.8</ele>
        <time>2026-01-30T08:37:33Z</time>
      </trkpt>
      <trkpt lat="48.67397" lon="1.96095">
        <ele>64.8</ele>
        <time>2026-01-30T08:37:34Z</time>
      </trkpt>
      <trkpt lat="48.67397" lon="1.96103">
        <ele>65.8</ele>
        <time>2026-01-30T08:37:35Z</time>
      </trkpt>
      <trkpt lat="48.67397" lon="1.96111">
        <ele>66.2</ele>
        <time>2026-01-30T08:37:36Z</time>
      </trkpt>
      <trkpt lat="48.67397" lon="1.96119">
        <ele>66.2</ele>
        <time>2026-01-30T08:37:37Z</time>
      </trkpt>
      <trkpt lat="48.67397" lon="1.96127">
        <ele>66.2</ele>
        <time>2026-01-30T08:37:38Z</time>
      </trkpt>
      <trkpt lat="48.67397" lon="1.96132">
        <ele>67.2</ele>
        <time>2026-01-30T08:37:39Z</time>
      </trkpt>
      <trkpt lat="48.67397" lon="1.96137">
        <ele>68</ele>
        <time>2026-01-30T08:37:40Z</time>
      </trkpt>
      <trkpt lat="48.67398" lon="1.9614">
        <ele>68</ele>
        <time>2026-01-30T08:37:41Z</time>
      </trkpt>
      <trkpt lat="48.67398" lon="1.96144">
        <ele>68</ele>
        <time>2026-01-30T08:37:42Z</time>
      </trkpt>
      <trkpt lat="48.674" lon="1.96148">
        <ele>67</ele>
        <time>2026-01-30T08:37:43Z</time>
      </trkpt>
      <trkpt lat="48.67403" lon="1.96152">
        <ele>67</ele>
        <time>2026-01-30T08:37:44Z</time>
      </trkpt>
      <trkpt lat="48.67408" lon="1.96155">
        <ele>67</ele>
        <time>2026-01-30T08:37:45Z</time>
      </trkpt>
      <trkpt lat="48.67413" lon="1.96158">
        <ele>67</ele>
        <time>2026-01-30T08:37:46Z</time>
      </trkpt>
      <trkpt lat="48.67418" lon="1.96162">
        <ele>66</ele>
        <time>2026-01-30T08:37:47Z</time>
      </trkpt>
      <trkpt lat="48.67424" lon="1.96166">
        <ele>65.8</ele>
        <time>2026-01-30T08:37:48Z</time>
      </trkpt>
      <trkpt lat="48.67431" lon="1.9617">
        <ele>65.8</ele>
        <time>2026-01-30T08:37:49Z</time>
      </trkpt>
      <trkpt lat="48.67438" lon="1.96174">
        <ele>65.8</ele>
        <time>2026-01-30T08:37:50Z</time>
      </trkpt>
      <trkpt lat="48.67444" lon="1.96178">
        <ele>64.8</ele>
        <time>2026-01-30T08:37:51Z</time>
      </trkpt>
      <trkpt lat="48.67451" lon="1.96182">
        <ele>65.4</ele>
        <time>2026-01-30T08:37:52Z</time>
      </trkpt>
      <trkpt lat="48.67458" lon="1.96185">
        <ele>65.4</ele>
        <time>2026-01-30T08:37:53Z</time>
      </trkpt>
      <trkpt lat="48.67464" lon="1.96189">
        <ele>65.4</ele>
        <time>2026-01-30T08:37:54Z</time>
      </trkpt>
      <trkpt lat="48.6747" lon="1.96193">
        <ele>65.4</ele>
        <time>2026-01-30T08:37:55Z</time>
      </trkpt>
      <trkpt lat="48.67477" lon="1.96195">
        <ele>64.8</ele>
        <time>2026-01-30T08:37:56Z</time>
      </trkpt>
      <trkpt lat="48.67483" lon="1.96199">
        <ele>64.8</ele>
        <time>2026-01-30T08:37:57Z</time>
      </trkpt>
      <trkpt lat="48.67489" lon="1.96204">
        <ele>64.8</ele>
        <time>2026-01-30T08:37:58Z</time>
      </trkpt>
      <trkpt lat="48.67495" lon="1.96208">
        <ele>64.8</ele>
        <time>2026-01-30T08:37:59Z</time>
      </trkpt>
      <trkpt lat="48.67501" lon="1.96212">
        <ele>64.8</ele>
        <time>2026-01-30T08:38:00Z</time>
      </trkpt>
      <trkpt lat="48.67508" lon="1.96216">
        <ele>64.8</ele>
        <time>2026-01-30T08:38:01Z</time>
      </trkpt>
      <trkpt lat="48.67515" lon="1.96222">
        <ele>64.8</ele>
        <time>2026-01-30T08:38:02Z</time>
      </trkpt>
      <trkpt lat="48.67521" lon="1.96228">
        <ele>64.8</ele>
        <time>2026-01-30T08:38:03Z</time>
      </trkpt>
      <trkpt lat="48.67527" lon="1.96233">
        <ele>64.8</ele>
        <time>2026-01-30T08:38:04Z</time>
      </trkpt>
      <trkpt lat="48.67532" lon="1.9624">
        <ele>64.8</ele>
        <time>2026-01-30T08:38:05Z</time>
      </trkpt>
      <trkpt lat="48.67537" lon="1.96248">
        <ele>64.8</ele>
        <time>2026-01-30T08:38:06Z</time>
      </trkpt>
      <trkpt lat="48.67541" lon="1.96256">
        <ele>64.8</ele>
        <time>2026-01-30T08:38:07Z</time>
      </trkpt>
      <trkpt lat="48.67545" lon="1.96265">
        <ele>64.2</ele>
        <time>2026-01-30T08:38:08Z</time>
      </trkpt>
      <trkpt lat="48.67549" lon="1.96275">
        <ele>64.2</ele>
        <time>2026-01-30T08:38:09Z</time>
      </trkpt>
      <trkpt lat="48.67553" lon="1.96284">
        <ele>64.2</ele>
        <time>2026-01-30T08:38:10Z</time>
      </trkpt>
      <trkpt lat="48.67556" lon="1.96294">
        <ele>63.6</ele>
        <time>2026-01-30T08:38:11Z</time>
      </trkpt>
      <trkpt lat="48.67559" lon="1.96305">
        <ele>63</ele>
        <time>2026-01-30T08:38:12Z</time>
      </trkpt>
      <trkpt lat="48.67562" lon="1.96316">
        <ele>63</ele>
        <time>2026-01-30T08:38:13Z</time>
      </trkpt>
      <trkpt lat="48.67565" lon="1.96327">
        <ele>63</ele>
        <time>2026-01-30T08:38:14Z</time>
      </trkpt>
      <trkpt lat="48.67568" lon="1.96339">
        <ele>62</ele>
        <time>2026-01-30T08:38:15Z</time>
      </trkpt>
      <trkpt lat="48.67572" lon="1.96352">
        <ele>61</ele>
        <time>2026-01-30T08:38:16Z</time>
      </trkpt>
      <trkpt lat="48.67576" lon="1.96364">
        <ele>61</ele>
        <time>2026-01-30T08:38:17Z</time>
      </trkpt>
      <trkpt lat="48.67581" lon="1.96377">
        <ele>61</ele>
        <time>2026-01-30T08:38:18Z</time>
      </trkpt>
      <trkpt lat="48.67587" lon="1.96389">
        <ele>60</ele>
        <time>2026-01-30T08:38:19Z</time>
      </trkpt>
      <trkpt lat="48.67595" lon="1.964">
        <ele>56.8</ele>
        <time>2026-01-30T08:38:20Z</time>
      </trkpt>
      <trkpt lat="48.67603" lon="1.9641">
        <ele>56.8</ele>
        <time>2026-01-30T08:38:21Z</time>
      </trkpt>
      <trkpt lat="48.67612" lon="1.9642">
        <ele>56.8</ele>
        <time>2026-01-30T08:38:22Z</time>
      </trkpt>
      <trkpt lat="48.67622" lon="1.96429">
        <ele>56.8</ele>
        <time>2026-01-30T08:38:23Z</time>
      </trkpt>
      <trkpt lat="48.67632" lon="1.96436">
        <ele>54.6</ele>
        <time>2026-01-30T08:38:24Z</time>
      </trkpt>
      <trkpt lat="48.67644" lon="1.96443">
        <ele>54.6</ele>
        <time>2026-01-30T08:38:25Z</time>
      </trkpt>
      <trkpt lat="48.67656" lon="1.96449">
        <ele>54.6</ele>
        <time>2026-01-30T08:38:26Z</time>
      </trkpt>
      <trkpt lat="48.67668" lon="1.96453">
        <ele>53.6</ele>
        <time>2026-01-30T08:38:27Z</time>
      </trkpt>
      <trkpt lat="48.6768" lon="1.96457">
        <ele>50.2</ele>
        <time>2026-01-30T08:38:28Z</time>
      </trkpt>
      <trkpt lat="48.67693" lon="1.9646">
        <ele>50.2</ele>
        <time>2026-01-30T08:38:29Z</time>
      </trkpt>
      <trkpt lat="48.67705" lon="1.96466">
        <ele>50.2</ele>
        <time>2026-01-30T08:38:30Z</time>
      </trkpt>
      <trkpt lat="48.67717" lon="1.96473">
        <ele>50.4</ele>
        <time>2026-01-30T08:38:31Z</time>
      </trkpt>
      <trkpt lat="48.67728" lon="1.96481">
        <ele>50.2</ele>
        <time>2026-01-30T08:38:32Z</time>
      </trkpt>
      <trkpt lat="48.6774" lon="1.9649">
        <ele>50.2</ele>
        <time>2026-01-30T08:38:33Z</time>
      </trkpt>
      <trkpt lat="48.67751" lon="1.96498">
        <ele>50.2</ele>
        <time>2026-01-30T08:38:34Z</time>
      </trkpt>
      <trkpt lat="48.67761" lon="1.96507">
        <ele>51.2</ele>
        <time>2026-01-30T08:38:35Z</time>
      </trkpt>
      <trkpt lat="48.67771" lon="1.96514">
        <ele>54.6</ele>
        <time>2026-01-30T08:38:36Z</time>
      </trkpt>
      <trkpt lat="48.6778" lon="1.96521">
        <ele>54.6</ele>
        <time>2026-01-30T08:38:37Z</time>
      </trkpt>
      <trkpt lat="48.67787" lon="1.96528">
        <ele>54.6</ele>
        <time>2026-01-30T08:38:38Z</time>
      </trkpt>
      <trkpt lat="48.67795" lon="1.96534">
        <ele>55.6</ele>
        <time>2026-01-30T08:38:39Z</time>
      </trkpt>
      <trkpt lat="48.67802" lon="1.96541">
        <ele>58.2</ele>
        <time>2026-01-30T08:38:40Z</time>
      </trkpt>
      <trkpt lat="48.67808" lon="1.96546">
        <ele>58.2</ele>
        <time>2026-01-30T08:38:41Z</time>
      </trkpt>
      <trkpt lat="48.67815" lon="1.96551">
        <ele>58.2</ele>
        <time>2026-01-30T08:38:42Z</time>
      </trkpt>
      <trkpt lat="48.67821" lon="1.96556">
        <ele>59.2</ele>
        <time>2026-01-30T08:38:43Z</time>
      </trkpt>
      <trkpt lat="48.67827" lon="1.96561">
        <ele>59.4</ele>
        <time>2026-01-30T08:38:44Z</time>
      </trkpt>
      <trkpt lat="48.67834" lon="1.96566">
        <ele>59.4</ele>
        <time>2026-01-30T08:38:45Z</time>
      </trkpt>
      <trkpt lat="48.67841" lon="1.96572">
        <ele>59.4</ele>
        <time>2026-01-30T08:38:46Z</time>
      </trkpt>
      <trkpt lat="48.67848" lon="1.96577">
        <ele>58.4</ele>
        <time>2026-01-30T08:38:47Z</time>
      </trkpt>
      <trkpt lat="48.67856" lon="1.96583">
        <ele>56.8</ele>
        <time>2026-01-30T08:38:48Z</time>
      </trkpt>
      <trkpt lat="48.67864" lon="1.96588">
        <ele>56.8</ele>
        <time>2026-01-30T08:38:49Z</time>
      </trkpt>
      <trkpt lat="48.67873" lon="1.96593">
        <ele>56.8</ele>
        <time>2026-01-30T08:38:50Z</time>
      </trkpt>
      <trkpt lat="48.67882" lon="1.96596">
        <ele>55.8</ele>
        <time>2026-01-30T08:38:51Z</time>
      </trkpt>
      <trkpt lat="48.67891" lon="1.96597">
        <ele>52.4</ele>
        <time>2026-01-30T08:38:52Z</time>
      </trkpt>
      <trkpt lat="48.67901" lon="1.96599">
        <ele>52.4</ele>
        <time>2026-01-30T08:38:53Z</time>
      </trkpt>
      <trkpt lat="48.6791" lon="1.96601">
        <ele>52.4</ele>
        <time>2026-01-30T08:38:54Z</time>
      </trkpt>
      <trkpt lat="48.67919" lon="1.96603">
        <ele>51.4</ele>
        <time>2026-01-30T08:38:55Z</time>
      </trkpt>
      <trkpt lat="48.67929" lon="1.96604">
        <ele>50.2</ele>
        <time>2026-01-30T08:38:56Z</time>
      </trkpt>
      <trkpt lat="48.67938" lon="1.96606">
        <ele>50.2</ele>
        <time>2026-01-30T08:38:57Z</time>
      </trkpt>
      <trkpt lat="48.67948" lon="1.96607">
        <ele>50.2</ele>
        <time>2026-01-30T08:38:58Z</time>
      </trkpt>
      <trkpt lat="48.67958" lon="1.96609">
        <ele>49.2</ele>
        <time>2026-01-30T08:38:59Z</time>
      </trkpt>
      <trkpt lat="48.67968" lon="1.9661">
        <ele>48.2</ele>
        <time>2026-01-30T08:39:00Z</time>
      </trkpt>
      <trkpt lat="48.67978" lon="1.96612">
        <ele>48.2</ele>
        <time>2026-01-30T08:39:01Z</time>
      </trkpt>
      <trkpt lat="48.67988" lon="1.96612">
        <ele>48.2</ele>
        <time>2026-01-30T08:39:02Z</time>
      </trkpt>
      <trkpt lat="48.67997" lon="1.96612">
        <ele>47.6</ele>
        <time>2026-01-30T08:39:03Z</time>
      </trkpt>
      <trkpt lat="48.68006" lon="1.96608">
        <ele>46.2</ele>
        <time>2026-01-30T08:39:04Z</time>
      </trkpt>
      <trkpt lat="48.68014" lon="1.96601">
        <ele>46.2</ele>
        <time>2026-01-30T08:39:05Z</time>
      </trkpt>
      <trkpt lat="48.68021" lon="1.96591">
        <ele>46.2</ele>
        <time>2026-01-30T08:39:06Z</time>
      </trkpt>
      <trkpt lat="48.68027" lon="1.96579">
        <ele>45.2</ele>
        <time>2026-01-30T08:39:07Z</time>
      </trkpt>
      <trkpt lat="48.68032" lon="1.96565">
        <ele>44</ele>
        <time>2026-01-30T08:39:08Z</time>
      </trkpt>
      <trkpt lat="48.68036" lon="1.96551">
        <ele>44</ele>
        <time>2026-01-30T08:39:09Z</time>
      </trkpt>
      <trkpt lat="48.6804" lon="1.96538">
        <ele>44</ele>
        <time>2026-01-30T08:39:10Z</time>
      </trkpt>
      <trkpt lat="48.68045" lon="1.96525">
        <ele>44</ele>
        <time>2026-01-30T08:39:11Z</time>
      </trkpt>
      <trkpt lat="48.68052" lon="1.96516">
        <ele>44</ele>
        <time>2026-01-30T08:39:12Z</time>
      </trkpt>
      <trkpt lat="48.6806" lon="1.96508">
        <ele>44</ele>
        <time>2026-01-30T08:39:13Z</time>
      </trkpt>
      <trkpt lat="48.68069" lon="1.96505">
        <ele>44</ele>
        <time>2026-01-30T08:39:14Z</time>
      </trkpt>
      <trkpt lat="48.68077" lon="1.96504">
        <ele>44.8</ele>
        <time>2026-01-30T08:39:15Z</time>
      </trkpt>
      <trkpt lat="48.68085" lon="1.96506">
        <ele>45.6</ele>
        <time>2026-01-30T08:39:16Z</time>
      </trkpt>
      <trkpt lat="48.68093" lon="1.96507">
        <ele>45.6</ele>
        <time>2026-01-30T08:39:17Z</time>
      </trkpt>
      <trkpt lat="48.681" lon="1.96509">
        <ele>45.6</ele>
        <time>2026-01-30T08:39:18Z</time>
      </trkpt>
      <trkpt lat="48.68107" lon="1.96511">
        <ele>46.6</ele>
        <time>2026-01-30T08:39:19Z</time>
      </trkpt>
      <trkpt lat="48.68113" lon="1.96513">
        <ele>47.4</ele>
        <time>2026-01-30T08:39:20Z</time>
      </trkpt>
      <trkpt lat="48.68119" lon="1.96515">
        <ele>47.4</ele>
        <time>2026-01-30T08:39:21Z</time>
      </trkpt>
      <trkpt lat="48.68125" lon="1.96515">
        <ele>47.4</ele>
        <time>2026-01-30T08:39:22Z</time>
      </trkpt>
      <trkpt lat="48.68129" lon="1.96516">
        <ele>48.4</ele>
        <time>2026-01-30T08:39:23Z</time>
      </trkpt>
      <trkpt lat="48.68133" lon="1.96517">
        <ele>49.2</ele>
        <time>2026-01-30T08:39:24Z</time>
      </trkpt>
      <trkpt lat="48.68138" lon="1.96516">
        <ele>49.2</ele>
        <time>2026-01-30T08:39:25Z</time>
      </trkpt>
      <trkpt lat="48.68143" lon="1.96515">
        <ele>49.2</ele>
        <time>2026-01-30T08:39:26Z</time>
      </trkpt>
      <trkpt lat="48.68149" lon="1.96515">
        <ele>49.2</ele>
        <time>2026-01-30T08:39:27Z</time>
      </trkpt>
      <trkpt lat="48.68155" lon="1.96516">
        <ele>48.8</ele>
        <time>2026-01-30T08:39:28Z</time>
      </trkpt>
      <trkpt lat="48.68161" lon="1.96517">
        <ele>48.8</ele>
        <time>2026-01-30T08:39:29Z</time>
      </trkpt>
      <trkpt lat="48.68167" lon="1.9652">
        <ele>48.8</ele>
        <time>2026-01-30T08:39:30Z</time>
      </trkpt>
      <trkpt lat="48.68173" lon="1.96523">
        <ele>49.8</ele>
        <time>2026-01-30T08:39:31Z</time>
      </trkpt>
      <trkpt lat="48.68178" lon="1.96526">
        <ele>49.8</ele>
        <time>2026-01-30T08:39:32Z</time>
      </trkpt>
      <trkpt lat="48.68183" lon="1.9653">
        <ele>49.8</ele>
        <time>2026-01-30T08:39:33Z</time>
      </trkpt>
      <trkpt lat="48.68187" lon="1.96534">
        <ele>49.8</ele>
        <time>2026-01-30T08:39:34Z</time>
      </trkpt>
      <trkpt lat="48.68191" lon="1.96539">
        <ele>50.6</ele>
        <time>2026-01-30T08:39:35Z</time>
      </trkpt>
      <trkpt lat="48.68195" lon="1.96543">
        <ele>51.2</ele>
        <time>2026-01-30T08:39:36Z</time>
      </trkpt>
      <trkpt lat="48.68198" lon="1.96547">
        <ele>51.2</ele>
        <time>2026-01-30T08:39:37Z</time>
      </trkpt>
      <trkpt lat="48.68203" lon="1.96551">
        <ele>51.2</ele>
        <time>2026-01-30T08:39:38Z</time>
      </trkpt>
      <trkpt lat="48.68207" lon="1.96553">
        <ele>51.2</ele>
        <time>2026-01-30T08:39:39Z</time>
      </trkpt>
      <trkpt lat="48.68212" lon="1.96555">
        <ele>51.2</ele>
        <time>2026-01-30T08:39:40Z</time>
      </trkpt>
      <trkpt lat="48.68218" lon="1.96557">
        <ele>51.2</ele>
        <time>2026-01-30T08:39:41Z</time>
      </trkpt>
      <trkpt lat="48.68223" lon="1.96558">
        <ele>51.2</ele>
        <time>2026-01-30T08:39:42Z</time>
      </trkpt>
      <trkpt lat="48.68228" lon="1.9656">
        <ele>51.2</ele>
        <time>2026-01-30T08:39:43Z</time>
      </trkpt>
      <trkpt lat="48.68233" lon="1.96562">
        <ele>51.4</ele>
        <time>2026-01-30T08:39:44Z</time>
      </trkpt>
      <trkpt lat="48.68239" lon="1.96565">
        <ele>51.4</ele>
        <time>2026-01-30T08:39:45Z</time>
      </trkpt>
      <trkpt lat="48.68244" lon="1.96569">
        <ele>51.4</ele>
        <time>2026-01-30T08:39:46Z</time>
      </trkpt>
      <trkpt lat="48.6825" lon="1.96574">
        <ele>50.4</ele>
        <time>2026-01-30T08:39:47Z</time>
      </trkpt>
      <trkpt lat="48.68254" lon="1.96581">
        <ele>50.4</ele>
        <time>2026-01-30T08:39:48Z</time>
      </trkpt>
      <trkpt lat="48.68257" lon="1.96589">
        <ele>50.4</ele>
        <time>2026-01-30T08:39:49Z</time>
      </trkpt>
      <trkpt lat="48.6826" lon="1.96597">
        <ele>50.4</ele>
        <time>2026-01-30T08:39:50Z</time>
      </trkpt>
      <trkpt lat="48.68262" lon="1.96606">
        <ele>49.8</ele>
        <time>2026-01-30T08:39:51Z</time>
      </trkpt>
      <trkpt lat="48.68264" lon="1.96615">
        <ele>49.8</ele>
        <time>2026-01-30T08:39:52Z</time>
      </trkpt>
      <trkpt lat="48.68265" lon="1.96625">
        <ele>49.8</ele>
        <time>2026-01-30T08:39:53Z</time>
      </trkpt>
      <trkpt lat="48.68266" lon="1.96634">
        <ele>49.8</ele>
        <time>2026-01-30T08:39:54Z</time>
      </trkpt>
      <trkpt lat="48.68267" lon="1.96644">
        <ele>49.8</ele>
        <time>2026-01-30T08:39:55Z</time>
      </trkpt>
      <trkpt lat="48.68267" lon="1.96653">
        <ele>49.6</ele>
        <time>2026-01-30T08:39:56Z</time>
      </trkpt>
      <trkpt lat="48.68268" lon="1.96663">
        <ele>49.6</ele>
        <time>2026-01-30T08:39:57Z</time>
      </trkpt>
      <trkpt lat="48.68269" lon="1.96673">
        <ele>49.6</ele>
        <time>2026-01-30T08:39:58Z</time>
      </trkpt>
      <trkpt lat="48.6827" lon="1.96683">
        <ele>49.6</ele>
        <time>2026-01-30T08:39:59Z</time>
      </trkpt>
      <trkpt lat="48.68272" lon="1.96692">
        <ele>49.2</ele>
        <time>2026-01-30T08:40:00Z</time>
      </trkpt>
      <trkpt lat="48.68274" lon="1.96701">
        <ele>49.2</ele>
        <time>2026-01-30T08:40:01Z</time>
      </trkpt>
      <trkpt lat="48.68276" lon="1.9671">
        <ele>49.2</ele>
        <time>2026-01-30T08:40:02Z</time>
      </trkpt>
      <trkpt lat="48.68279" lon="1.9672">
        <ele>49.2</ele>
        <time>2026-01-30T08:40:03Z</time>
      </trkpt>
      <trkpt lat="48.68281" lon="1.96728">
        <ele>49.2</ele>
        <time>2026-01-30T08:40:04Z</time>
      </trkpt>
      <trkpt lat="48.68284" lon="1.96736">
        <ele>49.2</ele>
        <time>2026-01-30T08:40:05Z</time>
      </trkpt>
      <trkpt lat="48.68286" lon="1.96745">
        <ele>49.2</ele>
        <time>2026-01-30T08:40:06Z</time>
      </trkpt>
      <trkpt lat="48.68289" lon="1.96754">
        <ele>49.2</ele>
        <time>2026-01-30T08:40:07Z</time>
      </trkpt>
      <trkpt lat="48.68293" lon="1.96762">
        <ele>49.2</ele>
        <time>2026-01-30T08:40:08Z</time>
      </trkpt>
      <trkpt lat="48.68296" lon="1.96771">
        <ele>49.2</ele>
        <time>2026-01-30T08:40:09Z</time>
      </trkpt>
      <trkpt lat="48.68299" lon="1.96781">
        <ele>49.2</ele>
        <time>2026-01-30T08:40:10Z</time>
      </trkpt>
      <trkpt lat="48.68301" lon="1.9679">
        <ele>48.4</ele>
        <time>2026-01-30T08:40:11Z</time>
      </trkpt>
      <trkpt lat="48.68304" lon="1.96799">
        <ele>48.6</ele>
        <time>2026-01-30T08:40:12Z</time>
      </trkpt>
      <trkpt lat="48.68307" lon="1.96808">
        <ele>48.6</ele>
        <time>2026-01-30T08:40:13Z</time>
      </trkpt>
      <trkpt lat="48.68309" lon="1.96818">
        <ele>48.6</ele>
        <time>2026-01-30T08:40:14Z</time>
      </trkpt>
      <trkpt lat="48.68312" lon="1.96828">
        <ele>48.6</ele>
        <time>2026-01-30T08:40:15Z</time>
      </trkpt>
      <trkpt lat="48.68315" lon="1.96838">
        <ele>48</ele>
        <time>2026-01-30T08:40:16Z</time>
      </trkpt>
      <trkpt lat="48.68318" lon="1.96849">
        <ele>48</ele>
        <time>2026-01-30T08:40:17Z</time>
      </trkpt>
      <trkpt lat="48.68321" lon="1.96859">
        <ele>48</ele>
        <time>2026-01-30T08:40:18Z</time>
      </trkpt>
      <trkpt lat="48.68324" lon="1.9687">
        <ele>47.4</ele>
        <time>2026-01-30T08:40:19Z</time>
      </trkpt>
      <trkpt lat="48.68328" lon="1.9688">
        <ele>47.8</ele>
        <time>2026-01-30T08:40:20Z</time>
      </trkpt>
      <trkpt lat="48.68332" lon="1.96891">
        <ele>47.8</ele>
        <time>2026-01-30T08:40:21Z</time>
      </trkpt>
      <trkpt lat="48.68336" lon="1.96901">
        <ele>47.8</ele>
        <time>2026-01-30T08:40:22Z</time>
      </trkpt>
      <trkpt lat="48.6834" lon="1.96912">
        <ele>47.2</ele>
        <time>2026-01-30T08:40:23Z</time>
      </trkpt>
      <trkpt lat="48.68344" lon="1.96923">
        <ele>46.4</ele>
        <time>2026-01-30T08:40:24Z</time>
      </trkpt>
      <trkpt lat="48.68348" lon="1.96934">
        <ele>46.4</ele>
        <time>2026-01-30T08:40:25Z</time>
      </trkpt>
      <trkpt lat="48.68353" lon="1.96945">
        <ele>46.4</ele>
        <time>2026-01-30T08:40:26Z</time>
      </trkpt>
      <trkpt lat="48.68358" lon="1.96956">
        <ele>45.4</ele>
        <time>2026-01-30T08:40:27Z</time>
      </trkpt>
      <trkpt lat="48.68363" lon="1.96966">
        <ele>45.4</ele>
        <time>2026-01-30T08:40:28Z</time>
      </trkpt>
      <trkpt lat="48.68369" lon="1.96976">
        <ele>45.4</ele>
        <time>2026-01-30T08:40:29Z</time>
      </trkpt>
      <trkpt lat="48.68376" lon="1.96984">
        <ele>45.4</ele>
        <time>2026-01-30T08:40:30Z</time>
      </trkpt>
      <trkpt lat="48.68382" lon="1.96992">
        <ele>45.4</ele>
        <time>2026-01-30T08:40:31Z</time>
      </trkpt>
      <trkpt lat="48.68391" lon="1.96999">
        <ele>46</ele>
        <time>2026-01-30T08:40:32Z</time>
      </trkpt>
      <trkpt lat="48.68399" lon="1.97005">
        <ele>46</ele>
        <time>2026-01-30T08:40:33Z</time>
      </trkpt>
      <trkpt lat="48.68406" lon="1.97009">
        <ele>46</ele>
        <time>2026-01-30T08:40:34Z</time>
      </trkpt>
      <trkpt lat="48.68414" lon="1.97013">
        <ele>46.6</ele>
        <time>2026-01-30T08:40:35Z</time>
      </trkpt>
      <trkpt lat="48.68421" lon="1.97016">
        <ele>47</ele>
        <time>2026-01-30T08:40:36Z</time>
      </trkpt>
      <trkpt lat="48.68427" lon="1.97019">
        <ele>47</ele>
        <time>2026-01-30T08:40:37Z</time>
      </trkpt>
      <trkpt lat="48.68434" lon="1.97022">
        <ele>47</ele>
        <time>2026-01-30T08:40:38Z</time>
      </trkpt>
      <trkpt lat="48.6844" lon="1.97024">
        <ele>48</ele>
        <time>2026-01-30T08:40:39Z</time>
      </trkpt>
      <trkpt lat="48.68447" lon="1.97027">
        <ele>48</ele>
        <time>2026-01-30T08:40:40Z</time>
      </trkpt>
      <trkpt lat="48.68453" lon="1.97029">
        <ele>48</ele>
        <time>2026-01-30T08:40:41Z</time>
      </trkpt>
      <trkpt lat="48.68459" lon="1.97032">
        <ele>48</ele>
        <time>2026-01-30T08:40:42Z</time>
      </trkpt>
      <trkpt lat="48.68465" lon="1.97034">
        <ele>49</ele>
        <time>2026-01-30T08:40:43Z</time>
      </trkpt>
      <trkpt lat="48.68471" lon="1.97037">
        <ele>48.8</ele>
        <time>2026-01-30T08:40:44Z</time>
      </trkpt>
      <trkpt lat="48.68477" lon="1.97039">
        <ele>48.8</ele>
        <time>2026-01-30T08:40:45Z</time>
      </trkpt>
      <trkpt lat="48.68482" lon="1.97041">
        <ele>48.8</ele>
        <time>2026-01-30T08:40:46Z</time>
      </trkpt>
      <trkpt lat="48.68488" lon="1.97043">
        <ele>48.8</ele>
        <time>2026-01-30T08:40:47Z</time>
      </trkpt>
      <trkpt lat="48.68494" lon="1.97045">
        <ele>49.4</ele>
        <time>2026-01-30T08:40:48Z</time>
      </trkpt>
      <trkpt lat="48.68499" lon="1.97047">
        <ele>49.4</ele>
        <time>2026-01-30T08:40:49Z</time>
      </trkpt>
      <trkpt lat="48.68505" lon="1.9705">
        <ele>49.4</ele>
        <time>2026-01-30T08:40:50Z</time>
      </trkpt>
      <trkpt lat="48.6851" lon="1.97052">
        <ele>49.4</ele>
        <time>2026-01-30T08:40:51Z</time>
      </trkpt>
      <trkpt lat="48.68516" lon="1.97054">
        <ele>49.6</ele>
        <time>2026-01-30T08:40:52Z</time>
      </trkpt>
      <trkpt lat="48.68521" lon="1.97056">
        <ele>49.6</ele>
        <time>2026-01-30T08:40:53Z</time>
      </trkpt>
      <trkpt lat="48.68527" lon="1.97059">
        <ele>49.6</ele>
        <time>2026-01-30T08:40:54Z</time>
      </trkpt>
      <trkpt lat="48.68532" lon="1.97061">
        <ele>49.6</ele>
        <time>2026-01-30T08:40:55Z</time>
      </trkpt>
      <trkpt lat="48.68537" lon="1.97063">
        <ele>50.4</ele>
        <time>2026-01-30T08:40:56Z</time>
      </trkpt>
      <trkpt lat="48.68543" lon="1.97065">
        <ele>50.4</ele>
        <time>2026-01-30T08:40:57Z</time>
      </trkpt>
      <trkpt lat="48.68548" lon="1.97067">
        <ele>50.4</ele>
        <time>2026-01-30T08:40:58Z</time>
      </trkpt>
      <trkpt lat="48.68553" lon="1.97069">
        <ele>50.4</ele>
        <time>2026-01-30T08:40:59Z</time>
      </trkpt>
      <trkpt lat="48.68559" lon="1.97071">
        <ele>50</ele>
        <time>2026-01-30T08:41:00Z</time>
      </trkpt>
      <trkpt lat="48.68564" lon="1.97073">
        <ele>50</ele>
        <time>2026-01-30T08:41:01Z</time>
      </trkpt>
      <trkpt lat="48.6857" lon="1.97075">
        <ele>50</ele>
        <time>2026-01-30T08:41:02Z</time>
      </trkpt>
      <trkpt lat="48.68575" lon="1.97077">
        <ele>50</ele>
        <time>2026-01-30T08:41:03Z</time>
      </trkpt>
      <trkpt lat="48.6858" lon="1.9708">
        <ele>50.6</ele>
        <time>2026-01-30T08:41:04Z</time>
      </trkpt>
      <trkpt lat="48.68586" lon="1.97082">
        <ele>50.6</ele>
        <time>2026-01-30T08:41:05Z</time>
      </trkpt>
      <trkpt lat="48.68591" lon="1.97084">
        <ele>50.6</ele>
        <time>2026-01-30T08:41:06Z</time>
      </trkpt>
      <trkpt lat="48.68597" lon="1.97086">
        <ele>50.4</ele>
        <time>2026-01-30T08:41:07Z</time>
      </trkpt>
      <trkpt lat="48.68602" lon="1.97088">
        <ele>50.4</ele>
        <time>2026-01-30T08:41:08Z</time>
      </trkpt>
      <trkpt lat="48.68608" lon="1.97091">
        <ele>50.4</ele>
        <time>2026-01-30T08:41:09Z</time>
      </trkpt>
      <trkpt lat="48.68614" lon="1.97093">
        <ele>50.4</ele>
        <time>2026-01-30T08:41:10Z</time>
      </trkpt>
      <trkpt lat="48.68619" lon="1.97095">
        <ele>50.4</ele>
        <time>2026-01-30T08:41:11Z</time>
      </trkpt>
      <trkpt lat="48.68625" lon="1.97097">
        <ele>50.4</ele>
        <time>2026-01-30T08:41:12Z</time>
      </trkpt>
      <trkpt lat="48.68631" lon="1.971">
        <ele>50.4</ele>
        <time>2026-01-30T08:41:13Z</time>
      </trkpt>
      <trkpt lat="48.68636" lon="1.97102">
        <ele>50.4</ele>
        <time>2026-01-30T08:41:14Z</time>
      </trkpt>
      <trkpt lat="48.68642" lon="1.97105">
        <ele>50</ele>
        <time>2026-01-30T08:41:15Z</time>
      </trkpt>
      <trkpt lat="48.68649" lon="1.97108">
        <ele>49.6</ele>
        <time>2026-01-30T08:41:16Z</time>
      </trkpt>
      <trkpt lat="48.68655" lon="1.97111">
        <ele>49.6</ele>
        <time>2026-01-30T08:41:17Z</time>
      </trkpt>
      <trkpt lat="48.68661" lon="1.97114">
        <ele>49.6</ele>
        <time>2026-01-30T08:41:18Z</time>
      </trkpt>
      <trkpt lat="48.68667" lon="1.97117">
        <ele>49.6</ele>
        <time>2026-01-30T08:41:19Z</time>
      </trkpt>
      <trkpt lat="48.68673" lon="1.9712">
        <ele>49.2</ele>
        <time>2026-01-30T08:41:20Z</time>
      </trkpt>
      <trkpt lat="48.68679" lon="1.97124">
        <ele>49.2</ele>
        <time>2026-01-30T08:41:21Z</time>
      </trkpt>
      <trkpt lat="48.68684" lon="1.97129">
        <ele>49.2</ele>
        <time>2026-01-30T08:41:22Z</time>
      </trkpt>
      <trkpt lat="48.6869" lon="1.97133">
        <ele>49.8</ele>
        <time>2026-01-30T08:41:23Z</time>
      </trkpt>
      <trkpt lat="48.68695" lon="1.97138">
        <ele>49.6</ele>
        <time>2026-01-30T08:41:24Z</time>
      </trkpt>
      <trkpt lat="48.687" lon="1.97143">
        <ele>49.6</ele>
        <time>2026-01-30T08:41:25Z</time>
      </trkpt>
      <trkpt lat="48.68705" lon="1.97148">
        <ele>49.6</ele>
        <time>2026-01-30T08:41:26Z</time>
      </trkpt>
      <trkpt lat="48.68709" lon="1.97152">
        <ele>50.6</ele>
        <time>2026-01-30T08:41:27Z</time>
      </trkpt>
      <trkpt lat="48.68713" lon="1.97157">
        <ele>51.2</ele>
        <time>2026-01-30T08:41:28Z</time>
      </trkpt>
      <trkpt lat="48.68718" lon="1.97162">
        <ele>51.2</ele>
        <time>2026-01-30T08:41:29Z</time>
      </trkpt>
      <trkpt lat="48.68722" lon="1.97166">
        <ele>51.2</ele>
        <time>2026-01-30T08:41:30Z</time>
      </trkpt>
      <trkpt lat="48.68726" lon="1.97171">
        <ele>51.2</ele>
        <time>2026-01-30T08:41:31Z</time>
      </trkpt>
      <trkpt lat="48.6873" lon="1.97175">
        <ele>52.6</ele>
        <time>2026-01-30T08:41:32Z</time>
      </trkpt>
      <trkpt lat="48.68733" lon="1.97179">
        <ele>52.6</ele>
        <time>2026-01-30T08:41:33Z</time>
      </trkpt>
      <trkpt lat="48.68736" lon="1.97183">
        <ele>52.6</ele>
        <time>2026-01-30T08:41:34Z</time>
      </trkpt>
      <trkpt lat="48.68738" lon="1.97186">
        <ele>53.4</ele>
        <time>2026-01-30T08:41:35Z</time>
      </trkpt>
      <trkpt lat="48.68742" lon="1.97188">
        <ele>54</ele>
        <time>2026-01-30T08:41:36Z</time>
      </trkpt>
      <trkpt lat="48.68744" lon="1.97192">
        <ele>54</ele>
        <time>2026-01-30T08:41:37Z</time>
      </trkpt>
      <trkpt lat="48.68747" lon="1.97195">
        <ele>54</ele>
        <time>2026-01-30T08:41:38Z</time>
      </trkpt>
      <trkpt lat="48.68749" lon="1.97198">
        <ele>54.6</ele>
        <time>2026-01-30T08:41:39Z</time>
      </trkpt>
      <trkpt lat="48.68752" lon="1.97201">
        <ele>54.8</ele>
        <time>2026-01-30T08:41:40Z</time>
      </trkpt>
      <trkpt lat="48.68755" lon="1.97204">
        <ele>54.8</ele>
        <time>2026-01-30T08:41:41Z</time>
      </trkpt>
      <trkpt lat="48.68758" lon="1.97207">
        <ele>54.8</ele>
        <time>2026-01-30T08:41:42Z</time>
      </trkpt>
      <trkpt lat="48.6876" lon="1.9721">
        <ele>55.4</ele>
        <time>2026-01-30T08:41:43Z</time>
      </trkpt>
      <trkpt lat="48.68763" lon="1.97212">
        <ele>55.4</ele>
        <time>2026-01-30T08:41:44Z</time>
      </trkpt>
      <trkpt lat="48.68766" lon="1.97214">
        <ele>55.4</ele>
        <time>2026-01-30T08:41:45Z</time>
      </trkpt>
      <trkpt lat="48.68769" lon="1.97214">
        <ele>55.4</ele>
        <time>2026-01-30T08:41:46Z</time>
      </trkpt>
      <trkpt lat="48.68772" lon="1.97212">
        <ele>56.4</ele>
        <time>2026-01-30T08:41:47Z</time>
      </trkpt>
      <trkpt lat="48.68775" lon="1.97209">
        <ele>56.8</ele>
        <time>2026-01-30T08:41:48Z</time>
      </trkpt>
      <trkpt lat="48.68777" lon="1.97205">
        <ele>56.8</ele>
        <time>2026-01-30T08:41:49Z</time>
      </trkpt>
      <trkpt lat="48.6878" lon="1.97201">
        <ele>56.8</ele>
        <time>2026-01-30T08:41:50Z</time>
      </trkpt>
      <trkpt lat="48.68782" lon="1.97197">
        <ele>57.8</ele>
        <time>2026-01-30T08:41:51Z</time>
      </trkpt>
      <trkpt lat="48.68785" lon="1.97193">
        <ele>58.2</ele>
        <time>2026-01-30T08:41:52Z</time>
      </trkpt>
      <trkpt lat="48.68787" lon="1.97189">
        <ele>58.2</ele>
        <time>2026-01-30T08:41:53Z</time>
      </trkpt>
      <trkpt lat="48.68789" lon="1.97187">
        <ele>58.2</ele>
        <time>2026-01-30T08:41:54Z</time>
      </trkpt>
      <trkpt lat="48.68792" lon="1.97184">
        <ele>58.2</ele>
        <time>2026-01-30T08:41:55Z</time>
      </trkpt>
      <trkpt lat="48.68795" lon="1.97181">
        <ele>58.8</ele>
        <time>2026-01-30T08:41:56Z</time>
      </trkpt>
      <trkpt lat="48.68797" lon="1.97178">
        <ele>58.8</ele>
        <time>2026-01-30T08:41:57Z</time>
      </trkpt>
      <trkpt lat="48.68801" lon="1.97174">
        <ele>58.8</ele>
        <time>2026-01-30T08:41:58Z</time>
      </trkpt>
      <trkpt lat="48.68804" lon="1.97172">
        <ele>58.8</ele>
        <time>2026-01-30T08:41:59Z</time>
      </trkpt>
      <trkpt lat="48.68806" lon="1.97169">
        <ele>59</ele>
        <time>2026-01-30T08:42:00Z</time>
      </trkpt>
      <trkpt lat="48.68809" lon="1.97165">
        <ele>59</ele>
        <time>2026-01-30T08:42:01Z</time>
      </trkpt>
      <trkpt lat="48.68811" lon="1.97162">
        <ele>59</ele>
        <time>2026-01-30T08:42:02Z</time>
      </trkpt>
      <trkpt lat="48.68814" lon="1.97159">
        <ele>59.8</ele>
        <time>2026-01-30T08:42:03Z</time>
      </trkpt>
      <trkpt lat="48.68817" lon="1.97155">
        <ele>60</ele>
        <time>2026-01-30T08:42:04Z</time>
      </trkpt>
      <trkpt lat="48.6882" lon="1.97152">
        <ele>60</ele>
        <time>2026-01-30T08:42:05Z</time>
      </trkpt>
      <trkpt lat="48.68822" lon="1.97149">
        <ele>60</ele>
        <time>2026-01-30T08:42:06Z</time>
      </trkpt>
      <trkpt lat="48.68825" lon="1.97146">
        <ele>60</ele>
        <time>2026-01-30T08:42:07Z</time>
      </trkpt>
      <trkpt lat="48.68829" lon="1.97142">
        <ele>60.4</ele>
        <time>2026-01-30T08:42:08Z</time>
      </trkpt>
      <trkpt lat="48.68832" lon="1.97139">
        <ele>60.4</ele>
        <time>2026-01-30T08:42:09Z</time>
      </trkpt>
      <trkpt lat="48.68835" lon="1.97135">
        <ele>60.4</ele>
        <time>2026-01-30T08:42:10Z</time>
      </trkpt>
      <trkpt lat="48.68838" lon="1.97132">
        <ele>60.4</ele>
        <time>2026-01-30T08:42:11Z</time>
      </trkpt>
      <trkpt lat="48.68841" lon="1.97128">
        <ele>61</ele>
        <time>2026-01-30T08:42:12Z</time>
      </trkpt>
      <trkpt lat="48.68844" lon="1.97125">
        <ele>61</ele>
        <time>2026-01-30T08:42:13Z</time>
      </trkpt>
      <trkpt lat="48.68847" lon="1.97122">
        <ele>61</ele>
        <time>2026-01-30T08:42:14Z</time>
      </trkpt>
      <trkpt lat="48.6885" lon="1.97119">
        <ele>61</ele>
        <time>2026-01-30T08:42:15Z</time>
      </trkpt>
      <trkpt lat="48.68854" lon="1.97117">
        <ele>60.8</ele>
        <time>2026-01-30T08:42:16Z</time>
      </trkpt>
      <trkpt lat="48.68858" lon="1.97116">
        <ele>60.8</ele>
        <time>2026-01-30T08:42:17Z</time>
      </trkpt>
      <trkpt lat="48.68862" lon="1.97115">
        <ele>60.8</ele>
        <time>2026-01-30T08:42:18Z</time>
      </trkpt>
      <trkpt lat="48.68866" lon="1.97115">
        <ele>61.2</ele>
        <time>2026-01-30T08:42:19Z</time>
      </trkpt>
      <trkpt lat="48.6887" lon="1.97115">
        <ele>62</ele>
        <time>2026-01-30T08:42:20Z</time>
      </trkpt>
      <trkpt lat="48.68873" lon="1.97116">
        <ele>62</ele>
        <time>2026-01-30T08:42:21Z</time>
      </trkpt>
      <trkpt lat="48.68877" lon="1.97116">
        <ele>62</ele>
        <time>2026-01-30T08:42:22Z</time>
      </trkpt>
      <trkpt lat="48.68881" lon="1.97117">
        <ele>62</ele>
        <time>2026-01-30T08:42:23Z</time>
      </trkpt>
      <trkpt lat="48.68884" lon="1.97118">
        <ele>61.6</ele>
        <time>2026-01-30T08:42:24Z</time>
      </trkpt>
      <trkpt lat="48.68888" lon="1.97118">
        <ele>61.6</ele>
        <time>2026-01-30T08:42:25Z</time>
      </trkpt>
      <trkpt lat="48.68892" lon="1.97118">
        <ele>61.6</ele>
        <time>2026-01-30T08:42:26Z</time>
      </trkpt>
      <trkpt lat="48.68895" lon="1.97117">
        <ele>61.6</ele>
        <time>2026-01-30T08:42:27Z</time>
      </trkpt>
      <trkpt lat="48.68899" lon="1.97117">
        <ele>62</ele>
        <time>2026-01-30T08:42:28Z</time>
      </trkpt>
      <trkpt lat="48.68904" lon="1.97116">
        <ele>62</ele>
        <time>2026-01-30T08:42:29Z</time>
      </trkpt>
      <trkpt lat="48.68908" lon="1.97115">
        <ele>62</ele>
        <time>2026-01-30T08:42:30Z</time>
      </trkpt>
      <trkpt lat="48.68912" lon="1.97114">
        <ele>62</ele>
        <time>2026-01-30T08:42:31Z</time>
      </trkpt>
      <trkpt lat="48.68915" lon="1.97113">
        <ele>62.8</ele>
        <time>2026-01-30T08:42:32Z</time>
      </trkpt>
      <trkpt lat="48.68919" lon="1.97111">
        <ele>62.8</ele>
        <time>2026-01-30T08:42:33Z</time>
      </trkpt>
      <trkpt lat="48.68923" lon="1.9711">
        <ele>62.8</ele>
        <time>2026-01-30T08:42:34Z</time>
      </trkpt>
      <trkpt lat="48.68926" lon="1.97108">
        <ele>63</ele>
        <time>2026-01-30T08:42:35Z</time>
      </trkpt>
      <trkpt lat="48.6893" lon="1.97107">
        <ele>62.6</ele>
        <time>2026-01-30T08:42:36Z</time>
      </trkpt>
      <trkpt lat="48.68934" lon="1.97105">
        <ele>62.6</ele>
        <time>2026-01-30T08:42:37Z</time>
      </trkpt>
      <trkpt lat="48.68938" lon="1.97103">
        <ele>62.6</ele>
        <time>2026-01-30T08:42:38Z</time>
      </trkpt>
      <trkpt lat="48.68943" lon="1.97102">
        <ele>62.6</ele>
        <time>2026-01-30T08:42:39Z</time>
      </trkpt>
      <trkpt lat="48.68948" lon="1.97101">
        <ele>63</ele>
        <time>2026-01-30T08:42:40Z</time>
      </trkpt>
      <trkpt lat="48.68952" lon="1.97099">
        <ele>63</ele>
        <time>2026-01-30T08:42:41Z</time>
      </trkpt>
      <trkpt lat="48.68957" lon="1.97098">
        <ele>63</ele>
        <time>2026-01-30T08:42:42Z</time>
      </trkpt>
      <trkpt lat="48.68962" lon="1.97097">
        <ele>63</ele>
        <time>2026-01-30T08:42:43Z</time>
      </trkpt>
      <trkpt lat="48.68967" lon="1.97096">
        <ele>63</ele>
        <time>2026-01-30T08:42:44Z</time>
      </trkpt>
      <trkpt lat="48.68972" lon="1.97095">
        <ele>63</ele>
        <time>2026-01-30T08:42:45Z</time>
      </trkpt>
      <trkpt lat="48.68978" lon="1.97094">
        <ele>63</ele>
        <time>2026-01-30T08:42:46Z</time>
      </trkpt>
      <trkpt lat="48.68983" lon="1.97094">
        <ele>62.8</ele>
        <time>2026-01-30T08:42:47Z</time>
      </trkpt>
      <trkpt lat="48.68988" lon="1.97095">
        <ele>62.2</ele>
        <time>2026-01-30T08:42:48Z</time>
      </trkpt>
      <trkpt lat="48.68994" lon="1.97096">
        <ele>62.2</ele>
        <time>2026-01-30T08:42:49Z</time>
      </trkpt>
      <trkpt lat="48.68999" lon="1.97098">
        <ele>62.2</ele>
        <time>2026-01-30T08:42:50Z</time>
      </trkpt>
      <trkpt lat="48.69004" lon="1.971">
        <ele>62.4</ele>
        <time>2026-01-30T08:42:51Z</time>
      </trkpt>
      <trkpt lat="48.69009" lon="1.97103">
        <ele>61.8</ele>
        <time>2026-01-30T08:42:52Z</time>
      </trkpt>
      <trkpt lat="48.69014" lon="1.97105">
        <ele>61.8</ele>
        <time>2026-01-30T08:42:53Z</time>
      </trkpt>
      <trkpt lat="48.6902" lon="1.97106">
        <ele>61.8</ele>
        <time>2026-01-30T08:42:54Z</time>
      </trkpt>
      <trkpt lat="48.69024" lon="1.97103">
        <ele>61.8</ele>
        <time>2026-01-30T08:42:55Z</time>
      </trkpt>
      <trkpt lat="48.69028" lon="1.97099">
        <ele>62.6</ele>
        <time>2026-01-30T08:42:56Z</time>
      </trkpt>
      <trkpt lat="48.69031" lon="1.97093">
        <ele>62.6</ele>
        <time>2026-01-30T08:42:57Z</time>
      </trkpt>
      <trkpt lat="48.69032" lon="1.97086">
        <ele>62.6</ele>
        <time>2026-01-30T08:42:58Z</time>
      </trkpt>
      <trkpt lat="48.69033" lon="1.97079">
        <ele>62.4</ele>
        <time>2026-01-30T08:42:59Z</time>
      </trkpt>
      <trkpt lat="48.69033" lon="1.97073">
        <ele>62.4</ele>
        <time>2026-01-30T08:43:00Z</time>
      </trkpt>
      <trkpt lat="48.69034" lon="1.97066">
        <ele>62.4</ele>
        <time>2026-01-30T08:43:01Z</time>
      </trkpt>
      <trkpt lat="48.69034" lon="1.97061">
        <ele>62.4</ele>
        <time>2026-01-30T08:43:02Z</time>
      </trkpt>
      <trkpt lat="48.69035" lon="1.97055">
        <ele>63</ele>
        <time>2026-01-30T08:43:03Z</time>
      </trkpt>
      <trkpt lat="48.69036" lon="1.97049">
        <ele>62.6</ele>
        <time>2026-01-30T08:43:04Z</time>
      </trkpt>
      <trkpt lat="48.69036" lon="1.97043">
        <ele>62.6</ele>
        <time>2026-01-30T08:43:05Z</time>
      </trkpt>
      <trkpt lat="48.69037" lon="1.97038">
        <ele>62.6</ele>
        <time>2026-01-30T08:43:06Z</time>
      </trkpt>
      <trkpt lat="48.69038" lon="1.97033">
        <ele>63.6</ele>
        <time>2026-01-30T08:43:07Z</time>
      </trkpt>
      <trkpt lat="48.69038" lon="1.97028">
        <ele>64.2</ele>
        <time>2026-01-30T08:43:08Z</time>
      </trkpt>
      <trkpt lat="48.69039" lon="1.97023">
        <ele>64.2</ele>
        <time>2026-01-30T08:43:09Z</time>
      </trkpt>
      <trkpt lat="48.6904" lon="1.97018">
        <ele>64.2</ele>
        <time>2026-01-30T08:43:10Z</time>
      </trkpt>
      <trkpt lat="48.69041" lon="1.97013">
        <ele>64.2</ele>
        <time>2026-01-30T08:43:11Z</time>
      </trkpt>
      <trkpt lat="48.69041" lon="1.97009">
        <ele>64.4</ele>
        <time>2026-01-30T08:43:12Z</time>
      </trkpt>
      <trkpt lat="48.69042" lon="1.97004">
        <ele>64.4</ele>
        <time>2026-01-30T08:43:13Z</time>
      </trkpt>
      <trkpt lat="48.69043" lon="1.96999">
        <ele>64.4</ele>
        <time>2026-01-30T08:43:14Z</time>
      </trkpt>
      <trkpt lat="48.69043" lon="1.96994">
        <ele>64.4</ele>
        <time>2026-01-30T08:43:15Z</time>
      </trkpt>
      <trkpt lat="48.69044" lon="1.9699">
        <ele>66</ele>
        <time>2026-01-30T08:43:16Z</time>
      </trkpt>
      <trkpt lat="48.69045" lon="1.96985">
        <ele>66</ele>
        <time>2026-01-30T08:43:17Z</time>
      </trkpt>
      <trkpt lat="48.69045" lon="1.9698">
        <ele>66</ele>
        <time>2026-01-30T08:43:18Z</time>
      </trkpt>
      <trkpt lat="48.69046" lon="1.96976">
        <ele>66.6</ele>
        <time>2026-01-30T08:43:19Z</time>
      </trkpt>
      <trkpt lat="48.69047" lon="1.96971">
        <ele>67</ele>
        <time>2026-01-30T08:43:20Z</time>
      </trkpt>
      <trkpt lat="48.69047" lon="1.96966">
        <ele>67</ele>
        <time>2026-01-30T08:43:21Z</time>
      </trkpt>
      <trkpt lat="48.69048" lon="1.96962">
        <ele>67</ele>
        <time>2026-01-30T08:43:22Z</time>
      </trkpt>
      <trkpt lat="48.69048" lon="1.96957">
        <ele>67.4</ele>
        <time>2026-01-30T08:43:23Z</time>
      </trkpt>
      <trkpt lat="48.69049" lon="1.96952">
        <ele>67.6</ele>
        <time>2026-01-30T08:43:24Z</time>
      </trkpt>
      <trkpt lat="48.69049" lon="1.96948">
        <ele>67.6</ele>
        <time>2026-01-30T08:43:25Z</time>
      </trkpt>
      <trkpt lat="48.6905" lon="1.96943">
        <ele>67.6</ele>
        <time>2026-01-30T08:43:26Z</time>
      </trkpt>
      <trkpt lat="48.69051" lon="1.96939">
        <ele>68.4</ele>
        <time>2026-01-30T08:43:27Z</time>
      </trkpt>
      <trkpt lat="48.69051" lon="1.96934">
        <ele>68.2</ele>
        <time>2026-01-30T08:43:28Z</time>
      </trkpt>
      <trkpt lat="48.69052" lon="1.9693">
        <ele>68.2</ele>
        <time>2026-01-30T08:43:29Z</time>
      </trkpt>
      <trkpt lat="48.69053" lon="1.96926">
        <ele>68.2</ele>
        <time>2026-01-30T08:43:30Z</time>
      </trkpt>
      <trkpt lat="48.69053" lon="1.96921">
        <ele>69.2</ele>
        <time>2026-01-30T08:43:31Z</time>
      </trkpt>
      <trkpt lat="48.69054" lon="1.96917">
        <ele>69.8</ele>
        <time>2026-01-30T08:43:32Z</time>
      </trkpt>
      <trkpt lat="48.69054" lon="1.96912">
        <ele>69.8</ele>
        <time>2026-01-30T08:43:33Z</time>
      </trkpt>
      <trkpt lat="48.69055" lon="1.96908">
        <ele>69.8</ele>
        <time>2026-01-30T08:43:34Z</time>
      </trkpt>
      <trkpt lat="48.69056" lon="1.96904">
        <ele>70.4</ele>
        <time>2026-01-30T08:43:35Z</time>
      </trkpt>
      <trkpt lat="48.69056" lon="1.96899">
        <ele>70.6</ele>
        <time>2026-01-30T08:43:36Z</time>
      </trkpt>
      <trkpt lat="48.69057" lon="1.96895">
        <ele>70.6</ele>
        <time>2026-01-30T08:43:37Z</time>
      </trkpt>
      <trkpt lat="48.69057" lon="1.9689">
        <ele>70.6</ele>
        <time>2026-01-30T08:43:38Z</time>
      </trkpt>
      <trkpt lat="48.69058" lon="1.96886">
        <ele>71.6</ele>
        <time>2026-01-30T08:43:39Z</time>
      </trkpt>
      <trkpt lat="48.69059" lon="1.96881">
        <ele>71.8</ele>
        <time>2026-01-30T08:43:40Z</time>
      </trkpt>
      <trkpt lat="48.69059" lon="1.96877">
        <ele>71.8</ele>
        <time>2026-01-30T08:43:41Z</time>
      </trkpt>
      <trkpt lat="48.6906" lon="1.96873">
        <ele>71.8</ele>
        <time>2026-01-30T08:43:42Z</time>
      </trkpt>
      <trkpt lat="48.6906" lon="1.96868">
        <ele>72.4</ele>
        <time>2026-01-30T08:43:43Z</time>
      </trkpt>
      <trkpt lat="48.69061" lon="1.96864">
        <ele>72.6</ele>
        <time>2026-01-30T08:43:44Z</time>
      </trkpt>
      <trkpt lat="48.69062" lon="1.9686">
        <ele>72.6</ele>
        <time>2026-01-30T08:43:45Z</time>
      </trkpt>
      <trkpt lat="48.69063" lon="1.96855">
        <ele>72.6</ele>
        <time>2026-01-30T08:43:46Z</time>
      </trkpt>
      <trkpt lat="48.69063" lon="1.96851">
        <ele>72.6</ele>
        <time>2026-01-30T08:43:47Z</time>
      </trkpt>
      <trkpt lat="48.69064" lon="1.96846">
        <ele>73.2</ele>
        <time>2026-01-30T08:43:48Z</time>
      </trkpt>
      <trkpt lat="48.69065" lon="1.96842">
        <ele>73.2</ele>
        <time>2026-01-30T08:43:49Z</time>
      </trkpt>
      <trkpt lat="48.69065" lon="1.96837">
        <ele>73.2</ele>
        <time>2026-01-30T08:43:50Z</time>
      </trkpt>
      <trkpt lat="48.69066" lon="1.96833">
        <ele>74</ele>
        <time>2026-01-30T08:43:51Z</time>
      </trkpt>
      <trkpt lat="48.69066" lon="1.96829">
        <ele>73.8</ele>
        <time>2026-01-30T08:43:52Z</time>
      </trkpt>
      <trkpt lat="48.69067" lon="1.96824">
        <ele>73.8</ele>
        <time>2026-01-30T08:43:53Z</time>
      </trkpt>
      <trkpt lat="48.69067" lon="1.9682">
        <ele>73.8</ele>
        <time>2026-01-30T08:43:54Z</time>
      </trkpt>
      <trkpt lat="48.69068" lon="1.96815">
        <ele>74.8</ele>
        <time>2026-01-30T08:43:55Z</time>
      </trkpt>
      <trkpt lat="48.69069" lon="1.96811">
        <ele>75.6</ele>
        <time>2026-01-30T08:43:56Z</time>
      </trkpt>
      <trkpt lat="48.69069" lon="1.96807">
        <ele>75.6</ele>
        <time>2026-01-30T08:43:57Z</time>
      </trkpt>
      <trkpt lat="48.6907" lon="1.96802">
        <ele>75.6</ele>
        <time>2026-01-30T08:43:58Z</time>
      </trkpt>
      <trkpt lat="48.69071" lon="1.96798">
        <ele>75.4</ele>
        <time>2026-01-30T08:43:59Z</time>
      </trkpt>
      <trkpt lat="48.69071" lon="1.96794">
        <ele>75.4</ele>
        <time>2026-01-30T08:44:00Z</time>
      </trkpt>
      <trkpt lat="48.69072" lon="1.96789">
        <ele>75.4</ele>
        <time>2026-01-30T08:44:01Z</time>
      </trkpt>
      <trkpt lat="48.69072" lon="1.96785">
        <ele>75.4</ele>
        <time>2026-01-30T08:44:02Z</time>
      </trkpt>
      <trkpt lat="48.69073" lon="1.96781">
        <ele>76.4</ele>
        <time>2026-01-30T08:44:03Z</time>
      </trkpt>
      <trkpt lat="48.69073" lon="1.96776">
        <ele>76.6</ele>
        <time>2026-01-30T08:44:04Z</time>
      </trkpt>
      <trkpt lat="48.69074" lon="1.96772">
        <ele>76.6</ele>
        <time>2026-01-30T08:44:05Z</time>
      </trkpt>
      <trkpt lat="48.69075" lon="1.96768">
        <ele>76.6</ele>
        <time>2026-01-30T08:44:06Z</time>
      </trkpt>
      <trkpt lat="48.69076" lon="1.96763">
        <ele>76.8</ele>
        <time>2026-01-30T08:44:07Z</time>
      </trkpt>
      <trkpt lat="48.69077" lon="1.96759">
        <ele>77.4</ele>
        <time>2026-01-30T08:44:08Z</time>
      </trkpt>
      <trkpt lat="48.69078" lon="1.96755">
        <ele>77.4</ele>
        <time>2026-01-30T08:44:09Z</time>
      </trkpt>
      <trkpt lat="48.69079" lon="1.96751">
        <ele>77.4</ele>
        <time>2026-01-30T08:44:10Z</time>
      </trkpt>
      <trkpt lat="48.6908" lon="1.96746">
        <ele>77.4</ele>
        <time>2026-01-30T08:44:11Z</time>
      </trkpt>
      <trkpt lat="48.69081" lon="1.96742">
        <ele>77.8</ele>
        <time>2026-01-30T08:44:12Z</time>
      </trkpt>
      <trkpt lat="48.69082" lon="1.96738">
        <ele>77.8</ele>
        <time>2026-01-30T08:44:13Z</time>
      </trkpt>
      <trkpt lat="48.69083" lon="1.96734">
        <ele>77.8</ele>
        <time>2026-01-30T08:44:14Z</time>
      </trkpt>
      <trkpt lat="48.69084" lon="1.9673">
        <ele>77.8</ele>
        <time>2026-01-30T08:44:15Z</time>
      </trkpt>
      <trkpt lat="48.69085" lon="1.96725">
        <ele>78</ele>
        <time>2026-01-30T08:44:16Z</time>
      </trkpt>
      <trkpt lat="48.69086" lon="1.96721">
        <ele>78</ele>
        <time>2026-01-30T08:44:17Z</time>
      </trkpt>
      <trkpt lat="48.69087" lon="1.96717">
        <ele>78</ele>
        <time>2026-01-30T08:44:18Z</time>
      </trkpt>
      <trkpt lat="48.69089" lon="1.96713">
        <ele>79</ele>
        <time>2026-01-30T08:44:19Z</time>
      </trkpt>
      <trkpt lat="48.6909" lon="1.96709">
        <ele>78.8</ele>
        <time>2026-01-30T08:44:20Z</time>
      </trkpt>
      <trkpt lat="48.69091" lon="1.96706">
        <ele>78.8</ele>
        <time>2026-01-30T08:44:21Z</time>
      </trkpt>
      <trkpt lat="48.69093" lon="1.96702">
        <ele>78.8</ele>
        <time>2026-01-30T08:44:22Z</time>
      </trkpt>
      <trkpt lat="48.69094" lon="1.96698">
        <ele>79.6</ele>
        <time>2026-01-30T08:44:23Z</time>
      </trkpt>
      <trkpt lat="48.69096" lon="1.96694">
        <ele>79.8</ele>
        <time>2026-01-30T08:44:24Z</time>
      </trkpt>
      <trkpt lat="48.69097" lon="1.9669">
        <ele>79.8</ele>
        <time>2026-01-30T08:44:25Z</time>
      </trkpt>
      <trkpt lat="48.69099" lon="1.96686">
        <ele>79.8</ele>
        <time>2026-01-30T08:44:26Z</time>
      </trkpt>
      <trkpt lat="48.691" lon="1.96682">
        <ele>80.8</ele>
        <time>2026-01-30T08:44:27Z</time>
      </trkpt>
      <trkpt lat="48.69102" lon="1.96679">
        <ele>80.8</ele>
        <time>2026-01-30T08:44:28Z</time>
      </trkpt>
      <trkpt lat="48.69104" lon="1.96675">
        <ele>80.8</ele>
        <time>2026-01-30T08:44:29Z</time>
      </trkpt>
      <trkpt lat="48.69106" lon="1.96672">
        <ele>80.8</ele>
        <time>2026-01-30T08:44:30Z</time>
      </trkpt>
      <trkpt lat="48.69108" lon="1.96669">
        <ele>80.8</ele>
        <time>2026-01-30T08:44:31Z</time>
      </trkpt>
      <trkpt lat="48.6911" lon="1.96666">
        <ele>81.6</ele>
        <time>2026-01-30T08:44:32Z</time>
      </trkpt>
      <trkpt lat="48.69112" lon="1.96663">
        <ele>81.6</ele>
        <time>2026-01-30T08:44:33Z</time>
      </trkpt>
      <trkpt lat="48.69114" lon="1.9666">
        <ele>81.6</ele>
        <time>2026-01-30T08:44:34Z</time>
      </trkpt>
      <trkpt lat="48.69116" lon="1.96657">
        <ele>81.6</ele>
        <time>2026-01-30T08:44:35Z</time>
      </trkpt>
      <trkpt lat="48.69118" lon="1.96655">
        <ele>82.2</ele>
        <time>2026-01-30T08:44:36Z</time>
      </trkpt>
      <trkpt lat="48.6912" lon="1.96652">
        <ele>82.2</ele>
        <time>2026-01-30T08:44:37Z</time>
      </trkpt>
      <trkpt lat="48.69123" lon="1.96649">
        <ele>82.2</ele>
        <time>2026-01-30T08:44:38Z</time>
      </trkpt>
      <trkpt lat="48.69125" lon="1.96646">
        <ele>82.2</ele>
        <time>2026-01-30T08:44:39Z</time>
      </trkpt>
      <trkpt lat="48.69127" lon="1.96644">
        <ele>82.6</ele>
        <time>2026-01-30T08:44:40Z</time>
      </trkpt>
      <trkpt lat="48.6913" lon="1.96641">
        <ele>82.6</ele>
        <time>2026-01-30T08:44:41Z</time>
      </trkpt>
      <trkpt lat="48.69132" lon="1.96639">
        <ele>82.6</ele>
        <time>2026-01-30T08:44:42Z</time>
      </trkpt>
      <trkpt lat="48.69135" lon="1.96637">
        <ele>83.6</ele>
        <time>2026-01-30T08:44:43Z</time>
      </trkpt>
      <trkpt lat="48.69137" lon="1.96635">
        <ele>83.6</ele>
        <time>2026-01-30T08:44:44Z</time>
      </trkpt>
      <trkpt lat="48.69139" lon="1.96633">
        <ele>83.6</ele>
        <time>2026-01-30T08:44:45Z</time>
      </trkpt>
      <trkpt lat="48.69142" lon="1.9663">
        <ele>83.6</ele>
        <time>2026-01-30T08:44:46Z</time>
      </trkpt>
      <trkpt lat="48.69145" lon="1.96628">
        <ele>84.4</ele>
        <time>2026-01-30T08:44:47Z</time>
      </trkpt>
      <trkpt lat="48.69147" lon="1.96626">
        <ele>84.4</ele>
        <time>2026-01-30T08:44:48Z</time>
      </trkpt>
      <trkpt lat="48.6915" lon="1.96623">
        <ele>84.4</ele>
        <time>2026-01-30T08:44:49Z</time>
      </trkpt>
      <trkpt lat="48.69153" lon="1.96621">
        <ele>84.4</ele>
        <time>2026-01-30T08:44:50Z</time>
      </trkpt>
      <trkpt lat="48.69155" lon="1.96619">
        <ele>84.4</ele>
        <time>2026-01-30T08:44:51Z</time>
      </trkpt>
      <trkpt lat="48.69157" lon="1.96618">
        <ele>85.2</ele>
        <time>2026-01-30T08:44:52Z</time>
      </trkpt>
      <trkpt lat="48.69159" lon="1.96615">
        <ele>85.2</ele>
        <time>2026-01-30T08:44:53Z</time>
      </trkpt>
      <trkpt lat="48.69162" lon="1.96613">
        <ele>85.2</ele>
        <time>2026-01-30T08:44:54Z</time>
      </trkpt>
      <trkpt lat="48.69165" lon="1.9661">
        <ele>85.2</ele>
        <time>2026-01-30T08:44:55Z</time>
      </trkpt>
      <trkpt lat="48.69167" lon="1.96608">
        <ele>85.6</ele>
        <time>2026-01-30T08:44:56Z</time>
      </trkpt>
      <trkpt lat="48.6917" lon="1.96606">
        <ele>85.6</ele>
        <time>2026-01-30T08:44:57Z</time>
      </trkpt>
      <trkpt lat="48.69173" lon="1.96603">
        <ele>85.6</ele>
        <time>2026-01-30T08:44:58Z</time>
      </trkpt>
      <trkpt lat="48.69176" lon="1.96601">
        <ele>86.2</ele>
        <time>2026-01-30T08:44:59Z</time>
      </trkpt>
      <trkpt lat="48.69179" lon="1.96599">
        <ele>86</ele>
        <time>2026-01-30T08:45:00Z</time>
      </trkpt>
      <trkpt lat="48.69182" lon="1.96597">
        <ele>86</ele>
        <time>2026-01-30T08:45:01Z</time>
      </trkpt>
      <trkpt lat="48.69185" lon="1.96594">
        <ele>86</ele>
        <time>2026-01-30T08:45:02Z</time>
      </trkpt>
      <trkpt lat="48.69188" lon="1.96591">
        <ele>86.4</ele>
        <time>2026-01-30T08:45:03Z</time>
      </trkpt>
      <trkpt lat="48.69191" lon="1.96587">
        <ele>86.8</ele>
        <time>2026-01-30T08:45:04Z</time>
      </trkpt>
      <trkpt lat="48.69194" lon="1.96584">
        <ele>86.8</ele>
        <time>2026-01-30T08:45:05Z</time>
      </trkpt>
      <trkpt lat="48.69197" lon="1.96582">
        <ele>86.8</ele>
        <time>2026-01-30T08:45:06Z</time>
      </trkpt>
      <trkpt lat="48.69199" lon="1.96579">
        <ele>87</ele>
        <time>2026-01-30T08:45:07Z</time>
      </trkpt>
      <trkpt lat="48.69202" lon="1.96577">
        <ele>87</ele>
        <time>2026-01-30T08:45:08Z</time>
      </trkpt>
      <trkpt lat="48.69205" lon="1.96574">
        <ele>87</ele>
        <time>2026-01-30T08:45:09Z</time>
      </trkpt>
      <trkpt lat="48.69208" lon="1.96571">
        <ele>87</ele>
        <time>2026-01-30T08:45:10Z</time>
      </trkpt>
      <trkpt lat="48.6921" lon="1.96568">
        <ele>87.8</ele>
        <time>2026-01-30T08:45:11Z</time>
      </trkpt>
      <trkpt lat="48.69213" lon="1.96565">
        <ele>87.8</ele>
        <time>2026-01-30T08:45:12Z</time>
      </trkpt>
      <trkpt lat="48.69216" lon="1.96563">
        <ele>87.8</ele>
        <time>2026-01-30T08:45:13Z</time>
      </trkpt>
      <trkpt lat="48.69219" lon="1.9656">
        <ele>87.8</ele>
        <time>2026-01-30T08:45:14Z</time>
      </trkpt>
      <trkpt lat="48.69222" lon="1.96558">
        <ele>88</ele>
        <time>2026-01-30T08:45:15Z</time>
      </trkpt>
      <trkpt lat="48.69225" lon="1.96555">
        <ele>88.4</ele>
        <time>2026-01-30T08:45:16Z</time>
      </trkpt>
      <trkpt lat="48.69227" lon="1.96552">
        <ele>88.4</ele>
        <time>2026-01-30T08:45:17Z</time>
      </trkpt>
      <trkpt lat="48.6923" lon="1.96549">
        <ele>88.4</ele>
        <time>2026-01-30T08:45:18Z</time>
      </trkpt>
      <trkpt lat="48.69233" lon="1.96547">
        <ele>89.4</ele>
        <time>2026-01-30T08:45:19Z</time>
      </trkpt>
      <trkpt lat="48.69235" lon="1.96545">
        <ele>89.6</ele>
        <time>2026-01-30T08:45:20Z</time>
      </trkpt>
      <trkpt lat="48.69238" lon="1.96542">
        <ele>89.6</ele>
        <time>2026-01-30T08:45:21Z</time>
      </trkpt>
      <trkpt lat="48.6924" lon="1.96539">
        <ele>89.6</ele>
        <time>2026-01-30T08:45:22Z</time>
      </trkpt>
      <trkpt lat="48.69243" lon="1.96536">
        <ele>89.6</ele>
        <time>2026-01-30T08:45:23Z</time>
      </trkpt>
      <trkpt lat="48.69245" lon="1.96532">
        <ele>90.2</ele>
        <time>2026-01-30T08:45:24Z</time>
      </trkpt>
      <trkpt lat="48.69246" lon="1.96529">
        <ele>90.2</ele>
        <time>2026-01-30T08:45:25Z</time>
      </trkpt>
      <trkpt lat="48.69248" lon="1.96526">
        <ele>90.2</ele>
        <time>2026-01-30T08:45:26Z</time>
      </trkpt>
      <trkpt lat="48.6925" lon="1.96522">
        <ele>91.2</ele>
        <time>2026-01-30T08:45:27Z</time>
      </trkpt>
      <trkpt lat="48.69251" lon="1.96518">
        <ele>91.6</ele>
        <time>2026-01-30T08:45:28Z</time>
      </trkpt>
      <trkpt lat="48.69252" lon="1.96514">
        <ele>91.6</ele>
        <time>2026-01-30T08:45:29Z</time>
      </trkpt>
      <trkpt lat="48.69253" lon="1.9651">
        <ele>91.6</ele>
        <time>2026-01-30T08:45:30Z</time>
      </trkpt>
      <trkpt lat="48.69254" lon="1.96506">
        <ele>92.2</ele>
        <time>2026-01-30T08:45:31Z</time>
      </trkpt>
      <trkpt lat="48.69255" lon="1.96501">
        <ele>92.2</ele>
        <time>2026-01-30T08:45:32Z</time>
      </trkpt>
      <trkpt lat="48.69257" lon="1.96498">
        <ele>92.2</ele>
        <time>2026-01-30T08:45:33Z</time>
      </trkpt>
      <trkpt lat="48.69258" lon="1.96493">
        <ele>92.2</ele>
        <time>2026-01-30T08:45:34Z</time>
      </trkpt>
      <trkpt lat="48.69259" lon="1.96489">
        <ele>92.2</ele>
        <time>2026-01-30T08:45:35Z</time>
      </trkpt>
      <trkpt lat="48.6926" lon="1.96486">
        <ele>92.6</ele>
        <time>2026-01-30T08:45:36Z</time>
      </trkpt>
      <trkpt lat="48.69261" lon="1.96482">
        <ele>92.6</ele>
        <time>2026-01-30T08:45:37Z</time>
      </trkpt>
      <trkpt lat="48.69263" lon="1.96477">
        <ele>92.6</ele>
        <time>2026-01-30T08:45:38Z</time>
      </trkpt>
      <trkpt lat="48.69265" lon="1.96472">
        <ele>92.6</ele>
        <time>2026-01-30T08:45:39Z</time>
      </trkpt>
      <trkpt lat="48.69266" lon="1.96468">
        <ele>93.2</ele>
        <time>2026-01-30T08:45:40Z</time>
      </trkpt>
      <trkpt lat="48.69268" lon="1.96463">
        <ele>93.2</ele>
        <time>2026-01-30T08:45:41Z</time>
      </trkpt>
      <trkpt lat="48.69271" lon="1.96459">
        <ele>93.2</ele>
        <time>2026-01-30T08:45:42Z</time>
      </trkpt>
      <trkpt lat="48.69273" lon="1.96456">
        <ele>93.2</ele>
        <time>2026-01-30T08:45:43Z</time>
      </trkpt>
      <trkpt lat="48.69276" lon="1.96453">
        <ele>93.4</ele>
        <time>2026-01-30T08:45:44Z</time>
      </trkpt>
      <trkpt lat="48.69278" lon="1.96451">
        <ele>93.4</ele>
        <time>2026-01-30T08:45:45Z</time>
      </trkpt>
      <trkpt lat="48.69281" lon="1.96447">
        <ele>93.4</ele>
        <time>2026-01-30T08:45:46Z</time>
      </trkpt>
      <trkpt lat="48.69283" lon="1.96445">
        <ele>94.4</ele>
        <time>2026-01-30T08:45:47Z</time>
      </trkpt>
      <trkpt lat="48.69286" lon="1.96443">
        <ele>95</ele>
        <time>2026-01-30T08:45:48Z</time>
      </trkpt>
      <trkpt lat="48.69288" lon="1.96441">
        <ele>95</ele>
        <time>2026-01-30T08:45:49Z</time>
      </trkpt>
      <trkpt lat="48.6929" lon="1.96439">
        <ele>95</ele>
        <time>2026-01-30T08:45:50Z</time>
      </trkpt>
      <trkpt lat="48.69293" lon="1.96437">
        <ele>95.6</ele>
        <time>2026-01-30T08:45:51Z</time>
      </trkpt>
      <trkpt lat="48.69295" lon="1.96435">
        <ele>96</ele>
        <time>2026-01-30T08:45:52Z</time>
      </trkpt>
      <trkpt lat="48.69298" lon="1.96433">
        <ele>96</ele>
        <time>2026-01-30T08:45:53Z</time>
      </trkpt>
      <trkpt lat="48.69301" lon="1.96431">
        <ele>96</ele>
        <time>2026-01-30T08:45:54Z</time>
      </trkpt>
      <trkpt lat="48.69303" lon="1.96429">
        <ele>96.2</ele>
        <time>2026-01-30T08:45:55Z</time>
      </trkpt>
      <trkpt lat="48.69306" lon="1.96427">
        <ele>96.8</ele>
        <time>2026-01-30T08:45:56Z</time>
      </trkpt>
      <trkpt lat="48.69308" lon="1.96424">
        <ele>96.8</ele>
        <time>2026-01-30T08:45:57Z</time>
      </trkpt>
      <trkpt lat="48.69311" lon="1.96421">
        <ele>96.8</ele>
        <time>2026-01-30T08:45:58Z</time>
      </trkpt>
      <trkpt lat="48.69313" lon="1.96418">
        <ele>97.4</ele>
        <time>2026-01-30T08:45:59Z</time>
      </trkpt>
      <trkpt lat="48.69315" lon="1.96415">
        <ele>97.6</ele>
        <time>2026-01-30T08:46:00Z</time>
      </trkpt>
      <trkpt lat="48.69318" lon="1.96412">
        <ele>97.6</ele>
        <time>2026-01-30T08:46:01Z</time>
      </trkpt>
      <trkpt lat="48.6932" lon="1.96408">
        <ele>97.6</ele>
        <time>2026-01-30T08:46:02Z</time>
      </trkpt>
      <trkpt lat="48.69322" lon="1.96405">
        <ele>97.6</ele>
        <time>2026-01-30T08:46:03Z</time>
      </trkpt>
      <trkpt lat="48.69323" lon="1.96401">
        <ele>98.2</ele>
        <time>2026-01-30T08:46:04Z</time>
      </trkpt>
      <trkpt lat="48.69325" lon="1.96397">
        <ele>98.2</ele>
        <time>2026-01-30T08:46:05Z</time>
      </trkpt>
      <trkpt lat="48.69326" lon="1.96393">
        <ele>98.2</ele>
        <time>2026-01-30T08:46:06Z</time>
      </trkpt>
      <trkpt lat="48.69328" lon="1.96389">
        <ele>98</ele>
        <time>2026-01-30T08:46:07Z</time>
      </trkpt>
      <trkpt lat="48.69329" lon="1.96384">
        <ele>97.6</ele>
        <time>2026-01-30T08:46:08Z</time>
      </trkpt>
      <trkpt lat="48.6933" lon="1.96379">
        <ele>97.6</ele>
        <time>2026-01-30T08:46:09Z</time>
      </trkpt>
      <trkpt lat="48.69331" lon="1.96375">
        <ele>97.6</ele>
        <time>2026-01-30T08:46:10Z</time>
      </trkpt>
      <trkpt lat="48.69332" lon="1.9637">
        <ele>98.4</ele>
        <time>2026-01-30T08:46:11Z</time>
      </trkpt>
      <trkpt lat="48.69334" lon="1.96365">
        <ele>98.4</ele>
        <time>2026-01-30T08:46:12Z</time>
      </trkpt>
      <trkpt lat="48.69335" lon="1.9636">
        <ele>98.4</ele>
        <time>2026-01-30T08:46:13Z</time>
      </trkpt>
      <trkpt lat="48.69336" lon="1.96356">
        <ele>98.4</ele>
        <time>2026-01-30T08:46:14Z</time>
      </trkpt>
      <trkpt lat="48.69337" lon="1.96351">
        <ele>99</ele>
        <time>2026-01-30T08:46:15Z</time>
      </trkpt>
      <trkpt lat="48.69337" lon="1.96346">
        <ele>99</ele>
        <time>2026-01-30T08:46:16Z</time>
      </trkpt>
      <trkpt lat="48.69338" lon="1.96342">
        <ele>99</ele>
        <time>2026-01-30T08:46:17Z</time>
      </trkpt>
      <trkpt lat="48.69338" lon="1.96338">
        <ele>99</ele>
        <time>2026-01-30T08:46:18Z</time>
      </trkpt>
      <trkpt lat="48.69339" lon="1.96334">
        <ele>99.8</ele>
        <time>2026-01-30T08:46:19Z</time>
      </trkpt>
      <trkpt lat="48.6934" lon="1.96329">
        <ele>100</ele>
        <time>2026-01-30T08:46:20Z</time>
      </trkpt>
      <trkpt lat="48.69341" lon="1.96325">
        <ele>100</ele>
        <time>2026-01-30T08:46:21Z</time>
      </trkpt>
      <trkpt lat="48.69341" lon="1.9632">
        <ele>100</ele>
        <time>2026-01-30T08:46:22Z</time>
      </trkpt>
      <trkpt lat="48.69342" lon="1.96316">
        <ele>100.8</ele>
        <time>2026-01-30T08:46:23Z</time>
      </trkpt>
      <trkpt lat="48.69342" lon="1.96311">
        <ele>100.8</ele>
        <time>2026-01-30T08:46:24Z</time>
      </trkpt>
      <trkpt lat="48.69342" lon="1.96307">
        <ele>100.8</ele>
        <time>2026-01-30T08:46:25Z</time>
      </trkpt>
      <trkpt lat="48.69343" lon="1.96303">
        <ele>100.8</ele>
        <time>2026-01-30T08:46:26Z</time>
      </trkpt>
      <trkpt lat="48.69343" lon="1.96299">
        <ele>101.6</ele>
        <time>2026-01-30T08:46:27Z</time>
      </trkpt>
      <trkpt lat="48.69343" lon="1.96294">
        <ele>101.4</ele>
        <time>2026-01-30T08:46:28Z</time>
      </trkpt>
      <trkpt lat="48.69343" lon="1.96289">
        <ele>101.4</ele>
        <time>2026-01-30T08:46:29Z</time>
      </trkpt>
      <trkpt lat="48.69343" lon="1.96286">
        <ele>101.4</ele>
        <time>2026-01-30T08:46:30Z</time>
      </trkpt>
      <trkpt lat="48.69343" lon="1.96282">
        <ele>102.2</ele>
        <time>2026-01-30T08:46:31Z</time>
      </trkpt>
      <trkpt lat="48.69343" lon="1.96281">
        <ele>102.2</ele>
        <time>2026-01-30T08:46:32Z</time>
      </trkpt>
      <trkpt lat="48.69342" lon="1.96277">
        <ele>102.2</ele>
        <time>2026-01-30T08:46:33Z</time>
      </trkpt>
      <trkpt lat="48.69341" lon="1.96272">
        <ele>102.2</ele>
        <time>2026-01-30T08:46:34Z</time>
      </trkpt>
      <trkpt lat="48.69341" lon="1.96269">
        <ele>102.4</ele>
        <time>2026-01-30T08:46:35Z</time>
      </trkpt>
      <trkpt lat="48.6934" lon="1.96263">
        <ele>102.2</ele>
        <time>2026-01-30T08:46:36Z</time>
      </trkpt>
      <trkpt lat="48.69338" lon="1.96258">
        <ele>102.2</ele>
        <time>2026-01-30T08:46:37Z</time>
      </trkpt>
      <trkpt lat="48.69337" lon="1.96252">
        <ele>102.2</ele>
        <time>2026-01-30T08:46:38Z</time>
      </trkpt>
      <trkpt lat="48.69336" lon="1.96248">
        <ele>103.2</ele>
        <time>2026-01-30T08:46:39Z</time>
      </trkpt>
      <trkpt lat="48.69335" lon="1.96243">
        <ele>103.8</ele>
        <time>2026-01-30T08:46:40Z</time>
      </trkpt>
      <trkpt lat="48.69333" lon="1.96238">
        <ele>103.8</ele>
        <time>2026-01-30T08:46:41Z</time>
      </trkpt>
      <trkpt lat="48.69332" lon="1.96233">
        <ele>103.8</ele>
        <time>2026-01-30T08:46:42Z</time>
      </trkpt>
      <trkpt lat="48.69331" lon="1.96229">
        <ele>104.4</ele>
        <time>2026-01-30T08:46:43Z</time>
      </trkpt>
      <trkpt lat="48.6933" lon="1.96225">
        <ele>105</ele>
        <time>2026-01-30T08:46:44Z</time>
      </trkpt>
      <trkpt lat="48.69329" lon="1.96221">
        <ele>105</ele>
        <time>2026-01-30T08:46:45Z</time>
      </trkpt>
      <trkpt lat="48.69328" lon="1.96218">
        <ele>105</ele>
        <time>2026-01-30T08:46:46Z</time>
      </trkpt>
      <trkpt lat="48.69327" lon="1.96214">
        <ele>105</ele>
        <time>2026-01-30T08:46:47Z</time>
      </trkpt>
      <trkpt lat="48.69327" lon="1.96211">
        <ele>105.6</ele>
        <time>2026-01-30T08:46:48Z</time>
      </trkpt>
      <trkpt lat="48.69326" lon="1.96207">
        <ele>105.6</ele>
        <time>2026-01-30T08:46:49Z</time>
      </trkpt>
      <trkpt lat="48.69324" lon="1.96202">
        <ele>105.6</ele>
        <time>2026-01-30T08:46:50Z</time>
      </trkpt>
      <trkpt lat="48.69323" lon="1.96198">
        <ele>106.6</ele>
        <time>2026-01-30T08:46:51Z</time>
      </trkpt>
      <trkpt lat="48.69321" lon="1.96194">
        <ele>106.6</ele>
        <time>2026-01-30T08:46:52Z</time>
      </trkpt>
      <trkpt lat="48.6932" lon="1.96189">
        <ele>106.6</ele>
        <time>2026-01-30T08:46:53Z</time>
      </trkpt>
      <trkpt lat="48.69318" lon="1.96185">
        <ele>106.6</ele>
        <time>2026-01-30T08:46:54Z</time>
      </trkpt>
      <trkpt lat="48.69317" lon="1.96181">
        <ele>107</ele>
        <time>2026-01-30T08:46:55Z</time>
      </trkpt>
      <trkpt lat="48.69315" lon="1.96177">
        <ele>107.2</ele>
        <time>2026-01-30T08:46:56Z</time>
      </trkpt>
      <trkpt lat="48.69314" lon="1.96174">
        <ele>107.2</ele>
        <time>2026-01-30T08:46:57Z</time>
      </trkpt>
      <trkpt lat="48.69312" lon="1.9617">
        <ele>107.2</ele>
        <time>2026-01-30T08:46:58Z</time>
      </trkpt>
      <trkpt lat="48.6931" lon="1.96166">
        <ele>107.2</ele>
        <time>2026-01-30T08:46:59Z</time>
      </trkpt>
      <trkpt lat="48.69308" lon="1.96163">
        <ele>107.6</ele>
        <time>2026-01-30T08:47:00Z</time>
      </trkpt>
      <trkpt lat="48.69306" lon="1.96159">
        <ele>107.6</ele>
        <time>2026-01-30T08:47:01Z</time>
      </trkpt>
      <trkpt lat="48.69304" lon="1.96155">
        <ele>107.6</ele>
        <time>2026-01-30T08:47:02Z</time>
      </trkpt>
      <trkpt lat="48.69303" lon="1.96151">
        <ele>107.6</ele>
        <time>2026-01-30T08:47:03Z</time>
      </trkpt>
      <trkpt lat="48.69301" lon="1.96147">
        <ele>108.4</ele>
        <time>2026-01-30T08:47:04Z</time>
      </trkpt>
      <trkpt lat="48.69299" lon="1.96143">
        <ele>108.4</ele>
        <time>2026-01-30T08:47:05Z</time>
      </trkpt>
      <trkpt lat="48.69296" lon="1.9614">
        <ele>108.4</ele>
        <time>2026-01-30T08:47:06Z</time>
      </trkpt>
      <trkpt lat="48.69295" lon="1.96136">
        <ele>108.4</ele>
        <time>2026-01-30T08:47:07Z</time>
      </trkpt>
      <trkpt lat="48.69292" lon="1.96133">
        <ele>109</ele>
        <time>2026-01-30T08:47:08Z</time>
      </trkpt>
      <trkpt lat="48.6929" lon="1.9613">
        <ele>109</ele>
        <time>2026-01-30T08:47:09Z</time>
      </trkpt>
      <trkpt lat="48.69288" lon="1.96126">
        <ele>109</ele>
        <time>2026-01-30T08:47:10Z</time>
      </trkpt>
      <trkpt lat="48.69287" lon="1.96123">
        <ele>109</ele>
        <time>2026-01-30T08:47:11Z</time>
      </trkpt>
      <trkpt lat="48.69285" lon="1.96119">
        <ele>109.2</ele>
        <time>2026-01-30T08:47:12Z</time>
      </trkpt>
      <trkpt lat="48.69283" lon="1.96115">
        <ele>109.2</ele>
        <time>2026-01-30T08:47:13Z</time>
      </trkpt>
      <trkpt lat="48.69281" lon="1.96112">
        <ele>109.2</ele>
        <time>2026-01-30T08:47:14Z</time>
      </trkpt>
      <trkpt lat="48.69279" lon="1.96108">
        <ele>109.8</ele>
        <time>2026-01-30T08:47:15Z</time>
      </trkpt>
      <trkpt lat="48.69277" lon="1.96104">
        <ele>109.8</ele>
        <time>2026-01-30T08:47:16Z</time>
      </trkpt>
      <trkpt lat="48.69275" lon="1.96101">
        <ele>109.8</ele>
        <time>2026-01-30T08:47:17Z</time>
      </trkpt>
      <trkpt lat="48.69273" lon="1.96096">
        <ele>109.8</ele>
        <time>2026-01-30T08:47:18Z</time>
      </trkpt>
      <trkpt lat="48.69271" lon="1.96093">
        <ele>110.8</ele>
        <time>2026-01-30T08:47:19Z</time>
      </trkpt>
      <trkpt lat="48.6927" lon="1.96089">
        <ele>110.6</ele>
        <time>2026-01-30T08:47:20Z</time>
      </trkpt>
      <trkpt lat="48.69268" lon="1.96086">
        <ele>110.6</ele>
        <time>2026-01-30T08:47:21Z</time>
      </trkpt>
      <trkpt lat="48.69266" lon="1.96082">
        <ele>110.6</ele>
        <time>2026-01-30T08:47:22Z</time>
      </trkpt>
      <trkpt lat="48.69265" lon="1.96078">
        <ele>110.6</ele>
        <time>2026-01-30T08:47:23Z</time>
      </trkpt>
      <trkpt lat="48.69263" lon="1.96075">
        <ele>111.2</ele>
        <time>2026-01-30T08:47:24Z</time>
      </trkpt>
      <trkpt lat="48.69261" lon="1.96071">
        <ele>111.2</ele>
        <time>2026-01-30T08:47:25Z</time>
      </trkpt>
      <trkpt lat="48.69259" lon="1.96067">
        <ele>111.2</ele>
        <time>2026-01-30T08:47:26Z</time>
      </trkpt>
      <trkpt lat="48.69257" lon="1.96063">
        <ele>111.2</ele>
        <time>2026-01-30T08:47:27Z</time>
      </trkpt>
      <trkpt lat="48.69255" lon="1.96059">
        <ele>111.6</ele>
        <time>2026-01-30T08:47:28Z</time>
      </trkpt>
      <trkpt lat="48.69254" lon="1.96055">
        <ele>111.6</ele>
        <time>2026-01-30T08:47:29Z</time>
      </trkpt>
      <trkpt lat="48.69252" lon="1.9605">
        <ele>111.6</ele>
        <time>2026-01-30T08:47:30Z</time>
      </trkpt>
      <trkpt lat="48.6925" lon="1.96046">
        <ele>111.8</ele>
        <time>2026-01-30T08:47:31Z</time>
      </trkpt>
      <trkpt lat="48.69249" lon="1.96041">
        <ele>111.8</ele>
        <time>2026-01-30T08:47:32Z</time>
      </trkpt>
      <trkpt lat="48.69248" lon="1.96037">
        <ele>111.8</ele>
        <time>2026-01-30T08:47:33Z</time>
      </trkpt>
      <trkpt lat="48.69246" lon="1.96033">
        <ele>111.8</ele>
        <time>2026-01-30T08:47:34Z</time>
      </trkpt>
      <trkpt lat="48.69244" lon="1.96028">
        <ele>111.8</ele>
        <time>2026-01-30T08:47:35Z</time>
      </trkpt>
      <trkpt lat="48.69243" lon="1.96025">
        <ele>112.4</ele>
        <time>2026-01-30T08:47:36Z</time>
      </trkpt>
      <trkpt lat="48.69242" lon="1.96021">
        <ele>112.4</ele>
        <time>2026-01-30T08:47:37Z</time>
      </trkpt>
      <trkpt lat="48.69241" lon="1.96017">
        <ele>112.4</ele>
        <time>2026-01-30T08:47:38Z</time>
      </trkpt>
      <trkpt lat="48.69239" lon="1.96013">
        <ele>113</ele>
        <time>2026-01-30T08:47:39Z</time>
      </trkpt>
      <trkpt lat="48.69238" lon="1.96009">
        <ele>113</ele>
        <time>2026-01-30T08:47:40Z</time>
      </trkpt>
      <trkpt lat="48.69237" lon="1.96004">
        <ele>113</ele>
        <time>2026-01-30T08:47:41Z</time>
      </trkpt>
      <trkpt lat="48.69237" lon="1.95999">
        <ele>113</ele>
        <time>2026-01-30T08:47:42Z</time>
      </trkpt>
      <trkpt lat="48.69235" lon="1.95994">
        <ele>113</ele>
        <time>2026-01-30T08:47:43Z</time>
      </trkpt>
      <trkpt lat="48.69233" lon="1.95989">
        <ele>114</ele>
        <time>2026-01-30T08:47:44Z</time>
      </trkpt>
      <trkpt lat="48.69232" lon="1.95984">
        <ele>114</ele>
        <time>2026-01-30T08:47:45Z</time>
      </trkpt>
      <trkpt lat="48.69231" lon="1.95979">
        <ele>114</ele>
        <time>2026-01-30T08:47:46Z</time>
      </trkpt>
      <trkpt lat="48.6923" lon="1.95974">
        <ele>114.8</ele>
        <time>2026-01-30T08:47:47Z</time>
      </trkpt>
      <trkpt lat="48.6923" lon="1.95969">
        <ele>115</ele>
        <time>2026-01-30T08:47:48Z</time>
      </trkpt>
      <trkpt lat="48.6923" lon="1.95964">
        <ele>115</ele>
        <time>2026-01-30T08:47:49Z</time>
      </trkpt>
      <trkpt lat="48.69229" lon="1.95958">
        <ele>115</ele>
        <time>2026-01-30T08:47:50Z</time>
      </trkpt>
      <trkpt lat="48.69229" lon="1.95953">
        <ele>115</ele>
        <time>2026-01-30T08:47:51Z</time>
      </trkpt>
      <trkpt lat="48.69229" lon="1.95948">
        <ele>115.4</ele>
        <time>2026-01-30T08:47:52Z</time>
      </trkpt>
      <trkpt lat="48.69229" lon="1.95944">
        <ele>115.4</ele>
        <time>2026-01-30T08:47:53Z</time>
      </trkpt>
      <trkpt lat="48.69229" lon="1.95939">
        <ele>115.4</ele>
        <time>2026-01-30T08:47:54Z</time>
      </trkpt>
      <trkpt lat="48.69229" lon="1.95934">
        <ele>115.4</ele>
        <time>2026-01-30T08:47:55Z</time>
      </trkpt>
      <trkpt lat="48.69229" lon="1.95929">
        <ele>116.2</ele>
        <time>2026-01-30T08:47:56Z</time>
      </trkpt>
      <trkpt lat="48.69229" lon="1.95924">
        <ele>116.2</ele>
        <time>2026-01-30T08:47:57Z</time>
      </trkpt>
      <trkpt lat="48.69229" lon="1.9592">
        <ele>116.2</ele>
        <time>2026-01-30T08:47:58Z</time>
      </trkpt>
      <trkpt lat="48.6923" lon="1.95916">
        <ele>116.2</ele>
        <time>2026-01-30T08:47:59Z</time>
      </trkpt>
      <trkpt lat="48.6923" lon="1.95911">
        <ele>116.6</ele>
        <time>2026-01-30T08:48:00Z</time>
      </trkpt>
      <trkpt lat="48.69231" lon="1.95906">
        <ele>116.6</ele>
        <time>2026-01-30T08:48:01Z</time>
      </trkpt>
      <trkpt lat="48.69231" lon="1.95901">
        <ele>116.6</ele>
        <time>2026-01-30T08:48:02Z</time>
      </trkpt>
      <trkpt lat="48.69232" lon="1.95896">
        <ele>116.6</ele>
        <time>2026-01-30T08:48:03Z</time>
      </trkpt>
      <trkpt lat="48.69233" lon="1.95891">
        <ele>116.6</ele>
        <time>2026-01-30T08:48:04Z</time>
      </trkpt>
      <trkpt lat="48.69234" lon="1.95886">
        <ele>116.6</ele>
        <time>2026-01-30T08:48:05Z</time>
      </trkpt>
      <trkpt lat="48.69234" lon="1.9588">
        <ele>116.6</ele>
        <time>2026-01-30T08:48:06Z</time>
      </trkpt>
      <trkpt lat="48.69235" lon="1.95875">
        <ele>116.6</ele>
        <time>2026-01-30T08:48:07Z</time>
      </trkpt>
      <trkpt lat="48.69236" lon="1.9587">
        <ele>116.6</ele>
        <time>2026-01-30T08:48:08Z</time>
      </trkpt>
      <trkpt lat="48.69237" lon="1.95864">
        <ele>116.6</ele>
        <time>2026-01-30T08:48:09Z</time>
      </trkpt>
      <trkpt lat="48.69238" lon="1.95859">
        <ele>116.6</ele>
        <time>2026-01-30T08:48:10Z</time>
      </trkpt>
      <trkpt lat="48.69239" lon="1.95855">
        <ele>117.6</ele>
        <time>2026-01-30T08:48:11Z</time>
      </trkpt>
      <trkpt lat="48.6924" lon="1.95849">
        <ele>118</ele>
        <time>2026-01-30T08:48:12Z</time>
      </trkpt>
      <trkpt lat="48.69241" lon="1.95843">
        <ele>118</ele>
        <time>2026-01-30T08:48:13Z</time>
      </trkpt>
      <trkpt lat="48.69242" lon="1.95838">
        <ele>118</ele>
        <time>2026-01-30T08:48:14Z</time>
      </trkpt>
      <trkpt lat="48.69242" lon="1.95831">
        <ele>117.8</ele>
        <time>2026-01-30T08:48:15Z</time>
      </trkpt>
      <trkpt lat="48.69243" lon="1.95826">
        <ele>117.4</ele>
        <time>2026-01-30T08:48:16Z</time>
      </trkpt>
      <trkpt lat="48.69244" lon="1.9582">
        <ele>117.4</ele>
        <time>2026-01-30T08:48:17Z</time>
      </trkpt>
      <trkpt lat="48.69245" lon="1.95813">
        <ele>117.4</ele>
        <time>2026-01-30T08:48:18Z</time>
      </trkpt>
      <trkpt lat="48.69246" lon="1.95806">
        <ele>117.6</ele>
        <time>2026-01-30T08:48:19Z</time>
      </trkpt>
      <trkpt lat="48.69247" lon="1.958">
        <ele>118</ele>
        <time>2026-01-30T08:48:20Z</time>
      </trkpt>
      <trkpt lat="48.69248" lon="1.95794">
        <ele>118</ele>
        <time>2026-01-30T08:48:21Z</time>
      </trkpt>
      <trkpt lat="48.69249" lon="1.95788">
        <ele>118</ele>
        <time>2026-01-30T08:48:22Z</time>
      </trkpt>
      <trkpt lat="48.6925" lon="1.95782">
        <ele>118</ele>
        <time>2026-01-30T08:48:23Z</time>
      </trkpt>
      <trkpt lat="48.69251" lon="1.95778">
        <ele>118.6</ele>
        <time>2026-01-30T08:48:24Z</time>
      </trkpt>
      <trkpt lat="48.69252" lon="1.95771">
        <ele>118.6</ele>
        <time>2026-01-30T08:48:25Z</time>
      </trkpt>
      <trkpt lat="48.69252" lon="1.95765">
        <ele>118.6</ele>
        <time>2026-01-30T08:48:26Z</time>
      </trkpt>
      <trkpt lat="48.69253" lon="1.95759">
        <ele>118.6</ele>
        <time>2026-01-30T08:48:27Z</time>
      </trkpt>
      <trkpt lat="48.69254" lon="1.95753">
        <ele>118</ele>
        <time>2026-01-30T08:48:28Z</time>
      </trkpt>
      <trkpt lat="48.69255" lon="1.95747">
        <ele>118</ele>
        <time>2026-01-30T08:48:29Z</time>
      </trkpt>
      <trkpt lat="48.69257" lon="1.95742">
        <ele>118</ele>
        <time>2026-01-30T08:48:30Z</time>
      </trkpt>
      <trkpt lat="48.69258" lon="1.95735">
        <ele>118</ele>
        <time>2026-01-30T08:48:31Z</time>
      </trkpt>
      <trkpt lat="48.69259" lon="1.95729">
        <ele>118</ele>
        <time>2026-01-30T08:48:32Z</time>
      </trkpt>
      <trkpt lat="48.6926" lon="1.95722">
        <ele>118</ele>
        <time>2026-01-30T08:48:33Z</time>
      </trkpt>
      <trkpt lat="48.6926" lon="1.95715">
        <ele>118</ele>
        <time>2026-01-30T08:48:34Z</time>
      </trkpt>
      <trkpt lat="48.69261" lon="1.9571">
        <ele>118</ele>
        <time>2026-01-30T08:48:35Z</time>
      </trkpt>
      <trkpt lat="48.69262" lon="1.95704">
        <ele>118.2</ele>
        <time>2026-01-30T08:48:36Z</time>
      </trkpt>
      <trkpt lat="48.69264" lon="1.95697">
        <ele>118.2</ele>
        <time>2026-01-30T08:48:37Z</time>
      </trkpt>
      <trkpt lat="48.69265" lon="1.95689">
        <ele>118.2</ele>
        <time>2026-01-30T08:48:38Z</time>
      </trkpt>
      <trkpt lat="48.69266" lon="1.95681">
        <ele>118.8</ele>
        <time>2026-01-30T08:48:39Z</time>
      </trkpt>
      <trkpt lat="48.69266" lon="1.95673">
        <ele>118.2</ele>
        <time>2026-01-30T08:48:40Z</time>
      </trkpt>
      <trkpt lat="48.69266" lon="1.95665">
        <ele>118.2</ele>
        <time>2026-01-30T08:48:41Z</time>
      </trkpt>
      <trkpt lat="48.69267" lon="1.95657">
        <ele>118.2</ele>
        <time>2026-01-30T08:48:42Z</time>
      </trkpt>
      <trkpt lat="48.69268" lon="1.95651">
        <ele>118.2</ele>
        <time>2026-01-30T08:48:43Z</time>
      </trkpt>
      <trkpt lat="48.69269" lon="1.95642">
        <ele>118.6</ele>
        <time>2026-01-30T08:48:44Z</time>
      </trkpt>
      <trkpt lat="48.69269" lon="1.95634">
        <ele>118.6</ele>
        <time>2026-01-30T08:48:45Z</time>
      </trkpt>
      <trkpt lat="48.6927" lon="1.95626">
        <ele>118.6</ele>
        <time>2026-01-30T08:48:46Z</time>
      </trkpt>
      <trkpt lat="48.69271" lon="1.95618">
        <ele>118.6</ele>
        <time>2026-01-30T08:48:47Z</time>
      </trkpt>
      <trkpt lat="48.69272" lon="1.95611">
        <ele>119.4</ele>
        <time>2026-01-30T08:48:48Z</time>
      </trkpt>
      <trkpt lat="48.69273" lon="1.95603">
        <ele>119.4</ele>
        <time>2026-01-30T08:48:49Z</time>
      </trkpt>
      <trkpt lat="48.69274" lon="1.95595">
        <ele>119.4</ele>
        <time>2026-01-30T08:48:50Z</time>
      </trkpt>
      <trkpt lat="48.69275" lon="1.95587">
        <ele>119.4</ele>
        <time>2026-01-30T08:48:51Z</time>
      </trkpt>
      <trkpt lat="48.69276" lon="1.9558">
        <ele>119.6</ele>
        <time>2026-01-30T08:48:52Z</time>
      </trkpt>
      <trkpt lat="48.69276" lon="1.95569">
        <ele>119.6</ele>
        <time>2026-01-30T08:48:53Z</time>
      </trkpt>
      <trkpt lat="48.69277" lon="1.95562">
        <ele>119.6</ele>
        <time>2026-01-30T08:48:54Z</time>
      </trkpt>
      <trkpt lat="48.69278" lon="1.95555">
        <ele>119.6</ele>
        <time>2026-01-30T08:48:55Z</time>
      </trkpt>
      <trkpt lat="48.6928" lon="1.95547">
        <ele>119.4</ele>
        <time>2026-01-30T08:48:56Z</time>
      </trkpt>
      <trkpt lat="48.6928" lon="1.95538">
        <ele>119.4</ele>
        <time>2026-01-30T08:48:57Z</time>
      </trkpt>
      <trkpt lat="48.69282" lon="1.95531">
        <ele>119.4</ele>
        <time>2026-01-30T08:48:58Z</time>
      </trkpt>
      <trkpt lat="48.69283" lon="1.95524">
        <ele>119.4</ele>
        <time>2026-01-30T08:48:59Z</time>
      </trkpt>
      <trkpt lat="48.69285" lon="1.95517">
        <ele>119.8</ele>
        <time>2026-01-30T08:49:00Z</time>
      </trkpt>
      <trkpt lat="48.69286" lon="1.95511">
        <ele>119.8</ele>
        <time>2026-01-30T08:49:01Z</time>
      </trkpt>
      <trkpt lat="48.69287" lon="1.95503">
        <ele>119.8</ele>
        <time>2026-01-30T08:49:02Z</time>
      </trkpt>
      <trkpt lat="48.69288" lon="1.95497">
        <ele>119.4</ele>
        <time>2026-01-30T08:49:03Z</time>
      </trkpt>
      <trkpt lat="48.69289" lon="1.95489">
        <ele>119.8</ele>
        <time>2026-01-30T08:49:04Z</time>
      </trkpt>
      <trkpt lat="48.6929" lon="1.95479">
        <ele>119.8</ele>
        <time>2026-01-30T08:49:05Z</time>
      </trkpt>
      <trkpt lat="48.69291" lon="1.95471">
        <ele>119.8</ele>
        <time>2026-01-30T08:49:06Z</time>
      </trkpt>
      <trkpt lat="48.69291" lon="1.95462">
        <ele>120.4</ele>
        <time>2026-01-30T08:49:07Z</time>
      </trkpt>
      <trkpt lat="48.69292" lon="1.95453">
        <ele>120.2</ele>
        <time>2026-01-30T08:49:08Z</time>
      </trkpt>
      <trkpt lat="48.69292" lon="1.95444">
        <ele>120.2</ele>
        <time>2026-01-30T08:49:09Z</time>
      </trkpt>
      <trkpt lat="48.69293" lon="1.95436">
        <ele>120.2</ele>
        <time>2026-01-30T08:49:10Z</time>
      </trkpt>
      <trkpt lat="48.69293" lon="1.95427">
        <ele>121</ele>
        <time>2026-01-30T08:49:11Z</time>
      </trkpt>
      <trkpt lat="48.69294" lon="1.95421">
        <ele>121.6</ele>
        <time>2026-01-30T08:49:12Z</time>
      </trkpt>
      <trkpt lat="48.69295" lon="1.95417">
        <ele>121.6</ele>
        <time>2026-01-30T08:49:13Z</time>
      </trkpt>
      <trkpt lat="48.69296" lon="1.95414">
        <ele>121.6</ele>
        <time>2026-01-30T08:49:14Z</time>
      </trkpt>
      <trkpt lat="48.69296" lon="1.95412">
        <ele>121.4</ele>
        <time>2026-01-30T08:49:15Z</time>
      </trkpt>
      <trkpt lat="48.69296" lon="1.95412">
        <ele>121.4</ele>
        <time>2026-01-30T08:49:16Z</time>
      </trkpt>
      <trkpt lat="48.69296" lon="1.95409">
        <ele>121.4</ele>
        <time>2026-01-30T08:49:17Z</time>
      </trkpt>
      <trkpt lat="48.69296" lon="1.95407">
        <ele>121.4</ele>
        <time>2026-01-30T08:49:18Z</time>
      </trkpt>
      <trkpt lat="48.69296" lon="1.95407">
        <ele>121.4</ele>
        <time>2026-01-30T08:49:19Z</time>
      </trkpt>
      <trkpt lat="48.693" lon="1.95376">
        <ele>121.4</ele>
        <time>2026-01-30T08:52:17Z</time>
      </trkpt>
      <trkpt lat="48.693" lon="1.95372">
        <ele>121.4</ele>
        <time>2026-01-30T08:52:18Z</time>
      </trkpt>
      <trkpt lat="48.69301" lon="1.95368">
        <ele>121.4</ele>
        <time>2026-01-30T08:52:19Z</time>
      </trkpt>
      <trkpt lat="48.69301" lon="1.95364">
        <ele>121</ele>
        <time>2026-01-30T08:52:20Z</time>
      </trkpt>
      <trkpt lat="48.69302" lon="1.95359">
        <ele>121</ele>
        <time>2026-01-30T08:52:21Z</time>
      </trkpt>
      <trkpt lat="48.69303" lon="1.95352">
        <ele>121</ele>
        <time>2026-01-30T08:52:22Z</time>
      </trkpt>
      <trkpt lat="48.69303" lon="1.95346">
        <ele>121</ele>
        <time>2026-01-30T08:52:23Z</time>
      </trkpt>
      <trkpt lat="48.69304" lon="1.9534">
        <ele>121</ele>
        <time>2026-01-30T08:52:24Z</time>
      </trkpt>
      <trkpt lat="48.69305" lon="1.95333">
        <ele>121</ele>
        <time>2026-01-30T08:52:25Z</time>
      </trkpt>
      <trkpt lat="48.69306" lon="1.95326">
        <ele>121</ele>
        <time>2026-01-30T08:52:26Z</time>
      </trkpt>
      <trkpt lat="48.69307" lon="1.95318">
        <ele>121</ele>
        <time>2026-01-30T08:52:27Z</time>
      </trkpt>
      <trkpt lat="48.69308" lon="1.95311">
        <ele>120.4</ele>
        <time>2026-01-30T08:52:28Z</time>
      </trkpt>
      <trkpt lat="48.69309" lon="1.95303">
        <ele>120.4</ele>
        <time>2026-01-30T08:52:29Z</time>
      </trkpt>
      <trkpt lat="48.6931" lon="1.95296">
        <ele>120.4</ele>
        <time>2026-01-30T08:52:30Z</time>
      </trkpt>
      <trkpt lat="48.69312" lon="1.95288">
        <ele>120.4</ele>
        <time>2026-01-30T08:52:31Z</time>
      </trkpt>
      <trkpt lat="48.69313" lon="1.9528">
        <ele>120.2</ele>
        <time>2026-01-30T08:52:32Z</time>
      </trkpt>
      <trkpt lat="48.69315" lon="1.95273">
        <ele>120.2</ele>
        <time>2026-01-30T08:52:33Z</time>
      </trkpt>
      <trkpt lat="48.69316" lon="1.95265">
        <ele>120.2</ele>
        <time>2026-01-30T08:52:34Z</time>
      </trkpt>
      <trkpt lat="48.69318" lon="1.95257">
        <ele>121</ele>
        <time>2026-01-30T08:52:35Z</time>
      </trkpt>
      <trkpt lat="48.69319" lon="1.95249">
        <ele>121.2</ele>
        <time>2026-01-30T08:52:36Z</time>
      </trkpt>
      <trkpt lat="48.69321" lon="1.95241">
        <ele>121.2</ele>
        <time>2026-01-30T08:52:37Z</time>
      </trkpt>
      <trkpt lat="48.69323" lon="1.95233">
        <ele>121.2</ele>
        <time>2026-01-30T08:52:38Z</time>
      </trkpt>
      <trkpt lat="48.69324" lon="1.95225">
        <ele>121.2</ele>
        <time>2026-01-30T08:52:39Z</time>
      </trkpt>
      <trkpt lat="48.69326" lon="1.95217">
        <ele>120.8</ele>
        <time>2026-01-30T08:52:40Z</time>
      </trkpt>
      <trkpt lat="48.69328" lon="1.95209">
        <ele>120.8</ele>
        <time>2026-01-30T08:52:41Z</time>
      </trkpt>
      <trkpt lat="48.69329" lon="1.95201">
        <ele>120.8</ele>
        <time>2026-01-30T08:52:42Z</time>
      </trkpt>
      <trkpt lat="48.69331" lon="1.95193">
        <ele>120.8</ele>
        <time>2026-01-30T08:52:43Z</time>
      </trkpt>
      <trkpt lat="48.69333" lon="1.95185">
        <ele>121</ele>
        <time>2026-01-30T08:52:44Z</time>
      </trkpt>
      <trkpt lat="48.69335" lon="1.95177">
        <ele>121</ele>
        <time>2026-01-30T08:52:45Z</time>
      </trkpt>
      <trkpt lat="48.69337" lon="1.95169">
        <ele>121</ele>
        <time>2026-01-30T08:52:46Z</time>
      </trkpt>
      <trkpt lat="48.69339" lon="1.9516">
        <ele>121</ele>
        <time>2026-01-30T08:52:47Z</time>
      </trkpt>
      <trkpt lat="48.6934" lon="1.95152">
        <ele>121.6</ele>
        <time>2026-01-30T08:52:48Z</time>
      </trkpt>
      <trkpt lat="48.69342" lon="1.95144">
        <ele>121.6</ele>
        <time>2026-01-30T08:52:49Z</time>
      </trkpt>
      <trkpt lat="48.69344" lon="1.95136">
        <ele>121.6</ele>
        <time>2026-01-30T08:52:50Z</time>
      </trkpt>
      <trkpt lat="48.69345" lon="1.95127">
        <ele>121.6</ele>
        <time>2026-01-30T08:52:51Z</time>
      </trkpt>
      <trkpt lat="48.69347" lon="1.95119">
        <ele>121.6</ele>
        <time>2026-01-30T08:52:52Z</time>
      </trkpt>
      <trkpt lat="48.69349" lon="1.95111">
        <ele>121.6</ele>
        <time>2026-01-30T08:52:53Z</time>
      </trkpt>
      <trkpt lat="48.69351" lon="1.95102">
        <ele>121.6</ele>
        <time>2026-01-30T08:52:54Z</time>
      </trkpt>
      <trkpt lat="48.69353" lon="1.95094">
        <ele>122</ele>
        <time>2026-01-30T08:52:55Z</time>
      </trkpt>
      <trkpt lat="48.69354" lon="1.95086">
        <ele>122</ele>
        <time>2026-01-30T08:52:56Z</time>
      </trkpt>
      <trkpt lat="48.69356" lon="1.95077">
        <ele>122</ele>
        <time>2026-01-30T08:52:57Z</time>
      </trkpt>
      <trkpt lat="48.69358" lon="1.95069">
        <ele>122</ele>
        <time>2026-01-30T08:52:58Z</time>
      </trkpt>
      <trkpt lat="48.6936" lon="1.9506">
        <ele>121.6</ele>
        <time>2026-01-30T08:52:59Z</time>
      </trkpt>
      <trkpt lat="48.69362" lon="1.95052">
        <ele>121.6</ele>
        <time>2026-01-30T08:53:00Z</time>
      </trkpt>
      <trkpt lat="48.69364" lon="1.95044">
        <ele>121.6</ele>
        <time>2026-01-30T08:53:01Z</time>
      </trkpt>
      <trkpt lat="48.69365" lon="1.95035">
        <ele>121.6</ele>
        <time>2026-01-30T08:53:02Z</time>
      </trkpt>
      <trkpt lat="48.69367" lon="1.95027">
        <ele>121.6</ele>
        <time>2026-01-30T08:53:03Z</time>
      </trkpt>
      <trkpt lat="48.69369" lon="1.95018">
        <ele>121.6</ele>
        <time>2026-01-30T08:53:04Z</time>
      </trkpt>
      <trkpt lat="48.69371" lon="1.9501">
        <ele>121.6</ele>
        <time>2026-01-30T08:53:05Z</time>
      </trkpt>
      <trkpt lat="48.69373" lon="1.95001">
        <ele>121.6</ele>
        <time>2026-01-30T08:53:06Z</time>
      </trkpt>
      <trkpt lat="48.69375" lon="1.94993">
        <ele>122.2</ele>
        <time>2026-01-30T08:53:07Z</time>
      </trkpt>
      <trkpt lat="48.69377" lon="1.94985">
        <ele>121.8</ele>
        <time>2026-01-30T08:53:08Z</time>
      </trkpt>
      <trkpt lat="48.69379" lon="1.94976">
        <ele>121.8</ele>
        <time>2026-01-30T08:53:09Z</time>
      </trkpt>
      <trkpt lat="48.6938" lon="1.94967">
        <ele>121.8</ele>
        <time>2026-01-30T08:53:10Z</time>
      </trkpt>
      <trkpt lat="48.69382" lon="1.94959">
        <ele>121.8</ele>
        <time>2026-01-30T08:53:11Z</time>
      </trkpt>
      <trkpt lat="48.69384" lon="1.9495">
        <ele>121.8</ele>
        <time>2026-01-30T08:53:12Z</time>
      </trkpt>
      <trkpt lat="48.69386" lon="1.94942">
        <ele>121.8</ele>
        <time>2026-01-30T08:53:13Z</time>
      </trkpt>
      <trkpt lat="48.69388" lon="1.94933">
        <ele>121.8</ele>
        <time>2026-01-30T08:53:14Z</time>
      </trkpt>
      <trkpt lat="48.6939" lon="1.94924">
        <ele>121.8</ele>
        <time>2026-01-30T08:53:15Z</time>
      </trkpt>
      <trkpt lat="48.69391" lon="1.94916">
        <ele>122.2</ele>
        <time>2026-01-30T08:53:16Z</time>
      </trkpt>
      <trkpt lat="48.69393" lon="1.94907">
        <ele>122.2</ele>
        <time>2026-01-30T08:53:17Z</time>
      </trkpt>
      <trkpt lat="48.69395" lon="1.94898">
        <ele>122.2</ele>
        <time>2026-01-30T08:53:18Z</time>
      </trkpt>
      <trkpt lat="48.69397" lon="1.9489">
        <ele>121.8</ele>
        <time>2026-01-30T08:53:19Z</time>
      </trkpt>
      <trkpt lat="48.69399" lon="1.94881">
        <ele>121.2</ele>
        <time>2026-01-30T08:53:20Z</time>
      </trkpt>
      <trkpt lat="48.69401" lon="1.94872">
        <ele>121.2</ele>
        <time>2026-01-30T08:53:21Z</time>
      </trkpt>
      <trkpt lat="48.69403" lon="1.94864">
        <ele>121.2</ele>
        <time>2026-01-30T08:53:22Z</time>
      </trkpt>
      <trkpt lat="48.69405" lon="1.94855">
        <ele>121.8</ele>
        <time>2026-01-30T08:53:23Z</time>
      </trkpt>
      <trkpt lat="48.69407" lon="1.94846">
        <ele>121.8</ele>
        <time>2026-01-30T08:53:24Z</time>
      </trkpt>
      <trkpt lat="48.69409" lon="1.94838">
        <ele>121.8</ele>
        <time>2026-01-30T08:53:25Z</time>
      </trkpt>
      <trkpt lat="48.69411" lon="1.94829">
        <ele>121.8</ele>
        <time>2026-01-30T08:53:26Z</time>
      </trkpt>
      <trkpt lat="48.69413" lon="1.9482">
        <ele>122</ele>
        <time>2026-01-30T08:53:27Z</time>
      </trkpt>
      <trkpt lat="48.69415" lon="1.94812">
        <ele>122</ele>
        <time>2026-01-30T08:53:28Z</time>
      </trkpt>
      <trkpt lat="48.69417" lon="1.94804">
        <ele>122</ele>
        <time>2026-01-30T08:53:29Z</time>
      </trkpt>
      <trkpt lat="48.69419" lon="1.94795">
        <ele>122</ele>
        <time>2026-01-30T08:53:30Z</time>
      </trkpt>
      <trkpt lat="48.69421" lon="1.94787">
        <ele>122.6</ele>
        <time>2026-01-30T08:53:31Z</time>
      </trkpt>
      <trkpt lat="48.69423" lon="1.94778">
        <ele>122.8</ele>
        <time>2026-01-30T08:53:32Z</time>
      </trkpt>
      <trkpt lat="48.69425" lon="1.9477">
        <ele>122.8</ele>
        <time>2026-01-30T08:53:33Z</time>
      </trkpt>
      <trkpt lat="48.69427" lon="1.94761">
        <ele>122.8</ele>
        <time>2026-01-30T08:53:34Z</time>
      </trkpt>
      <trkpt lat="48.69429" lon="1.94753">
        <ele>122.2</ele>
        <time>2026-01-30T08:53:35Z</time>
      </trkpt>
      <trkpt lat="48.69431" lon="1.94744">
        <ele>122.6</ele>
        <time>2026-01-30T08:53:36Z</time>
      </trkpt>
      <trkpt lat="48.69434" lon="1.94736">
        <ele>122.6</ele>
        <time>2026-01-30T08:53:37Z</time>
      </trkpt>
      <trkpt lat="48.69436" lon="1.94727">
        <ele>122.6</ele>
        <time>2026-01-30T08:53:38Z</time>
      </trkpt>
      <trkpt lat="48.69439" lon="1.94718">
        <ele>122</ele>
        <time>2026-01-30T08:53:39Z</time>
      </trkpt>
      <trkpt lat="48.69441" lon="1.9471">
        <ele>122.6</ele>
        <time>2026-01-30T08:53:40Z</time>
      </trkpt>
      <trkpt lat="48.69444" lon="1.94701">
        <ele>122.6</ele>
        <time>2026-01-30T08:53:41Z</time>
      </trkpt>
      <trkpt lat="48.69446" lon="1.94692">
        <ele>122.6</ele>
        <time>2026-01-30T08:53:42Z</time>
      </trkpt>
      <trkpt lat="48.69449" lon="1.94683">
        <ele>121.8</ele>
        <time>2026-01-30T08:53:43Z</time>
      </trkpt>
      <trkpt lat="48.69451" lon="1.94675">
        <ele>121.8</ele>
        <time>2026-01-30T08:53:44Z</time>
      </trkpt>
      <trkpt lat="48.69453" lon="1.94666">
        <ele>121.8</ele>
        <time>2026-01-30T08:53:45Z</time>
      </trkpt>
      <trkpt lat="48.69456" lon="1.94657">
        <ele>121.8</ele>
        <time>2026-01-30T08:53:46Z</time>
      </trkpt>
      <trkpt lat="48.69458" lon="1.94649">
        <ele>121.8</ele>
        <time>2026-01-30T08:53:47Z</time>
      </trkpt>
      <trkpt lat="48.69461" lon="1.9464">
        <ele>122.4</ele>
        <time>2026-01-30T08:53:48Z</time>
      </trkpt>
      <trkpt lat="48.69463" lon="1.94631">
        <ele>122.4</ele>
        <time>2026-01-30T08:53:49Z</time>
      </trkpt>
      <trkpt lat="48.69465" lon="1.94622">
        <ele>122.4</ele>
        <time>2026-01-30T08:53:50Z</time>
      </trkpt>
      <trkpt lat="48.69467" lon="1.94613">
        <ele>121.8</ele>
        <time>2026-01-30T08:53:51Z</time>
      </trkpt>
      <trkpt lat="48.69469" lon="1.94604">
        <ele>123.6</ele>
        <time>2026-01-30T08:53:52Z</time>
      </trkpt>
      <trkpt lat="48.69472" lon="1.94595">
        <ele>123.6</ele>
        <time>2026-01-30T08:53:53Z</time>
      </trkpt>
      <trkpt lat="48.69474" lon="1.94587">
        <ele>123.6</ele>
        <time>2026-01-30T08:53:54Z</time>
      </trkpt>
      <trkpt lat="48.69476" lon="1.94578">
        <ele>122.6</ele>
        <time>2026-01-30T08:53:55Z</time>
      </trkpt>
      <trkpt lat="48.69477" lon="1.94569">
        <ele>121.2</ele>
        <time>2026-01-30T08:53:56Z</time>
      </trkpt>
      <trkpt lat="48.69479" lon="1.9456">
        <ele>121.2</ele>
        <time>2026-01-30T08:53:57Z</time>
      </trkpt>
      <trkpt lat="48.69481" lon="1.94551">
        <ele>121.2</ele>
        <time>2026-01-30T08:53:58Z</time>
      </trkpt>
      <trkpt lat="48.69482" lon="1.94542">
        <ele>121.2</ele>
        <time>2026-01-30T08:53:59Z</time>
      </trkpt>
      <trkpt lat="48.69484" lon="1.94534">
        <ele>121.6</ele>
        <time>2026-01-30T08:54:00Z</time>
      </trkpt>
      <trkpt lat="48.69486" lon="1.94525">
        <ele>121.6</ele>
        <time>2026-01-30T08:54:01Z</time>
      </trkpt>
      <trkpt lat="48.69487" lon="1.94516">
        <ele>121.6</ele>
        <time>2026-01-30T08:54:02Z</time>
      </trkpt>
      <trkpt lat="48.69488" lon="1.94507">
        <ele>121.6</ele>
        <time>2026-01-30T08:54:03Z</time>
      </trkpt>
      <trkpt lat="48.6949" lon="1.94498">
        <ele>121.8</ele>
        <time>2026-01-30T08:54:04Z</time>
      </trkpt>
      <trkpt lat="48.69491" lon="1.94489">
        <ele>121.8</ele>
        <time>2026-01-30T08:54:05Z</time>
      </trkpt>
      <trkpt lat="48.69493" lon="1.9448">
        <ele>121.8</ele>
        <time>2026-01-30T08:54:06Z</time>
      </trkpt>
      <trkpt lat="48.69494" lon="1.94471">
        <ele>121.6</ele>
        <time>2026-01-30T08:54:07Z</time>
      </trkpt>
      <trkpt lat="48.69495" lon="1.94462">
        <ele>121.6</ele>
        <time>2026-01-30T08:54:08Z</time>
      </trkpt>
      <trkpt lat="48.69497" lon="1.94452">
        <ele>121.6</ele>
        <time>2026-01-30T08:54:09Z</time>
      </trkpt>
      <trkpt lat="48.69498" lon="1.94443">
        <ele>121.6</ele>
        <time>2026-01-30T08:54:10Z</time>
      </trkpt>
      <trkpt lat="48.695" lon="1.94434">
        <ele>121.6</ele>
        <time>2026-01-30T08:54:11Z</time>
      </trkpt>
      <trkpt lat="48.69501" lon="1.94424">
        <ele>121.4</ele>
        <time>2026-01-30T08:54:12Z</time>
      </trkpt>
      <trkpt lat="48.69502" lon="1.94415">
        <ele>121.4</ele>
        <time>2026-01-30T08:54:13Z</time>
      </trkpt>
      <trkpt lat="48.69504" lon="1.94405">
        <ele>121.4</ele>
        <time>2026-01-30T08:54:14Z</time>
      </trkpt>
      <trkpt lat="48.69505" lon="1.94395">
        <ele>121.4</ele>
        <time>2026-01-30T08:54:15Z</time>
      </trkpt>
      <trkpt lat="48.69507" lon="1.94386">
        <ele>120.6</ele>
        <time>2026-01-30T08:54:16Z</time>
      </trkpt>
      <trkpt lat="48.69508" lon="1.94377">
        <ele>120.6</ele>
        <time>2026-01-30T08:54:17Z</time>
      </trkpt>
      <trkpt lat="48.69509" lon="1.94367">
        <ele>120.6</ele>
        <time>2026-01-30T08:54:18Z</time>
      </trkpt>
      <trkpt lat="48.69511" lon="1.94358">
        <ele>120.6</ele>
        <time>2026-01-30T08:54:19Z</time>
      </trkpt>
      <trkpt lat="48.69512" lon="1.94348">
        <ele>120.2</ele>
        <time>2026-01-30T08:54:20Z</time>
      </trkpt>
      <trkpt lat="48.69514" lon="1.94338">
        <ele>120.2</ele>
        <time>2026-01-30T08:54:21Z</time>
      </trkpt>
      <trkpt lat="48.69515" lon="1.94329">
        <ele>120.2</ele>
        <time>2026-01-30T08:54:22Z</time>
      </trkpt>
      <trkpt lat="48.69517" lon="1.94319">
        <ele>120</ele>
        <time>2026-01-30T08:54:23Z</time>
      </trkpt>
      <trkpt lat="48.69518" lon="1.9431">
        <ele>120.2</ele>
        <time>2026-01-30T08:54:24Z</time>
      </trkpt>
      <trkpt lat="48.6952" lon="1.943">
        <ele>120.2</ele>
        <time>2026-01-30T08:54:25Z</time>
      </trkpt>
      <trkpt lat="48.69521" lon="1.94291">
        <ele>120.2</ele>
        <time>2026-01-30T08:54:26Z</time>
      </trkpt>
      <trkpt lat="48.69522" lon="1.94281">
        <ele>120</ele>
        <time>2026-01-30T08:54:27Z</time>
      </trkpt>
      <trkpt lat="48.69524" lon="1.94272">
        <ele>120</ele>
        <time>2026-01-30T08:54:28Z</time>
      </trkpt>
      <trkpt lat="48.69525" lon="1.94263">
        <ele>120</ele>
        <time>2026-01-30T08:54:29Z</time>
      </trkpt>
      <trkpt lat="48.69527" lon="1.94254">
        <ele>120</ele>
        <time>2026-01-30T08:54:30Z</time>
      </trkpt>
      <trkpt lat="48.69528" lon="1.94245">
        <ele>120.8</ele>
        <time>2026-01-30T08:54:31Z</time>
      </trkpt>
      <trkpt lat="48.6953" lon="1.94236">
        <ele>119.4</ele>
        <time>2026-01-30T08:54:32Z</time>
      </trkpt>
      <trkpt lat="48.69531" lon="1.94227">
        <ele>119.4</ele>
        <time>2026-01-30T08:54:33Z</time>
      </trkpt>
      <trkpt lat="48.69533" lon="1.94218">
        <ele>119.4</ele>
        <time>2026-01-30T08:54:34Z</time>
      </trkpt>
      <trkpt lat="48.69534" lon="1.94209">
        <ele>120.2</ele>
        <time>2026-01-30T08:54:35Z</time>
      </trkpt>
      <trkpt lat="48.69535" lon="1.94201">
        <ele>120.6</ele>
        <time>2026-01-30T08:54:36Z</time>
      </trkpt>
      <trkpt lat="48.69537" lon="1.94192">
        <ele>120.6</ele>
        <time>2026-01-30T08:54:37Z</time>
      </trkpt>
      <trkpt lat="48.69538" lon="1.94183">
        <ele>120.6</ele>
        <time>2026-01-30T08:54:38Z</time>
      </trkpt>
      <trkpt lat="48.6954" lon="1.94175">
        <ele>119.8</ele>
        <time>2026-01-30T08:54:39Z</time>
      </trkpt>
      <trkpt lat="48.69541" lon="1.94166">
        <ele>121</ele>
        <time>2026-01-30T08:54:40Z</time>
      </trkpt>
      <trkpt lat="48.69542" lon="1.94157">
        <ele>121</ele>
        <time>2026-01-30T08:54:41Z</time>
      </trkpt>
      <trkpt lat="48.69544" lon="1.94149">
        <ele>121</ele>
        <time>2026-01-30T08:54:42Z</time>
      </trkpt>
      <trkpt lat="48.69545" lon="1.9414">
        <ele>120.4</ele>
        <time>2026-01-30T08:54:43Z</time>
      </trkpt>
      <trkpt lat="48.69547" lon="1.94132">
        <ele>121</ele>
        <time>2026-01-30T08:54:44Z</time>
      </trkpt>
      <trkpt lat="48.69548" lon="1.94123">
        <ele>121</ele>
        <time>2026-01-30T08:54:45Z</time>
      </trkpt>
      <trkpt lat="48.69549" lon="1.94115">
        <ele>121</ele>
        <time>2026-01-30T08:54:46Z</time>
      </trkpt>
      <trkpt lat="48.69551" lon="1.94106">
        <ele>121</ele>
        <time>2026-01-30T08:54:47Z</time>
      </trkpt>
      <trkpt lat="48.69552" lon="1.94098">
        <ele>121</ele>
        <time>2026-01-30T08:54:48Z</time>
      </trkpt>
      <trkpt lat="48.69554" lon="1.94089">
        <ele>121</ele>
        <time>2026-01-30T08:54:49Z</time>
      </trkpt>
      <trkpt lat="48.69555" lon="1.9408">
        <ele>121</ele>
        <time>2026-01-30T08:54:50Z</time>
      </trkpt>
      <trkpt lat="48.69556" lon="1.94072">
        <ele>121</ele>
        <time>2026-01-30T08:54:51Z</time>
      </trkpt>
      <trkpt lat="48.69558" lon="1.94063">
        <ele>120.4</ele>
        <time>2026-01-30T08:54:52Z</time>
      </trkpt>
      <trkpt lat="48.69559" lon="1.94054">
        <ele>120.4</ele>
        <time>2026-01-30T08:54:53Z</time>
      </trkpt>
      <trkpt lat="48.6956" lon="1.94046">
        <ele>120.4</ele>
        <time>2026-01-30T08:54:54Z</time>
      </trkpt>
      <trkpt lat="48.69562" lon="1.94037">
        <ele>121</ele>
        <time>2026-01-30T08:54:55Z</time>
      </trkpt>
      <trkpt lat="48.69563" lon="1.94028">
        <ele>120.6</ele>
        <time>2026-01-30T08:54:56Z</time>
      </trkpt>
      <trkpt lat="48.69565" lon="1.9402">
        <ele>120.6</ele>
        <time>2026-01-30T08:54:57Z</time>
      </trkpt>
      <trkpt lat="48.69566" lon="1.94011">
        <ele>120.6</ele>
        <time>2026-01-30T08:54:58Z</time>
      </trkpt>
      <trkpt lat="48.69567" lon="1.94002">
        <ele>121.2</ele>
        <time>2026-01-30T08:54:59Z</time>
      </trkpt>
      <trkpt lat="48.69569" lon="1.93994">
        <ele>121.4</ele>
        <time>2026-01-30T08:55:00Z</time>
      </trkpt>
      <trkpt lat="48.6957" lon="1.93985">
        <ele>121.4</ele>
        <time>2026-01-30T08:55:01Z</time>
      </trkpt>
      <trkpt lat="48.69571" lon="1.93976">
        <ele>121.4</ele>
        <time>2026-01-30T08:55:02Z</time>
      </trkpt>
      <trkpt lat="48.69571" lon="1.93967">
        <ele>120.4</ele>
        <time>2026-01-30T08:55:03Z</time>
      </trkpt>
      <trkpt lat="48.69572" lon="1.93958">
        <ele>120.4</ele>
        <time>2026-01-30T08:55:04Z</time>
      </trkpt>
      <trkpt lat="48.69573" lon="1.9395">
        <ele>120.4</ele>
        <time>2026-01-30T08:55:05Z</time>
      </trkpt>
      <trkpt lat="48.69574" lon="1.93941">
        <ele>120.4</ele>
        <time>2026-01-30T08:55:06Z</time>
      </trkpt>
      <trkpt lat="48.69574" lon="1.93932">
        <ele>120.4</ele>
        <time>2026-01-30T08:55:07Z</time>
      </trkpt>
      <trkpt lat="48.69575" lon="1.93923">
        <ele>120.4</ele>
        <time>2026-01-30T08:55:08Z</time>
      </trkpt>
      <trkpt lat="48.69575" lon="1.93914">
        <ele>120.4</ele>
        <time>2026-01-30T08:55:09Z</time>
      </trkpt>
      <trkpt lat="48.69575" lon="1.93906">
        <ele>120.4</ele>
        <time>2026-01-30T08:55:10Z</time>
      </trkpt>
      <trkpt lat="48.69576" lon="1.93897">
        <ele>120.4</ele>
        <time>2026-01-30T08:55:11Z</time>
      </trkpt>
      <trkpt lat="48.69576" lon="1.93888">
        <ele>120.2</ele>
        <time>2026-01-30T08:55:12Z</time>
      </trkpt>
      <trkpt lat="48.69576" lon="1.9388">
        <ele>120.2</ele>
        <time>2026-01-30T08:55:13Z</time>
      </trkpt>
      <trkpt lat="48.69577" lon="1.93871">
        <ele>120.2</ele>
        <time>2026-01-30T08:55:14Z</time>
      </trkpt>
      <trkpt lat="48.69577" lon="1.93863">
        <ele>120.2</ele>
        <time>2026-01-30T08:55:15Z</time>
      </trkpt>
      <trkpt lat="48.69577" lon="1.93854">
        <ele>119.8</ele>
        <time>2026-01-30T08:55:16Z</time>
      </trkpt>
      <trkpt lat="48.69578" lon="1.93846">
        <ele>119.8</ele>
        <time>2026-01-30T08:55:17Z</time>
      </trkpt>
      <trkpt lat="48.69578" lon="1.93837">
        <ele>119.8</ele>
        <time>2026-01-30T08:55:18Z</time>
      </trkpt>
      <trkpt lat="48.69578" lon="1.93829">
        <ele>120.4</ele>
        <time>2026-01-30T08:55:19Z</time>
      </trkpt>
      <trkpt lat="48.69579" lon="1.9382">
        <ele>120.6</ele>
        <time>2026-01-30T08:55:20Z</time>
      </trkpt>
      <trkpt lat="48.69579" lon="1.93812">
        <ele>120.6</ele>
        <time>2026-01-30T08:55:21Z</time>
      </trkpt>
      <trkpt lat="48.6958" lon="1.93803">
        <ele>120.6</ele>
        <time>2026-01-30T08:55:22Z</time>
      </trkpt>
      <trkpt lat="48.6958" lon="1.93794">
        <ele>120.6</ele>
        <time>2026-01-30T08:55:23Z</time>
      </trkpt>
      <trkpt lat="48.6958" lon="1.93786">
        <ele>121</ele>
        <time>2026-01-30T08:55:24Z</time>
      </trkpt>
      <trkpt lat="48.69581" lon="1.93777">
        <ele>121</ele>
        <time>2026-01-30T08:55:25Z</time>
      </trkpt>
      <trkpt lat="48.69581" lon="1.93768">
        <ele>121</ele>
        <time>2026-01-30T08:55:26Z</time>
      </trkpt>
      <trkpt lat="48.69582" lon="1.9376">
        <ele>120.4</ele>
        <time>2026-01-30T08:55:27Z</time>
      </trkpt>
      <trkpt lat="48.69584" lon="1.93751">
        <ele>121</ele>
        <time>2026-01-30T08:55:28Z</time>
      </trkpt>
      <trkpt lat="48.69585" lon="1.93743">
        <ele>121</ele>
        <time>2026-01-30T08:55:29Z</time>
      </trkpt>
      <trkpt lat="48.69587" lon="1.93734">
        <ele>121</ele>
        <time>2026-01-30T08:55:30Z</time>
      </trkpt>
      <trkpt lat="48.6959" lon="1.93726">
        <ele>121.8</ele>
        <time>2026-01-30T08:55:31Z</time>
      </trkpt>
      <trkpt lat="48.69592" lon="1.93718">
        <ele>121.8</ele>
        <time>2026-01-30T08:55:32Z</time>
      </trkpt>
      <trkpt lat="48.69595" lon="1.9371">
        <ele>121.8</ele>
        <time>2026-01-30T08:55:33Z</time>
      </trkpt>
      <trkpt lat="48.69599" lon="1.93702">
        <ele>121.8</ele>
        <time>2026-01-30T08:55:34Z</time>
      </trkpt>
      <trkpt lat="48.69603" lon="1.93695">
        <ele>121</ele>
        <time>2026-01-30T08:55:35Z</time>
      </trkpt>
      <trkpt lat="48.69606" lon="1.93688">
        <ele>121.2</ele>
        <time>2026-01-30T08:55:36Z</time>
      </trkpt>
      <trkpt lat="48.69611" lon="1.93682">
        <ele>121.2</ele>
        <time>2026-01-30T08:55:37Z</time>
      </trkpt>
      <trkpt lat="48.69615" lon="1.93676">
        <ele>121.2</ele>
        <time>2026-01-30T08:55:38Z</time>
      </trkpt>
      <trkpt lat="48.6962" lon="1.9367">
        <ele>120.4</ele>
        <time>2026-01-30T08:55:39Z</time>
      </trkpt>
      <trkpt lat="48.69625" lon="1.93665">
        <ele>121.4</ele>
        <time>2026-01-30T08:55:40Z</time>
      </trkpt>
      <trkpt lat="48.6963" lon="1.93661">
        <ele>121.4</ele>
        <time>2026-01-30T08:55:41Z</time>
      </trkpt>
      <trkpt lat="48.69636" lon="1.93656">
        <ele>121.4</ele>
        <time>2026-01-30T08:55:42Z</time>
      </trkpt>
      <trkpt lat="48.69642" lon="1.93653">
        <ele>121.4</ele>
        <time>2026-01-30T08:55:43Z</time>
      </trkpt>
      <trkpt lat="48.69647" lon="1.9365">
        <ele>122.4</ele>
        <time>2026-01-30T08:55:44Z</time>
      </trkpt>
      <trkpt lat="48.69653" lon="1.93647">
        <ele>122.4</ele>
        <time>2026-01-30T08:55:45Z</time>
      </trkpt>
      <trkpt lat="48.6966" lon="1.93645">
        <ele>122.4</ele>
        <time>2026-01-30T08:55:46Z</time>
      </trkpt>
      <trkpt lat="48.69666" lon="1.93643">
        <ele>122.4</ele>
        <time>2026-01-30T08:55:47Z</time>
      </trkpt>
      <trkpt lat="48.69672" lon="1.93642">
        <ele>123.4</ele>
        <time>2026-01-30T08:55:48Z</time>
      </trkpt>
      <trkpt lat="48.69678" lon="1.93642">
        <ele>123.4</ele>
        <time>2026-01-30T08:55:49Z</time>
      </trkpt>
      <trkpt lat="48.69685" lon="1.93641">
        <ele>123.4</ele>
        <time>2026-01-30T08:55:50Z</time>
      </trkpt>
      <trkpt lat="48.69691" lon="1.9364">
        <ele>123</ele>
        <time>2026-01-30T08:55:51Z</time>
      </trkpt>
      <trkpt lat="48.69698" lon="1.93639">
        <ele>122.8</ele>
        <time>2026-01-30T08:55:52Z</time>
      </trkpt>
      <trkpt lat="48.69704" lon="1.93638">
        <ele>122.8</ele>
        <time>2026-01-30T08:55:53Z</time>
      </trkpt>
      <trkpt lat="48.69711" lon="1.93637">
        <ele>122.8</ele>
        <time>2026-01-30T08:55:54Z</time>
      </trkpt>
      <trkpt lat="48.69718" lon="1.93637">
        <ele>122.2</ele>
        <time>2026-01-30T08:55:55Z</time>
      </trkpt>
      <trkpt lat="48.69724" lon="1.93636">
        <ele>122.2</ele>
        <time>2026-01-30T08:55:56Z</time>
      </trkpt>
      <trkpt lat="48.69731" lon="1.93635">
        <ele>122.2</ele>
        <time>2026-01-30T08:55:57Z</time>
      </trkpt>
      <trkpt lat="48.69738" lon="1.93634">
        <ele>122.2</ele>
        <time>2026-01-30T08:55:58Z</time>
      </trkpt>
      <trkpt lat="48.69745" lon="1.93633">
        <ele>122.2</ele>
        <time>2026-01-30T08:55:59Z</time>
      </trkpt>
      <trkpt lat="48.69751" lon="1.93632">
        <ele>122.4</ele>
        <time>2026-01-30T08:56:00Z</time>
      </trkpt>
      <trkpt lat="48.69758" lon="1.93631">
        <ele>122.4</ele>
        <time>2026-01-30T08:56:01Z</time>
      </trkpt>
      <trkpt lat="48.69765" lon="1.9363">
        <ele>122.4</ele>
        <time>2026-01-30T08:56:02Z</time>
      </trkpt>
      <trkpt lat="48.69771" lon="1.93627">
        <ele>122.4</ele>
        <time>2026-01-30T08:56:03Z</time>
      </trkpt>
      <trkpt lat="48.69778" lon="1.93625">
        <ele>122.6</ele>
        <time>2026-01-30T08:56:04Z</time>
      </trkpt>
      <trkpt lat="48.69784" lon="1.93622">
        <ele>122.6</ele>
        <time>2026-01-30T08:56:05Z</time>
      </trkpt>
      <trkpt lat="48.69791" lon="1.93618">
        <ele>122.6</ele>
        <time>2026-01-30T08:56:06Z</time>
      </trkpt>
      <trkpt lat="48.69797" lon="1.93614">
        <ele>122.6</ele>
        <time>2026-01-30T08:56:07Z</time>
      </trkpt>
      <trkpt lat="48.69803" lon="1.9361">
        <ele>122.8</ele>
        <time>2026-01-30T08:56:08Z</time>
      </trkpt>
      <trkpt lat="48.69809" lon="1.93605">
        <ele>122.8</ele>
        <time>2026-01-30T08:56:09Z</time>
      </trkpt>
      <trkpt lat="48.69815" lon="1.93599">
        <ele>122.8</ele>
        <time>2026-01-30T08:56:10Z</time>
      </trkpt>
      <trkpt lat="48.6982" lon="1.93593">
        <ele>122.2</ele>
        <time>2026-01-30T08:56:11Z</time>
      </trkpt>
      <trkpt lat="48.69826" lon="1.93587">
        <ele>121.4</ele>
        <time>2026-01-30T08:56:12Z</time>
      </trkpt>
      <trkpt lat="48.69831" lon="1.93581">
        <ele>121.4</ele>
        <time>2026-01-30T08:56:13Z</time>
      </trkpt>
      <trkpt lat="48.69836" lon="1.93574">
        <ele>121.4</ele>
        <time>2026-01-30T08:56:14Z</time>
      </trkpt>
      <trkpt lat="48.6984" lon="1.93567">
        <ele>121.4</ele>
        <time>2026-01-30T08:56:15Z</time>
      </trkpt>
      <trkpt lat="48.69845" lon="1.93561">
        <ele>121.4</ele>
        <time>2026-01-30T08:56:16Z</time>
      </trkpt>
      <trkpt lat="48.6985" lon="1.93554">
        <ele>121.4</ele>
        <time>2026-01-30T08:56:17Z</time>
      </trkpt>
      <trkpt lat="48.69855" lon="1.93548">
        <ele>121.4</ele>
        <time>2026-01-30T08:56:18Z</time>
      </trkpt>
      <trkpt lat="48.6986" lon="1.93541">
        <ele>121.4</ele>
        <time>2026-01-30T08:56:19Z</time>
      </trkpt>
      <trkpt lat="48.69865" lon="1.93534">
        <ele>121.2</ele>
        <time>2026-01-30T08:56:20Z</time>
      </trkpt>
      <trkpt lat="48.69869" lon="1.93526">
        <ele>121.2</ele>
        <time>2026-01-30T08:56:21Z</time>
      </trkpt>
      <trkpt lat="48.69874" lon="1.93519">
        <ele>121.2</ele>
        <time>2026-01-30T08:56:22Z</time>
      </trkpt>
      <trkpt lat="48.69878" lon="1.93511">
        <ele>121.8</ele>
        <time>2026-01-30T08:56:23Z</time>
      </trkpt>
      <trkpt lat="48.69883" lon="1.93503">
        <ele>121.6</ele>
        <time>2026-01-30T08:56:24Z</time>
      </trkpt>
      <trkpt lat="48.69887" lon="1.93495">
        <ele>121.6</ele>
        <time>2026-01-30T08:56:25Z</time>
      </trkpt>
      <trkpt lat="48.69892" lon="1.93486">
        <ele>121.6</ele>
        <time>2026-01-30T08:56:26Z</time>
      </trkpt>
      <trkpt lat="48.69896" lon="1.93477">
        <ele>121.6</ele>
        <time>2026-01-30T08:56:27Z</time>
      </trkpt>
      <trkpt lat="48.699" lon="1.93469">
        <ele>121.6</ele>
        <time>2026-01-30T08:56:28Z</time>
      </trkpt>
      <trkpt lat="48.69904" lon="1.9346">
        <ele>121.6</ele>
        <time>2026-01-30T08:56:29Z</time>
      </trkpt>
      <trkpt lat="48.69908" lon="1.93451">
        <ele>121.6</ele>
        <time>2026-01-30T08:56:30Z</time>
      </trkpt>
      <trkpt lat="48.69912" lon="1.93442">
        <ele>120.6</ele>
        <time>2026-01-30T08:56:31Z</time>
      </trkpt>
      <trkpt lat="48.69915" lon="1.93432">
        <ele>121.2</ele>
        <time>2026-01-30T08:56:32Z</time>
      </trkpt>
      <trkpt lat="48.69919" lon="1.93423">
        <ele>121.2</ele>
        <time>2026-01-30T08:56:33Z</time>
      </trkpt>
      <trkpt lat="48.69923" lon="1.93414">
        <ele>121.2</ele>
        <time>2026-01-30T08:56:34Z</time>
      </trkpt>
      <trkpt lat="48.69927" lon="1.93404">
        <ele>120.4</ele>
        <time>2026-01-30T08:56:35Z</time>
      </trkpt>
      <trkpt lat="48.6993" lon="1.93395">
        <ele>120.4</ele>
        <time>2026-01-30T08:56:36Z</time>
      </trkpt>
      <trkpt lat="48.69934" lon="1.93386">
        <ele>120.4</ele>
        <time>2026-01-30T08:56:37Z</time>
      </trkpt>
      <trkpt lat="48.69937" lon="1.93376">
        <ele>120.4</ele>
        <time>2026-01-30T08:56:38Z</time>
      </trkpt>
      <trkpt lat="48.69941" lon="1.93367">
        <ele>120.4</ele>
        <time>2026-01-30T08:56:39Z</time>
      </trkpt>
      <trkpt lat="48.69945" lon="1.93358">
        <ele>120</ele>
        <time>2026-01-30T08:56:40Z</time>
      </trkpt>
      <trkpt lat="48.69948" lon="1.93349">
        <ele>120</ele>
        <time>2026-01-30T08:56:41Z</time>
      </trkpt>
      <trkpt lat="48.69952" lon="1.9334">
        <ele>120</ele>
        <time>2026-01-30T08:56:42Z</time>
      </trkpt>
      <trkpt lat="48.69956" lon="1.93331">
        <ele>120</ele>
        <time>2026-01-30T08:56:43Z</time>
      </trkpt>
      <trkpt lat="48.6996" lon="1.93322">
        <ele>120.4</ele>
        <time>2026-01-30T08:56:44Z</time>
      </trkpt>
      <trkpt lat="48.69963" lon="1.93313">
        <ele>120.4</ele>
        <time>2026-01-30T08:56:45Z</time>
      </trkpt>
      <trkpt lat="48.69968" lon="1.93304">
        <ele>120.4</ele>
        <time>2026-01-30T08:56:46Z</time>
      </trkpt>
      <trkpt lat="48.69972" lon="1.93296">
        <ele>120.4</ele>
        <time>2026-01-30T08:56:47Z</time>
      </trkpt>
      <trkpt lat="48.69976" lon="1.93288">
        <ele>120</ele>
        <time>2026-01-30T08:56:48Z</time>
      </trkpt>
      <trkpt lat="48.69981" lon="1.93281">
        <ele>120</ele>
        <time>2026-01-30T08:56:49Z</time>
      </trkpt>
      <trkpt lat="48.69986" lon="1.93273">
        <ele>120</ele>
        <time>2026-01-30T08:56:50Z</time>
      </trkpt>
      <trkpt lat="48.69991" lon="1.93266">
        <ele>120.8</ele>
        <time>2026-01-30T08:56:51Z</time>
      </trkpt>
      <trkpt lat="48.69996" lon="1.93259">
        <ele>120.8</ele>
        <time>2026-01-30T08:56:52Z</time>
      </trkpt>
      <trkpt lat="48.70001" lon="1.93251">
        <ele>120.8</ele>
        <time>2026-01-30T08:56:53Z</time>
      </trkpt>
      <trkpt lat="48.70006" lon="1.93244">
        <ele>120.8</ele>
        <time>2026-01-30T08:56:54Z</time>
      </trkpt>
      <trkpt lat="48.70011" lon="1.93237">
        <ele>120.4</ele>
        <time>2026-01-30T08:56:55Z</time>
      </trkpt>
      <trkpt lat="48.70017" lon="1.9323">
        <ele>120.2</ele>
        <time>2026-01-30T08:56:56Z</time>
      </trkpt>
      <trkpt lat="48.70022" lon="1.93223">
        <ele>120.2</ele>
        <time>2026-01-30T08:56:57Z</time>
      </trkpt>
      <trkpt lat="48.70027" lon="1.93216">
        <ele>120.2</ele>
        <time>2026-01-30T08:56:58Z</time>
      </trkpt>
      <trkpt lat="48.70032" lon="1.93209">
        <ele>120.2</ele>
        <time>2026-01-30T08:56:59Z</time>
      </trkpt>
      <trkpt lat="48.70037" lon="1.93201">
        <ele>120</ele>
        <time>2026-01-30T08:57:00Z</time>
      </trkpt>
      <trkpt lat="48.70042" lon="1.93194">
        <ele>120</ele>
        <time>2026-01-30T08:57:01Z</time>
      </trkpt>
      <trkpt lat="48.70047" lon="1.93187">
        <ele>120</ele>
        <time>2026-01-30T08:57:02Z</time>
      </trkpt>
      <trkpt lat="48.70052" lon="1.9318">
        <ele>120.4</ele>
        <time>2026-01-30T08:57:03Z</time>
      </trkpt>
      <trkpt lat="48.70058" lon="1.93172">
        <ele>120</ele>
        <time>2026-01-30T08:57:04Z</time>
      </trkpt>
      <trkpt lat="48.70063" lon="1.93165">
        <ele>120</ele>
        <time>2026-01-30T08:57:05Z</time>
      </trkpt>
      <trkpt lat="48.70068" lon="1.93158">
        <ele>120</ele>
        <time>2026-01-30T08:57:06Z</time>
      </trkpt>
      <trkpt lat="48.70073" lon="1.93151">
        <ele>120</ele>
        <time>2026-01-30T08:57:07Z</time>
      </trkpt>
      <trkpt lat="48.70078" lon="1.93143">
        <ele>120.2</ele>
        <time>2026-01-30T08:57:08Z</time>
      </trkpt>
      <trkpt lat="48.70083" lon="1.93136">
        <ele>120.2</ele>
        <time>2026-01-30T08:57:09Z</time>
      </trkpt>
      <trkpt lat="48.70088" lon="1.93129">
        <ele>120.2</ele>
        <time>2026-01-30T08:57:10Z</time>
      </trkpt>
      <trkpt lat="48.70093" lon="1.93121">
        <ele>120.2</ele>
        <time>2026-01-30T08:57:11Z</time>
      </trkpt>
      <trkpt lat="48.70098" lon="1.93114">
        <ele>119.8</ele>
        <time>2026-01-30T08:57:12Z</time>
      </trkpt>
      <trkpt lat="48.70103" lon="1.93106">
        <ele>119.8</ele>
        <time>2026-01-30T08:57:13Z</time>
      </trkpt>
      <trkpt lat="48.70108" lon="1.93099">
        <ele>119.8</ele>
        <time>2026-01-30T08:57:14Z</time>
      </trkpt>
      <trkpt lat="48.70113" lon="1.93092">
        <ele>119.8</ele>
        <time>2026-01-30T08:57:15Z</time>
      </trkpt>
      <trkpt lat="48.70118" lon="1.93084">
        <ele>119.2</ele>
        <time>2026-01-30T08:57:16Z</time>
      </trkpt>
      <trkpt lat="48.70123" lon="1.93076">
        <ele>119.2</ele>
        <time>2026-01-30T08:57:17Z</time>
      </trkpt>
      <trkpt lat="48.70129" lon="1.93069">
        <ele>119.2</ele>
        <time>2026-01-30T08:57:18Z</time>
      </trkpt>
      <trkpt lat="48.70134" lon="1.93061">
        <ele>119.2</ele>
        <time>2026-01-30T08:57:19Z</time>
      </trkpt>
      <trkpt lat="48.70139" lon="1.93054">
        <ele>119</ele>
        <time>2026-01-30T08:57:20Z</time>
      </trkpt>
      <trkpt lat="48.70144" lon="1.93046">
        <ele>119</ele>
        <time>2026-01-30T08:57:21Z</time>
      </trkpt>
      <trkpt lat="48.70149" lon="1.93039">
        <ele>119</ele>
        <time>2026-01-30T08:57:22Z</time>
      </trkpt>
      <trkpt lat="48.70155" lon="1.93031">
        <ele>119.4</ele>
        <time>2026-01-30T08:57:23Z</time>
      </trkpt>
      <trkpt lat="48.7016" lon="1.93024">
        <ele>119.6</ele>
        <time>2026-01-30T08:57:24Z</time>
      </trkpt>
      <trkpt lat="48.70166" lon="1.93017">
        <ele>119.6</ele>
        <time>2026-01-30T08:57:25Z</time>
      </trkpt>
      <trkpt lat="48.70172" lon="1.9301">
        <ele>119.6</ele>
        <time>2026-01-30T08:57:26Z</time>
      </trkpt>
      <trkpt lat="48.70177" lon="1.93004">
        <ele>118.8</ele>
        <time>2026-01-30T08:57:27Z</time>
      </trkpt>
      <trkpt lat="48.70183" lon="1.92997">
        <ele>118.6</ele>
        <time>2026-01-30T08:57:28Z</time>
      </trkpt>
      <trkpt lat="48.70189" lon="1.92991">
        <ele>118.6</ele>
        <time>2026-01-30T08:57:29Z</time>
      </trkpt>
      <trkpt lat="48.70195" lon="1.92986">
        <ele>118.6</ele>
        <time>2026-01-30T08:57:30Z</time>
      </trkpt>
      <trkpt lat="48.70201" lon="1.9298">
        <ele>118.6</ele>
        <time>2026-01-30T08:57:31Z</time>
      </trkpt>
      <trkpt lat="48.70208" lon="1.92975">
        <ele>119.2</ele>
        <time>2026-01-30T08:57:32Z</time>
      </trkpt>
      <trkpt lat="48.70214" lon="1.9297">
        <ele>119.2</ele>
        <time>2026-01-30T08:57:33Z</time>
      </trkpt>
      <trkpt lat="48.7022" lon="1.92965">
        <ele>119.2</ele>
        <time>2026-01-30T08:57:34Z</time>
      </trkpt>
      <trkpt lat="48.70226" lon="1.92961">
        <ele>119.2</ele>
        <time>2026-01-30T08:57:35Z</time>
      </trkpt>
      <trkpt lat="48.70233" lon="1.92956">
        <ele>119.4</ele>
        <time>2026-01-30T08:57:36Z</time>
      </trkpt>
      <trkpt lat="48.70239" lon="1.92952">
        <ele>119.4</ele>
        <time>2026-01-30T08:57:37Z</time>
      </trkpt>
      <trkpt lat="48.70246" lon="1.92948">
        <ele>119.4</ele>
        <time>2026-01-30T08:57:38Z</time>
      </trkpt>
      <trkpt lat="48.70252" lon="1.92944">
        <ele>120</ele>
        <time>2026-01-30T08:57:39Z</time>
      </trkpt>
      <trkpt lat="48.70258" lon="1.9294">
        <ele>120.2</ele>
        <time>2026-01-30T08:57:40Z</time>
      </trkpt>
      <trkpt lat="48.70265" lon="1.92936">
        <ele>120.2</ele>
        <time>2026-01-30T08:57:41Z</time>
      </trkpt>
      <trkpt lat="48.70271" lon="1.92931">
        <ele>120.2</ele>
        <time>2026-01-30T08:57:42Z</time>
      </trkpt>
      <trkpt lat="48.70277" lon="1.92927">
        <ele>119.8</ele>
        <time>2026-01-30T08:57:43Z</time>
      </trkpt>
      <trkpt lat="48.70284" lon="1.92923">
        <ele>119.8</ele>
        <time>2026-01-30T08:57:44Z</time>
      </trkpt>
      <trkpt lat="48.7029" lon="1.92919">
        <ele>119.8</ele>
        <time>2026-01-30T08:57:45Z</time>
      </trkpt>
      <trkpt lat="48.70297" lon="1.92915">
        <ele>119.8</ele>
        <time>2026-01-30T08:57:46Z</time>
      </trkpt>
      <trkpt lat="48.70303" lon="1.92911">
        <ele>119.8</ele>
        <time>2026-01-30T08:57:47Z</time>
      </trkpt>
      <trkpt lat="48.70309" lon="1.92907">
        <ele>119.8</ele>
        <time>2026-01-30T08:57:48Z</time>
      </trkpt>
      <trkpt lat="48.70316" lon="1.92902">
        <ele>119.8</ele>
        <time>2026-01-30T08:57:49Z</time>
      </trkpt>
      <trkpt lat="48.70322" lon="1.92898">
        <ele>119.8</ele>
        <time>2026-01-30T08:57:50Z</time>
      </trkpt>
      <trkpt lat="48.70328" lon="1.92893">
        <ele>119.8</ele>
        <time>2026-01-30T08:57:51Z</time>
      </trkpt>
      <trkpt lat="48.70334" lon="1.92887">
        <ele>120</ele>
        <time>2026-01-30T08:57:52Z</time>
      </trkpt>
      <trkpt lat="48.70339" lon="1.92881">
        <ele>120</ele>
        <time>2026-01-30T08:57:53Z</time>
      </trkpt>
      <trkpt lat="48.70345" lon="1.92876">
        <ele>120</ele>
        <time>2026-01-30T08:57:54Z</time>
      </trkpt>
      <trkpt lat="48.70351" lon="1.9287">
        <ele>120</ele>
        <time>2026-01-30T08:57:55Z</time>
      </trkpt>
      <trkpt lat="48.70356" lon="1.92864">
        <ele>121</ele>
        <time>2026-01-30T08:57:56Z</time>
      </trkpt>
      <trkpt lat="48.70362" lon="1.92859">
        <ele>121</ele>
        <time>2026-01-30T08:57:57Z</time>
      </trkpt>
      <trkpt lat="48.70368" lon="1.92853">
        <ele>121</ele>
        <time>2026-01-30T08:57:58Z</time>
      </trkpt>
      <trkpt lat="48.70373" lon="1.92847">
        <ele>120.6</ele>
        <time>2026-01-30T08:57:59Z</time>
      </trkpt>
      <trkpt lat="48.70379" lon="1.92842">
        <ele>119.8</ele>
        <time>2026-01-30T08:58:00Z</time>
      </trkpt>
      <trkpt lat="48.70385" lon="1.92837">
        <ele>119.8</ele>
        <time>2026-01-30T08:58:01Z</time>
      </trkpt>
      <trkpt lat="48.70391" lon="1.92832">
        <ele>119.8</ele>
        <time>2026-01-30T08:58:02Z</time>
      </trkpt>
      <trkpt lat="48.70398" lon="1.92828">
        <ele>119.8</ele>
        <time>2026-01-30T08:58:03Z</time>
      </trkpt>
      <trkpt lat="48.70404" lon="1.92824">
        <ele>120</ele>
        <time>2026-01-30T08:58:04Z</time>
      </trkpt>
      <trkpt lat="48.7041" lon="1.9282">
        <ele>120</ele>
        <time>2026-01-30T08:58:05Z</time>
      </trkpt>
      <trkpt lat="48.70417" lon="1.92816">
        <ele>120</ele>
        <time>2026-01-30T08:58:06Z</time>
      </trkpt>
      <trkpt lat="48.70423" lon="1.92813">
        <ele>120</ele>
        <time>2026-01-30T08:58:07Z</time>
      </trkpt>
      <trkpt lat="48.7043" lon="1.9281">
        <ele>120.4</ele>
        <time>2026-01-30T08:58:08Z</time>
      </trkpt>
      <trkpt lat="48.70436" lon="1.92807">
        <ele>120.4</ele>
        <time>2026-01-30T08:58:09Z</time>
      </trkpt>
      <trkpt lat="48.70443" lon="1.92805">
        <ele>120.4</ele>
        <time>2026-01-30T08:58:10Z</time>
      </trkpt>
      <trkpt lat="48.7045" lon="1.92802">
        <ele>120.4</ele>
        <time>2026-01-30T08:58:11Z</time>
      </trkpt>
      <trkpt lat="48.70457" lon="1.928">
        <ele>120.4</ele>
        <time>2026-01-30T08:58:12Z</time>
      </trkpt>
      <trkpt lat="48.70464" lon="1.92798">
        <ele>120.4</ele>
        <time>2026-01-30T08:58:13Z</time>
      </trkpt>
      <trkpt lat="48.70471" lon="1.92795">
        <ele>120.4</ele>
        <time>2026-01-30T08:58:14Z</time>
      </trkpt>
      <trkpt lat="48.70478" lon="1.92793">
        <ele>120.4</ele>
        <time>2026-01-30T08:58:15Z</time>
      </trkpt>
      <trkpt lat="48.70485" lon="1.9279">
        <ele>120.2</ele>
        <time>2026-01-30T08:58:16Z</time>
      </trkpt>
      <trkpt lat="48.70492" lon="1.92788">
        <ele>120.2</ele>
        <time>2026-01-30T08:58:17Z</time>
      </trkpt>
      <trkpt lat="48.70499" lon="1.92785">
        <ele>120.2</ele>
        <time>2026-01-30T08:58:18Z</time>
      </trkpt>
      <trkpt lat="48.70507" lon="1.92783">
        <ele>119.6</ele>
        <time>2026-01-30T08:58:19Z</time>
      </trkpt>
      <trkpt lat="48.70514" lon="1.9278">
        <ele>119</ele>
        <time>2026-01-30T08:58:20Z</time>
      </trkpt>
      <trkpt lat="48.70521" lon="1.92777">
        <ele>119</ele>
        <time>2026-01-30T08:58:21Z</time>
      </trkpt>
      <trkpt lat="48.70528" lon="1.92775">
        <ele>119</ele>
        <time>2026-01-30T08:58:22Z</time>
      </trkpt>
      <trkpt lat="48.70536" lon="1.92773">
        <ele>119</ele>
        <time>2026-01-30T08:58:23Z</time>
      </trkpt>
      <trkpt lat="48.70543" lon="1.9277">
        <ele>118.8</ele>
        <time>2026-01-30T08:58:24Z</time>
      </trkpt>
      <trkpt lat="48.7055" lon="1.92768">
        <ele>118.8</ele>
        <time>2026-01-30T08:58:25Z</time>
      </trkpt>
      <trkpt lat="48.70558" lon="1.92767">
        <ele>118.8</ele>
        <time>2026-01-30T08:58:26Z</time>
      </trkpt>
      <trkpt lat="48.70565" lon="1.92765">
        <ele>118.4</ele>
        <time>2026-01-30T08:58:27Z</time>
      </trkpt>
      <trkpt lat="48.70573" lon="1.92763">
        <ele>118.2</ele>
        <time>2026-01-30T08:58:28Z</time>
      </trkpt>
      <trkpt lat="48.7058" lon="1.92761">
        <ele>118.2</ele>
        <time>2026-01-30T08:58:29Z</time>
      </trkpt>
      <trkpt lat="48.70588" lon="1.92759">
        <ele>118.2</ele>
        <time>2026-01-30T08:58:30Z</time>
      </trkpt>
      <trkpt lat="48.70596" lon="1.92757">
        <ele>118.2</ele>
        <time>2026-01-30T08:58:31Z</time>
      </trkpt>
      <trkpt lat="48.70604" lon="1.92755">
        <ele>117.8</ele>
        <time>2026-01-30T08:58:32Z</time>
      </trkpt>
      <trkpt lat="48.70612" lon="1.92753">
        <ele>117.8</ele>
        <time>2026-01-30T08:58:33Z</time>
      </trkpt>
      <trkpt lat="48.7062" lon="1.92751">
        <ele>117.8</ele>
        <time>2026-01-30T08:58:34Z</time>
      </trkpt>
      <trkpt lat="48.70628" lon="1.9275">
        <ele>117.8</ele>
        <time>2026-01-30T08:58:35Z</time>
      </trkpt>
      <trkpt lat="48.70635" lon="1.92748">
        <ele>117.2</ele>
        <time>2026-01-30T08:58:36Z</time>
      </trkpt>
      <trkpt lat="48.70643" lon="1.92746">
        <ele>117.2</ele>
        <time>2026-01-30T08:58:37Z</time>
      </trkpt>
      <trkpt lat="48.70651" lon="1.92744">
        <ele>117.2</ele>
        <time>2026-01-30T08:58:38Z</time>
      </trkpt>
      <trkpt lat="48.70659" lon="1.92741">
        <ele>117.2</ele>
        <time>2026-01-30T08:58:39Z</time>
      </trkpt>
      <trkpt lat="48.70667" lon="1.92737">
        <ele>116.6</ele>
        <time>2026-01-30T08:58:40Z</time>
      </trkpt>
      <trkpt lat="48.70674" lon="1.92732">
        <ele>116.6</ele>
        <time>2026-01-30T08:58:41Z</time>
      </trkpt>
      <trkpt lat="48.70681" lon="1.92726">
        <ele>116.6</ele>
        <time>2026-01-30T08:58:42Z</time>
      </trkpt>
      <trkpt lat="48.70687" lon="1.92719">
        <ele>115.6</ele>
        <time>2026-01-30T08:58:43Z</time>
      </trkpt>
      <trkpt lat="48.70693" lon="1.92712">
        <ele>114.8</ele>
        <time>2026-01-30T08:58:44Z</time>
      </trkpt>
      <trkpt lat="48.70698" lon="1.92704">
        <ele>114.8</ele>
        <time>2026-01-30T08:58:45Z</time>
      </trkpt>
      <trkpt lat="48.70703" lon="1.92695">
        <ele>114.8</ele>
        <time>2026-01-30T08:58:46Z</time>
      </trkpt>
      <trkpt lat="48.70707" lon="1.92686">
        <ele>114.8</ele>
        <time>2026-01-30T08:58:47Z</time>
      </trkpt>
      <trkpt lat="48.7071" lon="1.92677">
        <ele>113.8</ele>
        <time>2026-01-30T08:58:48Z</time>
      </trkpt>
      <trkpt lat="48.70714" lon="1.92668">
        <ele>113.8</ele>
        <time>2026-01-30T08:58:49Z</time>
      </trkpt>
      <trkpt lat="48.70718" lon="1.9266">
        <ele>113.8</ele>
        <time>2026-01-30T08:58:50Z</time>
      </trkpt>
      <trkpt lat="48.70721" lon="1.92651">
        <ele>114.8</ele>
        <time>2026-01-30T08:58:51Z</time>
      </trkpt>
      <trkpt lat="48.70724" lon="1.92643">
        <ele>116.8</ele>
        <time>2026-01-30T08:58:52Z</time>
      </trkpt>
      <trkpt lat="48.70728" lon="1.92635">
        <ele>116.8</ele>
        <time>2026-01-30T08:58:53Z</time>
      </trkpt>
      <trkpt lat="48.70732" lon="1.92626">
        <ele>116.8</ele>
        <time>2026-01-30T08:58:54Z</time>
      </trkpt>
      <trkpt lat="48.70735" lon="1.92617">
        <ele>116.8</ele>
        <time>2026-01-30T08:58:55Z</time>
      </trkpt>
      <trkpt lat="48.70739" lon="1.92608">
        <ele>115.2</ele>
        <time>2026-01-30T08:58:56Z</time>
      </trkpt>
      <trkpt lat="48.70742" lon="1.92599">
        <ele>115.2</ele>
        <time>2026-01-30T08:58:57Z</time>
      </trkpt>
      <trkpt lat="48.70746" lon="1.92591">
        <ele>115.2</ele>
        <time>2026-01-30T08:58:58Z</time>
      </trkpt>
      <trkpt lat="48.70749" lon="1.92582">
        <ele>114.2</ele>
        <time>2026-01-30T08:58:59Z</time>
      </trkpt>
      <trkpt lat="48.70753" lon="1.92573">
        <ele>114.6</ele>
        <time>2026-01-30T08:59:00Z</time>
      </trkpt>
      <trkpt lat="48.70755" lon="1.92563">
        <ele>114.6</ele>
        <time>2026-01-30T08:59:01Z</time>
      </trkpt>
      <trkpt lat="48.70758" lon="1.92553">
        <ele>114.6</ele>
        <time>2026-01-30T08:59:02Z</time>
      </trkpt>
      <trkpt lat="48.7076" lon="1.92543">
        <ele>114.8</ele>
        <time>2026-01-30T08:59:03Z</time>
      </trkpt>
      <trkpt lat="48.70761" lon="1.92532">
        <ele>114.2</ele>
        <time>2026-01-30T08:59:04Z</time>
      </trkpt>
      <trkpt lat="48.70762" lon="1.92522">
        <ele>114.2</ele>
        <time>2026-01-30T08:59:05Z</time>
      </trkpt>
      <trkpt lat="48.70763" lon="1.92511">
        <ele>114.2</ele>
        <time>2026-01-30T08:59:06Z</time>
      </trkpt>
      <trkpt lat="48.70763" lon="1.92501">
        <ele>114.2</ele>
        <time>2026-01-30T08:59:07Z</time>
      </trkpt>
      <trkpt lat="48.70764" lon="1.92491">
        <ele>114.2</ele>
        <time>2026-01-30T08:59:08Z</time>
      </trkpt>
      <trkpt lat="48.70763" lon="1.9248">
        <ele>114.2</ele>
        <time>2026-01-30T08:59:09Z</time>
      </trkpt>
      <trkpt lat="48.70762" lon="1.9247">
        <ele>114.2</ele>
        <time>2026-01-30T08:59:10Z</time>
      </trkpt>
      <trkpt lat="48.70761" lon="1.9246">
        <ele>113.6</ele>
        <time>2026-01-30T08:59:11Z</time>
      </trkpt>
      <trkpt lat="48.70759" lon="1.9245">
        <ele>113.8</ele>
        <time>2026-01-30T08:59:12Z</time>
      </trkpt>
      <trkpt lat="48.70756" lon="1.9244">
        <ele>113.8</ele>
        <time>2026-01-30T08:59:13Z</time>
      </trkpt>
      <trkpt lat="48.70754" lon="1.9243">
        <ele>113.8</ele>
        <time>2026-01-30T08:59:14Z</time>
      </trkpt>
      <trkpt lat="48.70751" lon="1.92421">
        <ele>113.2</ele>
        <time>2026-01-30T08:59:15Z</time>
      </trkpt>
      <trkpt lat="48.70748" lon="1.92411">
        <ele>113.2</ele>
        <time>2026-01-30T08:59:16Z</time>
      </trkpt>
      <trkpt lat="48.70746" lon="1.92402">
        <ele>113.2</ele>
        <time>2026-01-30T08:59:17Z</time>
      </trkpt>
      <trkpt lat="48.70743" lon="1.92393">
        <ele>113.2</ele>
        <time>2026-01-30T08:59:18Z</time>
      </trkpt>
      <trkpt lat="48.70741" lon="1.92385">
        <ele>114.2</ele>
        <time>2026-01-30T08:59:19Z</time>
      </trkpt>
      <trkpt lat="48.70738" lon="1.92376">
        <ele>115</ele>
        <time>2026-01-30T08:59:20Z</time>
      </trkpt>
      <trkpt lat="48.70735" lon="1.92368">
        <ele>115</ele>
        <time>2026-01-30T08:59:21Z</time>
      </trkpt>
      <trkpt lat="48.70733" lon="1.9236">
        <ele>115</ele>
        <time>2026-01-30T08:59:22Z</time>
      </trkpt>
      <trkpt lat="48.70731" lon="1.92352">
        <ele>115.6</ele>
        <time>2026-01-30T08:59:23Z</time>
      </trkpt>
      <trkpt lat="48.70728" lon="1.92344">
        <ele>115.4</ele>
        <time>2026-01-30T08:59:24Z</time>
      </trkpt>
      <trkpt lat="48.70726" lon="1.92335">
        <ele>115.4</ele>
        <time>2026-01-30T08:59:25Z</time>
      </trkpt>
      <trkpt lat="48.70723" lon="1.92327">
        <ele>115.4</ele>
        <time>2026-01-30T08:59:26Z</time>
      </trkpt>
      <trkpt lat="48.7072" lon="1.92319">
        <ele>115.4</ele>
        <time>2026-01-30T08:59:27Z</time>
      </trkpt>
      <trkpt lat="48.70718" lon="1.9231">
        <ele>116</ele>
        <time>2026-01-30T08:59:28Z</time>
      </trkpt>
      <trkpt lat="48.70715" lon="1.92302">
        <ele>116</ele>
        <time>2026-01-30T08:59:29Z</time>
      </trkpt>
      <trkpt lat="48.70713" lon="1.92293">
        <ele>116</ele>
        <time>2026-01-30T08:59:30Z</time>
      </trkpt>
      <trkpt lat="48.7071" lon="1.92285">
        <ele>115.8</ele>
        <time>2026-01-30T08:59:31Z</time>
      </trkpt>
      <trkpt lat="48.70708" lon="1.92277">
        <ele>116</ele>
        <time>2026-01-30T08:59:32Z</time>
      </trkpt>
      <trkpt lat="48.70705" lon="1.92268">
        <ele>116</ele>
        <time>2026-01-30T08:59:33Z</time>
      </trkpt>
      <trkpt lat="48.70703" lon="1.92259">
        <ele>116</ele>
        <time>2026-01-30T08:59:34Z</time>
      </trkpt>
      <trkpt lat="48.707" lon="1.92251">
        <ele>116</ele>
        <time>2026-01-30T08:59:35Z</time>
      </trkpt>
      <trkpt lat="48.70698" lon="1.92242">
        <ele>116.4</ele>
        <time>2026-01-30T08:59:36Z</time>
      </trkpt>
      <trkpt lat="48.70695" lon="1.92234">
        <ele>116.4</ele>
        <time>2026-01-30T08:59:37Z</time>
      </trkpt>
      <trkpt lat="48.70693" lon="1.92225">
        <ele>116.4</ele>
        <time>2026-01-30T08:59:38Z</time>
      </trkpt>
      <trkpt lat="48.7069" lon="1.92216">
        <ele>116.2</ele>
        <time>2026-01-30T08:59:39Z</time>
      </trkpt>
      <trkpt lat="48.70687" lon="1.92207">
        <ele>116.2</ele>
        <time>2026-01-30T08:59:40Z</time>
      </trkpt>
      <trkpt lat="48.70685" lon="1.92199">
        <ele>116.2</ele>
        <time>2026-01-30T08:59:41Z</time>
      </trkpt>
      <trkpt lat="48.70682" lon="1.9219">
        <ele>116.2</ele>
        <time>2026-01-30T08:59:42Z</time>
      </trkpt>
      <trkpt lat="48.7068" lon="1.92182">
        <ele>116.6</ele>
        <time>2026-01-30T08:59:43Z</time>
      </trkpt>
      <trkpt lat="48.70677" lon="1.92173">
        <ele>116.8</ele>
        <time>2026-01-30T08:59:44Z</time>
      </trkpt>
      <trkpt lat="48.70675" lon="1.92164">
        <ele>116.8</ele>
        <time>2026-01-30T08:59:45Z</time>
      </trkpt>
      <trkpt lat="48.70672" lon="1.92156">
        <ele>116.8</ele>
        <time>2026-01-30T08:59:46Z</time>
      </trkpt>
      <trkpt lat="48.7067" lon="1.92147">
        <ele>115.8</ele>
        <time>2026-01-30T08:59:47Z</time>
      </trkpt>
      <trkpt lat="48.70668" lon="1.92137">
        <ele>115.4</ele>
        <time>2026-01-30T08:59:48Z</time>
      </trkpt>
      <trkpt lat="48.70667" lon="1.92128">
        <ele>115.4</ele>
        <time>2026-01-30T08:59:49Z</time>
      </trkpt>
      <trkpt lat="48.70666" lon="1.92118">
        <ele>115.4</ele>
        <time>2026-01-30T08:59:50Z</time>
      </trkpt>
      <trkpt lat="48.70665" lon="1.92108">
        <ele>115.8</ele>
        <time>2026-01-30T08:59:51Z</time>
      </trkpt>
      <trkpt lat="48.70665" lon="1.92098">
        <ele>115.2</ele>
        <time>2026-01-30T08:59:52Z</time>
      </trkpt>
      <trkpt lat="48.70665" lon="1.92088">
        <ele>115.2</ele>
        <time>2026-01-30T08:59:53Z</time>
      </trkpt>
      <trkpt lat="48.70666" lon="1.92078">
        <ele>115.2</ele>
        <time>2026-01-30T08:59:54Z</time>
      </trkpt>
      <trkpt lat="48.70667" lon="1.92068">
        <ele>116</ele>
        <time>2026-01-30T08:59:55Z</time>
      </trkpt>
      <trkpt lat="48.70669" lon="1.92058">
        <ele>115.8</ele>
        <time>2026-01-30T08:59:56Z</time>
      </trkpt>
      <trkpt lat="48.70671" lon="1.92049">
        <ele>115.8</ele>
        <time>2026-01-30T08:59:57Z</time>
      </trkpt>
      <trkpt lat="48.70673" lon="1.92039">
        <ele>115.8</ele>
        <time>2026-01-30T08:59:58Z</time>
      </trkpt>
      <trkpt lat="48.70676" lon="1.9203">
        <ele>116.2</ele>
        <time>2026-01-30T08:59:59Z</time>
      </trkpt>
      <trkpt lat="48.70679" lon="1.92022">
        <ele>116.6</ele>
        <time>2026-01-30T09:00:00Z</time>
      </trkpt>
      <trkpt lat="48.70682" lon="1.92013">
        <ele>116.6</ele>
        <time>2026-01-30T09:00:01Z</time>
      </trkpt>
      <trkpt lat="48.70685" lon="1.92005">
        <ele>116.6</ele>
        <time>2026-01-30T09:00:02Z</time>
      </trkpt>
      <trkpt lat="48.70688" lon="1.91997">
        <ele>117.2</ele>
        <time>2026-01-30T09:00:03Z</time>
      </trkpt>
      <trkpt lat="48.7069" lon="1.91988">
        <ele>117.2</ele>
        <time>2026-01-30T09:00:04Z</time>
      </trkpt>
      <trkpt lat="48.70693" lon="1.9198">
        <ele>117.2</ele>
        <time>2026-01-30T09:00:05Z</time>
      </trkpt>
      <trkpt lat="48.70696" lon="1.91973">
        <ele>117.2</ele>
        <time>2026-01-30T09:00:06Z</time>
      </trkpt>
      <trkpt lat="48.70699" lon="1.91965">
        <ele>117.4</ele>
        <time>2026-01-30T09:00:07Z</time>
      </trkpt>
      <trkpt lat="48.70701" lon="1.91957">
        <ele>117.6</ele>
        <time>2026-01-30T09:00:08Z</time>
      </trkpt>
      <trkpt lat="48.70704" lon="1.91949">
        <ele>117.6</ele>
        <time>2026-01-30T09:00:09Z</time>
      </trkpt>
      <trkpt lat="48.70707" lon="1.91941">
        <ele>117.6</ele>
        <time>2026-01-30T09:00:10Z</time>
      </trkpt>
      <trkpt lat="48.70709" lon="1.91933">
        <ele>117.6</ele>
        <time>2026-01-30T09:00:11Z</time>
      </trkpt>
      <trkpt lat="48.70712" lon="1.91925">
        <ele>117.6</ele>
        <time>2026-01-30T09:00:12Z</time>
      </trkpt>
      <trkpt lat="48.70715" lon="1.91917">
        <ele>117.6</ele>
        <time>2026-01-30T09:00:13Z</time>
      </trkpt>
      <trkpt lat="48.70717" lon="1.91909">
        <ele>117.6</ele>
        <time>2026-01-30T09:00:14Z</time>
      </trkpt>
      <trkpt lat="48.7072" lon="1.91901">
        <ele>117.6</ele>
        <time>2026-01-30T09:00:15Z</time>
      </trkpt>
      <trkpt lat="48.70723" lon="1.91893">
        <ele>119.8</ele>
        <time>2026-01-30T09:00:16Z</time>
      </trkpt>
      <trkpt lat="48.70726" lon="1.91884">
        <ele>119.8</ele>
        <time>2026-01-30T09:00:17Z</time>
      </trkpt>
      <trkpt lat="48.70728" lon="1.91876">
        <ele>119.8</ele>
        <time>2026-01-30T09:00:18Z</time>
      </trkpt>
      <trkpt lat="48.70731" lon="1.91868">
        <ele>118.8</ele>
        <time>2026-01-30T09:00:19Z</time>
      </trkpt>
      <trkpt lat="48.70734" lon="1.91861">
        <ele>119</ele>
        <time>2026-01-30T09:00:20Z</time>
      </trkpt>
      <trkpt lat="48.70737" lon="1.91853">
        <ele>119</ele>
        <time>2026-01-30T09:00:21Z</time>
      </trkpt>
      <trkpt lat="48.7074" lon="1.91845">
        <ele>119</ele>
        <time>2026-01-30T09:00:22Z</time>
      </trkpt>
      <trkpt lat="48.70742" lon="1.91838">
        <ele>119</ele>
        <time>2026-01-30T09:00:23Z</time>
      </trkpt>
      <trkpt lat="48.70745" lon="1.91831">
        <ele>119.4</ele>
        <time>2026-01-30T09:00:24Z</time>
      </trkpt>
      <trkpt lat="48.70748" lon="1.91823">
        <ele>119.4</ele>
        <time>2026-01-30T09:00:25Z</time>
      </trkpt>
      <trkpt lat="48.7075" lon="1.91814">
        <ele>119.4</ele>
        <time>2026-01-30T09:00:26Z</time>
      </trkpt>
      <trkpt lat="48.70753" lon="1.91806">
        <ele>119</ele>
        <time>2026-01-30T09:00:27Z</time>
      </trkpt>
      <trkpt lat="48.70756" lon="1.91798">
        <ele>118.8</ele>
        <time>2026-01-30T09:00:28Z</time>
      </trkpt>
      <trkpt lat="48.70759" lon="1.91789">
        <ele>118.8</ele>
        <time>2026-01-30T09:00:29Z</time>
      </trkpt>
      <trkpt lat="48.70762" lon="1.91781">
        <ele>118.8</ele>
        <time>2026-01-30T09:00:30Z</time>
      </trkpt>
      <trkpt lat="48.70765" lon="1.91773">
        <ele>119.2</ele>
        <time>2026-01-30T09:00:31Z</time>
      </trkpt>
      <trkpt lat="48.70767" lon="1.91765">
        <ele>119.2</ele>
        <time>2026-01-30T09:00:32Z</time>
      </trkpt>
      <trkpt lat="48.7077" lon="1.91757">
        <ele>119.2</ele>
        <time>2026-01-30T09:00:33Z</time>
      </trkpt>
      <trkpt lat="48.70773" lon="1.91749">
        <ele>119.2</ele>
        <time>2026-01-30T09:00:34Z</time>
      </trkpt>
      <trkpt lat="48.70776" lon="1.9174">
        <ele>118.6</ele>
        <time>2026-01-30T09:00:35Z</time>
      </trkpt>
      <trkpt lat="48.70778" lon="1.91732">
        <ele>118.8</ele>
        <time>2026-01-30T09:00:36Z</time>
      </trkpt>
      <trkpt lat="48.70781" lon="1.91723">
        <ele>118.8</ele>
        <time>2026-01-30T09:00:37Z</time>
      </trkpt>
      <trkpt lat="48.70783" lon="1.91715">
        <ele>118.8</ele>
        <time>2026-01-30T09:00:38Z</time>
      </trkpt>
      <trkpt lat="48.70785" lon="1.91706">
        <ele>118.8</ele>
        <time>2026-01-30T09:00:39Z</time>
      </trkpt>
      <trkpt lat="48.70787" lon="1.91697">
        <ele>119</ele>
        <time>2026-01-30T09:00:40Z</time>
      </trkpt>
      <trkpt lat="48.70788" lon="1.91688">
        <ele>119</ele>
        <time>2026-01-30T09:00:41Z</time>
      </trkpt>
      <trkpt lat="48.7079" lon="1.91679">
        <ele>119</ele>
        <time>2026-01-30T09:00:42Z</time>
      </trkpt>
      <trkpt lat="48.70792" lon="1.9167">
        <ele>119</ele>
        <time>2026-01-30T09:00:43Z</time>
      </trkpt>
      <trkpt lat="48.70794" lon="1.9166">
        <ele>119</ele>
        <time>2026-01-30T09:00:44Z</time>
      </trkpt>
      <trkpt lat="48.70796" lon="1.91651">
        <ele>119</ele>
        <time>2026-01-30T09:00:45Z</time>
      </trkpt>
      <trkpt lat="48.70797" lon="1.91642">
        <ele>119</ele>
        <time>2026-01-30T09:00:46Z</time>
      </trkpt>
      <trkpt lat="48.70799" lon="1.91632">
        <ele>119</ele>
        <time>2026-01-30T09:00:47Z</time>
      </trkpt>
      <trkpt lat="48.70801" lon="1.91623">
        <ele>118.8</ele>
        <time>2026-01-30T09:00:48Z</time>
      </trkpt>
      <trkpt lat="48.70802" lon="1.91613">
        <ele>118.8</ele>
        <time>2026-01-30T09:00:49Z</time>
      </trkpt>
      <trkpt lat="48.70804" lon="1.91604">
        <ele>118.8</ele>
        <time>2026-01-30T09:00:50Z</time>
      </trkpt>
      <trkpt lat="48.70806" lon="1.91594">
        <ele>118.4</ele>
        <time>2026-01-30T09:00:51Z</time>
      </trkpt>
      <trkpt lat="48.70807" lon="1.91585">
        <ele>118.2</ele>
        <time>2026-01-30T09:00:52Z</time>
      </trkpt>
      <trkpt lat="48.70809" lon="1.91575">
        <ele>118.2</ele>
        <time>2026-01-30T09:00:53Z</time>
      </trkpt>
      <trkpt lat="48.70811" lon="1.91566">
        <ele>118.2</ele>
        <time>2026-01-30T09:00:54Z</time>
      </trkpt>
      <trkpt lat="48.70813" lon="1.91557">
        <ele>118.2</ele>
        <time>2026-01-30T09:00:55Z</time>
      </trkpt>
      <trkpt lat="48.70815" lon="1.91547">
        <ele>118.4</ele>
        <time>2026-01-30T09:00:56Z</time>
      </trkpt>
      <trkpt lat="48.70817" lon="1.91538">
        <ele>118.4</ele>
        <time>2026-01-30T09:00:57Z</time>
      </trkpt>
      <trkpt lat="48.7082" lon="1.91528">
        <ele>118.4</ele>
        <time>2026-01-30T09:00:58Z</time>
      </trkpt>
      <trkpt lat="48.70823" lon="1.91519">
        <ele>118.4</ele>
        <time>2026-01-30T09:00:59Z</time>
      </trkpt>
      <trkpt lat="48.70826" lon="1.9151">
        <ele>117.8</ele>
        <time>2026-01-30T09:01:00Z</time>
      </trkpt>
      <trkpt lat="48.70829" lon="1.91501">
        <ele>117.8</ele>
        <time>2026-01-30T09:01:01Z</time>
      </trkpt>
      <trkpt lat="48.70833" lon="1.91492">
        <ele>117.8</ele>
        <time>2026-01-30T09:01:02Z</time>
      </trkpt>
      <trkpt lat="48.70836" lon="1.91483">
        <ele>117.8</ele>
        <time>2026-01-30T09:01:03Z</time>
      </trkpt>
      <trkpt lat="48.7084" lon="1.91475">
        <ele>117.6</ele>
        <time>2026-01-30T09:01:04Z</time>
      </trkpt>
      <trkpt lat="48.70845" lon="1.91466">
        <ele>117.6</ele>
        <time>2026-01-30T09:01:05Z</time>
      </trkpt>
      <trkpt lat="48.70849" lon="1.91458">
        <ele>117.6</ele>
        <time>2026-01-30T09:01:06Z</time>
      </trkpt>
      <trkpt lat="48.70854" lon="1.91451">
        <ele>118</ele>
        <time>2026-01-30T09:01:07Z</time>
      </trkpt>
      <trkpt lat="48.70859" lon="1.91443">
        <ele>118.4</ele>
        <time>2026-01-30T09:01:08Z</time>
      </trkpt>
      <trkpt lat="48.70864" lon="1.91436">
        <ele>118.4</ele>
        <time>2026-01-30T09:01:09Z</time>
      </trkpt>
      <trkpt lat="48.70869" lon="1.91429">
        <ele>118.4</ele>
        <time>2026-01-30T09:01:10Z</time>
      </trkpt>
      <trkpt lat="48.70874" lon="1.91421">
        <ele>117.6</ele>
        <time>2026-01-30T09:01:11Z</time>
      </trkpt>
      <trkpt lat="48.70879" lon="1.91414">
        <ele>117.4</ele>
        <time>2026-01-30T09:01:12Z</time>
      </trkpt>
      <trkpt lat="48.70885" lon="1.91406">
        <ele>117.4</ele>
        <time>2026-01-30T09:01:13Z</time>
      </trkpt>
      <trkpt lat="48.7089" lon="1.91399">
        <ele>117.4</ele>
        <time>2026-01-30T09:01:14Z</time>
      </trkpt>
      <trkpt lat="48.70896" lon="1.91392">
        <ele>117.4</ele>
        <time>2026-01-30T09:01:15Z</time>
      </trkpt>
      <trkpt lat="48.70901" lon="1.91384">
        <ele>117.2</ele>
        <time>2026-01-30T09:01:16Z</time>
      </trkpt>
      <trkpt lat="48.70907" lon="1.91377">
        <ele>117.2</ele>
        <time>2026-01-30T09:01:17Z</time>
      </trkpt>
      <trkpt lat="48.70913" lon="1.91369">
        <ele>117.2</ele>
        <time>2026-01-30T09:01:18Z</time>
      </trkpt>
      <trkpt lat="48.70919" lon="1.91361">
        <ele>117.6</ele>
        <time>2026-01-30T09:01:19Z</time>
      </trkpt>
      <trkpt lat="48.70924" lon="1.91353">
        <ele>116.6</ele>
        <time>2026-01-30T09:01:20Z</time>
      </trkpt>
      <trkpt lat="48.7093" lon="1.91345">
        <ele>116.6</ele>
        <time>2026-01-30T09:01:21Z</time>
      </trkpt>
      <trkpt lat="48.70936" lon="1.91336">
        <ele>116.6</ele>
        <time>2026-01-30T09:01:22Z</time>
      </trkpt>
      <trkpt lat="48.70941" lon="1.91327">
        <ele>116.6</ele>
        <time>2026-01-30T09:01:23Z</time>
      </trkpt>
      <trkpt lat="48.70946" lon="1.91318">
        <ele>115.2</ele>
        <time>2026-01-30T09:01:24Z</time>
      </trkpt>
      <trkpt lat="48.7095" lon="1.91308">
        <ele>115.2</ele>
        <time>2026-01-30T09:01:25Z</time>
      </trkpt>
      <trkpt lat="48.70954" lon="1.91299">
        <ele>115.2</ele>
        <time>2026-01-30T09:01:26Z</time>
      </trkpt>
      <trkpt lat="48.70958" lon="1.91289">
        <ele>115.2</ele>
        <time>2026-01-30T09:01:27Z</time>
      </trkpt>
      <trkpt lat="48.70962" lon="1.91279">
        <ele>114.8</ele>
        <time>2026-01-30T09:01:28Z</time>
      </trkpt>
      <trkpt lat="48.70966" lon="1.91269">
        <ele>114.8</ele>
        <time>2026-01-30T09:01:29Z</time>
      </trkpt>
      <trkpt lat="48.7097" lon="1.9126">
        <ele>114.8</ele>
        <time>2026-01-30T09:01:30Z</time>
      </trkpt>
      <trkpt lat="48.70973" lon="1.9125">
        <ele>115.2</ele>
        <time>2026-01-30T09:01:31Z</time>
      </trkpt>
      <trkpt lat="48.70976" lon="1.91241">
        <ele>115.4</ele>
        <time>2026-01-30T09:01:32Z</time>
      </trkpt>
      <trkpt lat="48.70979" lon="1.91231">
        <ele>115.4</ele>
        <time>2026-01-30T09:01:33Z</time>
      </trkpt>
      <trkpt lat="48.70983" lon="1.91221">
        <ele>115.4</ele>
        <time>2026-01-30T09:01:34Z</time>
      </trkpt>
      <trkpt lat="48.70986" lon="1.91212">
        <ele>115.4</ele>
        <time>2026-01-30T09:01:35Z</time>
      </trkpt>
      <trkpt lat="48.70989" lon="1.91202">
        <ele>116</ele>
        <time>2026-01-30T09:01:36Z</time>
      </trkpt>
      <trkpt lat="48.70991" lon="1.91192">
        <ele>116</ele>
        <time>2026-01-30T09:01:37Z</time>
      </trkpt>
      <trkpt lat="48.70994" lon="1.91182">
        <ele>116</ele>
        <time>2026-01-30T09:01:38Z</time>
      </trkpt>
      <trkpt lat="48.70997" lon="1.91172">
        <ele>116</ele>
        <time>2026-01-30T09:01:39Z</time>
      </trkpt>
      <trkpt lat="48.70999" lon="1.91162">
        <ele>114.6</ele>
        <time>2026-01-30T09:01:40Z</time>
      </trkpt>
      <trkpt lat="48.71001" lon="1.91151">
        <ele>114.6</ele>
        <time>2026-01-30T09:01:41Z</time>
      </trkpt>
      <trkpt lat="48.71004" lon="1.9114">
        <ele>114.6</ele>
        <time>2026-01-30T09:01:42Z</time>
      </trkpt>
      <trkpt lat="48.71006" lon="1.91129">
        <ele>114.6</ele>
        <time>2026-01-30T09:01:43Z</time>
      </trkpt>
      <trkpt lat="48.71008" lon="1.91119">
        <ele>115.4</ele>
        <time>2026-01-30T09:01:44Z</time>
      </trkpt>
      <trkpt lat="48.7101" lon="1.91108">
        <ele>115.4</ele>
        <time>2026-01-30T09:01:45Z</time>
      </trkpt>
      <trkpt lat="48.71013" lon="1.91097">
        <ele>115.4</ele>
        <time>2026-01-30T09:01:46Z</time>
      </trkpt>
      <trkpt lat="48.71015" lon="1.91086">
        <ele>114.4</ele>
        <time>2026-01-30T09:01:47Z</time>
      </trkpt>
      <trkpt lat="48.71017" lon="1.91075">
        <ele>113.6</ele>
        <time>2026-01-30T09:01:48Z</time>
      </trkpt>
      <trkpt lat="48.7102" lon="1.91063">
        <ele>113.6</ele>
        <time>2026-01-30T09:01:49Z</time>
      </trkpt>
      <trkpt lat="48.71022" lon="1.91052">
        <ele>113.6</ele>
        <time>2026-01-30T09:01:50Z</time>
      </trkpt>
      <trkpt lat="48.71025" lon="1.91041">
        <ele>112.6</ele>
        <time>2026-01-30T09:01:51Z</time>
      </trkpt>
      <trkpt lat="48.71027" lon="1.91029">
        <ele>112.2</ele>
        <time>2026-01-30T09:01:52Z</time>
      </trkpt>
      <trkpt lat="48.7103" lon="1.91018">
        <ele>112.2</ele>
        <time>2026-01-30T09:01:53Z</time>
      </trkpt>
      <trkpt lat="48.71033" lon="1.91006">
        <ele>112.2</ele>
        <time>2026-01-30T09:01:54Z</time>
      </trkpt>
      <trkpt lat="48.71035" lon="1.90995">
        <ele>111.6</ele>
        <time>2026-01-30T09:01:55Z</time>
      </trkpt>
      <trkpt lat="48.71038" lon="1.90984">
        <ele>112.4</ele>
        <time>2026-01-30T09:01:56Z</time>
      </trkpt>
      <trkpt lat="48.71041" lon="1.90973">
        <ele>112.4</ele>
        <time>2026-01-30T09:01:57Z</time>
      </trkpt>
      <trkpt lat="48.71043" lon="1.90961">
        <ele>112.4</ele>
        <time>2026-01-30T09:01:58Z</time>
      </trkpt>
      <trkpt lat="48.71046" lon="1.9095">
        <ele>112</ele>
        <time>2026-01-30T09:01:59Z</time>
      </trkpt>
      <trkpt lat="48.71049" lon="1.90939">
        <ele>112</ele>
        <time>2026-01-30T09:02:00Z</time>
      </trkpt>
      <trkpt lat="48.71051" lon="1.90928">
        <ele>112</ele>
        <time>2026-01-30T09:02:01Z</time>
      </trkpt>
      <trkpt lat="48.71054" lon="1.90918">
        <ele>112</ele>
        <time>2026-01-30T09:02:02Z</time>
      </trkpt>
      <trkpt lat="48.71057" lon="1.90908">
        <ele>112.4</ele>
        <time>2026-01-30T09:02:03Z</time>
      </trkpt>
      <trkpt lat="48.71059" lon="1.90898">
        <ele>112.6</ele>
        <time>2026-01-30T09:02:04Z</time>
      </trkpt>
      <trkpt lat="48.71062" lon="1.90887">
        <ele>112.6</ele>
        <time>2026-01-30T09:02:05Z</time>
      </trkpt>
      <trkpt lat="48.71064" lon="1.90877">
        <ele>112.6</ele>
        <time>2026-01-30T09:02:06Z</time>
      </trkpt>
      <trkpt lat="48.71066" lon="1.90867">
        <ele>112.6</ele>
        <time>2026-01-30T09:02:07Z</time>
      </trkpt>
      <trkpt lat="48.71068" lon="1.90856">
        <ele>113.2</ele>
        <time>2026-01-30T09:02:08Z</time>
      </trkpt>
      <trkpt lat="48.7107" lon="1.90846">
        <ele>113.2</ele>
        <time>2026-01-30T09:02:09Z</time>
      </trkpt>
      <trkpt lat="48.71072" lon="1.90836">
        <ele>113.2</ele>
        <time>2026-01-30T09:02:10Z</time>
      </trkpt>
      <trkpt lat="48.71074" lon="1.90826">
        <ele>112.6</ele>
        <time>2026-01-30T09:02:11Z</time>
      </trkpt>
      <trkpt lat="48.71077" lon="1.90816">
        <ele>111.8</ele>
        <time>2026-01-30T09:02:12Z</time>
      </trkpt>
      <trkpt lat="48.71079" lon="1.90807">
        <ele>111.8</ele>
        <time>2026-01-30T09:02:13Z</time>
      </trkpt>
      <trkpt lat="48.71082" lon="1.90799">
        <ele>111.8</ele>
        <time>2026-01-30T09:02:14Z</time>
      </trkpt>
      <trkpt lat="48.71084" lon="1.9079">
        <ele>112.8</ele>
        <time>2026-01-30T09:02:15Z</time>
      </trkpt>
      <trkpt lat="48.71086" lon="1.90782">
        <ele>115</ele>
        <time>2026-01-30T09:02:16Z</time>
      </trkpt>
      <trkpt lat="48.71088" lon="1.90773">
        <ele>115</ele>
        <time>2026-01-30T09:02:17Z</time>
      </trkpt>
      <trkpt lat="48.7109" lon="1.90765">
        <ele>115</ele>
        <time>2026-01-30T09:02:18Z</time>
      </trkpt>
      <trkpt lat="48.71092" lon="1.90756">
        <ele>115</ele>
        <time>2026-01-30T09:02:19Z</time>
      </trkpt>
      <trkpt lat="48.71094" lon="1.90747">
        <ele>115.2</ele>
        <time>2026-01-30T09:02:20Z</time>
      </trkpt>
      <trkpt lat="48.71096" lon="1.9074">
        <ele>115.2</ele>
        <time>2026-01-30T09:02:21Z</time>
      </trkpt>
      <trkpt lat="48.71098" lon="1.90732">
        <ele>115.2</ele>
        <time>2026-01-30T09:02:22Z</time>
      </trkpt>
      <trkpt lat="48.71099" lon="1.90724">
        <ele>115.4</ele>
        <time>2026-01-30T09:02:23Z</time>
      </trkpt>
      <trkpt lat="48.71101" lon="1.90717">
        <ele>115.8</ele>
        <time>2026-01-30T09:02:24Z</time>
      </trkpt>
      <trkpt lat="48.71102" lon="1.9071">
        <ele>115.8</ele>
        <time>2026-01-30T09:02:25Z</time>
      </trkpt>
      <trkpt lat="48.71102" lon="1.90701">
        <ele>115.8</ele>
        <time>2026-01-30T09:02:26Z</time>
      </trkpt>
      <trkpt lat="48.71104" lon="1.90694">
        <ele>116.2</ele>
        <time>2026-01-30T09:02:27Z</time>
      </trkpt>
      <trkpt lat="48.71104" lon="1.90685">
        <ele>116.4</ele>
        <time>2026-01-30T09:02:28Z</time>
      </trkpt>
      <trkpt lat="48.71104" lon="1.90677">
        <ele>116.4</ele>
        <time>2026-01-30T09:02:29Z</time>
      </trkpt>
      <trkpt lat="48.71105" lon="1.90667">
        <ele>116.4</ele>
        <time>2026-01-30T09:02:30Z</time>
      </trkpt>
      <trkpt lat="48.71105" lon="1.90658">
        <ele>116</ele>
        <time>2026-01-30T09:02:31Z</time>
      </trkpt>
      <trkpt lat="48.71106" lon="1.90648">
        <ele>115.4</ele>
        <time>2026-01-30T09:02:32Z</time>
      </trkpt>
      <trkpt lat="48.71106" lon="1.90638">
        <ele>115.4</ele>
        <time>2026-01-30T09:02:33Z</time>
      </trkpt>
      <trkpt lat="48.71106" lon="1.90628">
        <ele>115.4</ele>
        <time>2026-01-30T09:02:34Z</time>
      </trkpt>
      <trkpt lat="48.71106" lon="1.90618">
        <ele>116.4</ele>
        <time>2026-01-30T09:02:35Z</time>
      </trkpt>
      <trkpt lat="48.71106" lon="1.90608">
        <ele>117.2</ele>
        <time>2026-01-30T09:02:36Z</time>
      </trkpt>
      <trkpt lat="48.71107" lon="1.90598">
        <ele>117.2</ele>
        <time>2026-01-30T09:02:37Z</time>
      </trkpt>
      <trkpt lat="48.71107" lon="1.90589">
        <ele>117.2</ele>
        <time>2026-01-30T09:02:38Z</time>
      </trkpt>
      <trkpt lat="48.71107" lon="1.90579">
        <ele>117.2</ele>
        <time>2026-01-30T09:02:39Z</time>
      </trkpt>
      <trkpt lat="48.71108" lon="1.90569">
        <ele>117.2</ele>
        <time>2026-01-30T09:02:40Z</time>
      </trkpt>
      <trkpt lat="48.71108" lon="1.90559">
        <ele>117.2</ele>
        <time>2026-01-30T09:02:41Z</time>
      </trkpt>
      <trkpt lat="48.71109" lon="1.90549">
        <ele>117.2</ele>
        <time>2026-01-30T09:02:42Z</time>
      </trkpt>
      <trkpt lat="48.71109" lon="1.90538">
        <ele>117</ele>
        <time>2026-01-30T09:02:43Z</time>
      </trkpt>
      <trkpt lat="48.71109" lon="1.90529">
        <ele>116.8</ele>
        <time>2026-01-30T09:02:44Z</time>
      </trkpt>
      <trkpt lat="48.71109" lon="1.90519">
        <ele>116.8</ele>
        <time>2026-01-30T09:02:45Z</time>
      </trkpt>
      <trkpt lat="48.7111" lon="1.9051">
        <ele>116.8</ele>
        <time>2026-01-30T09:02:46Z</time>
      </trkpt>
      <trkpt lat="48.71111" lon="1.90502">
        <ele>116.8</ele>
        <time>2026-01-30T09:02:47Z</time>
      </trkpt>
      <trkpt lat="48.71112" lon="1.90493">
        <ele>116.6</ele>
        <time>2026-01-30T09:02:48Z</time>
      </trkpt>
      <trkpt lat="48.71113" lon="1.90485">
        <ele>116.6</ele>
        <time>2026-01-30T09:02:49Z</time>
      </trkpt>
      <trkpt lat="48.71115" lon="1.90476">
        <ele>116.6</ele>
        <time>2026-01-30T09:02:50Z</time>
      </trkpt>
      <trkpt lat="48.71117" lon="1.90467">
        <ele>117.6</ele>
        <time>2026-01-30T09:02:51Z</time>
      </trkpt>
      <trkpt lat="48.71119" lon="1.90459">
        <ele>117.4</ele>
        <time>2026-01-30T09:02:52Z</time>
      </trkpt>
      <trkpt lat="48.71121" lon="1.9045">
        <ele>117.4</ele>
        <time>2026-01-30T09:02:53Z</time>
      </trkpt>
      <trkpt lat="48.71124" lon="1.90443">
        <ele>117.4</ele>
        <time>2026-01-30T09:02:54Z</time>
      </trkpt>
      <trkpt lat="48.71127" lon="1.90435">
        <ele>117.4</ele>
        <time>2026-01-30T09:02:55Z</time>
      </trkpt>
      <trkpt lat="48.71131" lon="1.90427">
        <ele>117.2</ele>
        <time>2026-01-30T09:02:56Z</time>
      </trkpt>
      <trkpt lat="48.71135" lon="1.90421">
        <ele>117.2</ele>
        <time>2026-01-30T09:02:57Z</time>
      </trkpt>
      <trkpt lat="48.71139" lon="1.90413">
        <ele>117.2</ele>
        <time>2026-01-30T09:02:58Z</time>
      </trkpt>
      <trkpt lat="48.71143" lon="1.90407">
        <ele>117.2</ele>
        <time>2026-01-30T09:02:59Z</time>
      </trkpt>
      <trkpt lat="48.71147" lon="1.904">
        <ele>117.6</ele>
        <time>2026-01-30T09:03:00Z</time>
      </trkpt>
      <trkpt lat="48.71151" lon="1.90394">
        <ele>117.6</ele>
        <time>2026-01-30T09:03:01Z</time>
      </trkpt>
      <trkpt lat="48.71156" lon="1.90387">
        <ele>117.6</ele>
        <time>2026-01-30T09:03:02Z</time>
      </trkpt>
      <trkpt lat="48.7116" lon="1.90379">
        <ele>117.4</ele>
        <time>2026-01-30T09:03:03Z</time>
      </trkpt>
      <trkpt lat="48.71164" lon="1.90372">
        <ele>117.4</ele>
        <time>2026-01-30T09:03:04Z</time>
      </trkpt>
      <trkpt lat="48.71168" lon="1.90364">
        <ele>117.4</ele>
        <time>2026-01-30T09:03:05Z</time>
      </trkpt>
      <trkpt lat="48.71172" lon="1.90357">
        <ele>117.4</ele>
        <time>2026-01-30T09:03:06Z</time>
      </trkpt>
      <trkpt lat="48.71176" lon="1.90349">
        <ele>117.4</ele>
        <time>2026-01-30T09:03:07Z</time>
      </trkpt>
      <trkpt lat="48.71181" lon="1.90342">
        <ele>117.6</ele>
        <time>2026-01-30T09:03:08Z</time>
      </trkpt>
      <trkpt lat="48.71185" lon="1.90334">
        <ele>117.6</ele>
        <time>2026-01-30T09:03:09Z</time>
      </trkpt>
      <trkpt lat="48.71189" lon="1.90326">
        <ele>117.6</ele>
        <time>2026-01-30T09:03:10Z</time>
      </trkpt>
      <trkpt lat="48.71193" lon="1.90319">
        <ele>117.6</ele>
        <time>2026-01-30T09:03:11Z</time>
      </trkpt>
      <trkpt lat="48.71197" lon="1.9031">
        <ele>118.2</ele>
        <time>2026-01-30T09:03:12Z</time>
      </trkpt>
      <trkpt lat="48.71201" lon="1.903">
        <ele>118.2</ele>
        <time>2026-01-30T09:03:13Z</time>
      </trkpt>
      <trkpt lat="48.71205" lon="1.90291">
        <ele>118.2</ele>
        <time>2026-01-30T09:03:14Z</time>
      </trkpt>
      <trkpt lat="48.71209" lon="1.90282">
        <ele>117.8</ele>
        <time>2026-01-30T09:03:15Z</time>
      </trkpt>
      <trkpt lat="48.71213" lon="1.90274">
        <ele>117.6</ele>
        <time>2026-01-30T09:03:16Z</time>
      </trkpt>
      <trkpt lat="48.71217" lon="1.90266">
        <ele>117.6</ele>
        <time>2026-01-30T09:03:17Z</time>
      </trkpt>
      <trkpt lat="48.7122" lon="1.90257">
        <ele>117.6</ele>
        <time>2026-01-30T09:03:18Z</time>
      </trkpt>
      <trkpt lat="48.71224" lon="1.90247">
        <ele>116.6</ele>
        <time>2026-01-30T09:03:19Z</time>
      </trkpt>
      <trkpt lat="48.71227" lon="1.90237">
        <ele>116.6</ele>
        <time>2026-01-30T09:03:20Z</time>
      </trkpt>
      <trkpt lat="48.7123" lon="1.90227">
        <ele>116.6</ele>
        <time>2026-01-30T09:03:21Z</time>
      </trkpt>
      <trkpt lat="48.71232" lon="1.90215">
        <ele>116.6</ele>
        <time>2026-01-30T09:03:22Z</time>
      </trkpt>
      <trkpt lat="48.71235" lon="1.90204">
        <ele>116.4</ele>
        <time>2026-01-30T09:03:23Z</time>
      </trkpt>
      <trkpt lat="48.71237" lon="1.90192">
        <ele>116</ele>
        <time>2026-01-30T09:03:24Z</time>
      </trkpt>
      <trkpt lat="48.7124" lon="1.9018">
        <ele>116</ele>
        <time>2026-01-30T09:03:25Z</time>
      </trkpt>
      <trkpt lat="48.71242" lon="1.90168">
        <ele>116</ele>
        <time>2026-01-30T09:03:26Z</time>
      </trkpt>
      <trkpt lat="48.71244" lon="1.90157">
        <ele>116</ele>
        <time>2026-01-30T09:03:27Z</time>
      </trkpt>
      <trkpt lat="48.71247" lon="1.90146">
        <ele>116</ele>
        <time>2026-01-30T09:03:28Z</time>
      </trkpt>
      <trkpt lat="48.71249" lon="1.90135">
        <ele>116</ele>
        <time>2026-01-30T09:03:29Z</time>
      </trkpt>
      <trkpt lat="48.71251" lon="1.90124">
        <ele>116</ele>
        <time>2026-01-30T09:03:30Z</time>
      </trkpt>
      <trkpt lat="48.71252" lon="1.90113">
        <ele>116</ele>
        <time>2026-01-30T09:03:31Z</time>
      </trkpt>
      <trkpt lat="48.71254" lon="1.90101">
        <ele>116</ele>
        <time>2026-01-30T09:03:32Z</time>
      </trkpt>
      <trkpt lat="48.71255" lon="1.90089">
        <ele>116</ele>
        <time>2026-01-30T09:03:33Z</time>
      </trkpt>
      <trkpt lat="48.71257" lon="1.90078">
        <ele>116</ele>
        <time>2026-01-30T09:03:34Z</time>
      </trkpt>
      <trkpt lat="48.71258" lon="1.90066">
        <ele>116</ele>
        <time>2026-01-30T09:03:35Z</time>
      </trkpt>
      <trkpt lat="48.71259" lon="1.90056">
        <ele>115</ele>
        <time>2026-01-30T09:03:36Z</time>
      </trkpt>
      <trkpt lat="48.7126" lon="1.90045">
        <ele>115</ele>
        <time>2026-01-30T09:03:37Z</time>
      </trkpt>
      <trkpt lat="48.71261" lon="1.90035">
        <ele>115</ele>
        <time>2026-01-30T09:03:38Z</time>
      </trkpt>
      <trkpt lat="48.71263" lon="1.90026">
        <ele>116</ele>
        <time>2026-01-30T09:03:39Z</time>
      </trkpt>
      <trkpt lat="48.71264" lon="1.90015">
        <ele>117</ele>
        <time>2026-01-30T09:03:40Z</time>
      </trkpt>
      <trkpt lat="48.71265" lon="1.90005">
        <ele>117</ele>
        <time>2026-01-30T09:03:41Z</time>
      </trkpt>
      <trkpt lat="48.71266" lon="1.89995">
        <ele>117</ele>
        <time>2026-01-30T09:03:42Z</time>
      </trkpt>
      <trkpt lat="48.71267" lon="1.89985">
        <ele>117</ele>
        <time>2026-01-30T09:03:43Z</time>
      </trkpt>
      <trkpt lat="48.71268" lon="1.89974">
        <ele>116.6</ele>
        <time>2026-01-30T09:03:44Z</time>
      </trkpt>
      <trkpt lat="48.71269" lon="1.89964">
        <ele>116.6</ele>
        <time>2026-01-30T09:03:45Z</time>
      </trkpt>
      <trkpt lat="48.7127" lon="1.89953">
        <ele>116.6</ele>
        <time>2026-01-30T09:03:46Z</time>
      </trkpt>
      <trkpt lat="48.71271" lon="1.89943">
        <ele>115.6</ele>
        <time>2026-01-30T09:03:47Z</time>
      </trkpt>
      <trkpt lat="48.71272" lon="1.89932">
        <ele>115.8</ele>
        <time>2026-01-30T09:03:48Z</time>
      </trkpt>
      <trkpt lat="48.71273" lon="1.89921">
        <ele>115.8</ele>
        <time>2026-01-30T09:03:49Z</time>
      </trkpt>
      <trkpt lat="48.71274" lon="1.89911">
        <ele>115.8</ele>
        <time>2026-01-30T09:03:50Z</time>
      </trkpt>
      <trkpt lat="48.71275" lon="1.89901">
        <ele>115.6</ele>
        <time>2026-01-30T09:03:51Z</time>
      </trkpt>
      <trkpt lat="48.71276" lon="1.8989">
        <ele>115.6</ele>
        <time>2026-01-30T09:03:52Z</time>
      </trkpt>
      <trkpt lat="48.71277" lon="1.8988">
        <ele>115.6</ele>
        <time>2026-01-30T09:03:53Z</time>
      </trkpt>
      <trkpt lat="48.71278" lon="1.89869">
        <ele>115.6</ele>
        <time>2026-01-30T09:03:54Z</time>
      </trkpt>
      <trkpt lat="48.7128" lon="1.89859">
        <ele>115.6</ele>
        <time>2026-01-30T09:03:55Z</time>
      </trkpt>
      <trkpt lat="48.71281" lon="1.89848">
        <ele>115.6</ele>
        <time>2026-01-30T09:03:56Z</time>
      </trkpt>
      <trkpt lat="48.71282" lon="1.89837">
        <ele>115.6</ele>
        <time>2026-01-30T09:03:57Z</time>
      </trkpt>
      <trkpt lat="48.71284" lon="1.89827">
        <ele>115.6</ele>
        <time>2026-01-30T09:03:58Z</time>
      </trkpt>
      <trkpt lat="48.71286" lon="1.89816">
        <ele>115.6</ele>
        <time>2026-01-30T09:03:59Z</time>
      </trkpt>
      <trkpt lat="48.71287" lon="1.89805">
        <ele>115.4</ele>
        <time>2026-01-30T09:04:00Z</time>
      </trkpt>
      <trkpt lat="48.71289" lon="1.89795">
        <ele>115.4</ele>
        <time>2026-01-30T09:04:01Z</time>
      </trkpt>
      <trkpt lat="48.71291" lon="1.89784">
        <ele>115.4</ele>
        <time>2026-01-30T09:04:02Z</time>
      </trkpt>
      <trkpt lat="48.71293" lon="1.89773">
        <ele>114.6</ele>
        <time>2026-01-30T09:04:03Z</time>
      </trkpt>
      <trkpt lat="48.71295" lon="1.89762">
        <ele>114.8</ele>
        <time>2026-01-30T09:04:04Z</time>
      </trkpt>
      <trkpt lat="48.71297" lon="1.89751">
        <ele>114.8</ele>
        <time>2026-01-30T09:04:05Z</time>
      </trkpt>
      <trkpt lat="48.71299" lon="1.8974">
        <ele>114.8</ele>
        <time>2026-01-30T09:04:06Z</time>
      </trkpt>
      <trkpt lat="48.71301" lon="1.89729">
        <ele>114</ele>
        <time>2026-01-30T09:04:07Z</time>
      </trkpt>
      <trkpt lat="48.71303" lon="1.89718">
        <ele>114.4</ele>
        <time>2026-01-30T09:04:08Z</time>
      </trkpt>
      <trkpt lat="48.71306" lon="1.89707">
        <ele>114.4</ele>
        <time>2026-01-30T09:04:09Z</time>
      </trkpt>
      <trkpt lat="48.71309" lon="1.89697">
        <ele>114.4</ele>
        <time>2026-01-30T09:04:10Z</time>
      </trkpt>
      <trkpt lat="48.71313" lon="1.89688">
        <ele>114.4</ele>
        <time>2026-01-30T09:04:11Z</time>
      </trkpt>
      <trkpt lat="48.71316" lon="1.89678">
        <ele>114</ele>
        <time>2026-01-30T09:04:12Z</time>
      </trkpt>
      <trkpt lat="48.71321" lon="1.8967">
        <ele>114</ele>
        <time>2026-01-30T09:04:13Z</time>
      </trkpt>
      <trkpt lat="48.71326" lon="1.89662">
        <ele>114</ele>
        <time>2026-01-30T09:04:14Z</time>
      </trkpt>
      <trkpt lat="48.71331" lon="1.89654">
        <ele>113</ele>
        <time>2026-01-30T09:04:15Z</time>
      </trkpt>
      <trkpt lat="48.71337" lon="1.89647">
        <ele>112.4</ele>
        <time>2026-01-30T09:04:16Z</time>
      </trkpt>
      <trkpt lat="48.71343" lon="1.89639">
        <ele>112.4</ele>
        <time>2026-01-30T09:04:17Z</time>
      </trkpt>
      <trkpt lat="48.71349" lon="1.89631">
        <ele>112.4</ele>
        <time>2026-01-30T09:04:18Z</time>
      </trkpt>
      <trkpt lat="48.71357" lon="1.89623">
        <ele>111.4</ele>
        <time>2026-01-30T09:04:19Z</time>
      </trkpt>
      <trkpt lat="48.71365" lon="1.89619">
        <ele>109.4</ele>
        <time>2026-01-30T09:04:20Z</time>
      </trkpt>
      <trkpt lat="48.71373" lon="1.89616">
        <ele>109.4</ele>
        <time>2026-01-30T09:04:21Z</time>
      </trkpt>
      <trkpt lat="48.71381" lon="1.89612">
        <ele>109.4</ele>
        <time>2026-01-30T09:04:22Z</time>
      </trkpt>
      <trkpt lat="48.71389" lon="1.89608">
        <ele>110.4</ele>
        <time>2026-01-30T09:04:23Z</time>
      </trkpt>
      <trkpt lat="48.71397" lon="1.89602">
        <ele>111</ele>
        <time>2026-01-30T09:04:24Z</time>
      </trkpt>
      <trkpt lat="48.71405" lon="1.89597">
        <ele>111</ele>
        <time>2026-01-30T09:04:25Z</time>
      </trkpt>
      <trkpt lat="48.71414" lon="1.89595">
        <ele>111</ele>
        <time>2026-01-30T09:04:26Z</time>
      </trkpt>
      <trkpt lat="48.71423" lon="1.89595">
        <ele>110.2</ele>
        <time>2026-01-30T09:04:27Z</time>
      </trkpt>
      <trkpt lat="48.71432" lon="1.89596">
        <ele>110.2</ele>
        <time>2026-01-30T09:04:28Z</time>
      </trkpt>
      <trkpt lat="48.71441" lon="1.89598">
        <ele>110.2</ele>
        <time>2026-01-30T09:04:29Z</time>
      </trkpt>
      <trkpt lat="48.7145" lon="1.896">
        <ele>110.2</ele>
        <time>2026-01-30T09:04:30Z</time>
      </trkpt>
      <trkpt lat="48.71458" lon="1.89602">
        <ele>110.2</ele>
        <time>2026-01-30T09:04:31Z</time>
      </trkpt>
      <trkpt lat="48.71466" lon="1.89604">
        <ele>110.4</ele>
        <time>2026-01-30T09:04:32Z</time>
      </trkpt>
      <trkpt lat="48.71474" lon="1.89605">
        <ele>110.4</ele>
        <time>2026-01-30T09:04:33Z</time>
      </trkpt>
      <trkpt lat="48.7148" lon="1.89605">
        <ele>110.4</ele>
        <time>2026-01-30T09:04:34Z</time>
      </trkpt>
      <trkpt lat="48.71486" lon="1.89603">
        <ele>110.4</ele>
        <time>2026-01-30T09:04:35Z</time>
      </trkpt>
      <trkpt lat="48.71492" lon="1.89601">
        <ele>111.4</ele>
        <time>2026-01-30T09:04:36Z</time>
      </trkpt>
      <trkpt lat="48.71498" lon="1.89598">
        <ele>111.4</ele>
        <time>2026-01-30T09:04:37Z</time>
      </trkpt>
      <trkpt lat="48.71503" lon="1.89595">
        <ele>111.4</ele>
        <time>2026-01-30T09:04:38Z</time>
      </trkpt>
      <trkpt lat="48.71509" lon="1.89591">
        <ele>111.4</ele>
        <time>2026-01-30T09:04:39Z</time>
      </trkpt>
      <trkpt lat="48.71514" lon="1.89587">
        <ele>112.2</ele>
        <time>2026-01-30T09:04:40Z</time>
      </trkpt>
      <trkpt lat="48.71518" lon="1.89583">
        <ele>112.2</ele>
        <time>2026-01-30T09:04:41Z</time>
      </trkpt>
      <trkpt lat="48.71523" lon="1.8958">
        <ele>112.2</ele>
        <time>2026-01-30T09:04:42Z</time>
      </trkpt>
      <trkpt lat="48.71527" lon="1.89579">
        <ele>113.2</ele>
        <time>2026-01-30T09:04:43Z</time>
      </trkpt>
      <trkpt lat="48.71531" lon="1.8958">
        <ele>113.8</ele>
        <time>2026-01-30T09:04:44Z</time>
      </trkpt>
      <trkpt lat="48.71535" lon="1.89581">
        <ele>113.8</ele>
        <time>2026-01-30T09:04:45Z</time>
      </trkpt>
      <trkpt lat="48.71539" lon="1.89582">
        <ele>113.8</ele>
        <time>2026-01-30T09:04:46Z</time>
      </trkpt>
      <trkpt lat="48.71542" lon="1.89581">
        <ele>114.4</ele>
        <time>2026-01-30T09:04:47Z</time>
      </trkpt>
      <trkpt lat="48.71546" lon="1.8958">
        <ele>113.6</ele>
        <time>2026-01-30T09:04:48Z</time>
      </trkpt>
      <trkpt lat="48.7155" lon="1.89579">
        <ele>113.6</ele>
        <time>2026-01-30T09:04:49Z</time>
      </trkpt>
      <trkpt lat="48.71554" lon="1.89578">
        <ele>113.6</ele>
        <time>2026-01-30T09:04:50Z</time>
      </trkpt>
      <trkpt lat="48.71558" lon="1.89577">
        <ele>114.2</ele>
        <time>2026-01-30T09:04:51Z</time>
      </trkpt>
      <trkpt lat="48.71563" lon="1.89576">
        <ele>115</ele>
        <time>2026-01-30T09:04:52Z</time>
      </trkpt>
      <trkpt lat="48.71568" lon="1.89576">
        <ele>115</ele>
        <time>2026-01-30T09:04:53Z</time>
      </trkpt>
      <trkpt lat="48.71573" lon="1.89575">
        <ele>115</ele>
        <time>2026-01-30T09:04:54Z</time>
      </trkpt>
      <trkpt lat="48.71578" lon="1.89576">
        <ele>115</ele>
        <time>2026-01-30T09:04:55Z</time>
      </trkpt>
      <trkpt lat="48.71583" lon="1.89576">
        <ele>116</ele>
        <time>2026-01-30T09:04:56Z</time>
      </trkpt>
      <trkpt lat="48.71587" lon="1.89577">
        <ele>116</ele>
        <time>2026-01-30T09:04:57Z</time>
      </trkpt>
      <trkpt lat="48.71592" lon="1.89577">
        <ele>116</ele>
        <time>2026-01-30T09:04:58Z</time>
      </trkpt>
      <trkpt lat="48.71596" lon="1.89578">
        <ele>116.6</ele>
        <time>2026-01-30T09:04:59Z</time>
      </trkpt>
      <trkpt lat="48.71601" lon="1.89579">
        <ele>117</ele>
        <time>2026-01-30T09:05:00Z</time>
      </trkpt>
      <trkpt lat="48.71606" lon="1.89579">
        <ele>117</ele>
        <time>2026-01-30T09:05:01Z</time>
      </trkpt>
      <trkpt lat="48.7161" lon="1.8958">
        <ele>117</ele>
        <time>2026-01-30T09:05:02Z</time>
      </trkpt>
      <trkpt lat="48.71615" lon="1.8958">
        <ele>117</ele>
        <time>2026-01-30T09:05:03Z</time>
      </trkpt>
      <trkpt lat="48.7162" lon="1.89581">
        <ele>117.4</ele>
        <time>2026-01-30T09:05:04Z</time>
      </trkpt>
      <trkpt lat="48.71624" lon="1.89582">
        <ele>117.4</ele>
        <time>2026-01-30T09:05:05Z</time>
      </trkpt>
      <trkpt lat="48.71629" lon="1.89582">
        <ele>117.4</ele>
        <time>2026-01-30T09:05:06Z</time>
      </trkpt>
      <trkpt lat="48.71634" lon="1.89583">
        <ele>118</ele>
        <time>2026-01-30T09:05:07Z</time>
      </trkpt>
      <trkpt lat="48.71639" lon="1.89584">
        <ele>117.6</ele>
        <time>2026-01-30T09:05:08Z</time>
      </trkpt>
      <trkpt lat="48.71644" lon="1.89585">
        <ele>117.6</ele>
        <time>2026-01-30T09:05:09Z</time>
      </trkpt>
      <trkpt lat="48.71649" lon="1.89586">
        <ele>117.6</ele>
        <time>2026-01-30T09:05:10Z</time>
      </trkpt>
      <trkpt lat="48.71654" lon="1.89587">
        <ele>117.6</ele>
        <time>2026-01-30T09:05:11Z</time>
      </trkpt>
      <trkpt lat="48.71659" lon="1.89588">
        <ele>118</ele>
        <time>2026-01-30T09:05:12Z</time>
      </trkpt>
      <trkpt lat="48.71664" lon="1.89589">
        <ele>118</ele>
        <time>2026-01-30T09:05:13Z</time>
      </trkpt>
      <trkpt lat="48.71669" lon="1.8959">
        <ele>118</ele>
        <time>2026-01-30T09:05:14Z</time>
      </trkpt>
      <trkpt lat="48.71674" lon="1.89591">
        <ele>118</ele>
        <time>2026-01-30T09:05:15Z</time>
      </trkpt>
      <trkpt lat="48.7168" lon="1.89593">
        <ele>118.4</ele>
        <time>2026-01-30T09:05:16Z</time>
      </trkpt>
      <trkpt lat="48.71685" lon="1.89594">
        <ele>118.4</ele>
        <time>2026-01-30T09:05:17Z</time>
      </trkpt>
      <trkpt lat="48.7169" lon="1.89596">
        <ele>118.4</ele>
        <time>2026-01-30T09:05:18Z</time>
      </trkpt>
      <trkpt lat="48.71695" lon="1.89597">
        <ele>118.4</ele>
        <time>2026-01-30T09:05:19Z</time>
      </trkpt>
      <trkpt lat="48.717" lon="1.89599">
        <ele>118.6</ele>
        <time>2026-01-30T09:05:20Z</time>
      </trkpt>
      <trkpt lat="48.71706" lon="1.896">
        <ele>118.6</ele>
        <time>2026-01-30T09:05:21Z</time>
      </trkpt>
      <trkpt lat="48.71711" lon="1.89602">
        <ele>118.6</ele>
        <time>2026-01-30T09:05:22Z</time>
      </trkpt>
      <trkpt lat="48.71716" lon="1.89603">
        <ele>118.6</ele>
        <time>2026-01-30T09:05:23Z</time>
      </trkpt>
      <trkpt lat="48.71722" lon="1.89605">
        <ele>118.8</ele>
        <time>2026-01-30T09:05:24Z</time>
      </trkpt>
      <trkpt lat="48.71727" lon="1.89607">
        <ele>118.8</ele>
        <time>2026-01-30T09:05:25Z</time>
      </trkpt>
      <trkpt lat="48.71732" lon="1.89609">
        <ele>118.8</ele>
        <time>2026-01-30T09:05:26Z</time>
      </trkpt>
      <trkpt lat="48.71738" lon="1.89611">
        <ele>118.8</ele>
        <time>2026-01-30T09:05:27Z</time>
      </trkpt>
      <trkpt lat="48.71743" lon="1.89612">
        <ele>119.4</ele>
        <time>2026-01-30T09:05:28Z</time>
      </trkpt>
      <trkpt lat="48.71749" lon="1.89614">
        <ele>119.4</ele>
        <time>2026-01-30T09:05:29Z</time>
      </trkpt>
      <trkpt lat="48.71754" lon="1.89616">
        <ele>119.4</ele>
        <time>2026-01-30T09:05:30Z</time>
      </trkpt>
      <trkpt lat="48.7176" lon="1.89619">
        <ele>119.4</ele>
        <time>2026-01-30T09:05:31Z</time>
      </trkpt>
      <trkpt lat="48.71765" lon="1.8962">
        <ele>119.2</ele>
        <time>2026-01-30T09:05:32Z</time>
      </trkpt>
      <trkpt lat="48.71771" lon="1.89622">
        <ele>119.2</ele>
        <time>2026-01-30T09:05:33Z</time>
      </trkpt>
      <trkpt lat="48.71776" lon="1.89623">
        <ele>119.2</ele>
        <time>2026-01-30T09:05:34Z</time>
      </trkpt>
      <trkpt lat="48.71782" lon="1.89624">
        <ele>119.2</ele>
        <time>2026-01-30T09:05:35Z</time>
      </trkpt>
      <trkpt lat="48.71787" lon="1.89625">
        <ele>119.6</ele>
        <time>2026-01-30T09:05:36Z</time>
      </trkpt>
      <trkpt lat="48.71793" lon="1.89627">
        <ele>119.6</ele>
        <time>2026-01-30T09:05:37Z</time>
      </trkpt>
      <trkpt lat="48.71799" lon="1.89628">
        <ele>119.6</ele>
        <time>2026-01-30T09:05:38Z</time>
      </trkpt>
      <trkpt lat="48.71805" lon="1.89629">
        <ele>119.6</ele>
        <time>2026-01-30T09:05:39Z</time>
      </trkpt>
      <trkpt lat="48.7181" lon="1.8963">
        <ele>120.2</ele>
        <time>2026-01-30T09:05:40Z</time>
      </trkpt>
      <trkpt lat="48.71816" lon="1.89631">
        <ele>120.2</ele>
        <time>2026-01-30T09:05:41Z</time>
      </trkpt>
      <trkpt lat="48.71822" lon="1.89633">
        <ele>120.2</ele>
        <time>2026-01-30T09:05:42Z</time>
      </trkpt>
      <trkpt lat="48.71827" lon="1.89634">
        <ele>120.2</ele>
        <time>2026-01-30T09:05:43Z</time>
      </trkpt>
      <trkpt lat="48.71833" lon="1.89635">
        <ele>120</ele>
        <time>2026-01-30T09:05:44Z</time>
      </trkpt>
      <trkpt lat="48.71838" lon="1.89636">
        <ele>120</ele>
        <time>2026-01-30T09:05:45Z</time>
      </trkpt>
      <trkpt lat="48.71843" lon="1.89638">
        <ele>120</ele>
        <time>2026-01-30T09:05:46Z</time>
      </trkpt>
      <trkpt lat="48.71848" lon="1.89639">
        <ele>120.4</ele>
        <time>2026-01-30T09:05:47Z</time>
      </trkpt>
      <trkpt lat="48.71853" lon="1.89641">
        <ele>121</ele>
        <time>2026-01-30T09:05:48Z</time>
      </trkpt>
      <trkpt lat="48.71857" lon="1.89643">
        <ele>121</ele>
        <time>2026-01-30T09:05:49Z</time>
      </trkpt>
      <trkpt lat="48.7186" lon="1.89646">
        <ele>121</ele>
        <time>2026-01-30T09:05:50Z</time>
      </trkpt>
      <trkpt lat="48.71862" lon="1.89648">
        <ele>121</ele>
        <time>2026-01-30T09:05:51Z</time>
      </trkpt>
      <trkpt lat="48.71863" lon="1.8965">
        <ele>121</ele>
        <time>2026-01-30T09:05:52Z</time>
      </trkpt>
      <trkpt lat="48.71864" lon="1.89652">
        <ele>121</ele>
        <time>2026-01-30T09:05:53Z</time>
      </trkpt>
      <trkpt lat="48.71864" lon="1.89652">
        <ele>121</ele>
        <time>2026-01-30T09:05:54Z</time>
      </trkpt>
      <trkpt lat="48.71864" lon="1.89653">
        <ele>121.2</ele>
        <time>2026-01-30T09:05:55Z</time>
      </trkpt>
      <trkpt lat="48.71865" lon="1.89654">
        <ele>121</ele>
        <time>2026-01-30T09:05:56Z</time>
      </trkpt>
      <trkpt lat="48.71864" lon="1.89657">
        <ele>121</ele>
        <time>2026-01-30T09:05:57Z</time>
      </trkpt>
      <trkpt lat="48.71864" lon="1.89661">
        <ele>121</ele>
        <time>2026-01-30T09:05:58Z</time>
      </trkpt>
      <trkpt lat="48.71863" lon="1.89664">
        <ele>120.6</ele>
        <time>2026-01-30T09:05:59Z</time>
      </trkpt>
      <trkpt lat="48.71861" lon="1.89669">
        <ele>120.4</ele>
        <time>2026-01-30T09:06:00Z</time>
      </trkpt>
      <trkpt lat="48.71859" lon="1.89673">
        <ele>120.4</ele>
        <time>2026-01-30T09:06:01Z</time>
      </trkpt>
      <trkpt lat="48.71857" lon="1.89679">
        <ele>120.4</ele>
        <time>2026-01-30T09:06:02Z</time>
      </trkpt>
      <trkpt lat="48.71854" lon="1.89685">
        <ele>120.4</ele>
        <time>2026-01-30T09:06:03Z</time>
      </trkpt>
      <trkpt lat="48.71852" lon="1.89693">
        <ele>119.2</ele>
        <time>2026-01-30T09:06:04Z</time>
      </trkpt>
      <trkpt lat="48.7185" lon="1.897">
        <ele>119.2</ele>
        <time>2026-01-30T09:06:05Z</time>
      </trkpt>
      <trkpt lat="48.71848" lon="1.89708">
        <ele>119.2</ele>
        <time>2026-01-30T09:06:06Z</time>
      </trkpt>
      <trkpt lat="48.71846" lon="1.89716">
        <ele>120.2</ele>
        <time>2026-01-30T09:06:07Z</time>
      </trkpt>
      <trkpt lat="48.71844" lon="1.89724">
        <ele>119.8</ele>
        <time>2026-01-30T09:06:08Z</time>
      </trkpt>
      <trkpt lat="48.71842" lon="1.89732">
        <ele>119.8</ele>
        <time>2026-01-30T09:06:09Z</time>
      </trkpt>
      <trkpt lat="48.7184" lon="1.8974">
        <ele>119.8</ele>
        <time>2026-01-30T09:06:10Z</time>
      </trkpt>
      <trkpt lat="48.71838" lon="1.89749">
        <ele>119.8</ele>
        <time>2026-01-30T09:06:11Z</time>
      </trkpt>
      <trkpt lat="48.71837" lon="1.89758">
        <ele>119.8</ele>
        <time>2026-01-30T09:06:12Z</time>
      </trkpt>
      <trkpt lat="48.71835" lon="1.89767">
        <ele>119.8</ele>
        <time>2026-01-30T09:06:13Z</time>
      </trkpt>
      <trkpt lat="48.71834" lon="1.89777">
        <ele>119.8</ele>
        <time>2026-01-30T09:06:14Z</time>
      </trkpt>
      <trkpt lat="48.71833" lon="1.89786">
        <ele>119.6</ele>
        <time>2026-01-30T09:06:15Z</time>
      </trkpt>
      <trkpt lat="48.71832" lon="1.89796">
        <ele>119.2</ele>
        <time>2026-01-30T09:06:16Z</time>
      </trkpt>
      <trkpt lat="48.71831" lon="1.89806">
        <ele>119.2</ele>
        <time>2026-01-30T09:06:17Z</time>
      </trkpt>
      <trkpt lat="48.7183" lon="1.89816">
        <ele>119.2</ele>
        <time>2026-01-30T09:06:18Z</time>
      </trkpt>
      <trkpt lat="48.7183" lon="1.89826">
        <ele>118.6</ele>
        <time>2026-01-30T09:06:19Z</time>
      </trkpt>
      <trkpt lat="48.7183" lon="1.89837">
        <ele>118.4</ele>
        <time>2026-01-30T09:06:20Z</time>
      </trkpt>
      <trkpt lat="48.71831" lon="1.89847">
        <ele>118.4</ele>
        <time>2026-01-30T09:06:21Z</time>
      </trkpt>
      <trkpt lat="48.71832" lon="1.89858">
        <ele>118.4</ele>
        <time>2026-01-30T09:06:22Z</time>
      </trkpt>
      <trkpt lat="48.71833" lon="1.89869">
        <ele>118</ele>
        <time>2026-01-30T09:06:23Z</time>
      </trkpt>
      <trkpt lat="48.71835" lon="1.8988">
        <ele>117.2</ele>
        <time>2026-01-30T09:06:24Z</time>
      </trkpt>
      <trkpt lat="48.71837" lon="1.89891">
        <ele>117.2</ele>
        <time>2026-01-30T09:06:25Z</time>
      </trkpt>
      <trkpt lat="48.71839" lon="1.89902">
        <ele>117.2</ele>
        <time>2026-01-30T09:06:26Z</time>
      </trkpt>
      <trkpt lat="48.71841" lon="1.89913">
        <ele>117.2</ele>
        <time>2026-01-30T09:06:27Z</time>
      </trkpt>
      <trkpt lat="48.71843" lon="1.89925">
        <ele>116.6</ele>
        <time>2026-01-30T09:06:28Z</time>
      </trkpt>
      <trkpt lat="48.71845" lon="1.89937">
        <ele>116.6</ele>
        <time>2026-01-30T09:06:29Z</time>
      </trkpt>
      <trkpt lat="48.71848" lon="1.89949">
        <ele>116.6</ele>
        <time>2026-01-30T09:06:30Z</time>
      </trkpt>
      <trkpt lat="48.7185" lon="1.89961">
        <ele>115.6</ele>
        <time>2026-01-30T09:06:31Z</time>
      </trkpt>
      <trkpt lat="48.71852" lon="1.89973">
        <ele>115.2</ele>
        <time>2026-01-30T09:06:32Z</time>
      </trkpt>
      <trkpt lat="48.71855" lon="1.89986">
        <ele>115.2</ele>
        <time>2026-01-30T09:06:33Z</time>
      </trkpt>
      <trkpt lat="48.71857" lon="1.89999">
        <ele>115.2</ele>
        <time>2026-01-30T09:06:34Z</time>
      </trkpt>
      <trkpt lat="48.7186" lon="1.90011">
        <ele>114.2</ele>
        <time>2026-01-30T09:06:35Z</time>
      </trkpt>
      <trkpt lat="48.71862" lon="1.90024">
        <ele>114</ele>
        <time>2026-01-30T09:06:36Z</time>
      </trkpt>
      <trkpt lat="48.71865" lon="1.90036">
        <ele>114</ele>
        <time>2026-01-30T09:06:37Z</time>
      </trkpt>
      <trkpt lat="48.71867" lon="1.90048">
        <ele>114</ele>
        <time>2026-01-30T09:06:38Z</time>
      </trkpt>
      <trkpt lat="48.71869" lon="1.9006">
        <ele>114</ele>
        <time>2026-01-30T09:06:39Z</time>
      </trkpt>
      <trkpt lat="48.71872" lon="1.90072">
        <ele>113.6</ele>
        <time>2026-01-30T09:06:40Z</time>
      </trkpt>
      <trkpt lat="48.71874" lon="1.90084">
        <ele>113.6</ele>
        <time>2026-01-30T09:06:41Z</time>
      </trkpt>
      <trkpt lat="48.71877" lon="1.90096">
        <ele>113.6</ele>
        <time>2026-01-30T09:06:42Z</time>
      </trkpt>
      <trkpt lat="48.71879" lon="1.90108">
        <ele>112.6</ele>
        <time>2026-01-30T09:06:43Z</time>
      </trkpt>
      <trkpt lat="48.71882" lon="1.9012">
        <ele>112.4</ele>
        <time>2026-01-30T09:06:44Z</time>
      </trkpt>
      <trkpt lat="48.71885" lon="1.90132">
        <ele>112.4</ele>
        <time>2026-01-30T09:06:45Z</time>
      </trkpt>
      <trkpt lat="48.71888" lon="1.90144">
        <ele>112.4</ele>
        <time>2026-01-30T09:06:46Z</time>
      </trkpt>
      <trkpt lat="48.7189" lon="1.90156">
        <ele>111.4</ele>
        <time>2026-01-30T09:06:47Z</time>
      </trkpt>
      <trkpt lat="48.71892" lon="1.90168">
        <ele>111.4</ele>
        <time>2026-01-30T09:06:48Z</time>
      </trkpt>
      <trkpt lat="48.71895" lon="1.90181">
        <ele>111.4</ele>
        <time>2026-01-30T09:06:49Z</time>
      </trkpt>
      <trkpt lat="48.71898" lon="1.90193">
        <ele>111.4</ele>
        <time>2026-01-30T09:06:50Z</time>
      </trkpt>
      <trkpt lat="48.71901" lon="1.90205">
        <ele>111</ele>
        <time>2026-01-30T09:06:51Z</time>
      </trkpt>
      <trkpt lat="48.71903" lon="1.90218">
        <ele>110.8</ele>
        <time>2026-01-30T09:06:52Z</time>
      </trkpt>
      <trkpt lat="48.71906" lon="1.90231">
        <ele>110.8</ele>
        <time>2026-01-30T09:06:53Z</time>
      </trkpt>
      <trkpt lat="48.71908" lon="1.90243">
        <ele>110.8</ele>
        <time>2026-01-30T09:06:54Z</time>
      </trkpt>
      <trkpt lat="48.7191" lon="1.90256">
        <ele>109.8</ele>
        <time>2026-01-30T09:06:55Z</time>
      </trkpt>
      <trkpt lat="48.71912" lon="1.90269">
        <ele>109.2</ele>
        <time>2026-01-30T09:06:56Z</time>
      </trkpt>
      <trkpt lat="48.71914" lon="1.90281">
        <ele>109.2</ele>
        <time>2026-01-30T09:06:57Z</time>
      </trkpt>
      <trkpt lat="48.71916" lon="1.90294">
        <ele>109.2</ele>
        <time>2026-01-30T09:06:58Z</time>
      </trkpt>
      <trkpt lat="48.71918" lon="1.90307">
        <ele>108.2</ele>
        <time>2026-01-30T09:06:59Z</time>
      </trkpt>
      <trkpt lat="48.71921" lon="1.90319">
        <ele>107.8</ele>
        <time>2026-01-30T09:07:00Z</time>
      </trkpt>
      <trkpt lat="48.71923" lon="1.90332">
        <ele>107.8</ele>
        <time>2026-01-30T09:07:01Z</time>
      </trkpt>
      <trkpt lat="48.71926" lon="1.90345">
        <ele>107.8</ele>
        <time>2026-01-30T09:07:02Z</time>
      </trkpt>
      <trkpt lat="48.71928" lon="1.90357">
        <ele>106.8</ele>
        <time>2026-01-30T09:07:03Z</time>
      </trkpt>
      <trkpt lat="48.7193" lon="1.90371">
        <ele>106.2</ele>
        <time>2026-01-30T09:07:04Z</time>
      </trkpt>
      <trkpt lat="48.71933" lon="1.90384">
        <ele>106.2</ele>
        <time>2026-01-30T09:07:05Z</time>
      </trkpt>
      <trkpt lat="48.71937" lon="1.90396">
        <ele>106.2</ele>
        <time>2026-01-30T09:07:06Z</time>
      </trkpt>
      <trkpt lat="48.71942" lon="1.90408">
        <ele>106.2</ele>
        <time>2026-01-30T09:07:07Z</time>
      </trkpt>
      <trkpt lat="48.71949" lon="1.90418">
        <ele>103.6</ele>
        <time>2026-01-30T09:07:08Z</time>
      </trkpt>
      <trkpt lat="48.71957" lon="1.90428">
        <ele>103.6</ele>
        <time>2026-01-30T09:07:09Z</time>
      </trkpt>
      <trkpt lat="48.71964" lon="1.90438">
        <ele>103.6</ele>
        <time>2026-01-30T09:07:10Z</time>
      </trkpt>
      <trkpt lat="48.71971" lon="1.90448">
        <ele>102.6</ele>
        <time>2026-01-30T09:07:11Z</time>
      </trkpt>
      <trkpt lat="48.71979" lon="1.90458">
        <ele>100.8</ele>
        <time>2026-01-30T09:07:12Z</time>
      </trkpt>
      <trkpt lat="48.71986" lon="1.90468">
        <ele>100.8</ele>
        <time>2026-01-30T09:07:13Z</time>
      </trkpt>
      <trkpt lat="48.71994" lon="1.90479">
        <ele>100.8</ele>
        <time>2026-01-30T09:07:14Z</time>
      </trkpt>
      <trkpt lat="48.72002" lon="1.9049">
        <ele>99.8</ele>
        <time>2026-01-30T09:07:15Z</time>
      </trkpt>
      <trkpt lat="48.72009" lon="1.905">
        <ele>97</ele>
        <time>2026-01-30T09:07:16Z</time>
      </trkpt>
      <trkpt lat="48.72016" lon="1.90512">
        <ele>97</ele>
        <time>2026-01-30T09:07:17Z</time>
      </trkpt>
      <trkpt lat="48.72023" lon="1.90524">
        <ele>97</ele>
        <time>2026-01-30T09:07:18Z</time>
      </trkpt>
      <trkpt lat="48.72028" lon="1.90538">
        <ele>97</ele>
        <time>2026-01-30T09:07:19Z</time>
      </trkpt>
      <trkpt lat="48.72032" lon="1.90552">
        <ele>94.2</ele>
        <time>2026-01-30T09:07:20Z</time>
      </trkpt>
      <trkpt lat="48.72036" lon="1.90567">
        <ele>94.2</ele>
        <time>2026-01-30T09:07:21Z</time>
      </trkpt>
      <trkpt lat="48.72038" lon="1.90583">
        <ele>94.2</ele>
        <time>2026-01-30T09:07:22Z</time>
      </trkpt>
      <trkpt lat="48.7204" lon="1.90597">
        <ele>93.2</ele>
        <time>2026-01-30T09:07:23Z</time>
      </trkpt>
      <trkpt lat="48.7204" lon="1.90612">
        <ele>92.6</ele>
        <time>2026-01-30T09:07:24Z</time>
      </trkpt>
      <trkpt lat="48.7204" lon="1.90627">
        <ele>92.6</ele>
        <time>2026-01-30T09:07:25Z</time>
      </trkpt>
      <trkpt lat="48.72039" lon="1.90642">
        <ele>92.6</ele>
        <time>2026-01-30T09:07:26Z</time>
      </trkpt>
      <trkpt lat="48.72037" lon="1.90657">
        <ele>91.6</ele>
        <time>2026-01-30T09:07:27Z</time>
      </trkpt>
      <trkpt lat="48.72035" lon="1.90672">
        <ele>89.4</ele>
        <time>2026-01-30T09:07:28Z</time>
      </trkpt>
      <trkpt lat="48.72032" lon="1.90687">
        <ele>89.4</ele>
        <time>2026-01-30T09:07:29Z</time>
      </trkpt>
      <trkpt lat="48.72029" lon="1.90703">
        <ele>89.4</ele>
        <time>2026-01-30T09:07:30Z</time>
      </trkpt>
      <trkpt lat="48.72026" lon="1.90718">
        <ele>88.4</ele>
        <time>2026-01-30T09:07:31Z</time>
      </trkpt>
      <trkpt lat="48.72024" lon="1.90734">
        <ele>87.2</ele>
        <time>2026-01-30T09:07:32Z</time>
      </trkpt>
      <trkpt lat="48.72021" lon="1.9075">
        <ele>87.2</ele>
        <time>2026-01-30T09:07:33Z</time>
      </trkpt>
      <trkpt lat="48.72019" lon="1.90767">
        <ele>87.2</ele>
        <time>2026-01-30T09:07:34Z</time>
      </trkpt>
      <trkpt lat="48.72017" lon="1.90782">
        <ele>86.2</ele>
        <time>2026-01-30T09:07:35Z</time>
      </trkpt>
      <trkpt lat="48.72016" lon="1.90797">
        <ele>85.4</ele>
        <time>2026-01-30T09:07:36Z</time>
      </trkpt>
      <trkpt lat="48.72015" lon="1.90811">
        <ele>85.4</ele>
        <time>2026-01-30T09:07:37Z</time>
      </trkpt>
      <trkpt lat="48.72016" lon="1.90824">
        <ele>85.4</ele>
        <time>2026-01-30T09:07:38Z</time>
      </trkpt>
      <trkpt lat="48.72017" lon="1.90837">
        <ele>85.4</ele>
        <time>2026-01-30T09:07:39Z</time>
      </trkpt>
      <trkpt lat="48.7202" lon="1.90849">
        <ele>83.2</ele>
        <time>2026-01-30T09:07:40Z</time>
      </trkpt>
      <trkpt lat="48.72024" lon="1.90861">
        <ele>83.2</ele>
        <time>2026-01-30T09:07:41Z</time>
      </trkpt>
      <trkpt lat="48.7203" lon="1.90872">
        <ele>83.2</ele>
        <time>2026-01-30T09:07:42Z</time>
      </trkpt>
      <trkpt lat="48.72036" lon="1.90882">
        <ele>82.2</ele>
        <time>2026-01-30T09:07:43Z</time>
      </trkpt>
      <trkpt lat="48.72043" lon="1.90893">
        <ele>79.4</ele>
        <time>2026-01-30T09:07:44Z</time>
      </trkpt>
      <trkpt lat="48.7205" lon="1.90904">
        <ele>79.4</ele>
        <time>2026-01-30T09:07:45Z</time>
      </trkpt>
      <trkpt lat="48.72057" lon="1.90915">
        <ele>79.4</ele>
        <time>2026-01-30T09:07:46Z</time>
      </trkpt>
      <trkpt lat="48.72064" lon="1.90927">
        <ele>78.4</ele>
        <time>2026-01-30T09:07:47Z</time>
      </trkpt>
      <trkpt lat="48.7207" lon="1.9094">
        <ele>76.4</ele>
        <time>2026-01-30T09:07:48Z</time>
      </trkpt>
      <trkpt lat="48.72076" lon="1.90953">
        <ele>76.4</ele>
        <time>2026-01-30T09:07:49Z</time>
      </trkpt>
      <trkpt lat="48.72081" lon="1.90966">
        <ele>76.4</ele>
        <time>2026-01-30T09:07:50Z</time>
      </trkpt>
      <trkpt lat="48.72085" lon="1.9098">
        <ele>75.4</ele>
        <time>2026-01-30T09:07:51Z</time>
      </trkpt>
      <trkpt lat="48.72089" lon="1.90995">
        <ele>73.8</ele>
        <time>2026-01-30T09:07:52Z</time>
      </trkpt>
      <trkpt lat="48.72093" lon="1.9101">
        <ele>73.8</ele>
        <time>2026-01-30T09:07:53Z</time>
      </trkpt>
      <trkpt lat="48.72095" lon="1.91024">
        <ele>73.8</ele>
        <time>2026-01-30T09:07:54Z</time>
      </trkpt>
      <trkpt lat="48.72098" lon="1.91039">
        <ele>73.8</ele>
        <time>2026-01-30T09:07:55Z</time>
      </trkpt>
      <trkpt lat="48.72101" lon="1.91054">
        <ele>72.4</ele>
        <time>2026-01-30T09:07:56Z</time>
      </trkpt>
      <trkpt lat="48.72103" lon="1.91069">
        <ele>72.4</ele>
        <time>2026-01-30T09:07:57Z</time>
      </trkpt>
      <trkpt lat="48.72106" lon="1.91084">
        <ele>72.4</ele>
        <time>2026-01-30T09:07:58Z</time>
      </trkpt>
      <trkpt lat="48.72109" lon="1.91099">
        <ele>71.4</ele>
        <time>2026-01-30T09:07:59Z</time>
      </trkpt>
      <trkpt lat="48.72112" lon="1.91113">
        <ele>70.4</ele>
        <time>2026-01-30T09:08:00Z</time>
      </trkpt>
      <trkpt lat="48.72114" lon="1.91127">
        <ele>70.4</ele>
        <time>2026-01-30T09:08:01Z</time>
      </trkpt>
      <trkpt lat="48.72116" lon="1.91141">
        <ele>70.4</ele>
        <time>2026-01-30T09:08:02Z</time>
      </trkpt>
      <trkpt lat="48.72119" lon="1.91155">
        <ele>70.6</ele>
        <time>2026-01-30T09:08:03Z</time>
      </trkpt>
      <trkpt lat="48.72122" lon="1.91168">
        <ele>70.4</ele>
        <time>2026-01-30T09:08:04Z</time>
      </trkpt>
      <trkpt lat="48.72125" lon="1.91182">
        <ele>70.4</ele>
        <time>2026-01-30T09:08:05Z</time>
      </trkpt>
      <trkpt lat="48.72127" lon="1.91196">
        <ele>70.4</ele>
        <time>2026-01-30T09:08:06Z</time>
      </trkpt>
      <trkpt lat="48.7213" lon="1.91209">
        <ele>70.4</ele>
        <time>2026-01-30T09:08:07Z</time>
      </trkpt>
      <trkpt lat="48.72133" lon="1.91222">
        <ele>70.4</ele>
        <time>2026-01-30T09:08:08Z</time>
      </trkpt>
      <trkpt lat="48.72135" lon="1.91234">
        <ele>70.4</ele>
        <time>2026-01-30T09:08:09Z</time>
      </trkpt>
      <trkpt lat="48.72137" lon="1.91246">
        <ele>70.4</ele>
        <time>2026-01-30T09:08:10Z</time>
      </trkpt>
      <trkpt lat="48.7214" lon="1.91259">
        <ele>71.2</ele>
        <time>2026-01-30T09:08:11Z</time>
      </trkpt>
      <trkpt lat="48.72142" lon="1.91271">
        <ele>71.2</ele>
        <time>2026-01-30T09:08:12Z</time>
      </trkpt>
      <trkpt lat="48.72144" lon="1.91283">
        <ele>71.2</ele>
        <time>2026-01-30T09:08:13Z</time>
      </trkpt>
      <trkpt lat="48.72147" lon="1.91295">
        <ele>71.2</ele>
        <time>2026-01-30T09:08:14Z</time>
      </trkpt>
      <trkpt lat="48.72149" lon="1.91307">
        <ele>70.6</ele>
        <time>2026-01-30T09:08:15Z</time>
      </trkpt>
      <trkpt lat="48.72151" lon="1.91318">
        <ele>70.6</ele>
        <time>2026-01-30T09:08:16Z</time>
      </trkpt>
      <trkpt lat="48.72153" lon="1.9133">
        <ele>70.6</ele>
        <time>2026-01-30T09:08:17Z</time>
      </trkpt>
      <trkpt lat="48.72155" lon="1.91341">
        <ele>70.6</ele>
        <time>2026-01-30T09:08:18Z</time>
      </trkpt>
      <trkpt lat="48.72158" lon="1.91351">
        <ele>71.2</ele>
        <time>2026-01-30T09:08:19Z</time>
      </trkpt>
      <trkpt lat="48.72161" lon="1.91362">
        <ele>71.2</ele>
        <time>2026-01-30T09:08:20Z</time>
      </trkpt>
      <trkpt lat="48.72165" lon="1.91372">
        <ele>71.2</ele>
        <time>2026-01-30T09:08:21Z</time>
      </trkpt>
      <trkpt lat="48.72169" lon="1.91382">
        <ele>71.2</ele>
        <time>2026-01-30T09:08:22Z</time>
      </trkpt>
      <trkpt lat="48.72173" lon="1.91392">
        <ele>71.2</ele>
        <time>2026-01-30T09:08:23Z</time>
      </trkpt>
      <trkpt lat="48.72178" lon="1.91401">
        <ele>70.8</ele>
        <time>2026-01-30T09:08:24Z</time>
      </trkpt>
      <trkpt lat="48.72183" lon="1.9141">
        <ele>70.8</ele>
        <time>2026-01-30T09:08:25Z</time>
      </trkpt>
      <trkpt lat="48.72188" lon="1.91419">
        <ele>70.8</ele>
        <time>2026-01-30T09:08:26Z</time>
      </trkpt>
      <trkpt lat="48.72194" lon="1.91427">
        <ele>71</ele>
        <time>2026-01-30T09:08:27Z</time>
      </trkpt>
      <trkpt lat="48.722" lon="1.91434">
        <ele>71</ele>
        <time>2026-01-30T09:08:28Z</time>
      </trkpt>
      <trkpt lat="48.72207" lon="1.91441">
        <ele>71</ele>
        <time>2026-01-30T09:08:29Z</time>
      </trkpt>
      <trkpt lat="48.72213" lon="1.91447">
        <ele>71</ele>
        <time>2026-01-30T09:08:30Z</time>
      </trkpt>
      <trkpt lat="48.72219" lon="1.91453">
        <ele>71</ele>
        <time>2026-01-30T09:08:31Z</time>
      </trkpt>
      <trkpt lat="48.72226" lon="1.91458">
        <ele>70.2</ele>
        <time>2026-01-30T09:08:32Z</time>
      </trkpt>
      <trkpt lat="48.72233" lon="1.91464">
        <ele>70.2</ele>
        <time>2026-01-30T09:08:33Z</time>
      </trkpt>
      <trkpt lat="48.72239" lon="1.91469">
        <ele>70.2</ele>
        <time>2026-01-30T09:08:34Z</time>
      </trkpt>
      <trkpt lat="48.72246" lon="1.91475">
        <ele>70.2</ele>
        <time>2026-01-30T09:08:35Z</time>
      </trkpt>
      <trkpt lat="48.72253" lon="1.9148">
        <ele>69.8</ele>
        <time>2026-01-30T09:08:36Z</time>
      </trkpt>
      <trkpt lat="48.72259" lon="1.91486">
        <ele>69.8</ele>
        <time>2026-01-30T09:08:37Z</time>
      </trkpt>
      <trkpt lat="48.72266" lon="1.91492">
        <ele>69.8</ele>
        <time>2026-01-30T09:08:38Z</time>
      </trkpt>
      <trkpt lat="48.72273" lon="1.91498">
        <ele>69.4</ele>
        <time>2026-01-30T09:08:39Z</time>
      </trkpt>
      <trkpt lat="48.7228" lon="1.91504">
        <ele>69.2</ele>
        <time>2026-01-30T09:08:40Z</time>
      </trkpt>
      <trkpt lat="48.72287" lon="1.9151">
        <ele>69.2</ele>
        <time>2026-01-30T09:08:41Z</time>
      </trkpt>
      <trkpt lat="48.72294" lon="1.91516">
        <ele>69.2</ele>
        <time>2026-01-30T09:08:42Z</time>
      </trkpt>
      <trkpt lat="48.72301" lon="1.91522">
        <ele>69.2</ele>
        <time>2026-01-30T09:08:43Z</time>
      </trkpt>
      <trkpt lat="48.72307" lon="1.91527">
        <ele>69</ele>
        <time>2026-01-30T09:08:44Z</time>
      </trkpt>
      <trkpt lat="48.72314" lon="1.91533">
        <ele>69</ele>
        <time>2026-01-30T09:08:45Z</time>
      </trkpt>
      <trkpt lat="48.72321" lon="1.91537">
        <ele>69</ele>
        <time>2026-01-30T09:08:46Z</time>
      </trkpt>
      <trkpt lat="48.72328" lon="1.91543">
        <ele>69.6</ele>
        <time>2026-01-30T09:08:47Z</time>
      </trkpt>
      <trkpt lat="48.72334" lon="1.91549">
        <ele>70</ele>
        <time>2026-01-30T09:08:48Z</time>
      </trkpt>
      <trkpt lat="48.7234" lon="1.91556">
        <ele>70</ele>
        <time>2026-01-30T09:08:49Z</time>
      </trkpt>
      <trkpt lat="48.72346" lon="1.91562">
        <ele>70</ele>
        <time>2026-01-30T09:08:50Z</time>
      </trkpt>
      <trkpt lat="48.72351" lon="1.91569">
        <ele>69.6</ele>
        <time>2026-01-30T09:08:51Z</time>
      </trkpt>
      <trkpt lat="48.72357" lon="1.91576">
        <ele>69.4</ele>
        <time>2026-01-30T09:08:52Z</time>
      </trkpt>
      <trkpt lat="48.72362" lon="1.91583">
        <ele>69.4</ele>
        <time>2026-01-30T09:08:53Z</time>
      </trkpt>
      <trkpt lat="48.72367" lon="1.9159">
        <ele>69.4</ele>
        <time>2026-01-30T09:08:54Z</time>
      </trkpt>
      <trkpt lat="48.72372" lon="1.91598">
        <ele>69.4</ele>
        <time>2026-01-30T09:08:55Z</time>
      </trkpt>
      <trkpt lat="48.72376" lon="1.91607">
        <ele>69.6</ele>
        <time>2026-01-30T09:08:56Z</time>
      </trkpt>
      <trkpt lat="48.72379" lon="1.91616">
        <ele>69.6</ele>
        <time>2026-01-30T09:08:57Z</time>
      </trkpt>
      <trkpt lat="48.72383" lon="1.91626">
        <ele>69.6</ele>
        <time>2026-01-30T09:08:58Z</time>
      </trkpt>
      <trkpt lat="48.72386" lon="1.91636">
        <ele>69.6</ele>
        <time>2026-01-30T09:08:59Z</time>
      </trkpt>
      <trkpt lat="48.72389" lon="1.91646">
        <ele>68.8</ele>
        <time>2026-01-30T09:09:00Z</time>
      </trkpt>
      <trkpt lat="48.72391" lon="1.91656">
        <ele>68.8</ele>
        <time>2026-01-30T09:09:01Z</time>
      </trkpt>
      <trkpt lat="48.72394" lon="1.91666">
        <ele>68.8</ele>
        <time>2026-01-30T09:09:02Z</time>
      </trkpt>
      <trkpt lat="48.72396" lon="1.91676">
        <ele>68.8</ele>
        <time>2026-01-30T09:09:03Z</time>
      </trkpt>
      <trkpt lat="48.72399" lon="1.91685">
        <ele>68.6</ele>
        <time>2026-01-30T09:09:04Z</time>
      </trkpt>
      <trkpt lat="48.72401" lon="1.91694">
        <ele>68.6</ele>
        <time>2026-01-30T09:09:05Z</time>
      </trkpt>
      <trkpt lat="48.72404" lon="1.91704">
        <ele>68.6</ele>
        <time>2026-01-30T09:09:06Z</time>
      </trkpt>
      <trkpt lat="48.72406" lon="1.91713">
        <ele>68.8</ele>
        <time>2026-01-30T09:09:07Z</time>
      </trkpt>
      <trkpt lat="48.72408" lon="1.91723">
        <ele>68.4</ele>
        <time>2026-01-30T09:09:08Z</time>
      </trkpt>
      <trkpt lat="48.72411" lon="1.91733">
        <ele>68.4</ele>
        <time>2026-01-30T09:09:09Z</time>
      </trkpt>
      <trkpt lat="48.72413" lon="1.91743">
        <ele>68.4</ele>
        <time>2026-01-30T09:09:10Z</time>
      </trkpt>
      <trkpt lat="48.72414" lon="1.91753">
        <ele>67.8</ele>
        <time>2026-01-30T09:09:11Z</time>
      </trkpt>
      <trkpt lat="48.72415" lon="1.91764">
        <ele>68.2</ele>
        <time>2026-01-30T09:09:12Z</time>
      </trkpt>
      <trkpt lat="48.72415" lon="1.91774">
        <ele>68.2</ele>
        <time>2026-01-30T09:09:13Z</time>
      </trkpt>
      <trkpt lat="48.72414" lon="1.91784">
        <ele>68.2</ele>
        <time>2026-01-30T09:09:14Z</time>
      </trkpt>
      <trkpt lat="48.72413" lon="1.91795">
        <ele>68.6</ele>
        <time>2026-01-30T09:09:15Z</time>
      </trkpt>
      <trkpt lat="48.72411" lon="1.91804">
        <ele>68.8</ele>
        <time>2026-01-30T09:09:16Z</time>
      </trkpt>
      <trkpt lat="48.72409" lon="1.91814">
        <ele>68.8</ele>
        <time>2026-01-30T09:09:17Z</time>
      </trkpt>
      <trkpt lat="48.72407" lon="1.91823">
        <ele>68.8</ele>
        <time>2026-01-30T09:09:18Z</time>
      </trkpt>
      <trkpt lat="48.72405" lon="1.91832">
        <ele>68.8</ele>
        <time>2026-01-30T09:09:19Z</time>
      </trkpt>
      <trkpt lat="48.72402" lon="1.91841">
        <ele>69.2</ele>
        <time>2026-01-30T09:09:20Z</time>
      </trkpt>
      <trkpt lat="48.72399" lon="1.91851">
        <ele>69.2</ele>
        <time>2026-01-30T09:09:21Z</time>
      </trkpt>
      <trkpt lat="48.72397" lon="1.9186">
        <ele>69.2</ele>
        <time>2026-01-30T09:09:22Z</time>
      </trkpt>
      <trkpt lat="48.72395" lon="1.91869">
        <ele>68.8</ele>
        <time>2026-01-30T09:09:23Z</time>
      </trkpt>
      <trkpt lat="48.72392" lon="1.91879">
        <ele>68.6</ele>
        <time>2026-01-30T09:09:24Z</time>
      </trkpt>
      <trkpt lat="48.7239" lon="1.91889">
        <ele>68.6</ele>
        <time>2026-01-30T09:09:25Z</time>
      </trkpt>
      <trkpt lat="48.72388" lon="1.91898">
        <ele>68.6</ele>
        <time>2026-01-30T09:09:26Z</time>
      </trkpt>
      <trkpt lat="48.72385" lon="1.91909">
        <ele>68.6</ele>
        <time>2026-01-30T09:09:27Z</time>
      </trkpt>
      <trkpt lat="48.72383" lon="1.91918">
        <ele>68</ele>
        <time>2026-01-30T09:09:28Z</time>
      </trkpt>
      <trkpt lat="48.72381" lon="1.91929">
        <ele>68</ele>
        <time>2026-01-30T09:09:29Z</time>
      </trkpt>
      <trkpt lat="48.72379" lon="1.91939">
        <ele>68</ele>
        <time>2026-01-30T09:09:30Z</time>
      </trkpt>
      <trkpt lat="48.72376" lon="1.9195">
        <ele>67</ele>
        <time>2026-01-30T09:09:31Z</time>
      </trkpt>
      <trkpt lat="48.72374" lon="1.9196">
        <ele>67.2</ele>
        <time>2026-01-30T09:09:32Z</time>
      </trkpt>
      <trkpt lat="48.72371" lon="1.91971">
        <ele>67.2</ele>
        <time>2026-01-30T09:09:33Z</time>
      </trkpt>
      <trkpt lat="48.72368" lon="1.91982">
        <ele>67.2</ele>
        <time>2026-01-30T09:09:34Z</time>
      </trkpt>
      <trkpt lat="48.72366" lon="1.91992">
        <ele>66.4</ele>
        <time>2026-01-30T09:09:35Z</time>
      </trkpt>
      <trkpt lat="48.72363" lon="1.92003">
        <ele>65.6</ele>
        <time>2026-01-30T09:09:36Z</time>
      </trkpt>
      <trkpt lat="48.7236" lon="1.92014">
        <ele>65.6</ele>
        <time>2026-01-30T09:09:37Z</time>
      </trkpt>
      <trkpt lat="48.72358" lon="1.92024">
        <ele>65.6</ele>
        <time>2026-01-30T09:09:38Z</time>
      </trkpt>
      <trkpt lat="48.72355" lon="1.92036">
        <ele>66</ele>
        <time>2026-01-30T09:09:39Z</time>
      </trkpt>
      <trkpt lat="48.72352" lon="1.92047">
        <ele>66.4</ele>
        <time>2026-01-30T09:09:40Z</time>
      </trkpt>
      <trkpt lat="48.7235" lon="1.92058">
        <ele>66.4</ele>
        <time>2026-01-30T09:09:41Z</time>
      </trkpt>
      <trkpt lat="48.72347" lon="1.92069">
        <ele>66.4</ele>
        <time>2026-01-30T09:09:42Z</time>
      </trkpt>
      <trkpt lat="48.72343" lon="1.9208">
        <ele>66.2</ele>
        <time>2026-01-30T09:09:43Z</time>
      </trkpt>
      <trkpt lat="48.7234" lon="1.9209">
        <ele>65.6</ele>
        <time>2026-01-30T09:09:44Z</time>
      </trkpt>
      <trkpt lat="48.72335" lon="1.921">
        <ele>65.6</ele>
        <time>2026-01-30T09:09:45Z</time>
      </trkpt>
      <trkpt lat="48.72331" lon="1.9211">
        <ele>65.6</ele>
        <time>2026-01-30T09:09:46Z</time>
      </trkpt>
      <trkpt lat="48.72329" lon="1.9212">
        <ele>65.6</ele>
        <time>2026-01-30T09:09:47Z</time>
      </trkpt>
      <trkpt lat="48.72326" lon="1.92131">
        <ele>65.2</ele>
        <time>2026-01-30T09:09:48Z</time>
      </trkpt>
      <trkpt lat="48.72323" lon="1.92142">
        <ele>65.2</ele>
        <time>2026-01-30T09:09:49Z</time>
      </trkpt>
      <trkpt lat="48.72322" lon="1.92154">
        <ele>65.2</ele>
        <time>2026-01-30T09:09:50Z</time>
      </trkpt>
      <trkpt lat="48.7232" lon="1.92165">
        <ele>64.2</ele>
        <time>2026-01-30T09:09:51Z</time>
      </trkpt>
      <trkpt lat="48.72318" lon="1.92177">
        <ele>63.6</ele>
        <time>2026-01-30T09:09:52Z</time>
      </trkpt>
      <trkpt lat="48.72316" lon="1.92188">
        <ele>63.6</ele>
        <time>2026-01-30T09:09:53Z</time>
      </trkpt>
      <trkpt lat="48.72313" lon="1.92199">
        <ele>63.6</ele>
        <time>2026-01-30T09:09:54Z</time>
      </trkpt>
      <trkpt lat="48.72308" lon="1.92209">
        <ele>63</ele>
        <time>2026-01-30T09:09:55Z</time>
      </trkpt>
      <trkpt lat="48.72304" lon="1.92217">
        <ele>63</ele>
        <time>2026-01-30T09:09:56Z</time>
      </trkpt>
      <trkpt lat="48.72298" lon="1.92226">
        <ele>63</ele>
        <time>2026-01-30T09:09:57Z</time>
      </trkpt>
      <trkpt lat="48.72293" lon="1.92234">
        <ele>63</ele>
        <time>2026-01-30T09:09:58Z</time>
      </trkpt>
      <trkpt lat="48.72287" lon="1.92243">
        <ele>63</ele>
        <time>2026-01-30T09:09:59Z</time>
      </trkpt>
      <trkpt lat="48.72282" lon="1.92251">
        <ele>62.6</ele>
        <time>2026-01-30T09:10:00Z</time>
      </trkpt>
      <trkpt lat="48.72277" lon="1.92259">
        <ele>62.6</ele>
        <time>2026-01-30T09:10:01Z</time>
      </trkpt>
      <trkpt lat="48.72272" lon="1.92267">
        <ele>62.6</ele>
        <time>2026-01-30T09:10:02Z</time>
      </trkpt>
      <trkpt lat="48.72266" lon="1.92276">
        <ele>62.2</ele>
        <time>2026-01-30T09:10:03Z</time>
      </trkpt>
      <trkpt lat="48.72261" lon="1.92285">
        <ele>61.6</ele>
        <time>2026-01-30T09:10:04Z</time>
      </trkpt>
      <trkpt lat="48.72255" lon="1.92293">
        <ele>61.6</ele>
        <time>2026-01-30T09:10:05Z</time>
      </trkpt>
      <trkpt lat="48.72249" lon="1.92302">
        <ele>61.6</ele>
        <time>2026-01-30T09:10:06Z</time>
      </trkpt>
      <trkpt lat="48.72244" lon="1.92312">
        <ele>61.6</ele>
        <time>2026-01-30T09:10:07Z</time>
      </trkpt>
      <trkpt lat="48.72239" lon="1.92322">
        <ele>61</ele>
        <time>2026-01-30T09:10:08Z</time>
      </trkpt>
      <trkpt lat="48.72235" lon="1.92333">
        <ele>61</ele>
        <time>2026-01-30T09:10:09Z</time>
      </trkpt>
      <trkpt lat="48.72231" lon="1.92344">
        <ele>61</ele>
        <time>2026-01-30T09:10:10Z</time>
      </trkpt>
      <trkpt lat="48.72227" lon="1.92355">
        <ele>61</ele>
        <time>2026-01-30T09:10:11Z</time>
      </trkpt>
      <trkpt lat="48.72224" lon="1.92367">
        <ele>60</ele>
        <time>2026-01-30T09:10:12Z</time>
      </trkpt>
      <trkpt lat="48.72221" lon="1.92379">
        <ele>60</ele>
        <time>2026-01-30T09:10:13Z</time>
      </trkpt>
      <trkpt lat="48.72217" lon="1.92391">
        <ele>60</ele>
        <time>2026-01-30T09:10:14Z</time>
      </trkpt>
      <trkpt lat="48.72214" lon="1.92403">
        <ele>60</ele>
        <time>2026-01-30T09:10:15Z</time>
      </trkpt>
      <trkpt lat="48.72211" lon="1.92415">
        <ele>59.2</ele>
        <time>2026-01-30T09:10:16Z</time>
      </trkpt>
      <trkpt lat="48.72207" lon="1.92427">
        <ele>59.2</ele>
        <time>2026-01-30T09:10:17Z</time>
      </trkpt>
      <trkpt lat="48.72204" lon="1.92438">
        <ele>59.2</ele>
        <time>2026-01-30T09:10:18Z</time>
      </trkpt>
      <trkpt lat="48.72201" lon="1.92449">
        <ele>58.8</ele>
        <time>2026-01-30T09:10:19Z</time>
      </trkpt>
      <trkpt lat="48.72198" lon="1.92461">
        <ele>58.8</ele>
        <time>2026-01-30T09:10:20Z</time>
      </trkpt>
      <trkpt lat="48.72195" lon="1.92472">
        <ele>58.8</ele>
        <time>2026-01-30T09:10:21Z</time>
      </trkpt>
      <trkpt lat="48.72191" lon="1.92482">
        <ele>58.8</ele>
        <time>2026-01-30T09:10:22Z</time>
      </trkpt>
      <trkpt lat="48.72187" lon="1.92493">
        <ele>58.8</ele>
        <time>2026-01-30T09:10:23Z</time>
      </trkpt>
      <trkpt lat="48.72183" lon="1.92504">
        <ele>59.2</ele>
        <time>2026-01-30T09:10:24Z</time>
      </trkpt>
      <trkpt lat="48.7218" lon="1.92514">
        <ele>59.2</ele>
        <time>2026-01-30T09:10:25Z</time>
      </trkpt>
      <trkpt lat="48.72177" lon="1.92525">
        <ele>59.2</ele>
        <time>2026-01-30T09:10:26Z</time>
      </trkpt>
      <trkpt lat="48.72174" lon="1.92535">
        <ele>59.2</ele>
        <time>2026-01-30T09:10:27Z</time>
      </trkpt>
      <trkpt lat="48.72171" lon="1.92545">
        <ele>59</ele>
        <time>2026-01-30T09:10:28Z</time>
      </trkpt>
      <trkpt lat="48.72168" lon="1.92555">
        <ele>59</ele>
        <time>2026-01-30T09:10:29Z</time>
      </trkpt>
      <trkpt lat="48.72165" lon="1.92563">
        <ele>59</ele>
        <time>2026-01-30T09:10:30Z</time>
      </trkpt>
      <trkpt lat="48.72163" lon="1.92572">
        <ele>60</ele>
        <time>2026-01-30T09:10:31Z</time>
      </trkpt>
      <trkpt lat="48.7216" lon="1.9258">
        <ele>60</ele>
        <time>2026-01-30T09:10:32Z</time>
      </trkpt>
      <trkpt lat="48.72158" lon="1.92589">
        <ele>60</ele>
        <time>2026-01-30T09:10:33Z</time>
      </trkpt>
      <trkpt lat="48.72155" lon="1.92598">
        <ele>60</ele>
        <time>2026-01-30T09:10:34Z</time>
      </trkpt>
      <trkpt lat="48.72152" lon="1.92606">
        <ele>60.6</ele>
        <time>2026-01-30T09:10:35Z</time>
      </trkpt>
      <trkpt lat="48.7215" lon="1.92615">
        <ele>60.8</ele>
        <time>2026-01-30T09:10:36Z</time>
      </trkpt>
      <trkpt lat="48.72147" lon="1.92624">
        <ele>60.8</ele>
        <time>2026-01-30T09:10:37Z</time>
      </trkpt>
      <trkpt lat="48.72144" lon="1.92633">
        <ele>60.8</ele>
        <time>2026-01-30T09:10:38Z</time>
      </trkpt>
      <trkpt lat="48.72142" lon="1.92642">
        <ele>60.8</ele>
        <time>2026-01-30T09:10:39Z</time>
      </trkpt>
      <trkpt lat="48.72139" lon="1.92649">
        <ele>61.6</ele>
        <time>2026-01-30T09:10:40Z</time>
      </trkpt>
      <trkpt lat="48.72137" lon="1.92658">
        <ele>61.6</ele>
        <time>2026-01-30T09:10:41Z</time>
      </trkpt>
      <trkpt lat="48.72134" lon="1.92666">
        <ele>61.6</ele>
        <time>2026-01-30T09:10:42Z</time>
      </trkpt>
      <trkpt lat="48.72132" lon="1.92676">
        <ele>61.6</ele>
        <time>2026-01-30T09:10:43Z</time>
      </trkpt>
      <trkpt lat="48.7213" lon="1.92683">
        <ele>61.4</ele>
        <time>2026-01-30T09:10:44Z</time>
      </trkpt>
      <trkpt lat="48.72127" lon="1.92691">
        <ele>61.4</ele>
        <time>2026-01-30T09:10:45Z</time>
      </trkpt>
      <trkpt lat="48.72125" lon="1.927">
        <ele>61.4</ele>
        <time>2026-01-30T09:10:46Z</time>
      </trkpt>
      <trkpt lat="48.72123" lon="1.92708">
        <ele>61.4</ele>
        <time>2026-01-30T09:10:47Z</time>
      </trkpt>
      <trkpt lat="48.7212" lon="1.92716">
        <ele>61.6</ele>
        <time>2026-01-30T09:10:48Z</time>
      </trkpt>
      <trkpt lat="48.72117" lon="1.92723">
        <ele>61.6</ele>
        <time>2026-01-30T09:10:49Z</time>
      </trkpt>
      <trkpt lat="48.72115" lon="1.92732">
        <ele>61.6</ele>
        <time>2026-01-30T09:10:50Z</time>
      </trkpt>
      <trkpt lat="48.72112" lon="1.92741">
        <ele>61.8</ele>
        <time>2026-01-30T09:10:51Z</time>
      </trkpt>
      <trkpt lat="48.7211" lon="1.9275">
        <ele>61.4</ele>
        <time>2026-01-30T09:10:52Z</time>
      </trkpt>
      <trkpt lat="48.72108" lon="1.92759">
        <ele>61.4</ele>
        <time>2026-01-30T09:10:53Z</time>
      </trkpt>
      <trkpt lat="48.72105" lon="1.92768">
        <ele>61.4</ele>
        <time>2026-01-30T09:10:54Z</time>
      </trkpt>
      <trkpt lat="48.72102" lon="1.92777">
        <ele>60.4</ele>
        <time>2026-01-30T09:10:55Z</time>
      </trkpt>
      <trkpt lat="48.72099" lon="1.92787">
        <ele>59.2</ele>
        <time>2026-01-30T09:10:56Z</time>
      </trkpt>
      <trkpt lat="48.72096" lon="1.92797">
        <ele>59.2</ele>
        <time>2026-01-30T09:10:57Z</time>
      </trkpt>
      <trkpt lat="48.72092" lon="1.92807">
        <ele>59.2</ele>
        <time>2026-01-30T09:10:58Z</time>
      </trkpt>
      <trkpt lat="48.72089" lon="1.92818">
        <ele>59.2</ele>
        <time>2026-01-30T09:10:59Z</time>
      </trkpt>
      <trkpt lat="48.72086" lon="1.92828">
        <ele>59.4</ele>
        <time>2026-01-30T09:11:00Z</time>
      </trkpt>
      <trkpt lat="48.72083" lon="1.92838">
        <ele>59.4</ele>
        <time>2026-01-30T09:11:01Z</time>
      </trkpt>
      <trkpt lat="48.7208" lon="1.92847">
        <ele>59.4</ele>
        <time>2026-01-30T09:11:02Z</time>
      </trkpt>
      <trkpt lat="48.72076" lon="1.92856">
        <ele>59.8</ele>
        <time>2026-01-30T09:11:03Z</time>
      </trkpt>
      <trkpt lat="48.72072" lon="1.92866">
        <ele>59</ele>
        <time>2026-01-30T09:11:04Z</time>
      </trkpt>
      <trkpt lat="48.72069" lon="1.92877">
        <ele>59</ele>
        <time>2026-01-30T09:11:05Z</time>
      </trkpt>
      <trkpt lat="48.72065" lon="1.92888">
        <ele>59</ele>
        <time>2026-01-30T09:11:06Z</time>
      </trkpt>
      <trkpt lat="48.72063" lon="1.92897">
        <ele>59</ele>
        <time>2026-01-30T09:11:07Z</time>
      </trkpt>
      <trkpt lat="48.72061" lon="1.92907">
        <ele>59.6</ele>
        <time>2026-01-30T09:11:08Z</time>
      </trkpt>
      <trkpt lat="48.7206" lon="1.92918">
        <ele>59.6</ele>
        <time>2026-01-30T09:11:09Z</time>
      </trkpt>
      <trkpt lat="48.72058" lon="1.92932">
        <ele>59.6</ele>
        <time>2026-01-30T09:11:10Z</time>
      </trkpt>
      <trkpt lat="48.72058" lon="1.92943">
        <ele>60</ele>
        <time>2026-01-30T09:11:11Z</time>
      </trkpt>
      <trkpt lat="48.72058" lon="1.92954">
        <ele>60.6</ele>
        <time>2026-01-30T09:11:12Z</time>
      </trkpt>
      <trkpt lat="48.72058" lon="1.92965">
        <ele>60.6</ele>
        <time>2026-01-30T09:11:13Z</time>
      </trkpt>
      <trkpt lat="48.72057" lon="1.92974">
        <ele>60.6</ele>
        <time>2026-01-30T09:11:14Z</time>
      </trkpt>
      <trkpt lat="48.72056" lon="1.92985">
        <ele>60</ele>
        <time>2026-01-30T09:11:15Z</time>
      </trkpt>
      <trkpt lat="48.72056" lon="1.92995">
        <ele>59.6</ele>
        <time>2026-01-30T09:11:16Z</time>
      </trkpt>
      <trkpt lat="48.72055" lon="1.93006">
        <ele>59.6</ele>
        <time>2026-01-30T09:11:17Z</time>
      </trkpt>
      <trkpt lat="48.72054" lon="1.93017">
        <ele>59.6</ele>
        <time>2026-01-30T09:11:18Z</time>
      </trkpt>
      <trkpt lat="48.72053" lon="1.93027">
        <ele>59.6</ele>
        <time>2026-01-30T09:11:19Z</time>
      </trkpt>
      <trkpt lat="48.72051" lon="1.9304">
        <ele>59.6</ele>
        <time>2026-01-30T09:11:20Z</time>
      </trkpt>
      <trkpt lat="48.7205" lon="1.9305">
        <ele>59.6</ele>
        <time>2026-01-30T09:11:21Z</time>
      </trkpt>
      <trkpt lat="48.72049" lon="1.93061">
        <ele>59.6</ele>
        <time>2026-01-30T09:11:22Z</time>
      </trkpt>
      <trkpt lat="48.72046" lon="1.93072">
        <ele>58.6</ele>
        <time>2026-01-30T09:11:23Z</time>
      </trkpt>
      <trkpt lat="48.72044" lon="1.93082">
        <ele>58.8</ele>
        <time>2026-01-30T09:11:24Z</time>
      </trkpt>
      <trkpt lat="48.72042" lon="1.93093">
        <ele>58.8</ele>
        <time>2026-01-30T09:11:25Z</time>
      </trkpt>
      <trkpt lat="48.72039" lon="1.93104">
        <ele>58.8</ele>
        <time>2026-01-30T09:11:26Z</time>
      </trkpt>
      <trkpt lat="48.72037" lon="1.93115">
        <ele>58.8</ele>
        <time>2026-01-30T09:11:27Z</time>
      </trkpt>
      <trkpt lat="48.72035" lon="1.93127">
        <ele>59</ele>
        <time>2026-01-30T09:11:28Z</time>
      </trkpt>
      <trkpt lat="48.72033" lon="1.93139">
        <ele>59</ele>
        <time>2026-01-30T09:11:29Z</time>
      </trkpt>
      <trkpt lat="48.72032" lon="1.93151">
        <ele>59</ele>
        <time>2026-01-30T09:11:30Z</time>
      </trkpt>
      <trkpt lat="48.72031" lon="1.93163">
        <ele>58.2</ele>
        <time>2026-01-30T09:11:31Z</time>
      </trkpt>
      <trkpt lat="48.72031" lon="1.93175">
        <ele>58</ele>
        <time>2026-01-30T09:11:32Z</time>
      </trkpt>
      <trkpt lat="48.7203" lon="1.93187">
        <ele>58</ele>
        <time>2026-01-30T09:11:33Z</time>
      </trkpt>
      <trkpt lat="48.72029" lon="1.93199">
        <ele>58</ele>
        <time>2026-01-30T09:11:34Z</time>
      </trkpt>
      <trkpt lat="48.72027" lon="1.93211">
        <ele>58</ele>
        <time>2026-01-30T09:11:35Z</time>
      </trkpt>
      <trkpt lat="48.72026" lon="1.93223">
        <ele>57.8</ele>
        <time>2026-01-30T09:11:36Z</time>
      </trkpt>
      <trkpt lat="48.72023" lon="1.93235">
        <ele>57.8</ele>
        <time>2026-01-30T09:11:37Z</time>
      </trkpt>
      <trkpt lat="48.72021" lon="1.93246">
        <ele>57.8</ele>
        <time>2026-01-30T09:11:38Z</time>
      </trkpt>
      <trkpt lat="48.7202" lon="1.93257">
        <ele>58.4</ele>
        <time>2026-01-30T09:11:39Z</time>
      </trkpt>
      <trkpt lat="48.72018" lon="1.93269">
        <ele>57.8</ele>
        <time>2026-01-30T09:11:40Z</time>
      </trkpt>
      <trkpt lat="48.72017" lon="1.93281">
        <ele>57.8</ele>
        <time>2026-01-30T09:11:41Z</time>
      </trkpt>
      <trkpt lat="48.72015" lon="1.93292">
        <ele>57.8</ele>
        <time>2026-01-30T09:11:42Z</time>
      </trkpt>
      <trkpt lat="48.72015" lon="1.93305">
        <ele>57.4</ele>
        <time>2026-01-30T09:11:43Z</time>
      </trkpt>
      <trkpt lat="48.72015" lon="1.93317">
        <ele>56.2</ele>
        <time>2026-01-30T09:11:44Z</time>
      </trkpt>
      <trkpt lat="48.72015" lon="1.9333">
        <ele>56.2</ele>
        <time>2026-01-30T09:11:45Z</time>
      </trkpt>
      <trkpt lat="48.72015" lon="1.93342">
        <ele>56.2</ele>
        <time>2026-01-30T09:11:46Z</time>
      </trkpt>
      <trkpt lat="48.72015" lon="1.93354">
        <ele>57</ele>
        <time>2026-01-30T09:11:47Z</time>
      </trkpt>
      <trkpt lat="48.72016" lon="1.93365">
        <ele>57.4</ele>
        <time>2026-01-30T09:11:48Z</time>
      </trkpt>
      <trkpt lat="48.72016" lon="1.93375">
        <ele>57.4</ele>
        <time>2026-01-30T09:11:49Z</time>
      </trkpt>
      <trkpt lat="48.72017" lon="1.93387">
        <ele>57.4</ele>
        <time>2026-01-30T09:11:50Z</time>
      </trkpt>
      <trkpt lat="48.72018" lon="1.93397">
        <ele>57.4</ele>
        <time>2026-01-30T09:11:51Z</time>
      </trkpt>
      <trkpt lat="48.72019" lon="1.93409">
        <ele>57</ele>
        <time>2026-01-30T09:11:52Z</time>
      </trkpt>
      <trkpt lat="48.7202" lon="1.9342">
        <ele>57</ele>
        <time>2026-01-30T09:11:53Z</time>
      </trkpt>
      <trkpt lat="48.72021" lon="1.93432">
        <ele>57</ele>
        <time>2026-01-30T09:11:54Z</time>
      </trkpt>
      <trkpt lat="48.72021" lon="1.93444">
        <ele>57</ele>
        <time>2026-01-30T09:11:55Z</time>
      </trkpt>
      <trkpt lat="48.72021" lon="1.93455">
        <ele>57</ele>
        <time>2026-01-30T09:11:56Z</time>
      </trkpt>
      <trkpt lat="48.72022" lon="1.93467">
        <ele>57</ele>
        <time>2026-01-30T09:11:57Z</time>
      </trkpt>
      <trkpt lat="48.72023" lon="1.9348">
        <ele>57</ele>
        <time>2026-01-30T09:11:58Z</time>
      </trkpt>
      <trkpt lat="48.72023" lon="1.93491">
        <ele>56</ele>
        <time>2026-01-30T09:11:59Z</time>
      </trkpt>
      <trkpt lat="48.72024" lon="1.93503">
        <ele>56</ele>
        <time>2026-01-30T09:12:00Z</time>
      </trkpt>
      <trkpt lat="48.72024" lon="1.93515">
        <ele>56</ele>
        <time>2026-01-30T09:12:01Z</time>
      </trkpt>
      <trkpt lat="48.72023" lon="1.93527">
        <ele>56</ele>
        <time>2026-01-30T09:12:02Z</time>
      </trkpt>
      <trkpt lat="48.72023" lon="1.93537">
        <ele>56</ele>
        <time>2026-01-30T09:12:03Z</time>
      </trkpt>
      <trkpt lat="48.72022" lon="1.93549">
        <ele>55.4</ele>
        <time>2026-01-30T09:12:04Z</time>
      </trkpt>
      <trkpt lat="48.72021" lon="1.9356">
        <ele>55.4</ele>
        <time>2026-01-30T09:12:05Z</time>
      </trkpt>
      <trkpt lat="48.72021" lon="1.9357">
        <ele>55.4</ele>
        <time>2026-01-30T09:12:06Z</time>
      </trkpt>
      <trkpt lat="48.72021" lon="1.9358">
        <ele>56.2</ele>
        <time>2026-01-30T09:12:07Z</time>
      </trkpt>
      <trkpt lat="48.72021" lon="1.9359">
        <ele>56.2</ele>
        <time>2026-01-30T09:12:08Z</time>
      </trkpt>
      <trkpt lat="48.72018" lon="1.93601">
        <ele>56.2</ele>
        <time>2026-01-30T09:12:09Z</time>
      </trkpt>
      <trkpt lat="48.72017" lon="1.93611">
        <ele>56.2</ele>
        <time>2026-01-30T09:12:10Z</time>
      </trkpt>
      <trkpt lat="48.72017" lon="1.93621">
        <ele>55.8</ele>
        <time>2026-01-30T09:12:11Z</time>
      </trkpt>
      <trkpt lat="48.72018" lon="1.93631">
        <ele>55.8</ele>
        <time>2026-01-30T09:12:12Z</time>
      </trkpt>
      <trkpt lat="48.72018" lon="1.93641">
        <ele>55.8</ele>
        <time>2026-01-30T09:12:13Z</time>
      </trkpt>
      <trkpt lat="48.72019" lon="1.93652">
        <ele>55.8</ele>
        <time>2026-01-30T09:12:14Z</time>
      </trkpt>
      <trkpt lat="48.72018" lon="1.93663">
        <ele>55.4</ele>
        <time>2026-01-30T09:12:15Z</time>
      </trkpt>
      <trkpt lat="48.72018" lon="1.93673">
        <ele>55.6</ele>
        <time>2026-01-30T09:12:16Z</time>
      </trkpt>
      <trkpt lat="48.72018" lon="1.93684">
        <ele>55.6</ele>
        <time>2026-01-30T09:12:17Z</time>
      </trkpt>
      <trkpt lat="48.72019" lon="1.93695">
        <ele>55.6</ele>
        <time>2026-01-30T09:12:18Z</time>
      </trkpt>
      <trkpt lat="48.7202" lon="1.93706">
        <ele>55.6</ele>
        <time>2026-01-30T09:12:19Z</time>
      </trkpt>
      <trkpt lat="48.72022" lon="1.93717">
        <ele>56</ele>
        <time>2026-01-30T09:12:20Z</time>
      </trkpt>
      <trkpt lat="48.72023" lon="1.93728">
        <ele>56</ele>
        <time>2026-01-30T09:12:21Z</time>
      </trkpt>
      <trkpt lat="48.72023" lon="1.93739">
        <ele>56</ele>
        <time>2026-01-30T09:12:22Z</time>
      </trkpt>
      <trkpt lat="48.72024" lon="1.9375">
        <ele>55.8</ele>
        <time>2026-01-30T09:12:23Z</time>
      </trkpt>
      <trkpt lat="48.72025" lon="1.93761">
        <ele>55.4</ele>
        <time>2026-01-30T09:12:24Z</time>
      </trkpt>
      <trkpt lat="48.72025" lon="1.93772">
        <ele>55.4</ele>
        <time>2026-01-30T09:12:25Z</time>
      </trkpt>
      <trkpt lat="48.72026" lon="1.93783">
        <ele>55.4</ele>
        <time>2026-01-30T09:12:26Z</time>
      </trkpt>
      <trkpt lat="48.72028" lon="1.93793">
        <ele>55.4</ele>
        <time>2026-01-30T09:12:27Z</time>
      </trkpt>
      <trkpt lat="48.72028" lon="1.93804">
        <ele>55.2</ele>
        <time>2026-01-30T09:12:28Z</time>
      </trkpt>
      <trkpt lat="48.72028" lon="1.93815">
        <ele>55.2</ele>
        <time>2026-01-30T09:12:29Z</time>
      </trkpt>
      <trkpt lat="48.72029" lon="1.93826">
        <ele>55.2</ele>
        <time>2026-01-30T09:12:30Z</time>
      </trkpt>
      <trkpt lat="48.72029" lon="1.93837">
        <ele>55</ele>
        <time>2026-01-30T09:12:31Z</time>
      </trkpt>
      <trkpt lat="48.72029" lon="1.93848">
        <ele>54.6</ele>
        <time>2026-01-30T09:12:32Z</time>
      </trkpt>
      <trkpt lat="48.72029" lon="1.93858">
        <ele>54.6</ele>
        <time>2026-01-30T09:12:33Z</time>
      </trkpt>
      <trkpt lat="48.72029" lon="1.93869">
        <ele>54.6</ele>
        <time>2026-01-30T09:12:34Z</time>
      </trkpt>
      <trkpt lat="48.72028" lon="1.9388">
        <ele>54.6</ele>
        <time>2026-01-30T09:12:35Z</time>
      </trkpt>
      <trkpt lat="48.72028" lon="1.93892">
        <ele>53.8</ele>
        <time>2026-01-30T09:12:36Z</time>
      </trkpt>
      <trkpt lat="48.72027" lon="1.93903">
        <ele>53.8</ele>
        <time>2026-01-30T09:12:37Z</time>
      </trkpt>
      <trkpt lat="48.72026" lon="1.93914">
        <ele>53.8</ele>
        <time>2026-01-30T09:12:38Z</time>
      </trkpt>
      <trkpt lat="48.72025" lon="1.93925">
        <ele>54.6</ele>
        <time>2026-01-30T09:12:39Z</time>
      </trkpt>
      <trkpt lat="48.72025" lon="1.93935">
        <ele>55.2</ele>
        <time>2026-01-30T09:12:40Z</time>
      </trkpt>
      <trkpt lat="48.72025" lon="1.93946">
        <ele>55.2</ele>
        <time>2026-01-30T09:12:41Z</time>
      </trkpt>
      <trkpt lat="48.72024" lon="1.93957">
        <ele>55.2</ele>
        <time>2026-01-30T09:12:42Z</time>
      </trkpt>
      <trkpt lat="48.72025" lon="1.9397">
        <ele>55.2</ele>
        <time>2026-01-30T09:12:43Z</time>
      </trkpt>
      <trkpt lat="48.72024" lon="1.93982">
        <ele>54.2</ele>
        <time>2026-01-30T09:12:44Z</time>
      </trkpt>
      <trkpt lat="48.72024" lon="1.93993">
        <ele>54.2</ele>
        <time>2026-01-30T09:12:45Z</time>
      </trkpt>
      <trkpt lat="48.72024" lon="1.94006">
        <ele>54.2</ele>
        <time>2026-01-30T09:12:46Z</time>
      </trkpt>
      <trkpt lat="48.72024" lon="1.94018">
        <ele>53.2</ele>
        <time>2026-01-30T09:12:47Z</time>
      </trkpt>
      <trkpt lat="48.72024" lon="1.94031">
        <ele>52.8</ele>
        <time>2026-01-30T09:12:48Z</time>
      </trkpt>
      <trkpt lat="48.72024" lon="1.94045">
        <ele>52.8</ele>
        <time>2026-01-30T09:12:49Z</time>
      </trkpt>
      <trkpt lat="48.72023" lon="1.94058">
        <ele>52.8</ele>
        <time>2026-01-30T09:12:50Z</time>
      </trkpt>
      <trkpt lat="48.72022" lon="1.94071">
        <ele>52.8</ele>
        <time>2026-01-30T09:12:51Z</time>
      </trkpt>
      <trkpt lat="48.72021" lon="1.94083">
        <ele>53</ele>
        <time>2026-01-30T09:12:52Z</time>
      </trkpt>
      <trkpt lat="48.7202" lon="1.94095">
        <ele>53</ele>
        <time>2026-01-30T09:12:53Z</time>
      </trkpt>
      <trkpt lat="48.72019" lon="1.94107">
        <ele>53</ele>
        <time>2026-01-30T09:12:54Z</time>
      </trkpt>
      <trkpt lat="48.72018" lon="1.94119">
        <ele>52.6</ele>
        <time>2026-01-30T09:12:55Z</time>
      </trkpt>
      <trkpt lat="48.72017" lon="1.94131">
        <ele>52.2</ele>
        <time>2026-01-30T09:12:56Z</time>
      </trkpt>
      <trkpt lat="48.72016" lon="1.94143">
        <ele>52.2</ele>
        <time>2026-01-30T09:12:57Z</time>
      </trkpt>
      <trkpt lat="48.72015" lon="1.94154">
        <ele>52.2</ele>
        <time>2026-01-30T09:12:58Z</time>
      </trkpt>
      <trkpt lat="48.72015" lon="1.94165">
        <ele>52.6</ele>
        <time>2026-01-30T09:12:59Z</time>
      </trkpt>
      <trkpt lat="48.72015" lon="1.94176">
        <ele>53.2</ele>
        <time>2026-01-30T09:13:00Z</time>
      </trkpt>
      <trkpt lat="48.72015" lon="1.94188">
        <ele>53.2</ele>
        <time>2026-01-30T09:13:01Z</time>
      </trkpt>
      <trkpt lat="48.72016" lon="1.94199">
        <ele>53.2</ele>
        <time>2026-01-30T09:13:02Z</time>
      </trkpt>
      <trkpt lat="48.72017" lon="1.9421">
        <ele>54</ele>
        <time>2026-01-30T09:13:03Z</time>
      </trkpt>
      <trkpt lat="48.72019" lon="1.9422">
        <ele>54.4</ele>
        <time>2026-01-30T09:13:04Z</time>
      </trkpt>
      <trkpt lat="48.7202" lon="1.9423">
        <ele>54.4</ele>
        <time>2026-01-30T09:13:05Z</time>
      </trkpt>
      <trkpt lat="48.72022" lon="1.9424">
        <ele>54.4</ele>
        <time>2026-01-30T09:13:06Z</time>
      </trkpt>
      <trkpt lat="48.72024" lon="1.9425">
        <ele>54.4</ele>
        <time>2026-01-30T09:13:07Z</time>
      </trkpt>
      <trkpt lat="48.72026" lon="1.9426">
        <ele>54.6</ele>
        <time>2026-01-30T09:13:08Z</time>
      </trkpt>
      <trkpt lat="48.72029" lon="1.94269">
        <ele>54.6</ele>
        <time>2026-01-30T09:13:09Z</time>
      </trkpt>
      <trkpt lat="48.72031" lon="1.94278">
        <ele>54.6</ele>
        <time>2026-01-30T09:13:10Z</time>
      </trkpt>
      <trkpt lat="48.72034" lon="1.94287">
        <ele>54.4</ele>
        <time>2026-01-30T09:13:11Z</time>
      </trkpt>
      <trkpt lat="48.72037" lon="1.94296">
        <ele>54.6</ele>
        <time>2026-01-30T09:13:12Z</time>
      </trkpt>
      <trkpt lat="48.72039" lon="1.94306">
        <ele>54.6</ele>
        <time>2026-01-30T09:13:13Z</time>
      </trkpt>
      <trkpt lat="48.72042" lon="1.94315">
        <ele>54.6</ele>
        <time>2026-01-30T09:13:14Z</time>
      </trkpt>
      <trkpt lat="48.72045" lon="1.94325">
        <ele>54.6</ele>
        <time>2026-01-30T09:13:15Z</time>
      </trkpt>
      <trkpt lat="48.72049" lon="1.94333">
        <ele>54</ele>
        <time>2026-01-30T09:13:16Z</time>
      </trkpt>
      <trkpt lat="48.72051" lon="1.94342">
        <ele>54</ele>
        <time>2026-01-30T09:13:17Z</time>
      </trkpt>
      <trkpt lat="48.72054" lon="1.94352">
        <ele>54</ele>
        <time>2026-01-30T09:13:18Z</time>
      </trkpt>
      <trkpt lat="48.72057" lon="1.94363">
        <ele>54</ele>
        <time>2026-01-30T09:13:19Z</time>
      </trkpt>
      <trkpt lat="48.72059" lon="1.94375">
        <ele>53</ele>
        <time>2026-01-30T09:13:20Z</time>
      </trkpt>
      <trkpt lat="48.72062" lon="1.94386">
        <ele>53</ele>
        <time>2026-01-30T09:13:21Z</time>
      </trkpt>
      <trkpt lat="48.72063" lon="1.94398">
        <ele>53</ele>
        <time>2026-01-30T09:13:22Z</time>
      </trkpt>
      <trkpt lat="48.72065" lon="1.9441">
        <ele>53</ele>
        <time>2026-01-30T09:13:23Z</time>
      </trkpt>
      <trkpt lat="48.72066" lon="1.94421">
        <ele>52.8</ele>
        <time>2026-01-30T09:13:24Z</time>
      </trkpt>
      <trkpt lat="48.72068" lon="1.94433">
        <ele>52.8</ele>
        <time>2026-01-30T09:13:25Z</time>
      </trkpt>
      <trkpt lat="48.72069" lon="1.94445">
        <ele>52.8</ele>
        <time>2026-01-30T09:13:26Z</time>
      </trkpt>
      <trkpt lat="48.7207" lon="1.94456">
        <ele>52</ele>
        <time>2026-01-30T09:13:27Z</time>
      </trkpt>
      <trkpt lat="48.72071" lon="1.94468">
        <ele>52.2</ele>
        <time>2026-01-30T09:13:28Z</time>
      </trkpt>
      <trkpt lat="48.72072" lon="1.9448">
        <ele>52.2</ele>
        <time>2026-01-30T09:13:29Z</time>
      </trkpt>
      <trkpt lat="48.72074" lon="1.94491">
        <ele>52.2</ele>
        <time>2026-01-30T09:13:30Z</time>
      </trkpt>
      <trkpt lat="48.72075" lon="1.94503">
        <ele>52.2</ele>
        <time>2026-01-30T09:13:31Z</time>
      </trkpt>
      <trkpt lat="48.72077" lon="1.94514">
        <ele>51.2</ele>
        <time>2026-01-30T09:13:32Z</time>
      </trkpt>
      <trkpt lat="48.72079" lon="1.94525">
        <ele>51.2</ele>
        <time>2026-01-30T09:13:33Z</time>
      </trkpt>
      <trkpt lat="48.72081" lon="1.94537">
        <ele>51.2</ele>
        <time>2026-01-30T09:13:34Z</time>
      </trkpt>
      <trkpt lat="48.72083" lon="1.94549">
        <ele>51.6</ele>
        <time>2026-01-30T09:13:35Z</time>
      </trkpt>
      <trkpt lat="48.72086" lon="1.9456">
        <ele>52</ele>
        <time>2026-01-30T09:13:36Z</time>
      </trkpt>
      <trkpt lat="48.72088" lon="1.94571">
        <ele>52</ele>
        <time>2026-01-30T09:13:37Z</time>
      </trkpt>
      <trkpt lat="48.7209" lon="1.94582">
        <ele>52</ele>
        <time>2026-01-30T09:13:38Z</time>
      </trkpt>
      <trkpt lat="48.72093" lon="1.94592">
        <ele>52</ele>
        <time>2026-01-30T09:13:39Z</time>
      </trkpt>
      <trkpt lat="48.72095" lon="1.94602">
        <ele>52.8</ele>
        <time>2026-01-30T09:13:40Z</time>
      </trkpt>
      <trkpt lat="48.72098" lon="1.94612">
        <ele>52.8</ele>
        <time>2026-01-30T09:13:41Z</time>
      </trkpt>
      <trkpt lat="48.72101" lon="1.94622">
        <ele>52.8</ele>
        <time>2026-01-30T09:13:42Z</time>
      </trkpt>
      <trkpt lat="48.72104" lon="1.94633">
        <ele>52.8</ele>
        <time>2026-01-30T09:13:43Z</time>
      </trkpt>
      <trkpt lat="48.72106" lon="1.94643">
        <ele>52</ele>
        <time>2026-01-30T09:13:44Z</time>
      </trkpt>
      <trkpt lat="48.72109" lon="1.94654">
        <ele>52</ele>
        <time>2026-01-30T09:13:45Z</time>
      </trkpt>
      <trkpt lat="48.72112" lon="1.94664">
        <ele>52</ele>
        <time>2026-01-30T09:13:46Z</time>
      </trkpt>
      <trkpt lat="48.72114" lon="1.94675">
        <ele>51.8</ele>
        <time>2026-01-30T09:13:47Z</time>
      </trkpt>
      <trkpt lat="48.72117" lon="1.94686">
        <ele>51.8</ele>
        <time>2026-01-30T09:13:48Z</time>
      </trkpt>
      <trkpt lat="48.72119" lon="1.94697">
        <ele>51.8</ele>
        <time>2026-01-30T09:13:49Z</time>
      </trkpt>
      <trkpt lat="48.72121" lon="1.94707">
        <ele>51.8</ele>
        <time>2026-01-30T09:13:50Z</time>
      </trkpt>
      <trkpt lat="48.72123" lon="1.94717">
        <ele>51.8</ele>
        <time>2026-01-30T09:13:51Z</time>
      </trkpt>
      <trkpt lat="48.72125" lon="1.94727">
        <ele>52.4</ele>
        <time>2026-01-30T09:13:52Z</time>
      </trkpt>
      <trkpt lat="48.72128" lon="1.94737">
        <ele>52.4</ele>
        <time>2026-01-30T09:13:53Z</time>
      </trkpt>
      <trkpt lat="48.7213" lon="1.94747">
        <ele>52.4</ele>
        <time>2026-01-30T09:13:54Z</time>
      </trkpt>
      <trkpt lat="48.72132" lon="1.94756">
        <ele>52.4</ele>
        <time>2026-01-30T09:13:55Z</time>
      </trkpt>
      <trkpt lat="48.72134" lon="1.94766">
        <ele>52.8</ele>
        <time>2026-01-30T09:13:56Z</time>
      </trkpt>
      <trkpt lat="48.72135" lon="1.94777">
        <ele>52.8</ele>
        <time>2026-01-30T09:13:57Z</time>
      </trkpt>
      <trkpt lat="48.72137" lon="1.94785">
        <ele>52.8</ele>
        <time>2026-01-30T09:13:58Z</time>
      </trkpt>
      <trkpt lat="48.72139" lon="1.94795">
        <ele>52.8</ele>
        <time>2026-01-30T09:13:59Z</time>
      </trkpt>
      <trkpt lat="48.72139" lon="1.94805">
        <ele>52.4</ele>
        <time>2026-01-30T09:14:00Z</time>
      </trkpt>
      <trkpt lat="48.72138" lon="1.94813">
        <ele>52.4</ele>
        <time>2026-01-30T09:14:01Z</time>
      </trkpt>
      <trkpt lat="48.72135" lon="1.94819">
        <ele>52.4</ele>
        <time>2026-01-30T09:14:02Z</time>
      </trkpt>
      <trkpt lat="48.72131" lon="1.9482">
        <ele>52.4</ele>
        <time>2026-01-30T09:14:03Z</time>
      </trkpt>
      <trkpt lat="48.72126" lon="1.94819">
        <ele>51.2</ele>
        <time>2026-01-30T09:14:04Z</time>
      </trkpt>
      <trkpt lat="48.7212" lon="1.94817">
        <ele>51.2</ele>
        <time>2026-01-30T09:14:05Z</time>
      </trkpt>
      <trkpt lat="48.72114" lon="1.94816">
        <ele>51.2</ele>
        <time>2026-01-30T09:14:06Z</time>
      </trkpt>
      <trkpt lat="48.72108" lon="1.94815">
        <ele>50.2</ele>
        <time>2026-01-30T09:14:07Z</time>
      </trkpt>
      <trkpt lat="48.72101" lon="1.94815">
        <ele>49.8</ele>
        <time>2026-01-30T09:14:08Z</time>
      </trkpt>
      <trkpt lat="48.72094" lon="1.94817">
        <ele>49.8</ele>
        <time>2026-01-30T09:14:09Z</time>
      </trkpt>
      <trkpt lat="48.72088" lon="1.94819">
        <ele>49.8</ele>
        <time>2026-01-30T09:14:10Z</time>
      </trkpt>
      <trkpt lat="48.72082" lon="1.94821">
        <ele>49.8</ele>
        <time>2026-01-30T09:14:11Z</time>
      </trkpt>
      <trkpt lat="48.72076" lon="1.94824">
        <ele>50.2</ele>
        <time>2026-01-30T09:14:12Z</time>
      </trkpt>
      <trkpt lat="48.7207" lon="1.94828">
        <ele>50.2</ele>
        <time>2026-01-30T09:14:13Z</time>
      </trkpt>
      <trkpt lat="48.72065" lon="1.94831">
        <ele>50.2</ele>
        <time>2026-01-30T09:14:14Z</time>
      </trkpt>
      <trkpt lat="48.7206" lon="1.94836">
        <ele>50.2</ele>
        <time>2026-01-30T09:14:15Z</time>
      </trkpt>
      <trkpt lat="48.72055" lon="1.94841">
        <ele>50.4</ele>
        <time>2026-01-30T09:14:16Z</time>
      </trkpt>
      <trkpt lat="48.7205" lon="1.94847">
        <ele>50.4</ele>
        <time>2026-01-30T09:14:17Z</time>
      </trkpt>
      <trkpt lat="48.72045" lon="1.94853">
        <ele>50.4</ele>
        <time>2026-01-30T09:14:18Z</time>
      </trkpt>
      <trkpt lat="48.7204" lon="1.94858">
        <ele>49.8</ele>
        <time>2026-01-30T09:14:19Z</time>
      </trkpt>
      <trkpt lat="48.72035" lon="1.94864">
        <ele>50</ele>
        <time>2026-01-30T09:14:20Z</time>
      </trkpt>
      <trkpt lat="48.7203" lon="1.94871">
        <ele>50</ele>
        <time>2026-01-30T09:14:21Z</time>
      </trkpt>
      <trkpt lat="48.72027" lon="1.94878">
        <ele>50</ele>
        <time>2026-01-30T09:14:22Z</time>
      </trkpt>
      <trkpt lat="48.72024" lon="1.94885">
        <ele>51</ele>
        <time>2026-01-30T09:14:23Z</time>
      </trkpt>
      <trkpt lat="48.72022" lon="1.94892">
        <ele>52.2</ele>
        <time>2026-01-30T09:14:24Z</time>
      </trkpt>
      <trkpt lat="48.72021" lon="1.949">
        <ele>52.2</ele>
        <time>2026-01-30T09:14:25Z</time>
      </trkpt>
      <trkpt lat="48.7202" lon="1.94907">
        <ele>52.2</ele>
        <time>2026-01-30T09:14:26Z</time>
      </trkpt>
      <trkpt lat="48.7202" lon="1.94914">
        <ele>53.2</ele>
        <time>2026-01-30T09:14:27Z</time>
      </trkpt>
      <trkpt lat="48.7202" lon="1.94921">
        <ele>53</ele>
        <time>2026-01-30T09:14:28Z</time>
      </trkpt>
      <trkpt lat="48.7202" lon="1.94928">
        <ele>53</ele>
        <time>2026-01-30T09:14:29Z</time>
      </trkpt>
      <trkpt lat="48.7202" lon="1.94935">
        <ele>53</ele>
        <time>2026-01-30T09:14:30Z</time>
      </trkpt>
      <trkpt lat="48.7202" lon="1.94941">
        <ele>53.4</ele>
        <time>2026-01-30T09:14:31Z</time>
      </trkpt>
      <trkpt lat="48.7202" lon="1.94948">
        <ele>53.4</ele>
        <time>2026-01-30T09:14:32Z</time>
      </trkpt>
      <trkpt lat="48.7202" lon="1.94954">
        <ele>53.4</ele>
        <time>2026-01-30T09:14:33Z</time>
      </trkpt>
      <trkpt lat="48.72019" lon="1.9496">
        <ele>53.4</ele>
        <time>2026-01-30T09:14:34Z</time>
      </trkpt>
      <trkpt lat="48.72019" lon="1.94967">
        <ele>53.6</ele>
        <time>2026-01-30T09:14:35Z</time>
      </trkpt>
      <trkpt lat="48.72018" lon="1.94973">
        <ele>54</ele>
        <time>2026-01-30T09:14:36Z</time>
      </trkpt>
      <trkpt lat="48.72017" lon="1.94979">
        <ele>54</ele>
        <time>2026-01-30T09:14:37Z</time>
      </trkpt>
      <trkpt lat="48.72016" lon="1.94985">
        <ele>54</ele>
        <time>2026-01-30T09:14:38Z</time>
      </trkpt>
      <trkpt lat="48.72014" lon="1.9499">
        <ele>54.2</ele>
        <time>2026-01-30T09:14:39Z</time>
      </trkpt>
      <trkpt lat="48.72013" lon="1.94996">
        <ele>54.8</ele>
        <time>2026-01-30T09:14:40Z</time>
      </trkpt>
      <trkpt lat="48.72011" lon="1.95001">
        <ele>54.8</ele>
        <time>2026-01-30T09:14:41Z</time>
      </trkpt>
      <trkpt lat="48.72009" lon="1.95005">
        <ele>54.8</ele>
        <time>2026-01-30T09:14:42Z</time>
      </trkpt>
      <trkpt lat="48.72006" lon="1.95009">
        <ele>55.2</ele>
        <time>2026-01-30T09:14:43Z</time>
      </trkpt>
      <trkpt lat="48.72003" lon="1.95013">
        <ele>55.4</ele>
        <time>2026-01-30T09:14:44Z</time>
      </trkpt>
      <trkpt lat="48.72001" lon="1.95017">
        <ele>55.4</ele>
        <time>2026-01-30T09:14:45Z</time>
      </trkpt>
      <trkpt lat="48.71999" lon="1.9502">
        <ele>55.4</ele>
        <time>2026-01-30T09:14:46Z</time>
      </trkpt>
      <trkpt lat="48.71996" lon="1.95023">
        <ele>56</ele>
        <time>2026-01-30T09:14:47Z</time>
      </trkpt>
      <trkpt lat="48.71994" lon="1.95025">
        <ele>56.4</ele>
        <time>2026-01-30T09:14:48Z</time>
      </trkpt>
      <trkpt lat="48.71992" lon="1.95028">
        <ele>56.4</ele>
        <time>2026-01-30T09:14:49Z</time>
      </trkpt>
      <trkpt lat="48.71989" lon="1.9503">
        <ele>56.4</ele>
        <time>2026-01-30T09:14:50Z</time>
      </trkpt>
      <trkpt lat="48.71987" lon="1.95033">
        <ele>57</ele>
        <time>2026-01-30T09:14:51Z</time>
      </trkpt>
      <trkpt lat="48.71985" lon="1.95035">
        <ele>57</ele>
        <time>2026-01-30T09:14:52Z</time>
      </trkpt>
      <trkpt lat="48.71982" lon="1.95039">
        <ele>57</ele>
        <time>2026-01-30T09:14:53Z</time>
      </trkpt>
      <trkpt lat="48.71981" lon="1.95042">
        <ele>57</ele>
        <time>2026-01-30T09:14:54Z</time>
      </trkpt>
      <trkpt lat="48.71979" lon="1.95045">
        <ele>57.4</ele>
        <time>2026-01-30T09:14:55Z</time>
      </trkpt>
      <trkpt lat="48.71977" lon="1.95049">
        <ele>57.6</ele>
        <time>2026-01-30T09:14:56Z</time>
      </trkpt>
      <trkpt lat="48.71975" lon="1.95052">
        <ele>57.6</ele>
        <time>2026-01-30T09:14:57Z</time>
      </trkpt>
      <trkpt lat="48.71973" lon="1.95056">
        <ele>57.6</ele>
        <time>2026-01-30T09:14:58Z</time>
      </trkpt>
      <trkpt lat="48.71971" lon="1.9506">
        <ele>58</ele>
        <time>2026-01-30T09:14:59Z</time>
      </trkpt>
      <trkpt lat="48.7197" lon="1.95065">
        <ele>58.2</ele>
        <time>2026-01-30T09:15:00Z</time>
      </trkpt>
      <trkpt lat="48.71968" lon="1.9507">
        <ele>58.2</ele>
        <time>2026-01-30T09:15:01Z</time>
      </trkpt>
      <trkpt lat="48.71966" lon="1.95074">
        <ele>58.2</ele>
        <time>2026-01-30T09:15:02Z</time>
      </trkpt>
      <trkpt lat="48.71964" lon="1.95079">
        <ele>58.2</ele>
        <time>2026-01-30T09:15:03Z</time>
      </trkpt>
      <trkpt lat="48.71963" lon="1.95083">
        <ele>57.8</ele>
        <time>2026-01-30T09:15:04Z</time>
      </trkpt>
      <trkpt lat="48.71961" lon="1.95088">
        <ele>57.8</ele>
        <time>2026-01-30T09:15:05Z</time>
      </trkpt>
      <trkpt lat="48.71959" lon="1.95093">
        <ele>57.8</ele>
        <time>2026-01-30T09:15:06Z</time>
      </trkpt>
      <trkpt lat="48.71958" lon="1.95099">
        <ele>58.2</ele>
        <time>2026-01-30T09:15:07Z</time>
      </trkpt>
      <trkpt lat="48.71956" lon="1.95104">
        <ele>58.2</ele>
        <time>2026-01-30T09:15:08Z</time>
      </trkpt>
      <trkpt lat="48.71954" lon="1.95108">
        <ele>58.2</ele>
        <time>2026-01-30T09:15:09Z</time>
      </trkpt>
      <trkpt lat="48.71951" lon="1.95112">
        <ele>58.2</ele>
        <time>2026-01-30T09:15:10Z</time>
      </trkpt>
      <trkpt lat="48.71949" lon="1.95116">
        <ele>58.2</ele>
        <time>2026-01-30T09:15:11Z</time>
      </trkpt>
      <trkpt lat="48.71947" lon="1.95119">
        <ele>59.4</ele>
        <time>2026-01-30T09:15:12Z</time>
      </trkpt>
      <trkpt lat="48.71945" lon="1.95123">
        <ele>59.4</ele>
        <time>2026-01-30T09:15:13Z</time>
      </trkpt>
      <trkpt lat="48.71944" lon="1.95127">
        <ele>59.4</ele>
        <time>2026-01-30T09:15:14Z</time>
      </trkpt>
      <trkpt lat="48.71943" lon="1.95131">
        <ele>59.4</ele>
        <time>2026-01-30T09:15:15Z</time>
      </trkpt>
      <trkpt lat="48.71942" lon="1.95133">
        <ele>60</ele>
        <time>2026-01-30T09:15:16Z</time>
      </trkpt>
      <trkpt lat="48.71941" lon="1.95136">
        <ele>60</ele>
        <time>2026-01-30T09:15:17Z</time>
      </trkpt>
      <trkpt lat="48.7194" lon="1.95139">
        <ele>60</ele>
        <time>2026-01-30T09:15:18Z</time>
      </trkpt>
      <trkpt lat="48.71939" lon="1.95142">
        <ele>60</ele>
        <time>2026-01-30T09:15:19Z</time>
      </trkpt>
      <trkpt lat="48.71937" lon="1.95145">
        <ele>60.2</ele>
        <time>2026-01-30T09:15:20Z</time>
      </trkpt>
      <trkpt lat="48.71935" lon="1.95148">
        <ele>60.2</ele>
        <time>2026-01-30T09:15:21Z</time>
      </trkpt>
      <trkpt lat="48.71933" lon="1.95151">
        <ele>60.2</ele>
        <time>2026-01-30T09:15:22Z</time>
      </trkpt>
      <trkpt lat="48.71931" lon="1.95154">
        <ele>60.2</ele>
        <time>2026-01-30T09:15:23Z</time>
      </trkpt>
      <trkpt lat="48.71929" lon="1.95157">
        <ele>61.2</ele>
        <time>2026-01-30T09:15:24Z</time>
      </trkpt>
      <trkpt lat="48.71927" lon="1.95159">
        <ele>61.2</ele>
        <time>2026-01-30T09:15:25Z</time>
      </trkpt>
      <trkpt lat="48.71925" lon="1.95161">
        <ele>61.2</ele>
        <time>2026-01-30T09:15:26Z</time>
      </trkpt>
      <trkpt lat="48.71923" lon="1.95163">
        <ele>62.2</ele>
        <time>2026-01-30T09:15:27Z</time>
      </trkpt>
      <trkpt lat="48.7192" lon="1.95166">
        <ele>62.2</ele>
        <time>2026-01-30T09:15:28Z</time>
      </trkpt>
      <trkpt lat="48.71918" lon="1.95168">
        <ele>62.2</ele>
        <time>2026-01-30T09:15:29Z</time>
      </trkpt>
      <trkpt lat="48.71916" lon="1.95169">
        <ele>62.2</ele>
        <time>2026-01-30T09:15:30Z</time>
      </trkpt>
      <trkpt lat="48.71914" lon="1.95171">
        <ele>62.2</ele>
        <time>2026-01-30T09:15:31Z</time>
      </trkpt>
      <trkpt lat="48.71911" lon="1.95172">
        <ele>63.6</ele>
        <time>2026-01-30T09:15:32Z</time>
      </trkpt>
      <trkpt lat="48.71909" lon="1.95174">
        <ele>63.6</ele>
        <time>2026-01-30T09:15:33Z</time>
      </trkpt>
      <trkpt lat="48.71906" lon="1.95175">
        <ele>63.6</ele>
        <time>2026-01-30T09:15:34Z</time>
      </trkpt>
      <trkpt lat="48.71904" lon="1.95175">
        <ele>63.6</ele>
        <time>2026-01-30T09:15:35Z</time>
      </trkpt>
      <trkpt lat="48.71902" lon="1.95175">
        <ele>64</ele>
        <time>2026-01-30T09:15:36Z</time>
      </trkpt>
      <trkpt lat="48.71899" lon="1.95175">
        <ele>64</ele>
        <time>2026-01-30T09:15:37Z</time>
      </trkpt>
      <trkpt lat="48.71897" lon="1.95176">
        <ele>64</ele>
        <time>2026-01-30T09:15:38Z</time>
      </trkpt>
      <trkpt lat="48.71895" lon="1.95176">
        <ele>64</ele>
        <time>2026-01-30T09:15:39Z</time>
      </trkpt>
      <trkpt lat="48.71892" lon="1.95175">
        <ele>64.6</ele>
        <time>2026-01-30T09:15:40Z</time>
      </trkpt>
      <trkpt lat="48.7189" lon="1.95174">
        <ele>64.6</ele>
        <time>2026-01-30T09:15:41Z</time>
      </trkpt>
      <trkpt lat="48.71888" lon="1.95173">
        <ele>64.6</ele>
        <time>2026-01-30T09:15:42Z</time>
      </trkpt>
      <trkpt lat="48.71886" lon="1.95171">
        <ele>64.6</ele>
        <time>2026-01-30T09:15:43Z</time>
      </trkpt>
      <trkpt lat="48.71884" lon="1.9517">
        <ele>65</ele>
        <time>2026-01-30T09:15:44Z</time>
      </trkpt>
      <trkpt lat="48.71882" lon="1.95168">
        <ele>65</ele>
        <time>2026-01-30T09:15:45Z</time>
      </trkpt>
      <trkpt lat="48.7188" lon="1.95165">
        <ele>65</ele>
        <time>2026-01-30T09:15:46Z</time>
      </trkpt>
      <trkpt lat="48.71879" lon="1.95163">
        <ele>65.4</ele>
        <time>2026-01-30T09:15:47Z</time>
      </trkpt>
      <trkpt lat="48.71877" lon="1.95162">
        <ele>66</ele>
        <time>2026-01-30T09:15:48Z</time>
      </trkpt>
      <trkpt lat="48.71875" lon="1.9516">
        <ele>66</ele>
        <time>2026-01-30T09:15:49Z</time>
      </trkpt>
      <trkpt lat="48.71874" lon="1.95158">
        <ele>66</ele>
        <time>2026-01-30T09:15:50Z</time>
      </trkpt>
      <trkpt lat="48.71872" lon="1.95157">
        <ele>66</ele>
        <time>2026-01-30T09:15:51Z</time>
      </trkpt>
      <trkpt lat="48.7187" lon="1.95154">
        <ele>66.4</ele>
        <time>2026-01-30T09:15:52Z</time>
      </trkpt>
      <trkpt lat="48.71869" lon="1.95151">
        <ele>66.4</ele>
        <time>2026-01-30T09:15:53Z</time>
      </trkpt>
      <trkpt lat="48.71867" lon="1.95148">
        <ele>66.4</ele>
        <time>2026-01-30T09:15:54Z</time>
      </trkpt>
      <trkpt lat="48.71866" lon="1.95145">
        <ele>67</ele>
        <time>2026-01-30T09:15:55Z</time>
      </trkpt>
      <trkpt lat="48.71865" lon="1.95142">
        <ele>67.2</ele>
        <time>2026-01-30T09:15:56Z</time>
      </trkpt>
      <trkpt lat="48.71863" lon="1.95138">
        <ele>67.2</ele>
        <time>2026-01-30T09:15:57Z</time>
      </trkpt>
      <trkpt lat="48.71861" lon="1.95134">
        <ele>67.2</ele>
        <time>2026-01-30T09:15:58Z</time>
      </trkpt>
      <trkpt lat="48.7186" lon="1.9513">
        <ele>67.6</ele>
        <time>2026-01-30T09:15:59Z</time>
      </trkpt>
      <trkpt lat="48.71859" lon="1.95126">
        <ele>68</ele>
        <time>2026-01-30T09:16:00Z</time>
      </trkpt>
      <trkpt lat="48.71857" lon="1.95122">
        <ele>68</ele>
        <time>2026-01-30T09:16:01Z</time>
      </trkpt>
      <trkpt lat="48.71856" lon="1.95119">
        <ele>68</ele>
        <time>2026-01-30T09:16:02Z</time>
      </trkpt>
      <trkpt lat="48.71855" lon="1.95115">
        <ele>68.8</ele>
        <time>2026-01-30T09:16:03Z</time>
      </trkpt>
      <trkpt lat="48.71854" lon="1.95112">
        <ele>69</ele>
        <time>2026-01-30T09:16:04Z</time>
      </trkpt>
      <trkpt lat="48.71853" lon="1.95109">
        <ele>69</ele>
        <time>2026-01-30T09:16:05Z</time>
      </trkpt>
      <trkpt lat="48.71852" lon="1.95107">
        <ele>69</ele>
        <time>2026-01-30T09:16:06Z</time>
      </trkpt>
      <trkpt lat="48.71851" lon="1.95104">
        <ele>69.4</ele>
        <time>2026-01-30T09:16:07Z</time>
      </trkpt>
      <trkpt lat="48.7185" lon="1.95102">
        <ele>69.6</ele>
        <time>2026-01-30T09:16:08Z</time>
      </trkpt>
      <trkpt lat="48.71848" lon="1.95098">
        <ele>69.6</ele>
        <time>2026-01-30T09:16:09Z</time>
      </trkpt>
      <trkpt lat="48.71847" lon="1.95096">
        <ele>69.6</ele>
        <time>2026-01-30T09:16:10Z</time>
      </trkpt>
      <trkpt lat="48.71846" lon="1.95093">
        <ele>70.2</ele>
        <time>2026-01-30T09:16:11Z</time>
      </trkpt>
      <trkpt lat="48.71844" lon="1.9509">
        <ele>70.2</ele>
        <time>2026-01-30T09:16:12Z</time>
      </trkpt>
      <trkpt lat="48.71842" lon="1.95087">
        <ele>70.2</ele>
        <time>2026-01-30T09:16:13Z</time>
      </trkpt>
      <trkpt lat="48.7184" lon="1.95084">
        <ele>70.2</ele>
        <time>2026-01-30T09:16:14Z</time>
      </trkpt>
      <trkpt lat="48.71838" lon="1.9508">
        <ele>71</ele>
        <time>2026-01-30T09:16:15Z</time>
      </trkpt>
      <trkpt lat="48.71836" lon="1.95078">
        <ele>71.2</ele>
        <time>2026-01-30T09:16:16Z</time>
      </trkpt>
      <trkpt lat="48.71835" lon="1.95075">
        <ele>71.2</ele>
        <time>2026-01-30T09:16:17Z</time>
      </trkpt>
      <trkpt lat="48.71832" lon="1.95072">
        <ele>71.2</ele>
        <time>2026-01-30T09:16:18Z</time>
      </trkpt>
      <trkpt lat="48.7183" lon="1.95069">
        <ele>71.6</ele>
        <time>2026-01-30T09:16:19Z</time>
      </trkpt>
      <trkpt lat="48.71828" lon="1.95068">
        <ele>71.6</ele>
        <time>2026-01-30T09:16:20Z</time>
      </trkpt>
      <trkpt lat="48.71827" lon="1.95065">
        <ele>71.6</ele>
        <time>2026-01-30T09:16:21Z</time>
      </trkpt>
      <trkpt lat="48.71824" lon="1.95063">
        <ele>71.6</ele>
        <time>2026-01-30T09:16:22Z</time>
      </trkpt>
      <trkpt lat="48.71822" lon="1.9506">
        <ele>72.2</ele>
        <time>2026-01-30T09:16:23Z</time>
      </trkpt>
      <trkpt lat="48.71819" lon="1.95058">
        <ele>72.4</ele>
        <time>2026-01-30T09:16:24Z</time>
      </trkpt>
      <trkpt lat="48.71817" lon="1.95055">
        <ele>72.4</ele>
        <time>2026-01-30T09:16:25Z</time>
      </trkpt>
      <trkpt lat="48.71815" lon="1.95053">
        <ele>72.4</ele>
        <time>2026-01-30T09:16:26Z</time>
      </trkpt>
      <trkpt lat="48.71812" lon="1.95051">
        <ele>73</ele>
        <time>2026-01-30T09:16:27Z</time>
      </trkpt>
      <trkpt lat="48.7181" lon="1.95049">
        <ele>73.2</ele>
        <time>2026-01-30T09:16:28Z</time>
      </trkpt>
      <trkpt lat="48.71808" lon="1.95047">
        <ele>73.2</ele>
        <time>2026-01-30T09:16:29Z</time>
      </trkpt>
      <trkpt lat="48.71806" lon="1.95045">
        <ele>73.2</ele>
        <time>2026-01-30T09:16:30Z</time>
      </trkpt>
      <trkpt lat="48.71803" lon="1.95043">
        <ele>73.6</ele>
        <time>2026-01-30T09:16:31Z</time>
      </trkpt>
      <trkpt lat="48.71801" lon="1.95041">
        <ele>73.8</ele>
        <time>2026-01-30T09:16:32Z</time>
      </trkpt>
      <trkpt lat="48.71798" lon="1.9504">
        <ele>73.8</ele>
        <time>2026-01-30T09:16:33Z</time>
      </trkpt>
      <trkpt lat="48.71795" lon="1.95038">
        <ele>73.8</ele>
        <time>2026-01-30T09:16:34Z</time>
      </trkpt>
      <trkpt lat="48.71793" lon="1.95036">
        <ele>74.8</ele>
        <time>2026-01-30T09:16:35Z</time>
      </trkpt>
      <trkpt lat="48.71791" lon="1.95035">
        <ele>74.8</ele>
        <time>2026-01-30T09:16:36Z</time>
      </trkpt>
      <trkpt lat="48.71789" lon="1.95034">
        <ele>74.8</ele>
        <time>2026-01-30T09:16:37Z</time>
      </trkpt>
      <trkpt lat="48.71786" lon="1.95033">
        <ele>74.8</ele>
        <time>2026-01-30T09:16:38Z</time>
      </trkpt>
      <trkpt lat="48.71784" lon="1.95032">
        <ele>75</ele>
        <time>2026-01-30T09:16:39Z</time>
      </trkpt>
      <trkpt lat="48.71781" lon="1.9503">
        <ele>75.4</ele>
        <time>2026-01-30T09:16:40Z</time>
      </trkpt>
      <trkpt lat="48.71778" lon="1.95029">
        <ele>75.4</ele>
        <time>2026-01-30T09:16:41Z</time>
      </trkpt>
      <trkpt lat="48.71775" lon="1.95029">
        <ele>75.4</ele>
        <time>2026-01-30T09:16:42Z</time>
      </trkpt>
      <trkpt lat="48.71773" lon="1.95028">
        <ele>75.4</ele>
        <time>2026-01-30T09:16:43Z</time>
      </trkpt>
      <trkpt lat="48.7177" lon="1.95027">
        <ele>76</ele>
        <time>2026-01-30T09:16:44Z</time>
      </trkpt>
      <trkpt lat="48.71767" lon="1.95026">
        <ele>76</ele>
        <time>2026-01-30T09:16:45Z</time>
      </trkpt>
      <trkpt lat="48.71764" lon="1.95025">
        <ele>76</ele>
        <time>2026-01-30T09:16:46Z</time>
      </trkpt>
      <trkpt lat="48.71762" lon="1.95024">
        <ele>76</ele>
        <time>2026-01-30T09:16:47Z</time>
      </trkpt>
      <trkpt lat="48.71759" lon="1.95023">
        <ele>77.2</ele>
        <time>2026-01-30T09:16:48Z</time>
      </trkpt>
      <trkpt lat="48.71757" lon="1.95023">
        <ele>77.2</ele>
        <time>2026-01-30T09:16:49Z</time>
      </trkpt>
      <trkpt lat="48.71754" lon="1.95023">
        <ele>77.2</ele>
        <time>2026-01-30T09:16:50Z</time>
      </trkpt>
      <trkpt lat="48.71751" lon="1.95022">
        <ele>78</ele>
        <time>2026-01-30T09:16:51Z</time>
      </trkpt>
      <trkpt lat="48.71748" lon="1.95021">
        <ele>78</ele>
        <time>2026-01-30T09:16:52Z</time>
      </trkpt>
      <trkpt lat="48.71746" lon="1.95021">
        <ele>78</ele>
        <time>2026-01-30T09:16:53Z</time>
      </trkpt>
      <trkpt lat="48.71743" lon="1.9502">
        <ele>78</ele>
        <time>2026-01-30T09:16:54Z</time>
      </trkpt>
      <trkpt lat="48.7174" lon="1.9502">
        <ele>79</ele>
        <time>2026-01-30T09:16:55Z</time>
      </trkpt>
      <trkpt lat="48.71738" lon="1.9502">
        <ele>79</ele>
        <time>2026-01-30T09:16:56Z</time>
      </trkpt>
      <trkpt lat="48.71734" lon="1.9502">
        <ele>79</ele>
        <time>2026-01-30T09:16:57Z</time>
      </trkpt>
      <trkpt lat="48.71731" lon="1.9502">
        <ele>79</ele>
        <time>2026-01-30T09:16:58Z</time>
      </trkpt>
      <trkpt lat="48.71728" lon="1.9502">
        <ele>79.2</ele>
        <time>2026-01-30T09:16:59Z</time>
      </trkpt>
      <trkpt lat="48.71726" lon="1.95019">
        <ele>79.6</ele>
        <time>2026-01-30T09:17:00Z</time>
      </trkpt>
      <trkpt lat="48.71724" lon="1.95018">
        <ele>79.6</ele>
        <time>2026-01-30T09:17:01Z</time>
      </trkpt>
      <trkpt lat="48.71721" lon="1.95017">
        <ele>79.6</ele>
        <time>2026-01-30T09:17:02Z</time>
      </trkpt>
      <trkpt lat="48.71719" lon="1.95016">
        <ele>80.2</ele>
        <time>2026-01-30T09:17:03Z</time>
      </trkpt>
      <trkpt lat="48.71716" lon="1.95015">
        <ele>80.2</ele>
        <time>2026-01-30T09:17:04Z</time>
      </trkpt>
      <trkpt lat="48.71714" lon="1.95015">
        <ele>80.2</ele>
        <time>2026-01-30T09:17:05Z</time>
      </trkpt>
      <trkpt lat="48.71711" lon="1.95014">
        <ele>80.2</ele>
        <time>2026-01-30T09:17:06Z</time>
      </trkpt>
      <trkpt lat="48.71709" lon="1.95014">
        <ele>80.6</ele>
        <time>2026-01-30T09:17:07Z</time>
      </trkpt>
      <trkpt lat="48.71706" lon="1.95013">
        <ele>80.8</ele>
        <time>2026-01-30T09:17:08Z</time>
      </trkpt>
      <trkpt lat="48.71703" lon="1.95012">
        <ele>80.8</ele>
        <time>2026-01-30T09:17:09Z</time>
      </trkpt>
      <trkpt lat="48.71701" lon="1.95011">
        <ele>80.8</ele>
        <time>2026-01-30T09:17:10Z</time>
      </trkpt>
      <trkpt lat="48.71698" lon="1.95011">
        <ele>81.4</ele>
        <time>2026-01-30T09:17:11Z</time>
      </trkpt>
      <trkpt lat="48.71695" lon="1.95011">
        <ele>81.8</ele>
        <time>2026-01-30T09:17:12Z</time>
      </trkpt>
      <trkpt lat="48.71693" lon="1.9501">
        <ele>81.8</ele>
        <time>2026-01-30T09:17:13Z</time>
      </trkpt>
      <trkpt lat="48.7169" lon="1.9501">
        <ele>81.8</ele>
        <time>2026-01-30T09:17:14Z</time>
      </trkpt>
      <trkpt lat="48.71688" lon="1.95009">
        <ele>81.8</ele>
        <time>2026-01-30T09:17:15Z</time>
      </trkpt>
      <trkpt lat="48.71685" lon="1.95008">
        <ele>82.2</ele>
        <time>2026-01-30T09:17:16Z</time>
      </trkpt>
      <trkpt lat="48.71683" lon="1.95007">
        <ele>82.2</ele>
        <time>2026-01-30T09:17:17Z</time>
      </trkpt>
      <trkpt lat="48.7168" lon="1.95006">
        <ele>82.2</ele>
        <time>2026-01-30T09:17:18Z</time>
      </trkpt>
      <trkpt lat="48.71678" lon="1.95005">
        <ele>82.2</ele>
        <time>2026-01-30T09:17:19Z</time>
      </trkpt>
      <trkpt lat="48.71676" lon="1.95004">
        <ele>83</ele>
        <time>2026-01-30T09:17:20Z</time>
      </trkpt>
      <trkpt lat="48.71674" lon="1.95002">
        <ele>83</ele>
        <time>2026-01-30T09:17:21Z</time>
      </trkpt>
      <trkpt lat="48.71671" lon="1.95001">
        <ele>83</ele>
        <time>2026-01-30T09:17:22Z</time>
      </trkpt>
      <trkpt lat="48.71668" lon="1.94999">
        <ele>83</ele>
        <time>2026-01-30T09:17:23Z</time>
      </trkpt>
      <trkpt lat="48.71665" lon="1.94998">
        <ele>84.2</ele>
        <time>2026-01-30T09:17:24Z</time>
      </trkpt>
      <trkpt lat="48.71663" lon="1.94996">
        <ele>84.2</ele>
        <time>2026-01-30T09:17:25Z</time>
      </trkpt>
      <trkpt lat="48.7166" lon="1.94994">
        <ele>84.2</ele>
        <time>2026-01-30T09:17:26Z</time>
      </trkpt>
      <trkpt lat="48.71658" lon="1.94993">
        <ele>84.2</ele>
        <time>2026-01-30T09:17:27Z</time>
      </trkpt>
      <trkpt lat="48.71656" lon="1.94991">
        <ele>84.6</ele>
        <time>2026-01-30T09:17:28Z</time>
      </trkpt>
      <trkpt lat="48.71652" lon="1.9499">
        <ele>84.6</ele>
        <time>2026-01-30T09:17:29Z</time>
      </trkpt>
      <trkpt lat="48.71649" lon="1.94989">
        <ele>84.6</ele>
        <time>2026-01-30T09:17:30Z</time>
      </trkpt>
      <trkpt lat="48.71647" lon="1.94987">
        <ele>85</ele>
        <time>2026-01-30T09:17:31Z</time>
      </trkpt>
      <trkpt lat="48.71643" lon="1.94986">
        <ele>85.4</ele>
        <time>2026-01-30T09:17:32Z</time>
      </trkpt>
      <trkpt lat="48.71641" lon="1.94985">
        <ele>85.4</ele>
        <time>2026-01-30T09:17:33Z</time>
      </trkpt>
      <trkpt lat="48.71638" lon="1.94984">
        <ele>85.4</ele>
        <time>2026-01-30T09:17:34Z</time>
      </trkpt>
      <trkpt lat="48.71636" lon="1.94982">
        <ele>85.6</ele>
        <time>2026-01-30T09:17:35Z</time>
      </trkpt>
      <trkpt lat="48.71633" lon="1.94981">
        <ele>86</ele>
        <time>2026-01-30T09:17:36Z</time>
      </trkpt>
      <trkpt lat="48.7163" lon="1.94979">
        <ele>86</ele>
        <time>2026-01-30T09:17:37Z</time>
      </trkpt>
      <trkpt lat="48.71628" lon="1.94978">
        <ele>86</ele>
        <time>2026-01-30T09:17:38Z</time>
      </trkpt>
      <trkpt lat="48.71625" lon="1.94977">
        <ele>86.2</ele>
        <time>2026-01-30T09:17:39Z</time>
      </trkpt>
      <trkpt lat="48.71623" lon="1.94976">
        <ele>86.6</ele>
        <time>2026-01-30T09:17:40Z</time>
      </trkpt>
      <trkpt lat="48.7162" lon="1.94975">
        <ele>86.6</ele>
        <time>2026-01-30T09:17:41Z</time>
      </trkpt>
      <trkpt lat="48.71617" lon="1.94974">
        <ele>86.6</ele>
        <time>2026-01-30T09:17:42Z</time>
      </trkpt>
      <trkpt lat="48.71614" lon="1.94974">
        <ele>86.6</ele>
        <time>2026-01-30T09:17:43Z</time>
      </trkpt>
      <trkpt lat="48.71611" lon="1.94973">
        <ele>87.4</ele>
        <time>2026-01-30T09:17:44Z</time>
      </trkpt>
      <trkpt lat="48.71609" lon="1.94973">
        <ele>87.4</ele>
        <time>2026-01-30T09:17:45Z</time>
      </trkpt>
      <trkpt lat="48.71606" lon="1.94973">
        <ele>87.4</ele>
        <time>2026-01-30T09:17:46Z</time>
      </trkpt>
      <trkpt lat="48.71604" lon="1.94973">
        <ele>88</ele>
        <time>2026-01-30T09:17:47Z</time>
      </trkpt>
      <trkpt lat="48.71601" lon="1.94972">
        <ele>88</ele>
        <time>2026-01-30T09:17:48Z</time>
      </trkpt>
      <trkpt lat="48.71598" lon="1.94972">
        <ele>88</ele>
        <time>2026-01-30T09:17:49Z</time>
      </trkpt>
      <trkpt lat="48.71595" lon="1.94972">
        <ele>88</ele>
        <time>2026-01-30T09:17:50Z</time>
      </trkpt>
      <trkpt lat="48.71594" lon="1.94971">
        <ele>88.8</ele>
        <time>2026-01-30T09:17:51Z</time>
      </trkpt>
      <trkpt lat="48.7159" lon="1.9497">
        <ele>88.6</ele>
        <time>2026-01-30T09:17:52Z</time>
      </trkpt>
      <trkpt lat="48.71588" lon="1.94971">
        <ele>88.6</ele>
        <time>2026-01-30T09:17:53Z</time>
      </trkpt>
      <trkpt lat="48.71585" lon="1.94971">
        <ele>88.6</ele>
        <time>2026-01-30T09:17:54Z</time>
      </trkpt>
      <trkpt lat="48.71582" lon="1.94972">
        <ele>89.2</ele>
        <time>2026-01-30T09:17:55Z</time>
      </trkpt>
      <trkpt lat="48.71579" lon="1.94972">
        <ele>89.8</ele>
        <time>2026-01-30T09:17:56Z</time>
      </trkpt>
      <trkpt lat="48.71576" lon="1.94972">
        <ele>89.8</ele>
        <time>2026-01-30T09:17:57Z</time>
      </trkpt>
      <trkpt lat="48.71573" lon="1.94971">
        <ele>89.8</ele>
        <time>2026-01-30T09:17:58Z</time>
      </trkpt>
      <trkpt lat="48.71571" lon="1.94972">
        <ele>89.8</ele>
        <time>2026-01-30T09:17:59Z</time>
      </trkpt>
      <trkpt lat="48.71568" lon="1.94973">
        <ele>90.2</ele>
        <time>2026-01-30T09:18:00Z</time>
      </trkpt>
      <trkpt lat="48.71566" lon="1.94973">
        <ele>90.2</ele>
        <time>2026-01-30T09:18:01Z</time>
      </trkpt>
      <trkpt lat="48.71564" lon="1.94973">
        <ele>90.2</ele>
        <time>2026-01-30T09:18:02Z</time>
      </trkpt>
      <trkpt lat="48.71561" lon="1.94973">
        <ele>90.6</ele>
        <time>2026-01-30T09:18:03Z</time>
      </trkpt>
      <trkpt lat="48.71558" lon="1.94974">
        <ele>91.4</ele>
        <time>2026-01-30T09:18:04Z</time>
      </trkpt>
      <trkpt lat="48.71555" lon="1.94973">
        <ele>91.4</ele>
        <time>2026-01-30T09:18:05Z</time>
      </trkpt>
      <trkpt lat="48.71552" lon="1.94972">
        <ele>91.4</ele>
        <time>2026-01-30T09:18:06Z</time>
      </trkpt>
      <trkpt lat="48.71549" lon="1.94971">
        <ele>91.4</ele>
        <time>2026-01-30T09:18:07Z</time>
      </trkpt>
      <trkpt lat="48.71547" lon="1.9497">
        <ele>92</ele>
        <time>2026-01-30T09:18:08Z</time>
      </trkpt>
      <trkpt lat="48.71544" lon="1.9497">
        <ele>92</ele>
        <time>2026-01-30T09:18:09Z</time>
      </trkpt>
      <trkpt lat="48.71541" lon="1.94968">
        <ele>92</ele>
        <time>2026-01-30T09:18:10Z</time>
      </trkpt>
      <trkpt lat="48.71539" lon="1.94967">
        <ele>92.8</ele>
        <time>2026-01-30T09:18:11Z</time>
      </trkpt>
      <trkpt lat="48.71536" lon="1.94965">
        <ele>92.6</ele>
        <time>2026-01-30T09:18:12Z</time>
      </trkpt>
      <trkpt lat="48.71534" lon="1.94964">
        <ele>92.6</ele>
        <time>2026-01-30T09:18:13Z</time>
      </trkpt>
      <trkpt lat="48.71531" lon="1.94962">
        <ele>92.6</ele>
        <time>2026-01-30T09:18:14Z</time>
      </trkpt>
      <trkpt lat="48.71529" lon="1.9496">
        <ele>93.6</ele>
        <time>2026-01-30T09:18:15Z</time>
      </trkpt>
      <trkpt lat="48.71527" lon="1.94958">
        <ele>93.4</ele>
        <time>2026-01-30T09:18:16Z</time>
      </trkpt>
      <trkpt lat="48.71524" lon="1.94956">
        <ele>93.4</ele>
        <time>2026-01-30T09:18:17Z</time>
      </trkpt>
      <trkpt lat="48.71522" lon="1.94954">
        <ele>93.4</ele>
        <time>2026-01-30T09:18:18Z</time>
      </trkpt>
      <trkpt lat="48.7152" lon="1.94951">
        <ele>94.4</ele>
        <time>2026-01-30T09:18:19Z</time>
      </trkpt>
      <trkpt lat="48.71518" lon="1.94949">
        <ele>94.4</ele>
        <time>2026-01-30T09:18:20Z</time>
      </trkpt>
      <trkpt lat="48.71516" lon="1.94946">
        <ele>94.4</ele>
        <time>2026-01-30T09:18:21Z</time>
      </trkpt>
      <trkpt lat="48.71514" lon="1.94943">
        <ele>94.4</ele>
        <time>2026-01-30T09:18:22Z</time>
      </trkpt>
      <trkpt lat="48.71512" lon="1.9494">
        <ele>95</ele>
        <time>2026-01-30T09:18:23Z</time>
      </trkpt>
      <trkpt lat="48.71509" lon="1.94938">
        <ele>95.4</ele>
        <time>2026-01-30T09:18:24Z</time>
      </trkpt>
      <trkpt lat="48.71507" lon="1.94935">
        <ele>95.4</ele>
        <time>2026-01-30T09:18:25Z</time>
      </trkpt>
      <trkpt lat="48.71504" lon="1.94932">
        <ele>95.4</ele>
        <time>2026-01-30T09:18:26Z</time>
      </trkpt>
      <trkpt lat="48.71502" lon="1.9493">
        <ele>95.4</ele>
        <time>2026-01-30T09:18:27Z</time>
      </trkpt>
      <trkpt lat="48.71499" lon="1.94927">
        <ele>96.2</ele>
        <time>2026-01-30T09:18:28Z</time>
      </trkpt>
      <trkpt lat="48.71497" lon="1.94925">
        <ele>96.2</ele>
        <time>2026-01-30T09:18:29Z</time>
      </trkpt>
      <trkpt lat="48.71494" lon="1.94923">
        <ele>96.2</ele>
        <time>2026-01-30T09:18:30Z</time>
      </trkpt>
      <trkpt lat="48.71492" lon="1.9492">
        <ele>96.6</ele>
        <time>2026-01-30T09:18:31Z</time>
      </trkpt>
      <trkpt lat="48.71489" lon="1.94918">
        <ele>96.2</ele>
        <time>2026-01-30T09:18:32Z</time>
      </trkpt>
      <trkpt lat="48.71487" lon="1.94917">
        <ele>96.2</ele>
        <time>2026-01-30T09:18:33Z</time>
      </trkpt>
      <trkpt lat="48.71485" lon="1.94915">
        <ele>96.2</ele>
        <time>2026-01-30T09:18:34Z</time>
      </trkpt>
      <trkpt lat="48.71482" lon="1.94913">
        <ele>96.8</ele>
        <time>2026-01-30T09:18:35Z</time>
      </trkpt>
      <trkpt lat="48.7148" lon="1.94912">
        <ele>96.8</ele>
        <time>2026-01-30T09:18:36Z</time>
      </trkpt>
      <trkpt lat="48.71478" lon="1.94911">
        <ele>96.8</ele>
        <time>2026-01-30T09:18:37Z</time>
      </trkpt>
      <trkpt lat="48.71475" lon="1.94909">
        <ele>96.8</ele>
        <time>2026-01-30T09:18:38Z</time>
      </trkpt>
      <trkpt lat="48.71473" lon="1.94907">
        <ele>96.8</ele>
        <time>2026-01-30T09:18:39Z</time>
      </trkpt>
      <trkpt lat="48.7147" lon="1.94906">
        <ele>97.4</ele>
        <time>2026-01-30T09:18:40Z</time>
      </trkpt>
      <trkpt lat="48.71467" lon="1.94904">
        <ele>97.4</ele>
        <time>2026-01-30T09:18:41Z</time>
      </trkpt>
      <trkpt lat="48.71464" lon="1.94903">
        <ele>97.4</ele>
        <time>2026-01-30T09:18:42Z</time>
      </trkpt>
      <trkpt lat="48.71461" lon="1.94901">
        <ele>98.4</ele>
        <time>2026-01-30T09:18:43Z</time>
      </trkpt>
      <trkpt lat="48.71458" lon="1.94901">
        <ele>98.4</ele>
        <time>2026-01-30T09:18:44Z</time>
      </trkpt>
      <trkpt lat="48.71455" lon="1.949">
        <ele>98.4</ele>
        <time>2026-01-30T09:18:45Z</time>
      </trkpt>
      <trkpt lat="48.71452" lon="1.949">
        <ele>98.4</ele>
        <time>2026-01-30T09:18:46Z</time>
      </trkpt>
      <trkpt lat="48.71449" lon="1.949">
        <ele>99.2</ele>
        <time>2026-01-30T09:18:47Z</time>
      </trkpt>
      <trkpt lat="48.71446" lon="1.949">
        <ele>99.4</ele>
        <time>2026-01-30T09:18:48Z</time>
      </trkpt>
      <trkpt lat="48.71443" lon="1.949">
        <ele>99.4</ele>
        <time>2026-01-30T09:18:49Z</time>
      </trkpt>
      <trkpt lat="48.7144" lon="1.949">
        <ele>99.4</ele>
        <time>2026-01-30T09:18:50Z</time>
      </trkpt>
      <trkpt lat="48.71437" lon="1.94901">
        <ele>99.6</ele>
        <time>2026-01-30T09:18:51Z</time>
      </trkpt>
      <trkpt lat="48.71434" lon="1.94901">
        <ele>99.8</ele>
        <time>2026-01-30T09:18:52Z</time>
      </trkpt>
      <trkpt lat="48.71431" lon="1.94902">
        <ele>99.8</ele>
        <time>2026-01-30T09:18:53Z</time>
      </trkpt>
      <trkpt lat="48.71428" lon="1.94903">
        <ele>99.8</ele>
        <time>2026-01-30T09:18:54Z</time>
      </trkpt>
      <trkpt lat="48.71426" lon="1.94904">
        <ele>100.2</ele>
        <time>2026-01-30T09:18:55Z</time>
      </trkpt>
      <trkpt lat="48.71423" lon="1.94905">
        <ele>100.8</ele>
        <time>2026-01-30T09:18:56Z</time>
      </trkpt>
      <trkpt lat="48.7142" lon="1.94907">
        <ele>100.8</ele>
        <time>2026-01-30T09:18:57Z</time>
      </trkpt>
      <trkpt lat="48.71418" lon="1.94909">
        <ele>100.8</ele>
        <time>2026-01-30T09:18:58Z</time>
      </trkpt>
      <trkpt lat="48.71415" lon="1.9491">
        <ele>101.8</ele>
        <time>2026-01-30T09:18:59Z</time>
      </trkpt>
      <trkpt lat="48.71412" lon="1.94912">
        <ele>102</ele>
        <time>2026-01-30T09:19:00Z</time>
      </trkpt>
      <trkpt lat="48.71409" lon="1.94914">
        <ele>102</ele>
        <time>2026-01-30T09:19:01Z</time>
      </trkpt>
      <trkpt lat="48.71407" lon="1.94916">
        <ele>102</ele>
        <time>2026-01-30T09:19:02Z</time>
      </trkpt>
      <trkpt lat="48.71404" lon="1.94917">
        <ele>102.6</ele>
        <time>2026-01-30T09:19:03Z</time>
      </trkpt>
      <trkpt lat="48.71402" lon="1.94919">
        <ele>103.2</ele>
        <time>2026-01-30T09:19:04Z</time>
      </trkpt>
      <trkpt lat="48.71399" lon="1.94921">
        <ele>103.2</ele>
        <time>2026-01-30T09:19:05Z</time>
      </trkpt>
      <trkpt lat="48.71396" lon="1.94922">
        <ele>103.2</ele>
        <time>2026-01-30T09:19:06Z</time>
      </trkpt>
      <trkpt lat="48.71393" lon="1.94924">
        <ele>103.2</ele>
        <time>2026-01-30T09:19:07Z</time>
      </trkpt>
      <trkpt lat="48.7139" lon="1.94926">
        <ele>103.6</ele>
        <time>2026-01-30T09:19:08Z</time>
      </trkpt>
      <trkpt lat="48.71387" lon="1.94928">
        <ele>103.6</ele>
        <time>2026-01-30T09:19:09Z</time>
      </trkpt>
      <trkpt lat="48.71384" lon="1.9493">
        <ele>103.6</ele>
        <time>2026-01-30T09:19:10Z</time>
      </trkpt>
      <trkpt lat="48.71381" lon="1.94932">
        <ele>104.6</ele>
        <time>2026-01-30T09:19:11Z</time>
      </trkpt>
      <trkpt lat="48.71378" lon="1.94934">
        <ele>104.4</ele>
        <time>2026-01-30T09:19:12Z</time>
      </trkpt>
      <trkpt lat="48.71375" lon="1.94936">
        <ele>104.4</ele>
        <time>2026-01-30T09:19:13Z</time>
      </trkpt>
      <trkpt lat="48.71373" lon="1.94938">
        <ele>104.4</ele>
        <time>2026-01-30T09:19:14Z</time>
      </trkpt>
      <trkpt lat="48.7137" lon="1.94941">
        <ele>105</ele>
        <time>2026-01-30T09:19:15Z</time>
      </trkpt>
      <trkpt lat="48.71367" lon="1.94943">
        <ele>105.4</ele>
        <time>2026-01-30T09:19:16Z</time>
      </trkpt>
      <trkpt lat="48.71364" lon="1.94945">
        <ele>105.4</ele>
        <time>2026-01-30T09:19:17Z</time>
      </trkpt>
      <trkpt lat="48.71362" lon="1.94948">
        <ele>105.4</ele>
        <time>2026-01-30T09:19:18Z</time>
      </trkpt>
      <trkpt lat="48.71359" lon="1.9495">
        <ele>105.4</ele>
        <time>2026-01-30T09:19:19Z</time>
      </trkpt>
      <trkpt lat="48.71356" lon="1.94952">
        <ele>106.6</ele>
        <time>2026-01-30T09:19:20Z</time>
      </trkpt>
      <trkpt lat="48.71353" lon="1.94954">
        <ele>106.6</ele>
        <time>2026-01-30T09:19:21Z</time>
      </trkpt>
      <trkpt lat="48.71351" lon="1.94956">
        <ele>106.6</ele>
        <time>2026-01-30T09:19:22Z</time>
      </trkpt>
      <trkpt lat="48.71348" lon="1.94959">
        <ele>106.6</ele>
        <time>2026-01-30T09:19:23Z</time>
      </trkpt>
      <trkpt lat="48.71345" lon="1.94961">
        <ele>107</ele>
        <time>2026-01-30T09:19:24Z</time>
      </trkpt>
      <trkpt lat="48.71342" lon="1.94963">
        <ele>107</ele>
        <time>2026-01-30T09:19:25Z</time>
      </trkpt>
      <trkpt lat="48.7134" lon="1.94965">
        <ele>107</ele>
        <time>2026-01-30T09:19:26Z</time>
      </trkpt>
      <trkpt lat="48.71337" lon="1.94968">
        <ele>107.6</ele>
        <time>2026-01-30T09:19:27Z</time>
      </trkpt>
      <trkpt lat="48.71334" lon="1.9497">
        <ele>107.8</ele>
        <time>2026-01-30T09:19:28Z</time>
      </trkpt>
      <trkpt lat="48.71331" lon="1.94972">
        <ele>107.8</ele>
        <time>2026-01-30T09:19:29Z</time>
      </trkpt>
      <trkpt lat="48.71329" lon="1.94974">
        <ele>107.8</ele>
        <time>2026-01-30T09:19:30Z</time>
      </trkpt>
      <trkpt lat="48.71326" lon="1.94976">
        <ele>107.8</ele>
        <time>2026-01-30T09:19:31Z</time>
      </trkpt>
      <trkpt lat="48.71323" lon="1.94978">
        <ele>108</ele>
        <time>2026-01-30T09:19:32Z</time>
      </trkpt>
      <trkpt lat="48.7132" lon="1.9498">
        <ele>108</ele>
        <time>2026-01-30T09:19:33Z</time>
      </trkpt>
      <trkpt lat="48.71317" lon="1.94982">
        <ele>108</ele>
        <time>2026-01-30T09:19:34Z</time>
      </trkpt>
      <trkpt lat="48.71314" lon="1.94985">
        <ele>108</ele>
        <time>2026-01-30T09:19:35Z</time>
      </trkpt>
      <trkpt lat="48.71311" lon="1.94987">
        <ele>108.4</ele>
        <time>2026-01-30T09:19:36Z</time>
      </trkpt>
      <trkpt lat="48.71308" lon="1.9499">
        <ele>108.4</ele>
        <time>2026-01-30T09:19:37Z</time>
      </trkpt>
      <trkpt lat="48.71305" lon="1.94992">
        <ele>108.4</ele>
        <time>2026-01-30T09:19:38Z</time>
      </trkpt>
      <trkpt lat="48.71302" lon="1.94995">
        <ele>108.4</ele>
        <time>2026-01-30T09:19:39Z</time>
      </trkpt>
      <trkpt lat="48.71299" lon="1.94997">
        <ele>109</ele>
        <time>2026-01-30T09:19:40Z</time>
      </trkpt>
      <trkpt lat="48.71296" lon="1.95">
        <ele>109</ele>
        <time>2026-01-30T09:19:41Z</time>
      </trkpt>
      <trkpt lat="48.71293" lon="1.95002">
        <ele>109</ele>
        <time>2026-01-30T09:19:42Z</time>
      </trkpt>
      <trkpt lat="48.71289" lon="1.95004">
        <ele>109</ele>
        <time>2026-01-30T09:19:43Z</time>
      </trkpt>
      <trkpt lat="48.71286" lon="1.95007">
        <ele>109.6</ele>
        <time>2026-01-30T09:19:44Z</time>
      </trkpt>
      <trkpt lat="48.71283" lon="1.95009">
        <ele>109.6</ele>
        <time>2026-01-30T09:19:45Z</time>
      </trkpt>
      <trkpt lat="48.7128" lon="1.95012">
        <ele>109.6</ele>
        <time>2026-01-30T09:19:46Z</time>
      </trkpt>
      <trkpt lat="48.71277" lon="1.95014">
        <ele>109.6</ele>
        <time>2026-01-30T09:19:47Z</time>
      </trkpt>
      <trkpt lat="48.71274" lon="1.95016">
        <ele>110.2</ele>
        <time>2026-01-30T09:19:48Z</time>
      </trkpt>
      <trkpt lat="48.71271" lon="1.95019">
        <ele>110.2</ele>
        <time>2026-01-30T09:19:49Z</time>
      </trkpt>
      <trkpt lat="48.71268" lon="1.95021">
        <ele>110.2</ele>
        <time>2026-01-30T09:19:50Z</time>
      </trkpt>
      <trkpt lat="48.71265" lon="1.95024">
        <ele>110</ele>
        <time>2026-01-30T09:19:51Z</time>
      </trkpt>
      <trkpt lat="48.71261" lon="1.95026">
        <ele>110.6</ele>
        <time>2026-01-30T09:19:52Z</time>
      </trkpt>
      <trkpt lat="48.71258" lon="1.95029">
        <ele>110.6</ele>
        <time>2026-01-30T09:19:53Z</time>
      </trkpt>
      <trkpt lat="48.71255" lon="1.95031">
        <ele>110.6</ele>
        <time>2026-01-30T09:19:54Z</time>
      </trkpt>
      <trkpt lat="48.71252" lon="1.95034">
        <ele>110.4</ele>
        <time>2026-01-30T09:19:55Z</time>
      </trkpt>
      <trkpt lat="48.71248" lon="1.95036">
        <ele>110</ele>
        <time>2026-01-30T09:19:56Z</time>
      </trkpt>
      <trkpt lat="48.71245" lon="1.95039">
        <ele>110</ele>
        <time>2026-01-30T09:19:57Z</time>
      </trkpt>
      <trkpt lat="48.71241" lon="1.95041">
        <ele>110</ele>
        <time>2026-01-30T09:19:58Z</time>
      </trkpt>
      <trkpt lat="48.71237" lon="1.95044">
        <ele>110</ele>
        <time>2026-01-30T09:19:59Z</time>
      </trkpt>
      <trkpt lat="48.71234" lon="1.95047">
        <ele>110.6</ele>
        <time>2026-01-30T09:20:00Z</time>
      </trkpt>
      <trkpt lat="48.7123" lon="1.9505">
        <ele>110.6</ele>
        <time>2026-01-30T09:20:01Z</time>
      </trkpt>
      <trkpt lat="48.71227" lon="1.95053">
        <ele>110.6</ele>
        <time>2026-01-30T09:20:02Z</time>
      </trkpt>
      <trkpt lat="48.71223" lon="1.95055">
        <ele>110.8</ele>
        <time>2026-01-30T09:20:03Z</time>
      </trkpt>
      <trkpt lat="48.71219" lon="1.95058">
        <ele>111</ele>
        <time>2026-01-30T09:20:04Z</time>
      </trkpt>
      <trkpt lat="48.71216" lon="1.95061">
        <ele>111</ele>
        <time>2026-01-30T09:20:05Z</time>
      </trkpt>
      <trkpt lat="48.71212" lon="1.95063">
        <ele>111</ele>
        <time>2026-01-30T09:20:06Z</time>
      </trkpt>
      <trkpt lat="48.71208" lon="1.95066">
        <ele>111</ele>
        <time>2026-01-30T09:20:07Z</time>
      </trkpt>
      <trkpt lat="48.71205" lon="1.95069">
        <ele>110.6</ele>
        <time>2026-01-30T09:20:08Z</time>
      </trkpt>
      <trkpt lat="48.71201" lon="1.95071">
        <ele>110.6</ele>
        <time>2026-01-30T09:20:09Z</time>
      </trkpt>
      <trkpt lat="48.71197" lon="1.95074">
        <ele>110.6</ele>
        <time>2026-01-30T09:20:10Z</time>
      </trkpt>
      <trkpt lat="48.71193" lon="1.95077">
        <ele>110.8</ele>
        <time>2026-01-30T09:20:11Z</time>
      </trkpt>
      <trkpt lat="48.71189" lon="1.9508">
        <ele>110.6</ele>
        <time>2026-01-30T09:20:12Z</time>
      </trkpt>
      <trkpt lat="48.71185" lon="1.95082">
        <ele>110.6</ele>
        <time>2026-01-30T09:20:13Z</time>
      </trkpt>
      <trkpt lat="48.71181" lon="1.95084">
        <ele>110.6</ele>
        <time>2026-01-30T09:20:14Z</time>
      </trkpt>
      <trkpt lat="48.71176" lon="1.95086">
        <ele>111</ele>
        <time>2026-01-30T09:20:15Z</time>
      </trkpt>
      <trkpt lat="48.71172" lon="1.95089">
        <ele>111.2</ele>
        <time>2026-01-30T09:20:16Z</time>
      </trkpt>
      <trkpt lat="48.71168" lon="1.95091">
        <ele>111.2</ele>
        <time>2026-01-30T09:20:17Z</time>
      </trkpt>
      <trkpt lat="48.71163" lon="1.95093">
        <ele>111.2</ele>
        <time>2026-01-30T09:20:18Z</time>
      </trkpt>
      <trkpt lat="48.71158" lon="1.95093">
        <ele>111.4</ele>
        <time>2026-01-30T09:20:19Z</time>
      </trkpt>
      <trkpt lat="48.71153" lon="1.95093">
        <ele>111</ele>
        <time>2026-01-30T09:20:20Z</time>
      </trkpt>
      <trkpt lat="48.71149" lon="1.95091">
        <ele>111</ele>
        <time>2026-01-30T09:20:21Z</time>
      </trkpt>
      <trkpt lat="48.71144" lon="1.95088">
        <ele>111</ele>
        <time>2026-01-30T09:20:22Z</time>
      </trkpt>
      <trkpt lat="48.7114" lon="1.95086">
        <ele>111.6</ele>
        <time>2026-01-30T09:20:23Z</time>
      </trkpt>
      <trkpt lat="48.71136" lon="1.95083">
        <ele>111.2</ele>
        <time>2026-01-30T09:20:24Z</time>
      </trkpt>
      <trkpt lat="48.71132" lon="1.95081">
        <ele>111.2</ele>
        <time>2026-01-30T09:20:25Z</time>
      </trkpt>
      <trkpt lat="48.71128" lon="1.95078">
        <ele>111.2</ele>
        <time>2026-01-30T09:20:26Z</time>
      </trkpt>
      <trkpt lat="48.71125" lon="1.95076">
        <ele>112.2</ele>
        <time>2026-01-30T09:20:27Z</time>
      </trkpt>
      <trkpt lat="48.71121" lon="1.95073">
        <ele>113.2</ele>
        <time>2026-01-30T09:20:28Z</time>
      </trkpt>
      <trkpt lat="48.71117" lon="1.95071">
        <ele>113.2</ele>
        <time>2026-01-30T09:20:29Z</time>
      </trkpt>
      <trkpt lat="48.71113" lon="1.95069">
        <ele>113.2</ele>
        <time>2026-01-30T09:20:30Z</time>
      </trkpt>
      <trkpt lat="48.71109" lon="1.95067">
        <ele>113.2</ele>
        <time>2026-01-30T09:20:31Z</time>
      </trkpt>
      <trkpt lat="48.71105" lon="1.95064">
        <ele>114.4</ele>
        <time>2026-01-30T09:20:32Z</time>
      </trkpt>
      <trkpt lat="48.71101" lon="1.95062">
        <ele>114.4</ele>
        <time>2026-01-30T09:20:33Z</time>
      </trkpt>
      <trkpt lat="48.71097" lon="1.9506">
        <ele>114.4</ele>
        <time>2026-01-30T09:20:34Z</time>
      </trkpt>
      <trkpt lat="48.71093" lon="1.95057">
        <ele>114.4</ele>
        <time>2026-01-30T09:20:35Z</time>
      </trkpt>
      <trkpt lat="48.71089" lon="1.95055">
        <ele>114.6</ele>
        <time>2026-01-30T09:20:36Z</time>
      </trkpt>
      <trkpt lat="48.71085" lon="1.95053">
        <ele>114.6</ele>
        <time>2026-01-30T09:20:37Z</time>
      </trkpt>
      <trkpt lat="48.71081" lon="1.9505">
        <ele>114.6</ele>
        <time>2026-01-30T09:20:38Z</time>
      </trkpt>
      <trkpt lat="48.71076" lon="1.95048">
        <ele>115</ele>
        <time>2026-01-30T09:20:39Z</time>
      </trkpt>
      <trkpt lat="48.71072" lon="1.95045">
        <ele>114.8</ele>
        <time>2026-01-30T09:20:40Z</time>
      </trkpt>
      <trkpt lat="48.71068" lon="1.95043">
        <ele>114.8</ele>
        <time>2026-01-30T09:20:41Z</time>
      </trkpt>
      <trkpt lat="48.71064" lon="1.9504">
        <ele>114.8</ele>
        <time>2026-01-30T09:20:42Z</time>
      </trkpt>
      <trkpt lat="48.71059" lon="1.95038">
        <ele>114.8</ele>
        <time>2026-01-30T09:20:43Z</time>
      </trkpt>
      <trkpt lat="48.71055" lon="1.95035">
        <ele>115.2</ele>
        <time>2026-01-30T09:20:44Z</time>
      </trkpt>
      <trkpt lat="48.71051" lon="1.95032">
        <ele>115.2</ele>
        <time>2026-01-30T09:20:45Z</time>
      </trkpt>
      <trkpt lat="48.71046" lon="1.95029">
        <ele>115.2</ele>
        <time>2026-01-30T09:20:46Z</time>
      </trkpt>
      <trkpt lat="48.71042" lon="1.95026">
        <ele>114.8</ele>
        <time>2026-01-30T09:20:47Z</time>
      </trkpt>
      <trkpt lat="48.71038" lon="1.95023">
        <ele>115</ele>
        <time>2026-01-30T09:20:48Z</time>
      </trkpt>
      <trkpt lat="48.71033" lon="1.95021">
        <ele>115</ele>
        <time>2026-01-30T09:20:49Z</time>
      </trkpt>
      <trkpt lat="48.71029" lon="1.95017">
        <ele>115</ele>
        <time>2026-01-30T09:20:50Z</time>
      </trkpt>
      <trkpt lat="48.71024" lon="1.95014">
        <ele>115</ele>
        <time>2026-01-30T09:20:51Z</time>
      </trkpt>
      <trkpt lat="48.7102" lon="1.95011">
        <ele>115.6</ele>
        <time>2026-01-30T09:20:52Z</time>
      </trkpt>
      <trkpt lat="48.71015" lon="1.95008">
        <ele>115.6</ele>
        <time>2026-01-30T09:20:53Z</time>
      </trkpt>
      <trkpt lat="48.71011" lon="1.95004">
        <ele>115.6</ele>
        <time>2026-01-30T09:20:54Z</time>
      </trkpt>
      <trkpt lat="48.71006" lon="1.95001">
        <ele>115.6</ele>
        <time>2026-01-30T09:20:55Z</time>
      </trkpt>
      <trkpt lat="48.71001" lon="1.94997">
        <ele>115.4</ele>
        <time>2026-01-30T09:20:56Z</time>
      </trkpt>
      <trkpt lat="48.70996" lon="1.94994">
        <ele>115.4</ele>
        <time>2026-01-30T09:20:57Z</time>
      </trkpt>
      <trkpt lat="48.70991" lon="1.9499">
        <ele>115.4</ele>
        <time>2026-01-30T09:20:58Z</time>
      </trkpt>
      <trkpt lat="48.70987" lon="1.94987">
        <ele>115.4</ele>
        <time>2026-01-30T09:20:59Z</time>
      </trkpt>
      <trkpt lat="48.70982" lon="1.94983">
        <ele>114.4</ele>
        <time>2026-01-30T09:21:00Z</time>
      </trkpt>
      <trkpt lat="48.70977" lon="1.94979">
        <ele>114.4</ele>
        <time>2026-01-30T09:21:01Z</time>
      </trkpt>
      <trkpt lat="48.70972" lon="1.94976">
        <ele>114.4</ele>
        <time>2026-01-30T09:21:02Z</time>
      </trkpt>
      <trkpt lat="48.70967" lon="1.94972">
        <ele>114.4</ele>
        <time>2026-01-30T09:21:03Z</time>
      </trkpt>
      <trkpt lat="48.70962" lon="1.94969">
        <ele>113.6</ele>
        <time>2026-01-30T09:21:04Z</time>
      </trkpt>
      <trkpt lat="48.70957" lon="1.94965">
        <ele>113.6</ele>
        <time>2026-01-30T09:21:05Z</time>
      </trkpt>
      <trkpt lat="48.70952" lon="1.94961">
        <ele>113.6</ele>
        <time>2026-01-30T09:21:06Z</time>
      </trkpt>
      <trkpt lat="48.70947" lon="1.94958">
        <ele>113.6</ele>
        <time>2026-01-30T09:21:07Z</time>
      </trkpt>
      <trkpt lat="48.70942" lon="1.94954">
        <ele>113</ele>
        <time>2026-01-30T09:21:08Z</time>
      </trkpt>
      <trkpt lat="48.70937" lon="1.9495">
        <ele>113</ele>
        <time>2026-01-30T09:21:09Z</time>
      </trkpt>
      <trkpt lat="48.70932" lon="1.94946">
        <ele>113</ele>
        <time>2026-01-30T09:21:10Z</time>
      </trkpt>
      <trkpt lat="48.70927" lon="1.94943">
        <ele>113</ele>
        <time>2026-01-30T09:21:11Z</time>
      </trkpt>
      <trkpt lat="48.70922" lon="1.94939">
        <ele>111.8</ele>
        <time>2026-01-30T09:21:12Z</time>
      </trkpt>
      <trkpt lat="48.70917" lon="1.94935">
        <ele>111.8</ele>
        <time>2026-01-30T09:21:13Z</time>
      </trkpt>
      <trkpt lat="48.70912" lon="1.94931">
        <ele>111.8</ele>
        <time>2026-01-30T09:21:14Z</time>
      </trkpt>
      <trkpt lat="48.70907" lon="1.94928">
        <ele>111.8</ele>
        <time>2026-01-30T09:21:15Z</time>
      </trkpt>
      <trkpt lat="48.70902" lon="1.94924">
        <ele>112.8</ele>
        <time>2026-01-30T09:21:16Z</time>
      </trkpt>
      <trkpt lat="48.70898" lon="1.9492">
        <ele>112.8</ele>
        <time>2026-01-30T09:21:17Z</time>
      </trkpt>
      <trkpt lat="48.70893" lon="1.94917">
        <ele>112.8</ele>
        <time>2026-01-30T09:21:18Z</time>
      </trkpt>
      <trkpt lat="48.70888" lon="1.94913">
        <ele>112.4</ele>
        <time>2026-01-30T09:21:19Z</time>
      </trkpt>
      <trkpt lat="48.70883" lon="1.9491">
        <ele>113.2</ele>
        <time>2026-01-30T09:21:20Z</time>
      </trkpt>
      <trkpt lat="48.70878" lon="1.94906">
        <ele>113.2</ele>
        <time>2026-01-30T09:21:21Z</time>
      </trkpt>
      <trkpt lat="48.70873" lon="1.94902">
        <ele>113.2</ele>
        <time>2026-01-30T09:21:22Z</time>
      </trkpt>
      <trkpt lat="48.70868" lon="1.94899">
        <ele>113</ele>
        <time>2026-01-30T09:21:23Z</time>
      </trkpt>
      <trkpt lat="48.70863" lon="1.94895">
        <ele>112.4</ele>
        <time>2026-01-30T09:21:24Z</time>
      </trkpt>
      <trkpt lat="48.70858" lon="1.94891">
        <ele>112.4</ele>
        <time>2026-01-30T09:21:25Z</time>
      </trkpt>
      <trkpt lat="48.70853" lon="1.94887">
        <ele>112.4</ele>
        <time>2026-01-30T09:21:26Z</time>
      </trkpt>
      <trkpt lat="48.70848" lon="1.94883">
        <ele>112.4</ele>
        <time>2026-01-30T09:21:27Z</time>
      </trkpt>
      <trkpt lat="48.70842" lon="1.94879">
        <ele>111.4</ele>
        <time>2026-01-30T09:21:28Z</time>
      </trkpt>
      <trkpt lat="48.70836" lon="1.94875">
        <ele>111.4</ele>
        <time>2026-01-30T09:21:29Z</time>
      </trkpt>
      <trkpt lat="48.7083" lon="1.94871">
        <ele>111.4</ele>
        <time>2026-01-30T09:21:30Z</time>
      </trkpt>
      <trkpt lat="48.70824" lon="1.94866">
        <ele>111.4</ele>
        <time>2026-01-30T09:21:31Z</time>
      </trkpt>
      <trkpt lat="48.70818" lon="1.94861">
        <ele>110.6</ele>
        <time>2026-01-30T09:21:32Z</time>
      </trkpt>
      <trkpt lat="48.70812" lon="1.94857">
        <ele>110.6</ele>
        <time>2026-01-30T09:21:33Z</time>
      </trkpt>
      <trkpt lat="48.70807" lon="1.94853">
        <ele>110.6</ele>
        <time>2026-01-30T09:21:34Z</time>
      </trkpt>
      <trkpt lat="48.70801" lon="1.94848">
        <ele>110.6</ele>
        <time>2026-01-30T09:21:35Z</time>
      </trkpt>
      <trkpt lat="48.70795" lon="1.94844">
        <ele>109.8</ele>
        <time>2026-01-30T09:21:36Z</time>
      </trkpt>
      <trkpt lat="48.70788" lon="1.9484">
        <ele>109.8</ele>
        <time>2026-01-30T09:21:37Z</time>
      </trkpt>
      <trkpt lat="48.70782" lon="1.94835">
        <ele>109.8</ele>
        <time>2026-01-30T09:21:38Z</time>
      </trkpt>
      <trkpt lat="48.70776" lon="1.94831">
        <ele>109</ele>
        <time>2026-01-30T09:21:39Z</time>
      </trkpt>
      <trkpt lat="48.7077" lon="1.94826">
        <ele>109.4</ele>
        <time>2026-01-30T09:21:40Z</time>
      </trkpt>
      <trkpt lat="48.70764" lon="1.94821">
        <ele>109.4</ele>
        <time>2026-01-30T09:21:41Z</time>
      </trkpt>
      <trkpt lat="48.70758" lon="1.94817">
        <ele>109.4</ele>
        <time>2026-01-30T09:21:42Z</time>
      </trkpt>
      <trkpt lat="48.70752" lon="1.94812">
        <ele>108.6</ele>
        <time>2026-01-30T09:21:43Z</time>
      </trkpt>
      <trkpt lat="48.70745" lon="1.94807">
        <ele>108.8</ele>
        <time>2026-01-30T09:21:44Z</time>
      </trkpt>
      <trkpt lat="48.70739" lon="1.94803">
        <ele>108.8</ele>
        <time>2026-01-30T09:21:45Z</time>
      </trkpt>
      <trkpt lat="48.70733" lon="1.94798">
        <ele>108.8</ele>
        <time>2026-01-30T09:21:46Z</time>
      </trkpt>
      <trkpt lat="48.70726" lon="1.94793">
        <ele>108</ele>
        <time>2026-01-30T09:21:47Z</time>
      </trkpt>
      <trkpt lat="48.7072" lon="1.94788">
        <ele>108</ele>
        <time>2026-01-30T09:21:48Z</time>
      </trkpt>
      <trkpt lat="48.70714" lon="1.94784">
        <ele>108</ele>
        <time>2026-01-30T09:21:49Z</time>
      </trkpt>
      <trkpt lat="48.70707" lon="1.94779">
        <ele>108</ele>
        <time>2026-01-30T09:21:50Z</time>
      </trkpt>
      <trkpt lat="48.70701" lon="1.94774">
        <ele>107</ele>
        <time>2026-01-30T09:21:51Z</time>
      </trkpt>
      <trkpt lat="48.70694" lon="1.94769">
        <ele>105.4</ele>
        <time>2026-01-30T09:21:52Z</time>
      </trkpt>
      <trkpt lat="48.70688" lon="1.94764">
        <ele>105.4</ele>
        <time>2026-01-30T09:21:53Z</time>
      </trkpt>
      <trkpt lat="48.70681" lon="1.94759">
        <ele>105.4</ele>
        <time>2026-01-30T09:21:54Z</time>
      </trkpt>
      <trkpt lat="48.70675" lon="1.94754">
        <ele>105.8</ele>
        <time>2026-01-30T09:21:55Z</time>
      </trkpt>
      <trkpt lat="48.70668" lon="1.94749">
        <ele>105.2</ele>
        <time>2026-01-30T09:21:56Z</time>
      </trkpt>
      <trkpt lat="48.70662" lon="1.94744">
        <ele>105.2</ele>
        <time>2026-01-30T09:21:57Z</time>
      </trkpt>
      <trkpt lat="48.70655" lon="1.94739">
        <ele>105.2</ele>
        <time>2026-01-30T09:21:58Z</time>
      </trkpt>
      <trkpt lat="48.70649" lon="1.94735">
        <ele>104.8</ele>
        <time>2026-01-30T09:21:59Z</time>
      </trkpt>
      <trkpt lat="48.70642" lon="1.9473">
        <ele>105.2</ele>
        <time>2026-01-30T09:22:00Z</time>
      </trkpt>
      <trkpt lat="48.70636" lon="1.94725">
        <ele>105.2</ele>
        <time>2026-01-30T09:22:01Z</time>
      </trkpt>
      <trkpt lat="48.7063" lon="1.9472">
        <ele>105.2</ele>
        <time>2026-01-30T09:22:02Z</time>
      </trkpt>
      <trkpt lat="48.70624" lon="1.94719">
        <ele>105.2</ele>
        <time>2026-01-30T09:22:03Z</time>
      </trkpt>
      <trkpt lat="48.70619" lon="1.94721">
        <ele>107.2</ele>
        <time>2026-01-30T09:22:04Z</time>
      </trkpt>
      <trkpt lat="48.70616" lon="1.94728">
        <ele>107.2</ele>
        <time>2026-01-30T09:22:05Z</time>
      </trkpt>
      <trkpt lat="48.70615" lon="1.94735">
        <ele>107.2</ele>
        <time>2026-01-30T09:22:06Z</time>
      </trkpt>
      <trkpt lat="48.70617" lon="1.94743">
        <ele>108.2</ele>
        <time>2026-01-30T09:22:07Z</time>
      </trkpt>
      <trkpt lat="48.70619" lon="1.94751">
        <ele>109</ele>
        <time>2026-01-30T09:22:08Z</time>
      </trkpt>
      <trkpt lat="48.70622" lon="1.94759">
        <ele>109</ele>
        <time>2026-01-30T09:22:09Z</time>
      </trkpt>
      <trkpt lat="48.70625" lon="1.94767">
        <ele>109</ele>
        <time>2026-01-30T09:22:10Z</time>
      </trkpt>
      <trkpt lat="48.70628" lon="1.94776">
        <ele>109.2</ele>
        <time>2026-01-30T09:22:11Z</time>
      </trkpt>
      <trkpt lat="48.7063" lon="1.94784">
        <ele>109.2</ele>
        <time>2026-01-30T09:22:12Z</time>
      </trkpt>
      <trkpt lat="48.70633" lon="1.94794">
        <ele>109.2</ele>
        <time>2026-01-30T09:22:13Z</time>
      </trkpt>
      <trkpt lat="48.70635" lon="1.94803">
        <ele>109.2</ele>
        <time>2026-01-30T09:22:14Z</time>
      </trkpt>
      <trkpt lat="48.70638" lon="1.94813">
        <ele>109.2</ele>
        <time>2026-01-30T09:22:15Z</time>
      </trkpt>
      <trkpt lat="48.7064" lon="1.94823">
        <ele>109.2</ele>
        <time>2026-01-30T09:22:16Z</time>
      </trkpt>
      <trkpt lat="48.70642" lon="1.94833">
        <ele>109.2</ele>
        <time>2026-01-30T09:22:17Z</time>
      </trkpt>
      <trkpt lat="48.70645" lon="1.94843">
        <ele>109.2</ele>
        <time>2026-01-30T09:22:18Z</time>
      </trkpt>
      <trkpt lat="48.70647" lon="1.94853">
        <ele>109.2</ele>
        <time>2026-01-30T09:22:19Z</time>
      </trkpt>
      <trkpt lat="48.70649" lon="1.94863">
        <ele>109.2</ele>
        <time>2026-01-30T09:22:20Z</time>
      </trkpt>
      <trkpt lat="48.70651" lon="1.94873">
        <ele>109.2</ele>
        <time>2026-01-30T09:22:21Z</time>
      </trkpt>
      <trkpt lat="48.70653" lon="1.94884">
        <ele>109.2</ele>
        <time>2026-01-30T09:22:22Z</time>
      </trkpt>
      <trkpt lat="48.70654" lon="1.94894">
        <ele>108.6</ele>
        <time>2026-01-30T09:22:23Z</time>
      </trkpt>
      <trkpt lat="48.70656" lon="1.94906">
        <ele>108.6</ele>
        <time>2026-01-30T09:22:24Z</time>
      </trkpt>
      <trkpt lat="48.70656" lon="1.94917">
        <ele>108.6</ele>
        <time>2026-01-30T09:22:25Z</time>
      </trkpt>
      <trkpt lat="48.70657" lon="1.94929">
        <ele>108.6</ele>
        <time>2026-01-30T09:22:26Z</time>
      </trkpt>
      <trkpt lat="48.70657" lon="1.9494">
        <ele>108.6</ele>
        <time>2026-01-30T09:22:27Z</time>
      </trkpt>
      <trkpt lat="48.70657" lon="1.94951">
        <ele>109.2</ele>
        <time>2026-01-30T09:22:28Z</time>
      </trkpt>
      <trkpt lat="48.70657" lon="1.94962">
        <ele>109.2</ele>
        <time>2026-01-30T09:22:29Z</time>
      </trkpt>
      <trkpt lat="48.70657" lon="1.94973">
        <ele>109.2</ele>
        <time>2026-01-30T09:22:30Z</time>
      </trkpt>
      <trkpt lat="48.70657" lon="1.94984">
        <ele>110</ele>
        <time>2026-01-30T09:22:31Z</time>
      </trkpt>
      <trkpt lat="48.70657" lon="1.94995">
        <ele>109.4</ele>
        <time>2026-01-30T09:22:32Z</time>
      </trkpt>
      <trkpt lat="48.70656" lon="1.95005">
        <ele>109.4</ele>
        <time>2026-01-30T09:22:33Z</time>
      </trkpt>
      <trkpt lat="48.70656" lon="1.95015">
        <ele>109.4</ele>
        <time>2026-01-30T09:22:34Z</time>
      </trkpt>
      <trkpt lat="48.70656" lon="1.95025">
        <ele>109.4</ele>
        <time>2026-01-30T09:22:35Z</time>
      </trkpt>
      <trkpt lat="48.70656" lon="1.95035">
        <ele>110.2</ele>
        <time>2026-01-30T09:22:36Z</time>
      </trkpt>
      <trkpt lat="48.70656" lon="1.95045">
        <ele>110.2</ele>
        <time>2026-01-30T09:22:37Z</time>
      </trkpt>
      <trkpt lat="48.70656" lon="1.95055">
        <ele>110.2</ele>
        <time>2026-01-30T09:22:38Z</time>
      </trkpt>
      <trkpt lat="48.70656" lon="1.95064">
        <ele>111.2</ele>
        <time>2026-01-30T09:22:39Z</time>
      </trkpt>
      <trkpt lat="48.70656" lon="1.95074">
        <ele>110.8</ele>
        <time>2026-01-30T09:22:40Z</time>
      </trkpt>
      <trkpt lat="48.70656" lon="1.95083">
        <ele>110.8</ele>
        <time>2026-01-30T09:22:41Z</time>
      </trkpt>
      <trkpt lat="48.70656" lon="1.95092">
        <ele>110.8</ele>
        <time>2026-01-30T09:22:42Z</time>
      </trkpt>
      <trkpt lat="48.70655" lon="1.951">
        <ele>110.8</ele>
        <time>2026-01-30T09:22:43Z</time>
      </trkpt>
      <trkpt lat="48.70655" lon="1.95109">
        <ele>111</ele>
        <time>2026-01-30T09:22:44Z</time>
      </trkpt>
      <trkpt lat="48.70655" lon="1.95118">
        <ele>111</ele>
        <time>2026-01-30T09:22:45Z</time>
      </trkpt>
      <trkpt lat="48.70655" lon="1.95127">
        <ele>111</ele>
        <time>2026-01-30T09:22:46Z</time>
      </trkpt>
      <trkpt lat="48.70654" lon="1.95135">
        <ele>111</ele>
        <time>2026-01-30T09:22:47Z</time>
      </trkpt>
      <trkpt lat="48.70653" lon="1.95144">
        <ele>111.6</ele>
        <time>2026-01-30T09:22:48Z</time>
      </trkpt>
      <trkpt lat="48.70653" lon="1.95153">
        <ele>111.6</ele>
        <time>2026-01-30T09:22:49Z</time>
      </trkpt>
      <trkpt lat="48.70652" lon="1.95162">
        <ele>111.6</ele>
        <time>2026-01-30T09:22:50Z</time>
      </trkpt>
      <trkpt lat="48.70651" lon="1.9517">
        <ele>111</ele>
        <time>2026-01-30T09:22:51Z</time>
      </trkpt>
      <trkpt lat="48.70651" lon="1.95179">
        <ele>111</ele>
        <time>2026-01-30T09:22:52Z</time>
      </trkpt>
      <trkpt lat="48.7065" lon="1.95188">
        <ele>111</ele>
        <time>2026-01-30T09:22:53Z</time>
      </trkpt>
      <trkpt lat="48.7065" lon="1.95198">
        <ele>111</ele>
        <time>2026-01-30T09:22:54Z</time>
      </trkpt>
      <trkpt lat="48.7065" lon="1.95207">
        <ele>110.4</ele>
        <time>2026-01-30T09:22:55Z</time>
      </trkpt>
      <trkpt lat="48.7065" lon="1.95217">
        <ele>110.4</ele>
        <time>2026-01-30T09:22:56Z</time>
      </trkpt>
      <trkpt lat="48.70651" lon="1.95227">
        <ele>110.4</ele>
        <time>2026-01-30T09:22:57Z</time>
      </trkpt>
      <trkpt lat="48.70651" lon="1.95236">
        <ele>110.4</ele>
        <time>2026-01-30T09:22:58Z</time>
      </trkpt>
      <trkpt lat="48.70651" lon="1.95246">
        <ele>110.6</ele>
        <time>2026-01-30T09:22:59Z</time>
      </trkpt>
      <trkpt lat="48.70652" lon="1.95256">
        <ele>110.4</ele>
        <time>2026-01-30T09:23:00Z</time>
      </trkpt>
      <trkpt lat="48.70652" lon="1.95265">
        <ele>110.4</ele>
        <time>2026-01-30T09:23:01Z</time>
      </trkpt>
      <trkpt lat="48.70653" lon="1.95275">
        <ele>110.4</ele>
        <time>2026-01-30T09:23:02Z</time>
      </trkpt>
      <trkpt lat="48.70653" lon="1.95285">
        <ele>110.2</ele>
        <time>2026-01-30T09:23:03Z</time>
      </trkpt>
      <trkpt lat="48.70653" lon="1.95295">
        <ele>110</ele>
        <time>2026-01-30T09:23:04Z</time>
      </trkpt>
      <trkpt lat="48.70654" lon="1.95306">
        <ele>110</ele>
        <time>2026-01-30T09:23:05Z</time>
      </trkpt>
      <trkpt lat="48.70654" lon="1.95316">
        <ele>110</ele>
        <time>2026-01-30T09:23:06Z</time>
      </trkpt>
      <trkpt lat="48.70654" lon="1.95326">
        <ele>110</ele>
        <time>2026-01-30T09:23:07Z</time>
      </trkpt>
      <trkpt lat="48.70653" lon="1.95337">
        <ele>110.2</ele>
        <time>2026-01-30T09:23:08Z</time>
      </trkpt>
      <trkpt lat="48.70653" lon="1.95347">
        <ele>110.2</ele>
        <time>2026-01-30T09:23:09Z</time>
      </trkpt>
      <trkpt lat="48.70652" lon="1.95358">
        <ele>110.2</ele>
        <time>2026-01-30T09:23:10Z</time>
      </trkpt>
      <trkpt lat="48.70651" lon="1.95368">
        <ele>110</ele>
        <time>2026-01-30T09:23:11Z</time>
      </trkpt>
      <trkpt lat="48.70651" lon="1.95378">
        <ele>110.2</ele>
        <time>2026-01-30T09:23:12Z</time>
      </trkpt>
      <trkpt lat="48.7065" lon="1.95387">
        <ele>110.2</ele>
        <time>2026-01-30T09:23:13Z</time>
      </trkpt>
      <trkpt lat="48.70648" lon="1.95397">
        <ele>110.2</ele>
        <time>2026-01-30T09:23:14Z</time>
      </trkpt>
      <trkpt lat="48.70647" lon="1.95406">
        <ele>110.6</ele>
        <time>2026-01-30T09:23:15Z</time>
      </trkpt>
      <trkpt lat="48.70645" lon="1.95416">
        <ele>110.8</ele>
        <time>2026-01-30T09:23:16Z</time>
      </trkpt>
      <trkpt lat="48.70645" lon="1.95425">
        <ele>110.8</ele>
        <time>2026-01-30T09:23:17Z</time>
      </trkpt>
      <trkpt lat="48.70645" lon="1.95434">
        <ele>110.8</ele>
        <time>2026-01-30T09:23:18Z</time>
      </trkpt>
      <trkpt lat="48.70644" lon="1.95443">
        <ele>111.8</ele>
        <time>2026-01-30T09:23:19Z</time>
      </trkpt>
      <trkpt lat="48.70643" lon="1.95452">
        <ele>112</ele>
        <time>2026-01-30T09:23:20Z</time>
      </trkpt>
      <trkpt lat="48.70642" lon="1.95461">
        <ele>112</ele>
        <time>2026-01-30T09:23:21Z</time>
      </trkpt>
      <trkpt lat="48.70641" lon="1.95469">
        <ele>112</ele>
        <time>2026-01-30T09:23:22Z</time>
      </trkpt>
      <trkpt lat="48.7064" lon="1.95478">
        <ele>112</ele>
        <time>2026-01-30T09:23:23Z</time>
      </trkpt>
      <trkpt lat="48.7064" lon="1.95487">
        <ele>112</ele>
        <time>2026-01-30T09:23:24Z</time>
      </trkpt>
      <trkpt lat="48.70639" lon="1.95496">
        <ele>112</ele>
        <time>2026-01-30T09:23:25Z</time>
      </trkpt>
      <trkpt lat="48.70638" lon="1.95504">
        <ele>112</ele>
        <time>2026-01-30T09:23:26Z</time>
      </trkpt>
      <trkpt lat="48.70635" lon="1.95513">
        <ele>112.8</ele>
        <time>2026-01-30T09:23:27Z</time>
      </trkpt>
      <trkpt lat="48.70634" lon="1.95521">
        <ele>112.8</ele>
        <time>2026-01-30T09:23:28Z</time>
      </trkpt>
      <trkpt lat="48.70633" lon="1.9553">
        <ele>112.8</ele>
        <time>2026-01-30T09:23:29Z</time>
      </trkpt>
      <trkpt lat="48.70632" lon="1.95538">
        <ele>112.8</ele>
        <time>2026-01-30T09:23:30Z</time>
      </trkpt>
      <trkpt lat="48.7063" lon="1.95547">
        <ele>113.8</ele>
        <time>2026-01-30T09:23:31Z</time>
      </trkpt>
      <trkpt lat="48.70629" lon="1.95555">
        <ele>113.2</ele>
        <time>2026-01-30T09:23:32Z</time>
      </trkpt>
      <trkpt lat="48.70627" lon="1.95563">
        <ele>113.2</ele>
        <time>2026-01-30T09:23:33Z</time>
      </trkpt>
      <trkpt lat="48.70626" lon="1.95572">
        <ele>113.2</ele>
        <time>2026-01-30T09:23:34Z</time>
      </trkpt>
      <trkpt lat="48.70624" lon="1.9558">
        <ele>113.4</ele>
        <time>2026-01-30T09:23:35Z</time>
      </trkpt>
      <trkpt lat="48.70621" lon="1.95588">
        <ele>113.6</ele>
        <time>2026-01-30T09:23:36Z</time>
      </trkpt>
      <trkpt lat="48.70619" lon="1.95595">
        <ele>113.6</ele>
        <time>2026-01-30T09:23:37Z</time>
      </trkpt>
      <trkpt lat="48.70617" lon="1.95603">
        <ele>113.6</ele>
        <time>2026-01-30T09:23:38Z</time>
      </trkpt>
      <trkpt lat="48.70614" lon="1.9561">
        <ele>114</ele>
        <time>2026-01-30T09:23:39Z</time>
      </trkpt>
      <trkpt lat="48.70611" lon="1.95617">
        <ele>114</ele>
        <time>2026-01-30T09:23:40Z</time>
      </trkpt>
      <trkpt lat="48.70608" lon="1.95624">
        <ele>114</ele>
        <time>2026-01-30T09:23:41Z</time>
      </trkpt>
      <trkpt lat="48.70605" lon="1.95631">
        <ele>114</ele>
        <time>2026-01-30T09:23:42Z</time>
      </trkpt>
      <trkpt lat="48.70602" lon="1.95637">
        <ele>114</ele>
        <time>2026-01-30T09:23:43Z</time>
      </trkpt>
      <trkpt lat="48.70599" lon="1.95645">
        <ele>114.2</ele>
        <time>2026-01-30T09:23:44Z</time>
      </trkpt>
      <trkpt lat="48.70597" lon="1.95652">
        <ele>114.2</ele>
        <time>2026-01-30T09:23:45Z</time>
      </trkpt>
      <trkpt lat="48.70594" lon="1.95659">
        <ele>114.2</ele>
        <time>2026-01-30T09:23:46Z</time>
      </trkpt>
      <trkpt lat="48.70591" lon="1.95666">
        <ele>114.2</ele>
        <time>2026-01-30T09:23:47Z</time>
      </trkpt>
      <trkpt lat="48.70588" lon="1.95673">
        <ele>114.6</ele>
        <time>2026-01-30T09:23:48Z</time>
      </trkpt>
      <trkpt lat="48.70585" lon="1.95681">
        <ele>114.6</ele>
        <time>2026-01-30T09:23:49Z</time>
      </trkpt>
      <trkpt lat="48.70582" lon="1.95688">
        <ele>114.6</ele>
        <time>2026-01-30T09:23:50Z</time>
      </trkpt>
      <trkpt lat="48.70579" lon="1.95696">
        <ele>114.6</ele>
        <time>2026-01-30T09:23:51Z</time>
      </trkpt>
      <trkpt lat="48.70577" lon="1.95704">
        <ele>114.4</ele>
        <time>2026-01-30T09:23:52Z</time>
      </trkpt>
      <trkpt lat="48.70574" lon="1.95712">
        <ele>114.4</ele>
        <time>2026-01-30T09:23:53Z</time>
      </trkpt>
      <trkpt lat="48.70571" lon="1.95719">
        <ele>114.4</ele>
        <time>2026-01-30T09:23:54Z</time>
      </trkpt>
      <trkpt lat="48.70568" lon="1.95726">
        <ele>114.8</ele>
        <time>2026-01-30T09:23:55Z</time>
      </trkpt>
      <trkpt lat="48.70565" lon="1.95731">
        <ele>114.4</ele>
        <time>2026-01-30T09:23:56Z</time>
      </trkpt>
      <trkpt lat="48.70562" lon="1.95739">
        <ele>114.4</ele>
        <time>2026-01-30T09:23:57Z</time>
      </trkpt>
      <trkpt lat="48.70558" lon="1.95747">
        <ele>114.4</ele>
        <time>2026-01-30T09:23:58Z</time>
      </trkpt>
      <trkpt lat="48.70555" lon="1.95756">
        <ele>114</ele>
        <time>2026-01-30T09:23:59Z</time>
      </trkpt>
      <trkpt lat="48.70552" lon="1.95764">
        <ele>113.8</ele>
        <time>2026-01-30T09:24:00Z</time>
      </trkpt>
      <trkpt lat="48.70549" lon="1.95772">
        <ele>113.8</ele>
        <time>2026-01-30T09:24:01Z</time>
      </trkpt>
      <trkpt lat="48.70546" lon="1.95779">
        <ele>113.8</ele>
        <time>2026-01-30T09:24:02Z</time>
      </trkpt>
      <trkpt lat="48.70543" lon="1.95787">
        <ele>113.8</ele>
        <time>2026-01-30T09:24:03Z</time>
      </trkpt>
      <trkpt lat="48.7054" lon="1.95794">
        <ele>114</ele>
        <time>2026-01-30T09:24:04Z</time>
      </trkpt>
      <trkpt lat="48.70537" lon="1.95803">
        <ele>114</ele>
        <time>2026-01-30T09:24:05Z</time>
      </trkpt>
      <trkpt lat="48.70535" lon="1.95812">
        <ele>114</ele>
        <time>2026-01-30T09:24:06Z</time>
      </trkpt>
      <trkpt lat="48.70532" lon="1.95821">
        <ele>113.8</ele>
        <time>2026-01-30T09:24:07Z</time>
      </trkpt>
      <trkpt lat="48.7053" lon="1.95831">
        <ele>113.8</ele>
        <time>2026-01-30T09:24:08Z</time>
      </trkpt>
      <trkpt lat="48.70528" lon="1.9584">
        <ele>113.8</ele>
        <time>2026-01-30T09:24:09Z</time>
      </trkpt>
      <trkpt lat="48.70527" lon="1.9585">
        <ele>113.8</ele>
        <time>2026-01-30T09:24:10Z</time>
      </trkpt>
      <trkpt lat="48.70526" lon="1.9586">
        <ele>114.2</ele>
        <time>2026-01-30T09:24:11Z</time>
      </trkpt>
      <trkpt lat="48.70525" lon="1.9587">
        <ele>114</ele>
        <time>2026-01-30T09:24:12Z</time>
      </trkpt>
      <trkpt lat="48.70524" lon="1.95879">
        <ele>114</ele>
        <time>2026-01-30T09:24:13Z</time>
      </trkpt>
      <trkpt lat="48.70524" lon="1.95888">
        <ele>114</ele>
        <time>2026-01-30T09:24:14Z</time>
      </trkpt>
      <trkpt lat="48.70523" lon="1.95897">
        <ele>114</ele>
        <time>2026-01-30T09:24:15Z</time>
      </trkpt>
      <trkpt lat="48.70523" lon="1.95905">
        <ele>114.2</ele>
        <time>2026-01-30T09:24:16Z</time>
      </trkpt>
      <trkpt lat="48.70522" lon="1.95913">
        <ele>114.2</ele>
        <time>2026-01-30T09:24:17Z</time>
      </trkpt>
      <trkpt lat="48.70521" lon="1.95922">
        <ele>114.2</ele>
        <time>2026-01-30T09:24:18Z</time>
      </trkpt>
      <trkpt lat="48.7052" lon="1.9593">
        <ele>114.4</ele>
        <time>2026-01-30T09:24:19Z</time>
      </trkpt>
      <trkpt lat="48.7052" lon="1.95938">
        <ele>114.2</ele>
        <time>2026-01-30T09:24:20Z</time>
      </trkpt>
      <trkpt lat="48.7052" lon="1.95948">
        <ele>114.2</ele>
        <time>2026-01-30T09:24:21Z</time>
      </trkpt>
      <trkpt lat="48.70519" lon="1.95956">
        <ele>114.2</ele>
        <time>2026-01-30T09:24:22Z</time>
      </trkpt>
      <trkpt lat="48.70518" lon="1.95964">
        <ele>114.6</ele>
        <time>2026-01-30T09:24:23Z</time>
      </trkpt>
      <trkpt lat="48.70517" lon="1.95978">
        <ele>114.6</ele>
        <time>2026-01-30T09:24:24Z</time>
      </trkpt>
      <trkpt lat="48.70517" lon="1.95991">
        <ele>114.6</ele>
        <time>2026-01-30T09:24:25Z</time>
      </trkpt>
      <trkpt lat="48.70516" lon="1.96001">
        <ele>114.6</ele>
        <time>2026-01-30T09:24:26Z</time>
      </trkpt>
      <trkpt lat="48.70515" lon="1.96011">
        <ele>114.6</ele>
        <time>2026-01-30T09:24:27Z</time>
      </trkpt>
      <trkpt lat="48.70513" lon="1.9602">
        <ele>114</ele>
        <time>2026-01-30T09:24:28Z</time>
      </trkpt>
      <trkpt lat="48.70511" lon="1.9603">
        <ele>114</ele>
        <time>2026-01-30T09:24:29Z</time>
      </trkpt>
      <trkpt lat="48.70509" lon="1.96039">
        <ele>114</ele>
        <time>2026-01-30T09:24:30Z</time>
      </trkpt>
      <trkpt lat="48.70507" lon="1.96048">
        <ele>114.2</ele>
        <time>2026-01-30T09:24:31Z</time>
      </trkpt>
      <trkpt lat="48.70506" lon="1.96058">
        <ele>113.8</ele>
        <time>2026-01-30T09:24:32Z</time>
      </trkpt>
      <trkpt lat="48.70504" lon="1.96068">
        <ele>113.8</ele>
        <time>2026-01-30T09:24:33Z</time>
      </trkpt>
      <trkpt lat="48.70502" lon="1.96077">
        <ele>113.8</ele>
        <time>2026-01-30T09:24:34Z</time>
      </trkpt>
      <trkpt lat="48.705" lon="1.96087">
        <ele>113.2</ele>
        <time>2026-01-30T09:24:35Z</time>
      </trkpt>
      <trkpt lat="48.70499" lon="1.96097">
        <ele>112.6</ele>
        <time>2026-01-30T09:24:36Z</time>
      </trkpt>
      <trkpt lat="48.70497" lon="1.96108">
        <ele>112.6</ele>
        <time>2026-01-30T09:24:37Z</time>
      </trkpt>
      <trkpt lat="48.70495" lon="1.96119">
        <ele>112.6</ele>
        <time>2026-01-30T09:24:38Z</time>
      </trkpt>
      <trkpt lat="48.70493" lon="1.96129">
        <ele>113.2</ele>
        <time>2026-01-30T09:24:39Z</time>
      </trkpt>
      <trkpt lat="48.70492" lon="1.9614">
        <ele>112.8</ele>
        <time>2026-01-30T09:24:40Z</time>
      </trkpt>
      <trkpt lat="48.7049" lon="1.96152">
        <ele>112.8</ele>
        <time>2026-01-30T09:24:41Z</time>
      </trkpt>
      <trkpt lat="48.70488" lon="1.96163">
        <ele>112.8</ele>
        <time>2026-01-30T09:24:42Z</time>
      </trkpt>
      <trkpt lat="48.70485" lon="1.96173">
        <ele>112.8</ele>
        <time>2026-01-30T09:24:43Z</time>
      </trkpt>
      <trkpt lat="48.70483" lon="1.96185">
        <ele>112.4</ele>
        <time>2026-01-30T09:24:44Z</time>
      </trkpt>
      <trkpt lat="48.70481" lon="1.96196">
        <ele>112.4</ele>
        <time>2026-01-30T09:24:45Z</time>
      </trkpt>
      <trkpt lat="48.70479" lon="1.96206">
        <ele>112.4</ele>
        <time>2026-01-30T09:24:46Z</time>
      </trkpt>
      <trkpt lat="48.70477" lon="1.96218">
        <ele>112.4</ele>
        <time>2026-01-30T09:24:47Z</time>
      </trkpt>
      <trkpt lat="48.70475" lon="1.96229">
        <ele>112.4</ele>
        <time>2026-01-30T09:24:48Z</time>
      </trkpt>
      <trkpt lat="48.70473" lon="1.9624">
        <ele>112.4</ele>
        <time>2026-01-30T09:24:49Z</time>
      </trkpt>
      <trkpt lat="48.70471" lon="1.96251">
        <ele>112.4</ele>
        <time>2026-01-30T09:24:50Z</time>
      </trkpt>
      <trkpt lat="48.70469" lon="1.96261">
        <ele>112.6</ele>
        <time>2026-01-30T09:24:51Z</time>
      </trkpt>
      <trkpt lat="48.70467" lon="1.96272">
        <ele>112.4</ele>
        <time>2026-01-30T09:24:52Z</time>
      </trkpt>
      <trkpt lat="48.70465" lon="1.96284">
        <ele>112.4</ele>
        <time>2026-01-30T09:24:53Z</time>
      </trkpt>
      <trkpt lat="48.70464" lon="1.96296">
        <ele>112.4</ele>
        <time>2026-01-30T09:24:54Z</time>
      </trkpt>
      <trkpt lat="48.70462" lon="1.96309">
        <ele>111.6</ele>
        <time>2026-01-30T09:24:55Z</time>
      </trkpt>
      <trkpt lat="48.70461" lon="1.9632">
        <ele>111.2</ele>
        <time>2026-01-30T09:24:56Z</time>
      </trkpt>
      <trkpt lat="48.70461" lon="1.96334">
        <ele>111.2</ele>
        <time>2026-01-30T09:24:57Z</time>
      </trkpt>
      <trkpt lat="48.7046" lon="1.96345">
        <ele>111.2</ele>
        <time>2026-01-30T09:24:58Z</time>
      </trkpt>
      <trkpt lat="48.70459" lon="1.96358">
        <ele>111.2</ele>
        <time>2026-01-30T09:24:59Z</time>
      </trkpt>
      <trkpt lat="48.70459" lon="1.9637">
        <ele>111.2</ele>
        <time>2026-01-30T09:25:00Z</time>
      </trkpt>
      <trkpt lat="48.70459" lon="1.96381">
        <ele>111.2</ele>
        <time>2026-01-30T09:25:01Z</time>
      </trkpt>
      <trkpt lat="48.70458" lon="1.96396">
        <ele>111.2</ele>
        <time>2026-01-30T09:25:02Z</time>
      </trkpt>
      <trkpt lat="48.70457" lon="1.96408">
        <ele>111.2</ele>
        <time>2026-01-30T09:25:03Z</time>
      </trkpt>
      <trkpt lat="48.70457" lon="1.9642">
        <ele>109.8</ele>
        <time>2026-01-30T09:25:04Z</time>
      </trkpt>
      <trkpt lat="48.70456" lon="1.96432">
        <ele>109.8</ele>
        <time>2026-01-30T09:25:05Z</time>
      </trkpt>
      <trkpt lat="48.70456" lon="1.96444">
        <ele>109.8</ele>
        <time>2026-01-30T09:25:06Z</time>
      </trkpt>
      <trkpt lat="48.70456" lon="1.96457">
        <ele>109.8</ele>
        <time>2026-01-30T09:25:07Z</time>
      </trkpt>
      <trkpt lat="48.70456" lon="1.9647">
        <ele>109.2</ele>
        <time>2026-01-30T09:25:08Z</time>
      </trkpt>
      <trkpt lat="48.70456" lon="1.96484">
        <ele>109.2</ele>
        <time>2026-01-30T09:25:09Z</time>
      </trkpt>
      <trkpt lat="48.70456" lon="1.96497">
        <ele>109.2</ele>
        <time>2026-01-30T09:25:10Z</time>
      </trkpt>
      <trkpt lat="48.70456" lon="1.96511">
        <ele>108.2</ele>
        <time>2026-01-30T09:25:11Z</time>
      </trkpt>
      <trkpt lat="48.70456" lon="1.96524">
        <ele>107.8</ele>
        <time>2026-01-30T09:25:12Z</time>
      </trkpt>
      <trkpt lat="48.70457" lon="1.96538">
        <ele>107.8</ele>
        <time>2026-01-30T09:25:13Z</time>
      </trkpt>
      <trkpt lat="48.70458" lon="1.96551">
        <ele>107.8</ele>
        <time>2026-01-30T09:25:14Z</time>
      </trkpt>
      <trkpt lat="48.70459" lon="1.96564">
        <ele>107.8</ele>
        <time>2026-01-30T09:25:15Z</time>
      </trkpt>
      <trkpt lat="48.7046" lon="1.96579">
        <ele>105.8</ele>
        <time>2026-01-30T09:25:16Z</time>
      </trkpt>
      <trkpt lat="48.70461" lon="1.96593">
        <ele>105.8</ele>
        <time>2026-01-30T09:25:17Z</time>
      </trkpt>
      <trkpt lat="48.70462" lon="1.96607">
        <ele>105.8</ele>
        <time>2026-01-30T09:25:18Z</time>
      </trkpt>
      <trkpt lat="48.70464" lon="1.96623">
        <ele>105.8</ele>
        <time>2026-01-30T09:25:19Z</time>
      </trkpt>
      <trkpt lat="48.70465" lon="1.96638">
        <ele>105.4</ele>
        <time>2026-01-30T09:25:20Z</time>
      </trkpt>
      <trkpt lat="48.70466" lon="1.96651">
        <ele>105.4</ele>
        <time>2026-01-30T09:25:21Z</time>
      </trkpt>
      <trkpt lat="48.70467" lon="1.96664">
        <ele>105.4</ele>
        <time>2026-01-30T09:25:22Z</time>
      </trkpt>
      <trkpt lat="48.70468" lon="1.96677">
        <ele>105.4</ele>
        <time>2026-01-30T09:25:23Z</time>
      </trkpt>
      <trkpt lat="48.70469" lon="1.96689">
        <ele>106.8</ele>
        <time>2026-01-30T09:25:24Z</time>
      </trkpt>
      <trkpt lat="48.7047" lon="1.96702">
        <ele>106.8</ele>
        <time>2026-01-30T09:25:25Z</time>
      </trkpt>
      <trkpt lat="48.70471" lon="1.96714">
        <ele>106.8</ele>
        <time>2026-01-30T09:25:26Z</time>
      </trkpt>
      <trkpt lat="48.70472" lon="1.96727">
        <ele>107.4</ele>
        <time>2026-01-30T09:25:27Z</time>
      </trkpt>
      <trkpt lat="48.70473" lon="1.96739">
        <ele>107.2</ele>
        <time>2026-01-30T09:25:28Z</time>
      </trkpt>
      <trkpt lat="48.70473" lon="1.96751">
        <ele>107.2</ele>
        <time>2026-01-30T09:25:29Z</time>
      </trkpt>
      <trkpt lat="48.70474" lon="1.96763">
        <ele>107.2</ele>
        <time>2026-01-30T09:25:30Z</time>
      </trkpt>
      <trkpt lat="48.70475" lon="1.96776">
        <ele>107.8</ele>
        <time>2026-01-30T09:25:31Z</time>
      </trkpt>
      <trkpt lat="48.70475" lon="1.96788">
        <ele>107.4</ele>
        <time>2026-01-30T09:25:32Z</time>
      </trkpt>
      <trkpt lat="48.70476" lon="1.96799">
        <ele>107.4</ele>
        <time>2026-01-30T09:25:33Z</time>
      </trkpt>
      <trkpt lat="48.70477" lon="1.96811">
        <ele>107.4</ele>
        <time>2026-01-30T09:25:34Z</time>
      </trkpt>
      <trkpt lat="48.70479" lon="1.96822">
        <ele>108</ele>
        <time>2026-01-30T09:25:35Z</time>
      </trkpt>
      <trkpt lat="48.7048" lon="1.96832">
        <ele>108</ele>
        <time>2026-01-30T09:25:36Z</time>
      </trkpt>
      <trkpt lat="48.7048" lon="1.96842">
        <ele>108</ele>
        <time>2026-01-30T09:25:37Z</time>
      </trkpt>
      <trkpt lat="48.70481" lon="1.96853">
        <ele>108</ele>
        <time>2026-01-30T09:25:38Z</time>
      </trkpt>
      <trkpt lat="48.70482" lon="1.96864">
        <ele>108.6</ele>
        <time>2026-01-30T09:25:39Z</time>
      </trkpt>
      <trkpt lat="48.70483" lon="1.96874">
        <ele>108</ele>
        <time>2026-01-30T09:25:40Z</time>
      </trkpt>
      <trkpt lat="48.70484" lon="1.96884">
        <ele>108</ele>
        <time>2026-01-30T09:25:41Z</time>
      </trkpt>
      <trkpt lat="48.70486" lon="1.96895">
        <ele>108</ele>
        <time>2026-01-30T09:25:42Z</time>
      </trkpt>
      <trkpt lat="48.70487" lon="1.96906">
        <ele>108</ele>
        <time>2026-01-30T09:25:43Z</time>
      </trkpt>
      <trkpt lat="48.70489" lon="1.96917">
        <ele>107.6</ele>
        <time>2026-01-30T09:25:44Z</time>
      </trkpt>
      <trkpt lat="48.70491" lon="1.96929">
        <ele>107.6</ele>
        <time>2026-01-30T09:25:45Z</time>
      </trkpt>
      <trkpt lat="48.70492" lon="1.96941">
        <ele>107.6</ele>
        <time>2026-01-30T09:25:46Z</time>
      </trkpt>
      <trkpt lat="48.70494" lon="1.96952">
        <ele>106.6</ele>
        <time>2026-01-30T09:25:47Z</time>
      </trkpt>
      <trkpt lat="48.70497" lon="1.96963">
        <ele>105.4</ele>
        <time>2026-01-30T09:25:48Z</time>
      </trkpt>
      <trkpt lat="48.70499" lon="1.96977">
        <ele>105.4</ele>
        <time>2026-01-30T09:25:49Z</time>
      </trkpt>
      <trkpt lat="48.70502" lon="1.9699">
        <ele>105.4</ele>
        <time>2026-01-30T09:25:50Z</time>
      </trkpt>
      <trkpt lat="48.70505" lon="1.97002">
        <ele>105</ele>
        <time>2026-01-30T09:25:51Z</time>
      </trkpt>
      <trkpt lat="48.70507" lon="1.97015">
        <ele>104.2</ele>
        <time>2026-01-30T09:25:52Z</time>
      </trkpt>
      <trkpt lat="48.70511" lon="1.97028">
        <ele>104.2</ele>
        <time>2026-01-30T09:25:53Z</time>
      </trkpt>
      <trkpt lat="48.70514" lon="1.9704">
        <ele>104.2</ele>
        <time>2026-01-30T09:25:54Z</time>
      </trkpt>
      <trkpt lat="48.70517" lon="1.97052">
        <ele>104</ele>
        <time>2026-01-30T09:25:55Z</time>
      </trkpt>
      <trkpt lat="48.70521" lon="1.97064">
        <ele>103.6</ele>
        <time>2026-01-30T09:25:56Z</time>
      </trkpt>
      <trkpt lat="48.70524" lon="1.97076">
        <ele>103.6</ele>
        <time>2026-01-30T09:25:57Z</time>
      </trkpt>
      <trkpt lat="48.70528" lon="1.97088">
        <ele>103.6</ele>
        <time>2026-01-30T09:25:58Z</time>
      </trkpt>
      <trkpt lat="48.70532" lon="1.971">
        <ele>103.6</ele>
        <time>2026-01-30T09:25:59Z</time>
      </trkpt>
      <trkpt lat="48.70537" lon="1.97112">
        <ele>102.6</ele>
        <time>2026-01-30T09:26:00Z</time>
      </trkpt>
      <trkpt lat="48.70542" lon="1.97124">
        <ele>102.6</ele>
        <time>2026-01-30T09:26:01Z</time>
      </trkpt>
      <trkpt lat="48.70546" lon="1.97135">
        <ele>102.6</ele>
        <time>2026-01-30T09:26:02Z</time>
      </trkpt>
      <trkpt lat="48.70551" lon="1.97146">
        <ele>102.2</ele>
        <time>2026-01-30T09:26:03Z</time>
      </trkpt>
      <trkpt lat="48.70556" lon="1.97157">
        <ele>102.4</ele>
        <time>2026-01-30T09:26:04Z</time>
      </trkpt>
      <trkpt lat="48.70561" lon="1.97169">
        <ele>102.4</ele>
        <time>2026-01-30T09:26:05Z</time>
      </trkpt>
      <trkpt lat="48.70565" lon="1.9718">
        <ele>102.4</ele>
        <time>2026-01-30T09:26:06Z</time>
      </trkpt>
      <trkpt lat="48.7057" lon="1.97192">
        <ele>101.4</ele>
        <time>2026-01-30T09:26:07Z</time>
      </trkpt>
      <trkpt lat="48.70575" lon="1.97203">
        <ele>100.8</ele>
        <time>2026-01-30T09:26:08Z</time>
      </trkpt>
      <trkpt lat="48.70579" lon="1.97215">
        <ele>100.8</ele>
        <time>2026-01-30T09:26:09Z</time>
      </trkpt>
      <trkpt lat="48.70585" lon="1.97227">
        <ele>100.8</ele>
        <time>2026-01-30T09:26:10Z</time>
      </trkpt>
      <trkpt lat="48.7059" lon="1.97239">
        <ele>100</ele>
        <time>2026-01-30T09:26:11Z</time>
      </trkpt>
      <trkpt lat="48.70596" lon="1.97252">
        <ele>99.6</ele>
        <time>2026-01-30T09:26:12Z</time>
      </trkpt>
      <trkpt lat="48.70601" lon="1.97265">
        <ele>99.6</ele>
        <time>2026-01-30T09:26:13Z</time>
      </trkpt>
      <trkpt lat="48.70607" lon="1.97278">
        <ele>99.6</ele>
        <time>2026-01-30T09:26:14Z</time>
      </trkpt>
      <trkpt lat="48.70613" lon="1.97292">
        <ele>98.6</ele>
        <time>2026-01-30T09:26:15Z</time>
      </trkpt>
      <trkpt lat="48.70619" lon="1.97306">
        <ele>96.8</ele>
        <time>2026-01-30T09:26:16Z</time>
      </trkpt>
      <trkpt lat="48.70625" lon="1.9732">
        <ele>96.8</ele>
        <time>2026-01-30T09:26:17Z</time>
      </trkpt>
      <trkpt lat="48.70631" lon="1.97334">
        <ele>96.8</ele>
        <time>2026-01-30T09:26:18Z</time>
      </trkpt>
      <trkpt lat="48.70637" lon="1.97349">
        <ele>95.8</ele>
        <time>2026-01-30T09:26:19Z</time>
      </trkpt>
      <trkpt lat="48.70644" lon="1.97364">
        <ele>93</ele>
        <time>2026-01-30T09:26:20Z</time>
      </trkpt>
      <trkpt lat="48.7065" lon="1.97379">
        <ele>93</ele>
        <time>2026-01-30T09:26:21Z</time>
      </trkpt>
      <trkpt lat="48.70656" lon="1.97394">
        <ele>93</ele>
        <time>2026-01-30T09:26:22Z</time>
      </trkpt>
      <trkpt lat="48.70662" lon="1.97409">
        <ele>92</ele>
        <time>2026-01-30T09:26:23Z</time>
      </trkpt>
      <trkpt lat="48.70669" lon="1.97424">
        <ele>89.6</ele>
        <time>2026-01-30T09:26:24Z</time>
      </trkpt>
      <trkpt lat="48.70674" lon="1.9744">
        <ele>89.6</ele>
        <time>2026-01-30T09:26:25Z</time>
      </trkpt>
      <trkpt lat="48.7068" lon="1.97455">
        <ele>89.6</ele>
        <time>2026-01-30T09:26:26Z</time>
      </trkpt>
      <trkpt lat="48.70687" lon="1.9747">
        <ele>88.6</ele>
        <time>2026-01-30T09:26:27Z</time>
      </trkpt>
      <trkpt lat="48.70694" lon="1.97486">
        <ele>86.2</ele>
        <time>2026-01-30T09:26:28Z</time>
      </trkpt>
      <trkpt lat="48.707" lon="1.97502">
        <ele>86.2</ele>
        <time>2026-01-30T09:26:29Z</time>
      </trkpt>
      <trkpt lat="48.70706" lon="1.97518">
        <ele>86.2</ele>
        <time>2026-01-30T09:26:30Z</time>
      </trkpt>
      <trkpt lat="48.70713" lon="1.97533">
        <ele>85.2</ele>
        <time>2026-01-30T09:26:31Z</time>
      </trkpt>
      <trkpt lat="48.70719" lon="1.97548">
        <ele>82.8</ele>
        <time>2026-01-30T09:26:32Z</time>
      </trkpt>
      <trkpt lat="48.70724" lon="1.97563">
        <ele>82.8</ele>
        <time>2026-01-30T09:26:33Z</time>
      </trkpt>
      <trkpt lat="48.7073" lon="1.97578">
        <ele>82.8</ele>
        <time>2026-01-30T09:26:34Z</time>
      </trkpt>
      <trkpt lat="48.70736" lon="1.97592">
        <ele>81.8</ele>
        <time>2026-01-30T09:26:35Z</time>
      </trkpt>
      <trkpt lat="48.70742" lon="1.97607">
        <ele>79.4</ele>
        <time>2026-01-30T09:26:36Z</time>
      </trkpt>
      <trkpt lat="48.70747" lon="1.97622">
        <ele>79.4</ele>
        <time>2026-01-30T09:26:37Z</time>
      </trkpt>
      <trkpt lat="48.70753" lon="1.97636">
        <ele>79.4</ele>
        <time>2026-01-30T09:26:38Z</time>
      </trkpt>
      <trkpt lat="48.70759" lon="1.9765">
        <ele>78.4</ele>
        <time>2026-01-30T09:26:39Z</time>
      </trkpt>
      <trkpt lat="48.70765" lon="1.97665">
        <ele>75</ele>
        <time>2026-01-30T09:26:40Z</time>
      </trkpt>
      <trkpt lat="48.70771" lon="1.9768">
        <ele>75</ele>
        <time>2026-01-30T09:26:41Z</time>
      </trkpt>
      <trkpt lat="48.70777" lon="1.97696">
        <ele>75</ele>
        <time>2026-01-30T09:26:42Z</time>
      </trkpt>
      <trkpt lat="48.70783" lon="1.9771">
        <ele>74</ele>
        <time>2026-01-30T09:26:43Z</time>
      </trkpt>
      <trkpt lat="48.70789" lon="1.97725">
        <ele>73.4</ele>
        <time>2026-01-30T09:26:44Z</time>
      </trkpt>
      <trkpt lat="48.70795" lon="1.97739">
        <ele>73.4</ele>
        <time>2026-01-30T09:26:45Z</time>
      </trkpt>
      <trkpt lat="48.70802" lon="1.97753">
        <ele>73.4</ele>
        <time>2026-01-30T09:26:46Z</time>
      </trkpt>
      <trkpt lat="48.70809" lon="1.97766">
        <ele>72.4</ele>
        <time>2026-01-30T09:26:47Z</time>
      </trkpt>
      <trkpt lat="48.70816" lon="1.9778">
        <ele>71.2</ele>
        <time>2026-01-30T09:26:48Z</time>
      </trkpt>
      <trkpt lat="48.70825" lon="1.97792">
        <ele>71.2</ele>
        <time>2026-01-30T09:26:49Z</time>
      </trkpt>
      <trkpt lat="48.70833" lon="1.97804">
        <ele>71.2</ele>
        <time>2026-01-30T09:26:50Z</time>
      </trkpt>
      <trkpt lat="48.70842" lon="1.97815">
        <ele>71.2</ele>
        <time>2026-01-30T09:26:51Z</time>
      </trkpt>
      <trkpt lat="48.7085" lon="1.97827">
        <ele>68.8</ele>
        <time>2026-01-30T09:26:52Z</time>
      </trkpt>
      <trkpt lat="48.70859" lon="1.97839">
        <ele>68.8</ele>
        <time>2026-01-30T09:26:53Z</time>
      </trkpt>
      <trkpt lat="48.70867" lon="1.97851">
        <ele>68.8</ele>
        <time>2026-01-30T09:26:54Z</time>
      </trkpt>
      <trkpt lat="48.70876" lon="1.97863">
        <ele>67.8</ele>
        <time>2026-01-30T09:26:55Z</time>
      </trkpt>
      <trkpt lat="48.70884" lon="1.97875">
        <ele>65.2</ele>
        <time>2026-01-30T09:26:56Z</time>
      </trkpt>
      <trkpt lat="48.70892" lon="1.97887">
        <ele>65.2</ele>
        <time>2026-01-30T09:26:57Z</time>
      </trkpt>
      <trkpt lat="48.709" lon="1.97899">
        <ele>65.2</ele>
        <time>2026-01-30T09:26:58Z</time>
      </trkpt>
      <trkpt lat="48.70908" lon="1.97911">
        <ele>65.2</ele>
        <time>2026-01-30T09:26:59Z</time>
      </trkpt>
      <trkpt lat="48.70915" lon="1.97924">
        <ele>62.4</ele>
        <time>2026-01-30T09:27:00Z</time>
      </trkpt>
      <trkpt lat="48.7092" lon="1.97937">
        <ele>62.4</ele>
        <time>2026-01-30T09:27:01Z</time>
      </trkpt>
      <trkpt lat="48.70925" lon="1.97948">
        <ele>62.4</ele>
        <time>2026-01-30T09:27:02Z</time>
      </trkpt>
      <trkpt lat="48.70928" lon="1.97963">
        <ele>61.8</ele>
        <time>2026-01-30T09:27:03Z</time>
      </trkpt>
      <trkpt lat="48.70932" lon="1.97977">
        <ele>60</ele>
        <time>2026-01-30T09:27:04Z</time>
      </trkpt>
      <trkpt lat="48.70933" lon="1.97992">
        <ele>60</ele>
        <time>2026-01-30T09:27:05Z</time>
      </trkpt>
      <trkpt lat="48.70933" lon="1.98007">
        <ele>60</ele>
        <time>2026-01-30T09:27:06Z</time>
      </trkpt>
      <trkpt lat="48.70931" lon="1.98022">
        <ele>59</ele>
        <time>2026-01-30T09:27:07Z</time>
      </trkpt>
      <trkpt lat="48.70929" lon="1.98038">
        <ele>56.8</ele>
        <time>2026-01-30T09:27:08Z</time>
      </trkpt>
      <trkpt lat="48.70926" lon="1.98053">
        <ele>56.8</ele>
        <time>2026-01-30T09:27:09Z</time>
      </trkpt>
      <trkpt lat="48.70922" lon="1.98068">
        <ele>56.8</ele>
        <time>2026-01-30T09:27:10Z</time>
      </trkpt>
      <trkpt lat="48.70918" lon="1.98083">
        <ele>55.8</ele>
        <time>2026-01-30T09:27:11Z</time>
      </trkpt>
      <trkpt lat="48.70915" lon="1.98098">
        <ele>53</ele>
        <time>2026-01-30T09:27:12Z</time>
      </trkpt>
      <trkpt lat="48.70912" lon="1.98114">
        <ele>53</ele>
        <time>2026-01-30T09:27:13Z</time>
      </trkpt>
      <trkpt lat="48.70909" lon="1.98129">
        <ele>53</ele>
        <time>2026-01-30T09:27:14Z</time>
      </trkpt>
      <trkpt lat="48.70906" lon="1.98145">
        <ele>52</ele>
        <time>2026-01-30T09:27:15Z</time>
      </trkpt>
      <trkpt lat="48.70903" lon="1.9816">
        <ele>51.2</ele>
        <time>2026-01-30T09:27:16Z</time>
      </trkpt>
      <trkpt lat="48.709" lon="1.98175">
        <ele>51.2</ele>
        <time>2026-01-30T09:27:17Z</time>
      </trkpt>
      <trkpt lat="48.70896" lon="1.9819">
        <ele>51.2</ele>
        <time>2026-01-30T09:27:18Z</time>
      </trkpt>
      <trkpt lat="48.70894" lon="1.98204">
        <ele>51.2</ele>
        <time>2026-01-30T09:27:19Z</time>
      </trkpt>
      <trkpt lat="48.7089" lon="1.98218">
        <ele>51.2</ele>
        <time>2026-01-30T09:27:20Z</time>
      </trkpt>
      <trkpt lat="48.70887" lon="1.98231">
        <ele>51.2</ele>
        <time>2026-01-30T09:27:21Z</time>
      </trkpt>
      <trkpt lat="48.70884" lon="1.98246">
        <ele>51.2</ele>
        <time>2026-01-30T09:27:22Z</time>
      </trkpt>
      <trkpt lat="48.7088" lon="1.98261">
        <ele>50.2</ele>
        <time>2026-01-30T09:27:23Z</time>
      </trkpt>
      <trkpt lat="48.70877" lon="1.98277">
        <ele>49.4</ele>
        <time>2026-01-30T09:27:24Z</time>
      </trkpt>
      <trkpt lat="48.70875" lon="1.98291">
        <ele>49.4</ele>
        <time>2026-01-30T09:27:25Z</time>
      </trkpt>
      <trkpt lat="48.70872" lon="1.98304">
        <ele>49.4</ele>
        <time>2026-01-30T09:27:26Z</time>
      </trkpt>
      <trkpt lat="48.70869" lon="1.98316">
        <ele>50</ele>
        <time>2026-01-30T09:27:27Z</time>
      </trkpt>
      <trkpt lat="48.70866" lon="1.98328">
        <ele>50.4</ele>
        <time>2026-01-30T09:27:28Z</time>
      </trkpt>
      <trkpt lat="48.70863" lon="1.98337">
        <ele>50.4</ele>
        <time>2026-01-30T09:27:29Z</time>
      </trkpt>
      <trkpt lat="48.70862" lon="1.98346">
        <ele>50.4</ele>
        <time>2026-01-30T09:27:30Z</time>
      </trkpt>
      <trkpt lat="48.70862" lon="1.98354">
        <ele>50.6</ele>
        <time>2026-01-30T09:27:31Z</time>
      </trkpt>
      <trkpt lat="48.70862" lon="1.98363">
        <ele>52.2</ele>
        <time>2026-01-30T09:27:32Z</time>
      </trkpt>
      <trkpt lat="48.70862" lon="1.98371">
        <ele>52.2</ele>
        <time>2026-01-30T09:27:33Z</time>
      </trkpt>
      <trkpt lat="48.7086" lon="1.98379">
        <ele>52.2</ele>
        <time>2026-01-30T09:27:34Z</time>
      </trkpt>
      <trkpt lat="48.70858" lon="1.98387">
        <ele>51.2</ele>
        <time>2026-01-30T09:27:35Z</time>
      </trkpt>
      <trkpt lat="48.70856" lon="1.98395">
        <ele>51.2</ele>
        <time>2026-01-30T09:27:36Z</time>
      </trkpt>
      <trkpt lat="48.70854" lon="1.98402">
        <ele>51.2</ele>
        <time>2026-01-30T09:27:37Z</time>
      </trkpt>
      <trkpt lat="48.70852" lon="1.98412">
        <ele>51.2</ele>
        <time>2026-01-30T09:27:38Z</time>
      </trkpt>
      <trkpt lat="48.70851" lon="1.98421">
        <ele>50.4</ele>
        <time>2026-01-30T09:27:39Z</time>
      </trkpt>
      <trkpt lat="48.70849" lon="1.9843">
        <ele>51.2</ele>
        <time>2026-01-30T09:27:40Z</time>
      </trkpt>
      <trkpt lat="48.70847" lon="1.98439">
        <ele>51.2</ele>
        <time>2026-01-30T09:27:41Z</time>
      </trkpt>
      <trkpt lat="48.70845" lon="1.98448">
        <ele>51.2</ele>
        <time>2026-01-30T09:27:42Z</time>
      </trkpt>
      <trkpt lat="48.70843" lon="1.98457">
        <ele>51.2</ele>
        <time>2026-01-30T09:27:43Z</time>
      </trkpt>
      <trkpt lat="48.70841" lon="1.98466">
        <ele>51</ele>
        <time>2026-01-30T09:27:44Z</time>
      </trkpt>
      <trkpt lat="48.70839" lon="1.98476">
        <ele>51</ele>
        <time>2026-01-30T09:27:45Z</time>
      </trkpt>
      <trkpt lat="48.70837" lon="1.98485">
        <ele>51</ele>
        <time>2026-01-30T09:27:46Z</time>
      </trkpt>
      <trkpt lat="48.70835" lon="1.98495">
        <ele>51</ele>
        <time>2026-01-30T09:27:47Z</time>
      </trkpt>
      <trkpt lat="48.70833" lon="1.98504">
        <ele>51</ele>
        <time>2026-01-30T09:27:48Z</time>
      </trkpt>
      <trkpt lat="48.70831" lon="1.98513">
        <ele>51</ele>
        <time>2026-01-30T09:27:49Z</time>
      </trkpt>
      <trkpt lat="48.70829" lon="1.98522">
        <ele>51</ele>
        <time>2026-01-30T09:27:50Z</time>
      </trkpt>
      <trkpt lat="48.70827" lon="1.98531">
        <ele>51</ele>
        <time>2026-01-30T09:27:51Z</time>
      </trkpt>
      <trkpt lat="48.70825" lon="1.98539">
        <ele>50.8</ele>
        <time>2026-01-30T09:27:52Z</time>
      </trkpt>
      <trkpt lat="48.70822" lon="1.98548">
        <ele>50.8</ele>
        <time>2026-01-30T09:27:53Z</time>
      </trkpt>
      <trkpt lat="48.7082" lon="1.98557">
        <ele>50.8</ele>
        <time>2026-01-30T09:27:54Z</time>
      </trkpt>
      <trkpt lat="48.70817" lon="1.98566">
        <ele>51.2</ele>
        <time>2026-01-30T09:27:55Z</time>
      </trkpt>
      <trkpt lat="48.70815" lon="1.98574">
        <ele>51.2</ele>
        <time>2026-01-30T09:27:56Z</time>
      </trkpt>
      <trkpt lat="48.70811" lon="1.98582">
        <ele>51.2</ele>
        <time>2026-01-30T09:27:57Z</time>
      </trkpt>
      <trkpt lat="48.70808" lon="1.9859">
        <ele>51.2</ele>
        <time>2026-01-30T09:27:58Z</time>
      </trkpt>
      <trkpt lat="48.70805" lon="1.98598">
        <ele>51.6</ele>
        <time>2026-01-30T09:27:59Z</time>
      </trkpt>
      <trkpt lat="48.70801" lon="1.98607">
        <ele>51.8</ele>
        <time>2026-01-30T09:28:00Z</time>
      </trkpt>
      <trkpt lat="48.70798" lon="1.98615">
        <ele>51.8</ele>
        <time>2026-01-30T09:28:01Z</time>
      </trkpt>
      <trkpt lat="48.70794" lon="1.98623">
        <ele>51.8</ele>
        <time>2026-01-30T09:28:02Z</time>
      </trkpt>
      <trkpt lat="48.7079" lon="1.98631">
        <ele>51</ele>
        <time>2026-01-30T09:28:03Z</time>
      </trkpt>
      <trkpt lat="48.70786" lon="1.98639">
        <ele>50.2</ele>
        <time>2026-01-30T09:28:04Z</time>
      </trkpt>
      <trkpt lat="48.70782" lon="1.98647">
        <ele>50.2</ele>
        <time>2026-01-30T09:28:05Z</time>
      </trkpt>
      <trkpt lat="48.70778" lon="1.98655">
        <ele>50.2</ele>
        <time>2026-01-30T09:28:06Z</time>
      </trkpt>
      <trkpt lat="48.70774" lon="1.98664">
        <ele>49.2</ele>
        <time>2026-01-30T09:28:07Z</time>
      </trkpt>
      <trkpt lat="48.7077" lon="1.98673">
        <ele>47.8</ele>
        <time>2026-01-30T09:28:08Z</time>
      </trkpt>
      <trkpt lat="48.70765" lon="1.98682">
        <ele>47.8</ele>
        <time>2026-01-30T09:28:09Z</time>
      </trkpt>
      <trkpt lat="48.7076" lon="1.98691">
        <ele>47.8</ele>
        <time>2026-01-30T09:28:10Z</time>
      </trkpt>
      <trkpt lat="48.70755" lon="1.987">
        <ele>46.8</ele>
        <time>2026-01-30T09:28:11Z</time>
      </trkpt>
      <trkpt lat="48.70748" lon="1.98708">
        <ele>44.6</ele>
        <time>2026-01-30T09:28:12Z</time>
      </trkpt>
      <trkpt lat="48.70741" lon="1.98715">
        <ele>44.6</ele>
        <time>2026-01-30T09:28:13Z</time>
      </trkpt>
      <trkpt lat="48.70734" lon="1.98721">
        <ele>44.6</ele>
        <time>2026-01-30T09:28:14Z</time>
      </trkpt>
      <trkpt lat="48.70726" lon="1.98725">
        <ele>44.6</ele>
        <time>2026-01-30T09:28:15Z</time>
      </trkpt>
      <trkpt lat="48.70717" lon="1.98728">
        <ele>41.2</ele>
        <time>2026-01-30T09:28:16Z</time>
      </trkpt>
      <trkpt lat="48.70709" lon="1.98731">
        <ele>41.2</ele>
        <time>2026-01-30T09:28:17Z</time>
      </trkpt>
      <trkpt lat="48.707" lon="1.98735">
        <ele>41.2</ele>
        <time>2026-01-30T09:28:18Z</time>
      </trkpt>
      <trkpt lat="48.70691" lon="1.98737">
        <ele>41.2</ele>
        <time>2026-01-30T09:28:19Z</time>
      </trkpt>
      <trkpt lat="48.70684" lon="1.98738">
        <ele>40.4</ele>
        <time>2026-01-30T09:28:20Z</time>
      </trkpt>
      <trkpt lat="48.70676" lon="1.98739">
        <ele>40.4</ele>
        <time>2026-01-30T09:28:21Z</time>
      </trkpt>
      <trkpt lat="48.70669" lon="1.98742">
        <ele>40.4</ele>
        <time>2026-01-30T09:28:22Z</time>
      </trkpt>
      <trkpt lat="48.70662" lon="1.98744">
        <ele>39.8</ele>
        <time>2026-01-30T09:28:23Z</time>
      </trkpt>
      <trkpt lat="48.70656" lon="1.98747">
        <ele>40.6</ele>
        <time>2026-01-30T09:28:24Z</time>
      </trkpt>
      <trkpt lat="48.70651" lon="1.98751">
        <ele>40.6</ele>
        <time>2026-01-30T09:28:25Z</time>
      </trkpt>
      <trkpt lat="48.70648" lon="1.98755">
        <ele>40.6</ele>
        <time>2026-01-30T09:28:26Z</time>
      </trkpt>
      <trkpt lat="48.70645" lon="1.98761">
        <ele>41.6</ele>
        <time>2026-01-30T09:28:27Z</time>
      </trkpt>
      <trkpt lat="48.70645" lon="1.98763">
        <ele>41.6</ele>
        <time>2026-01-30T09:28:28Z</time>
      </trkpt>
      <trkpt lat="48.70644" lon="1.98766">
        <ele>41.6</ele>
        <time>2026-01-30T09:28:29Z</time>
      </trkpt>
      <trkpt lat="48.70644" lon="1.98768">
        <ele>41.6</ele>
        <time>2026-01-30T09:28:30Z</time>
      </trkpt>
      <trkpt lat="48.70644" lon="1.9877">
        <ele>41.2</ele>
        <time>2026-01-30T09:28:36Z</time>
      </trkpt>
      <trkpt lat="48.70643" lon="1.98773">
        <ele>41.2</ele>
        <time>2026-01-30T09:28:37Z</time>
      </trkpt>
      <trkpt lat="48.70645" lon="1.98778">
        <ele>41.2</ele>
        <time>2026-01-30T09:28:38Z</time>
      </trkpt>
      <trkpt lat="48.70648" lon="1.98783">
        <ele>41</ele>
        <time>2026-01-30T09:28:39Z</time>
      </trkpt>
      <trkpt lat="48.70651" lon="1.98788">
        <ele>41</ele>
        <time>2026-01-30T09:28:40Z</time>
      </trkpt>
      <trkpt lat="48.70653" lon="1.98794">
        <ele>41</ele>
        <time>2026-01-30T09:28:41Z</time>
      </trkpt>
      <trkpt lat="48.70656" lon="1.98801">
        <ele>41</ele>
        <time>2026-01-30T09:28:42Z</time>
      </trkpt>
      <trkpt lat="48.70658" lon="1.98808">
        <ele>40.2</ele>
        <time>2026-01-30T09:28:43Z</time>
      </trkpt>
      <trkpt lat="48.7066" lon="1.98815">
        <ele>40</ele>
        <time>2026-01-30T09:28:44Z</time>
      </trkpt>
      <trkpt lat="48.70663" lon="1.98823">
        <ele>40</ele>
        <time>2026-01-30T09:28:45Z</time>
      </trkpt>
      <trkpt lat="48.70665" lon="1.98831">
        <ele>40</ele>
        <time>2026-01-30T09:28:46Z</time>
      </trkpt>
      <trkpt lat="48.70668" lon="1.98839">
        <ele>39</ele>
        <time>2026-01-30T09:28:47Z</time>
      </trkpt>
      <trkpt lat="48.7067" lon="1.98848">
        <ele>38.8</ele>
        <time>2026-01-30T09:28:48Z</time>
      </trkpt>
      <trkpt lat="48.70673" lon="1.98857">
        <ele>38.8</ele>
        <time>2026-01-30T09:28:49Z</time>
      </trkpt>
      <trkpt lat="48.70676" lon="1.98867">
        <ele>38.8</ele>
        <time>2026-01-30T09:28:50Z</time>
      </trkpt>
      <trkpt lat="48.70679" lon="1.98876">
        <ele>37.8</ele>
        <time>2026-01-30T09:28:51Z</time>
      </trkpt>
      <trkpt lat="48.70682" lon="1.98886">
        <ele>36.4</ele>
        <time>2026-01-30T09:28:52Z</time>
      </trkpt>
      <trkpt lat="48.70685" lon="1.98895">
        <ele>36.4</ele>
        <time>2026-01-30T09:28:53Z</time>
      </trkpt>
      <trkpt lat="48.7069" lon="1.98903">
        <ele>36.4</ele>
        <time>2026-01-30T09:28:54Z</time>
      </trkpt>
      <trkpt lat="48.70696" lon="1.98908">
        <ele>36.4</ele>
        <time>2026-01-30T09:28:55Z</time>
      </trkpt>
      <trkpt lat="48.70702" lon="1.98912">
        <ele>36.4</ele>
        <time>2026-01-30T09:28:56Z</time>
      </trkpt>
      <trkpt lat="48.70709" lon="1.98914">
        <ele>36.4</ele>
        <time>2026-01-30T09:28:57Z</time>
      </trkpt>
      <trkpt lat="48.70715" lon="1.98915">
        <ele>36.4</ele>
        <time>2026-01-30T09:28:58Z</time>
      </trkpt>
      <trkpt lat="48.70722" lon="1.98916">
        <ele>36.4</ele>
        <time>2026-01-30T09:28:59Z</time>
      </trkpt>
      <trkpt lat="48.70728" lon="1.98917">
        <ele>37.2</ele>
        <time>2026-01-30T09:29:00Z</time>
      </trkpt>
      <trkpt lat="48.70734" lon="1.98918">
        <ele>37.2</ele>
        <time>2026-01-30T09:29:01Z</time>
      </trkpt>
      <trkpt lat="48.70741" lon="1.9892">
        <ele>37.2</ele>
        <time>2026-01-30T09:29:02Z</time>
      </trkpt>
      <trkpt lat="48.70747" lon="1.98921">
        <ele>37.2</ele>
        <time>2026-01-30T09:29:03Z</time>
      </trkpt>
      <trkpt lat="48.70754" lon="1.98922">
        <ele>37.2</ele>
        <time>2026-01-30T09:29:04Z</time>
      </trkpt>
      <trkpt lat="48.7076" lon="1.98924">
        <ele>37.2</ele>
        <time>2026-01-30T09:29:05Z</time>
      </trkpt>
      <trkpt lat="48.70767" lon="1.98925">
        <ele>37.2</ele>
        <time>2026-01-30T09:29:06Z</time>
      </trkpt>
      <trkpt lat="48.70773" lon="1.98927">
        <ele>36.4</ele>
        <time>2026-01-30T09:29:07Z</time>
      </trkpt>
      <trkpt lat="48.7078" lon="1.98929">
        <ele>36</ele>
        <time>2026-01-30T09:29:08Z</time>
      </trkpt>
      <trkpt lat="48.70787" lon="1.98931">
        <ele>36</ele>
        <time>2026-01-30T09:29:09Z</time>
      </trkpt>
      <trkpt lat="48.70794" lon="1.98932">
        <ele>36</ele>
        <time>2026-01-30T09:29:10Z</time>
      </trkpt>
      <trkpt lat="48.70802" lon="1.98934">
        <ele>35.4</ele>
        <time>2026-01-30T09:29:11Z</time>
      </trkpt>
      <trkpt lat="48.70809" lon="1.98936">
        <ele>34.8</ele>
        <time>2026-01-30T09:29:12Z</time>
      </trkpt>
      <trkpt lat="48.70816" lon="1.98939">
        <ele>34.8</ele>
        <time>2026-01-30T09:29:13Z</time>
      </trkpt>
      <trkpt lat="48.70824" lon="1.98941">
        <ele>34.8</ele>
        <time>2026-01-30T09:29:14Z</time>
      </trkpt>
      <trkpt lat="48.70831" lon="1.98943">
        <ele>34</ele>
        <time>2026-01-30T09:29:15Z</time>
      </trkpt>
      <trkpt lat="48.70838" lon="1.98946">
        <ele>33.6</ele>
        <time>2026-01-30T09:29:16Z</time>
      </trkpt>
      <trkpt lat="48.70845" lon="1.98947">
        <ele>33.6</ele>
        <time>2026-01-30T09:29:17Z</time>
      </trkpt>
      <trkpt lat="48.70852" lon="1.98949">
        <ele>33.6</ele>
        <time>2026-01-30T09:29:18Z</time>
      </trkpt>
      <trkpt lat="48.70861" lon="1.98951">
        <ele>33.6</ele>
        <time>2026-01-30T09:29:19Z</time>
      </trkpt>
      <trkpt lat="48.70869" lon="1.98953">
        <ele>32.4</ele>
        <time>2026-01-30T09:29:20Z</time>
      </trkpt>
      <trkpt lat="48.70878" lon="1.98954">
        <ele>32.4</ele>
        <time>2026-01-30T09:29:21Z</time>
      </trkpt>
      <trkpt lat="48.70886" lon="1.98956">
        <ele>32.4</ele>
        <time>2026-01-30T09:29:22Z</time>
      </trkpt>
      <trkpt lat="48.70895" lon="1.98958">
        <ele>31.4</ele>
        <time>2026-01-30T09:29:23Z</time>
      </trkpt>
      <trkpt lat="48.70903" lon="1.9896">
        <ele>30.8</ele>
        <time>2026-01-30T09:29:24Z</time>
      </trkpt>
      <trkpt lat="48.70912" lon="1.98962">
        <ele>30.8</ele>
        <time>2026-01-30T09:29:25Z</time>
      </trkpt>
      <trkpt lat="48.7092" lon="1.98964">
        <ele>30.8</ele>
        <time>2026-01-30T09:29:26Z</time>
      </trkpt>
      <trkpt lat="48.70928" lon="1.98965">
        <ele>31.4</ele>
        <time>2026-01-30T09:29:27Z</time>
      </trkpt>
      <trkpt lat="48.70936" lon="1.98968">
        <ele>31.4</ele>
        <time>2026-01-30T09:29:28Z</time>
      </trkpt>
      <trkpt lat="48.70945" lon="1.9897">
        <ele>31.4</ele>
        <time>2026-01-30T09:29:29Z</time>
      </trkpt>
      <trkpt lat="48.70953" lon="1.98972">
        <ele>31.4</ele>
        <time>2026-01-30T09:29:30Z</time>
      </trkpt>
      <trkpt lat="48.70961" lon="1.98975">
        <ele>31.4</ele>
        <time>2026-01-30T09:29:31Z</time>
      </trkpt>
      <trkpt lat="48.70969" lon="1.98976">
        <ele>31.6</ele>
        <time>2026-01-30T09:29:32Z</time>
      </trkpt>
      <trkpt lat="48.70977" lon="1.98977">
        <ele>31.6</ele>
        <time>2026-01-30T09:29:33Z</time>
      </trkpt>
      <trkpt lat="48.70984" lon="1.98979">
        <ele>31.6</ele>
        <time>2026-01-30T09:29:34Z</time>
      </trkpt>
      <trkpt lat="48.70991" lon="1.98981">
        <ele>32.4</ele>
        <time>2026-01-30T09:29:35Z</time>
      </trkpt>
      <trkpt lat="48.70998" lon="1.98983">
        <ele>32.6</ele>
        <time>2026-01-30T09:29:36Z</time>
      </trkpt>
      <trkpt lat="48.71005" lon="1.98985">
        <ele>32.6</ele>
        <time>2026-01-30T09:29:37Z</time>
      </trkpt>
      <trkpt lat="48.71012" lon="1.98986">
        <ele>32.6</ele>
        <time>2026-01-30T09:29:38Z</time>
      </trkpt>
      <trkpt lat="48.71017" lon="1.98988">
        <ele>33.6</ele>
        <time>2026-01-30T09:29:39Z</time>
      </trkpt>
      <trkpt lat="48.71024" lon="1.9899">
        <ele>34</ele>
        <time>2026-01-30T09:29:40Z</time>
      </trkpt>
      <trkpt lat="48.71029" lon="1.98992">
        <ele>34</ele>
        <time>2026-01-30T09:29:41Z</time>
      </trkpt>
      <trkpt lat="48.71035" lon="1.98994">
        <ele>34</ele>
        <time>2026-01-30T09:29:42Z</time>
      </trkpt>
      <trkpt lat="48.71039" lon="1.98997">
        <ele>35</ele>
        <time>2026-01-30T09:29:43Z</time>
      </trkpt>
      <trkpt lat="48.71044" lon="1.98999">
        <ele>35.4</ele>
        <time>2026-01-30T09:29:44Z</time>
      </trkpt>
      <trkpt lat="48.71049" lon="1.99001">
        <ele>35.4</ele>
        <time>2026-01-30T09:29:45Z</time>
      </trkpt>
      <trkpt lat="48.71053" lon="1.99003">
        <ele>35.4</ele>
        <time>2026-01-30T09:29:46Z</time>
      </trkpt>
      <trkpt lat="48.71058" lon="1.99005">
        <ele>36.4</ele>
        <time>2026-01-30T09:29:47Z</time>
      </trkpt>
      <trkpt lat="48.71062" lon="1.99006">
        <ele>37.2</ele>
        <time>2026-01-30T09:29:48Z</time>
      </trkpt>
      <trkpt lat="48.71066" lon="1.99008">
        <ele>37.2</ele>
        <time>2026-01-30T09:29:49Z</time>
      </trkpt>
      <trkpt lat="48.7107" lon="1.99009">
        <ele>37.2</ele>
        <time>2026-01-30T09:29:50Z</time>
      </trkpt>
      <trkpt lat="48.71073" lon="1.9901">
        <ele>38</ele>
        <time>2026-01-30T09:29:51Z</time>
      </trkpt>
      <trkpt lat="48.71076" lon="1.99012">
        <ele>38.4</ele>
        <time>2026-01-30T09:29:52Z</time>
      </trkpt>
      <trkpt lat="48.71079" lon="1.99014">
        <ele>38.4</ele>
        <time>2026-01-30T09:29:53Z</time>
      </trkpt>
      <trkpt lat="48.71082" lon="1.99016">
        <ele>38.4</ele>
        <time>2026-01-30T09:29:54Z</time>
      </trkpt>
      <trkpt lat="48.71085" lon="1.99018">
        <ele>39.2</ele>
        <time>2026-01-30T09:29:55Z</time>
      </trkpt>
      <trkpt lat="48.71089" lon="1.99019">
        <ele>39.2</ele>
        <time>2026-01-30T09:29:56Z</time>
      </trkpt>
      <trkpt lat="48.71092" lon="1.99021">
        <ele>39.2</ele>
        <time>2026-01-30T09:29:57Z</time>
      </trkpt>
      <trkpt lat="48.71095" lon="1.99023">
        <ele>39.2</ele>
        <time>2026-01-30T09:29:58Z</time>
      </trkpt>
      <trkpt lat="48.71098" lon="1.99025">
        <ele>39.6</ele>
        <time>2026-01-30T09:29:59Z</time>
      </trkpt>
      <trkpt lat="48.71101" lon="1.99027">
        <ele>40.2</ele>
        <time>2026-01-30T09:30:00Z</time>
      </trkpt>
      <trkpt lat="48.71105" lon="1.99029">
        <ele>40.2</ele>
        <time>2026-01-30T09:30:01Z</time>
      </trkpt>
      <trkpt lat="48.71108" lon="1.99031">
        <ele>40.2</ele>
        <time>2026-01-30T09:30:02Z</time>
      </trkpt>
      <trkpt lat="48.71111" lon="1.99033">
        <ele>40.6</ele>
        <time>2026-01-30T09:30:03Z</time>
      </trkpt>
      <trkpt lat="48.71113" lon="1.99036">
        <ele>40.8</ele>
        <time>2026-01-30T09:30:04Z</time>
      </trkpt>
      <trkpt lat="48.71116" lon="1.99039">
        <ele>40.8</ele>
        <time>2026-01-30T09:30:05Z</time>
      </trkpt>
      <trkpt lat="48.71118" lon="1.99042">
        <ele>40.8</ele>
        <time>2026-01-30T09:30:06Z</time>
      </trkpt>
      <trkpt lat="48.71121" lon="1.99045">
        <ele>41.4</ele>
        <time>2026-01-30T09:30:07Z</time>
      </trkpt>
      <trkpt lat="48.71123" lon="1.99048">
        <ele>41.6</ele>
        <time>2026-01-30T09:30:08Z</time>
      </trkpt>
      <trkpt lat="48.71125" lon="1.99052">
        <ele>41.6</ele>
        <time>2026-01-30T09:30:09Z</time>
      </trkpt>
      <trkpt lat="48.71127" lon="1.99055">
        <ele>41.6</ele>
        <time>2026-01-30T09:30:10Z</time>
      </trkpt>
      <trkpt lat="48.71128" lon="1.9906">
        <ele>42.2</ele>
        <time>2026-01-30T09:30:11Z</time>
      </trkpt>
      <trkpt lat="48.71129" lon="1.99064">
        <ele>42.2</ele>
        <time>2026-01-30T09:30:12Z</time>
      </trkpt>
      <trkpt lat="48.7113" lon="1.99068">
        <ele>42.2</ele>
        <time>2026-01-30T09:30:13Z</time>
      </trkpt>
      <trkpt lat="48.71131" lon="1.99071">
        <ele>42.2</ele>
        <time>2026-01-30T09:30:14Z</time>
      </trkpt>
      <trkpt lat="48.71132" lon="1.99075">
        <ele>42.4</ele>
        <time>2026-01-30T09:30:15Z</time>
      </trkpt>
      <trkpt lat="48.71132" lon="1.9908">
        <ele>43.2</ele>
        <time>2026-01-30T09:30:16Z</time>
      </trkpt>
      <trkpt lat="48.71131" lon="1.99084">
        <ele>43.2</ele>
        <time>2026-01-30T09:30:17Z</time>
      </trkpt>
      <trkpt lat="48.7113" lon="1.99088">
        <ele>43.2</ele>
        <time>2026-01-30T09:30:18Z</time>
      </trkpt>
      <trkpt lat="48.71129" lon="1.99091">
        <ele>43.4</ele>
        <time>2026-01-30T09:30:19Z</time>
      </trkpt>
      <trkpt lat="48.71127" lon="1.99095">
        <ele>43.4</ele>
        <time>2026-01-30T09:30:20Z</time>
      </trkpt>
      <trkpt lat="48.71126" lon="1.99098">
        <ele>43.4</ele>
        <time>2026-01-30T09:30:21Z</time>
      </trkpt>
      <trkpt lat="48.71124" lon="1.99102">
        <ele>43.4</ele>
        <time>2026-01-30T09:30:22Z</time>
      </trkpt>
      <trkpt lat="48.71122" lon="1.99104">
        <ele>44</ele>
        <time>2026-01-30T09:30:23Z</time>
      </trkpt>
      <trkpt lat="48.7112" lon="1.99108">
        <ele>44.6</ele>
        <time>2026-01-30T09:30:24Z</time>
      </trkpt>
      <trkpt lat="48.71119" lon="1.99111">
        <ele>44.6</ele>
        <time>2026-01-30T09:30:25Z</time>
      </trkpt>
      <trkpt lat="48.71117" lon="1.99114">
        <ele>44.6</ele>
        <time>2026-01-30T09:30:26Z</time>
      </trkpt>
      <trkpt lat="48.71116" lon="1.99117">
        <ele>44.6</ele>
        <time>2026-01-30T09:30:27Z</time>
      </trkpt>
      <trkpt lat="48.71115" lon="1.9912">
        <ele>45.2</ele>
        <time>2026-01-30T09:30:28Z</time>
      </trkpt>
      <trkpt lat="48.71114" lon="1.99123">
        <ele>45.2</ele>
        <time>2026-01-30T09:30:29Z</time>
      </trkpt>
      <trkpt lat="48.71114" lon="1.99127">
        <ele>45.2</ele>
        <time>2026-01-30T09:30:30Z</time>
      </trkpt>
      <trkpt lat="48.71113" lon="1.99132">
        <ele>45.2</ele>
        <time>2026-01-30T09:30:31Z</time>
      </trkpt>
      <trkpt lat="48.71113" lon="1.99137">
        <ele>45.8</ele>
        <time>2026-01-30T09:30:32Z</time>
      </trkpt>
      <trkpt lat="48.71112" lon="1.9914">
        <ele>45.8</ele>
        <time>2026-01-30T09:30:33Z</time>
      </trkpt>
      <trkpt lat="48.71113" lon="1.99146">
        <ele>45.8</ele>
        <time>2026-01-30T09:30:34Z</time>
      </trkpt>
      <trkpt lat="48.71113" lon="1.99152">
        <ele>46.6</ele>
        <time>2026-01-30T09:30:35Z</time>
      </trkpt>
      <trkpt lat="48.71114" lon="1.99157">
        <ele>46.6</ele>
        <time>2026-01-30T09:30:36Z</time>
      </trkpt>
      <trkpt lat="48.71115" lon="1.99161">
        <ele>46.6</ele>
        <time>2026-01-30T09:30:37Z</time>
      </trkpt>
      <trkpt lat="48.71117" lon="1.99165">
        <ele>46.6</ele>
        <time>2026-01-30T09:30:38Z</time>
      </trkpt>
      <trkpt lat="48.71118" lon="1.99169">
        <ele>47.2</ele>
        <time>2026-01-30T09:30:39Z</time>
      </trkpt>
      <trkpt lat="48.7112" lon="1.99174">
        <ele>47.6</ele>
        <time>2026-01-30T09:30:40Z</time>
      </trkpt>
      <trkpt lat="48.7112" lon="1.99178">
        <ele>47.6</ele>
        <time>2026-01-30T09:30:41Z</time>
      </trkpt>
      <trkpt lat="48.71121" lon="1.99182">
        <ele>47.6</ele>
        <time>2026-01-30T09:30:42Z</time>
      </trkpt>
      <trkpt lat="48.71121" lon="1.99186">
        <ele>48</ele>
        <time>2026-01-30T09:30:43Z</time>
      </trkpt>
      <trkpt lat="48.71122" lon="1.99191">
        <ele>48.2</ele>
        <time>2026-01-30T09:30:44Z</time>
      </trkpt>
      <trkpt lat="48.71122" lon="1.99196">
        <ele>48.2</ele>
        <time>2026-01-30T09:30:45Z</time>
      </trkpt>
      <trkpt lat="48.71122" lon="1.992">
        <ele>48.2</ele>
        <time>2026-01-30T09:30:46Z</time>
      </trkpt>
      <trkpt lat="48.7112" lon="1.99204">
        <ele>48.4</ele>
        <time>2026-01-30T09:30:47Z</time>
      </trkpt>
      <trkpt lat="48.7112" lon="1.99208">
        <ele>48.8</ele>
        <time>2026-01-30T09:30:48Z</time>
      </trkpt>
      <trkpt lat="48.71121" lon="1.99211">
        <ele>48.8</ele>
        <time>2026-01-30T09:30:49Z</time>
      </trkpt>
      <trkpt lat="48.7112" lon="1.99215">
        <ele>48.8</ele>
        <time>2026-01-30T09:30:50Z</time>
      </trkpt>
      <trkpt lat="48.71118" lon="1.99218">
        <ele>48.8</ele>
        <time>2026-01-30T09:30:51Z</time>
      </trkpt>
      <trkpt lat="48.71118" lon="1.99221">
        <ele>49.6</ele>
        <time>2026-01-30T09:30:52Z</time>
      </trkpt>
      <trkpt lat="48.71117" lon="1.99224">
        <ele>49.6</ele>
        <time>2026-01-30T09:30:53Z</time>
      </trkpt>
      <trkpt lat="48.71115" lon="1.99227">
        <ele>49.6</ele>
        <time>2026-01-30T09:30:54Z</time>
      </trkpt>
      <trkpt lat="48.71114" lon="1.99229">
        <ele>50.4</ele>
        <time>2026-01-30T09:30:55Z</time>
      </trkpt>
      <trkpt lat="48.71112" lon="1.99233">
        <ele>50.6</ele>
        <time>2026-01-30T09:30:56Z</time>
      </trkpt>
      <trkpt lat="48.7111" lon="1.99237">
        <ele>50.6</ele>
        <time>2026-01-30T09:30:57Z</time>
      </trkpt>
      <trkpt lat="48.71108" lon="1.9924">
        <ele>50.6</ele>
        <time>2026-01-30T09:30:58Z</time>
      </trkpt>
      <trkpt lat="48.71106" lon="1.99243">
        <ele>51.6</ele>
        <time>2026-01-30T09:30:59Z</time>
      </trkpt>
      <trkpt lat="48.71103" lon="1.99247">
        <ele>51.8</ele>
        <time>2026-01-30T09:31:00Z</time>
      </trkpt>
      <trkpt lat="48.71101" lon="1.99249">
        <ele>51.8</ele>
        <time>2026-01-30T09:31:01Z</time>
      </trkpt>
      <trkpt lat="48.71099" lon="1.99253">
        <ele>51.8</ele>
        <time>2026-01-30T09:31:02Z</time>
      </trkpt>
      <trkpt lat="48.71097" lon="1.99257">
        <ele>52.4</ele>
        <time>2026-01-30T09:31:03Z</time>
      </trkpt>
      <trkpt lat="48.71096" lon="1.99261">
        <ele>52.8</ele>
        <time>2026-01-30T09:31:04Z</time>
      </trkpt>
      <trkpt lat="48.71095" lon="1.99266">
        <ele>52.8</ele>
        <time>2026-01-30T09:31:05Z</time>
      </trkpt>
      <trkpt lat="48.71094" lon="1.9927">
        <ele>52.8</ele>
        <time>2026-01-30T09:31:06Z</time>
      </trkpt>
      <trkpt lat="48.71094" lon="1.99275">
        <ele>52.8</ele>
        <time>2026-01-30T09:31:07Z</time>
      </trkpt>
      <trkpt lat="48.71093" lon="1.99279">
        <ele>53</ele>
        <time>2026-01-30T09:31:08Z</time>
      </trkpt>
      <trkpt lat="48.71092" lon="1.99284">
        <ele>53</ele>
        <time>2026-01-30T09:31:09Z</time>
      </trkpt>
      <trkpt lat="48.71092" lon="1.99289">
        <ele>53</ele>
        <time>2026-01-30T09:31:10Z</time>
      </trkpt>
      <trkpt lat="48.71091" lon="1.99295">
        <ele>53.8</ele>
        <time>2026-01-30T09:31:11Z</time>
      </trkpt>
      <trkpt lat="48.71091" lon="1.993">
        <ele>54.4</ele>
        <time>2026-01-30T09:31:12Z</time>
      </trkpt>
      <trkpt lat="48.7109" lon="1.99305">
        <ele>54.4</ele>
        <time>2026-01-30T09:31:13Z</time>
      </trkpt>
      <trkpt lat="48.71089" lon="1.99309">
        <ele>54.4</ele>
        <time>2026-01-30T09:31:14Z</time>
      </trkpt>
      <trkpt lat="48.71089" lon="1.99315">
        <ele>54.4</ele>
        <time>2026-01-30T09:31:15Z</time>
      </trkpt>
      <trkpt lat="48.71088" lon="1.99321">
        <ele>55</ele>
        <time>2026-01-30T09:31:16Z</time>
      </trkpt>
      <trkpt lat="48.71087" lon="1.99325">
        <ele>55</ele>
        <time>2026-01-30T09:31:17Z</time>
      </trkpt>
      <trkpt lat="48.71086" lon="1.99331">
        <ele>55</ele>
        <time>2026-01-30T09:31:18Z</time>
      </trkpt>
      <trkpt lat="48.71084" lon="1.99335">
        <ele>55.8</ele>
        <time>2026-01-30T09:31:19Z</time>
      </trkpt>
      <trkpt lat="48.71083" lon="1.99339">
        <ele>55.4</ele>
        <time>2026-01-30T09:31:20Z</time>
      </trkpt>
      <trkpt lat="48.71082" lon="1.99342">
        <ele>55.4</ele>
        <time>2026-01-30T09:31:21Z</time>
      </trkpt>
      <trkpt lat="48.7108" lon="1.99345">
        <ele>55.4</ele>
        <time>2026-01-30T09:31:22Z</time>
      </trkpt>
      <trkpt lat="48.71078" lon="1.99348">
        <ele>56.4</ele>
        <time>2026-01-30T09:31:23Z</time>
      </trkpt>
      <trkpt lat="48.71077" lon="1.99351">
        <ele>56.8</ele>
        <time>2026-01-30T09:31:24Z</time>
      </trkpt>
      <trkpt lat="48.71074" lon="1.99355">
        <ele>56.8</ele>
        <time>2026-01-30T09:31:25Z</time>
      </trkpt>
      <trkpt lat="48.71072" lon="1.99358">
        <ele>56.8</ele>
        <time>2026-01-30T09:31:26Z</time>
      </trkpt>
      <trkpt lat="48.7107" lon="1.99361">
        <ele>57.2</ele>
        <time>2026-01-30T09:31:27Z</time>
      </trkpt>
      <trkpt lat="48.71067" lon="1.99363">
        <ele>57.2</ele>
        <time>2026-01-30T09:31:28Z</time>
      </trkpt>
      <trkpt lat="48.71065" lon="1.99366">
        <ele>57.2</ele>
        <time>2026-01-30T09:31:29Z</time>
      </trkpt>
      <trkpt lat="48.71062" lon="1.99367">
        <ele>57.2</ele>
        <time>2026-01-30T09:31:30Z</time>
      </trkpt>
      <trkpt lat="48.71059" lon="1.9937">
        <ele>58.2</ele>
        <time>2026-01-30T09:31:31Z</time>
      </trkpt>
      <trkpt lat="48.71057" lon="1.99373">
        <ele>58.6</ele>
        <time>2026-01-30T09:31:32Z</time>
      </trkpt>
      <trkpt lat="48.71056" lon="1.99375">
        <ele>58.6</ele>
        <time>2026-01-30T09:31:33Z</time>
      </trkpt>
      <trkpt lat="48.71054" lon="1.99378">
        <ele>58.6</ele>
        <time>2026-01-30T09:31:34Z</time>
      </trkpt>
      <trkpt lat="48.71053" lon="1.99381">
        <ele>58.6</ele>
        <time>2026-01-30T09:31:35Z</time>
      </trkpt>
      <trkpt lat="48.71051" lon="1.99385">
        <ele>59.4</ele>
        <time>2026-01-30T09:31:36Z</time>
      </trkpt>
      <trkpt lat="48.7105" lon="1.99388">
        <ele>59.4</ele>
        <time>2026-01-30T09:31:37Z</time>
      </trkpt>
      <trkpt lat="48.71049" lon="1.99393">
        <ele>59.4</ele>
        <time>2026-01-30T09:31:38Z</time>
      </trkpt>
      <trkpt lat="48.71047" lon="1.99398">
        <ele>59.4</ele>
        <time>2026-01-30T09:31:39Z</time>
      </trkpt>
      <trkpt lat="48.71047" lon="1.99401">
        <ele>59.8</ele>
        <time>2026-01-30T09:31:40Z</time>
      </trkpt>
      <trkpt lat="48.71046" lon="1.99405">
        <ele>59.8</ele>
        <time>2026-01-30T09:31:41Z</time>
      </trkpt>
      <trkpt lat="48.71045" lon="1.9941">
        <ele>59.8</ele>
        <time>2026-01-30T09:31:42Z</time>
      </trkpt>
      <trkpt lat="48.71044" lon="1.99413">
        <ele>60</ele>
        <time>2026-01-30T09:31:43Z</time>
      </trkpt>
      <trkpt lat="48.71043" lon="1.99418">
        <ele>60.4</ele>
        <time>2026-01-30T09:31:44Z</time>
      </trkpt>
      <trkpt lat="48.71042" lon="1.99423">
        <ele>60.4</ele>
        <time>2026-01-30T09:31:45Z</time>
      </trkpt>
      <trkpt lat="48.71042" lon="1.99427">
        <ele>60.4</ele>
        <time>2026-01-30T09:31:46Z</time>
      </trkpt>
      <trkpt lat="48.71041" lon="1.9943">
        <ele>60.4</ele>
        <time>2026-01-30T09:31:47Z</time>
      </trkpt>
      <trkpt lat="48.7104" lon="1.99435">
        <ele>61</ele>
        <time>2026-01-30T09:31:48Z</time>
      </trkpt>
      <trkpt lat="48.7104" lon="1.99439">
        <ele>61</ele>
        <time>2026-01-30T09:31:49Z</time>
      </trkpt>
      <trkpt lat="48.71039" lon="1.99444">
        <ele>61</ele>
        <time>2026-01-30T09:31:50Z</time>
      </trkpt>
      <trkpt lat="48.71039" lon="1.99447">
        <ele>61.4</ele>
        <time>2026-01-30T09:31:51Z</time>
      </trkpt>
      <trkpt lat="48.71039" lon="1.99451">
        <ele>62.2</ele>
        <time>2026-01-30T09:31:52Z</time>
      </trkpt>
      <trkpt lat="48.71038" lon="1.99453">
        <ele>62.2</ele>
        <time>2026-01-30T09:31:53Z</time>
      </trkpt>
      <trkpt lat="48.71038" lon="1.99456">
        <ele>62.2</ele>
        <time>2026-01-30T09:31:54Z</time>
      </trkpt>
      <trkpt lat="48.71037" lon="1.99458">
        <ele>62.8</ele>
        <time>2026-01-30T09:31:55Z</time>
      </trkpt>
      <trkpt lat="48.71036" lon="1.99462">
        <ele>62.6</ele>
        <time>2026-01-30T09:31:56Z</time>
      </trkpt>
      <trkpt lat="48.71035" lon="1.99464">
        <ele>62.6</ele>
        <time>2026-01-30T09:31:57Z</time>
      </trkpt>
      <trkpt lat="48.71033" lon="1.99466">
        <ele>62.6</ele>
        <time>2026-01-30T09:31:58Z</time>
      </trkpt>
      <trkpt lat="48.71032" lon="1.99468">
        <ele>63.2</ele>
        <time>2026-01-30T09:31:59Z</time>
      </trkpt>
      <trkpt lat="48.7103" lon="1.99471">
        <ele>63.6</ele>
        <time>2026-01-30T09:32:00Z</time>
      </trkpt>
      <trkpt lat="48.71029" lon="1.99473">
        <ele>63.6</ele>
        <time>2026-01-30T09:32:01Z</time>
      </trkpt>
      <trkpt lat="48.71027" lon="1.99476">
        <ele>63.6</ele>
        <time>2026-01-30T09:32:02Z</time>
      </trkpt>
      <trkpt lat="48.71026" lon="1.99478">
        <ele>63.6</ele>
        <time>2026-01-30T09:32:03Z</time>
      </trkpt>
      <trkpt lat="48.71024" lon="1.99482">
        <ele>64.2</ele>
        <time>2026-01-30T09:32:04Z</time>
      </trkpt>
      <trkpt lat="48.71022" lon="1.99485">
        <ele>64.2</ele>
        <time>2026-01-30T09:32:05Z</time>
      </trkpt>
      <trkpt lat="48.7102" lon="1.99487">
        <ele>64.2</ele>
        <time>2026-01-30T09:32:06Z</time>
      </trkpt>
      <trkpt lat="48.71018" lon="1.99489">
        <ele>64.2</ele>
        <time>2026-01-30T09:32:07Z</time>
      </trkpt>
      <trkpt lat="48.71016" lon="1.99493">
        <ele>64.8</ele>
        <time>2026-01-30T09:32:08Z</time>
      </trkpt>
      <trkpt lat="48.71014" lon="1.99496">
        <ele>64.8</ele>
        <time>2026-01-30T09:32:09Z</time>
      </trkpt>
      <trkpt lat="48.71011" lon="1.99499">
        <ele>64.8</ele>
        <time>2026-01-30T09:32:10Z</time>
      </trkpt>
      <trkpt lat="48.71009" lon="1.99502">
        <ele>65.8</ele>
        <time>2026-01-30T09:32:11Z</time>
      </trkpt>
      <trkpt lat="48.71007" lon="1.99506">
        <ele>66.2</ele>
        <time>2026-01-30T09:32:12Z</time>
      </trkpt>
      <trkpt lat="48.71004" lon="1.9951">
        <ele>66.2</ele>
        <time>2026-01-30T09:32:13Z</time>
      </trkpt>
      <trkpt lat="48.71003" lon="1.99512">
        <ele>66.2</ele>
        <time>2026-01-30T09:32:14Z</time>
      </trkpt>
      <trkpt lat="48.71001" lon="1.99515">
        <ele>66.4</ele>
        <time>2026-01-30T09:32:15Z</time>
      </trkpt>
      <trkpt lat="48.71" lon="1.99518">
        <ele>66.8</ele>
        <time>2026-01-30T09:32:16Z</time>
      </trkpt>
      <trkpt lat="48.70999" lon="1.99521">
        <ele>66.8</ele>
        <time>2026-01-30T09:32:17Z</time>
      </trkpt>
      <trkpt lat="48.70998" lon="1.99524">
        <ele>66.8</ele>
        <time>2026-01-30T09:32:18Z</time>
      </trkpt>
      <trkpt lat="48.70996" lon="1.99528">
        <ele>67.2</ele>
        <time>2026-01-30T09:32:19Z</time>
      </trkpt>
      <trkpt lat="48.70995" lon="1.99532">
        <ele>67</ele>
        <time>2026-01-30T09:32:20Z</time>
      </trkpt>
      <trkpt lat="48.70993" lon="1.99536">
        <ele>67</ele>
        <time>2026-01-30T09:32:21Z</time>
      </trkpt>
      <trkpt lat="48.70992" lon="1.9954">
        <ele>67</ele>
        <time>2026-01-30T09:32:22Z</time>
      </trkpt>
      <trkpt lat="48.70991" lon="1.99546">
        <ele>67.8</ele>
        <time>2026-01-30T09:32:23Z</time>
      </trkpt>
      <trkpt lat="48.7099" lon="1.99551">
        <ele>67.8</ele>
        <time>2026-01-30T09:32:24Z</time>
      </trkpt>
      <trkpt lat="48.7099" lon="1.99556">
        <ele>67.8</ele>
        <time>2026-01-30T09:32:25Z</time>
      </trkpt>
      <trkpt lat="48.7099" lon="1.99561">
        <ele>67.8</ele>
        <time>2026-01-30T09:32:26Z</time>
      </trkpt>
      <trkpt lat="48.70989" lon="1.99565">
        <ele>68.4</ele>
        <time>2026-01-30T09:32:27Z</time>
      </trkpt>
      <trkpt lat="48.70989" lon="1.99569">
        <ele>68.6</ele>
        <time>2026-01-30T09:32:28Z</time>
      </trkpt>
      <trkpt lat="48.7099" lon="1.99573">
        <ele>68.6</ele>
        <time>2026-01-30T09:32:29Z</time>
      </trkpt>
      <trkpt lat="48.7099" lon="1.99577">
        <ele>68.6</ele>
        <time>2026-01-30T09:32:30Z</time>
      </trkpt>
      <trkpt lat="48.7099" lon="1.9958">
        <ele>68.6</ele>
        <time>2026-01-30T09:32:31Z</time>
      </trkpt>
      <trkpt lat="48.70991" lon="1.99585">
        <ele>69.4</ele>
        <time>2026-01-30T09:32:32Z</time>
      </trkpt>
      <trkpt lat="48.70991" lon="1.99588">
        <ele>69.4</ele>
        <time>2026-01-30T09:32:33Z</time>
      </trkpt>
      <trkpt lat="48.70991" lon="1.99592">
        <ele>69.4</ele>
        <time>2026-01-30T09:32:34Z</time>
      </trkpt>
      <trkpt lat="48.7099" lon="1.99595">
        <ele>69.4</ele>
        <time>2026-01-30T09:32:35Z</time>
      </trkpt>
      <trkpt lat="48.7099" lon="1.996">
        <ele>70</ele>
        <time>2026-01-30T09:32:36Z</time>
      </trkpt>
      <trkpt lat="48.7099" lon="1.99604">
        <ele>70</ele>
        <time>2026-01-30T09:32:37Z</time>
      </trkpt>
      <trkpt lat="48.70989" lon="1.99607">
        <ele>70</ele>
        <time>2026-01-30T09:32:38Z</time>
      </trkpt>
      <trkpt lat="48.70988" lon="1.9961">
        <ele>70.6</ele>
        <time>2026-01-30T09:32:39Z</time>
      </trkpt>
      <trkpt lat="48.70987" lon="1.99612">
        <ele>70.6</ele>
        <time>2026-01-30T09:32:40Z</time>
      </trkpt>
      <trkpt lat="48.70986" lon="1.99615">
        <ele>70.6</ele>
        <time>2026-01-30T09:32:41Z</time>
      </trkpt>
      <trkpt lat="48.70984" lon="1.99617">
        <ele>70.6</ele>
        <time>2026-01-30T09:32:42Z</time>
      </trkpt>
      <trkpt lat="48.70982" lon="1.99621">
        <ele>71.2</ele>
        <time>2026-01-30T09:32:43Z</time>
      </trkpt>
      <trkpt lat="48.70981" lon="1.99623">
        <ele>71.4</ele>
        <time>2026-01-30T09:32:44Z</time>
      </trkpt>
      <trkpt lat="48.70979" lon="1.99625">
        <ele>71.4</ele>
        <time>2026-01-30T09:32:45Z</time>
      </trkpt>
      <trkpt lat="48.70977" lon="1.99628">
        <ele>71.4</ele>
        <time>2026-01-30T09:32:46Z</time>
      </trkpt>
      <trkpt lat="48.70975" lon="1.9963">
        <ele>71.8</ele>
        <time>2026-01-30T09:32:47Z</time>
      </trkpt>
      <trkpt lat="48.70973" lon="1.99632">
        <ele>72</ele>
        <time>2026-01-30T09:32:48Z</time>
      </trkpt>
      <trkpt lat="48.7097" lon="1.99633">
        <ele>72</ele>
        <time>2026-01-30T09:32:49Z</time>
      </trkpt>
      <trkpt lat="48.70968" lon="1.99633">
        <ele>72</ele>
        <time>2026-01-30T09:32:50Z</time>
      </trkpt>
      <trkpt lat="48.70966" lon="1.99635">
        <ele>72.4</ele>
        <time>2026-01-30T09:32:51Z</time>
      </trkpt>
      <trkpt lat="48.70964" lon="1.99636">
        <ele>73</ele>
        <time>2026-01-30T09:32:52Z</time>
      </trkpt>
      <trkpt lat="48.70962" lon="1.99637">
        <ele>73</ele>
        <time>2026-01-30T09:32:53Z</time>
      </trkpt>
      <trkpt lat="48.70959" lon="1.99638">
        <ele>73</ele>
        <time>2026-01-30T09:32:54Z</time>
      </trkpt>
      <trkpt lat="48.70957" lon="1.99639">
        <ele>73</ele>
        <time>2026-01-30T09:32:55Z</time>
      </trkpt>
      <trkpt lat="48.70954" lon="1.99641">
        <ele>73.2</ele>
        <time>2026-01-30T09:32:56Z</time>
      </trkpt>
      <trkpt lat="48.70952" lon="1.99643">
        <ele>73.2</ele>
        <time>2026-01-30T09:32:57Z</time>
      </trkpt>
      <trkpt lat="48.70949" lon="1.99644">
        <ele>73.2</ele>
        <time>2026-01-30T09:32:58Z</time>
      </trkpt>
      <trkpt lat="48.70946" lon="1.99646">
        <ele>74</ele>
        <time>2026-01-30T09:32:59Z</time>
      </trkpt>
      <trkpt lat="48.70943" lon="1.99648">
        <ele>74.2</ele>
        <time>2026-01-30T09:33:00Z</time>
      </trkpt>
      <trkpt lat="48.70941" lon="1.9965">
        <ele>74.2</ele>
        <time>2026-01-30T09:33:01Z</time>
      </trkpt>
      <trkpt lat="48.70938" lon="1.99652">
        <ele>74.2</ele>
        <time>2026-01-30T09:33:02Z</time>
      </trkpt>
      <trkpt lat="48.70936" lon="1.99654">
        <ele>75.2</ele>
        <time>2026-01-30T09:33:03Z</time>
      </trkpt>
      <trkpt lat="48.70933" lon="1.99657">
        <ele>75.4</ele>
        <time>2026-01-30T09:33:04Z</time>
      </trkpt>
      <trkpt lat="48.70931" lon="1.9966">
        <ele>75.4</ele>
        <time>2026-01-30T09:33:05Z</time>
      </trkpt>
      <trkpt lat="48.70929" lon="1.99663">
        <ele>75.4</ele>
        <time>2026-01-30T09:33:06Z</time>
      </trkpt>
      <trkpt lat="48.70927" lon="1.99666">
        <ele>75.4</ele>
        <time>2026-01-30T09:33:07Z</time>
      </trkpt>
      <trkpt lat="48.70924" lon="1.99668">
        <ele>76.2</ele>
        <time>2026-01-30T09:33:08Z</time>
      </trkpt>
      <trkpt lat="48.70922" lon="1.99671">
        <ele>76.2</ele>
        <time>2026-01-30T09:33:09Z</time>
      </trkpt>
      <trkpt lat="48.70921" lon="1.99674">
        <ele>76.2</ele>
        <time>2026-01-30T09:33:10Z</time>
      </trkpt>
      <trkpt lat="48.70919" lon="1.99677">
        <ele>76.8</ele>
        <time>2026-01-30T09:33:11Z</time>
      </trkpt>
      <trkpt lat="48.70918" lon="1.99681">
        <ele>77.2</ele>
        <time>2026-01-30T09:33:12Z</time>
      </trkpt>
      <trkpt lat="48.70917" lon="1.99684">
        <ele>77.2</ele>
        <time>2026-01-30T09:33:13Z</time>
      </trkpt>
      <trkpt lat="48.70917" lon="1.99687">
        <ele>77.2</ele>
        <time>2026-01-30T09:33:14Z</time>
      </trkpt>
      <trkpt lat="48.70916" lon="1.9969">
        <ele>77.4</ele>
        <time>2026-01-30T09:33:15Z</time>
      </trkpt>
      <trkpt lat="48.70915" lon="1.99697">
        <ele>77.6</ele>
        <time>2026-01-30T09:33:16Z</time>
      </trkpt>
      <trkpt lat="48.70914" lon="1.99702">
        <ele>77.6</ele>
        <time>2026-01-30T09:33:17Z</time>
      </trkpt>
      <trkpt lat="48.70914" lon="1.99706">
        <ele>77.6</ele>
        <time>2026-01-30T09:33:18Z</time>
      </trkpt>
      <trkpt lat="48.70913" lon="1.9971">
        <ele>78.2</ele>
        <time>2026-01-30T09:33:19Z</time>
      </trkpt>
      <trkpt lat="48.70913" lon="1.99714">
        <ele>77.8</ele>
        <time>2026-01-30T09:33:20Z</time>
      </trkpt>
      <trkpt lat="48.70913" lon="1.99717">
        <ele>77.8</ele>
        <time>2026-01-30T09:33:21Z</time>
      </trkpt>
      <trkpt lat="48.70912" lon="1.99721">
        <ele>77.8</ele>
        <time>2026-01-30T09:33:22Z</time>
      </trkpt>
      <trkpt lat="48.70912" lon="1.99725">
        <ele>78.6</ele>
        <time>2026-01-30T09:33:23Z</time>
      </trkpt>
      <trkpt lat="48.70912" lon="1.99728">
        <ele>79</ele>
        <time>2026-01-30T09:33:24Z</time>
      </trkpt>
      <trkpt lat="48.70912" lon="1.99732">
        <ele>79</ele>
        <time>2026-01-30T09:33:25Z</time>
      </trkpt>
      <trkpt lat="48.70911" lon="1.99735">
        <ele>79</ele>
        <time>2026-01-30T09:33:26Z</time>
      </trkpt>
      <trkpt lat="48.7091" lon="1.99739">
        <ele>79</ele>
        <time>2026-01-30T09:33:27Z</time>
      </trkpt>
      <trkpt lat="48.7091" lon="1.99742">
        <ele>79.8</ele>
        <time>2026-01-30T09:33:28Z</time>
      </trkpt>
      <trkpt lat="48.70909" lon="1.99746">
        <ele>79.8</ele>
        <time>2026-01-30T09:33:29Z</time>
      </trkpt>
      <trkpt lat="48.70908" lon="1.9975">
        <ele>79.8</ele>
        <time>2026-01-30T09:33:30Z</time>
      </trkpt>
      <trkpt lat="48.70907" lon="1.99753">
        <ele>80.2</ele>
        <time>2026-01-30T09:33:31Z</time>
      </trkpt>
      <trkpt lat="48.70906" lon="1.99757">
        <ele>80.4</ele>
        <time>2026-01-30T09:33:32Z</time>
      </trkpt>
      <trkpt lat="48.70905" lon="1.9976">
        <ele>80.4</ele>
        <time>2026-01-30T09:33:33Z</time>
      </trkpt>
      <trkpt lat="48.70904" lon="1.99764">
        <ele>80.4</ele>
        <time>2026-01-30T09:33:34Z</time>
      </trkpt>
      <trkpt lat="48.70904" lon="1.99768">
        <ele>80.6</ele>
        <time>2026-01-30T09:33:35Z</time>
      </trkpt>
      <trkpt lat="48.70903" lon="1.99773">
        <ele>81.4</ele>
        <time>2026-01-30T09:33:36Z</time>
      </trkpt>
      <trkpt lat="48.70903" lon="1.99776">
        <ele>81.4</ele>
        <time>2026-01-30T09:33:37Z</time>
      </trkpt>
      <trkpt lat="48.70901" lon="1.99781">
        <ele>81.4</ele>
        <time>2026-01-30T09:33:38Z</time>
      </trkpt>
      <trkpt lat="48.709" lon="1.99785">
        <ele>81.4</ele>
        <time>2026-01-30T09:33:39Z</time>
      </trkpt>
      <trkpt lat="48.70899" lon="1.99789">
        <ele>81.8</ele>
        <time>2026-01-30T09:33:40Z</time>
      </trkpt>
      <trkpt lat="48.70898" lon="1.99793">
        <ele>81.8</ele>
        <time>2026-01-30T09:33:41Z</time>
      </trkpt>
      <trkpt lat="48.70898" lon="1.99797">
        <ele>81.8</ele>
        <time>2026-01-30T09:33:42Z</time>
      </trkpt>
      <trkpt lat="48.70897" lon="1.998">
        <ele>82.6</ele>
        <time>2026-01-30T09:33:43Z</time>
      </trkpt>
      <trkpt lat="48.70896" lon="1.99804">
        <ele>82.6</ele>
        <time>2026-01-30T09:33:44Z</time>
      </trkpt>
      <trkpt lat="48.70894" lon="1.99807">
        <ele>82.6</ele>
        <time>2026-01-30T09:33:45Z</time>
      </trkpt>
      <trkpt lat="48.70893" lon="1.99811">
        <ele>82.6</ele>
        <time>2026-01-30T09:33:46Z</time>
      </trkpt>
      <trkpt lat="48.70892" lon="1.99815">
        <ele>83.2</ele>
        <time>2026-01-30T09:33:47Z</time>
      </trkpt>
      <trkpt lat="48.70891" lon="1.99819">
        <ele>83.8</ele>
        <time>2026-01-30T09:33:48Z</time>
      </trkpt>
      <trkpt lat="48.70889" lon="1.99823">
        <ele>83.8</ele>
        <time>2026-01-30T09:33:49Z</time>
      </trkpt>
      <trkpt lat="48.70889" lon="1.99826">
        <ele>83.8</ele>
        <time>2026-01-30T09:33:50Z</time>
      </trkpt>
      <trkpt lat="48.70888" lon="1.99828">
        <ele>83.8</ele>
        <time>2026-01-30T09:33:51Z</time>
      </trkpt>
      <trkpt lat="48.70886" lon="1.99832">
        <ele>84.6</ele>
        <time>2026-01-30T09:33:52Z</time>
      </trkpt>
      <trkpt lat="48.70883" lon="1.99835">
        <ele>84.6</ele>
        <time>2026-01-30T09:33:53Z</time>
      </trkpt>
      <trkpt lat="48.70881" lon="1.99838">
        <ele>84.6</ele>
        <time>2026-01-30T09:33:54Z</time>
      </trkpt>
      <trkpt lat="48.70878" lon="1.9984">
        <ele>84.6</ele>
        <time>2026-01-30T09:33:55Z</time>
      </trkpt>
      <trkpt lat="48.70876" lon="1.99843">
        <ele>85.4</ele>
        <time>2026-01-30T09:33:56Z</time>
      </trkpt>
      <trkpt lat="48.70873" lon="1.99844">
        <ele>85.4</ele>
        <time>2026-01-30T09:33:57Z</time>
      </trkpt>
      <trkpt lat="48.70871" lon="1.99845">
        <ele>85.4</ele>
        <time>2026-01-30T09:33:58Z</time>
      </trkpt>
      <trkpt lat="48.70868" lon="1.99846">
        <ele>85.8</ele>
        <time>2026-01-30T09:33:59Z</time>
      </trkpt>
      <trkpt lat="48.70865" lon="1.99847">
        <ele>86</ele>
        <time>2026-01-30T09:34:00Z</time>
      </trkpt>
      <trkpt lat="48.70863" lon="1.99848">
        <ele>86</ele>
        <time>2026-01-30T09:34:01Z</time>
      </trkpt>
      <trkpt lat="48.7086" lon="1.99849">
        <ele>86</ele>
        <time>2026-01-30T09:34:02Z</time>
      </trkpt>
      <trkpt lat="48.70857" lon="1.99851">
        <ele>86.8</ele>
        <time>2026-01-30T09:34:03Z</time>
      </trkpt>
      <trkpt lat="48.70855" lon="1.99853">
        <ele>86.8</ele>
        <time>2026-01-30T09:34:04Z</time>
      </trkpt>
      <trkpt lat="48.70852" lon="1.99856">
        <ele>86.8</ele>
        <time>2026-01-30T09:34:05Z</time>
      </trkpt>
      <trkpt lat="48.7085" lon="1.99858">
        <ele>86.8</ele>
        <time>2026-01-30T09:34:06Z</time>
      </trkpt>
      <trkpt lat="48.70847" lon="1.9986">
        <ele>87.2</ele>
        <time>2026-01-30T09:34:07Z</time>
      </trkpt>
      <trkpt lat="48.70845" lon="1.99864">
        <ele>87.4</ele>
        <time>2026-01-30T09:34:08Z</time>
      </trkpt>
      <trkpt lat="48.70843" lon="1.99867">
        <ele>87.4</ele>
        <time>2026-01-30T09:34:09Z</time>
      </trkpt>
      <trkpt lat="48.70842" lon="1.99871">
        <ele>87.4</ele>
        <time>2026-01-30T09:34:10Z</time>
      </trkpt>
      <trkpt lat="48.7084" lon="1.99875">
        <ele>88.2</ele>
        <time>2026-01-30T09:34:11Z</time>
      </trkpt>
      <trkpt lat="48.70839" lon="1.99879">
        <ele>88.2</ele>
        <time>2026-01-30T09:34:12Z</time>
      </trkpt>
      <trkpt lat="48.70838" lon="1.99883">
        <ele>88.2</ele>
        <time>2026-01-30T09:34:13Z</time>
      </trkpt>
      <trkpt lat="48.70837" lon="1.99887">
        <ele>88.2</ele>
        <time>2026-01-30T09:34:14Z</time>
      </trkpt>
      <trkpt lat="48.70837" lon="1.99891">
        <ele>88.8</ele>
        <time>2026-01-30T09:34:15Z</time>
      </trkpt>
      <trkpt lat="48.70836" lon="1.99895">
        <ele>88.8</ele>
        <time>2026-01-30T09:34:16Z</time>
      </trkpt>
      <trkpt lat="48.70836" lon="1.99898">
        <ele>88.8</ele>
        <time>2026-01-30T09:34:17Z</time>
      </trkpt>
      <trkpt lat="48.70835" lon="1.99904">
        <ele>88.8</ele>
        <time>2026-01-30T09:34:18Z</time>
      </trkpt>
      <trkpt lat="48.70834" lon="1.99908">
        <ele>89.4</ele>
        <time>2026-01-30T09:34:19Z</time>
      </trkpt>
      <trkpt lat="48.70833" lon="1.99911">
        <ele>89.6</ele>
        <time>2026-01-30T09:34:20Z</time>
      </trkpt>
      <trkpt lat="48.70832" lon="1.99915">
        <ele>89.6</ele>
        <time>2026-01-30T09:34:21Z</time>
      </trkpt>
      <trkpt lat="48.70832" lon="1.99919">
        <ele>89.6</ele>
        <time>2026-01-30T09:34:22Z</time>
      </trkpt>
      <trkpt lat="48.70831" lon="1.99922">
        <ele>89.6</ele>
        <time>2026-01-30T09:34:23Z</time>
      </trkpt>
      <trkpt lat="48.70831" lon="1.99925">
        <ele>90.4</ele>
        <time>2026-01-30T09:34:24Z</time>
      </trkpt>
      <trkpt lat="48.7083" lon="1.99929">
        <ele>90.4</ele>
        <time>2026-01-30T09:34:25Z</time>
      </trkpt>
      <trkpt lat="48.7083" lon="1.99933">
        <ele>90.4</ele>
        <time>2026-01-30T09:34:26Z</time>
      </trkpt>
      <trkpt lat="48.70829" lon="1.99936">
        <ele>91.2</ele>
        <time>2026-01-30T09:34:27Z</time>
      </trkpt>
      <trkpt lat="48.70829" lon="1.99939">
        <ele>91.2</ele>
        <time>2026-01-30T09:34:28Z</time>
      </trkpt>
      <trkpt lat="48.70828" lon="1.99942">
        <ele>91.2</ele>
        <time>2026-01-30T09:34:29Z</time>
      </trkpt>
      <trkpt lat="48.70827" lon="1.99946">
        <ele>91.2</ele>
        <time>2026-01-30T09:34:30Z</time>
      </trkpt>
      <trkpt lat="48.70826" lon="1.9995">
        <ele>92</ele>
        <time>2026-01-30T09:34:31Z</time>
      </trkpt>
      <trkpt lat="48.70825" lon="1.99953">
        <ele>91.8</ele>
        <time>2026-01-30T09:34:32Z</time>
      </trkpt>
      <trkpt lat="48.70824" lon="1.99957">
        <ele>91.8</ele>
        <time>2026-01-30T09:34:33Z</time>
      </trkpt>
      <trkpt lat="48.70823" lon="1.99961">
        <ele>91.8</ele>
        <time>2026-01-30T09:34:34Z</time>
      </trkpt>
      <trkpt lat="48.70821" lon="1.99965">
        <ele>92.8</ele>
        <time>2026-01-30T09:34:35Z</time>
      </trkpt>
      <trkpt lat="48.7082" lon="1.99969">
        <ele>92.8</ele>
        <time>2026-01-30T09:34:36Z</time>
      </trkpt>
      <trkpt lat="48.70818" lon="1.99973">
        <ele>92.8</ele>
        <time>2026-01-30T09:34:37Z</time>
      </trkpt>
      <trkpt lat="48.70817" lon="1.99976">
        <ele>92.8</ele>
        <time>2026-01-30T09:34:38Z</time>
      </trkpt>
      <trkpt lat="48.70815" lon="1.99979">
        <ele>92.8</ele>
        <time>2026-01-30T09:34:39Z</time>
      </trkpt>
      <trkpt lat="48.70814" lon="1.99982">
        <ele>93.6</ele>
        <time>2026-01-30T09:34:40Z</time>
      </trkpt>
      <trkpt lat="48.70812" lon="1.99985">
        <ele>93.6</ele>
        <time>2026-01-30T09:34:41Z</time>
      </trkpt>
      <trkpt lat="48.7081" lon="1.99989">
        <ele>93.6</ele>
        <time>2026-01-30T09:34:42Z</time>
      </trkpt>
      <trkpt lat="48.70809" lon="1.99992">
        <ele>94.6</ele>
        <time>2026-01-30T09:34:43Z</time>
      </trkpt>
      <trkpt lat="48.70808" lon="1.99995">
        <ele>95</ele>
        <time>2026-01-30T09:34:44Z</time>
      </trkpt>
      <trkpt lat="48.70807" lon="1.99997">
        <ele>95</ele>
        <time>2026-01-30T09:34:45Z</time>
      </trkpt>
      <trkpt lat="48.70805" lon="2.00001">
        <ele>95</ele>
        <time>2026-01-30T09:34:46Z</time>
      </trkpt>
      <trkpt lat="48.70803" lon="2.00006">
        <ele>95</ele>
        <time>2026-01-30T09:34:47Z</time>
      </trkpt>
      <trkpt lat="48.70801" lon="2.0001">
        <ele>95</ele>
        <time>2026-01-30T09:34:48Z</time>
      </trkpt>
      <trkpt lat="48.70799" lon="2.00014">
        <ele>95</ele>
        <time>2026-01-30T09:34:49Z</time>
      </trkpt>
      <trkpt lat="48.70797" lon="2.00018">
        <ele>95</ele>
        <time>2026-01-30T09:34:50Z</time>
      </trkpt>
      <trkpt lat="48.70795" lon="2.00023">
        <ele>96</ele>
        <time>2026-01-30T09:34:51Z</time>
      </trkpt>
      <trkpt lat="48.70794" lon="2.00027">
        <ele>96.6</ele>
        <time>2026-01-30T09:34:52Z</time>
      </trkpt>
      <trkpt lat="48.70793" lon="2.0003">
        <ele>96.6</ele>
        <time>2026-01-30T09:34:53Z</time>
      </trkpt>
      <trkpt lat="48.70792" lon="2.00034">
        <ele>96.6</ele>
        <time>2026-01-30T09:34:54Z</time>
      </trkpt>
      <trkpt lat="48.7079" lon="2.00038">
        <ele>97</ele>
        <time>2026-01-30T09:34:55Z</time>
      </trkpt>
      <trkpt lat="48.70789" lon="2.00042">
        <ele>97.4</ele>
        <time>2026-01-30T09:34:56Z</time>
      </trkpt>
      <trkpt lat="48.70787" lon="2.00047">
        <ele>97.4</ele>
        <time>2026-01-30T09:34:57Z</time>
      </trkpt>
      <trkpt lat="48.70786" lon="2.0005">
        <ele>97.4</ele>
        <time>2026-01-30T09:34:58Z</time>
      </trkpt>
      <trkpt lat="48.70785" lon="2.00054">
        <ele>97.4</ele>
        <time>2026-01-30T09:34:59Z</time>
      </trkpt>
      <trkpt lat="48.70785" lon="2.00057">
        <ele>98</ele>
        <time>2026-01-30T09:35:00Z</time>
      </trkpt>
      <trkpt lat="48.70783" lon="2.00061">
        <ele>98</ele>
        <time>2026-01-30T09:35:01Z</time>
      </trkpt>
      <trkpt lat="48.70782" lon="2.00065">
        <ele>98</ele>
        <time>2026-01-30T09:35:02Z</time>
      </trkpt>
      <trkpt lat="48.70781" lon="2.00068">
        <ele>98.6</ele>
        <time>2026-01-30T09:35:03Z</time>
      </trkpt>
      <trkpt lat="48.7078" lon="2.00073">
        <ele>98.8</ele>
        <time>2026-01-30T09:35:04Z</time>
      </trkpt>
      <trkpt lat="48.7078" lon="2.00077">
        <ele>98.8</ele>
        <time>2026-01-30T09:35:05Z</time>
      </trkpt>
      <trkpt lat="48.70779" lon="2.00081">
        <ele>98.8</ele>
        <time>2026-01-30T09:35:06Z</time>
      </trkpt>
      <trkpt lat="48.70779" lon="2.00085">
        <ele>98.8</ele>
        <time>2026-01-30T09:35:07Z</time>
      </trkpt>
      <trkpt lat="48.70778" lon="2.0009">
        <ele>99</ele>
        <time>2026-01-30T09:35:08Z</time>
      </trkpt>
      <trkpt lat="48.70778" lon="2.00097">
        <ele>99</ele>
        <time>2026-01-30T09:35:09Z</time>
      </trkpt>
      <trkpt lat="48.70777" lon="2.00104">
        <ele>99</ele>
        <time>2026-01-30T09:35:10Z</time>
      </trkpt>
      <trkpt lat="48.70778" lon="2.00109">
        <ele>99.8</ele>
        <time>2026-01-30T09:35:11Z</time>
      </trkpt>
      <trkpt lat="48.70777" lon="2.00115">
        <ele>100.2</ele>
        <time>2026-01-30T09:35:12Z</time>
      </trkpt>
      <trkpt lat="48.70778" lon="2.00119">
        <ele>100.2</ele>
        <time>2026-01-30T09:35:13Z</time>
      </trkpt>
      <trkpt lat="48.70779" lon="2.00123">
        <ele>100.2</ele>
        <time>2026-01-30T09:35:14Z</time>
      </trkpt>
      <trkpt lat="48.70781" lon="2.00126">
        <ele>100.6</ele>
        <time>2026-01-30T09:35:15Z</time>
      </trkpt>
      <trkpt lat="48.70783" lon="2.00129">
        <ele>101</ele>
        <time>2026-01-30T09:35:16Z</time>
      </trkpt>
      <trkpt lat="48.70785" lon="2.00132">
        <ele>101</ele>
        <time>2026-01-30T09:35:17Z</time>
      </trkpt>
      <trkpt lat="48.70787" lon="2.00135">
        <ele>101</ele>
        <time>2026-01-30T09:35:18Z</time>
      </trkpt>
      <trkpt lat="48.70789" lon="2.00137">
        <ele>101.4</ele>
        <time>2026-01-30T09:35:19Z</time>
      </trkpt>
      <trkpt lat="48.70791" lon="2.0014">
        <ele>102</ele>
        <time>2026-01-30T09:35:20Z</time>
      </trkpt>
      <trkpt lat="48.70793" lon="2.00142">
        <ele>102</ele>
        <time>2026-01-30T09:35:21Z</time>
      </trkpt>
      <trkpt lat="48.70795" lon="2.00144">
        <ele>102</ele>
        <time>2026-01-30T09:35:22Z</time>
      </trkpt>
      <trkpt lat="48.70797" lon="2.00145">
        <ele>102</ele>
        <time>2026-01-30T09:35:23Z</time>
      </trkpt>
      <trkpt lat="48.708" lon="2.00146">
        <ele>102.6</ele>
        <time>2026-01-30T09:35:24Z</time>
      </trkpt>
      <trkpt lat="48.70803" lon="2.00147">
        <ele>102.6</ele>
        <time>2026-01-30T09:35:25Z</time>
      </trkpt>
      <trkpt lat="48.70805" lon="2.00148">
        <ele>102.6</ele>
        <time>2026-01-30T09:35:26Z</time>
      </trkpt>
      <trkpt lat="48.70808" lon="2.00149">
        <ele>102.6</ele>
        <time>2026-01-30T09:35:27Z</time>
      </trkpt>
      <trkpt lat="48.70811" lon="2.00149">
        <ele>103.4</ele>
        <time>2026-01-30T09:35:28Z</time>
      </trkpt>
      <trkpt lat="48.70814" lon="2.0015">
        <ele>103.4</ele>
        <time>2026-01-30T09:35:29Z</time>
      </trkpt>
      <trkpt lat="48.70816" lon="2.00151">
        <ele>103.4</ele>
        <time>2026-01-30T09:35:30Z</time>
      </trkpt>
      <trkpt lat="48.70818" lon="2.00152">
        <ele>103.4</ele>
        <time>2026-01-30T09:35:31Z</time>
      </trkpt>
      <trkpt lat="48.70821" lon="2.00153">
        <ele>103.8</ele>
        <time>2026-01-30T09:35:32Z</time>
      </trkpt>
      <trkpt lat="48.70823" lon="2.00154">
        <ele>103.8</ele>
        <time>2026-01-30T09:35:33Z</time>
      </trkpt>
      <trkpt lat="48.70826" lon="2.00154">
        <ele>103.8</ele>
        <time>2026-01-30T09:35:34Z</time>
      </trkpt>
      <trkpt lat="48.70828" lon="2.00155">
        <ele>104.6</ele>
        <time>2026-01-30T09:35:35Z</time>
      </trkpt>
      <trkpt lat="48.70831" lon="2.00155">
        <ele>104.8</ele>
        <time>2026-01-30T09:35:36Z</time>
      </trkpt>
      <trkpt lat="48.70834" lon="2.00156">
        <ele>104.8</ele>
        <time>2026-01-30T09:35:37Z</time>
      </trkpt>
      <trkpt lat="48.70836" lon="2.00156">
        <ele>104.8</ele>
        <time>2026-01-30T09:35:38Z</time>
      </trkpt>
      <trkpt lat="48.70839" lon="2.00156">
        <ele>105.8</ele>
        <time>2026-01-30T09:35:39Z</time>
      </trkpt>
      <trkpt lat="48.70841" lon="2.00157">
        <ele>105.6</ele>
        <time>2026-01-30T09:35:40Z</time>
      </trkpt>
      <trkpt lat="48.70844" lon="2.00158">
        <ele>105.6</ele>
        <time>2026-01-30T09:35:41Z</time>
      </trkpt>
      <trkpt lat="48.70848" lon="2.00158">
        <ele>105.6</ele>
        <time>2026-01-30T09:35:42Z</time>
      </trkpt>
      <trkpt lat="48.70851" lon="2.00158">
        <ele>106.4</ele>
        <time>2026-01-30T09:35:43Z</time>
      </trkpt>
      <trkpt lat="48.70854" lon="2.00158">
        <ele>106.2</ele>
        <time>2026-01-30T09:35:44Z</time>
      </trkpt>
      <trkpt lat="48.70857" lon="2.00159">
        <ele>106.2</ele>
        <time>2026-01-30T09:35:45Z</time>
      </trkpt>
      <trkpt lat="48.70861" lon="2.00158">
        <ele>106.2</ele>
        <time>2026-01-30T09:35:46Z</time>
      </trkpt>
      <trkpt lat="48.70863" lon="2.00159">
        <ele>106.8</ele>
        <time>2026-01-30T09:35:47Z</time>
      </trkpt>
      <trkpt lat="48.70865" lon="2.00159">
        <ele>107.2</ele>
        <time>2026-01-30T09:35:48Z</time>
      </trkpt>
      <trkpt lat="48.70869" lon="2.00159">
        <ele>107.2</ele>
        <time>2026-01-30T09:35:49Z</time>
      </trkpt>
      <trkpt lat="48.70872" lon="2.00159">
        <ele>107.2</ele>
        <time>2026-01-30T09:35:50Z</time>
      </trkpt>
      <trkpt lat="48.70876" lon="2.00159">
        <ele>107.6</ele>
        <time>2026-01-30T09:35:51Z</time>
      </trkpt>
      <trkpt lat="48.7088" lon="2.00159">
        <ele>107.8</ele>
        <time>2026-01-30T09:35:52Z</time>
      </trkpt>
      <trkpt lat="48.70883" lon="2.00159">
        <ele>107.8</ele>
        <time>2026-01-30T09:35:53Z</time>
      </trkpt>
      <trkpt lat="48.70886" lon="2.00159">
        <ele>107.8</ele>
        <time>2026-01-30T09:35:54Z</time>
      </trkpt>
      <trkpt lat="48.70889" lon="2.00159">
        <ele>107.8</ele>
        <time>2026-01-30T09:35:55Z</time>
      </trkpt>
      <trkpt lat="48.70893" lon="2.0016">
        <ele>108</ele>
        <time>2026-01-30T09:35:56Z</time>
      </trkpt>
      <trkpt lat="48.70896" lon="2.0016">
        <ele>108</ele>
        <time>2026-01-30T09:35:57Z</time>
      </trkpt>
      <trkpt lat="48.70899" lon="2.00161">
        <ele>108</ele>
        <time>2026-01-30T09:35:58Z</time>
      </trkpt>
      <trkpt lat="48.70904" lon="2.00162">
        <ele>108.6</ele>
        <time>2026-01-30T09:35:59Z</time>
      </trkpt>
      <trkpt lat="48.70908" lon="2.00161">
        <ele>108.8</ele>
        <time>2026-01-30T09:36:00Z</time>
      </trkpt>
      <trkpt lat="48.70912" lon="2.00161">
        <ele>108.8</ele>
        <time>2026-01-30T09:36:01Z</time>
      </trkpt>
      <trkpt lat="48.70917" lon="2.00161">
        <ele>108.8</ele>
        <time>2026-01-30T09:36:02Z</time>
      </trkpt>
      <trkpt lat="48.70921" lon="2.00161">
        <ele>108.8</ele>
        <time>2026-01-30T09:36:03Z</time>
      </trkpt>
      <trkpt lat="48.70925" lon="2.00162">
        <ele>109</ele>
        <time>2026-01-30T09:36:04Z</time>
      </trkpt>
      <trkpt lat="48.7093" lon="2.00161">
        <ele>109</ele>
        <time>2026-01-30T09:36:05Z</time>
      </trkpt>
      <trkpt lat="48.70934" lon="2.00162">
        <ele>109</ele>
        <time>2026-01-30T09:36:06Z</time>
      </trkpt>
      <trkpt lat="48.70938" lon="2.00163">
        <ele>109</ele>
        <time>2026-01-30T09:36:07Z</time>
      </trkpt>
      <trkpt lat="48.70942" lon="2.00164">
        <ele>108.8</ele>
        <time>2026-01-30T09:36:08Z</time>
      </trkpt>
      <trkpt lat="48.70946" lon="2.00165">
        <ele>108.8</ele>
        <time>2026-01-30T09:36:09Z</time>
      </trkpt>
      <trkpt lat="48.70951" lon="2.00165">
        <ele>108.8</ele>
        <time>2026-01-30T09:36:10Z</time>
      </trkpt>
      <trkpt lat="48.70955" lon="2.00167">
        <ele>108.8</ele>
        <time>2026-01-30T09:36:11Z</time>
      </trkpt>
      <trkpt lat="48.70961" lon="2.00167">
        <ele>109</ele>
        <time>2026-01-30T09:36:12Z</time>
      </trkpt>
      <trkpt lat="48.70965" lon="2.00169">
        <ele>109</ele>
        <time>2026-01-30T09:36:13Z</time>
      </trkpt>
      <trkpt lat="48.70971" lon="2.00169">
        <ele>109</ele>
        <time>2026-01-30T09:36:14Z</time>
      </trkpt>
      <trkpt lat="48.70976" lon="2.00169">
        <ele>108.8</ele>
        <time>2026-01-30T09:36:15Z</time>
      </trkpt>
      <trkpt lat="48.70981" lon="2.0017">
        <ele>108.8</ele>
        <time>2026-01-30T09:36:16Z</time>
      </trkpt>
      <trkpt lat="48.70987" lon="2.00171">
        <ele>108.8</ele>
        <time>2026-01-30T09:36:17Z</time>
      </trkpt>
      <trkpt lat="48.70992" lon="2.00171">
        <ele>108.8</ele>
        <time>2026-01-30T09:36:18Z</time>
      </trkpt>
      <trkpt lat="48.70997" lon="2.00171">
        <ele>108.8</ele>
        <time>2026-01-30T09:36:19Z</time>
      </trkpt>
      <trkpt lat="48.71002" lon="2.00172">
        <ele>108.8</ele>
        <time>2026-01-30T09:36:20Z</time>
      </trkpt>
      <trkpt lat="48.71007" lon="2.00172">
        <ele>108.8</ele>
        <time>2026-01-30T09:36:21Z</time>
      </trkpt>
      <trkpt lat="48.71013" lon="2.00173">
        <ele>108.8</ele>
        <time>2026-01-30T09:36:22Z</time>
      </trkpt>
      <trkpt lat="48.71019" lon="2.00173">
        <ele>108.8</ele>
        <time>2026-01-30T09:36:23Z</time>
      </trkpt>
      <trkpt lat="48.71025" lon="2.00174">
        <ele>109</ele>
        <time>2026-01-30T09:36:24Z</time>
      </trkpt>
      <trkpt lat="48.71031" lon="2.00174">
        <ele>109</ele>
        <time>2026-01-30T09:36:25Z</time>
      </trkpt>
      <trkpt lat="48.71038" lon="2.00175">
        <ele>109</ele>
        <time>2026-01-30T09:36:26Z</time>
      </trkpt>
      <trkpt lat="48.71044" lon="2.00175">
        <ele>109</ele>
        <time>2026-01-30T09:36:27Z</time>
      </trkpt>
      <trkpt lat="48.7105" lon="2.00175">
        <ele>108.6</ele>
        <time>2026-01-30T09:36:28Z</time>
      </trkpt>
      <trkpt lat="48.71057" lon="2.00176">
        <ele>108.6</ele>
        <time>2026-01-30T09:36:29Z</time>
      </trkpt>
      <trkpt lat="48.71063" lon="2.00177">
        <ele>108.6</ele>
        <time>2026-01-30T09:36:30Z</time>
      </trkpt>
      <trkpt lat="48.7107" lon="2.00178">
        <ele>108.6</ele>
        <time>2026-01-30T09:36:31Z</time>
      </trkpt>
      <trkpt lat="48.71076" lon="2.00179">
        <ele>108.4</ele>
        <time>2026-01-30T09:36:32Z</time>
      </trkpt>
      <trkpt lat="48.71083" lon="2.0018">
        <ele>108.4</ele>
        <time>2026-01-30T09:36:33Z</time>
      </trkpt>
      <trkpt lat="48.71089" lon="2.00181">
        <ele>108.4</ele>
        <time>2026-01-30T09:36:34Z</time>
      </trkpt>
      <trkpt lat="48.71096" lon="2.00181">
        <ele>109.2</ele>
        <time>2026-01-30T09:36:35Z</time>
      </trkpt>
      <trkpt lat="48.71102" lon="2.00183">
        <ele>108.8</ele>
        <time>2026-01-30T09:36:36Z</time>
      </trkpt>
      <trkpt lat="48.71109" lon="2.00183">
        <ele>108.8</ele>
        <time>2026-01-30T09:36:37Z</time>
      </trkpt>
      <trkpt lat="48.71115" lon="2.00183">
        <ele>108.8</ele>
        <time>2026-01-30T09:36:38Z</time>
      </trkpt>
      <trkpt lat="48.71122" lon="2.00184">
        <ele>108.2</ele>
        <time>2026-01-30T09:36:39Z</time>
      </trkpt>
      <trkpt lat="48.71128" lon="2.00185">
        <ele>108</ele>
        <time>2026-01-30T09:36:40Z</time>
      </trkpt>
      <trkpt lat="48.71135" lon="2.00186">
        <ele>108</ele>
        <time>2026-01-30T09:36:41Z</time>
      </trkpt>
      <trkpt lat="48.71142" lon="2.00186">
        <ele>108</ele>
        <time>2026-01-30T09:36:42Z</time>
      </trkpt>
      <trkpt lat="48.71149" lon="2.00187">
        <ele>108</ele>
        <time>2026-01-30T09:36:43Z</time>
      </trkpt>
      <trkpt lat="48.71156" lon="2.00187">
        <ele>108.4</ele>
        <time>2026-01-30T09:36:44Z</time>
      </trkpt>
      <trkpt lat="48.71162" lon="2.00187">
        <ele>108.4</ele>
        <time>2026-01-30T09:36:45Z</time>
      </trkpt>
      <trkpt lat="48.7117" lon="2.00188">
        <ele>108.4</ele>
        <time>2026-01-30T09:36:46Z</time>
      </trkpt>
      <trkpt lat="48.71177" lon="2.00188">
        <ele>109.2</ele>
        <time>2026-01-30T09:36:47Z</time>
      </trkpt>
      <trkpt lat="48.71184" lon="2.00189">
        <ele>108</ele>
        <time>2026-01-30T09:36:48Z</time>
      </trkpt>
      <trkpt lat="48.71191" lon="2.00189">
        <ele>108</ele>
        <time>2026-01-30T09:36:49Z</time>
      </trkpt>
      <trkpt lat="48.71199" lon="2.0019">
        <ele>108</ele>
        <time>2026-01-30T09:36:50Z</time>
      </trkpt>
      <trkpt lat="48.71206" lon="2.00191">
        <ele>108.4</ele>
        <time>2026-01-30T09:36:51Z</time>
      </trkpt>
      <trkpt lat="48.71214" lon="2.00192">
        <ele>108.2</ele>
        <time>2026-01-30T09:36:52Z</time>
      </trkpt>
      <trkpt lat="48.71221" lon="2.00193">
        <ele>108.2</ele>
        <time>2026-01-30T09:36:53Z</time>
      </trkpt>
      <trkpt lat="48.71229" lon="2.00193">
        <ele>108.2</ele>
        <time>2026-01-30T09:36:54Z</time>
      </trkpt>
      <trkpt lat="48.71237" lon="2.00194">
        <ele>107.4</ele>
        <time>2026-01-30T09:36:55Z</time>
      </trkpt>
      <trkpt lat="48.71244" lon="2.00195">
        <ele>107.4</ele>
        <time>2026-01-30T09:36:56Z</time>
      </trkpt>
      <trkpt lat="48.71252" lon="2.00196">
        <ele>107.4</ele>
        <time>2026-01-30T09:36:57Z</time>
      </trkpt>
      <trkpt lat="48.7126" lon="2.00196">
        <ele>107.4</ele>
        <time>2026-01-30T09:36:58Z</time>
      </trkpt>
      <trkpt lat="48.71267" lon="2.00197">
        <ele>107.4</ele>
        <time>2026-01-30T09:36:59Z</time>
      </trkpt>
      <trkpt lat="48.71275" lon="2.00198">
        <ele>107.8</ele>
        <time>2026-01-30T09:37:00Z</time>
      </trkpt>
      <trkpt lat="48.71283" lon="2.00199">
        <ele>107.8</ele>
        <time>2026-01-30T09:37:01Z</time>
      </trkpt>
      <trkpt lat="48.71291" lon="2.00199">
        <ele>107.8</ele>
        <time>2026-01-30T09:37:02Z</time>
      </trkpt>
      <trkpt lat="48.713" lon="2.00199">
        <ele>107.2</ele>
        <time>2026-01-30T09:37:03Z</time>
      </trkpt>
      <trkpt lat="48.71308" lon="2.00199">
        <ele>107.2</ele>
        <time>2026-01-30T09:37:04Z</time>
      </trkpt>
      <trkpt lat="48.71317" lon="2.00199">
        <ele>107.2</ele>
        <time>2026-01-30T09:37:05Z</time>
      </trkpt>
      <trkpt lat="48.71325" lon="2.00199">
        <ele>107.2</ele>
        <time>2026-01-30T09:37:06Z</time>
      </trkpt>
      <trkpt lat="48.71333" lon="2.00199">
        <ele>106.2</ele>
        <time>2026-01-30T09:37:07Z</time>
      </trkpt>
      <trkpt lat="48.71342" lon="2.002">
        <ele>106.4</ele>
        <time>2026-01-30T09:37:08Z</time>
      </trkpt>
      <trkpt lat="48.7135" lon="2.002">
        <ele>106.4</ele>
        <time>2026-01-30T09:37:09Z</time>
      </trkpt>
      <trkpt lat="48.71358" lon="2.00201">
        <ele>106.4</ele>
        <time>2026-01-30T09:37:10Z</time>
      </trkpt>
      <trkpt lat="48.71367" lon="2.00201">
        <ele>106.4</ele>
        <time>2026-01-30T09:37:11Z</time>
      </trkpt>
      <trkpt lat="48.71375" lon="2.00202">
        <ele>105.6</ele>
        <time>2026-01-30T09:37:12Z</time>
      </trkpt>
      <trkpt lat="48.71383" lon="2.00202">
        <ele>105.6</ele>
        <time>2026-01-30T09:37:13Z</time>
      </trkpt>
      <trkpt lat="48.71392" lon="2.00203">
        <ele>105.6</ele>
        <time>2026-01-30T09:37:14Z</time>
      </trkpt>
      <trkpt lat="48.714" lon="2.00203">
        <ele>105.6</ele>
        <time>2026-01-30T09:37:15Z</time>
      </trkpt>
      <trkpt lat="48.71409" lon="2.00204">
        <ele>105.4</ele>
        <time>2026-01-30T09:37:16Z</time>
      </trkpt>
      <trkpt lat="48.71417" lon="2.00204">
        <ele>105.4</ele>
        <time>2026-01-30T09:37:17Z</time>
      </trkpt>
      <trkpt lat="48.71426" lon="2.00205">
        <ele>105.4</ele>
        <time>2026-01-30T09:37:18Z</time>
      </trkpt>
      <trkpt lat="48.71434" lon="2.00206">
        <ele>105.4</ele>
        <time>2026-01-30T09:37:19Z</time>
      </trkpt>
      <trkpt lat="48.71443" lon="2.00206">
        <ele>105.6</ele>
        <time>2026-01-30T09:37:20Z</time>
      </trkpt>
      <trkpt lat="48.71451" lon="2.00207">
        <ele>105.6</ele>
        <time>2026-01-30T09:37:21Z</time>
      </trkpt>
      <trkpt lat="48.7146" lon="2.00207">
        <ele>105.6</ele>
        <time>2026-01-30T09:37:22Z</time>
      </trkpt>
      <trkpt lat="48.71468" lon="2.00208">
        <ele>105</ele>
        <time>2026-01-30T09:37:23Z</time>
      </trkpt>
      <trkpt lat="48.71477" lon="2.00208">
        <ele>105.6</ele>
        <time>2026-01-30T09:37:24Z</time>
      </trkpt>
      <trkpt lat="48.71485" lon="2.00209">
        <ele>105.6</ele>
        <time>2026-01-30T09:37:25Z</time>
      </trkpt>
      <trkpt lat="48.71494" lon="2.0021">
        <ele>105.6</ele>
        <time>2026-01-30T09:37:26Z</time>
      </trkpt>
      <trkpt lat="48.71502" lon="2.00211">
        <ele>105.2</ele>
        <time>2026-01-30T09:37:27Z</time>
      </trkpt>
      <trkpt lat="48.71511" lon="2.00211">
        <ele>104.6</ele>
        <time>2026-01-30T09:37:28Z</time>
      </trkpt>
      <trkpt lat="48.71519" lon="2.00212">
        <ele>104.6</ele>
        <time>2026-01-30T09:37:29Z</time>
      </trkpt>
      <trkpt lat="48.71528" lon="2.00213">
        <ele>104.6</ele>
        <time>2026-01-30T09:37:30Z</time>
      </trkpt>
      <trkpt lat="48.71536" lon="2.00213">
        <ele>103.8</ele>
        <time>2026-01-30T09:37:31Z</time>
      </trkpt>
      <trkpt lat="48.71545" lon="2.00214">
        <ele>104.2</ele>
        <time>2026-01-30T09:37:32Z</time>
      </trkpt>
      <trkpt lat="48.71554" lon="2.00214">
        <ele>104.2</ele>
        <time>2026-01-30T09:37:33Z</time>
      </trkpt>
      <trkpt lat="48.71562" lon="2.00215">
        <ele>104.2</ele>
        <time>2026-01-30T09:37:34Z</time>
      </trkpt>
      <trkpt lat="48.71571" lon="2.00216">
        <ele>104.2</ele>
        <time>2026-01-30T09:37:35Z</time>
      </trkpt>
      <trkpt lat="48.7158" lon="2.00216">
        <ele>104.2</ele>
        <time>2026-01-30T09:37:36Z</time>
      </trkpt>
      <trkpt lat="48.71588" lon="2.00216">
        <ele>104.2</ele>
        <time>2026-01-30T09:37:37Z</time>
      </trkpt>
      <trkpt lat="48.71597" lon="2.00217">
        <ele>104.2</ele>
        <time>2026-01-30T09:37:38Z</time>
      </trkpt>
      <trkpt lat="48.71605" lon="2.00218">
        <ele>104.2</ele>
        <time>2026-01-30T09:37:39Z</time>
      </trkpt>
      <trkpt lat="48.71614" lon="2.00218">
        <ele>103.6</ele>
        <time>2026-01-30T09:37:40Z</time>
      </trkpt>
      <trkpt lat="48.71623" lon="2.00219">
        <ele>103.6</ele>
        <time>2026-01-30T09:37:41Z</time>
      </trkpt>
      <trkpt lat="48.71631" lon="2.0022">
        <ele>103.6</ele>
        <time>2026-01-30T09:37:42Z</time>
      </trkpt>
      <trkpt lat="48.7164" lon="2.00221">
        <ele>103.6</ele>
        <time>2026-01-30T09:37:43Z</time>
      </trkpt>
      <trkpt lat="48.71649" lon="2.00221">
        <ele>104.6</ele>
        <time>2026-01-30T09:37:44Z</time>
      </trkpt>
      <trkpt lat="48.71658" lon="2.00222">
        <ele>104.6</ele>
        <time>2026-01-30T09:37:45Z</time>
      </trkpt>
      <trkpt lat="48.71666" lon="2.00222">
        <ele>104.6</ele>
        <time>2026-01-30T09:37:46Z</time>
      </trkpt>
      <trkpt lat="48.71675" lon="2.00223">
        <ele>104.2</ele>
        <time>2026-01-30T09:37:47Z</time>
      </trkpt>
      <trkpt lat="48.71684" lon="2.00224">
        <ele>104.8</ele>
        <time>2026-01-30T09:37:48Z</time>
      </trkpt>
      <trkpt lat="48.71693" lon="2.00224">
        <ele>104.8</ele>
        <time>2026-01-30T09:37:49Z</time>
      </trkpt>
      <trkpt lat="48.71702" lon="2.00225">
        <ele>104.8</ele>
        <time>2026-01-30T09:37:50Z</time>
      </trkpt>
      <trkpt lat="48.71711" lon="2.00226">
        <ele>103.8</ele>
        <time>2026-01-30T09:37:51Z</time>
      </trkpt>
      <trkpt lat="48.7172" lon="2.00227">
        <ele>102.4</ele>
        <time>2026-01-30T09:37:52Z</time>
      </trkpt>
      <trkpt lat="48.71729" lon="2.00227">
        <ele>102.4</ele>
        <time>2026-01-30T09:37:53Z</time>
      </trkpt>
      <trkpt lat="48.71738" lon="2.00228">
        <ele>102.4</ele>
        <time>2026-01-30T09:37:54Z</time>
      </trkpt>
      <trkpt lat="48.71747" lon="2.00229">
        <ele>101.4</ele>
        <time>2026-01-30T09:37:55Z</time>
      </trkpt>
      <trkpt lat="48.71756" lon="2.00229">
        <ele>101</ele>
        <time>2026-01-30T09:37:56Z</time>
      </trkpt>
      <trkpt lat="48.71765" lon="2.0023">
        <ele>101</ele>
        <time>2026-01-30T09:37:57Z</time>
      </trkpt>
      <trkpt lat="48.71774" lon="2.00231">
        <ele>101</ele>
        <time>2026-01-30T09:37:58Z</time>
      </trkpt>
      <trkpt lat="48.71783" lon="2.00232">
        <ele>101.2</ele>
        <time>2026-01-30T09:37:59Z</time>
      </trkpt>
      <trkpt lat="48.71792" lon="2.00232">
        <ele>101.4</ele>
        <time>2026-01-30T09:38:00Z</time>
      </trkpt>
      <trkpt lat="48.71801" lon="2.00233">
        <ele>101.4</ele>
        <time>2026-01-30T09:38:01Z</time>
      </trkpt>
      <trkpt lat="48.7181" lon="2.00234">
        <ele>101.4</ele>
        <time>2026-01-30T09:38:02Z</time>
      </trkpt>
      <trkpt lat="48.71819" lon="2.00234">
        <ele>100.4</ele>
        <time>2026-01-30T09:38:03Z</time>
      </trkpt>
      <trkpt lat="48.71828" lon="2.00235">
        <ele>100</ele>
        <time>2026-01-30T09:38:04Z</time>
      </trkpt>
      <trkpt lat="48.71837" lon="2.00236">
        <ele>100</ele>
        <time>2026-01-30T09:38:05Z</time>
      </trkpt>
      <trkpt lat="48.71846" lon="2.00237">
        <ele>100</ele>
        <time>2026-01-30T09:38:06Z</time>
      </trkpt>
      <trkpt lat="48.71855" lon="2.00238">
        <ele>100.4</ele>
        <time>2026-01-30T09:38:07Z</time>
      </trkpt>
      <trkpt lat="48.71864" lon="2.00238">
        <ele>100.6</ele>
        <time>2026-01-30T09:38:08Z</time>
      </trkpt>
      <trkpt lat="48.71873" lon="2.00239">
        <ele>100.6</ele>
        <time>2026-01-30T09:38:09Z</time>
      </trkpt>
      <trkpt lat="48.71882" lon="2.0024">
        <ele>100.6</ele>
        <time>2026-01-30T09:38:10Z</time>
      </trkpt>
      <trkpt lat="48.71891" lon="2.0024">
        <ele>100.6</ele>
        <time>2026-01-30T09:38:11Z</time>
      </trkpt>
      <trkpt lat="48.719" lon="2.00241">
        <ele>100.8</ele>
        <time>2026-01-30T09:38:12Z</time>
      </trkpt>
      <trkpt lat="48.71909" lon="2.00241">
        <ele>100.8</ele>
        <time>2026-01-30T09:38:13Z</time>
      </trkpt>
      <trkpt lat="48.71918" lon="2.00241">
        <ele>100.8</ele>
        <time>2026-01-30T09:38:14Z</time>
      </trkpt>
      <trkpt lat="48.71927" lon="2.00241">
        <ele>99.8</ele>
        <time>2026-01-30T09:38:15Z</time>
      </trkpt>
      <trkpt lat="48.71936" lon="2.00239">
        <ele>99.8</ele>
        <time>2026-01-30T09:38:16Z</time>
      </trkpt>
      <trkpt lat="48.71944" lon="2.00237">
        <ele>99.8</ele>
        <time>2026-01-30T09:38:17Z</time>
      </trkpt>
      <trkpt lat="48.71953" lon="2.00235">
        <ele>99.8</ele>
        <time>2026-01-30T09:38:18Z</time>
      </trkpt>
      <trkpt lat="48.71962" lon="2.00232">
        <ele>99</ele>
        <time>2026-01-30T09:38:19Z</time>
      </trkpt>
      <trkpt lat="48.71971" lon="2.0023">
        <ele>99.2</ele>
        <time>2026-01-30T09:38:20Z</time>
      </trkpt>
      <trkpt lat="48.7198" lon="2.0023">
        <ele>99.2</ele>
        <time>2026-01-30T09:38:21Z</time>
      </trkpt>
      <trkpt lat="48.71988" lon="2.00233">
        <ele>99.2</ele>
        <time>2026-01-30T09:38:22Z</time>
      </trkpt>
      <trkpt lat="48.71996" lon="2.00239">
        <ele>99.2</ele>
        <time>2026-01-30T09:38:23Z</time>
      </trkpt>
      <trkpt lat="48.72004" lon="2.00244">
        <ele>101.2</ele>
        <time>2026-01-30T09:38:24Z</time>
      </trkpt>
      <trkpt lat="48.72012" lon="2.00246">
        <ele>101.2</ele>
        <time>2026-01-30T09:38:25Z</time>
      </trkpt>
      <trkpt lat="48.7202" lon="2.00245">
        <ele>101.2</ele>
        <time>2026-01-30T09:38:26Z</time>
      </trkpt>
      <trkpt lat="48.72028" lon="2.00241">
        <ele>100.2</ele>
        <time>2026-01-30T09:38:27Z</time>
      </trkpt>
      <trkpt lat="48.72037" lon="2.00237">
        <ele>99.8</ele>
        <time>2026-01-30T09:38:28Z</time>
      </trkpt>
      <trkpt lat="48.72045" lon="2.00236">
        <ele>99.8</ele>
        <time>2026-01-30T09:38:29Z</time>
      </trkpt>
      <trkpt lat="48.72054" lon="2.00237">
        <ele>99.8</ele>
        <time>2026-01-30T09:38:30Z</time>
      </trkpt>
      <trkpt lat="48.72062" lon="2.0024">
        <ele>99.8</ele>
        <time>2026-01-30T09:38:31Z</time>
      </trkpt>
      <trkpt lat="48.72071" lon="2.00244">
        <ele>100.2</ele>
        <time>2026-01-30T09:38:32Z</time>
      </trkpt>
      <trkpt lat="48.72079" lon="2.00248">
        <ele>100.2</ele>
        <time>2026-01-30T09:38:33Z</time>
      </trkpt>
      <trkpt lat="48.72087" lon="2.00251">
        <ele>100.2</ele>
        <time>2026-01-30T09:38:34Z</time>
      </trkpt>
      <trkpt lat="48.72096" lon="2.00254">
        <ele>100.8</ele>
        <time>2026-01-30T09:38:35Z</time>
      </trkpt>
      <trkpt lat="48.72104" lon="2.00256">
        <ele>100.8</ele>
        <time>2026-01-30T09:38:36Z</time>
      </trkpt>
      <trkpt lat="48.72113" lon="2.00258">
        <ele>100.8</ele>
        <time>2026-01-30T09:38:37Z</time>
      </trkpt>
      <trkpt lat="48.72121" lon="2.00258">
        <ele>100.8</ele>
        <time>2026-01-30T09:38:38Z</time>
      </trkpt>
      <trkpt lat="48.7213" lon="2.00259">
        <ele>100.4</ele>
        <time>2026-01-30T09:38:39Z</time>
      </trkpt>
      <trkpt lat="48.72139" lon="2.00259">
        <ele>100.6</ele>
        <time>2026-01-30T09:38:40Z</time>
      </trkpt>
      <trkpt lat="48.72147" lon="2.0026">
        <ele>100.6</ele>
        <time>2026-01-30T09:38:41Z</time>
      </trkpt>
      <trkpt lat="48.72156" lon="2.0026">
        <ele>100.6</ele>
        <time>2026-01-30T09:38:42Z</time>
      </trkpt>
      <trkpt lat="48.72165" lon="2.00261">
        <ele>100.6</ele>
        <time>2026-01-30T09:38:43Z</time>
      </trkpt>
      <trkpt lat="48.72174" lon="2.00262">
        <ele>101.4</ele>
        <time>2026-01-30T09:38:44Z</time>
      </trkpt>
      <trkpt lat="48.72183" lon="2.00262">
        <ele>101.4</ele>
        <time>2026-01-30T09:38:45Z</time>
      </trkpt>
      <trkpt lat="48.72192" lon="2.00262">
        <ele>101.4</ele>
        <time>2026-01-30T09:38:46Z</time>
      </trkpt>
      <trkpt lat="48.72201" lon="2.00263">
        <ele>101.4</ele>
        <time>2026-01-30T09:38:47Z</time>
      </trkpt>
      <trkpt lat="48.7221" lon="2.00264">
        <ele>101</ele>
        <time>2026-01-30T09:38:48Z</time>
      </trkpt>
      <trkpt lat="48.72219" lon="2.00265">
        <ele>101</ele>
        <time>2026-01-30T09:38:49Z</time>
      </trkpt>
      <trkpt lat="48.72228" lon="2.00265">
        <ele>101</ele>
        <time>2026-01-30T09:38:50Z</time>
      </trkpt>
      <trkpt lat="48.72237" lon="2.00266">
        <ele>100.2</ele>
        <time>2026-01-30T09:38:51Z</time>
      </trkpt>
      <trkpt lat="48.72246" lon="2.00266">
        <ele>100.6</ele>
        <time>2026-01-30T09:38:52Z</time>
      </trkpt>
      <trkpt lat="48.72254" lon="2.00267">
        <ele>100.6</ele>
        <time>2026-01-30T09:38:53Z</time>
      </trkpt>
      <trkpt lat="48.72263" lon="2.00268">
        <ele>100.6</ele>
        <time>2026-01-30T09:38:54Z</time>
      </trkpt>
      <trkpt lat="48.72272" lon="2.00269">
        <ele>100.6</ele>
        <time>2026-01-30T09:38:55Z</time>
      </trkpt>
      <trkpt lat="48.72281" lon="2.00271">
        <ele>101.4</ele>
        <time>2026-01-30T09:38:56Z</time>
      </trkpt>
      <trkpt lat="48.72289" lon="2.00272">
        <ele>101.4</ele>
        <time>2026-01-30T09:38:57Z</time>
      </trkpt>
      <trkpt lat="48.72298" lon="2.00273">
        <ele>101.4</ele>
        <time>2026-01-30T09:38:58Z</time>
      </trkpt>
      <trkpt lat="48.72307" lon="2.00274">
        <ele>101.4</ele>
        <time>2026-01-30T09:38:59Z</time>
      </trkpt>
      <trkpt lat="48.72316" lon="2.00274">
        <ele>101</ele>
        <time>2026-01-30T09:39:00Z</time>
      </trkpt>
      <trkpt lat="48.72325" lon="2.00275">
        <ele>101</ele>
        <time>2026-01-30T09:39:01Z</time>
      </trkpt>
      <trkpt lat="48.72333" lon="2.00275">
        <ele>101</ele>
        <time>2026-01-30T09:39:02Z</time>
      </trkpt>
      <trkpt lat="48.72342" lon="2.00276">
        <ele>101.4</ele>
        <time>2026-01-30T09:39:03Z</time>
      </trkpt>
      <trkpt lat="48.72351" lon="2.00277">
        <ele>101.4</ele>
        <time>2026-01-30T09:39:04Z</time>
      </trkpt>
      <trkpt lat="48.72359" lon="2.00278">
        <ele>101.4</ele>
        <time>2026-01-30T09:39:05Z</time>
      </trkpt>
      <trkpt lat="48.72368" lon="2.00278">
        <ele>101.4</ele>
        <time>2026-01-30T09:39:06Z</time>
      </trkpt>
      <trkpt lat="48.72376" lon="2.00279">
        <ele>102.4</ele>
        <time>2026-01-30T09:39:07Z</time>
      </trkpt>
      <trkpt lat="48.72385" lon="2.0028">
        <ele>103</ele>
        <time>2026-01-30T09:39:08Z</time>
      </trkpt>
      <trkpt lat="48.72393" lon="2.00281">
        <ele>103</ele>
        <time>2026-01-30T09:39:09Z</time>
      </trkpt>
      <trkpt lat="48.72401" lon="2.00281">
        <ele>103</ele>
        <time>2026-01-30T09:39:10Z</time>
      </trkpt>
      <trkpt lat="48.72409" lon="2.00282">
        <ele>104</ele>
        <time>2026-01-30T09:39:11Z</time>
      </trkpt>
      <trkpt lat="48.72416" lon="2.00283">
        <ele>103.6</ele>
        <time>2026-01-30T09:39:12Z</time>
      </trkpt>
      <trkpt lat="48.72424" lon="2.00283">
        <ele>103.6</ele>
        <time>2026-01-30T09:39:13Z</time>
      </trkpt>
      <trkpt lat="48.72432" lon="2.00284">
        <ele>103.6</ele>
        <time>2026-01-30T09:39:14Z</time>
      </trkpt>
      <trkpt lat="48.72439" lon="2.00285">
        <ele>104.6</ele>
        <time>2026-01-30T09:39:15Z</time>
      </trkpt>
      <trkpt lat="48.72447" lon="2.00285">
        <ele>103.6</ele>
        <time>2026-01-30T09:39:16Z</time>
      </trkpt>
      <trkpt lat="48.72454" lon="2.00286">
        <ele>103.6</ele>
        <time>2026-01-30T09:39:17Z</time>
      </trkpt>
      <trkpt lat="48.72462" lon="2.00287">
        <ele>103.6</ele>
        <time>2026-01-30T09:39:18Z</time>
      </trkpt>
      <trkpt lat="48.72469" lon="2.00287">
        <ele>104.6</ele>
        <time>2026-01-30T09:39:19Z</time>
      </trkpt>
      <trkpt lat="48.72476" lon="2.00288">
        <ele>106.4</ele>
        <time>2026-01-30T09:39:20Z</time>
      </trkpt>
      <trkpt lat="48.72483" lon="2.00288">
        <ele>106.4</ele>
        <time>2026-01-30T09:39:21Z</time>
      </trkpt>
      <trkpt lat="48.7249" lon="2.00289">
        <ele>106.4</ele>
        <time>2026-01-30T09:39:22Z</time>
      </trkpt>
      <trkpt lat="48.72497" lon="2.0029">
        <ele>106.8</ele>
        <time>2026-01-30T09:39:23Z</time>
      </trkpt>
      <trkpt lat="48.72504" lon="2.0029">
        <ele>107</ele>
        <time>2026-01-30T09:39:24Z</time>
      </trkpt>
      <trkpt lat="48.72511" lon="2.00291">
        <ele>107</ele>
        <time>2026-01-30T09:39:25Z</time>
      </trkpt>
      <trkpt lat="48.72518" lon="2.00291">
        <ele>107</ele>
        <time>2026-01-30T09:39:26Z</time>
      </trkpt>
      <trkpt lat="48.72524" lon="2.00292">
        <ele>107.8</ele>
        <time>2026-01-30T09:39:27Z</time>
      </trkpt>
      <trkpt lat="48.72531" lon="2.00293">
        <ele>107.8</ele>
        <time>2026-01-30T09:39:28Z</time>
      </trkpt>
      <trkpt lat="48.72537" lon="2.00293">
        <ele>107.8</ele>
        <time>2026-01-30T09:39:29Z</time>
      </trkpt>
      <trkpt lat="48.72544" lon="2.00294">
        <ele>107.8</ele>
        <time>2026-01-30T09:39:30Z</time>
      </trkpt>
      <trkpt lat="48.72551" lon="2.00294">
        <ele>108.8</ele>
        <time>2026-01-30T09:39:31Z</time>
      </trkpt>
      <trkpt lat="48.72557" lon="2.00295">
        <ele>108.6</ele>
        <time>2026-01-30T09:39:32Z</time>
      </trkpt>
      <trkpt lat="48.72564" lon="2.00295">
        <ele>108.6</ele>
        <time>2026-01-30T09:39:33Z</time>
      </trkpt>
      <trkpt lat="48.7257" lon="2.00296">
        <ele>108.6</ele>
        <time>2026-01-30T09:39:34Z</time>
      </trkpt>
      <trkpt lat="48.72577" lon="2.00296">
        <ele>108.8</ele>
        <time>2026-01-30T09:39:35Z</time>
      </trkpt>
      <trkpt lat="48.72584" lon="2.00297">
        <ele>108.6</ele>
        <time>2026-01-30T09:39:36Z</time>
      </trkpt>
      <trkpt lat="48.7259" lon="2.00297">
        <ele>108.6</ele>
        <time>2026-01-30T09:39:37Z</time>
      </trkpt>
      <trkpt lat="48.72597" lon="2.00298">
        <ele>108.6</ele>
        <time>2026-01-30T09:39:38Z</time>
      </trkpt>
      <trkpt lat="48.72603" lon="2.00298">
        <ele>109.6</ele>
        <time>2026-01-30T09:39:39Z</time>
      </trkpt>
      <trkpt lat="48.7261" lon="2.00299">
        <ele>109.6</ele>
        <time>2026-01-30T09:39:40Z</time>
      </trkpt>
      <trkpt lat="48.72617" lon="2.00299">
        <ele>109.6</ele>
        <time>2026-01-30T09:39:41Z</time>
      </trkpt>
      <trkpt lat="48.72623" lon="2.003">
        <ele>109.6</ele>
        <time>2026-01-30T09:39:42Z</time>
      </trkpt>
      <trkpt lat="48.7263" lon="2.003">
        <ele>110.4</ele>
        <time>2026-01-30T09:39:43Z</time>
      </trkpt>
      <trkpt lat="48.72637" lon="2.00301">
        <ele>110.8</ele>
        <time>2026-01-30T09:39:44Z</time>
      </trkpt>
      <trkpt lat="48.72644" lon="2.00301">
        <ele>110.8</ele>
        <time>2026-01-30T09:39:45Z</time>
      </trkpt>
      <trkpt lat="48.72651" lon="2.00302">
        <ele>110.8</ele>
        <time>2026-01-30T09:39:46Z</time>
      </trkpt>
      <trkpt lat="48.72658" lon="2.00303">
        <ele>110.2</ele>
        <time>2026-01-30T09:39:47Z</time>
      </trkpt>
      <trkpt lat="48.72664" lon="2.00303">
        <ele>110.2</ele>
        <time>2026-01-30T09:39:48Z</time>
      </trkpt>
      <trkpt lat="48.72671" lon="2.00304">
        <ele>110.2</ele>
        <time>2026-01-30T09:39:49Z</time>
      </trkpt>
      <trkpt lat="48.72678" lon="2.00305">
        <ele>110.2</ele>
        <time>2026-01-30T09:39:50Z</time>
      </trkpt>
      <trkpt lat="48.72685" lon="2.00306">
        <ele>110.2</ele>
        <time>2026-01-30T09:39:51Z</time>
      </trkpt>
      <trkpt lat="48.72692" lon="2.00307">
        <ele>110</ele>
        <time>2026-01-30T09:39:52Z</time>
      </trkpt>
      <trkpt lat="48.72699" lon="2.00309">
        <ele>110</ele>
        <time>2026-01-30T09:39:53Z</time>
      </trkpt>
      <trkpt lat="48.72706" lon="2.0031">
        <ele>110</ele>
        <time>2026-01-30T09:39:54Z</time>
      </trkpt>
      <trkpt lat="48.72713" lon="2.0031">
        <ele>110</ele>
        <time>2026-01-30T09:39:55Z</time>
      </trkpt>
      <trkpt lat="48.7272" lon="2.00311">
        <ele>110.2</ele>
        <time>2026-01-30T09:39:56Z</time>
      </trkpt>
      <trkpt lat="48.72727" lon="2.00312">
        <ele>110.2</ele>
        <time>2026-01-30T09:39:57Z</time>
      </trkpt>
      <trkpt lat="48.72735" lon="2.00312">
        <ele>110.2</ele>
        <time>2026-01-30T09:39:58Z</time>
      </trkpt>
      <trkpt lat="48.72742" lon="2.00313">
        <ele>110.2</ele>
        <time>2026-01-30T09:39:59Z</time>
      </trkpt>
      <trkpt lat="48.72749" lon="2.00313">
        <ele>110.4</ele>
        <time>2026-01-30T09:40:00Z</time>
      </trkpt>
      <trkpt lat="48.72756" lon="2.00314">
        <ele>110.4</ele>
        <time>2026-01-30T09:40:01Z</time>
      </trkpt>
      <trkpt lat="48.72764" lon="2.00314">
        <ele>110.4</ele>
        <time>2026-01-30T09:40:02Z</time>
      </trkpt>
      <trkpt lat="48.72771" lon="2.00313">
        <ele>110.2</ele>
        <time>2026-01-30T09:40:03Z</time>
      </trkpt>
      <trkpt lat="48.72779" lon="2.00313">
        <ele>109.4</ele>
        <time>2026-01-30T09:40:04Z</time>
      </trkpt>
      <trkpt lat="48.72786" lon="2.00313">
        <ele>109.4</ele>
        <time>2026-01-30T09:40:05Z</time>
      </trkpt>
      <trkpt lat="48.72794" lon="2.00314">
        <ele>109.4</ele>
        <time>2026-01-30T09:40:06Z</time>
      </trkpt>
      <trkpt lat="48.72802" lon="2.00314">
        <ele>109.8</ele>
        <time>2026-01-30T09:40:07Z</time>
      </trkpt>
      <trkpt lat="48.7281" lon="2.00315">
        <ele>109.6</ele>
        <time>2026-01-30T09:40:08Z</time>
      </trkpt>
      <trkpt lat="48.72818" lon="2.00316">
        <ele>109.6</ele>
        <time>2026-01-30T09:40:09Z</time>
      </trkpt>
      <trkpt lat="48.72826" lon="2.00316">
        <ele>109.6</ele>
        <time>2026-01-30T09:40:10Z</time>
      </trkpt>
      <trkpt lat="48.72835" lon="2.00317">
        <ele>109</ele>
        <time>2026-01-30T09:40:11Z</time>
      </trkpt>
      <trkpt lat="48.72843" lon="2.00317">
        <ele>108.2</ele>
        <time>2026-01-30T09:40:12Z</time>
      </trkpt>
      <trkpt lat="48.72852" lon="2.00318">
        <ele>108.2</ele>
        <time>2026-01-30T09:40:13Z</time>
      </trkpt>
      <trkpt lat="48.7286" lon="2.00319">
        <ele>108.2</ele>
        <time>2026-01-30T09:40:14Z</time>
      </trkpt>
      <trkpt lat="48.72869" lon="2.00319">
        <ele>108.2</ele>
        <time>2026-01-30T09:40:15Z</time>
      </trkpt>
      <trkpt lat="48.72878" lon="2.0032">
        <ele>107</ele>
        <time>2026-01-30T09:40:16Z</time>
      </trkpt>
      <trkpt lat="48.72887" lon="2.0032">
        <ele>107</ele>
        <time>2026-01-30T09:40:17Z</time>
      </trkpt>
      <trkpt lat="48.72896" lon="2.00321">
        <ele>107</ele>
        <time>2026-01-30T09:40:18Z</time>
      </trkpt>
      <trkpt lat="48.72905" lon="2.00322">
        <ele>107</ele>
        <time>2026-01-30T09:40:19Z</time>
      </trkpt>
      <trkpt lat="48.72914" lon="2.00323">
        <ele>106</ele>
        <time>2026-01-30T09:40:20Z</time>
      </trkpt>
      <trkpt lat="48.72923" lon="2.00323">
        <ele>106</ele>
        <time>2026-01-30T09:40:21Z</time>
      </trkpt>
      <trkpt lat="48.72932" lon="2.00324">
        <ele>106</ele>
        <time>2026-01-30T09:40:22Z</time>
      </trkpt>
      <trkpt lat="48.72941" lon="2.00325">
        <ele>105.6</ele>
        <time>2026-01-30T09:40:23Z</time>
      </trkpt>
      <trkpt lat="48.7295" lon="2.00326">
        <ele>105.8</ele>
        <time>2026-01-30T09:40:24Z</time>
      </trkpt>
      <trkpt lat="48.7296" lon="2.00326">
        <ele>105.8</ele>
        <time>2026-01-30T09:40:25Z</time>
      </trkpt>
      <trkpt lat="48.72969" lon="2.00327">
        <ele>105.8</ele>
        <time>2026-01-30T09:40:26Z</time>
      </trkpt>
      <trkpt lat="48.72978" lon="2.00328">
        <ele>104.8</ele>
        <time>2026-01-30T09:40:27Z</time>
      </trkpt>
      <trkpt lat="48.72988" lon="2.00328">
        <ele>104.2</ele>
        <time>2026-01-30T09:40:28Z</time>
      </trkpt>
      <trkpt lat="48.72997" lon="2.00329">
        <ele>104.2</ele>
        <time>2026-01-30T09:40:29Z</time>
      </trkpt>
      <trkpt lat="48.73006" lon="2.0033">
        <ele>104.2</ele>
        <time>2026-01-30T09:40:30Z</time>
      </trkpt>
      <trkpt lat="48.73016" lon="2.00331">
        <ele>105</ele>
        <time>2026-01-30T09:40:31Z</time>
      </trkpt>
      <trkpt lat="48.73026" lon="2.00332">
        <ele>105.2</ele>
        <time>2026-01-30T09:40:32Z</time>
      </trkpt>
      <trkpt lat="48.73035" lon="2.00333">
        <ele>105.2</ele>
        <time>2026-01-30T09:40:33Z</time>
      </trkpt>
      <trkpt lat="48.73045" lon="2.00335">
        <ele>105.2</ele>
        <time>2026-01-30T09:40:34Z</time>
      </trkpt>
      <trkpt lat="48.73055" lon="2.00338">
        <ele>104.2</ele>
        <time>2026-01-30T09:40:35Z</time>
      </trkpt>
      <trkpt lat="48.73065" lon="2.00343">
        <ele>103.2</ele>
        <time>2026-01-30T09:40:36Z</time>
      </trkpt>
      <trkpt lat="48.73075" lon="2.00348">
        <ele>103.2</ele>
        <time>2026-01-30T09:40:37Z</time>
      </trkpt>
      <trkpt lat="48.73084" lon="2.00355">
        <ele>103.2</ele>
        <time>2026-01-30T09:40:38Z</time>
      </trkpt>
      <trkpt lat="48.73093" lon="2.00363">
        <ele>103.2</ele>
        <time>2026-01-30T09:40:39Z</time>
      </trkpt>
      <trkpt lat="48.73102" lon="2.00373">
        <ele>102.6</ele>
        <time>2026-01-30T09:40:40Z</time>
      </trkpt>
      <trkpt lat="48.7311" lon="2.00383">
        <ele>102.6</ele>
        <time>2026-01-30T09:40:41Z</time>
      </trkpt>
      <trkpt lat="48.73118" lon="2.00395">
        <ele>102.6</ele>
        <time>2026-01-30T09:40:42Z</time>
      </trkpt>
      <trkpt lat="48.73125" lon="2.00407">
        <ele>101.6</ele>
        <time>2026-01-30T09:40:43Z</time>
      </trkpt>
      <trkpt lat="48.73132" lon="2.0042">
        <ele>100.8</ele>
        <time>2026-01-30T09:40:44Z</time>
      </trkpt>
      <trkpt lat="48.73139" lon="2.00433">
        <ele>100.8</ele>
        <time>2026-01-30T09:40:45Z</time>
      </trkpt>
      <trkpt lat="48.73146" lon="2.00445">
        <ele>100.8</ele>
        <time>2026-01-30T09:40:46Z</time>
      </trkpt>
      <trkpt lat="48.73153" lon="2.00458">
        <ele>100.8</ele>
        <time>2026-01-30T09:40:47Z</time>
      </trkpt>
      <trkpt lat="48.7316" lon="2.00471">
        <ele>100.6</ele>
        <time>2026-01-30T09:40:48Z</time>
      </trkpt>
      <trkpt lat="48.73167" lon="2.00484">
        <ele>100.6</ele>
        <time>2026-01-30T09:40:49Z</time>
      </trkpt>
      <trkpt lat="48.73174" lon="2.00497">
        <ele>100.6</ele>
        <time>2026-01-30T09:40:50Z</time>
      </trkpt>
      <trkpt lat="48.73181" lon="2.0051">
        <ele>100</ele>
        <time>2026-01-30T09:40:51Z</time>
      </trkpt>
      <trkpt lat="48.73187" lon="2.00523">
        <ele>100.6</ele>
        <time>2026-01-30T09:40:52Z</time>
      </trkpt>
      <trkpt lat="48.73194" lon="2.00535">
        <ele>100.6</ele>
        <time>2026-01-30T09:40:53Z</time>
      </trkpt>
      <trkpt lat="48.73201" lon="2.00548">
        <ele>100.6</ele>
        <time>2026-01-30T09:40:54Z</time>
      </trkpt>
      <trkpt lat="48.73208" lon="2.0056">
        <ele>99.8</ele>
        <time>2026-01-30T09:40:55Z</time>
      </trkpt>
      <trkpt lat="48.73214" lon="2.00572">
        <ele>99.6</ele>
        <time>2026-01-30T09:40:56Z</time>
      </trkpt>
      <trkpt lat="48.73221" lon="2.00585">
        <ele>99.6</ele>
        <time>2026-01-30T09:40:57Z</time>
      </trkpt>
      <trkpt lat="48.73228" lon="2.00597">
        <ele>99.6</ele>
        <time>2026-01-30T09:40:58Z</time>
      </trkpt>
      <trkpt lat="48.73234" lon="2.00609">
        <ele>99.6</ele>
        <time>2026-01-30T09:40:59Z</time>
      </trkpt>
      <trkpt lat="48.73241" lon="2.0062">
        <ele>99.6</ele>
        <time>2026-01-30T09:41:00Z</time>
      </trkpt>
      <trkpt lat="48.73248" lon="2.00633">
        <ele>99.6</ele>
        <time>2026-01-30T09:41:01Z</time>
      </trkpt>
      <trkpt lat="48.73253" lon="2.00645">
        <ele>99.6</ele>
        <time>2026-01-30T09:41:02Z</time>
      </trkpt>
      <trkpt lat="48.7326" lon="2.00657">
        <ele>99.6</ele>
        <time>2026-01-30T09:41:03Z</time>
      </trkpt>
      <trkpt lat="48.73267" lon="2.00668">
        <ele>99.6</ele>
        <time>2026-01-30T09:41:04Z</time>
      </trkpt>
      <trkpt lat="48.73273" lon="2.0068">
        <ele>99.6</ele>
        <time>2026-01-30T09:41:05Z</time>
      </trkpt>
      <trkpt lat="48.73279" lon="2.00692">
        <ele>99.6</ele>
        <time>2026-01-30T09:41:06Z</time>
      </trkpt>
      <trkpt lat="48.73286" lon="2.00704">
        <ele>99.6</ele>
        <time>2026-01-30T09:41:07Z</time>
      </trkpt>
      <trkpt lat="48.73292" lon="2.00716">
        <ele>99.8</ele>
        <time>2026-01-30T09:41:08Z</time>
      </trkpt>
      <trkpt lat="48.73298" lon="2.00728">
        <ele>99.8</ele>
        <time>2026-01-30T09:41:09Z</time>
      </trkpt>
      <trkpt lat="48.73304" lon="2.00739">
        <ele>99.8</ele>
        <time>2026-01-30T09:41:10Z</time>
      </trkpt>
      <trkpt lat="48.7331" lon="2.0075">
        <ele>99.8</ele>
        <time>2026-01-30T09:41:11Z</time>
      </trkpt>
      <trkpt lat="48.73317" lon="2.00762">
        <ele>100.8</ele>
        <time>2026-01-30T09:41:12Z</time>
      </trkpt>
      <trkpt lat="48.73323" lon="2.00773">
        <ele>100.8</ele>
        <time>2026-01-30T09:41:13Z</time>
      </trkpt>
      <trkpt lat="48.73329" lon="2.00784">
        <ele>100.8</ele>
        <time>2026-01-30T09:41:14Z</time>
      </trkpt>
      <trkpt lat="48.73335" lon="2.00796">
        <ele>100.8</ele>
        <time>2026-01-30T09:41:15Z</time>
      </trkpt>
      <trkpt lat="48.73341" lon="2.00807">
        <ele>99.6</ele>
        <time>2026-01-30T09:41:16Z</time>
      </trkpt>
      <trkpt lat="48.73347" lon="2.00818">
        <ele>99.6</ele>
        <time>2026-01-30T09:41:17Z</time>
      </trkpt>
      <trkpt lat="48.73354" lon="2.00829">
        <ele>99.6</ele>
        <time>2026-01-30T09:41:18Z</time>
      </trkpt>
      <trkpt lat="48.7336" lon="2.0084">
        <ele>100.2</ele>
        <time>2026-01-30T09:41:19Z</time>
      </trkpt>
      <trkpt lat="48.73366" lon="2.00851">
        <ele>100.2</ele>
        <time>2026-01-30T09:41:20Z</time>
      </trkpt>
      <trkpt lat="48.73372" lon="2.00863">
        <ele>100.2</ele>
        <time>2026-01-30T09:41:21Z</time>
      </trkpt>
      <trkpt lat="48.73378" lon="2.00874">
        <ele>100.2</ele>
        <time>2026-01-30T09:41:22Z</time>
      </trkpt>
      <trkpt lat="48.73385" lon="2.00885">
        <ele>100.2</ele>
        <time>2026-01-30T09:41:23Z</time>
      </trkpt>
      <trkpt lat="48.73391" lon="2.00897">
        <ele>98.6</ele>
        <time>2026-01-30T09:41:24Z</time>
      </trkpt>
      <trkpt lat="48.73398" lon="2.00907">
        <ele>98.6</ele>
        <time>2026-01-30T09:41:25Z</time>
      </trkpt>
      <trkpt lat="48.73404" lon="2.00918">
        <ele>98.6</ele>
        <time>2026-01-30T09:41:26Z</time>
      </trkpt>
      <trkpt lat="48.7341" lon="2.00929">
        <ele>98.6</ele>
        <time>2026-01-30T09:41:27Z</time>
      </trkpt>
      <trkpt lat="48.73416" lon="2.0094">
        <ele>99.6</ele>
        <time>2026-01-30T09:41:28Z</time>
      </trkpt>
      <trkpt lat="48.73423" lon="2.00952">
        <ele>99.6</ele>
        <time>2026-01-30T09:41:29Z</time>
      </trkpt>
      <trkpt lat="48.73429" lon="2.00963">
        <ele>99.6</ele>
        <time>2026-01-30T09:41:30Z</time>
      </trkpt>
      <trkpt lat="48.73435" lon="2.00975">
        <ele>98.6</ele>
        <time>2026-01-30T09:41:31Z</time>
      </trkpt>
      <trkpt lat="48.73441" lon="2.00986">
        <ele>98.2</ele>
        <time>2026-01-30T09:41:32Z</time>
      </trkpt>
      <trkpt lat="48.73447" lon="2.00998">
        <ele>98.2</ele>
        <time>2026-01-30T09:41:33Z</time>
      </trkpt>
      <trkpt lat="48.73453" lon="2.01009">
        <ele>98.2</ele>
        <time>2026-01-30T09:41:34Z</time>
      </trkpt>
      <trkpt lat="48.73458" lon="2.01021">
        <ele>97.2</ele>
        <time>2026-01-30T09:41:35Z</time>
      </trkpt>
      <trkpt lat="48.73465" lon="2.01032">
        <ele>96</ele>
        <time>2026-01-30T09:41:36Z</time>
      </trkpt>
      <trkpt lat="48.73471" lon="2.01043">
        <ele>96</ele>
        <time>2026-01-30T09:41:37Z</time>
      </trkpt>
      <trkpt lat="48.73477" lon="2.01055">
        <ele>96</ele>
        <time>2026-01-30T09:41:38Z</time>
      </trkpt>
      <trkpt lat="48.73485" lon="2.01067">
        <ele>95</ele>
        <time>2026-01-30T09:41:39Z</time>
      </trkpt>
      <trkpt lat="48.73493" lon="2.01079">
        <ele>91.2</ele>
        <time>2026-01-30T09:41:40Z</time>
      </trkpt>
      <trkpt lat="48.73501" lon="2.0109">
        <ele>91.2</ele>
        <time>2026-01-30T09:41:41Z</time>
      </trkpt>
      <trkpt lat="48.73509" lon="2.01102">
        <ele>91.2</ele>
        <time>2026-01-30T09:41:42Z</time>
      </trkpt>
      <trkpt lat="48.73518" lon="2.01114">
        <ele>90.2</ele>
        <time>2026-01-30T09:41:43Z</time>
      </trkpt>
      <trkpt lat="48.73527" lon="2.01125">
        <ele>85.6</ele>
        <time>2026-01-30T09:41:44Z</time>
      </trkpt>
      <trkpt lat="48.73536" lon="2.01135">
        <ele>85.6</ele>
        <time>2026-01-30T09:41:45Z</time>
      </trkpt>
      <trkpt lat="48.73546" lon="2.01145">
        <ele>85.6</ele>
        <time>2026-01-30T09:41:46Z</time>
      </trkpt>
      <trkpt lat="48.73555" lon="2.01155">
        <ele>84.6</ele>
        <time>2026-01-30T09:41:47Z</time>
      </trkpt>
      <trkpt lat="48.73565" lon="2.01164">
        <ele>82.4</ele>
        <time>2026-01-30T09:41:48Z</time>
      </trkpt>
      <trkpt lat="48.73575" lon="2.01172">
        <ele>82.4</ele>
        <time>2026-01-30T09:41:49Z</time>
      </trkpt>
      <trkpt lat="48.73584" lon="2.0118">
        <ele>82.4</ele>
        <time>2026-01-30T09:41:50Z</time>
      </trkpt>
      <trkpt lat="48.73593" lon="2.01187">
        <ele>81.4</ele>
        <time>2026-01-30T09:41:51Z</time>
      </trkpt>
      <trkpt lat="48.73602" lon="2.01195">
        <ele>80</ele>
        <time>2026-01-30T09:41:52Z</time>
      </trkpt>
      <trkpt lat="48.73611" lon="2.01204">
        <ele>80</ele>
        <time>2026-01-30T09:41:53Z</time>
      </trkpt>
      <trkpt lat="48.73619" lon="2.01214">
        <ele>80</ele>
        <time>2026-01-30T09:41:54Z</time>
      </trkpt>
      <trkpt lat="48.73627" lon="2.01225">
        <ele>79</ele>
        <time>2026-01-30T09:41:55Z</time>
      </trkpt>
      <trkpt lat="48.73635" lon="2.01237">
        <ele>76.4</ele>
        <time>2026-01-30T09:41:56Z</time>
      </trkpt>
      <trkpt lat="48.73642" lon="2.0125">
        <ele>76.4</ele>
        <time>2026-01-30T09:41:57Z</time>
      </trkpt>
      <trkpt lat="48.73648" lon="2.01264">
        <ele>76.4</ele>
        <time>2026-01-30T09:41:58Z</time>
      </trkpt>
      <trkpt lat="48.73654" lon="2.01277">
        <ele>75.4</ele>
        <time>2026-01-30T09:41:59Z</time>
      </trkpt>
      <trkpt lat="48.73659" lon="2.0129">
        <ele>73.6</ele>
        <time>2026-01-30T09:42:00Z</time>
      </trkpt>
      <trkpt lat="48.73665" lon="2.01304">
        <ele>73.6</ele>
        <time>2026-01-30T09:42:01Z</time>
      </trkpt>
      <trkpt lat="48.7367" lon="2.01317">
        <ele>73.6</ele>
        <time>2026-01-30T09:42:02Z</time>
      </trkpt>
      <trkpt lat="48.73675" lon="2.01332">
        <ele>73.6</ele>
        <time>2026-01-30T09:42:03Z</time>
      </trkpt>
      <trkpt lat="48.7368" lon="2.01346">
        <ele>71.2</ele>
        <time>2026-01-30T09:42:04Z</time>
      </trkpt>
      <trkpt lat="48.73684" lon="2.0136">
        <ele>71.2</ele>
        <time>2026-01-30T09:42:05Z</time>
      </trkpt>
      <trkpt lat="48.73689" lon="2.01375">
        <ele>71.2</ele>
        <time>2026-01-30T09:42:06Z</time>
      </trkpt>
      <trkpt lat="48.73694" lon="2.01389">
        <ele>70.2</ele>
        <time>2026-01-30T09:42:07Z</time>
      </trkpt>
      <trkpt lat="48.73698" lon="2.01403">
        <ele>68.2</ele>
        <time>2026-01-30T09:42:08Z</time>
      </trkpt>
      <trkpt lat="48.73703" lon="2.01417">
        <ele>68.2</ele>
        <time>2026-01-30T09:42:09Z</time>
      </trkpt>
      <trkpt lat="48.73708" lon="2.01432">
        <ele>68.2</ele>
        <time>2026-01-30T09:42:10Z</time>
      </trkpt>
      <trkpt lat="48.73713" lon="2.01446">
        <ele>68.2</ele>
        <time>2026-01-30T09:42:11Z</time>
      </trkpt>
      <trkpt lat="48.73717" lon="2.0146">
        <ele>67.4</ele>
        <time>2026-01-30T09:42:12Z</time>
      </trkpt>
      <trkpt lat="48.73722" lon="2.01475">
        <ele>67.4</ele>
        <time>2026-01-30T09:42:13Z</time>
      </trkpt>
      <trkpt lat="48.73726" lon="2.0149">
        <ele>67.4</ele>
        <time>2026-01-30T09:42:14Z</time>
      </trkpt>
      <trkpt lat="48.73731" lon="2.01505">
        <ele>66.4</ele>
        <time>2026-01-30T09:42:15Z</time>
      </trkpt>
      <trkpt lat="48.73736" lon="2.01521">
        <ele>63.2</ele>
        <time>2026-01-30T09:42:16Z</time>
      </trkpt>
      <trkpt lat="48.73741" lon="2.01536">
        <ele>63.2</ele>
        <time>2026-01-30T09:42:17Z</time>
      </trkpt>
      <trkpt lat="48.73746" lon="2.01551">
        <ele>63.2</ele>
        <time>2026-01-30T09:42:18Z</time>
      </trkpt>
      <trkpt lat="48.73751" lon="2.01566">
        <ele>62.2</ele>
        <time>2026-01-30T09:42:19Z</time>
      </trkpt>
      <trkpt lat="48.73756" lon="2.0158">
        <ele>61.4</ele>
        <time>2026-01-30T09:42:20Z</time>
      </trkpt>
      <trkpt lat="48.7376" lon="2.01594">
        <ele>61.4</ele>
        <time>2026-01-30T09:42:21Z</time>
      </trkpt>
      <trkpt lat="48.73764" lon="2.01607">
        <ele>61.4</ele>
        <time>2026-01-30T09:42:22Z</time>
      </trkpt>
      <trkpt lat="48.73767" lon="2.0162">
        <ele>61.4</ele>
        <time>2026-01-30T09:42:23Z</time>
      </trkpt>
      <trkpt lat="48.73769" lon="2.01632">
        <ele>61</ele>
        <time>2026-01-30T09:42:24Z</time>
      </trkpt>
      <trkpt lat="48.7377" lon="2.01643">
        <ele>61</ele>
        <time>2026-01-30T09:42:25Z</time>
      </trkpt>
      <trkpt lat="48.73771" lon="2.01654">
        <ele>61</ele>
        <time>2026-01-30T09:42:26Z</time>
      </trkpt>
      <trkpt lat="48.73772" lon="2.01663">
        <ele>61</ele>
        <time>2026-01-30T09:42:27Z</time>
      </trkpt>
      <trkpt lat="48.7377" lon="2.0167">
        <ele>61.2</ele>
        <time>2026-01-30T09:42:28Z</time>
      </trkpt>
      <trkpt lat="48.73767" lon="2.01676">
        <ele>61.2</ele>
        <time>2026-01-30T09:42:29Z</time>
      </trkpt>
      <trkpt lat="48.73762" lon="2.0168">
        <ele>61.2</ele>
        <time>2026-01-30T09:42:30Z</time>
      </trkpt>
      <trkpt lat="48.73756" lon="2.01683">
        <ele>60.2</ele>
        <time>2026-01-30T09:42:31Z</time>
      </trkpt>
      <trkpt lat="48.7375" lon="2.01685">
        <ele>57.8</ele>
        <time>2026-01-30T09:42:32Z</time>
      </trkpt>
      <trkpt lat="48.73742" lon="2.01685">
        <ele>57.8</ele>
        <time>2026-01-30T09:42:33Z</time>
      </trkpt>
      <trkpt lat="48.73735" lon="2.01684">
        <ele>57.8</ele>
        <time>2026-01-30T09:42:34Z</time>
      </trkpt>
      <trkpt lat="48.73727" lon="2.01682">
        <ele>56.8</ele>
        <time>2026-01-30T09:42:35Z</time>
      </trkpt>
      <trkpt lat="48.73719" lon="2.01679">
        <ele>53.8</ele>
        <time>2026-01-30T09:42:36Z</time>
      </trkpt>
      <trkpt lat="48.7371" lon="2.01678">
        <ele>53.8</ele>
        <time>2026-01-30T09:42:37Z</time>
      </trkpt>
      <trkpt lat="48.73702" lon="2.01677">
        <ele>53.8</ele>
        <time>2026-01-30T09:42:38Z</time>
      </trkpt>
      <trkpt lat="48.73693" lon="2.01678">
        <ele>53.8</ele>
        <time>2026-01-30T09:42:39Z</time>
      </trkpt>
      <trkpt lat="48.73684" lon="2.01678">
        <ele>52</ele>
        <time>2026-01-30T09:42:40Z</time>
      </trkpt>
      <trkpt lat="48.73675" lon="2.01679">
        <ele>52</ele>
        <time>2026-01-30T09:42:41Z</time>
      </trkpt>
      <trkpt lat="48.73666" lon="2.01679">
        <ele>52</ele>
        <time>2026-01-30T09:42:42Z</time>
      </trkpt>
      <trkpt lat="48.73657" lon="2.0168">
        <ele>52</ele>
        <time>2026-01-30T09:42:43Z</time>
      </trkpt>
      <trkpt lat="48.73649" lon="2.01681">
        <ele>52.4</ele>
        <time>2026-01-30T09:42:44Z</time>
      </trkpt>
      <trkpt lat="48.7364" lon="2.01681">
        <ele>52.4</ele>
        <time>2026-01-30T09:42:45Z</time>
      </trkpt>
      <trkpt lat="48.73632" lon="2.01683">
        <ele>52.4</ele>
        <time>2026-01-30T09:42:46Z</time>
      </trkpt>
      <trkpt lat="48.73623" lon="2.01684">
        <ele>52.4</ele>
        <time>2026-01-30T09:42:47Z</time>
      </trkpt>
      <trkpt lat="48.73615" lon="2.01685">
        <ele>52.8</ele>
        <time>2026-01-30T09:42:48Z</time>
      </trkpt>
      <trkpt lat="48.73607" lon="2.01687">
        <ele>52.8</ele>
        <time>2026-01-30T09:42:49Z</time>
      </trkpt>
      <trkpt lat="48.73599" lon="2.01688">
        <ele>52.8</ele>
        <time>2026-01-30T09:42:50Z</time>
      </trkpt>
      <trkpt lat="48.7359" lon="2.0169">
        <ele>52.8</ele>
        <time>2026-01-30T09:42:51Z</time>
      </trkpt>
      <trkpt lat="48.73582" lon="2.01692">
        <ele>53.2</ele>
        <time>2026-01-30T09:42:52Z</time>
      </trkpt>
      <trkpt lat="48.73574" lon="2.01693">
        <ele>53.2</ele>
        <time>2026-01-30T09:42:53Z</time>
      </trkpt>
      <trkpt lat="48.73567" lon="2.01695">
        <ele>53.2</ele>
        <time>2026-01-30T09:42:54Z</time>
      </trkpt>
      <trkpt lat="48.73559" lon="2.01697">
        <ele>53.2</ele>
        <time>2026-01-30T09:42:55Z</time>
      </trkpt>
      <trkpt lat="48.73552" lon="2.01699">
        <ele>53.2</ele>
        <time>2026-01-30T09:42:56Z</time>
      </trkpt>
      <trkpt lat="48.73544" lon="2.01701">
        <ele>53.2</ele>
        <time>2026-01-30T09:42:57Z</time>
      </trkpt>
      <trkpt lat="48.73537" lon="2.01704">
        <ele>53.2</ele>
        <time>2026-01-30T09:42:58Z</time>
      </trkpt>
      <trkpt lat="48.7353" lon="2.01709">
        <ele>52.2</ele>
        <time>2026-01-30T09:42:59Z</time>
      </trkpt>
      <trkpt lat="48.73522" lon="2.01715">
        <ele>51.8</ele>
        <time>2026-01-30T09:43:00Z</time>
      </trkpt>
      <trkpt lat="48.73515" lon="2.0172">
        <ele>51.8</ele>
        <time>2026-01-30T09:43:01Z</time>
      </trkpt>
      <trkpt lat="48.73508" lon="2.01725">
        <ele>51.8</ele>
        <time>2026-01-30T09:43:02Z</time>
      </trkpt>
      <trkpt lat="48.73501" lon="2.0173">
        <ele>52.8</ele>
        <time>2026-01-30T09:43:03Z</time>
      </trkpt>
      <trkpt lat="48.73494" lon="2.01736">
        <ele>52.6</ele>
        <time>2026-01-30T09:43:04Z</time>
      </trkpt>
      <trkpt lat="48.73487" lon="2.01741">
        <ele>52.6</ele>
        <time>2026-01-30T09:43:05Z</time>
      </trkpt>
      <trkpt lat="48.73479" lon="2.01746">
        <ele>52.6</ele>
        <time>2026-01-30T09:43:06Z</time>
      </trkpt>
      <trkpt lat="48.73472" lon="2.01751">
        <ele>51.8</ele>
        <time>2026-01-30T09:43:07Z</time>
      </trkpt>
      <trkpt lat="48.73466" lon="2.01756">
        <ele>51.6</ele>
        <time>2026-01-30T09:43:08Z</time>
      </trkpt>
      <trkpt lat="48.7346" lon="2.01759">
        <ele>51.6</ele>
        <time>2026-01-30T09:43:09Z</time>
      </trkpt>
      <trkpt lat="48.73454" lon="2.01764">
        <ele>51.6</ele>
        <time>2026-01-30T09:43:10Z</time>
      </trkpt>
      <trkpt lat="48.73446" lon="2.01771">
        <ele>51.6</ele>
        <time>2026-01-30T09:43:11Z</time>
      </trkpt>
      <trkpt lat="48.73439" lon="2.01777">
        <ele>50.4</ele>
        <time>2026-01-30T09:43:12Z</time>
      </trkpt>
      <trkpt lat="48.73432" lon="2.01784">
        <ele>50.4</ele>
        <time>2026-01-30T09:43:13Z</time>
      </trkpt>
      <trkpt lat="48.73424" lon="2.01792">
        <ele>50.4</ele>
        <time>2026-01-30T09:43:14Z</time>
      </trkpt>
      <trkpt lat="48.73418" lon="2.01799">
        <ele>51.2</ele>
        <time>2026-01-30T09:43:15Z</time>
      </trkpt>
      <trkpt lat="48.73411" lon="2.01806">
        <ele>51.4</ele>
        <time>2026-01-30T09:43:16Z</time>
      </trkpt>
      <trkpt lat="48.73405" lon="2.01814">
        <ele>51.4</ele>
        <time>2026-01-30T09:43:17Z</time>
      </trkpt>
      <trkpt lat="48.73399" lon="2.01822">
        <ele>51.4</ele>
        <time>2026-01-30T09:43:18Z</time>
      </trkpt>
      <trkpt lat="48.73394" lon="2.01831">
        <ele>51.4</ele>
        <time>2026-01-30T09:43:19Z</time>
      </trkpt>
      <trkpt lat="48.73388" lon="2.0184">
        <ele>52</ele>
        <time>2026-01-30T09:43:20Z</time>
      </trkpt>
      <trkpt lat="48.73382" lon="2.01848">
        <ele>52</ele>
        <time>2026-01-30T09:43:21Z</time>
      </trkpt>
      <trkpt lat="48.73377" lon="2.01857">
        <ele>52</ele>
        <time>2026-01-30T09:43:22Z</time>
      </trkpt>
      <trkpt lat="48.73371" lon="2.01865">
        <ele>51</ele>
        <time>2026-01-30T09:43:23Z</time>
      </trkpt>
      <trkpt lat="48.73366" lon="2.01874">
        <ele>50.4</ele>
        <time>2026-01-30T09:43:24Z</time>
      </trkpt>
      <trkpt lat="48.73361" lon="2.01883">
        <ele>50.4</ele>
        <time>2026-01-30T09:43:25Z</time>
      </trkpt>
      <trkpt lat="48.73356" lon="2.01892">
        <ele>50.4</ele>
        <time>2026-01-30T09:43:26Z</time>
      </trkpt>
      <trkpt lat="48.73352" lon="2.01901">
        <ele>50.6</ele>
        <time>2026-01-30T09:43:27Z</time>
      </trkpt>
      <trkpt lat="48.73347" lon="2.0191">
        <ele>50.8</ele>
        <time>2026-01-30T09:43:28Z</time>
      </trkpt>
      <trkpt lat="48.73343" lon="2.01918">
        <ele>50.8</ele>
        <time>2026-01-30T09:43:29Z</time>
      </trkpt>
      <trkpt lat="48.73339" lon="2.01927">
        <ele>50.8</ele>
        <time>2026-01-30T09:43:30Z</time>
      </trkpt>
      <trkpt lat="48.73334" lon="2.01934">
        <ele>50.8</ele>
        <time>2026-01-30T09:43:31Z</time>
      </trkpt>
      <trkpt lat="48.7333" lon="2.01942">
        <ele>53.2</ele>
        <time>2026-01-30T09:43:32Z</time>
      </trkpt>
      <trkpt lat="48.73326" lon="2.01949">
        <ele>53.2</ele>
        <time>2026-01-30T09:43:33Z</time>
      </trkpt>
      <trkpt lat="48.73321" lon="2.01957">
        <ele>53.2</ele>
        <time>2026-01-30T09:43:34Z</time>
      </trkpt>
      <trkpt lat="48.73317" lon="2.01963">
        <ele>53.2</ele>
        <time>2026-01-30T09:43:35Z</time>
      </trkpt>
      <trkpt lat="48.73313" lon="2.0197">
        <ele>53.2</ele>
        <time>2026-01-30T09:43:36Z</time>
      </trkpt>
      <trkpt lat="48.7331" lon="2.01977">
        <ele>53.2</ele>
        <time>2026-01-30T09:43:37Z</time>
      </trkpt>
      <trkpt lat="48.73306" lon="2.01983">
        <ele>53.2</ele>
        <time>2026-01-30T09:43:38Z</time>
      </trkpt>
      <trkpt lat="48.73302" lon="2.0199">
        <ele>53.2</ele>
        <time>2026-01-30T09:43:39Z</time>
      </trkpt>
      <trkpt lat="48.73297" lon="2.01998">
        <ele>54.4</ele>
        <time>2026-01-30T09:43:40Z</time>
      </trkpt>
      <trkpt lat="48.73293" lon="2.02005">
        <ele>54.4</ele>
        <time>2026-01-30T09:43:41Z</time>
      </trkpt>
      <trkpt lat="48.73289" lon="2.02013">
        <ele>54.4</ele>
        <time>2026-01-30T09:43:42Z</time>
      </trkpt>
      <trkpt lat="48.73284" lon="2.02021">
        <ele>55</ele>
        <time>2026-01-30T09:43:43Z</time>
      </trkpt>
      <trkpt lat="48.7328" lon="2.02028">
        <ele>55</ele>
        <time>2026-01-30T09:43:44Z</time>
      </trkpt>
      <trkpt lat="48.73276" lon="2.02035">
        <ele>55</ele>
        <time>2026-01-30T09:43:45Z</time>
      </trkpt>
      <trkpt lat="48.73271" lon="2.02043">
        <ele>55</ele>
        <time>2026-01-30T09:43:46Z</time>
      </trkpt>
      <trkpt lat="48.73267" lon="2.02051">
        <ele>55</ele>
        <time>2026-01-30T09:43:47Z</time>
      </trkpt>
      <trkpt lat="48.73262" lon="2.02058">
        <ele>55.4</ele>
        <time>2026-01-30T09:43:48Z</time>
      </trkpt>
      <trkpt lat="48.73258" lon="2.02066">
        <ele>55.4</ele>
        <time>2026-01-30T09:43:49Z</time>
      </trkpt>
      <trkpt lat="48.73254" lon="2.02074">
        <ele>55.4</ele>
        <time>2026-01-30T09:43:50Z</time>
      </trkpt>
      <trkpt lat="48.7325" lon="2.02082">
        <ele>54.4</ele>
        <time>2026-01-30T09:43:51Z</time>
      </trkpt>
      <trkpt lat="48.73245" lon="2.0209">
        <ele>53.8</ele>
        <time>2026-01-30T09:43:52Z</time>
      </trkpt>
      <trkpt lat="48.73241" lon="2.02097">
        <ele>53.8</ele>
        <time>2026-01-30T09:43:53Z</time>
      </trkpt>
      <trkpt lat="48.73236" lon="2.02105">
        <ele>53.8</ele>
        <time>2026-01-30T09:43:54Z</time>
      </trkpt>
      <trkpt lat="48.73231" lon="2.02113">
        <ele>52.8</ele>
        <time>2026-01-30T09:43:55Z</time>
      </trkpt>
      <trkpt lat="48.73225" lon="2.02119">
        <ele>51.6</ele>
        <time>2026-01-30T09:43:56Z</time>
      </trkpt>
      <trkpt lat="48.73219" lon="2.02125">
        <ele>51.6</ele>
        <time>2026-01-30T09:43:57Z</time>
      </trkpt>
      <trkpt lat="48.73212" lon="2.02128">
        <ele>51.6</ele>
        <time>2026-01-30T09:43:58Z</time>
      </trkpt>
      <trkpt lat="48.73205" lon="2.02133">
        <ele>52.2</ele>
        <time>2026-01-30T09:43:59Z</time>
      </trkpt>
      <trkpt lat="48.73198" lon="2.02137">
        <ele>50.6</ele>
        <time>2026-01-30T09:44:00Z</time>
      </trkpt>
      <trkpt lat="48.7319" lon="2.02142">
        <ele>50.6</ele>
        <time>2026-01-30T09:44:01Z</time>
      </trkpt>
      <trkpt lat="48.73183" lon="2.02148">
        <ele>50.6</ele>
        <time>2026-01-30T09:44:02Z</time>
      </trkpt>
      <trkpt lat="48.73175" lon="2.02153">
        <ele>51</ele>
        <time>2026-01-30T09:44:03Z</time>
      </trkpt>
      <trkpt lat="48.73168" lon="2.02159">
        <ele>50</ele>
        <time>2026-01-30T09:44:04Z</time>
      </trkpt>
      <trkpt lat="48.73161" lon="2.02167">
        <ele>50</ele>
        <time>2026-01-30T09:44:05Z</time>
      </trkpt>
      <trkpt lat="48.73154" lon="2.02174">
        <ele>50</ele>
        <time>2026-01-30T09:44:06Z</time>
      </trkpt>
      <trkpt lat="48.73146" lon="2.02182">
        <ele>49</ele>
        <time>2026-01-30T09:44:07Z</time>
      </trkpt>
      <trkpt lat="48.73138" lon="2.0219">
        <ele>47</ele>
        <time>2026-01-30T09:44:08Z</time>
      </trkpt>
      <trkpt lat="48.7313" lon="2.02198">
        <ele>47</ele>
        <time>2026-01-30T09:44:09Z</time>
      </trkpt>
      <trkpt lat="48.73122" lon="2.02206">
        <ele>47</ele>
        <time>2026-01-30T09:44:10Z</time>
      </trkpt>
      <trkpt lat="48.73115" lon="2.02214">
        <ele>46</ele>
        <time>2026-01-30T09:44:11Z</time>
      </trkpt>
      <trkpt lat="48.73106" lon="2.02223">
        <ele>45.8</ele>
        <time>2026-01-30T09:44:12Z</time>
      </trkpt>
      <trkpt lat="48.73099" lon="2.02232">
        <ele>45.8</ele>
        <time>2026-01-30T09:44:13Z</time>
      </trkpt>
      <trkpt lat="48.73091" lon="2.0224">
        <ele>45.8</ele>
        <time>2026-01-30T09:44:14Z</time>
      </trkpt>
      <trkpt lat="48.73083" lon="2.02248">
        <ele>45.6</ele>
        <time>2026-01-30T09:44:15Z</time>
      </trkpt>
      <trkpt lat="48.73075" lon="2.02254">
        <ele>45.4</ele>
        <time>2026-01-30T09:44:16Z</time>
      </trkpt>
      <trkpt lat="48.73067" lon="2.02262">
        <ele>45.4</ele>
        <time>2026-01-30T09:44:17Z</time>
      </trkpt>
      <trkpt lat="48.73059" lon="2.02269">
        <ele>45.4</ele>
        <time>2026-01-30T09:44:18Z</time>
      </trkpt>
      <trkpt lat="48.73051" lon="2.02277">
        <ele>44.8</ele>
        <time>2026-01-30T09:44:19Z</time>
      </trkpt>
      <trkpt lat="48.73043" lon="2.02284">
        <ele>45</ele>
        <time>2026-01-30T09:44:20Z</time>
      </trkpt>
      <trkpt lat="48.73035" lon="2.0229">
        <ele>45</ele>
        <time>2026-01-30T09:44:21Z</time>
      </trkpt>
      <trkpt lat="48.73028" lon="2.02296">
        <ele>45</ele>
        <time>2026-01-30T09:44:22Z</time>
      </trkpt>
      <trkpt lat="48.7302" lon="2.02301">
        <ele>45.8</ele>
        <time>2026-01-30T09:44:23Z</time>
      </trkpt>
      <trkpt lat="48.73013" lon="2.02307">
        <ele>45.8</ele>
        <time>2026-01-30T09:44:24Z</time>
      </trkpt>
      <trkpt lat="48.73005" lon="2.02312">
        <ele>45.8</ele>
        <time>2026-01-30T09:44:25Z</time>
      </trkpt>
      <trkpt lat="48.72999" lon="2.02317">
        <ele>45.8</ele>
        <time>2026-01-30T09:44:26Z</time>
      </trkpt>
      <trkpt lat="48.72992" lon="2.02322">
        <ele>46.6</ele>
        <time>2026-01-30T09:44:27Z</time>
      </trkpt>
      <trkpt lat="48.72985" lon="2.02328">
        <ele>47.2</ele>
        <time>2026-01-30T09:44:28Z</time>
      </trkpt>
      <trkpt lat="48.72978" lon="2.02333">
        <ele>47.2</ele>
        <time>2026-01-30T09:44:29Z</time>
      </trkpt>
      <trkpt lat="48.72972" lon="2.02338">
        <ele>47.2</ele>
        <time>2026-01-30T09:44:30Z</time>
      </trkpt>
      <trkpt lat="48.72965" lon="2.02342">
        <ele>47.2</ele>
        <time>2026-01-30T09:44:31Z</time>
      </trkpt>
      <trkpt lat="48.72959" lon="2.02347">
        <ele>47.4</ele>
        <time>2026-01-30T09:44:32Z</time>
      </trkpt>
      <trkpt lat="48.72953" lon="2.02352">
        <ele>47.4</ele>
        <time>2026-01-30T09:44:33Z</time>
      </trkpt>
      <trkpt lat="48.72946" lon="2.02357">
        <ele>47.4</ele>
        <time>2026-01-30T09:44:34Z</time>
      </trkpt>
      <trkpt lat="48.7294" lon="2.02362">
        <ele>47</ele>
        <time>2026-01-30T09:44:35Z</time>
      </trkpt>
      <trkpt lat="48.72934" lon="2.02366">
        <ele>46.6</ele>
        <time>2026-01-30T09:44:36Z</time>
      </trkpt>
      <trkpt lat="48.72928" lon="2.0237">
        <ele>46.6</ele>
        <time>2026-01-30T09:44:37Z</time>
      </trkpt>
      <trkpt lat="48.72921" lon="2.02374">
        <ele>46.6</ele>
        <time>2026-01-30T09:44:38Z</time>
      </trkpt>
      <trkpt lat="48.72915" lon="2.02379">
        <ele>46.8</ele>
        <time>2026-01-30T09:44:39Z</time>
      </trkpt>
      <trkpt lat="48.72909" lon="2.02383">
        <ele>46.6</ele>
        <time>2026-01-30T09:44:40Z</time>
      </trkpt>
      <trkpt lat="48.72903" lon="2.02388">
        <ele>46.6</ele>
        <time>2026-01-30T09:44:41Z</time>
      </trkpt>
      <trkpt lat="48.72896" lon="2.02393">
        <ele>46.6</ele>
        <time>2026-01-30T09:44:42Z</time>
      </trkpt>
      <trkpt lat="48.7289" lon="2.02398">
        <ele>47.6</ele>
        <time>2026-01-30T09:44:43Z</time>
      </trkpt>
      <trkpt lat="48.72884" lon="2.02403">
        <ele>47.4</ele>
        <time>2026-01-30T09:44:44Z</time>
      </trkpt>
      <trkpt lat="48.72877" lon="2.02407">
        <ele>47.4</ele>
        <time>2026-01-30T09:44:45Z</time>
      </trkpt>
      <trkpt lat="48.72871" lon="2.02412">
        <ele>47.4</ele>
        <time>2026-01-30T09:44:46Z</time>
      </trkpt>
      <trkpt lat="48.72865" lon="2.02417">
        <ele>47.4</ele>
        <time>2026-01-30T09:44:47Z</time>
      </trkpt>
      <trkpt lat="48.72858" lon="2.02421">
        <ele>47.4</ele>
        <time>2026-01-30T09:44:48Z</time>
      </trkpt>
      <trkpt lat="48.72852" lon="2.02426">
        <ele>47.4</ele>
        <time>2026-01-30T09:44:49Z</time>
      </trkpt>
      <trkpt lat="48.72846" lon="2.0243">
        <ele>47.4</ele>
        <time>2026-01-30T09:44:50Z</time>
      </trkpt>
      <trkpt lat="48.7284" lon="2.02435">
        <ele>47.8</ele>
        <time>2026-01-30T09:44:51Z</time>
      </trkpt>
      <trkpt lat="48.72834" lon="2.02439">
        <ele>48.4</ele>
        <time>2026-01-30T09:44:52Z</time>
      </trkpt>
      <trkpt lat="48.72828" lon="2.02444">
        <ele>48.4</ele>
        <time>2026-01-30T09:44:53Z</time>
      </trkpt>
      <trkpt lat="48.72822" lon="2.02448">
        <ele>48.4</ele>
        <time>2026-01-30T09:44:54Z</time>
      </trkpt>
      <trkpt lat="48.72816" lon="2.02453">
        <ele>47.4</ele>
        <time>2026-01-30T09:44:55Z</time>
      </trkpt>
      <trkpt lat="48.7281" lon="2.02457">
        <ele>47.6</ele>
        <time>2026-01-30T09:44:56Z</time>
      </trkpt>
      <trkpt lat="48.72804" lon="2.02461">
        <ele>47.6</ele>
        <time>2026-01-30T09:44:57Z</time>
      </trkpt>
      <trkpt lat="48.72799" lon="2.02465">
        <ele>47.6</ele>
        <time>2026-01-30T09:44:58Z</time>
      </trkpt>
      <trkpt lat="48.72793" lon="2.02468">
        <ele>47.6</ele>
        <time>2026-01-30T09:44:59Z</time>
      </trkpt>
      <trkpt lat="48.72787" lon="2.02471">
        <ele>47.6</ele>
        <time>2026-01-30T09:45:00Z</time>
      </trkpt>
      <trkpt lat="48.72781" lon="2.02473">
        <ele>47.6</ele>
        <time>2026-01-30T09:45:01Z</time>
      </trkpt>
      <trkpt lat="48.72775" lon="2.02475">
        <ele>47.6</ele>
        <time>2026-01-30T09:45:02Z</time>
      </trkpt>
      <trkpt lat="48.72769" lon="2.02478">
        <ele>47.8</ele>
        <time>2026-01-30T09:45:03Z</time>
      </trkpt>
      <trkpt lat="48.72763" lon="2.02481">
        <ele>48.2</ele>
        <time>2026-01-30T09:45:04Z</time>
      </trkpt>
      <trkpt lat="48.72757" lon="2.02486">
        <ele>48.2</ele>
        <time>2026-01-30T09:45:05Z</time>
      </trkpt>
      <trkpt lat="48.72751" lon="2.02491">
        <ele>48.2</ele>
        <time>2026-01-30T09:45:06Z</time>
      </trkpt>
      <trkpt lat="48.72746" lon="2.02496">
        <ele>47.2</ele>
        <time>2026-01-30T09:45:07Z</time>
      </trkpt>
      <trkpt lat="48.7274" lon="2.02501">
        <ele>46.4</ele>
        <time>2026-01-30T09:45:08Z</time>
      </trkpt>
      <trkpt lat="48.72735" lon="2.02506">
        <ele>46.4</ele>
        <time>2026-01-30T09:45:09Z</time>
      </trkpt>
      <trkpt lat="48.72731" lon="2.02515">
        <ele>46.4</ele>
        <time>2026-01-30T09:45:10Z</time>
      </trkpt>
      <trkpt lat="48.72728" lon="2.02523">
        <ele>47.2</ele>
        <time>2026-01-30T09:45:11Z</time>
      </trkpt>
      <trkpt lat="48.72726" lon="2.02533">
        <ele>47.2</ele>
        <time>2026-01-30T09:45:12Z</time>
      </trkpt>
      <trkpt lat="48.72724" lon="2.02543">
        <ele>47.2</ele>
        <time>2026-01-30T09:45:13Z</time>
      </trkpt>
      <trkpt lat="48.72723" lon="2.02555">
        <ele>47.2</ele>
        <time>2026-01-30T09:45:14Z</time>
      </trkpt>
      <trkpt lat="48.72723" lon="2.02566">
        <ele>46.2</ele>
        <time>2026-01-30T09:45:15Z</time>
      </trkpt>
      <trkpt lat="48.72722" lon="2.02577">
        <ele>45.2</ele>
        <time>2026-01-30T09:45:16Z</time>
      </trkpt>
      <trkpt lat="48.72721" lon="2.02588">
        <ele>45.2</ele>
        <time>2026-01-30T09:45:17Z</time>
      </trkpt>
      <trkpt lat="48.72721" lon="2.02599">
        <ele>45.2</ele>
        <time>2026-01-30T09:45:18Z</time>
      </trkpt>
      <trkpt lat="48.7272" lon="2.02611">
        <ele>45.2</ele>
        <time>2026-01-30T09:45:19Z</time>
      </trkpt>
      <trkpt lat="48.7272" lon="2.02624">
        <ele>44.8</ele>
        <time>2026-01-30T09:45:20Z</time>
      </trkpt>
      <trkpt lat="48.72719" lon="2.02635">
        <ele>44.8</ele>
        <time>2026-01-30T09:45:21Z</time>
      </trkpt>
      <trkpt lat="48.72719" lon="2.02646">
        <ele>44.8</ele>
        <time>2026-01-30T09:45:22Z</time>
      </trkpt>
      <trkpt lat="48.72719" lon="2.02659">
        <ele>44.8</ele>
        <time>2026-01-30T09:45:23Z</time>
      </trkpt>
      <trkpt lat="48.72718" lon="2.02672">
        <ele>42.6</ele>
        <time>2026-01-30T09:45:24Z</time>
      </trkpt>
      <trkpt lat="48.72718" lon="2.02684">
        <ele>42.6</ele>
        <time>2026-01-30T09:45:25Z</time>
      </trkpt>
      <trkpt lat="48.72718" lon="2.02697">
        <ele>42.6</ele>
        <time>2026-01-30T09:45:26Z</time>
      </trkpt>
      <trkpt lat="48.72717" lon="2.02709">
        <ele>42.2</ele>
        <time>2026-01-30T09:45:27Z</time>
      </trkpt>
      <trkpt lat="48.72716" lon="2.02722">
        <ele>42</ele>
        <time>2026-01-30T09:45:28Z</time>
      </trkpt>
      <trkpt lat="48.72716" lon="2.02734">
        <ele>42</ele>
        <time>2026-01-30T09:45:29Z</time>
      </trkpt>
      <trkpt lat="48.72715" lon="2.02747">
        <ele>42</ele>
        <time>2026-01-30T09:45:30Z</time>
      </trkpt>
      <trkpt lat="48.72715" lon="2.0276">
        <ele>42</ele>
        <time>2026-01-30T09:45:31Z</time>
      </trkpt>
      <trkpt lat="48.72714" lon="2.02774">
        <ele>42.2</ele>
        <time>2026-01-30T09:45:32Z</time>
      </trkpt>
      <trkpt lat="48.72714" lon="2.02786">
        <ele>42.2</ele>
        <time>2026-01-30T09:45:33Z</time>
      </trkpt>
      <trkpt lat="48.72713" lon="2.02797">
        <ele>42.2</ele>
        <time>2026-01-30T09:45:34Z</time>
      </trkpt>
      <trkpt lat="48.72713" lon="2.02808">
        <ele>42.2</ele>
        <time>2026-01-30T09:45:35Z</time>
      </trkpt>
      <trkpt lat="48.72712" lon="2.0282">
        <ele>42.2</ele>
        <time>2026-01-30T09:45:36Z</time>
      </trkpt>
      <trkpt lat="48.72712" lon="2.02831">
        <ele>42.2</ele>
        <time>2026-01-30T09:45:37Z</time>
      </trkpt>
      <trkpt lat="48.72712" lon="2.02844">
        <ele>42.2</ele>
        <time>2026-01-30T09:45:38Z</time>
      </trkpt>
      <trkpt lat="48.72711" lon="2.02857">
        <ele>42.8</ele>
        <time>2026-01-30T09:45:39Z</time>
      </trkpt>
      <trkpt lat="48.7271" lon="2.02869">
        <ele>42.8</ele>
        <time>2026-01-30T09:45:40Z</time>
      </trkpt>
      <trkpt lat="48.72711" lon="2.02879">
        <ele>42.8</ele>
        <time>2026-01-30T09:45:41Z</time>
      </trkpt>
      <trkpt lat="48.7271" lon="2.02889">
        <ele>42.8</ele>
        <time>2026-01-30T09:45:42Z</time>
      </trkpt>
      <trkpt lat="48.72709" lon="2.02899">
        <ele>42.8</ele>
        <time>2026-01-30T09:45:43Z</time>
      </trkpt>
      <trkpt lat="48.72709" lon="2.02908">
        <ele>42.8</ele>
        <time>2026-01-30T09:45:44Z</time>
      </trkpt>
      <trkpt lat="48.72708" lon="2.02916">
        <ele>42.8</ele>
        <time>2026-01-30T09:45:45Z</time>
      </trkpt>
      <trkpt lat="48.72707" lon="2.02925">
        <ele>42.8</ele>
        <time>2026-01-30T09:45:46Z</time>
      </trkpt>
      <trkpt lat="48.72705" lon="2.02935">
        <ele>43.8</ele>
        <time>2026-01-30T09:45:47Z</time>
      </trkpt>
      <trkpt lat="48.72702" lon="2.02944">
        <ele>44.2</ele>
        <time>2026-01-30T09:45:48Z</time>
      </trkpt>
      <trkpt lat="48.727" lon="2.02952">
        <ele>44.2</ele>
        <time>2026-01-30T09:45:49Z</time>
      </trkpt>
      <trkpt lat="48.72698" lon="2.02963">
        <ele>44.2</ele>
        <time>2026-01-30T09:45:50Z</time>
      </trkpt>
      <trkpt lat="48.72696" lon="2.02972">
        <ele>44.2</ele>
        <time>2026-01-30T09:45:51Z</time>
      </trkpt>
      <trkpt lat="48.72693" lon="2.02981">
        <ele>44.2</ele>
        <time>2026-01-30T09:45:52Z</time>
      </trkpt>
      <trkpt lat="48.72691" lon="2.0299">
        <ele>44.2</ele>
        <time>2026-01-30T09:45:53Z</time>
      </trkpt>
      <trkpt lat="48.72689" lon="2.03">
        <ele>44.2</ele>
        <time>2026-01-30T09:45:54Z</time>
      </trkpt>
      <trkpt lat="48.72686" lon="2.03008">
        <ele>44.6</ele>
        <time>2026-01-30T09:45:55Z</time>
      </trkpt>
      <trkpt lat="48.72684" lon="2.03018">
        <ele>44.8</ele>
        <time>2026-01-30T09:45:56Z</time>
      </trkpt>
      <trkpt lat="48.72681" lon="2.03028">
        <ele>44.8</ele>
        <time>2026-01-30T09:45:57Z</time>
      </trkpt>
      <trkpt lat="48.72679" lon="2.03036">
        <ele>44.8</ele>
        <time>2026-01-30T09:45:58Z</time>
      </trkpt>
      <trkpt lat="48.72677" lon="2.03045">
        <ele>44.8</ele>
        <time>2026-01-30T09:45:59Z</time>
      </trkpt>
      <trkpt lat="48.72675" lon="2.03054">
        <ele>46</ele>
        <time>2026-01-30T09:46:00Z</time>
      </trkpt>
      <trkpt lat="48.72673" lon="2.03061">
        <ele>46</ele>
        <time>2026-01-30T09:46:01Z</time>
      </trkpt>
      <trkpt lat="48.72671" lon="2.03068">
        <ele>46</ele>
        <time>2026-01-30T09:46:02Z</time>
      </trkpt>
      <trkpt lat="48.72669" lon="2.03076">
        <ele>47</ele>
        <time>2026-01-30T09:46:03Z</time>
      </trkpt>
      <trkpt lat="48.72668" lon="2.03084">
        <ele>47</ele>
        <time>2026-01-30T09:46:04Z</time>
      </trkpt>
      <trkpt lat="48.72667" lon="2.03093">
        <ele>47</ele>
        <time>2026-01-30T09:46:05Z</time>
      </trkpt>
      <trkpt lat="48.72665" lon="2.03106">
        <ele>47</ele>
        <time>2026-01-30T09:46:06Z</time>
      </trkpt>
      <trkpt lat="48.72665" lon="2.03119">
        <ele>47</ele>
        <time>2026-01-30T09:46:07Z</time>
      </trkpt>
      <trkpt lat="48.72666" lon="2.0313">
        <ele>47.6</ele>
        <time>2026-01-30T09:46:08Z</time>
      </trkpt>
      <trkpt lat="48.72667" lon="2.03141">
        <ele>47.6</ele>
        <time>2026-01-30T09:46:09Z</time>
      </trkpt>
      <trkpt lat="48.72668" lon="2.03156">
        <ele>47.6</ele>
        <time>2026-01-30T09:46:10Z</time>
      </trkpt>
      <trkpt lat="48.72669" lon="2.03166">
        <ele>47.6</ele>
        <time>2026-01-30T09:46:11Z</time>
      </trkpt>
      <trkpt lat="48.7267" lon="2.03174">
        <ele>48</ele>
        <time>2026-01-30T09:46:12Z</time>
      </trkpt>
      <trkpt lat="48.72671" lon="2.03184">
        <ele>48</ele>
        <time>2026-01-30T09:46:13Z</time>
      </trkpt>
      <trkpt lat="48.72673" lon="2.03192">
        <ele>48</ele>
        <time>2026-01-30T09:46:14Z</time>
      </trkpt>
      <trkpt lat="48.72673" lon="2.03199">
        <ele>49</ele>
        <time>2026-01-30T09:46:15Z</time>
      </trkpt>
      <trkpt lat="48.72674" lon="2.03208">
        <ele>49.2</ele>
        <time>2026-01-30T09:46:16Z</time>
      </trkpt>
      <trkpt lat="48.72675" lon="2.03221">
        <ele>49.2</ele>
        <time>2026-01-30T09:46:17Z</time>
      </trkpt>
      <trkpt lat="48.72676" lon="2.03229">
        <ele>49.2</ele>
        <time>2026-01-30T09:46:18Z</time>
      </trkpt>
      <trkpt lat="48.72678" lon="2.03237">
        <ele>50</ele>
        <time>2026-01-30T09:46:19Z</time>
      </trkpt>
      <trkpt lat="48.72679" lon="2.03247">
        <ele>50.6</ele>
        <time>2026-01-30T09:46:20Z</time>
      </trkpt>
      <trkpt lat="48.72681" lon="2.03261">
        <ele>50.6</ele>
        <time>2026-01-30T09:46:21Z</time>
      </trkpt>
      <trkpt lat="48.72682" lon="2.03272">
        <ele>50.6</ele>
        <time>2026-01-30T09:46:22Z</time>
      </trkpt>
      <trkpt lat="48.72682" lon="2.03283">
        <ele>50.6</ele>
        <time>2026-01-30T09:46:23Z</time>
      </trkpt>
      <trkpt lat="48.72682" lon="2.03292">
        <ele>51</ele>
        <time>2026-01-30T09:46:24Z</time>
      </trkpt>
      <trkpt lat="48.72683" lon="2.03301">
        <ele>51</ele>
        <time>2026-01-30T09:46:25Z</time>
      </trkpt>
      <trkpt lat="48.72683" lon="2.03311">
        <ele>51</ele>
        <time>2026-01-30T09:46:26Z</time>
      </trkpt>
      <trkpt lat="48.72682" lon="2.03319">
        <ele>51</ele>
        <time>2026-01-30T09:46:27Z</time>
      </trkpt>
      <trkpt lat="48.72683" lon="2.03328">
        <ele>49.8</ele>
        <time>2026-01-30T09:46:28Z</time>
      </trkpt>
      <trkpt lat="48.72683" lon="2.03337">
        <ele>49.8</ele>
        <time>2026-01-30T09:46:29Z</time>
      </trkpt>
      <trkpt lat="48.72685" lon="2.03349">
        <ele>49.8</ele>
        <time>2026-01-30T09:46:30Z</time>
      </trkpt>
      <trkpt lat="48.72685" lon="2.03361">
        <ele>48.8</ele>
        <time>2026-01-30T09:46:31Z</time>
      </trkpt>
      <trkpt lat="48.72686" lon="2.03372">
        <ele>47.2</ele>
        <time>2026-01-30T09:46:32Z</time>
      </trkpt>
      <trkpt lat="48.72687" lon="2.03384">
        <ele>47.2</ele>
        <time>2026-01-30T09:46:33Z</time>
      </trkpt>
      <trkpt lat="48.72688" lon="2.03397">
        <ele>47.2</ele>
        <time>2026-01-30T09:46:34Z</time>
      </trkpt>
      <trkpt lat="48.72688" lon="2.0341">
        <ele>46.2</ele>
        <time>2026-01-30T09:46:35Z</time>
      </trkpt>
      <trkpt lat="48.72686" lon="2.03422">
        <ele>44.8</ele>
        <time>2026-01-30T09:46:36Z</time>
      </trkpt>
      <trkpt lat="48.72685" lon="2.03436">
        <ele>44.8</ele>
        <time>2026-01-30T09:46:37Z</time>
      </trkpt>
      <trkpt lat="48.72683" lon="2.03449">
        <ele>44.8</ele>
        <time>2026-01-30T09:46:38Z</time>
      </trkpt>
      <trkpt lat="48.72683" lon="2.03461">
        <ele>43.8</ele>
        <time>2026-01-30T09:46:39Z</time>
      </trkpt>
      <trkpt lat="48.72681" lon="2.03473">
        <ele>44.6</ele>
        <time>2026-01-30T09:46:40Z</time>
      </trkpt>
      <trkpt lat="48.7268" lon="2.03486">
        <ele>44.6</ele>
        <time>2026-01-30T09:46:41Z</time>
      </trkpt>
      <trkpt lat="48.7268" lon="2.03499">
        <ele>44.6</ele>
        <time>2026-01-30T09:46:42Z</time>
      </trkpt>
      <trkpt lat="48.72679" lon="2.03513">
        <ele>44</ele>
        <time>2026-01-30T09:46:43Z</time>
      </trkpt>
      <trkpt lat="48.72678" lon="2.03527">
        <ele>43.6</ele>
        <time>2026-01-30T09:46:44Z</time>
      </trkpt>
      <trkpt lat="48.72678" lon="2.03539">
        <ele>43.6</ele>
        <time>2026-01-30T09:46:45Z</time>
      </trkpt>
      <trkpt lat="48.72678" lon="2.03549">
        <ele>43.6</ele>
        <time>2026-01-30T09:46:46Z</time>
      </trkpt>
      <trkpt lat="48.72678" lon="2.03559">
        <ele>44.2</ele>
        <time>2026-01-30T09:46:47Z</time>
      </trkpt>
      <trkpt lat="48.72675" lon="2.03568">
        <ele>45</ele>
        <time>2026-01-30T09:46:48Z</time>
      </trkpt>
      <trkpt lat="48.72673" lon="2.03577">
        <ele>45</ele>
        <time>2026-01-30T09:46:49Z</time>
      </trkpt>
      <trkpt lat="48.7267" lon="2.03586">
        <ele>45</ele>
        <time>2026-01-30T09:46:50Z</time>
      </trkpt>
      <trkpt lat="48.72666" lon="2.03593">
        <ele>45.6</ele>
        <time>2026-01-30T09:46:51Z</time>
      </trkpt>
      <trkpt lat="48.72663" lon="2.03602">
        <ele>45.4</ele>
        <time>2026-01-30T09:46:52Z</time>
      </trkpt>
      <trkpt lat="48.72659" lon="2.03607">
        <ele>45.4</ele>
        <time>2026-01-30T09:46:53Z</time>
      </trkpt>
      <trkpt lat="48.72656" lon="2.03615">
        <ele>45.4</ele>
        <time>2026-01-30T09:46:54Z</time>
      </trkpt>
      <trkpt lat="48.72653" lon="2.03624">
        <ele>44.4</ele>
        <time>2026-01-30T09:46:55Z</time>
      </trkpt>
      <trkpt lat="48.72651" lon="2.03637">
        <ele>43.6</ele>
        <time>2026-01-30T09:46:56Z</time>
      </trkpt>
      <trkpt lat="48.72649" lon="2.03649">
        <ele>43.6</ele>
        <time>2026-01-30T09:46:57Z</time>
      </trkpt>
      <trkpt lat="48.72648" lon="2.03662">
        <ele>43.6</ele>
        <time>2026-01-30T09:46:58Z</time>
      </trkpt>
      <trkpt lat="48.72649" lon="2.03674">
        <ele>43.2</ele>
        <time>2026-01-30T09:46:59Z</time>
      </trkpt>
      <trkpt lat="48.72649" lon="2.03684">
        <ele>43</ele>
        <time>2026-01-30T09:47:00Z</time>
      </trkpt>
      <trkpt lat="48.72651" lon="2.03696">
        <ele>43</ele>
        <time>2026-01-30T09:47:01Z</time>
      </trkpt>
      <trkpt lat="48.72653" lon="2.03711">
        <ele>43</ele>
        <time>2026-01-30T09:47:02Z</time>
      </trkpt>
      <trkpt lat="48.72655" lon="2.03724">
        <ele>43</ele>
        <time>2026-01-30T09:47:03Z</time>
      </trkpt>
      <trkpt lat="48.72657" lon="2.03735">
        <ele>43.8</ele>
        <time>2026-01-30T09:47:04Z</time>
      </trkpt>
      <trkpt lat="48.72658" lon="2.03744">
        <ele>43.8</ele>
        <time>2026-01-30T09:47:05Z</time>
      </trkpt>
      <trkpt lat="48.72659" lon="2.03754">
        <ele>43.8</ele>
        <time>2026-01-30T09:47:06Z</time>
      </trkpt>
      <trkpt lat="48.72659" lon="2.03763">
        <ele>44.8</ele>
        <time>2026-01-30T09:47:07Z</time>
      </trkpt>
      <trkpt lat="48.72657" lon="2.03772">
        <ele>45</ele>
        <time>2026-01-30T09:47:08Z</time>
      </trkpt>
      <trkpt lat="48.72657" lon="2.03779">
        <ele>45</ele>
        <time>2026-01-30T09:47:09Z</time>
      </trkpt>
      <trkpt lat="48.72655" lon="2.03788">
        <ele>45</ele>
        <time>2026-01-30T09:47:10Z</time>
      </trkpt>
      <trkpt lat="48.72652" lon="2.03795">
        <ele>45.2</ele>
        <time>2026-01-30T09:47:11Z</time>
      </trkpt>
      <trkpt lat="48.72651" lon="2.03805">
        <ele>45.2</ele>
        <time>2026-01-30T09:47:12Z</time>
      </trkpt>
      <trkpt lat="48.7265" lon="2.03815">
        <ele>45.2</ele>
        <time>2026-01-30T09:47:13Z</time>
      </trkpt>
      <trkpt lat="48.72652" lon="2.03829">
        <ele>45.2</ele>
        <time>2026-01-30T09:47:14Z</time>
      </trkpt>
      <trkpt lat="48.72653" lon="2.03841">
        <ele>44.2</ele>
        <time>2026-01-30T09:47:15Z</time>
      </trkpt>
      <trkpt lat="48.72657" lon="2.03853">
        <ele>42.6</ele>
        <time>2026-01-30T09:47:16Z</time>
      </trkpt>
      <trkpt lat="48.72661" lon="2.03865">
        <ele>42.6</ele>
        <time>2026-01-30T09:47:17Z</time>
      </trkpt>
      <trkpt lat="48.72668" lon="2.03881">
        <ele>42.6</ele>
        <time>2026-01-30T09:47:18Z</time>
      </trkpt>
      <trkpt lat="48.72675" lon="2.03895">
        <ele>41.6</ele>
        <time>2026-01-30T09:47:19Z</time>
      </trkpt>
      <trkpt lat="48.72681" lon="2.03911">
        <ele>38.8</ele>
        <time>2026-01-30T09:47:20Z</time>
      </trkpt>
      <trkpt lat="48.72686" lon="2.03927">
        <ele>38.8</ele>
        <time>2026-01-30T09:47:21Z</time>
      </trkpt>
      <trkpt lat="48.72689" lon="2.03947">
        <ele>38.8</ele>
        <time>2026-01-30T09:47:22Z</time>
      </trkpt>
      <trkpt lat="48.7269" lon="2.03964">
        <ele>37.8</ele>
        <time>2026-01-30T09:47:23Z</time>
      </trkpt>
      <trkpt lat="48.72689" lon="2.03983">
        <ele>35</ele>
        <time>2026-01-30T09:47:24Z</time>
      </trkpt>
      <trkpt lat="48.72686" lon="2.03999">
        <ele>35</ele>
        <time>2026-01-30T09:47:25Z</time>
      </trkpt>
      <trkpt lat="48.72684" lon="2.04014">
        <ele>35</ele>
        <time>2026-01-30T09:47:26Z</time>
      </trkpt>
      <trkpt lat="48.7268" lon="2.04029">
        <ele>35</ele>
        <time>2026-01-30T09:47:27Z</time>
      </trkpt>
      <trkpt lat="48.72678" lon="2.04044">
        <ele>33.6</ele>
        <time>2026-01-30T09:47:28Z</time>
      </trkpt>
      <trkpt lat="48.72675" lon="2.0406">
        <ele>33.6</ele>
        <time>2026-01-30T09:47:29Z</time>
      </trkpt>
      <trkpt lat="48.72672" lon="2.04075">
        <ele>33.6</ele>
        <time>2026-01-30T09:47:30Z</time>
      </trkpt>
      <trkpt lat="48.72669" lon="2.04091">
        <ele>34.2</ele>
        <time>2026-01-30T09:47:31Z</time>
      </trkpt>
      <trkpt lat="48.72667" lon="2.04106">
        <ele>34.2</ele>
        <time>2026-01-30T09:47:32Z</time>
      </trkpt>
      <trkpt lat="48.72664" lon="2.0412">
        <ele>34.2</ele>
        <time>2026-01-30T09:47:33Z</time>
      </trkpt>
      <trkpt lat="48.7266" lon="2.04134">
        <ele>34.2</ele>
        <time>2026-01-30T09:47:34Z</time>
      </trkpt>
      <trkpt lat="48.72656" lon="2.04147">
        <ele>35</ele>
        <time>2026-01-30T09:47:35Z</time>
      </trkpt>
      <trkpt lat="48.72652" lon="2.04159">
        <ele>35.6</ele>
        <time>2026-01-30T09:47:36Z</time>
      </trkpt>
      <trkpt lat="48.72647" lon="2.04171">
        <ele>35.6</ele>
        <time>2026-01-30T09:47:37Z</time>
      </trkpt>
      <trkpt lat="48.72642" lon="2.04181">
        <ele>35.6</ele>
        <time>2026-01-30T09:47:38Z</time>
      </trkpt>
      <trkpt lat="48.72636" lon="2.0419">
        <ele>36.6</ele>
        <time>2026-01-30T09:47:39Z</time>
      </trkpt>
      <trkpt lat="48.72631" lon="2.04199">
        <ele>37.2</ele>
        <time>2026-01-30T09:47:40Z</time>
      </trkpt>
      <trkpt lat="48.72625" lon="2.04207">
        <ele>37.2</ele>
        <time>2026-01-30T09:47:41Z</time>
      </trkpt>
      <trkpt lat="48.72619" lon="2.04216">
        <ele>37.2</ele>
        <time>2026-01-30T09:47:42Z</time>
      </trkpt>
      <trkpt lat="48.72612" lon="2.04225">
        <ele>36.2</ele>
        <time>2026-01-30T09:47:43Z</time>
      </trkpt>
      <trkpt lat="48.72606" lon="2.04233">
        <ele>36</ele>
        <time>2026-01-30T09:47:44Z</time>
      </trkpt>
      <trkpt lat="48.726" lon="2.04242">
        <ele>36</ele>
        <time>2026-01-30T09:47:45Z</time>
      </trkpt>
      <trkpt lat="48.72594" lon="2.04252">
        <ele>36</ele>
        <time>2026-01-30T09:47:46Z</time>
      </trkpt>
      <trkpt lat="48.7259" lon="2.04262">
        <ele>36</ele>
        <time>2026-01-30T09:47:47Z</time>
      </trkpt>
      <trkpt lat="48.72586" lon="2.04273">
        <ele>34.8</ele>
        <time>2026-01-30T09:47:48Z</time>
      </trkpt>
      <trkpt lat="48.72582" lon="2.04285">
        <ele>34.8</ele>
        <time>2026-01-30T09:47:49Z</time>
      </trkpt>
      <trkpt lat="48.72578" lon="2.04297">
        <ele>34.8</ele>
        <time>2026-01-30T09:47:50Z</time>
      </trkpt>
      <trkpt lat="48.72575" lon="2.04308">
        <ele>34.4</ele>
        <time>2026-01-30T09:47:51Z</time>
      </trkpt>
      <trkpt lat="48.72572" lon="2.0432">
        <ele>34.2</ele>
        <time>2026-01-30T09:47:52Z</time>
      </trkpt>
      <trkpt lat="48.72568" lon="2.04331">
        <ele>34.2</ele>
        <time>2026-01-30T09:47:53Z</time>
      </trkpt>
      <trkpt lat="48.72565" lon="2.04343">
        <ele>34.2</ele>
        <time>2026-01-30T09:47:54Z</time>
      </trkpt>
      <trkpt lat="48.72561" lon="2.04354">
        <ele>34.2</ele>
        <time>2026-01-30T09:47:55Z</time>
      </trkpt>
      <trkpt lat="48.72557" lon="2.04363">
        <ele>34.6</ele>
        <time>2026-01-30T09:47:56Z</time>
      </trkpt>
      <trkpt lat="48.72554" lon="2.04374">
        <ele>34.6</ele>
        <time>2026-01-30T09:47:57Z</time>
      </trkpt>
      <trkpt lat="48.72551" lon="2.04384">
        <ele>34.6</ele>
        <time>2026-01-30T09:47:58Z</time>
      </trkpt>
      <trkpt lat="48.72548" lon="2.04395">
        <ele>34.8</ele>
        <time>2026-01-30T09:47:59Z</time>
      </trkpt>
      <trkpt lat="48.72545" lon="2.04406">
        <ele>34.6</ele>
        <time>2026-01-30T09:48:00Z</time>
      </trkpt>
      <trkpt lat="48.72542" lon="2.04416">
        <ele>34.6</ele>
        <time>2026-01-30T09:48:01Z</time>
      </trkpt>
      <trkpt lat="48.72539" lon="2.04424">
        <ele>34.6</ele>
        <time>2026-01-30T09:48:02Z</time>
      </trkpt>
      <trkpt lat="48.72537" lon="2.04435">
        <ele>34.6</ele>
        <time>2026-01-30T09:48:03Z</time>
      </trkpt>
      <trkpt lat="48.72537" lon="2.04446">
        <ele>35.2</ele>
        <time>2026-01-30T09:48:04Z</time>
      </trkpt>
      <trkpt lat="48.72537" lon="2.04457">
        <ele>35.2</ele>
        <time>2026-01-30T09:48:05Z</time>
      </trkpt>
      <trkpt lat="48.7254" lon="2.04464">
        <ele>35.2</ele>
        <time>2026-01-30T09:48:06Z</time>
      </trkpt>
      <trkpt lat="48.72542" lon="2.04474">
        <ele>34.4</ele>
        <time>2026-01-30T09:48:07Z</time>
      </trkpt>
      <trkpt lat="48.72544" lon="2.04483">
        <ele>34.2</ele>
        <time>2026-01-30T09:48:08Z</time>
      </trkpt>
      <trkpt lat="48.72546" lon="2.04493">
        <ele>34.2</ele>
        <time>2026-01-30T09:48:09Z</time>
      </trkpt>
      <trkpt lat="48.72546" lon="2.04504">
        <ele>34.2</ele>
        <time>2026-01-30T09:48:10Z</time>
      </trkpt>
      <trkpt lat="48.72546" lon="2.04515">
        <ele>33.2</ele>
        <time>2026-01-30T09:48:11Z</time>
      </trkpt>
      <trkpt lat="48.72546" lon="2.04527">
        <ele>33.2</ele>
        <time>2026-01-30T09:48:12Z</time>
      </trkpt>
      <trkpt lat="48.72546" lon="2.0454">
        <ele>33.2</ele>
        <time>2026-01-30T09:48:13Z</time>
      </trkpt>
      <trkpt lat="48.72544" lon="2.04553">
        <ele>33.2</ele>
        <time>2026-01-30T09:48:14Z</time>
      </trkpt>
      <trkpt lat="48.72542" lon="2.04566">
        <ele>33.2</ele>
        <time>2026-01-30T09:48:15Z</time>
      </trkpt>
      <trkpt lat="48.7254" lon="2.04579">
        <ele>33</ele>
        <time>2026-01-30T09:48:16Z</time>
      </trkpt>
      <trkpt lat="48.72538" lon="2.04592">
        <ele>33</ele>
        <time>2026-01-30T09:48:17Z</time>
      </trkpt>
      <trkpt lat="48.72536" lon="2.04605">
        <ele>33</ele>
        <time>2026-01-30T09:48:18Z</time>
      </trkpt>
      <trkpt lat="48.72533" lon="2.04617">
        <ele>33</ele>
        <time>2026-01-30T09:48:19Z</time>
      </trkpt>
      <trkpt lat="48.72532" lon="2.04629">
        <ele>32.4</ele>
        <time>2026-01-30T09:48:20Z</time>
      </trkpt>
      <trkpt lat="48.72532" lon="2.04642">
        <ele>32.4</ele>
        <time>2026-01-30T09:48:21Z</time>
      </trkpt>
      <trkpt lat="48.72534" lon="2.04654">
        <ele>32.4</ele>
        <time>2026-01-30T09:48:22Z</time>
      </trkpt>
      <trkpt lat="48.72536" lon="2.04667">
        <ele>32.4</ele>
        <time>2026-01-30T09:48:23Z</time>
      </trkpt>
      <trkpt lat="48.72539" lon="2.04679">
        <ele>33</ele>
        <time>2026-01-30T09:48:24Z</time>
      </trkpt>
      <trkpt lat="48.72541" lon="2.04692">
        <ele>33</ele>
        <time>2026-01-30T09:48:25Z</time>
      </trkpt>
      <trkpt lat="48.72544" lon="2.04703">
        <ele>33</ele>
        <time>2026-01-30T09:48:26Z</time>
      </trkpt>
      <trkpt lat="48.72547" lon="2.04715">
        <ele>33</ele>
        <time>2026-01-30T09:48:27Z</time>
      </trkpt>
      <trkpt lat="48.72549" lon="2.04727">
        <ele>33.2</ele>
        <time>2026-01-30T09:48:28Z</time>
      </trkpt>
      <trkpt lat="48.72551" lon="2.04739">
        <ele>33.2</ele>
        <time>2026-01-30T09:48:29Z</time>
      </trkpt>
      <trkpt lat="48.72553" lon="2.04752">
        <ele>33.2</ele>
        <time>2026-01-30T09:48:30Z</time>
      </trkpt>
      <trkpt lat="48.72555" lon="2.04764">
        <ele>33</ele>
        <time>2026-01-30T09:48:31Z</time>
      </trkpt>
      <trkpt lat="48.72556" lon="2.04776">
        <ele>32.8</ele>
        <time>2026-01-30T09:48:32Z</time>
      </trkpt>
      <trkpt lat="48.72557" lon="2.04788">
        <ele>32.8</ele>
        <time>2026-01-30T09:48:33Z</time>
      </trkpt>
      <trkpt lat="48.72558" lon="2.04799">
        <ele>32.8</ele>
        <time>2026-01-30T09:48:34Z</time>
      </trkpt>
      <trkpt lat="48.72559" lon="2.04811">
        <ele>33.6</ele>
        <time>2026-01-30T09:48:35Z</time>
      </trkpt>
      <trkpt lat="48.7256" lon="2.04823">
        <ele>32.4</ele>
        <time>2026-01-30T09:48:36Z</time>
      </trkpt>
      <trkpt lat="48.72561" lon="2.04835">
        <ele>32.4</ele>
        <time>2026-01-30T09:48:37Z</time>
      </trkpt>
      <trkpt lat="48.72561" lon="2.04847">
        <ele>32.4</ele>
        <time>2026-01-30T09:48:38Z</time>
      </trkpt>
      <trkpt lat="48.7256" lon="2.04858">
        <ele>32.2</ele>
        <time>2026-01-30T09:48:39Z</time>
      </trkpt>
      <trkpt lat="48.72558" lon="2.04869">
        <ele>32</ele>
        <time>2026-01-30T09:48:40Z</time>
      </trkpt>
      <trkpt lat="48.72556" lon="2.0488">
        <ele>32</ele>
        <time>2026-01-30T09:48:41Z</time>
      </trkpt>
      <trkpt lat="48.72554" lon="2.0489">
        <ele>32</ele>
        <time>2026-01-30T09:48:42Z</time>
      </trkpt>
      <trkpt lat="48.72551" lon="2.04901">
        <ele>32</ele>
        <time>2026-01-30T09:48:43Z</time>
      </trkpt>
      <trkpt lat="48.72549" lon="2.04912">
        <ele>33.2</ele>
        <time>2026-01-30T09:48:44Z</time>
      </trkpt>
      <trkpt lat="48.72547" lon="2.04924">
        <ele>33.2</ele>
        <time>2026-01-30T09:48:45Z</time>
      </trkpt>
      <trkpt lat="48.72545" lon="2.04935">
        <ele>33.2</ele>
        <time>2026-01-30T09:48:46Z</time>
      </trkpt>
      <trkpt lat="48.72543" lon="2.04945">
        <ele>32.8</ele>
        <time>2026-01-30T09:48:47Z</time>
      </trkpt>
      <trkpt lat="48.7254" lon="2.04956">
        <ele>33.2</ele>
        <time>2026-01-30T09:48:48Z</time>
      </trkpt>
      <trkpt lat="48.72537" lon="2.04966">
        <ele>33.2</ele>
        <time>2026-01-30T09:48:49Z</time>
      </trkpt>
      <trkpt lat="48.72535" lon="2.04975">
        <ele>33.2</ele>
        <time>2026-01-30T09:48:50Z</time>
      </trkpt>
      <trkpt lat="48.72532" lon="2.04985">
        <ele>33.2</ele>
        <time>2026-01-30T09:48:51Z</time>
      </trkpt>
      <trkpt lat="48.72528" lon="2.04994">
        <ele>34.8</ele>
        <time>2026-01-30T09:48:52Z</time>
      </trkpt>
      <trkpt lat="48.72525" lon="2.05004">
        <ele>34.8</ele>
        <time>2026-01-30T09:48:53Z</time>
      </trkpt>
      <trkpt lat="48.72522" lon="2.05013">
        <ele>34.8</ele>
        <time>2026-01-30T09:48:54Z</time>
      </trkpt>
      <trkpt lat="48.72518" lon="2.05022">
        <ele>35</ele>
        <time>2026-01-30T09:48:55Z</time>
      </trkpt>
      <trkpt lat="48.72514" lon="2.05031">
        <ele>35.8</ele>
        <time>2026-01-30T09:48:56Z</time>
      </trkpt>
      <trkpt lat="48.7251" lon="2.05039">
        <ele>35.8</ele>
        <time>2026-01-30T09:48:57Z</time>
      </trkpt>
      <trkpt lat="48.72506" lon="2.05047">
        <ele>35.8</ele>
        <time>2026-01-30T09:48:58Z</time>
      </trkpt>
      <trkpt lat="48.72501" lon="2.05055">
        <ele>34.8</ele>
        <time>2026-01-30T09:48:59Z</time>
      </trkpt>
      <trkpt lat="48.72497" lon="2.05062">
        <ele>34</ele>
        <time>2026-01-30T09:49:00Z</time>
      </trkpt>
      <trkpt lat="48.72492" lon="2.0507">
        <ele>34</ele>
        <time>2026-01-30T09:49:01Z</time>
      </trkpt>
      <trkpt lat="48.72488" lon="2.05076">
        <ele>34</ele>
        <time>2026-01-30T09:49:02Z</time>
      </trkpt>
      <trkpt lat="48.72483" lon="2.05082">
        <ele>34.4</ele>
        <time>2026-01-30T09:49:03Z</time>
      </trkpt>
      <trkpt lat="48.72479" lon="2.05088">
        <ele>34.6</ele>
        <time>2026-01-30T09:49:04Z</time>
      </trkpt>
      <trkpt lat="48.72474" lon="2.05094">
        <ele>34.6</ele>
        <time>2026-01-30T09:49:05Z</time>
      </trkpt>
      <trkpt lat="48.7247" lon="2.05101">
        <ele>34.6</ele>
        <time>2026-01-30T09:49:06Z</time>
      </trkpt>
      <trkpt lat="48.72467" lon="2.05108">
        <ele>34.8</ele>
        <time>2026-01-30T09:49:07Z</time>
      </trkpt>
      <trkpt lat="48.72463" lon="2.05115">
        <ele>34.6</ele>
        <time>2026-01-30T09:49:08Z</time>
      </trkpt>
      <trkpt lat="48.72461" lon="2.05124">
        <ele>34.6</ele>
        <time>2026-01-30T09:49:09Z</time>
      </trkpt>
      <trkpt lat="48.72459" lon="2.05133">
        <ele>34.6</ele>
        <time>2026-01-30T09:49:10Z</time>
      </trkpt>
      <trkpt lat="48.72457" lon="2.05143">
        <ele>35.4</ele>
        <time>2026-01-30T09:49:11Z</time>
      </trkpt>
      <trkpt lat="48.72456" lon="2.05153">
        <ele>35.2</ele>
        <time>2026-01-30T09:49:12Z</time>
      </trkpt>
      <trkpt lat="48.72455" lon="2.05165">
        <ele>35.2</ele>
        <time>2026-01-30T09:49:13Z</time>
      </trkpt>
      <trkpt lat="48.72454" lon="2.05176">
        <ele>35.2</ele>
        <time>2026-01-30T09:49:14Z</time>
      </trkpt>
      <trkpt lat="48.72454" lon="2.05186">
        <ele>35.2</ele>
        <time>2026-01-30T09:49:15Z</time>
      </trkpt>
      <trkpt lat="48.72453" lon="2.05198">
        <ele>34.8</ele>
        <time>2026-01-30T09:49:16Z</time>
      </trkpt>
      <trkpt lat="48.72453" lon="2.0521">
        <ele>34.8</ele>
        <time>2026-01-30T09:49:17Z</time>
      </trkpt>
      <trkpt lat="48.72452" lon="2.05221">
        <ele>34.8</ele>
        <time>2026-01-30T09:49:18Z</time>
      </trkpt>
      <trkpt lat="48.72452" lon="2.05233">
        <ele>35.4</ele>
        <time>2026-01-30T09:49:19Z</time>
      </trkpt>
      <trkpt lat="48.72451" lon="2.05244">
        <ele>35</ele>
        <time>2026-01-30T09:49:20Z</time>
      </trkpt>
      <trkpt lat="48.72451" lon="2.05255">
        <ele>35</ele>
        <time>2026-01-30T09:49:21Z</time>
      </trkpt>
      <trkpt lat="48.7245" lon="2.05267">
        <ele>35</ele>
        <time>2026-01-30T09:49:22Z</time>
      </trkpt>
      <trkpt lat="48.7245" lon="2.05278">
        <ele>35.2</ele>
        <time>2026-01-30T09:49:23Z</time>
      </trkpt>
      <trkpt lat="48.72449" lon="2.0529">
        <ele>35.6</ele>
        <time>2026-01-30T09:49:24Z</time>
      </trkpt>
      <trkpt lat="48.72449" lon="2.05302">
        <ele>35.6</ele>
        <time>2026-01-30T09:49:25Z</time>
      </trkpt>
      <trkpt lat="48.72448" lon="2.05314">
        <ele>35.6</ele>
        <time>2026-01-30T09:49:26Z</time>
      </trkpt>
      <trkpt lat="48.72448" lon="2.05325">
        <ele>35.6</ele>
        <time>2026-01-30T09:49:27Z</time>
      </trkpt>
      <trkpt lat="48.72447" lon="2.05337">
        <ele>36.2</ele>
        <time>2026-01-30T09:49:28Z</time>
      </trkpt>
      <trkpt lat="48.72446" lon="2.05349">
        <ele>36.2</ele>
        <time>2026-01-30T09:49:29Z</time>
      </trkpt>
      <trkpt lat="48.72445" lon="2.05361">
        <ele>36.2</ele>
        <time>2026-01-30T09:49:30Z</time>
      </trkpt>
      <trkpt lat="48.72444" lon="2.05373">
        <ele>35.8</ele>
        <time>2026-01-30T09:49:31Z</time>
      </trkpt>
      <trkpt lat="48.72443" lon="2.05385">
        <ele>35.8</ele>
        <time>2026-01-30T09:49:32Z</time>
      </trkpt>
      <trkpt lat="48.72441" lon="2.05396">
        <ele>35.8</ele>
        <time>2026-01-30T09:49:33Z</time>
      </trkpt>
      <trkpt lat="48.7244" lon="2.05408">
        <ele>35.8</ele>
        <time>2026-01-30T09:49:34Z</time>
      </trkpt>
      <trkpt lat="48.72439" lon="2.0542">
        <ele>35.8</ele>
        <time>2026-01-30T09:49:35Z</time>
      </trkpt>
      <trkpt lat="48.72438" lon="2.05431">
        <ele>35.6</ele>
        <time>2026-01-30T09:49:36Z</time>
      </trkpt>
      <trkpt lat="48.72437" lon="2.05443">
        <ele>35.6</ele>
        <time>2026-01-30T09:49:37Z</time>
      </trkpt>
      <trkpt lat="48.72435" lon="2.05455">
        <ele>35.6</ele>
        <time>2026-01-30T09:49:38Z</time>
      </trkpt>
      <trkpt lat="48.72433" lon="2.05466">
        <ele>36</ele>
        <time>2026-01-30T09:49:39Z</time>
      </trkpt>
      <trkpt lat="48.7243" lon="2.05476">
        <ele>36.4</ele>
        <time>2026-01-30T09:49:40Z</time>
      </trkpt>
      <trkpt lat="48.72427" lon="2.05486">
        <ele>36.4</ele>
        <time>2026-01-30T09:49:41Z</time>
      </trkpt>
      <trkpt lat="48.72424" lon="2.05496">
        <ele>36.4</ele>
        <time>2026-01-30T09:49:42Z</time>
      </trkpt>
      <trkpt lat="48.72421" lon="2.05505">
        <ele>37.4</ele>
        <time>2026-01-30T09:49:43Z</time>
      </trkpt>
      <trkpt lat="48.72417" lon="2.05514">
        <ele>38</ele>
        <time>2026-01-30T09:49:44Z</time>
      </trkpt>
      <trkpt lat="48.72412" lon="2.05522">
        <ele>38</ele>
        <time>2026-01-30T09:49:45Z</time>
      </trkpt>
      <trkpt lat="48.72408" lon="2.0553">
        <ele>38</ele>
        <time>2026-01-30T09:49:46Z</time>
      </trkpt>
      <trkpt lat="48.72403" lon="2.05538">
        <ele>38</ele>
        <time>2026-01-30T09:49:47Z</time>
      </trkpt>
      <trkpt lat="48.72398" lon="2.05545">
        <ele>37.8</ele>
        <time>2026-01-30T09:49:48Z</time>
      </trkpt>
      <trkpt lat="48.72392" lon="2.05552">
        <ele>37.8</ele>
        <time>2026-01-30T09:49:49Z</time>
      </trkpt>
      <trkpt lat="48.72386" lon="2.05558">
        <ele>37.8</ele>
        <time>2026-01-30T09:49:50Z</time>
      </trkpt>
      <trkpt lat="48.7238" lon="2.05564">
        <ele>37.8</ele>
        <time>2026-01-30T09:49:51Z</time>
      </trkpt>
      <trkpt lat="48.72374" lon="2.05568">
        <ele>38.4</ele>
        <time>2026-01-30T09:49:52Z</time>
      </trkpt>
      <trkpt lat="48.72368" lon="2.05573">
        <ele>38.4</ele>
        <time>2026-01-30T09:49:53Z</time>
      </trkpt>
      <trkpt lat="48.72362" lon="2.05577">
        <ele>38.4</ele>
        <time>2026-01-30T09:49:54Z</time>
      </trkpt>
      <trkpt lat="48.72356" lon="2.05582">
        <ele>39.4</ele>
        <time>2026-01-30T09:49:55Z</time>
      </trkpt>
      <trkpt lat="48.72351" lon="2.05586">
        <ele>40</ele>
        <time>2026-01-30T09:49:56Z</time>
      </trkpt>
      <trkpt lat="48.72345" lon="2.05591">
        <ele>40</ele>
        <time>2026-01-30T09:49:57Z</time>
      </trkpt>
      <trkpt lat="48.72339" lon="2.05595">
        <ele>40</ele>
        <time>2026-01-30T09:49:58Z</time>
      </trkpt>
      <trkpt lat="48.72334" lon="2.05599">
        <ele>40</ele>
        <time>2026-01-30T09:49:59Z</time>
      </trkpt>
      <trkpt lat="48.72328" lon="2.05603">
        <ele>39.8</ele>
        <time>2026-01-30T09:50:00Z</time>
      </trkpt>
      <trkpt lat="48.72323" lon="2.05608">
        <ele>39.8</ele>
        <time>2026-01-30T09:50:01Z</time>
      </trkpt>
      <trkpt lat="48.72318" lon="2.05611">
        <ele>39.8</ele>
        <time>2026-01-30T09:50:02Z</time>
      </trkpt>
      <trkpt lat="48.72312" lon="2.05614">
        <ele>39.8</ele>
        <time>2026-01-30T09:50:03Z</time>
      </trkpt>
      <trkpt lat="48.72307" lon="2.05618">
        <ele>40.4</ele>
        <time>2026-01-30T09:50:04Z</time>
      </trkpt>
      <trkpt lat="48.72302" lon="2.05623">
        <ele>40.4</ele>
        <time>2026-01-30T09:50:05Z</time>
      </trkpt>
      <trkpt lat="48.72297" lon="2.05628">
        <ele>40.4</ele>
        <time>2026-01-30T09:50:06Z</time>
      </trkpt>
      <trkpt lat="48.72292" lon="2.05634">
        <ele>40.4</ele>
        <time>2026-01-30T09:50:07Z</time>
      </trkpt>
      <trkpt lat="48.72287" lon="2.0564">
        <ele>40.4</ele>
        <time>2026-01-30T09:50:08Z</time>
      </trkpt>
      <trkpt lat="48.72282" lon="2.05646">
        <ele>40.4</ele>
        <time>2026-01-30T09:50:09Z</time>
      </trkpt>
      <trkpt lat="48.72277" lon="2.05652">
        <ele>40.4</ele>
        <time>2026-01-30T09:50:10Z</time>
      </trkpt>
      <trkpt lat="48.72273" lon="2.05658">
        <ele>40.8</ele>
        <time>2026-01-30T09:50:11Z</time>
      </trkpt>
      <trkpt lat="48.72268" lon="2.05665">
        <ele>40.6</ele>
        <time>2026-01-30T09:50:12Z</time>
      </trkpt>
      <trkpt lat="48.72264" lon="2.05671">
        <ele>40.6</ele>
        <time>2026-01-30T09:50:13Z</time>
      </trkpt>
      <trkpt lat="48.7226" lon="2.05678">
        <ele>40.6</ele>
        <time>2026-01-30T09:50:14Z</time>
      </trkpt>
      <trkpt lat="48.72255" lon="2.05686">
        <ele>40.6</ele>
        <time>2026-01-30T09:50:15Z</time>
      </trkpt>
      <trkpt lat="48.72251" lon="2.05693">
        <ele>41.2</ele>
        <time>2026-01-30T09:50:16Z</time>
      </trkpt>
      <trkpt lat="48.72248" lon="2.05701">
        <ele>41.2</ele>
        <time>2026-01-30T09:50:17Z</time>
      </trkpt>
      <trkpt lat="48.72244" lon="2.05709">
        <ele>41.2</ele>
        <time>2026-01-30T09:50:18Z</time>
      </trkpt>
      <trkpt lat="48.7224" lon="2.05717">
        <ele>41.2</ele>
        <time>2026-01-30T09:50:19Z</time>
      </trkpt>
      <trkpt lat="48.72237" lon="2.05725">
        <ele>41.8</ele>
        <time>2026-01-30T09:50:20Z</time>
      </trkpt>
      <trkpt lat="48.72234" lon="2.05734">
        <ele>41.8</ele>
        <time>2026-01-30T09:50:21Z</time>
      </trkpt>
      <trkpt lat="48.7223" lon="2.05742">
        <ele>41.8</ele>
        <time>2026-01-30T09:50:22Z</time>
      </trkpt>
      <trkpt lat="48.72227" lon="2.0575">
        <ele>41.8</ele>
        <time>2026-01-30T09:50:23Z</time>
      </trkpt>
      <trkpt lat="48.72224" lon="2.05759">
        <ele>42.2</ele>
        <time>2026-01-30T09:50:24Z</time>
      </trkpt>
      <trkpt lat="48.7222" lon="2.05767">
        <ele>42.2</ele>
        <time>2026-01-30T09:50:25Z</time>
      </trkpt>
      <trkpt lat="48.72217" lon="2.05775">
        <ele>42.2</ele>
        <time>2026-01-30T09:50:26Z</time>
      </trkpt>
      <trkpt lat="48.72213" lon="2.05783">
        <ele>41.2</ele>
        <time>2026-01-30T09:50:27Z</time>
      </trkpt>
      <trkpt lat="48.72209" lon="2.05791">
        <ele>41.2</ele>
        <time>2026-01-30T09:50:28Z</time>
      </trkpt>
      <trkpt lat="48.72205" lon="2.058">
        <ele>41.2</ele>
        <time>2026-01-30T09:50:29Z</time>
      </trkpt>
      <trkpt lat="48.72201" lon="2.05808">
        <ele>41.2</ele>
        <time>2026-01-30T09:50:30Z</time>
      </trkpt>
      <trkpt lat="48.72197" lon="2.05816">
        <ele>40.2</ele>
        <time>2026-01-30T09:50:31Z</time>
      </trkpt>
      <trkpt lat="48.72192" lon="2.05824">
        <ele>39.8</ele>
        <time>2026-01-30T09:50:32Z</time>
      </trkpt>
      <trkpt lat="48.72187" lon="2.05832">
        <ele>39.8</ele>
        <time>2026-01-30T09:50:33Z</time>
      </trkpt>
      <trkpt lat="48.72182" lon="2.05839">
        <ele>39.8</ele>
        <time>2026-01-30T09:50:34Z</time>
      </trkpt>
      <trkpt lat="48.72176" lon="2.05847">
        <ele>39.8</ele>
        <time>2026-01-30T09:50:35Z</time>
      </trkpt>
      <trkpt lat="48.7217" lon="2.05854">
        <ele>37.8</ele>
        <time>2026-01-30T09:50:36Z</time>
      </trkpt>
      <trkpt lat="48.72164" lon="2.05861">
        <ele>37.8</ele>
        <time>2026-01-30T09:50:37Z</time>
      </trkpt>
      <trkpt lat="48.72158" lon="2.05868">
        <ele>37.8</ele>
        <time>2026-01-30T09:50:38Z</time>
      </trkpt>
      <trkpt lat="48.72151" lon="2.05876">
        <ele>36.8</ele>
        <time>2026-01-30T09:50:39Z</time>
      </trkpt>
      <trkpt lat="48.72145" lon="2.05883">
        <ele>35.8</ele>
        <time>2026-01-30T09:50:40Z</time>
      </trkpt>
      <trkpt lat="48.72138" lon="2.05891">
        <ele>35.8</ele>
        <time>2026-01-30T09:50:41Z</time>
      </trkpt>
      <trkpt lat="48.72131" lon="2.05899">
        <ele>35.8</ele>
        <time>2026-01-30T09:50:42Z</time>
      </trkpt>
      <trkpt lat="48.72124" lon="2.05907">
        <ele>34.8</ele>
        <time>2026-01-30T09:50:43Z</time>
      </trkpt>
      <trkpt lat="48.72117" lon="2.05915">
        <ele>34</ele>
        <time>2026-01-30T09:50:44Z</time>
      </trkpt>
      <trkpt lat="48.7211" lon="2.05924">
        <ele>34</ele>
        <time>2026-01-30T09:50:45Z</time>
      </trkpt>
      <trkpt lat="48.72103" lon="2.05932">
        <ele>34</ele>
        <time>2026-01-30T09:50:46Z</time>
      </trkpt>
      <trkpt lat="48.72096" lon="2.05941">
        <ele>34</ele>
        <time>2026-01-30T09:50:47Z</time>
      </trkpt>
      <trkpt lat="48.72089" lon="2.05949">
        <ele>34.2</ele>
        <time>2026-01-30T09:50:48Z</time>
      </trkpt>
      <trkpt lat="48.72082" lon="2.05957">
        <ele>34.2</ele>
        <time>2026-01-30T09:50:49Z</time>
      </trkpt>
      <trkpt lat="48.72075" lon="2.05965">
        <ele>34.2</ele>
        <time>2026-01-30T09:50:50Z</time>
      </trkpt>
      <trkpt lat="48.72068" lon="2.05972">
        <ele>34.2</ele>
        <time>2026-01-30T09:50:51Z</time>
      </trkpt>
      <trkpt lat="48.72061" lon="2.05979">
        <ele>33.6</ele>
        <time>2026-01-30T09:50:52Z</time>
      </trkpt>
      <trkpt lat="48.72053" lon="2.05986">
        <ele>33.6</ele>
        <time>2026-01-30T09:50:53Z</time>
      </trkpt>
      <trkpt lat="48.72046" lon="2.05992">
        <ele>33.6</ele>
        <time>2026-01-30T09:50:54Z</time>
      </trkpt>
      <trkpt lat="48.72039" lon="2.05998">
        <ele>33.6</ele>
        <time>2026-01-30T09:50:55Z</time>
      </trkpt>
      <trkpt lat="48.72031" lon="2.06004">
        <ele>33.8</ele>
        <time>2026-01-30T09:50:56Z</time>
      </trkpt>
      <trkpt lat="48.72024" lon="2.0601">
        <ele>33.8</ele>
        <time>2026-01-30T09:50:57Z</time>
      </trkpt>
      <trkpt lat="48.72017" lon="2.06015">
        <ele>33.8</ele>
        <time>2026-01-30T09:50:58Z</time>
      </trkpt>
      <trkpt lat="48.7201" lon="2.06019">
        <ele>34.4</ele>
        <time>2026-01-30T09:50:59Z</time>
      </trkpt>
      <trkpt lat="48.72003" lon="2.06024">
        <ele>35.2</ele>
        <time>2026-01-30T09:51:00Z</time>
      </trkpt>
      <trkpt lat="48.71997" lon="2.06028">
        <ele>35.2</ele>
        <time>2026-01-30T09:51:01Z</time>
      </trkpt>
      <trkpt lat="48.7199" lon="2.06032">
        <ele>35.2</ele>
        <time>2026-01-30T09:51:02Z</time>
      </trkpt>
      <trkpt lat="48.71983" lon="2.06036">
        <ele>35.2</ele>
        <time>2026-01-30T09:51:03Z</time>
      </trkpt>
      <trkpt lat="48.71976" lon="2.06041">
        <ele>35.8</ele>
        <time>2026-01-30T09:51:04Z</time>
      </trkpt>
      <trkpt lat="48.71969" lon="2.06045">
        <ele>35.8</ele>
        <time>2026-01-30T09:51:05Z</time>
      </trkpt>
      <trkpt lat="48.71962" lon="2.06049">
        <ele>35.8</ele>
        <time>2026-01-30T09:51:06Z</time>
      </trkpt>
      <trkpt lat="48.71955" lon="2.06053">
        <ele>35.4</ele>
        <time>2026-01-30T09:51:07Z</time>
      </trkpt>
      <trkpt lat="48.71948" lon="2.06057">
        <ele>35.2</ele>
        <time>2026-01-30T09:51:08Z</time>
      </trkpt>
      <trkpt lat="48.71941" lon="2.06061">
        <ele>35.2</ele>
        <time>2026-01-30T09:51:09Z</time>
      </trkpt>
      <trkpt lat="48.71934" lon="2.06065">
        <ele>35.2</ele>
        <time>2026-01-30T09:51:10Z</time>
      </trkpt>
      <trkpt lat="48.71927" lon="2.06068">
        <ele>35.8</ele>
        <time>2026-01-30T09:51:11Z</time>
      </trkpt>
      <trkpt lat="48.7192" lon="2.06071">
        <ele>36.2</ele>
        <time>2026-01-30T09:51:12Z</time>
      </trkpt>
      <trkpt lat="48.71913" lon="2.06074">
        <ele>36.2</ele>
        <time>2026-01-30T09:51:13Z</time>
      </trkpt>
      <trkpt lat="48.71906" lon="2.06077">
        <ele>36.2</ele>
        <time>2026-01-30T09:51:14Z</time>
      </trkpt>
      <trkpt lat="48.71899" lon="2.0608">
        <ele>35.2</ele>
        <time>2026-01-30T09:51:15Z</time>
      </trkpt>
      <trkpt lat="48.71891" lon="2.06082">
        <ele>35.2</ele>
        <time>2026-01-30T09:51:16Z</time>
      </trkpt>
      <trkpt lat="48.71884" lon="2.06085">
        <ele>35.2</ele>
        <time>2026-01-30T09:51:17Z</time>
      </trkpt>
      <trkpt lat="48.71876" lon="2.06087">
        <ele>35.2</ele>
        <time>2026-01-30T09:51:18Z</time>
      </trkpt>
      <trkpt lat="48.71868" lon="2.06089">
        <ele>34.6</ele>
        <time>2026-01-30T09:51:19Z</time>
      </trkpt>
      <trkpt lat="48.7186" lon="2.06091">
        <ele>34.2</ele>
        <time>2026-01-30T09:51:20Z</time>
      </trkpt>
      <trkpt lat="48.71853" lon="2.06092">
        <ele>34.2</ele>
        <time>2026-01-30T09:51:21Z</time>
      </trkpt>
      <trkpt lat="48.71845" lon="2.06094">
        <ele>34.2</ele>
        <time>2026-01-30T09:51:22Z</time>
      </trkpt>
      <trkpt lat="48.71837" lon="2.06097">
        <ele>34.2</ele>
        <time>2026-01-30T09:51:23Z</time>
      </trkpt>
      <trkpt lat="48.71829" lon="2.06099">
        <ele>32.4</ele>
        <time>2026-01-30T09:51:24Z</time>
      </trkpt>
      <trkpt lat="48.71821" lon="2.06102">
        <ele>32.4</ele>
        <time>2026-01-30T09:51:25Z</time>
      </trkpt>
      <trkpt lat="48.71813" lon="2.06105">
        <ele>32.4</ele>
        <time>2026-01-30T09:51:26Z</time>
      </trkpt>
      <trkpt lat="48.71806" lon="2.06108">
        <ele>33.4</ele>
        <time>2026-01-30T09:51:27Z</time>
      </trkpt>
      <trkpt lat="48.71798" lon="2.06111">
        <ele>34</ele>
        <time>2026-01-30T09:51:28Z</time>
      </trkpt>
      <trkpt lat="48.71791" lon="2.06114">
        <ele>34</ele>
        <time>2026-01-30T09:51:29Z</time>
      </trkpt>
      <trkpt lat="48.71784" lon="2.06118">
        <ele>34</ele>
        <time>2026-01-30T09:51:30Z</time>
      </trkpt>
      <trkpt lat="48.71777" lon="2.06121">
        <ele>34</ele>
        <time>2026-01-30T09:51:31Z</time>
      </trkpt>
      <trkpt lat="48.71771" lon="2.06125">
        <ele>34.6</ele>
        <time>2026-01-30T09:51:32Z</time>
      </trkpt>
      <trkpt lat="48.71764" lon="2.06129">
        <ele>34.6</ele>
        <time>2026-01-30T09:51:33Z</time>
      </trkpt>
      <trkpt lat="48.71758" lon="2.06133">
        <ele>34.6</ele>
        <time>2026-01-30T09:51:34Z</time>
      </trkpt>
      <trkpt lat="48.71751" lon="2.06137">
        <ele>34.6</ele>
        <time>2026-01-30T09:51:35Z</time>
      </trkpt>
      <trkpt lat="48.71745" lon="2.06142">
        <ele>35.2</ele>
        <time>2026-01-30T09:51:36Z</time>
      </trkpt>
      <trkpt lat="48.71739" lon="2.06146">
        <ele>35.2</ele>
        <time>2026-01-30T09:51:37Z</time>
      </trkpt>
      <trkpt lat="48.71733" lon="2.0615">
        <ele>35.2</ele>
        <time>2026-01-30T09:51:38Z</time>
      </trkpt>
      <trkpt lat="48.71727" lon="2.06154">
        <ele>36.2</ele>
        <time>2026-01-30T09:51:39Z</time>
      </trkpt>
      <trkpt lat="48.71721" lon="2.06156">
        <ele>36.6</ele>
        <time>2026-01-30T09:51:40Z</time>
      </trkpt>
      <trkpt lat="48.71715" lon="2.06161">
        <ele>36.6</ele>
        <time>2026-01-30T09:51:41Z</time>
      </trkpt>
      <trkpt lat="48.71708" lon="2.06166">
        <ele>36.6</ele>
        <time>2026-01-30T09:51:42Z</time>
      </trkpt>
      <trkpt lat="48.71702" lon="2.06171">
        <ele>36.6</ele>
        <time>2026-01-30T09:51:43Z</time>
      </trkpt>
      <trkpt lat="48.71695" lon="2.06176">
        <ele>37.6</ele>
        <time>2026-01-30T09:51:44Z</time>
      </trkpt>
      <trkpt lat="48.71689" lon="2.06182">
        <ele>37.6</ele>
        <time>2026-01-30T09:51:45Z</time>
      </trkpt>
      <trkpt lat="48.71683" lon="2.06187">
        <ele>37.6</ele>
        <time>2026-01-30T09:51:46Z</time>
      </trkpt>
      <trkpt lat="48.71676" lon="2.06191">
        <ele>37.6</ele>
        <time>2026-01-30T09:51:47Z</time>
      </trkpt>
      <trkpt lat="48.7167" lon="2.06196">
        <ele>39.4</ele>
        <time>2026-01-30T09:51:48Z</time>
      </trkpt>
      <trkpt lat="48.71665" lon="2.06201">
        <ele>39.4</ele>
        <time>2026-01-30T09:51:49Z</time>
      </trkpt>
      <trkpt lat="48.7166" lon="2.06208">
        <ele>39.4</ele>
        <time>2026-01-30T09:51:50Z</time>
      </trkpt>
      <trkpt lat="48.71658" lon="2.06216">
        <ele>39.4</ele>
        <time>2026-01-30T09:51:51Z</time>
      </trkpt>
      <trkpt lat="48.71658" lon="2.06226">
        <ele>38.8</ele>
        <time>2026-01-30T09:51:52Z</time>
      </trkpt>
      <trkpt lat="48.71658" lon="2.06235">
        <ele>38.8</ele>
        <time>2026-01-30T09:51:53Z</time>
      </trkpt>
      <trkpt lat="48.71659" lon="2.06246">
        <ele>38.8</ele>
        <time>2026-01-30T09:51:54Z</time>
      </trkpt>
      <trkpt lat="48.71659" lon="2.06257">
        <ele>37.8</ele>
        <time>2026-01-30T09:51:55Z</time>
      </trkpt>
      <trkpt lat="48.71659" lon="2.0627">
        <ele>35.2</ele>
        <time>2026-01-30T09:51:56Z</time>
      </trkpt>
      <trkpt lat="48.71659" lon="2.06282">
        <ele>35.2</ele>
        <time>2026-01-30T09:51:57Z</time>
      </trkpt>
      <trkpt lat="48.7166" lon="2.06296">
        <ele>35.2</ele>
        <time>2026-01-30T09:51:58Z</time>
      </trkpt>
      <trkpt lat="48.7166" lon="2.06309">
        <ele>34.2</ele>
        <time>2026-01-30T09:51:59Z</time>
      </trkpt>
      <trkpt lat="48.7166" lon="2.06323">
        <ele>31.4</ele>
        <time>2026-01-30T09:52:00Z</time>
      </trkpt>
      <trkpt lat="48.7166" lon="2.06337">
        <ele>31.4</ele>
        <time>2026-01-30T09:52:01Z</time>
      </trkpt>
      <trkpt lat="48.7166" lon="2.06351">
        <ele>31.4</ele>
        <time>2026-01-30T09:52:02Z</time>
      </trkpt>
      <trkpt lat="48.71659" lon="2.06365">
        <ele>30.4</ele>
        <time>2026-01-30T09:52:03Z</time>
      </trkpt>
      <trkpt lat="48.71659" lon="2.06379">
        <ele>28.8</ele>
        <time>2026-01-30T09:52:04Z</time>
      </trkpt>
      <trkpt lat="48.71659" lon="2.06393">
        <ele>28.8</ele>
        <time>2026-01-30T09:52:05Z</time>
      </trkpt>
      <trkpt lat="48.71659" lon="2.06407">
        <ele>28.8</ele>
        <time>2026-01-30T09:52:06Z</time>
      </trkpt>
      <trkpt lat="48.71658" lon="2.06421">
        <ele>28.8</ele>
        <time>2026-01-30T09:52:07Z</time>
      </trkpt>
      <trkpt lat="48.71657" lon="2.06435">
        <ele>27.8</ele>
        <time>2026-01-30T09:52:08Z</time>
      </trkpt>
      <trkpt lat="48.71658" lon="2.06449">
        <ele>27.8</ele>
        <time>2026-01-30T09:52:09Z</time>
      </trkpt>
      <trkpt lat="48.71658" lon="2.06462">
        <ele>27.8</ele>
        <time>2026-01-30T09:52:10Z</time>
      </trkpt>
      <trkpt lat="48.71658" lon="2.06476">
        <ele>26.8</ele>
        <time>2026-01-30T09:52:11Z</time>
      </trkpt>
      <trkpt lat="48.71659" lon="2.06489">
        <ele>25.6</ele>
        <time>2026-01-30T09:52:12Z</time>
      </trkpt>
      <trkpt lat="48.71659" lon="2.06503">
        <ele>25.6</ele>
        <time>2026-01-30T09:52:13Z</time>
      </trkpt>
      <trkpt lat="48.71659" lon="2.06517">
        <ele>25.6</ele>
        <time>2026-01-30T09:52:14Z</time>
      </trkpt>
      <trkpt lat="48.7166" lon="2.0653">
        <ele>25.6</ele>
        <time>2026-01-30T09:52:15Z</time>
      </trkpt>
      <trkpt lat="48.71661" lon="2.06541">
        <ele>26.2</ele>
        <time>2026-01-30T09:52:16Z</time>
      </trkpt>
      <trkpt lat="48.71661" lon="2.06554">
        <ele>26.2</ele>
        <time>2026-01-30T09:52:17Z</time>
      </trkpt>
      <trkpt lat="48.71662" lon="2.06567">
        <ele>26.2</ele>
        <time>2026-01-30T09:52:18Z</time>
      </trkpt>
      <trkpt lat="48.71662" lon="2.0658">
        <ele>25.2</ele>
        <time>2026-01-30T09:52:19Z</time>
      </trkpt>
      <trkpt lat="48.71662" lon="2.06594">
        <ele>23.2</ele>
        <time>2026-01-30T09:52:20Z</time>
      </trkpt>
      <trkpt lat="48.71662" lon="2.06608">
        <ele>23.2</ele>
        <time>2026-01-30T09:52:21Z</time>
      </trkpt>
      <trkpt lat="48.71662" lon="2.06621">
        <ele>23.2</ele>
        <time>2026-01-30T09:52:22Z</time>
      </trkpt>
      <trkpt lat="48.71662" lon="2.06635">
        <ele>22.2</ele>
        <time>2026-01-30T09:52:23Z</time>
      </trkpt>
      <trkpt lat="48.71663" lon="2.06649">
        <ele>20.2</ele>
        <time>2026-01-30T09:52:24Z</time>
      </trkpt>
      <trkpt lat="48.71662" lon="2.06662">
        <ele>20.2</ele>
        <time>2026-01-30T09:52:25Z</time>
      </trkpt>
      <trkpt lat="48.71662" lon="2.06676">
        <ele>20.2</ele>
        <time>2026-01-30T09:52:26Z</time>
      </trkpt>
      <trkpt lat="48.71662" lon="2.0669">
        <ele>20.2</ele>
        <time>2026-01-30T09:52:27Z</time>
      </trkpt>
      <trkpt lat="48.71663" lon="2.06704">
        <ele>20.4</ele>
        <time>2026-01-30T09:52:28Z</time>
      </trkpt>
      <trkpt lat="48.71663" lon="2.06716">
        <ele>20.4</ele>
        <time>2026-01-30T09:52:29Z</time>
      </trkpt>
      <trkpt lat="48.71663" lon="2.06728">
        <ele>20.4</ele>
        <time>2026-01-30T09:52:30Z</time>
      </trkpt>
      <trkpt lat="48.71663" lon="2.06739">
        <ele>20.6</ele>
        <time>2026-01-30T09:52:31Z</time>
      </trkpt>
      <trkpt lat="48.71663" lon="2.06751">
        <ele>20.6</ele>
        <time>2026-01-30T09:52:32Z</time>
      </trkpt>
      <trkpt lat="48.71664" lon="2.06763">
        <ele>20.6</ele>
        <time>2026-01-30T09:52:33Z</time>
      </trkpt>
      <trkpt lat="48.71664" lon="2.06776">
        <ele>20.6</ele>
        <time>2026-01-30T09:52:34Z</time>
      </trkpt>
      <trkpt lat="48.71664" lon="2.06788">
        <ele>20.6</ele>
        <time>2026-01-30T09:52:35Z</time>
      </trkpt>
      <trkpt lat="48.71664" lon="2.06801">
        <ele>21.2</ele>
        <time>2026-01-30T09:52:36Z</time>
      </trkpt>
      <trkpt lat="48.71663" lon="2.06813">
        <ele>21.2</ele>
        <time>2026-01-30T09:52:37Z</time>
      </trkpt>
      <trkpt lat="48.71663" lon="2.06824">
        <ele>21.2</ele>
        <time>2026-01-30T09:52:38Z</time>
      </trkpt>
      <trkpt lat="48.71663" lon="2.06836">
        <ele>20.8</ele>
        <time>2026-01-30T09:52:39Z</time>
      </trkpt>
      <trkpt lat="48.71662" lon="2.06847">
        <ele>21.2</ele>
        <time>2026-01-30T09:52:40Z</time>
      </trkpt>
      <trkpt lat="48.71659" lon="2.06857">
        <ele>21.2</ele>
        <time>2026-01-30T09:52:41Z</time>
      </trkpt>
      <trkpt lat="48.71655" lon="2.06865">
        <ele>21.2</ele>
        <time>2026-01-30T09:52:42Z</time>
      </trkpt>
      <trkpt lat="48.7165" lon="2.0687">
        <ele>21.2</ele>
        <time>2026-01-30T09:52:43Z</time>
      </trkpt>
      <trkpt lat="48.71645" lon="2.06875">
        <ele>22.6</ele>
        <time>2026-01-30T09:52:44Z</time>
      </trkpt>
      <trkpt lat="48.71641" lon="2.06879">
        <ele>22.6</ele>
        <time>2026-01-30T09:52:45Z</time>
      </trkpt>
      <trkpt lat="48.71637" lon="2.06883">
        <ele>22.6</ele>
        <time>2026-01-30T09:52:46Z</time>
      </trkpt>
      <trkpt lat="48.71634" lon="2.06886">
        <ele>23.6</ele>
        <time>2026-01-30T09:52:47Z</time>
      </trkpt>
      <trkpt lat="48.71631" lon="2.06889">
        <ele>25</ele>
        <time>2026-01-30T09:52:48Z</time>
      </trkpt>
      <trkpt lat="48.71629" lon="2.06891">
        <ele>25</ele>
        <time>2026-01-30T09:52:49Z</time>
      </trkpt>
      <trkpt lat="48.71627" lon="2.06893">
        <ele>25</ele>
        <time>2026-01-30T09:52:50Z</time>
      </trkpt>
      <trkpt lat="48.71627" lon="2.06894">
        <ele>26</ele>
        <time>2026-01-30T09:52:51Z</time>
      </trkpt>
      <trkpt lat="48.71627" lon="2.06894">
        <ele>26.2</ele>
        <time>2026-01-30T09:52:52Z</time>
      </trkpt>
      <trkpt lat="48.71627" lon="2.06894">
        <ele>26.2</ele>
        <time>2026-01-30T09:52:53Z</time>
      </trkpt>
      <trkpt lat="48.71625" lon="2.06901">
        <ele>26.2</ele>
        <time>2026-01-30T09:53:31Z</time>
      </trkpt>
      <trkpt lat="48.71624" lon="2.06902">
        <ele>26</ele>
        <time>2026-01-30T09:53:32Z</time>
      </trkpt>
      <trkpt lat="48.71622" lon="2.06904">
        <ele>26</ele>
        <time>2026-01-30T09:53:33Z</time>
      </trkpt>
      <trkpt lat="48.71619" lon="2.06906">
        <ele>26</ele>
        <time>2026-01-30T09:53:34Z</time>
      </trkpt>
      <trkpt lat="48.71617" lon="2.06908">
        <ele>26</ele>
        <time>2026-01-30T09:53:35Z</time>
      </trkpt>
      <trkpt lat="48.71614" lon="2.0691">
        <ele>25.4</ele>
        <time>2026-01-30T09:53:36Z</time>
      </trkpt>
      <trkpt lat="48.71612" lon="2.06913">
        <ele>25.4</ele>
        <time>2026-01-30T09:53:37Z</time>
      </trkpt>
      <trkpt lat="48.71609" lon="2.06916">
        <ele>25.4</ele>
        <time>2026-01-30T09:53:38Z</time>
      </trkpt>
      <trkpt lat="48.71606" lon="2.06918">
        <ele>25.8</ele>
        <time>2026-01-30T09:53:39Z</time>
      </trkpt>
      <trkpt lat="48.71602" lon="2.0692">
        <ele>26</ele>
        <time>2026-01-30T09:53:40Z</time>
      </trkpt>
      <trkpt lat="48.71598" lon="2.06922">
        <ele>26</ele>
        <time>2026-01-30T09:53:41Z</time>
      </trkpt>
      <trkpt lat="48.71593" lon="2.06924">
        <ele>26</ele>
        <time>2026-01-30T09:53:42Z</time>
      </trkpt>
      <trkpt lat="48.71589" lon="2.06924">
        <ele>26</ele>
        <time>2026-01-30T09:53:43Z</time>
      </trkpt>
      <trkpt lat="48.71585" lon="2.06925">
        <ele>26.6</ele>
        <time>2026-01-30T09:53:44Z</time>
      </trkpt>
      <trkpt lat="48.7158" lon="2.06925">
        <ele>26.6</ele>
        <time>2026-01-30T09:53:45Z</time>
      </trkpt>
      <trkpt lat="48.71575" lon="2.06923">
        <ele>26.6</ele>
        <time>2026-01-30T09:53:46Z</time>
      </trkpt>
      <trkpt lat="48.71569" lon="2.06921">
        <ele>25.8</ele>
        <time>2026-01-30T09:53:47Z</time>
      </trkpt>
      <trkpt lat="48.71564" lon="2.06919">
        <ele>25.6</ele>
        <time>2026-01-30T09:53:48Z</time>
      </trkpt>
      <trkpt lat="48.71559" lon="2.06916">
        <ele>25.6</ele>
        <time>2026-01-30T09:53:49Z</time>
      </trkpt>
      <trkpt lat="48.71553" lon="2.06913">
        <ele>25.6</ele>
        <time>2026-01-30T09:53:50Z</time>
      </trkpt>
      <trkpt lat="48.71548" lon="2.06911">
        <ele>25.6</ele>
        <time>2026-01-30T09:53:51Z</time>
      </trkpt>
      <trkpt lat="48.71542" lon="2.06909">
        <ele>25</ele>
        <time>2026-01-30T09:53:52Z</time>
      </trkpt>
      <trkpt lat="48.71537" lon="2.06907">
        <ele>25</ele>
        <time>2026-01-30T09:53:53Z</time>
      </trkpt>
      <trkpt lat="48.71531" lon="2.06905">
        <ele>25</ele>
        <time>2026-01-30T09:53:54Z</time>
      </trkpt>
      <trkpt lat="48.71526" lon="2.06904">
        <ele>25</ele>
        <time>2026-01-30T09:53:55Z</time>
      </trkpt>
      <trkpt lat="48.7152" lon="2.06902">
        <ele>25.2</ele>
        <time>2026-01-30T09:53:56Z</time>
      </trkpt>
      <trkpt lat="48.71514" lon="2.06901">
        <ele>25.2</ele>
        <time>2026-01-30T09:53:57Z</time>
      </trkpt>
      <trkpt lat="48.71508" lon="2.069">
        <ele>25.2</ele>
        <time>2026-01-30T09:53:58Z</time>
      </trkpt>
      <trkpt lat="48.71502" lon="2.06899">
        <ele>26</ele>
        <time>2026-01-30T09:53:59Z</time>
      </trkpt>
      <trkpt lat="48.71497" lon="2.06899">
        <ele>25</ele>
        <time>2026-01-30T09:54:00Z</time>
      </trkpt>
      <trkpt lat="48.71491" lon="2.06898">
        <ele>25</ele>
        <time>2026-01-30T09:54:01Z</time>
      </trkpt>
      <trkpt lat="48.71485" lon="2.06898">
        <ele>25</ele>
        <time>2026-01-30T09:54:02Z</time>
      </trkpt>
      <trkpt lat="48.71479" lon="2.06898">
        <ele>25</ele>
        <time>2026-01-30T09:54:03Z</time>
      </trkpt>
      <trkpt lat="48.71473" lon="2.06897">
        <ele>25.4</ele>
        <time>2026-01-30T09:54:04Z</time>
      </trkpt>
      <trkpt lat="48.71467" lon="2.06898">
        <ele>25.4</ele>
        <time>2026-01-30T09:54:05Z</time>
      </trkpt>
      <trkpt lat="48.71461" lon="2.06898">
        <ele>25.4</ele>
        <time>2026-01-30T09:54:06Z</time>
      </trkpt>
      <trkpt lat="48.71455" lon="2.06898">
        <ele>25.4</ele>
        <time>2026-01-30T09:54:07Z</time>
      </trkpt>
      <trkpt lat="48.7145" lon="2.06899">
        <ele>26</ele>
        <time>2026-01-30T09:54:08Z</time>
      </trkpt>
      <trkpt lat="48.71444" lon="2.069">
        <ele>26</ele>
        <time>2026-01-30T09:54:09Z</time>
      </trkpt>
      <trkpt lat="48.71438" lon="2.06901">
        <ele>26</ele>
        <time>2026-01-30T09:54:10Z</time>
      </trkpt>
      <trkpt lat="48.71433" lon="2.06902">
        <ele>26</ele>
        <time>2026-01-30T09:54:11Z</time>
      </trkpt>
      <trkpt lat="48.71427" lon="2.06903">
        <ele>25</ele>
        <time>2026-01-30T09:54:12Z</time>
      </trkpt>
      <trkpt lat="48.71421" lon="2.06903">
        <ele>25</ele>
        <time>2026-01-30T09:54:13Z</time>
      </trkpt>
      <trkpt lat="48.71416" lon="2.06902">
        <ele>25</ele>
        <time>2026-01-30T09:54:14Z</time>
      </trkpt>
      <trkpt lat="48.7141" lon="2.06901">
        <ele>25</ele>
        <time>2026-01-30T09:54:15Z</time>
      </trkpt>
      <trkpt lat="48.71403" lon="2.06901">
        <ele>24.2</ele>
        <time>2026-01-30T09:54:16Z</time>
      </trkpt>
      <trkpt lat="48.71397" lon="2.06901">
        <ele>24.2</ele>
        <time>2026-01-30T09:54:17Z</time>
      </trkpt>
      <trkpt lat="48.71391" lon="2.06901">
        <ele>24.2</ele>
        <time>2026-01-30T09:54:18Z</time>
      </trkpt>
      <trkpt lat="48.71384" lon="2.06901">
        <ele>24.2</ele>
        <time>2026-01-30T09:54:19Z</time>
      </trkpt>
      <trkpt lat="48.71377" lon="2.069">
        <ele>23.8</ele>
        <time>2026-01-30T09:54:20Z</time>
      </trkpt>
      <trkpt lat="48.7137" lon="2.069">
        <ele>23.8</ele>
        <time>2026-01-30T09:54:21Z</time>
      </trkpt>
      <trkpt lat="48.71363" lon="2.069">
        <ele>23.8</ele>
        <time>2026-01-30T09:54:22Z</time>
      </trkpt>
      <trkpt lat="48.71356" lon="2.069">
        <ele>23.4</ele>
        <time>2026-01-30T09:54:23Z</time>
      </trkpt>
      <trkpt lat="48.71348" lon="2.069">
        <ele>22.6</ele>
        <time>2026-01-30T09:54:24Z</time>
      </trkpt>
      <trkpt lat="48.71341" lon="2.069">
        <ele>22.6</ele>
        <time>2026-01-30T09:54:25Z</time>
      </trkpt>
      <trkpt lat="48.71334" lon="2.06899">
        <ele>22.6</ele>
        <time>2026-01-30T09:54:26Z</time>
      </trkpt>
      <trkpt lat="48.71326" lon="2.06899">
        <ele>22</ele>
        <time>2026-01-30T09:54:27Z</time>
      </trkpt>
      <trkpt lat="48.71319" lon="2.069">
        <ele>21.6</ele>
        <time>2026-01-30T09:54:28Z</time>
      </trkpt>
      <trkpt lat="48.71312" lon="2.069">
        <ele>21.6</ele>
        <time>2026-01-30T09:54:29Z</time>
      </trkpt>
      <trkpt lat="48.71305" lon="2.06901">
        <ele>21.6</ele>
        <time>2026-01-30T09:54:30Z</time>
      </trkpt>
      <trkpt lat="48.71298" lon="2.06902">
        <ele>21.6</ele>
        <time>2026-01-30T09:54:31Z</time>
      </trkpt>
      <trkpt lat="48.71291" lon="2.06903">
        <ele>22.6</ele>
        <time>2026-01-30T09:54:32Z</time>
      </trkpt>
      <trkpt lat="48.71284" lon="2.06905">
        <ele>22.6</ele>
        <time>2026-01-30T09:54:33Z</time>
      </trkpt>
      <trkpt lat="48.71277" lon="2.06906">
        <ele>22.6</ele>
        <time>2026-01-30T09:54:34Z</time>
      </trkpt>
      <trkpt lat="48.71271" lon="2.06909">
        <ele>23.6</ele>
        <time>2026-01-30T09:54:35Z</time>
      </trkpt>
      <trkpt lat="48.71265" lon="2.06911">
        <ele>23.6</ele>
        <time>2026-01-30T09:54:36Z</time>
      </trkpt>
      <trkpt lat="48.7126" lon="2.06915">
        <ele>23.6</ele>
        <time>2026-01-30T09:54:37Z</time>
      </trkpt>
      <trkpt lat="48.71254" lon="2.06919">
        <ele>23.6</ele>
        <time>2026-01-30T09:54:38Z</time>
      </trkpt>
      <trkpt lat="48.71249" lon="2.06922">
        <ele>23.6</ele>
        <time>2026-01-30T09:54:39Z</time>
      </trkpt>
      <trkpt lat="48.71244" lon="2.06926">
        <ele>23.6</ele>
        <time>2026-01-30T09:54:40Z</time>
      </trkpt>
      <trkpt lat="48.71239" lon="2.06929">
        <ele>23.6</ele>
        <time>2026-01-30T09:54:41Z</time>
      </trkpt>
      <trkpt lat="48.71235" lon="2.06932">
        <ele>23.6</ele>
        <time>2026-01-30T09:54:42Z</time>
      </trkpt>
      <trkpt lat="48.7123" lon="2.06935">
        <ele>24.6</ele>
        <time>2026-01-30T09:54:43Z</time>
      </trkpt>
      <trkpt lat="48.71224" lon="2.06938">
        <ele>24.8</ele>
        <time>2026-01-30T09:54:44Z</time>
      </trkpt>
      <trkpt lat="48.71219" lon="2.06941">
        <ele>24.8</ele>
        <time>2026-01-30T09:54:45Z</time>
      </trkpt>
      <trkpt lat="48.71213" lon="2.06944">
        <ele>24.8</ele>
        <time>2026-01-30T09:54:46Z</time>
      </trkpt>
      <trkpt lat="48.71206" lon="2.06947">
        <ele>24.8</ele>
        <time>2026-01-30T09:54:47Z</time>
      </trkpt>
      <trkpt lat="48.712" lon="2.06948">
        <ele>24.4</ele>
        <time>2026-01-30T09:54:48Z</time>
      </trkpt>
      <trkpt lat="48.71195" lon="2.0695">
        <ele>24.4</ele>
        <time>2026-01-30T09:54:49Z</time>
      </trkpt>
      <trkpt lat="48.71189" lon="2.06951">
        <ele>24.4</ele>
        <time>2026-01-30T09:54:50Z</time>
      </trkpt>
      <trkpt lat="48.71183" lon="2.06951">
        <ele>24.4</ele>
        <time>2026-01-30T09:54:51Z</time>
      </trkpt>
      <trkpt lat="48.71177" lon="2.06951">
        <ele>23.8</ele>
        <time>2026-01-30T09:54:52Z</time>
      </trkpt>
      <trkpt lat="48.71171" lon="2.0695">
        <ele>23.8</ele>
        <time>2026-01-30T09:54:53Z</time>
      </trkpt>
      <trkpt lat="48.71165" lon="2.0695">
        <ele>23.8</ele>
        <time>2026-01-30T09:54:54Z</time>
      </trkpt>
      <trkpt lat="48.71159" lon="2.06949">
        <ele>23.8</ele>
        <time>2026-01-30T09:54:55Z</time>
      </trkpt>
      <trkpt lat="48.71153" lon="2.06948">
        <ele>24.2</ele>
        <time>2026-01-30T09:54:56Z</time>
      </trkpt>
      <trkpt lat="48.71146" lon="2.06947">
        <ele>24.2</ele>
        <time>2026-01-30T09:54:57Z</time>
      </trkpt>
      <trkpt lat="48.7114" lon="2.06945">
        <ele>24.2</ele>
        <time>2026-01-30T09:54:58Z</time>
      </trkpt>
      <trkpt lat="48.71133" lon="2.06943">
        <ele>24.2</ele>
        <time>2026-01-30T09:54:59Z</time>
      </trkpt>
      <trkpt lat="48.71126" lon="2.06942">
        <ele>22.8</ele>
        <time>2026-01-30T09:55:00Z</time>
      </trkpt>
      <trkpt lat="48.71119" lon="2.06942">
        <ele>22.8</ele>
        <time>2026-01-30T09:55:01Z</time>
      </trkpt>
      <trkpt lat="48.71111" lon="2.06941">
        <ele>22.8</ele>
        <time>2026-01-30T09:55:02Z</time>
      </trkpt>
      <trkpt lat="48.71103" lon="2.06941">
        <ele>21.8</ele>
        <time>2026-01-30T09:55:03Z</time>
      </trkpt>
      <trkpt lat="48.71095" lon="2.06941">
        <ele>20.2</ele>
        <time>2026-01-30T09:55:04Z</time>
      </trkpt>
      <trkpt lat="48.71087" lon="2.06941">
        <ele>20.2</ele>
        <time>2026-01-30T09:55:05Z</time>
      </trkpt>
      <trkpt lat="48.71079" lon="2.0694">
        <ele>20.2</ele>
        <time>2026-01-30T09:55:06Z</time>
      </trkpt>
      <trkpt lat="48.7107" lon="2.0694">
        <ele>19.2</ele>
        <time>2026-01-30T09:55:07Z</time>
      </trkpt>
      <trkpt lat="48.71062" lon="2.0694">
        <ele>18</ele>
        <time>2026-01-30T09:55:08Z</time>
      </trkpt>
      <trkpt lat="48.71054" lon="2.0694">
        <ele>18</ele>
        <time>2026-01-30T09:55:09Z</time>
      </trkpt>
      <trkpt lat="48.71045" lon="2.06941">
        <ele>18</ele>
        <time>2026-01-30T09:55:10Z</time>
      </trkpt>
      <trkpt lat="48.71037" lon="2.06943">
        <ele>17</ele>
        <time>2026-01-30T09:55:11Z</time>
      </trkpt>
      <trkpt lat="48.71029" lon="2.06944">
        <ele>16.4</ele>
        <time>2026-01-30T09:55:12Z</time>
      </trkpt>
      <trkpt lat="48.71021" lon="2.06944">
        <ele>16.4</ele>
        <time>2026-01-30T09:55:13Z</time>
      </trkpt>
      <trkpt lat="48.71013" lon="2.06946">
        <ele>16.4</ele>
        <time>2026-01-30T09:55:14Z</time>
      </trkpt>
      <trkpt lat="48.71005" lon="2.06947">
        <ele>16.8</ele>
        <time>2026-01-30T09:55:15Z</time>
      </trkpt>
      <trkpt lat="48.70997" lon="2.06948">
        <ele>16.2</ele>
        <time>2026-01-30T09:55:16Z</time>
      </trkpt>
      <trkpt lat="48.70988" lon="2.06949">
        <ele>16.2</ele>
        <time>2026-01-30T09:55:17Z</time>
      </trkpt>
      <trkpt lat="48.7098" lon="2.06951">
        <ele>16.2</ele>
        <time>2026-01-30T09:55:18Z</time>
      </trkpt>
      <trkpt lat="48.70972" lon="2.06953">
        <ele>17.2</ele>
        <time>2026-01-30T09:55:19Z</time>
      </trkpt>
      <trkpt lat="48.70964" lon="2.06956">
        <ele>17.2</ele>
        <time>2026-01-30T09:55:20Z</time>
      </trkpt>
      <trkpt lat="48.70956" lon="2.06958">
        <ele>17.2</ele>
        <time>2026-01-30T09:55:21Z</time>
      </trkpt>
      <trkpt lat="48.70948" lon="2.0696">
        <ele>17.2</ele>
        <time>2026-01-30T09:55:22Z</time>
      </trkpt>
      <trkpt lat="48.70941" lon="2.06962">
        <ele>17.4</ele>
        <time>2026-01-30T09:55:23Z</time>
      </trkpt>
      <trkpt lat="48.70933" lon="2.06964">
        <ele>17.6</ele>
        <time>2026-01-30T09:55:24Z</time>
      </trkpt>
      <trkpt lat="48.70926" lon="2.06966">
        <ele>17.6</ele>
        <time>2026-01-30T09:55:25Z</time>
      </trkpt>
      <trkpt lat="48.70919" lon="2.06968">
        <ele>17.6</ele>
        <time>2026-01-30T09:55:26Z</time>
      </trkpt>
      <trkpt lat="48.70912" lon="2.06971">
        <ele>17.6</ele>
        <time>2026-01-30T09:55:27Z</time>
      </trkpt>
      <trkpt lat="48.70906" lon="2.06974">
        <ele>18.4</ele>
        <time>2026-01-30T09:55:28Z</time>
      </trkpt>
      <trkpt lat="48.70899" lon="2.06976">
        <ele>18.4</ele>
        <time>2026-01-30T09:55:29Z</time>
      </trkpt>
      <trkpt lat="48.70893" lon="2.0698">
        <ele>18.4</ele>
        <time>2026-01-30T09:55:30Z</time>
      </trkpt>
      <trkpt lat="48.70887" lon="2.06983">
        <ele>18.4</ele>
        <time>2026-01-30T09:55:31Z</time>
      </trkpt>
      <trkpt lat="48.70881" lon="2.06985">
        <ele>18.4</ele>
        <time>2026-01-30T09:55:32Z</time>
      </trkpt>
      <trkpt lat="48.70875" lon="2.06989">
        <ele>18.4</ele>
        <time>2026-01-30T09:55:33Z</time>
      </trkpt>
      <trkpt lat="48.70869" lon="2.06994">
        <ele>18.4</ele>
        <time>2026-01-30T09:55:34Z</time>
      </trkpt>
      <trkpt lat="48.70863" lon="2.06999">
        <ele>17.4</ele>
        <time>2026-01-30T09:55:35Z</time>
      </trkpt>
      <trkpt lat="48.70858" lon="2.07005">
        <ele>16</ele>
        <time>2026-01-30T09:55:36Z</time>
      </trkpt>
      <trkpt lat="48.70852" lon="2.07011">
        <ele>16</ele>
        <time>2026-01-30T09:55:37Z</time>
      </trkpt>
      <trkpt lat="48.70847" lon="2.07018">
        <ele>16</ele>
        <time>2026-01-30T09:55:38Z</time>
      </trkpt>
      <trkpt lat="48.70842" lon="2.07026">
        <ele>16</ele>
        <time>2026-01-30T09:55:39Z</time>
      </trkpt>
      <trkpt lat="48.70836" lon="2.07033">
        <ele>15.4</ele>
        <time>2026-01-30T09:55:40Z</time>
      </trkpt>
      <trkpt lat="48.7083" lon="2.0704">
        <ele>15.4</ele>
        <time>2026-01-30T09:55:41Z</time>
      </trkpt>
      <trkpt lat="48.70823" lon="2.07046">
        <ele>15.4</ele>
        <time>2026-01-30T09:55:42Z</time>
      </trkpt>
      <trkpt lat="48.70816" lon="2.07052">
        <ele>15.4</ele>
        <time>2026-01-30T09:55:43Z</time>
      </trkpt>
      <trkpt lat="48.70809" lon="2.07056">
        <ele>13.6</ele>
        <time>2026-01-30T09:55:44Z</time>
      </trkpt>
      <trkpt lat="48.70802" lon="2.0706">
        <ele>13.6</ele>
        <time>2026-01-30T09:55:45Z</time>
      </trkpt>
      <trkpt lat="48.70795" lon="2.07064">
        <ele>13.6</ele>
        <time>2026-01-30T09:55:46Z</time>
      </trkpt>
      <trkpt lat="48.70789" lon="2.0707">
        <ele>12.6</ele>
        <time>2026-01-30T09:55:47Z</time>
      </trkpt>
      <trkpt lat="48.70782" lon="2.07076">
        <ele>12.8</ele>
        <time>2026-01-30T09:55:48Z</time>
      </trkpt>
      <trkpt lat="48.70776" lon="2.07083">
        <ele>12.8</ele>
        <time>2026-01-30T09:55:49Z</time>
      </trkpt>
      <trkpt lat="48.70769" lon="2.07089">
        <ele>12.8</ele>
        <time>2026-01-30T09:55:50Z</time>
      </trkpt>
      <trkpt lat="48.70763" lon="2.07094">
        <ele>12.2</ele>
        <time>2026-01-30T09:55:51Z</time>
      </trkpt>
      <trkpt lat="48.70756" lon="2.07099">
        <ele>12.8</ele>
        <time>2026-01-30T09:55:52Z</time>
      </trkpt>
      <trkpt lat="48.70749" lon="2.07104">
        <ele>12.8</ele>
        <time>2026-01-30T09:55:53Z</time>
      </trkpt>
      <trkpt lat="48.70743" lon="2.07108">
        <ele>12.8</ele>
        <time>2026-01-30T09:55:54Z</time>
      </trkpt>
      <trkpt lat="48.70736" lon="2.07111">
        <ele>12.8</ele>
        <time>2026-01-30T09:55:55Z</time>
      </trkpt>
      <trkpt lat="48.7073" lon="2.07113">
        <ele>13.8</ele>
        <time>2026-01-30T09:55:56Z</time>
      </trkpt>
      <trkpt lat="48.70724" lon="2.07114">
        <ele>13.8</ele>
        <time>2026-01-30T09:55:57Z</time>
      </trkpt>
      <trkpt lat="48.70719" lon="2.07117">
        <ele>13.8</ele>
        <time>2026-01-30T09:55:58Z</time>
      </trkpt>
      <trkpt lat="48.70715" lon="2.07123">
        <ele>14.8</ele>
        <time>2026-01-30T09:55:59Z</time>
      </trkpt>
      <trkpt lat="48.70712" lon="2.0713">
        <ele>14.4</ele>
        <time>2026-01-30T09:56:00Z</time>
      </trkpt>
      <trkpt lat="48.70707" lon="2.07137">
        <ele>14.4</ele>
        <time>2026-01-30T09:56:01Z</time>
      </trkpt>
      <trkpt lat="48.70702" lon="2.07143">
        <ele>14.4</ele>
        <time>2026-01-30T09:56:02Z</time>
      </trkpt>
      <trkpt lat="48.70697" lon="2.07147">
        <ele>13.4</ele>
        <time>2026-01-30T09:56:03Z</time>
      </trkpt>
      <trkpt lat="48.70691" lon="2.07149">
        <ele>13.8</ele>
        <time>2026-01-30T09:56:04Z</time>
      </trkpt>
      <trkpt lat="48.70686" lon="2.0715">
        <ele>13.8</ele>
        <time>2026-01-30T09:56:05Z</time>
      </trkpt>
      <trkpt lat="48.7068" lon="2.0715">
        <ele>13.8</ele>
        <time>2026-01-30T09:56:06Z</time>
      </trkpt>
      <trkpt lat="48.70674" lon="2.07149">
        <ele>13.8</ele>
        <time>2026-01-30T09:56:07Z</time>
      </trkpt>
      <trkpt lat="48.70669" lon="2.07148">
        <ele>14.4</ele>
        <time>2026-01-30T09:56:08Z</time>
      </trkpt>
      <trkpt lat="48.70663" lon="2.07146">
        <ele>14.4</ele>
        <time>2026-01-30T09:56:09Z</time>
      </trkpt>
      <trkpt lat="48.70658" lon="2.07144">
        <ele>14.4</ele>
        <time>2026-01-30T09:56:10Z</time>
      </trkpt>
      <trkpt lat="48.70653" lon="2.07141">
        <ele>14.4</ele>
        <time>2026-01-30T09:56:11Z</time>
      </trkpt>
      <trkpt lat="48.70648" lon="2.07138">
        <ele>14.4</ele>
        <time>2026-01-30T09:56:12Z</time>
      </trkpt>
      <trkpt lat="48.70642" lon="2.07136">
        <ele>14.4</ele>
        <time>2026-01-30T09:56:13Z</time>
      </trkpt>
      <trkpt lat="48.70636" lon="2.07135">
        <ele>14.4</ele>
        <time>2026-01-30T09:56:14Z</time>
      </trkpt>
      <trkpt lat="48.7063" lon="2.07135">
        <ele>14.4</ele>
        <time>2026-01-30T09:56:15Z</time>
      </trkpt>
      <trkpt lat="48.70625" lon="2.07137">
        <ele>15.4</ele>
        <time>2026-01-30T09:56:16Z</time>
      </trkpt>
      <trkpt lat="48.7062" lon="2.07141">
        <ele>15.4</ele>
        <time>2026-01-30T09:56:17Z</time>
      </trkpt>
      <trkpt lat="48.70615" lon="2.07146">
        <ele>15.4</ele>
        <time>2026-01-30T09:56:18Z</time>
      </trkpt>
      <trkpt lat="48.70612" lon="2.07152">
        <ele>15.4</ele>
        <time>2026-01-30T09:56:19Z</time>
      </trkpt>
      <trkpt lat="48.70608" lon="2.07158">
        <ele>15</ele>
        <time>2026-01-30T09:56:20Z</time>
      </trkpt>
      <trkpt lat="48.70606" lon="2.07165">
        <ele>15</ele>
        <time>2026-01-30T09:56:21Z</time>
      </trkpt>
      <trkpt lat="48.70606" lon="2.07173">
        <ele>15</ele>
        <time>2026-01-30T09:56:22Z</time>
      </trkpt>
      <trkpt lat="48.70608" lon="2.07181">
        <ele>15.8</ele>
        <time>2026-01-30T09:56:23Z</time>
      </trkpt>
      <trkpt lat="48.70611" lon="2.07188">
        <ele>15.2</ele>
        <time>2026-01-30T09:56:24Z</time>
      </trkpt>
      <trkpt lat="48.70614" lon="2.07193">
        <ele>15.2</ele>
        <time>2026-01-30T09:56:25Z</time>
      </trkpt>
      <trkpt lat="48.70617" lon="2.07199">
        <ele>15.2</ele>
        <time>2026-01-30T09:56:26Z</time>
      </trkpt>
      <trkpt lat="48.7062" lon="2.07205">
        <ele>16.2</ele>
        <time>2026-01-30T09:56:27Z</time>
      </trkpt>
      <trkpt lat="48.70623" lon="2.07211">
        <ele>16.4</ele>
        <time>2026-01-30T09:56:28Z</time>
      </trkpt>
      <trkpt lat="48.70626" lon="2.07216">
        <ele>16.4</ele>
        <time>2026-01-30T09:56:29Z</time>
      </trkpt>
      <trkpt lat="48.70629" lon="2.07223">
        <ele>16.4</ele>
        <time>2026-01-30T09:56:30Z</time>
      </trkpt>
      <trkpt lat="48.70631" lon="2.07228">
        <ele>17.4</ele>
        <time>2026-01-30T09:56:31Z</time>
      </trkpt>
      <trkpt lat="48.70634" lon="2.07234">
        <ele>17.4</ele>
        <time>2026-01-30T09:56:32Z</time>
      </trkpt>
      <trkpt lat="48.70637" lon="2.0724">
        <ele>17.4</ele>
        <time>2026-01-30T09:56:33Z</time>
      </trkpt>
      <trkpt lat="48.7064" lon="2.07246">
        <ele>17.4</ele>
        <time>2026-01-30T09:56:34Z</time>
      </trkpt>
      <trkpt lat="48.70643" lon="2.07252">
        <ele>18.4</ele>
        <time>2026-01-30T09:56:35Z</time>
      </trkpt>
      <trkpt lat="48.70647" lon="2.07257">
        <ele>19.2</ele>
        <time>2026-01-30T09:56:36Z</time>
      </trkpt>
      <trkpt lat="48.7065" lon="2.07263">
        <ele>19.2</ele>
        <time>2026-01-30T09:56:37Z</time>
      </trkpt>
      <trkpt lat="48.70653" lon="2.0727">
        <ele>19.2</ele>
        <time>2026-01-30T09:56:38Z</time>
      </trkpt>
      <trkpt lat="48.70655" lon="2.07276">
        <ele>20.2</ele>
        <time>2026-01-30T09:56:39Z</time>
      </trkpt>
      <trkpt lat="48.70657" lon="2.07282">
        <ele>21</ele>
        <time>2026-01-30T09:56:40Z</time>
      </trkpt>
      <trkpt lat="48.70658" lon="2.07288">
        <ele>21</ele>
        <time>2026-01-30T09:56:41Z</time>
      </trkpt>
      <trkpt lat="48.70659" lon="2.07294">
        <ele>21</ele>
        <time>2026-01-30T09:56:42Z</time>
      </trkpt>
      <trkpt lat="48.70661" lon="2.073">
        <ele>21.8</ele>
        <time>2026-01-30T09:56:43Z</time>
      </trkpt>
      <trkpt lat="48.70662" lon="2.07306">
        <ele>21.8</ele>
        <time>2026-01-30T09:56:44Z</time>
      </trkpt>
      <trkpt lat="48.70663" lon="2.07311">
        <ele>21.8</ele>
        <time>2026-01-30T09:56:45Z</time>
      </trkpt>
      <trkpt lat="48.70664" lon="2.07317">
        <ele>21.8</ele>
        <time>2026-01-30T09:56:46Z</time>
      </trkpt>
      <trkpt lat="48.70664" lon="2.07322">
        <ele>22.8</ele>
        <time>2026-01-30T09:56:47Z</time>
      </trkpt>
      <trkpt lat="48.70665" lon="2.07328">
        <ele>23.6</ele>
        <time>2026-01-30T09:56:48Z</time>
      </trkpt>
      <trkpt lat="48.70664" lon="2.07334">
        <ele>23.6</ele>
        <time>2026-01-30T09:56:49Z</time>
      </trkpt>
      <trkpt lat="48.70664" lon="2.0734">
        <ele>23.6</ele>
        <time>2026-01-30T09:56:50Z</time>
      </trkpt>
      <trkpt lat="48.70664" lon="2.07346">
        <ele>23.6</ele>
        <time>2026-01-30T09:56:51Z</time>
      </trkpt>
      <trkpt lat="48.70663" lon="2.07351">
        <ele>24.2</ele>
        <time>2026-01-30T09:56:52Z</time>
      </trkpt>
      <trkpt lat="48.70662" lon="2.07357">
        <ele>24.2</ele>
        <time>2026-01-30T09:56:53Z</time>
      </trkpt>
      <trkpt lat="48.7066" lon="2.07363">
        <ele>24.2</ele>
        <time>2026-01-30T09:56:54Z</time>
      </trkpt>
      <trkpt lat="48.70659" lon="2.07368">
        <ele>25</ele>
        <time>2026-01-30T09:56:55Z</time>
      </trkpt>
      <trkpt lat="48.70657" lon="2.07373">
        <ele>25.2</ele>
        <time>2026-01-30T09:56:56Z</time>
      </trkpt>
      <trkpt lat="48.70656" lon="2.07378">
        <ele>25.2</ele>
        <time>2026-01-30T09:56:57Z</time>
      </trkpt>
      <trkpt lat="48.70654" lon="2.07383">
        <ele>25.2</ele>
        <time>2026-01-30T09:56:58Z</time>
      </trkpt>
      <trkpt lat="48.70654" lon="2.07389">
        <ele>25.4</ele>
        <time>2026-01-30T09:56:59Z</time>
      </trkpt>
      <trkpt lat="48.70653" lon="2.07395">
        <ele>25.8</ele>
        <time>2026-01-30T09:57:00Z</time>
      </trkpt>
      <trkpt lat="48.70652" lon="2.07401">
        <ele>25.8</ele>
        <time>2026-01-30T09:57:01Z</time>
      </trkpt>
      <trkpt lat="48.70651" lon="2.07407">
        <ele>25.8</ele>
        <time>2026-01-30T09:57:02Z</time>
      </trkpt>
      <trkpt lat="48.70651" lon="2.07413">
        <ele>25.8</ele>
        <time>2026-01-30T09:57:03Z</time>
      </trkpt>
      <trkpt lat="48.7065" lon="2.07419">
        <ele>26.4</ele>
        <time>2026-01-30T09:57:04Z</time>
      </trkpt>
      <trkpt lat="48.70649" lon="2.07425">
        <ele>26.4</ele>
        <time>2026-01-30T09:57:05Z</time>
      </trkpt>
      <trkpt lat="48.70647" lon="2.07431">
        <ele>26.4</ele>
        <time>2026-01-30T09:57:06Z</time>
      </trkpt>
      <trkpt lat="48.70645" lon="2.07437">
        <ele>26.4</ele>
        <time>2026-01-30T09:57:07Z</time>
      </trkpt>
      <trkpt lat="48.70643" lon="2.07443">
        <ele>26.2</ele>
        <time>2026-01-30T09:57:08Z</time>
      </trkpt>
      <trkpt lat="48.70642" lon="2.0745">
        <ele>26.2</ele>
        <time>2026-01-30T09:57:09Z</time>
      </trkpt>
      <trkpt lat="48.70644" lon="2.07457">
        <ele>26.2</ele>
        <time>2026-01-30T09:57:10Z</time>
      </trkpt>
      <trkpt lat="48.70647" lon="2.07462">
        <ele>26.2</ele>
        <time>2026-01-30T09:57:11Z</time>
      </trkpt>
      <trkpt lat="48.70651" lon="2.07467">
        <ele>25.8</ele>
        <time>2026-01-30T09:57:12Z</time>
      </trkpt>
      <trkpt lat="48.70654" lon="2.07472">
        <ele>25.8</ele>
        <time>2026-01-30T09:57:13Z</time>
      </trkpt>
      <trkpt lat="48.70656" lon="2.07479">
        <ele>25.8</ele>
        <time>2026-01-30T09:57:14Z</time>
      </trkpt>
      <trkpt lat="48.70655" lon="2.07487">
        <ele>25.8</ele>
        <time>2026-01-30T09:57:15Z</time>
      </trkpt>
      <trkpt lat="48.70654" lon="2.07495">
        <ele>25.2</ele>
        <time>2026-01-30T09:57:16Z</time>
      </trkpt>
      <trkpt lat="48.70652" lon="2.07504">
        <ele>25.2</ele>
        <time>2026-01-30T09:57:17Z</time>
      </trkpt>
      <trkpt lat="48.70651" lon="2.07513">
        <ele>25.2</ele>
        <time>2026-01-30T09:57:18Z</time>
      </trkpt>
      <trkpt lat="48.70649" lon="2.07522">
        <ele>24.2</ele>
        <time>2026-01-30T09:57:19Z</time>
      </trkpt>
      <trkpt lat="48.70648" lon="2.07532">
        <ele>23.4</ele>
        <time>2026-01-30T09:57:20Z</time>
      </trkpt>
      <trkpt lat="48.70646" lon="2.07542">
        <ele>23.4</ele>
        <time>2026-01-30T09:57:21Z</time>
      </trkpt>
      <trkpt lat="48.70646" lon="2.07552">
        <ele>23.4</ele>
        <time>2026-01-30T09:57:22Z</time>
      </trkpt>
      <trkpt lat="48.70645" lon="2.07562">
        <ele>23.4</ele>
        <time>2026-01-30T09:57:23Z</time>
      </trkpt>
      <trkpt lat="48.70645" lon="2.07572">
        <ele>22.6</ele>
        <time>2026-01-30T09:57:24Z</time>
      </trkpt>
      <trkpt lat="48.70644" lon="2.07583">
        <ele>22.6</ele>
        <time>2026-01-30T09:57:25Z</time>
      </trkpt>
      <trkpt lat="48.70645" lon="2.07593">
        <ele>22.6</ele>
        <time>2026-01-30T09:57:26Z</time>
      </trkpt>
      <trkpt lat="48.70646" lon="2.07604">
        <ele>21.6</ele>
        <time>2026-01-30T09:57:27Z</time>
      </trkpt>
      <trkpt lat="48.70647" lon="2.07615">
        <ele>22.2</ele>
        <time>2026-01-30T09:57:28Z</time>
      </trkpt>
      <trkpt lat="48.70648" lon="2.07625">
        <ele>22.2</ele>
        <time>2026-01-30T09:57:29Z</time>
      </trkpt>
      <trkpt lat="48.70649" lon="2.07636">
        <ele>22.2</ele>
        <time>2026-01-30T09:57:30Z</time>
      </trkpt>
      <trkpt lat="48.70651" lon="2.07646">
        <ele>21.8</ele>
        <time>2026-01-30T09:57:31Z</time>
      </trkpt>
      <trkpt lat="48.70652" lon="2.07657">
        <ele>21.2</ele>
        <time>2026-01-30T09:57:32Z</time>
      </trkpt>
      <trkpt lat="48.70654" lon="2.07669">
        <ele>21.2</ele>
        <time>2026-01-30T09:57:33Z</time>
      </trkpt>
      <trkpt lat="48.70655" lon="2.0768">
        <ele>21.2</ele>
        <time>2026-01-30T09:57:34Z</time>
      </trkpt>
      <trkpt lat="48.70657" lon="2.07692">
        <ele>20.2</ele>
        <time>2026-01-30T09:57:35Z</time>
      </trkpt>
      <trkpt lat="48.7066" lon="2.07704">
        <ele>19.2</ele>
        <time>2026-01-30T09:57:36Z</time>
      </trkpt>
      <trkpt lat="48.70663" lon="2.07716">
        <ele>19.2</ele>
        <time>2026-01-30T09:57:37Z</time>
      </trkpt>
      <trkpt lat="48.70666" lon="2.07728">
        <ele>19.2</ele>
        <time>2026-01-30T09:57:38Z</time>
      </trkpt>
      <trkpt lat="48.70668" lon="2.0774">
        <ele>19.2</ele>
        <time>2026-01-30T09:57:39Z</time>
      </trkpt>
      <trkpt lat="48.70672" lon="2.07752">
        <ele>19.2</ele>
        <time>2026-01-30T09:57:40Z</time>
      </trkpt>
      <trkpt lat="48.70675" lon="2.07764">
        <ele>19.2</ele>
        <time>2026-01-30T09:57:41Z</time>
      </trkpt>
      <trkpt lat="48.70678" lon="2.07776">
        <ele>19.2</ele>
        <time>2026-01-30T09:57:42Z</time>
      </trkpt>
      <trkpt lat="48.70681" lon="2.07789">
        <ele>18.2</ele>
        <time>2026-01-30T09:57:43Z</time>
      </trkpt>
      <trkpt lat="48.70684" lon="2.07802">
        <ele>17.4</ele>
        <time>2026-01-30T09:57:44Z</time>
      </trkpt>
      <trkpt lat="48.70686" lon="2.07815">
        <ele>17.4</ele>
        <time>2026-01-30T09:57:45Z</time>
      </trkpt>
      <trkpt lat="48.70689" lon="2.07829">
        <ele>17.4</ele>
        <time>2026-01-30T09:57:46Z</time>
      </trkpt>
      <trkpt lat="48.70692" lon="2.07842">
        <ele>17.4</ele>
        <time>2026-01-30T09:57:47Z</time>
      </trkpt>
      <trkpt lat="48.70696" lon="2.07854">
        <ele>15.6</ele>
        <time>2026-01-30T09:57:48Z</time>
      </trkpt>
      <trkpt lat="48.70699" lon="2.07867">
        <ele>15.6</ele>
        <time>2026-01-30T09:57:49Z</time>
      </trkpt>
      <trkpt lat="48.70702" lon="2.0788">
        <ele>15.6</ele>
        <time>2026-01-30T09:57:50Z</time>
      </trkpt>
      <trkpt lat="48.70705" lon="2.07893">
        <ele>16.6</ele>
        <time>2026-01-30T09:57:51Z</time>
      </trkpt>
      <trkpt lat="48.70708" lon="2.07906">
        <ele>16.2</ele>
        <time>2026-01-30T09:57:52Z</time>
      </trkpt>
      <trkpt lat="48.70711" lon="2.07918">
        <ele>16.2</ele>
        <time>2026-01-30T09:57:53Z</time>
      </trkpt>
      <trkpt lat="48.70714" lon="2.07931">
        <ele>16.2</ele>
        <time>2026-01-30T09:57:54Z</time>
      </trkpt>
      <trkpt lat="48.70716" lon="2.07943">
        <ele>17</ele>
        <time>2026-01-30T09:57:55Z</time>
      </trkpt>
      <trkpt lat="48.70719" lon="2.07955">
        <ele>16.6</ele>
        <time>2026-01-30T09:57:56Z</time>
      </trkpt>
      <trkpt lat="48.70722" lon="2.07967">
        <ele>16.6</ele>
        <time>2026-01-30T09:57:57Z</time>
      </trkpt>
      <trkpt lat="48.70724" lon="2.07979">
        <ele>16.6</ele>
        <time>2026-01-30T09:57:58Z</time>
      </trkpt>
      <trkpt lat="48.70727" lon="2.0799">
        <ele>16.6</ele>
        <time>2026-01-30T09:57:59Z</time>
      </trkpt>
      <trkpt lat="48.7073" lon="2.08002">
        <ele>16.2</ele>
        <time>2026-01-30T09:58:00Z</time>
      </trkpt>
      <trkpt lat="48.70732" lon="2.08014">
        <ele>16.2</ele>
        <time>2026-01-30T09:58:01Z</time>
      </trkpt>
      <trkpt lat="48.70735" lon="2.08026">
        <ele>16.2</ele>
        <time>2026-01-30T09:58:02Z</time>
      </trkpt>
      <trkpt lat="48.70737" lon="2.08037">
        <ele>16.2</ele>
        <time>2026-01-30T09:58:03Z</time>
      </trkpt>
      <trkpt lat="48.70739" lon="2.08049">
        <ele>16.2</ele>
        <time>2026-01-30T09:58:04Z</time>
      </trkpt>
      <trkpt lat="48.70741" lon="2.08061">
        <ele>16.2</ele>
        <time>2026-01-30T09:58:05Z</time>
      </trkpt>
      <trkpt lat="48.70742" lon="2.08073">
        <ele>16.2</ele>
        <time>2026-01-30T09:58:06Z</time>
      </trkpt>
      <trkpt lat="48.70743" lon="2.08085">
        <ele>16.2</ele>
        <time>2026-01-30T09:58:07Z</time>
      </trkpt>
      <trkpt lat="48.70744" lon="2.08097">
        <ele>16.8</ele>
        <time>2026-01-30T09:58:08Z</time>
      </trkpt>
      <trkpt lat="48.70744" lon="2.08108">
        <ele>16.8</ele>
        <time>2026-01-30T09:58:09Z</time>
      </trkpt>
      <trkpt lat="48.70744" lon="2.08119">
        <ele>16.8</ele>
        <time>2026-01-30T09:58:10Z</time>
      </trkpt>
      <trkpt lat="48.70744" lon="2.08131">
        <ele>16.8</ele>
        <time>2026-01-30T09:58:11Z</time>
      </trkpt>
      <trkpt lat="48.70744" lon="2.08142">
        <ele>17.2</ele>
        <time>2026-01-30T09:58:12Z</time>
      </trkpt>
      <trkpt lat="48.70743" lon="2.08153">
        <ele>17.2</ele>
        <time>2026-01-30T09:58:13Z</time>
      </trkpt>
      <trkpt lat="48.70742" lon="2.08164">
        <ele>17.2</ele>
        <time>2026-01-30T09:58:14Z</time>
      </trkpt>
      <trkpt lat="48.70741" lon="2.08175">
        <ele>17.6</ele>
        <time>2026-01-30T09:58:15Z</time>
      </trkpt>
      <trkpt lat="48.70739" lon="2.08185">
        <ele>17</ele>
        <time>2026-01-30T09:58:16Z</time>
      </trkpt>
      <trkpt lat="48.70738" lon="2.08196">
        <ele>17</ele>
        <time>2026-01-30T09:58:17Z</time>
      </trkpt>
      <trkpt lat="48.70736" lon="2.08206">
        <ele>17</ele>
        <time>2026-01-30T09:58:18Z</time>
      </trkpt>
      <trkpt lat="48.70734" lon="2.08216">
        <ele>17.4</ele>
        <time>2026-01-30T09:58:19Z</time>
      </trkpt>
      <trkpt lat="48.70732" lon="2.08226">
        <ele>18</ele>
        <time>2026-01-30T09:58:20Z</time>
      </trkpt>
      <trkpt lat="48.7073" lon="2.08237">
        <ele>18</ele>
        <time>2026-01-30T09:58:21Z</time>
      </trkpt>
      <trkpt lat="48.70729" lon="2.08247">
        <ele>18</ele>
        <time>2026-01-30T09:58:22Z</time>
      </trkpt>
      <trkpt lat="48.70727" lon="2.08256">
        <ele>18</ele>
        <time>2026-01-30T09:58:23Z</time>
      </trkpt>
      <trkpt lat="48.70725" lon="2.08266">
        <ele>18.8</ele>
        <time>2026-01-30T09:58:24Z</time>
      </trkpt>
      <trkpt lat="48.70723" lon="2.08276">
        <ele>18.8</ele>
        <time>2026-01-30T09:58:25Z</time>
      </trkpt>
      <trkpt lat="48.70721" lon="2.08286">
        <ele>18.8</ele>
        <time>2026-01-30T09:58:26Z</time>
      </trkpt>
      <trkpt lat="48.70719" lon="2.08296">
        <ele>18</ele>
        <time>2026-01-30T09:58:27Z</time>
      </trkpt>
      <trkpt lat="48.70717" lon="2.08306">
        <ele>20</ele>
        <time>2026-01-30T09:58:28Z</time>
      </trkpt>
      <trkpt lat="48.70716" lon="2.08316">
        <ele>20</ele>
        <time>2026-01-30T09:58:29Z</time>
      </trkpt>
      <trkpt lat="48.70714" lon="2.08326">
        <ele>20</ele>
        <time>2026-01-30T09:58:30Z</time>
      </trkpt>
      <trkpt lat="48.70712" lon="2.08336">
        <ele>19.8</ele>
        <time>2026-01-30T09:58:31Z</time>
      </trkpt>
      <trkpt lat="48.7071" lon="2.08347">
        <ele>19.4</ele>
        <time>2026-01-30T09:58:32Z</time>
      </trkpt>
      <trkpt lat="48.70708" lon="2.08358">
        <ele>19.4</ele>
        <time>2026-01-30T09:58:33Z</time>
      </trkpt>
      <trkpt lat="48.70706" lon="2.08369">
        <ele>19.4</ele>
        <time>2026-01-30T09:58:34Z</time>
      </trkpt>
      <trkpt lat="48.70703" lon="2.0838">
        <ele>19.4</ele>
        <time>2026-01-30T09:58:35Z</time>
      </trkpt>
      <trkpt lat="48.70701" lon="2.08392">
        <ele>19.4</ele>
        <time>2026-01-30T09:58:36Z</time>
      </trkpt>
      <trkpt lat="48.70699" lon="2.08403">
        <ele>19.4</ele>
        <time>2026-01-30T09:58:37Z</time>
      </trkpt>
      <trkpt lat="48.70697" lon="2.08414">
        <ele>19.4</ele>
        <time>2026-01-30T09:58:38Z</time>
      </trkpt>
      <trkpt lat="48.70695" lon="2.08425">
        <ele>18.8</ele>
        <time>2026-01-30T09:58:39Z</time>
      </trkpt>
      <trkpt lat="48.70693" lon="2.08436">
        <ele>18.6</ele>
        <time>2026-01-30T09:58:40Z</time>
      </trkpt>
      <trkpt lat="48.70691" lon="2.08448">
        <ele>18.6</ele>
        <time>2026-01-30T09:58:41Z</time>
      </trkpt>
      <trkpt lat="48.70689" lon="2.08458">
        <ele>18.6</ele>
        <time>2026-01-30T09:58:42Z</time>
      </trkpt>
      <trkpt lat="48.70687" lon="2.08469">
        <ele>19.4</ele>
        <time>2026-01-30T09:58:43Z</time>
      </trkpt>
      <trkpt lat="48.70685" lon="2.08479">
        <ele>20</ele>
        <time>2026-01-30T09:58:44Z</time>
      </trkpt>
      <trkpt lat="48.70683" lon="2.08489">
        <ele>20</ele>
        <time>2026-01-30T09:58:45Z</time>
      </trkpt>
      <trkpt lat="48.70681" lon="2.08498">
        <ele>20</ele>
        <time>2026-01-30T09:58:46Z</time>
      </trkpt>
      <trkpt lat="48.70679" lon="2.08506">
        <ele>21</ele>
        <time>2026-01-30T09:58:47Z</time>
      </trkpt>
      <trkpt lat="48.70678" lon="2.08515">
        <ele>21.4</ele>
        <time>2026-01-30T09:58:48Z</time>
      </trkpt>
      <trkpt lat="48.70676" lon="2.08524">
        <ele>21.4</ele>
        <time>2026-01-30T09:58:49Z</time>
      </trkpt>
      <trkpt lat="48.70673" lon="2.08533">
        <ele>21.4</ele>
        <time>2026-01-30T09:58:50Z</time>
      </trkpt>
      <trkpt lat="48.70671" lon="2.08542">
        <ele>21.4</ele>
        <time>2026-01-30T09:58:51Z</time>
      </trkpt>
      <trkpt lat="48.70669" lon="2.08553">
        <ele>21.2</ele>
        <time>2026-01-30T09:58:52Z</time>
      </trkpt>
      <trkpt lat="48.70667" lon="2.08563">
        <ele>21.2</ele>
        <time>2026-01-30T09:58:53Z</time>
      </trkpt>
      <trkpt lat="48.70664" lon="2.08574">
        <ele>21.2</ele>
        <time>2026-01-30T09:58:54Z</time>
      </trkpt>
      <trkpt lat="48.70662" lon="2.08585">
        <ele>21.2</ele>
        <time>2026-01-30T09:58:55Z</time>
      </trkpt>
      <trkpt lat="48.7066" lon="2.08597">
        <ele>19.4</ele>
        <time>2026-01-30T09:58:56Z</time>
      </trkpt>
      <trkpt lat="48.70657" lon="2.08609">
        <ele>19.4</ele>
        <time>2026-01-30T09:58:57Z</time>
      </trkpt>
      <trkpt lat="48.70655" lon="2.08621">
        <ele>19.4</ele>
        <time>2026-01-30T09:58:58Z</time>
      </trkpt>
      <trkpt lat="48.70652" lon="2.08635">
        <ele>18.4</ele>
        <time>2026-01-30T09:58:59Z</time>
      </trkpt>
      <trkpt lat="48.70649" lon="2.08649">
        <ele>16.8</ele>
        <time>2026-01-30T09:59:00Z</time>
      </trkpt>
      <trkpt lat="48.70646" lon="2.08663">
        <ele>16.8</ele>
        <time>2026-01-30T09:59:01Z</time>
      </trkpt>
      <trkpt lat="48.70644" lon="2.08677">
        <ele>16.8</ele>
        <time>2026-01-30T09:59:02Z</time>
      </trkpt>
      <trkpt lat="48.70641" lon="2.08691">
        <ele>15.8</ele>
        <time>2026-01-30T09:59:03Z</time>
      </trkpt>
      <trkpt lat="48.70638" lon="2.08705">
        <ele>14.4</ele>
        <time>2026-01-30T09:59:04Z</time>
      </trkpt>
      <trkpt lat="48.70636" lon="2.0872">
        <ele>14.4</ele>
        <time>2026-01-30T09:59:05Z</time>
      </trkpt>
      <trkpt lat="48.70634" lon="2.08734">
        <ele>14.4</ele>
        <time>2026-01-30T09:59:06Z</time>
      </trkpt>
      <trkpt lat="48.70631" lon="2.08749">
        <ele>14.4</ele>
        <time>2026-01-30T09:59:07Z</time>
      </trkpt>
      <trkpt lat="48.70629" lon="2.08763">
        <ele>13.6</ele>
        <time>2026-01-30T09:59:08Z</time>
      </trkpt>
      <trkpt lat="48.70626" lon="2.08777">
        <ele>13.6</ele>
        <time>2026-01-30T09:59:09Z</time>
      </trkpt>
      <trkpt lat="48.70624" lon="2.08791">
        <ele>13.6</ele>
        <time>2026-01-30T09:59:10Z</time>
      </trkpt>
      <trkpt lat="48.70622" lon="2.08805">
        <ele>13.6</ele>
        <time>2026-01-30T09:59:11Z</time>
      </trkpt>
      <trkpt lat="48.70619" lon="2.08819">
        <ele>14</ele>
        <time>2026-01-30T09:59:12Z</time>
      </trkpt>
      <trkpt lat="48.70617" lon="2.08832">
        <ele>14</ele>
        <time>2026-01-30T09:59:13Z</time>
      </trkpt>
      <trkpt lat="48.70614" lon="2.08845">
        <ele>14</ele>
        <time>2026-01-30T09:59:14Z</time>
      </trkpt>
      <trkpt lat="48.70612" lon="2.08859">
        <ele>14</ele>
        <time>2026-01-30T09:59:15Z</time>
      </trkpt>
      <trkpt lat="48.70609" lon="2.08872">
        <ele>13.2</ele>
        <time>2026-01-30T09:59:16Z</time>
      </trkpt>
      <trkpt lat="48.70607" lon="2.08885">
        <ele>13.2</ele>
        <time>2026-01-30T09:59:17Z</time>
      </trkpt>
      <trkpt lat="48.70604" lon="2.08898">
        <ele>13.2</ele>
        <time>2026-01-30T09:59:18Z</time>
      </trkpt>
      <trkpt lat="48.70602" lon="2.0891">
        <ele>13.2</ele>
        <time>2026-01-30T09:59:19Z</time>
      </trkpt>
      <trkpt lat="48.706" lon="2.08923">
        <ele>13.6</ele>
        <time>2026-01-30T09:59:20Z</time>
      </trkpt>
      <trkpt lat="48.70597" lon="2.08934">
        <ele>13.6</ele>
        <time>2026-01-30T09:59:21Z</time>
      </trkpt>
      <trkpt lat="48.70595" lon="2.08946">
        <ele>13.6</ele>
        <time>2026-01-30T09:59:22Z</time>
      </trkpt>
      <trkpt lat="48.70593" lon="2.08957">
        <ele>14.6</ele>
        <time>2026-01-30T09:59:23Z</time>
      </trkpt>
      <trkpt lat="48.70591" lon="2.08967">
        <ele>15.6</ele>
        <time>2026-01-30T09:59:24Z</time>
      </trkpt>
      <trkpt lat="48.70589" lon="2.08978">
        <ele>15.6</ele>
        <time>2026-01-30T09:59:25Z</time>
      </trkpt>
      <trkpt lat="48.70587" lon="2.08988">
        <ele>15.6</ele>
        <time>2026-01-30T09:59:26Z</time>
      </trkpt>
      <trkpt lat="48.70585" lon="2.08997">
        <ele>16.2</ele>
        <time>2026-01-30T09:59:27Z</time>
      </trkpt>
      <trkpt lat="48.70584" lon="2.09006">
        <ele>16.8</ele>
        <time>2026-01-30T09:59:28Z</time>
      </trkpt>
      <trkpt lat="48.70582" lon="2.09016">
        <ele>16.8</ele>
        <time>2026-01-30T09:59:29Z</time>
      </trkpt>
      <trkpt lat="48.70581" lon="2.09025">
        <ele>16.8</ele>
        <time>2026-01-30T09:59:30Z</time>
      </trkpt>
      <trkpt lat="48.7058" lon="2.09034">
        <ele>17</ele>
        <time>2026-01-30T09:59:31Z</time>
      </trkpt>
      <trkpt lat="48.7058" lon="2.09043">
        <ele>17.2</ele>
        <time>2026-01-30T09:59:32Z</time>
      </trkpt>
      <trkpt lat="48.7058" lon="2.09052">
        <ele>17.2</ele>
        <time>2026-01-30T09:59:33Z</time>
      </trkpt>
      <trkpt lat="48.70579" lon="2.09062">
        <ele>17.2</ele>
        <time>2026-01-30T09:59:34Z</time>
      </trkpt>
      <trkpt lat="48.70579" lon="2.09073">
        <ele>17.2</ele>
        <time>2026-01-30T09:59:35Z</time>
      </trkpt>
      <trkpt lat="48.7058" lon="2.09083">
        <ele>17</ele>
        <time>2026-01-30T09:59:36Z</time>
      </trkpt>
      <trkpt lat="48.7058" lon="2.09093">
        <ele>17</ele>
        <time>2026-01-30T09:59:37Z</time>
      </trkpt>
      <trkpt lat="48.70581" lon="2.09103">
        <ele>17</ele>
        <time>2026-01-30T09:59:38Z</time>
      </trkpt>
      <trkpt lat="48.70582" lon="2.09112">
        <ele>17.6</ele>
        <time>2026-01-30T09:59:39Z</time>
      </trkpt>
      <trkpt lat="48.70583" lon="2.09122">
        <ele>17.8</ele>
        <time>2026-01-30T09:59:40Z</time>
      </trkpt>
      <trkpt lat="48.70584" lon="2.09132">
        <ele>17.8</ele>
        <time>2026-01-30T09:59:41Z</time>
      </trkpt>
      <trkpt lat="48.70585" lon="2.09141">
        <ele>17.8</ele>
        <time>2026-01-30T09:59:42Z</time>
      </trkpt>
      <trkpt lat="48.70586" lon="2.09151">
        <ele>17.8</ele>
        <time>2026-01-30T09:59:43Z</time>
      </trkpt>
      <trkpt lat="48.70587" lon="2.09161">
        <ele>18</ele>
        <time>2026-01-30T09:59:44Z</time>
      </trkpt>
      <trkpt lat="48.70589" lon="2.0917">
        <ele>18</ele>
        <time>2026-01-30T09:59:45Z</time>
      </trkpt>
      <trkpt lat="48.7059" lon="2.0918">
        <ele>18</ele>
        <time>2026-01-30T09:59:46Z</time>
      </trkpt>
      <trkpt lat="48.70591" lon="2.0919">
        <ele>18</ele>
        <time>2026-01-30T09:59:47Z</time>
      </trkpt>
      <trkpt lat="48.70591" lon="2.092">
        <ele>18.6</ele>
        <time>2026-01-30T09:59:48Z</time>
      </trkpt>
      <trkpt lat="48.70592" lon="2.0921">
        <ele>18.6</ele>
        <time>2026-01-30T09:59:49Z</time>
      </trkpt>
      <trkpt lat="48.70592" lon="2.0922">
        <ele>18.6</ele>
        <time>2026-01-30T09:59:50Z</time>
      </trkpt>
      <trkpt lat="48.70592" lon="2.0923">
        <ele>18.6</ele>
        <time>2026-01-30T09:59:51Z</time>
      </trkpt>
      <trkpt lat="48.70591" lon="2.0924">
        <ele>18.6</ele>
        <time>2026-01-30T09:59:52Z</time>
      </trkpt>
      <trkpt lat="48.70591" lon="2.0925">
        <ele>18.6</ele>
        <time>2026-01-30T09:59:53Z</time>
      </trkpt>
      <trkpt lat="48.7059" lon="2.0926">
        <ele>18.6</ele>
        <time>2026-01-30T09:59:54Z</time>
      </trkpt>
      <trkpt lat="48.70588" lon="2.09271">
        <ele>18.6</ele>
        <time>2026-01-30T09:59:55Z</time>
      </trkpt>
      <trkpt lat="48.70586" lon="2.09281">
        <ele>18.4</ele>
        <time>2026-01-30T09:59:56Z</time>
      </trkpt>
      <trkpt lat="48.70583" lon="2.09291">
        <ele>18.4</ele>
        <time>2026-01-30T09:59:57Z</time>
      </trkpt>
      <trkpt lat="48.70581" lon="2.09302">
        <ele>18.4</ele>
        <time>2026-01-30T09:59:58Z</time>
      </trkpt>
      <trkpt lat="48.70578" lon="2.09312">
        <ele>18.4</ele>
        <time>2026-01-30T09:59:59Z</time>
      </trkpt>
      <trkpt lat="48.70574" lon="2.09323">
        <ele>16.6</ele>
        <time>2026-01-30T10:00:00Z</time>
      </trkpt>
      <trkpt lat="48.70571" lon="2.09333">
        <ele>16.6</ele>
        <time>2026-01-30T10:00:01Z</time>
      </trkpt>
      <trkpt lat="48.70568" lon="2.09344">
        <ele>16.6</ele>
        <time>2026-01-30T10:00:02Z</time>
      </trkpt>
      <trkpt lat="48.70564" lon="2.09354">
        <ele>16.6</ele>
        <time>2026-01-30T10:00:03Z</time>
      </trkpt>
      <trkpt lat="48.7056" lon="2.09365">
        <ele>16.2</ele>
        <time>2026-01-30T10:00:04Z</time>
      </trkpt>
      <trkpt lat="48.70556" lon="2.09377">
        <ele>16.2</ele>
        <time>2026-01-30T10:00:05Z</time>
      </trkpt>
      <trkpt lat="48.70552" lon="2.09388">
        <ele>16.2</ele>
        <time>2026-01-30T10:00:06Z</time>
      </trkpt>
      <trkpt lat="48.70548" lon="2.094">
        <ele>15.2</ele>
        <time>2026-01-30T10:00:07Z</time>
      </trkpt>
      <trkpt lat="48.70543" lon="2.09411">
        <ele>13.2</ele>
        <time>2026-01-30T10:00:08Z</time>
      </trkpt>
      <trkpt lat="48.70539" lon="2.09423">
        <ele>13.2</ele>
        <time>2026-01-30T10:00:09Z</time>
      </trkpt>
      <trkpt lat="48.70535" lon="2.09435">
        <ele>13.2</ele>
        <time>2026-01-30T10:00:10Z</time>
      </trkpt>
      <trkpt lat="48.7053" lon="2.09446">
        <ele>13</ele>
        <time>2026-01-30T10:00:11Z</time>
      </trkpt>
      <trkpt lat="48.70526" lon="2.09458">
        <ele>13</ele>
        <time>2026-01-30T10:00:12Z</time>
      </trkpt>
      <trkpt lat="48.70522" lon="2.09469">
        <ele>13</ele>
        <time>2026-01-30T10:00:13Z</time>
      </trkpt>
      <trkpt lat="48.70518" lon="2.0948">
        <ele>13</ele>
        <time>2026-01-30T10:00:14Z</time>
      </trkpt>
      <trkpt lat="48.70514" lon="2.09492">
        <ele>12</ele>
        <time>2026-01-30T10:00:15Z</time>
      </trkpt>
      <trkpt lat="48.70511" lon="2.09504">
        <ele>12</ele>
        <time>2026-01-30T10:00:16Z</time>
      </trkpt>
      <trkpt lat="48.70508" lon="2.09516">
        <ele>12</ele>
        <time>2026-01-30T10:00:17Z</time>
      </trkpt>
      <trkpt lat="48.70505" lon="2.09529">
        <ele>12</ele>
        <time>2026-01-30T10:00:18Z</time>
      </trkpt>
      <trkpt lat="48.70503" lon="2.09541">
        <ele>12</ele>
        <time>2026-01-30T10:00:19Z</time>
      </trkpt>
      <trkpt lat="48.705" lon="2.09553">
        <ele>13</ele>
        <time>2026-01-30T10:00:20Z</time>
      </trkpt>
      <trkpt lat="48.70498" lon="2.09564">
        <ele>13</ele>
        <time>2026-01-30T10:00:21Z</time>
      </trkpt>
      <trkpt lat="48.70496" lon="2.09576">
        <ele>13</ele>
        <time>2026-01-30T10:00:22Z</time>
      </trkpt>
      <trkpt lat="48.70495" lon="2.09587">
        <ele>14</ele>
        <time>2026-01-30T10:00:23Z</time>
      </trkpt>
      <trkpt lat="48.70493" lon="2.09598">
        <ele>14.4</ele>
        <time>2026-01-30T10:00:24Z</time>
      </trkpt>
      <trkpt lat="48.70491" lon="2.09609">
        <ele>14.4</ele>
        <time>2026-01-30T10:00:25Z</time>
      </trkpt>
      <trkpt lat="48.7049" lon="2.09619">
        <ele>14.4</ele>
        <time>2026-01-30T10:00:26Z</time>
      </trkpt>
      <trkpt lat="48.70488" lon="2.09629">
        <ele>15.4</ele>
        <time>2026-01-30T10:00:27Z</time>
      </trkpt>
      <trkpt lat="48.70486" lon="2.09639">
        <ele>15.2</ele>
        <time>2026-01-30T10:00:28Z</time>
      </trkpt>
      <trkpt lat="48.70485" lon="2.09649">
        <ele>15.2</ele>
        <time>2026-01-30T10:00:29Z</time>
      </trkpt>
      <trkpt lat="48.70484" lon="2.0966">
        <ele>15.2</ele>
        <time>2026-01-30T10:00:30Z</time>
      </trkpt>
      <trkpt lat="48.70482" lon="2.0967">
        <ele>15.2</ele>
        <time>2026-01-30T10:00:31Z</time>
      </trkpt>
      <trkpt lat="48.70481" lon="2.0968">
        <ele>14.6</ele>
        <time>2026-01-30T10:00:32Z</time>
      </trkpt>
      <trkpt lat="48.70479" lon="2.0969">
        <ele>14.6</ele>
        <time>2026-01-30T10:00:33Z</time>
      </trkpt>
      <trkpt lat="48.70477" lon="2.097">
        <ele>14.6</ele>
        <time>2026-01-30T10:00:34Z</time>
      </trkpt>
      <trkpt lat="48.70476" lon="2.0971">
        <ele>15.6</ele>
        <time>2026-01-30T10:00:35Z</time>
      </trkpt>
      <trkpt lat="48.70475" lon="2.09721">
        <ele>15</ele>
        <time>2026-01-30T10:00:36Z</time>
      </trkpt>
      <trkpt lat="48.70473" lon="2.09731">
        <ele>15</ele>
        <time>2026-01-30T10:00:37Z</time>
      </trkpt>
      <trkpt lat="48.70472" lon="2.09741">
        <ele>15</ele>
        <time>2026-01-30T10:00:38Z</time>
      </trkpt>
      <trkpt lat="48.7047" lon="2.09751">
        <ele>15</ele>
        <time>2026-01-30T10:00:39Z</time>
      </trkpt>
      <trkpt lat="48.70469" lon="2.0976">
        <ele>15</ele>
        <time>2026-01-30T10:00:40Z</time>
      </trkpt>
      <trkpt lat="48.70467" lon="2.0977">
        <ele>15</ele>
        <time>2026-01-30T10:00:41Z</time>
      </trkpt>
      <trkpt lat="48.70466" lon="2.0978">
        <ele>15</ele>
        <time>2026-01-30T10:00:42Z</time>
      </trkpt>
      <trkpt lat="48.70464" lon="2.0979">
        <ele>15</ele>
        <time>2026-01-30T10:00:43Z</time>
      </trkpt>
      <trkpt lat="48.70462" lon="2.09801">
        <ele>14.8</ele>
        <time>2026-01-30T10:00:44Z</time>
      </trkpt>
      <trkpt lat="48.7046" lon="2.09811">
        <ele>14.8</ele>
        <time>2026-01-30T10:00:45Z</time>
      </trkpt>
      <trkpt lat="48.70458" lon="2.09821">
        <ele>14.8</ele>
        <time>2026-01-30T10:00:46Z</time>
      </trkpt>
      <trkpt lat="48.70456" lon="2.09831">
        <ele>14.8</ele>
        <time>2026-01-30T10:00:47Z</time>
      </trkpt>
      <trkpt lat="48.70453" lon="2.0984">
        <ele>14.8</ele>
        <time>2026-01-30T10:00:48Z</time>
      </trkpt>
      <trkpt lat="48.7045" lon="2.0985">
        <ele>14.8</ele>
        <time>2026-01-30T10:00:49Z</time>
      </trkpt>
      <trkpt lat="48.70448" lon="2.0986">
        <ele>14.8</ele>
        <time>2026-01-30T10:00:50Z</time>
      </trkpt>
      <trkpt lat="48.70445" lon="2.0987">
        <ele>14.8</ele>
        <time>2026-01-30T10:00:51Z</time>
      </trkpt>
      <trkpt lat="48.70442" lon="2.0988">
        <ele>14.2</ele>
        <time>2026-01-30T10:00:52Z</time>
      </trkpt>
      <trkpt lat="48.70439" lon="2.0989">
        <ele>14.2</ele>
        <time>2026-01-30T10:00:53Z</time>
      </trkpt>
      <trkpt lat="48.70436" lon="2.099">
        <ele>14.2</ele>
        <time>2026-01-30T10:00:54Z</time>
      </trkpt>
      <trkpt lat="48.70432" lon="2.09909">
        <ele>13.2</ele>
        <time>2026-01-30T10:00:55Z</time>
      </trkpt>
      <trkpt lat="48.70429" lon="2.0992">
        <ele>12.8</ele>
        <time>2026-01-30T10:00:56Z</time>
      </trkpt>
      <trkpt lat="48.70426" lon="2.09931">
        <ele>12.8</ele>
        <time>2026-01-30T10:00:57Z</time>
      </trkpt>
      <trkpt lat="48.70423" lon="2.09942">
        <ele>12.8</ele>
        <time>2026-01-30T10:00:58Z</time>
      </trkpt>
      <trkpt lat="48.70419" lon="2.09953">
        <ele>11.8</ele>
        <time>2026-01-30T10:00:59Z</time>
      </trkpt>
      <trkpt lat="48.70416" lon="2.09965">
        <ele>10</ele>
        <time>2026-01-30T10:01:00Z</time>
      </trkpt>
      <trkpt lat="48.70412" lon="2.09977">
        <ele>10</ele>
        <time>2026-01-30T10:01:01Z</time>
      </trkpt>
      <trkpt lat="48.70409" lon="2.09989">
        <ele>10</ele>
        <time>2026-01-30T10:01:02Z</time>
      </trkpt>
      <trkpt lat="48.70405" lon="2.10001">
        <ele>9</ele>
        <time>2026-01-30T10:01:03Z</time>
      </trkpt>
      <trkpt lat="48.70402" lon="2.10013">
        <ele>8.8</ele>
        <time>2026-01-30T10:01:04Z</time>
      </trkpt>
      <trkpt lat="48.70398" lon="2.10025">
        <ele>8.8</ele>
        <time>2026-01-30T10:01:05Z</time>
      </trkpt>
      <trkpt lat="48.70395" lon="2.10037">
        <ele>8.8</ele>
        <time>2026-01-30T10:01:06Z</time>
      </trkpt>
      <trkpt lat="48.70392" lon="2.10049">
        <ele>8.8</ele>
        <time>2026-01-30T10:01:07Z</time>
      </trkpt>
      <trkpt lat="48.70389" lon="2.1006">
        <ele>8.6</ele>
        <time>2026-01-30T10:01:08Z</time>
      </trkpt>
      <trkpt lat="48.70386" lon="2.10071">
        <ele>8.6</ele>
        <time>2026-01-30T10:01:09Z</time>
      </trkpt>
      <trkpt lat="48.70383" lon="2.10082">
        <ele>8.6</ele>
        <time>2026-01-30T10:01:10Z</time>
      </trkpt>
      <trkpt lat="48.7038" lon="2.10093">
        <ele>8.6</ele>
        <time>2026-01-30T10:01:11Z</time>
      </trkpt>
      <trkpt lat="48.70377" lon="2.10103">
        <ele>7.6</ele>
        <time>2026-01-30T10:01:12Z</time>
      </trkpt>
      <trkpt lat="48.70374" lon="2.10113">
        <ele>7.6</ele>
        <time>2026-01-30T10:01:13Z</time>
      </trkpt>
      <trkpt lat="48.70371" lon="2.10124">
        <ele>7.6</ele>
        <time>2026-01-30T10:01:14Z</time>
      </trkpt>
      <trkpt lat="48.7037" lon="2.10135">
        <ele>8.6</ele>
        <time>2026-01-30T10:01:15Z</time>
      </trkpt>
      <trkpt lat="48.70368" lon="2.10145">
        <ele>8.8</ele>
        <time>2026-01-30T10:01:16Z</time>
      </trkpt>
      <trkpt lat="48.70367" lon="2.10157">
        <ele>8.8</ele>
        <time>2026-01-30T10:01:17Z</time>
      </trkpt>
      <trkpt lat="48.70366" lon="2.10167">
        <ele>8.8</ele>
        <time>2026-01-30T10:01:18Z</time>
      </trkpt>
      <trkpt lat="48.70365" lon="2.10178">
        <ele>8.8</ele>
        <time>2026-01-30T10:01:19Z</time>
      </trkpt>
      <trkpt lat="48.70364" lon="2.10189">
        <ele>9.4</ele>
        <time>2026-01-30T10:01:20Z</time>
      </trkpt>
      <trkpt lat="48.70363" lon="2.10199">
        <ele>9.4</ele>
        <time>2026-01-30T10:01:21Z</time>
      </trkpt>
      <trkpt lat="48.70361" lon="2.1021">
        <ele>9.4</ele>
        <time>2026-01-30T10:01:22Z</time>
      </trkpt>
      <trkpt lat="48.7036" lon="2.10219">
        <ele>9.6</ele>
        <time>2026-01-30T10:01:23Z</time>
      </trkpt>
      <trkpt lat="48.70357" lon="2.10229">
        <ele>9.4</ele>
        <time>2026-01-30T10:01:24Z</time>
      </trkpt>
      <trkpt lat="48.70355" lon="2.10239">
        <ele>9.4</ele>
        <time>2026-01-30T10:01:25Z</time>
      </trkpt>
      <trkpt lat="48.70352" lon="2.10248">
        <ele>9.4</ele>
        <time>2026-01-30T10:01:26Z</time>
      </trkpt>
      <trkpt lat="48.7035" lon="2.10257">
        <ele>9.4</ele>
        <time>2026-01-30T10:01:27Z</time>
      </trkpt>
      <trkpt lat="48.70348" lon="2.10267">
        <ele>10</ele>
        <time>2026-01-30T10:01:28Z</time>
      </trkpt>
      <trkpt lat="48.70346" lon="2.10275">
        <ele>10</ele>
        <time>2026-01-30T10:01:29Z</time>
      </trkpt>
      <trkpt lat="48.70344" lon="2.10285">
        <ele>10</ele>
        <time>2026-01-30T10:01:30Z</time>
      </trkpt>
      <trkpt lat="48.70342" lon="2.10294">
        <ele>10.4</ele>
        <time>2026-01-30T10:01:31Z</time>
      </trkpt>
      <trkpt lat="48.7034" lon="2.10304">
        <ele>10</ele>
        <time>2026-01-30T10:01:32Z</time>
      </trkpt>
      <trkpt lat="48.70339" lon="2.10314">
        <ele>10</ele>
        <time>2026-01-30T10:01:33Z</time>
      </trkpt>
      <trkpt lat="48.70338" lon="2.10323">
        <ele>10</ele>
        <time>2026-01-30T10:01:34Z</time>
      </trkpt>
      <trkpt lat="48.70336" lon="2.10333">
        <ele>10</ele>
        <time>2026-01-30T10:01:35Z</time>
      </trkpt>
      <trkpt lat="48.70335" lon="2.10343">
        <ele>11</ele>
        <time>2026-01-30T10:01:36Z</time>
      </trkpt>
      <trkpt lat="48.70334" lon="2.10353">
        <ele>11</ele>
        <time>2026-01-30T10:01:37Z</time>
      </trkpt>
      <trkpt lat="48.70333" lon="2.10363">
        <ele>11</ele>
        <time>2026-01-30T10:01:38Z</time>
      </trkpt>
      <trkpt lat="48.70333" lon="2.10373">
        <ele>11</ele>
        <time>2026-01-30T10:01:39Z</time>
      </trkpt>
      <trkpt lat="48.70333" lon="2.10383">
        <ele>9.4</ele>
        <time>2026-01-30T10:01:40Z</time>
      </trkpt>
      <trkpt lat="48.70333" lon="2.10393">
        <ele>9.4</ele>
        <time>2026-01-30T10:01:41Z</time>
      </trkpt>
      <trkpt lat="48.70333" lon="2.10402">
        <ele>9.4</ele>
        <time>2026-01-30T10:01:42Z</time>
      </trkpt>
      <trkpt lat="48.70333" lon="2.10413">
        <ele>10.4</ele>
        <time>2026-01-30T10:01:43Z</time>
      </trkpt>
      <trkpt lat="48.70334" lon="2.10422">
        <ele>11.2</ele>
        <time>2026-01-30T10:01:44Z</time>
      </trkpt>
      <trkpt lat="48.70336" lon="2.10432">
        <ele>11.2</ele>
        <time>2026-01-30T10:01:45Z</time>
      </trkpt>
      <trkpt lat="48.70337" lon="2.10442">
        <ele>11.2</ele>
        <time>2026-01-30T10:01:46Z</time>
      </trkpt>
      <trkpt lat="48.70339" lon="2.10452">
        <ele>11.2</ele>
        <time>2026-01-30T10:01:47Z</time>
      </trkpt>
      <trkpt lat="48.7034" lon="2.10462">
        <ele>11.8</ele>
        <time>2026-01-30T10:01:48Z</time>
      </trkpt>
      <trkpt lat="48.70342" lon="2.10472">
        <ele>11.8</ele>
        <time>2026-01-30T10:01:49Z</time>
      </trkpt>
      <trkpt lat="48.70343" lon="2.10481">
        <ele>11.8</ele>
        <time>2026-01-30T10:01:50Z</time>
      </trkpt>
      <trkpt lat="48.70344" lon="2.1049">
        <ele>11.8</ele>
        <time>2026-01-30T10:01:51Z</time>
      </trkpt>
      <trkpt lat="48.70346" lon="2.105">
        <ele>12.2</ele>
        <time>2026-01-30T10:01:52Z</time>
      </trkpt>
      <trkpt lat="48.70347" lon="2.1051">
        <ele>12.2</ele>
        <time>2026-01-30T10:01:53Z</time>
      </trkpt>
      <trkpt lat="48.70349" lon="2.1052">
        <ele>12.2</ele>
        <time>2026-01-30T10:01:54Z</time>
      </trkpt>
      <trkpt lat="48.7035" lon="2.10529">
        <ele>11.4</ele>
        <time>2026-01-30T10:01:55Z</time>
      </trkpt>
      <trkpt lat="48.70351" lon="2.10539">
        <ele>11.6</ele>
        <time>2026-01-30T10:01:56Z</time>
      </trkpt>
      <trkpt lat="48.70352" lon="2.10549">
        <ele>11.6</ele>
        <time>2026-01-30T10:01:57Z</time>
      </trkpt>
      <trkpt lat="48.70353" lon="2.10558">
        <ele>11.6</ele>
        <time>2026-01-30T10:01:58Z</time>
      </trkpt>
      <trkpt lat="48.70354" lon="2.10568">
        <ele>11.6</ele>
        <time>2026-01-30T10:01:59Z</time>
      </trkpt>
      <trkpt lat="48.70354" lon="2.10579">
        <ele>11.2</ele>
        <time>2026-01-30T10:02:00Z</time>
      </trkpt>
      <trkpt lat="48.70355" lon="2.10589">
        <ele>11.2</ele>
        <time>2026-01-30T10:02:01Z</time>
      </trkpt>
      <trkpt lat="48.70354" lon="2.10599">
        <ele>11.2</ele>
        <time>2026-01-30T10:02:02Z</time>
      </trkpt>
      <trkpt lat="48.70354" lon="2.10609">
        <ele>12</ele>
        <time>2026-01-30T10:02:03Z</time>
      </trkpt>
      <trkpt lat="48.70354" lon="2.10618">
        <ele>13.4</ele>
        <time>2026-01-30T10:02:04Z</time>
      </trkpt>
      <trkpt lat="48.70353" lon="2.10623">
        <ele>13.4</ele>
        <time>2026-01-30T10:02:05Z</time>
      </trkpt>
      <trkpt lat="48.70352" lon="2.10626">
        <ele>13.4</ele>
        <time>2026-01-30T10:02:06Z</time>
      </trkpt>
      <trkpt lat="48.7035" lon="2.1063">
        <ele>13.4</ele>
        <time>2026-01-30T10:02:07Z</time>
      </trkpt>
      <trkpt lat="48.70348" lon="2.10632">
        <ele>12.8</ele>
        <time>2026-01-30T10:02:08Z</time>
      </trkpt>
      <trkpt lat="48.70346" lon="2.10636">
        <ele>12.8</ele>
        <time>2026-01-30T10:02:09Z</time>
      </trkpt>
      <trkpt lat="48.70344" lon="2.1064">
        <ele>12.8</ele>
        <time>2026-01-30T10:02:10Z</time>
      </trkpt>
      <trkpt lat="48.70344" lon="2.10644">
        <ele>12.8</ele>
        <time>2026-01-30T10:02:11Z</time>
      </trkpt>
      <trkpt lat="48.70346" lon="2.1065">
        <ele>13.2</ele>
        <time>2026-01-30T10:02:12Z</time>
      </trkpt>
      <trkpt lat="48.70347" lon="2.10655">
        <ele>13.2</ele>
        <time>2026-01-30T10:02:13Z</time>
      </trkpt>
      <trkpt lat="48.70348" lon="2.10661">
        <ele>13.2</ele>
        <time>2026-01-30T10:02:14Z</time>
      </trkpt>
      <trkpt lat="48.70349" lon="2.10667">
        <ele>13.2</ele>
        <time>2026-01-30T10:02:15Z</time>
      </trkpt>
      <trkpt lat="48.70349" lon="2.10672">
        <ele>13.4</ele>
        <time>2026-01-30T10:02:16Z</time>
      </trkpt>
      <trkpt lat="48.70349" lon="2.10676">
        <ele>13.4</ele>
        <time>2026-01-30T10:02:17Z</time>
      </trkpt>
      <trkpt lat="48.70349" lon="2.1068">
        <ele>13.4</ele>
        <time>2026-01-30T10:02:18Z</time>
      </trkpt>
      <trkpt lat="48.70349" lon="2.10684">
        <ele>13.6</ele>
        <time>2026-01-30T10:02:19Z</time>
      </trkpt>
      <trkpt lat="48.70349" lon="2.10687">
        <ele>13.8</ele>
        <time>2026-01-30T10:02:20Z</time>
      </trkpt>
      <trkpt lat="48.70349" lon="2.10691">
        <ele>13.8</ele>
        <time>2026-01-30T10:02:21Z</time>
      </trkpt>
      <trkpt lat="48.70349" lon="2.10696">
        <ele>13.8</ele>
        <time>2026-01-30T10:02:22Z</time>
      </trkpt>
      <trkpt lat="48.70349" lon="2.10702">
        <ele>13.8</ele>
        <time>2026-01-30T10:02:23Z</time>
      </trkpt>
      <trkpt lat="48.70349" lon="2.10708">
        <ele>13.4</ele>
        <time>2026-01-30T10:02:24Z</time>
      </trkpt>
      <trkpt lat="48.70349" lon="2.10715">
        <ele>13.4</ele>
        <time>2026-01-30T10:02:25Z</time>
      </trkpt>
      <trkpt lat="48.70349" lon="2.10723">
        <ele>13.4</ele>
        <time>2026-01-30T10:02:26Z</time>
      </trkpt>
      <trkpt lat="48.7035" lon="2.10731">
        <ele>13.4</ele>
        <time>2026-01-30T10:02:27Z</time>
      </trkpt>
      <trkpt lat="48.7035" lon="2.1074">
        <ele>13</ele>
        <time>2026-01-30T10:02:28Z</time>
      </trkpt>
      <trkpt lat="48.70351" lon="2.10749">
        <ele>13</ele>
        <time>2026-01-30T10:02:29Z</time>
      </trkpt>
      <trkpt lat="48.70352" lon="2.10758">
        <ele>13</ele>
        <time>2026-01-30T10:02:30Z</time>
      </trkpt>
      <trkpt lat="48.70353" lon="2.10767">
        <ele>13.2</ele>
        <time>2026-01-30T10:02:31Z</time>
      </trkpt>
      <trkpt lat="48.70354" lon="2.10776">
        <ele>13.4</ele>
        <time>2026-01-30T10:02:32Z</time>
      </trkpt>
      <trkpt lat="48.70355" lon="2.10785">
        <ele>13.4</ele>
        <time>2026-01-30T10:02:33Z</time>
      </trkpt>
      <trkpt lat="48.70356" lon="2.10795">
        <ele>13.4</ele>
        <time>2026-01-30T10:02:34Z</time>
      </trkpt>
      <trkpt lat="48.70357" lon="2.10804">
        <ele>13.4</ele>
        <time>2026-01-30T10:02:35Z</time>
      </trkpt>
      <trkpt lat="48.70358" lon="2.10813">
        <ele>14</ele>
        <time>2026-01-30T10:02:36Z</time>
      </trkpt>
      <trkpt lat="48.70359" lon="2.10822">
        <ele>14</ele>
        <time>2026-01-30T10:02:37Z</time>
      </trkpt>
      <trkpt lat="48.70359" lon="2.10832">
        <ele>14</ele>
        <time>2026-01-30T10:02:38Z</time>
      </trkpt>
      <trkpt lat="48.70359" lon="2.1084">
        <ele>14</ele>
        <time>2026-01-30T10:02:39Z</time>
      </trkpt>
      <trkpt lat="48.70359" lon="2.10848">
        <ele>14.2</ele>
        <time>2026-01-30T10:02:40Z</time>
      </trkpt>
      <trkpt lat="48.7036" lon="2.10857">
        <ele>14.2</ele>
        <time>2026-01-30T10:02:41Z</time>
      </trkpt>
      <trkpt lat="48.7036" lon="2.10866">
        <ele>14.2</ele>
        <time>2026-01-30T10:02:42Z</time>
      </trkpt>
      <trkpt lat="48.70361" lon="2.10875">
        <ele>14.2</ele>
        <time>2026-01-30T10:02:43Z</time>
      </trkpt>
      <trkpt lat="48.70362" lon="2.10885">
        <ele>14.4</ele>
        <time>2026-01-30T10:02:44Z</time>
      </trkpt>
      <trkpt lat="48.70362" lon="2.10893">
        <ele>14.4</ele>
        <time>2026-01-30T10:02:45Z</time>
      </trkpt>
      <trkpt lat="48.70363" lon="2.10902">
        <ele>14.4</ele>
        <time>2026-01-30T10:02:46Z</time>
      </trkpt>
      <trkpt lat="48.70364" lon="2.10911">
        <ele>14.8</ele>
        <time>2026-01-30T10:02:47Z</time>
      </trkpt>
      <trkpt lat="48.70364" lon="2.10919">
        <ele>14</ele>
        <time>2026-01-30T10:02:48Z</time>
      </trkpt>
      <trkpt lat="48.70365" lon="2.10927">
        <ele>14</ele>
        <time>2026-01-30T10:02:49Z</time>
      </trkpt>
      <trkpt lat="48.70366" lon="2.10936">
        <ele>14</ele>
        <time>2026-01-30T10:02:50Z</time>
      </trkpt>
      <trkpt lat="48.70367" lon="2.10944">
        <ele>14.6</ele>
        <time>2026-01-30T10:02:51Z</time>
      </trkpt>
      <trkpt lat="48.70367" lon="2.10952">
        <ele>15.2</ele>
        <time>2026-01-30T10:02:52Z</time>
      </trkpt>
      <trkpt lat="48.70369" lon="2.10961">
        <ele>15.2</ele>
        <time>2026-01-30T10:02:53Z</time>
      </trkpt>
      <trkpt lat="48.70371" lon="2.10969">
        <ele>15.2</ele>
        <time>2026-01-30T10:02:54Z</time>
      </trkpt>
      <trkpt lat="48.70371" lon="2.10977">
        <ele>15.2</ele>
        <time>2026-01-30T10:02:55Z</time>
      </trkpt>
      <trkpt lat="48.70372" lon="2.10986">
        <ele>15.2</ele>
        <time>2026-01-30T10:02:56Z</time>
      </trkpt>
      <trkpt lat="48.70372" lon="2.10994">
        <ele>15.2</ele>
        <time>2026-01-30T10:02:57Z</time>
      </trkpt>
      <trkpt lat="48.70373" lon="2.11001">
        <ele>15.2</ele>
        <time>2026-01-30T10:02:58Z</time>
      </trkpt>
      <trkpt lat="48.70374" lon="2.1101">
        <ele>15.2</ele>
        <time>2026-01-30T10:02:59Z</time>
      </trkpt>
      <trkpt lat="48.70374" lon="2.11017">
        <ele>16.4</ele>
        <time>2026-01-30T10:03:00Z</time>
      </trkpt>
      <trkpt lat="48.70375" lon="2.11025">
        <ele>16.4</ele>
        <time>2026-01-30T10:03:01Z</time>
      </trkpt>
      <trkpt lat="48.70376" lon="2.11032">
        <ele>16.4</ele>
        <time>2026-01-30T10:03:02Z</time>
      </trkpt>
      <trkpt lat="48.70376" lon="2.11039">
        <ele>16.8</ele>
        <time>2026-01-30T10:03:03Z</time>
      </trkpt>
      <trkpt lat="48.70376" lon="2.11047">
        <ele>17.6</ele>
        <time>2026-01-30T10:03:04Z</time>
      </trkpt>
      <trkpt lat="48.70376" lon="2.11054">
        <ele>17.6</ele>
        <time>2026-01-30T10:03:05Z</time>
      </trkpt>
      <trkpt lat="48.70377" lon="2.11061">
        <ele>17.6</ele>
        <time>2026-01-30T10:03:06Z</time>
      </trkpt>
      <trkpt lat="48.70378" lon="2.11068">
        <ele>17.2</ele>
        <time>2026-01-30T10:03:07Z</time>
      </trkpt>
      <trkpt lat="48.70378" lon="2.11075">
        <ele>17.8</ele>
        <time>2026-01-30T10:03:08Z</time>
      </trkpt>
      <trkpt lat="48.70379" lon="2.11081">
        <ele>17.8</ele>
        <time>2026-01-30T10:03:09Z</time>
      </trkpt>
      <trkpt lat="48.70379" lon="2.11087">
        <ele>17.8</ele>
        <time>2026-01-30T10:03:10Z</time>
      </trkpt>
      <trkpt lat="48.70381" lon="2.11095">
        <ele>17.8</ele>
        <time>2026-01-30T10:03:11Z</time>
      </trkpt>
      <trkpt lat="48.70382" lon="2.11102">
        <ele>18.2</ele>
        <time>2026-01-30T10:03:12Z</time>
      </trkpt>
      <trkpt lat="48.70383" lon="2.11109">
        <ele>18.2</ele>
        <time>2026-01-30T10:03:13Z</time>
      </trkpt>
      <trkpt lat="48.70384" lon="2.11116">
        <ele>18.2</ele>
        <time>2026-01-30T10:03:14Z</time>
      </trkpt>
      <trkpt lat="48.70385" lon="2.11124">
        <ele>18.2</ele>
        <time>2026-01-30T10:03:15Z</time>
      </trkpt>
      <trkpt lat="48.70386" lon="2.11132">
        <ele>18.6</ele>
        <time>2026-01-30T10:03:16Z</time>
      </trkpt>
      <trkpt lat="48.70387" lon="2.11138">
        <ele>18.6</ele>
        <time>2026-01-30T10:03:17Z</time>
      </trkpt>
      <trkpt lat="48.70387" lon="2.11145">
        <ele>18.6</ele>
        <time>2026-01-30T10:03:18Z</time>
      </trkpt>
      <trkpt lat="48.70388" lon="2.11152">
        <ele>19.4</ele>
        <time>2026-01-30T10:03:19Z</time>
      </trkpt>
      <trkpt lat="48.7039" lon="2.11158">
        <ele>19.6</ele>
        <time>2026-01-30T10:03:20Z</time>
      </trkpt>
      <trkpt lat="48.7039" lon="2.11163">
        <ele>19.6</ele>
        <time>2026-01-30T10:03:21Z</time>
      </trkpt>
      <trkpt lat="48.70391" lon="2.11168">
        <ele>19.6</ele>
        <time>2026-01-30T10:03:22Z</time>
      </trkpt>
      <trkpt lat="48.70391" lon="2.1117">
        <ele>20.4</ele>
        <time>2026-01-30T10:03:23Z</time>
      </trkpt>
      <trkpt lat="48.70392" lon="2.11173">
        <ele>20.2</ele>
        <time>2026-01-30T10:03:24Z</time>
      </trkpt>
      <trkpt lat="48.70393" lon="2.11177">
        <ele>20.2</ele>
        <time>2026-01-30T10:03:25Z</time>
      </trkpt>
      <trkpt lat="48.70393" lon="2.11182">
        <ele>20.2</ele>
        <time>2026-01-30T10:03:26Z</time>
      </trkpt>
      <trkpt lat="48.70394" lon="2.11188">
        <ele>20.2</ele>
        <time>2026-01-30T10:03:27Z</time>
      </trkpt>
      <trkpt lat="48.70395" lon="2.11193">
        <ele>19.6</ele>
        <time>2026-01-30T10:03:28Z</time>
      </trkpt>
      <trkpt lat="48.70396" lon="2.112">
        <ele>19.6</ele>
        <time>2026-01-30T10:03:29Z</time>
      </trkpt>
      <trkpt lat="48.70396" lon="2.11208">
        <ele>19.6</ele>
        <time>2026-01-30T10:03:30Z</time>
      </trkpt>
      <trkpt lat="48.70397" lon="2.11215">
        <ele>19.6</ele>
        <time>2026-01-30T10:03:31Z</time>
      </trkpt>
      <trkpt lat="48.70398" lon="2.11223">
        <ele>19.6</ele>
        <time>2026-01-30T10:03:32Z</time>
      </trkpt>
      <trkpt lat="48.704" lon="2.11232">
        <ele>19.6</ele>
        <time>2026-01-30T10:03:33Z</time>
      </trkpt>
      <trkpt lat="48.70401" lon="2.1124">
        <ele>19.6</ele>
        <time>2026-01-30T10:03:34Z</time>
      </trkpt>
      <trkpt lat="48.70401" lon="2.11249">
        <ele>19.6</ele>
        <time>2026-01-30T10:03:35Z</time>
      </trkpt>
      <trkpt lat="48.70402" lon="2.11257">
        <ele>20.4</ele>
        <time>2026-01-30T10:03:36Z</time>
      </trkpt>
      <trkpt lat="48.70403" lon="2.11266">
        <ele>20.4</ele>
        <time>2026-01-30T10:03:37Z</time>
      </trkpt>
      <trkpt lat="48.70405" lon="2.11275">
        <ele>20.4</ele>
        <time>2026-01-30T10:03:38Z</time>
      </trkpt>
      <trkpt lat="48.70406" lon="2.11285">
        <ele>20.4</ele>
        <time>2026-01-30T10:03:39Z</time>
      </trkpt>
      <trkpt lat="48.70407" lon="2.11294">
        <ele>21.2</ele>
        <time>2026-01-30T10:03:40Z</time>
      </trkpt>
      <trkpt lat="48.70408" lon="2.11304">
        <ele>21.2</ele>
        <time>2026-01-30T10:03:41Z</time>
      </trkpt>
      <trkpt lat="48.7041" lon="2.11313">
        <ele>21.2</ele>
        <time>2026-01-30T10:03:42Z</time>
      </trkpt>
      <trkpt lat="48.70411" lon="2.11321">
        <ele>22.2</ele>
        <time>2026-01-30T10:03:43Z</time>
      </trkpt>
      <trkpt lat="48.70412" lon="2.11328">
        <ele>22.6</ele>
        <time>2026-01-30T10:03:44Z</time>
      </trkpt>
      <trkpt lat="48.70413" lon="2.11336">
        <ele>22.6</ele>
        <time>2026-01-30T10:03:45Z</time>
      </trkpt>
      <trkpt lat="48.70414" lon="2.11343">
        <ele>22.6</ele>
        <time>2026-01-30T10:03:46Z</time>
      </trkpt>
      <trkpt lat="48.70415" lon="2.11351">
        <ele>23.2</ele>
        <time>2026-01-30T10:03:47Z</time>
      </trkpt>
      <trkpt lat="48.70416" lon="2.11358">
        <ele>23.8</ele>
        <time>2026-01-30T10:03:48Z</time>
      </trkpt>
      <trkpt lat="48.70417" lon="2.11365">
        <ele>23.8</ele>
        <time>2026-01-30T10:03:49Z</time>
      </trkpt>
      <trkpt lat="48.70417" lon="2.11373">
        <ele>23.8</ele>
        <time>2026-01-30T10:03:50Z</time>
      </trkpt>
      <trkpt lat="48.70418" lon="2.1138">
        <ele>23.8</ele>
        <time>2026-01-30T10:03:51Z</time>
      </trkpt>
      <trkpt lat="48.70419" lon="2.11387">
        <ele>24.2</ele>
        <time>2026-01-30T10:03:52Z</time>
      </trkpt>
      <trkpt lat="48.7042" lon="2.11394">
        <ele>24.2</ele>
        <time>2026-01-30T10:03:53Z</time>
      </trkpt>
      <trkpt lat="48.70421" lon="2.11402">
        <ele>24.2</ele>
        <time>2026-01-30T10:03:54Z</time>
      </trkpt>
      <trkpt lat="48.70422" lon="2.11409">
        <ele>24.8</ele>
        <time>2026-01-30T10:03:55Z</time>
      </trkpt>
      <trkpt lat="48.70422" lon="2.11417">
        <ele>24.8</ele>
        <time>2026-01-30T10:03:56Z</time>
      </trkpt>
      <trkpt lat="48.70423" lon="2.11424">
        <ele>24.8</ele>
        <time>2026-01-30T10:03:57Z</time>
      </trkpt>
      <trkpt lat="48.70424" lon="2.11431">
        <ele>24.8</ele>
        <time>2026-01-30T10:03:58Z</time>
      </trkpt>
      <trkpt lat="48.70424" lon="2.11438">
        <ele>25.8</ele>
        <time>2026-01-30T10:03:59Z</time>
      </trkpt>
      <trkpt lat="48.70425" lon="2.11445">
        <ele>26.6</ele>
        <time>2026-01-30T10:04:00Z</time>
      </trkpt>
      <trkpt lat="48.70426" lon="2.11453">
        <ele>26.6</ele>
        <time>2026-01-30T10:04:01Z</time>
      </trkpt>
      <trkpt lat="48.70427" lon="2.1146">
        <ele>26.6</ele>
        <time>2026-01-30T10:04:02Z</time>
      </trkpt>
      <trkpt lat="48.70428" lon="2.11467">
        <ele>26.4</ele>
        <time>2026-01-30T10:04:03Z</time>
      </trkpt>
      <trkpt lat="48.70429" lon="2.11475">
        <ele>26.2</ele>
        <time>2026-01-30T10:04:04Z</time>
      </trkpt>
      <trkpt lat="48.7043" lon="2.11482">
        <ele>26.2</ele>
        <time>2026-01-30T10:04:05Z</time>
      </trkpt>
      <trkpt lat="48.70431" lon="2.11489">
        <ele>26.2</ele>
        <time>2026-01-30T10:04:06Z</time>
      </trkpt>
      <trkpt lat="48.70432" lon="2.11496">
        <ele>26.2</ele>
        <time>2026-01-30T10:04:07Z</time>
      </trkpt>
      <trkpt lat="48.70433" lon="2.11504">
        <ele>26.4</ele>
        <time>2026-01-30T10:04:08Z</time>
      </trkpt>
      <trkpt lat="48.70434" lon="2.11511">
        <ele>26.4</ele>
        <time>2026-01-30T10:04:09Z</time>
      </trkpt>
      <trkpt lat="48.70435" lon="2.11518">
        <ele>26.4</ele>
        <time>2026-01-30T10:04:10Z</time>
      </trkpt>
      <trkpt lat="48.70436" lon="2.11526">
        <ele>26.4</ele>
        <time>2026-01-30T10:04:11Z</time>
      </trkpt>
      <trkpt lat="48.70437" lon="2.11534">
        <ele>26.2</ele>
        <time>2026-01-30T10:04:12Z</time>
      </trkpt>
      <trkpt lat="48.70438" lon="2.11542">
        <ele>26.2</ele>
        <time>2026-01-30T10:04:13Z</time>
      </trkpt>
      <trkpt lat="48.70439" lon="2.1155">
        <ele>26.2</ele>
        <time>2026-01-30T10:04:14Z</time>
      </trkpt>
      <trkpt lat="48.7044" lon="2.11559">
        <ele>26.2</ele>
        <time>2026-01-30T10:04:15Z</time>
      </trkpt>
      <trkpt lat="48.70441" lon="2.11567">
        <ele>27</ele>
        <time>2026-01-30T10:04:16Z</time>
      </trkpt>
      <trkpt lat="48.70442" lon="2.11576">
        <ele>27</ele>
        <time>2026-01-30T10:04:17Z</time>
      </trkpt>
      <trkpt lat="48.70443" lon="2.11584">
        <ele>27</ele>
        <time>2026-01-30T10:04:18Z</time>
      </trkpt>
      <trkpt lat="48.70444" lon="2.11592">
        <ele>27</ele>
        <time>2026-01-30T10:04:19Z</time>
      </trkpt>
      <trkpt lat="48.70445" lon="2.11601">
        <ele>27.4</ele>
        <time>2026-01-30T10:04:20Z</time>
      </trkpt>
      <trkpt lat="48.70446" lon="2.11609">
        <ele>27.4</ele>
        <time>2026-01-30T10:04:21Z</time>
      </trkpt>
      <trkpt lat="48.70447" lon="2.11617">
        <ele>27.4</ele>
        <time>2026-01-30T10:04:22Z</time>
      </trkpt>
      <trkpt lat="48.70448" lon="2.11625">
        <ele>26.8</ele>
        <time>2026-01-30T10:04:23Z</time>
      </trkpt>
      <trkpt lat="48.70449" lon="2.11634">
        <ele>27</ele>
        <time>2026-01-30T10:04:24Z</time>
      </trkpt>
      <trkpt lat="48.7045" lon="2.11642">
        <ele>27</ele>
        <time>2026-01-30T10:04:25Z</time>
      </trkpt>
      <trkpt lat="48.7045" lon="2.1165">
        <ele>27</ele>
        <time>2026-01-30T10:04:26Z</time>
      </trkpt>
      <trkpt lat="48.70451" lon="2.11659">
        <ele>27</ele>
        <time>2026-01-30T10:04:27Z</time>
      </trkpt>
      <trkpt lat="48.70452" lon="2.11667">
        <ele>27.2</ele>
        <time>2026-01-30T10:04:28Z</time>
      </trkpt>
      <trkpt lat="48.70453" lon="2.11676">
        <ele>27.2</ele>
        <time>2026-01-30T10:04:29Z</time>
      </trkpt>
      <trkpt lat="48.70454" lon="2.11684">
        <ele>27.2</ele>
        <time>2026-01-30T10:04:30Z</time>
      </trkpt>
      <trkpt lat="48.70455" lon="2.11693">
        <ele>27.2</ele>
        <time>2026-01-30T10:04:31Z</time>
      </trkpt>
      <trkpt lat="48.70456" lon="2.11701">
        <ele>27.2</ele>
        <time>2026-01-30T10:04:32Z</time>
      </trkpt>
      <trkpt lat="48.70457" lon="2.11709">
        <ele>27.2</ele>
        <time>2026-01-30T10:04:33Z</time>
      </trkpt>
      <trkpt lat="48.70458" lon="2.11716">
        <ele>27.2</ele>
        <time>2026-01-30T10:04:34Z</time>
      </trkpt>
      <trkpt lat="48.70458" lon="2.11723">
        <ele>27.2</ele>
        <time>2026-01-30T10:04:35Z</time>
      </trkpt>
      <trkpt lat="48.70459" lon="2.11731">
        <ele>28</ele>
        <time>2026-01-30T10:04:36Z</time>
      </trkpt>
      <trkpt lat="48.70459" lon="2.11739">
        <ele>28</ele>
        <time>2026-01-30T10:04:37Z</time>
      </trkpt>
      <trkpt lat="48.7046" lon="2.11747">
        <ele>28</ele>
        <time>2026-01-30T10:04:38Z</time>
      </trkpt>
      <trkpt lat="48.70461" lon="2.11755">
        <ele>28.8</ele>
        <time>2026-01-30T10:04:39Z</time>
      </trkpt>
      <trkpt lat="48.70462" lon="2.11763">
        <ele>28.8</ele>
        <time>2026-01-30T10:04:40Z</time>
      </trkpt>
      <trkpt lat="48.70463" lon="2.11771">
        <ele>28.8</ele>
        <time>2026-01-30T10:04:41Z</time>
      </trkpt>
      <trkpt lat="48.70464" lon="2.1178">
        <ele>28.8</ele>
        <time>2026-01-30T10:04:42Z</time>
      </trkpt>
      <trkpt lat="48.70465" lon="2.11788">
        <ele>28.6</ele>
        <time>2026-01-30T10:04:43Z</time>
      </trkpt>
      <trkpt lat="48.70466" lon="2.11796">
        <ele>29</ele>
        <time>2026-01-30T10:04:44Z</time>
      </trkpt>
      <trkpt lat="48.70467" lon="2.11804">
        <ele>29</ele>
        <time>2026-01-30T10:04:45Z</time>
      </trkpt>
      <trkpt lat="48.70468" lon="2.11813">
        <ele>29</ele>
        <time>2026-01-30T10:04:46Z</time>
      </trkpt>
      <trkpt lat="48.70469" lon="2.11821">
        <ele>29</ele>
        <time>2026-01-30T10:04:47Z</time>
      </trkpt>
      <trkpt lat="48.7047" lon="2.1183">
        <ele>29.4</ele>
        <time>2026-01-30T10:04:48Z</time>
      </trkpt>
      <trkpt lat="48.70471" lon="2.11838">
        <ele>29.4</ele>
        <time>2026-01-30T10:04:49Z</time>
      </trkpt>
      <trkpt lat="48.70472" lon="2.11847">
        <ele>29.4</ele>
        <time>2026-01-30T10:04:50Z</time>
      </trkpt>
      <trkpt lat="48.70473" lon="2.11857">
        <ele>29.4</ele>
        <time>2026-01-30T10:04:51Z</time>
      </trkpt>
      <trkpt lat="48.70475" lon="2.11867">
        <ele>29</ele>
        <time>2026-01-30T10:04:52Z</time>
      </trkpt>
      <trkpt lat="48.70476" lon="2.11876">
        <ele>29</ele>
        <time>2026-01-30T10:04:53Z</time>
      </trkpt>
      <trkpt lat="48.70477" lon="2.11886">
        <ele>29</ele>
        <time>2026-01-30T10:04:54Z</time>
      </trkpt>
      <trkpt lat="48.70478" lon="2.11895">
        <ele>29</ele>
        <time>2026-01-30T10:04:55Z</time>
      </trkpt>
      <trkpt lat="48.70479" lon="2.11905">
        <ele>28.4</ele>
        <time>2026-01-30T10:04:56Z</time>
      </trkpt>
      <trkpt lat="48.7048" lon="2.11915">
        <ele>28.4</ele>
        <time>2026-01-30T10:04:57Z</time>
      </trkpt>
      <trkpt lat="48.70481" lon="2.11925">
        <ele>28.4</ele>
        <time>2026-01-30T10:04:58Z</time>
      </trkpt>
      <trkpt lat="48.70483" lon="2.11934">
        <ele>29.4</ele>
        <time>2026-01-30T10:04:59Z</time>
      </trkpt>
      <trkpt lat="48.70484" lon="2.11944">
        <ele>28.4</ele>
        <time>2026-01-30T10:05:00Z</time>
      </trkpt>
      <trkpt lat="48.70484" lon="2.11955">
        <ele>28.4</ele>
        <time>2026-01-30T10:05:01Z</time>
      </trkpt>
      <trkpt lat="48.70485" lon="2.11965">
        <ele>28.4</ele>
        <time>2026-01-30T10:05:02Z</time>
      </trkpt>
      <trkpt lat="48.70487" lon="2.11975">
        <ele>29</ele>
        <time>2026-01-30T10:05:03Z</time>
      </trkpt>
      <trkpt lat="48.70488" lon="2.11985">
        <ele>29.4</ele>
        <time>2026-01-30T10:05:04Z</time>
      </trkpt>
      <trkpt lat="48.70489" lon="2.11995">
        <ele>29.4</ele>
        <time>2026-01-30T10:05:05Z</time>
      </trkpt>
      <trkpt lat="48.7049" lon="2.12005">
        <ele>29.4</ele>
        <time>2026-01-30T10:05:06Z</time>
      </trkpt>
      <trkpt lat="48.70491" lon="2.12015">
        <ele>29.2</ele>
        <time>2026-01-30T10:05:07Z</time>
      </trkpt>
      <trkpt lat="48.70492" lon="2.12025">
        <ele>28.4</ele>
        <time>2026-01-30T10:05:08Z</time>
      </trkpt>
      <trkpt lat="48.70494" lon="2.12035">
        <ele>28.4</ele>
        <time>2026-01-30T10:05:09Z</time>
      </trkpt>
      <trkpt lat="48.70495" lon="2.12044">
        <ele>28.4</ele>
        <time>2026-01-30T10:05:10Z</time>
      </trkpt>
      <trkpt lat="48.70496" lon="2.12054">
        <ele>29.4</ele>
        <time>2026-01-30T10:05:11Z</time>
      </trkpt>
      <trkpt lat="48.70497" lon="2.12064">
        <ele>29.6</ele>
        <time>2026-01-30T10:05:12Z</time>
      </trkpt>
      <trkpt lat="48.70498" lon="2.12075">
        <ele>29.6</ele>
        <time>2026-01-30T10:05:13Z</time>
      </trkpt>
      <trkpt lat="48.70499" lon="2.12085">
        <ele>29.6</ele>
        <time>2026-01-30T10:05:14Z</time>
      </trkpt>
      <trkpt lat="48.70501" lon="2.12095">
        <ele>29</ele>
        <time>2026-01-30T10:05:15Z</time>
      </trkpt>
      <trkpt lat="48.70502" lon="2.12105">
        <ele>29.2</ele>
        <time>2026-01-30T10:05:16Z</time>
      </trkpt>
      <trkpt lat="48.70503" lon="2.12116">
        <ele>29.2</ele>
        <time>2026-01-30T10:05:17Z</time>
      </trkpt>
      <trkpt lat="48.70504" lon="2.12126">
        <ele>29.2</ele>
        <time>2026-01-30T10:05:18Z</time>
      </trkpt>
      <trkpt lat="48.70505" lon="2.12137">
        <ele>29.8</ele>
        <time>2026-01-30T10:05:19Z</time>
      </trkpt>
      <trkpt lat="48.70506" lon="2.12148">
        <ele>30</ele>
        <time>2026-01-30T10:05:20Z</time>
      </trkpt>
      <trkpt lat="48.70507" lon="2.12159">
        <ele>30</ele>
        <time>2026-01-30T10:05:21Z</time>
      </trkpt>
      <trkpt lat="48.70506" lon="2.1217">
        <ele>30</ele>
        <time>2026-01-30T10:05:22Z</time>
      </trkpt>
      <trkpt lat="48.70504" lon="2.12181">
        <ele>29</ele>
        <time>2026-01-30T10:05:23Z</time>
      </trkpt>
      <trkpt lat="48.70502" lon="2.12192">
        <ele>26.8</ele>
        <time>2026-01-30T10:05:24Z</time>
      </trkpt>
      <trkpt lat="48.705" lon="2.12204">
        <ele>26.8</ele>
        <time>2026-01-30T10:05:25Z</time>
      </trkpt>
      <trkpt lat="48.70497" lon="2.12217">
        <ele>26.8</ele>
        <time>2026-01-30T10:05:26Z</time>
      </trkpt>
      <trkpt lat="48.70494" lon="2.1223">
        <ele>25.8</ele>
        <time>2026-01-30T10:05:27Z</time>
      </trkpt>
      <trkpt lat="48.7049" lon="2.12243">
        <ele>22.2</ele>
        <time>2026-01-30T10:05:28Z</time>
      </trkpt>
      <trkpt lat="48.70487" lon="2.12257">
        <ele>22.2</ele>
        <time>2026-01-30T10:05:29Z</time>
      </trkpt>
      <trkpt lat="48.70484" lon="2.12271">
        <ele>22.2</ele>
        <time>2026-01-30T10:05:30Z</time>
      </trkpt>
      <trkpt lat="48.70481" lon="2.12285">
        <ele>22.2</ele>
        <time>2026-01-30T10:05:31Z</time>
      </trkpt>
      <trkpt lat="48.70478" lon="2.12299">
        <ele>20.6</ele>
        <time>2026-01-30T10:05:32Z</time>
      </trkpt>
      <trkpt lat="48.70475" lon="2.12313">
        <ele>20.6</ele>
        <time>2026-01-30T10:05:33Z</time>
      </trkpt>
      <trkpt lat="48.70472" lon="2.12327">
        <ele>20.6</ele>
        <time>2026-01-30T10:05:34Z</time>
      </trkpt>
      <trkpt lat="48.70469" lon="2.12341">
        <ele>20</ele>
        <time>2026-01-30T10:05:35Z</time>
      </trkpt>
      <trkpt lat="48.70466" lon="2.12355">
        <ele>18.2</ele>
        <time>2026-01-30T10:05:36Z</time>
      </trkpt>
      <trkpt lat="48.70463" lon="2.12369">
        <ele>18.2</ele>
        <time>2026-01-30T10:05:37Z</time>
      </trkpt>
      <trkpt lat="48.7046" lon="2.12383">
        <ele>18.2</ele>
        <time>2026-01-30T10:05:38Z</time>
      </trkpt>
      <trkpt lat="48.70456" lon="2.12397">
        <ele>18.2</ele>
        <time>2026-01-30T10:05:39Z</time>
      </trkpt>
      <trkpt lat="48.70453" lon="2.12411">
        <ele>17.2</ele>
        <time>2026-01-30T10:05:40Z</time>
      </trkpt>
      <trkpt lat="48.7045" lon="2.12425">
        <ele>17.2</ele>
        <time>2026-01-30T10:05:41Z</time>
      </trkpt>
      <trkpt lat="48.70447" lon="2.12438">
        <ele>17.2</ele>
        <time>2026-01-30T10:05:42Z</time>
      </trkpt>
      <trkpt lat="48.70444" lon="2.1245">
        <ele>16.8</ele>
        <time>2026-01-30T10:05:43Z</time>
      </trkpt>
      <trkpt lat="48.70441" lon="2.12462">
        <ele>15.6</ele>
        <time>2026-01-30T10:05:44Z</time>
      </trkpt>
      <trkpt lat="48.70438" lon="2.12475">
        <ele>15.6</ele>
        <time>2026-01-30T10:05:45Z</time>
      </trkpt>
      <trkpt lat="48.70435" lon="2.12488">
        <ele>15.6</ele>
        <time>2026-01-30T10:05:46Z</time>
      </trkpt>
      <trkpt lat="48.70433" lon="2.12501">
        <ele>16</ele>
        <time>2026-01-30T10:05:47Z</time>
      </trkpt>
      <trkpt lat="48.7043" lon="2.12514">
        <ele>15.2</ele>
        <time>2026-01-30T10:05:48Z</time>
      </trkpt>
      <trkpt lat="48.70427" lon="2.12528">
        <ele>15.2</ele>
        <time>2026-01-30T10:05:49Z</time>
      </trkpt>
      <trkpt lat="48.70424" lon="2.12541">
        <ele>15.2</ele>
        <time>2026-01-30T10:05:50Z</time>
      </trkpt>
      <trkpt lat="48.70421" lon="2.12553">
        <ele>14.2</ele>
        <time>2026-01-30T10:05:51Z</time>
      </trkpt>
      <trkpt lat="48.70419" lon="2.12565">
        <ele>14.8</ele>
        <time>2026-01-30T10:05:52Z</time>
      </trkpt>
      <trkpt lat="48.70416" lon="2.12575">
        <ele>14.8</ele>
        <time>2026-01-30T10:05:53Z</time>
      </trkpt>
      <trkpt lat="48.70414" lon="2.12585">
        <ele>14.8</ele>
        <time>2026-01-30T10:05:54Z</time>
      </trkpt>
      <trkpt lat="48.70412" lon="2.12594">
        <ele>14.2</ele>
        <time>2026-01-30T10:05:55Z</time>
      </trkpt>
      <trkpt lat="48.7041" lon="2.12603">
        <ele>14</ele>
        <time>2026-01-30T10:05:56Z</time>
      </trkpt>
      <trkpt lat="48.70408" lon="2.12611">
        <ele>14</ele>
        <time>2026-01-30T10:05:57Z</time>
      </trkpt>
      <trkpt lat="48.70406" lon="2.12618">
        <ele>14</ele>
        <time>2026-01-30T10:05:58Z</time>
      </trkpt>
      <trkpt lat="48.70405" lon="2.12625">
        <ele>14</ele>
        <time>2026-01-30T10:05:59Z</time>
      </trkpt>
      <trkpt lat="48.70404" lon="2.12631">
        <ele>14.4</ele>
        <time>2026-01-30T10:06:00Z</time>
      </trkpt>
      <trkpt lat="48.70402" lon="2.12637">
        <ele>14.4</ele>
        <time>2026-01-30T10:06:01Z</time>
      </trkpt>
      <trkpt lat="48.70401" lon="2.12643">
        <ele>14.4</ele>
        <time>2026-01-30T10:06:02Z</time>
      </trkpt>
      <trkpt lat="48.70399" lon="2.1265">
        <ele>13.8</ele>
        <time>2026-01-30T10:06:03Z</time>
      </trkpt>
      <trkpt lat="48.70398" lon="2.12657">
        <ele>13</ele>
        <time>2026-01-30T10:06:04Z</time>
      </trkpt>
      <trkpt lat="48.70396" lon="2.12665">
        <ele>13</ele>
        <time>2026-01-30T10:06:05Z</time>
      </trkpt>
      <trkpt lat="48.70394" lon="2.12673">
        <ele>13</ele>
        <time>2026-01-30T10:06:06Z</time>
      </trkpt>
      <trkpt lat="48.70392" lon="2.12681">
        <ele>12</ele>
        <time>2026-01-30T10:06:07Z</time>
      </trkpt>
      <trkpt lat="48.7039" lon="2.12691">
        <ele>11</ele>
        <time>2026-01-30T10:06:08Z</time>
      </trkpt>
      <trkpt lat="48.70387" lon="2.127">
        <ele>11</ele>
        <time>2026-01-30T10:06:09Z</time>
      </trkpt>
      <trkpt lat="48.70385" lon="2.1271">
        <ele>11</ele>
        <time>2026-01-30T10:06:10Z</time>
      </trkpt>
      <trkpt lat="48.70383" lon="2.12721">
        <ele>10.6</ele>
        <time>2026-01-30T10:06:11Z</time>
      </trkpt>
      <trkpt lat="48.7038" lon="2.12732">
        <ele>9.6</ele>
        <time>2026-01-30T10:06:12Z</time>
      </trkpt>
      <trkpt lat="48.70378" lon="2.12742">
        <ele>9.6</ele>
        <time>2026-01-30T10:06:13Z</time>
      </trkpt>
      <trkpt lat="48.70375" lon="2.12753">
        <ele>9.6</ele>
        <time>2026-01-30T10:06:14Z</time>
      </trkpt>
      <trkpt lat="48.70373" lon="2.12765">
        <ele>9.6</ele>
        <time>2026-01-30T10:06:15Z</time>
      </trkpt>
      <trkpt lat="48.7037" lon="2.12776">
        <ele>8.4</ele>
        <time>2026-01-30T10:06:16Z</time>
      </trkpt>
      <trkpt lat="48.70368" lon="2.12787">
        <ele>8.4</ele>
        <time>2026-01-30T10:06:17Z</time>
      </trkpt>
      <trkpt lat="48.70365" lon="2.12799">
        <ele>8.4</ele>
        <time>2026-01-30T10:06:18Z</time>
      </trkpt>
      <trkpt lat="48.70363" lon="2.12811">
        <ele>8.4</ele>
        <time>2026-01-30T10:06:19Z</time>
      </trkpt>
      <trkpt lat="48.7036" lon="2.12823">
        <ele>7.4</ele>
        <time>2026-01-30T10:06:20Z</time>
      </trkpt>
      <trkpt lat="48.70357" lon="2.12836">
        <ele>7.4</ele>
        <time>2026-01-30T10:06:21Z</time>
      </trkpt>
      <trkpt lat="48.70354" lon="2.12848">
        <ele>7.4</ele>
        <time>2026-01-30T10:06:22Z</time>
      </trkpt>
      <trkpt lat="48.70351" lon="2.1286">
        <ele>6.4</ele>
        <time>2026-01-30T10:06:23Z</time>
      </trkpt>
      <trkpt lat="48.70348" lon="2.12872">
        <ele>5.8</ele>
        <time>2026-01-30T10:06:24Z</time>
      </trkpt>
      <trkpt lat="48.70345" lon="2.12883">
        <ele>5.8</ele>
        <time>2026-01-30T10:06:25Z</time>
      </trkpt>
      <trkpt lat="48.70343" lon="2.12895">
        <ele>5.8</ele>
        <time>2026-01-30T10:06:26Z</time>
      </trkpt>
      <trkpt lat="48.7034" lon="2.12906">
        <ele>6.8</ele>
        <time>2026-01-30T10:06:27Z</time>
      </trkpt>
      <trkpt lat="48.70338" lon="2.12918">
        <ele>7.2</ele>
        <time>2026-01-30T10:06:28Z</time>
      </trkpt>
      <trkpt lat="48.70335" lon="2.12929">
        <ele>7.2</ele>
        <time>2026-01-30T10:06:29Z</time>
      </trkpt>
      <trkpt lat="48.70332" lon="2.12941">
        <ele>7.2</ele>
        <time>2026-01-30T10:06:30Z</time>
      </trkpt>
      <trkpt lat="48.7033" lon="2.12952">
        <ele>6.2</ele>
        <time>2026-01-30T10:06:31Z</time>
      </trkpt>
      <trkpt lat="48.70326" lon="2.12964">
        <ele>5.6</ele>
        <time>2026-01-30T10:06:32Z</time>
      </trkpt>
      <trkpt lat="48.70323" lon="2.12975">
        <ele>5.6</ele>
        <time>2026-01-30T10:06:33Z</time>
      </trkpt>
      <trkpt lat="48.70319" lon="2.12985">
        <ele>5.6</ele>
        <time>2026-01-30T10:06:34Z</time>
      </trkpt>
      <trkpt lat="48.70315" lon="2.12995">
        <ele>5.6</ele>
        <time>2026-01-30T10:06:35Z</time>
      </trkpt>
      <trkpt lat="48.7031" lon="2.13006">
        <ele>4</ele>
        <time>2026-01-30T10:06:36Z</time>
      </trkpt>
      <trkpt lat="48.70306" lon="2.13016">
        <ele>4</ele>
        <time>2026-01-30T10:06:37Z</time>
      </trkpt>
      <trkpt lat="48.70301" lon="2.13026">
        <ele>4</ele>
        <time>2026-01-30T10:06:38Z</time>
      </trkpt>
      <trkpt lat="48.70297" lon="2.13036">
        <ele>4.8</ele>
        <time>2026-01-30T10:06:39Z</time>
      </trkpt>
      <trkpt lat="48.70292" lon="2.13046">
        <ele>4</ele>
        <time>2026-01-30T10:06:40Z</time>
      </trkpt>
      <trkpt lat="48.70288" lon="2.13056">
        <ele>4</ele>
        <time>2026-01-30T10:06:41Z</time>
      </trkpt>
      <trkpt lat="48.70283" lon="2.13066">
        <ele>4</ele>
        <time>2026-01-30T10:06:42Z</time>
      </trkpt>
      <trkpt lat="48.70278" lon="2.13077">
        <ele>4</ele>
        <time>2026-01-30T10:06:43Z</time>
      </trkpt>
      <trkpt lat="48.70273" lon="2.13086">
        <ele>5.4</ele>
        <time>2026-01-30T10:06:44Z</time>
      </trkpt>
      <trkpt lat="48.70269" lon="2.13096">
        <ele>5.4</ele>
        <time>2026-01-30T10:06:45Z</time>
      </trkpt>
      <trkpt lat="48.70264" lon="2.13105">
        <ele>5.4</ele>
        <time>2026-01-30T10:06:46Z</time>
      </trkpt>
      <trkpt lat="48.7026" lon="2.13115">
        <ele>4.4</ele>
        <time>2026-01-30T10:06:47Z</time>
      </trkpt>
      <trkpt lat="48.70256" lon="2.13125">
        <ele>5.2</ele>
        <time>2026-01-30T10:06:48Z</time>
      </trkpt>
      <trkpt lat="48.70252" lon="2.13134">
        <ele>5.2</ele>
        <time>2026-01-30T10:06:49Z</time>
      </trkpt>
      <trkpt lat="48.70248" lon="2.13143">
        <ele>5.2</ele>
        <time>2026-01-30T10:06:50Z</time>
      </trkpt>
      <trkpt lat="48.70244" lon="2.13152">
        <ele>5.2</ele>
        <time>2026-01-30T10:06:51Z</time>
      </trkpt>
      <trkpt lat="48.7024" lon="2.13161">
        <ele>5.8</ele>
        <time>2026-01-30T10:06:52Z</time>
      </trkpt>
      <trkpt lat="48.70237" lon="2.1317">
        <ele>5.8</ele>
        <time>2026-01-30T10:06:53Z</time>
      </trkpt>
      <trkpt lat="48.70233" lon="2.13179">
        <ele>5.8</ele>
        <time>2026-01-30T10:06:54Z</time>
      </trkpt>
      <trkpt lat="48.7023" lon="2.13189">
        <ele>4.8</ele>
        <time>2026-01-30T10:06:55Z</time>
      </trkpt>
      <trkpt lat="48.70227" lon="2.13198">
        <ele>4</ele>
        <time>2026-01-30T10:06:56Z</time>
      </trkpt>
      <trkpt lat="48.70225" lon="2.13207">
        <ele>4</ele>
        <time>2026-01-30T10:06:57Z</time>
      </trkpt>
      <trkpt lat="48.70222" lon="2.13217">
        <ele>4</ele>
        <time>2026-01-30T10:06:58Z</time>
      </trkpt>
      <trkpt lat="48.7022" lon="2.13227">
        <ele>5</ele>
        <time>2026-01-30T10:06:59Z</time>
      </trkpt>
      <trkpt lat="48.70219" lon="2.13237">
        <ele>5.4</ele>
        <time>2026-01-30T10:07:00Z</time>
      </trkpt>
      <trkpt lat="48.70217" lon="2.13246">
        <ele>5.4</ele>
        <time>2026-01-30T10:07:01Z</time>
      </trkpt>
      <trkpt lat="48.70216" lon="2.13255">
        <ele>5.4</ele>
        <time>2026-01-30T10:07:02Z</time>
      </trkpt>
      <trkpt lat="48.70215" lon="2.13265">
        <ele>5.4</ele>
        <time>2026-01-30T10:07:03Z</time>
      </trkpt>
      <trkpt lat="48.70214" lon="2.13274">
        <ele>6.8</ele>
        <time>2026-01-30T10:07:04Z</time>
      </trkpt>
      <trkpt lat="48.70215" lon="2.13283">
        <ele>6.8</ele>
        <time>2026-01-30T10:07:05Z</time>
      </trkpt>
      <trkpt lat="48.70215" lon="2.13292">
        <ele>6.8</ele>
        <time>2026-01-30T10:07:06Z</time>
      </trkpt>
      <trkpt lat="48.70216" lon="2.133">
        <ele>6.8</ele>
        <time>2026-01-30T10:07:07Z</time>
      </trkpt>
      <trkpt lat="48.70216" lon="2.13308">
        <ele>7</ele>
        <time>2026-01-30T10:07:08Z</time>
      </trkpt>
      <trkpt lat="48.70215" lon="2.13317">
        <ele>7</ele>
        <time>2026-01-30T10:07:09Z</time>
      </trkpt>
      <trkpt lat="48.70214" lon="2.13324">
        <ele>7</ele>
        <time>2026-01-30T10:07:10Z</time>
      </trkpt>
      <trkpt lat="48.70214" lon="2.13332">
        <ele>7</ele>
        <time>2026-01-30T10:07:11Z</time>
      </trkpt>
      <trkpt lat="48.70214" lon="2.1334">
        <ele>6.8</ele>
        <time>2026-01-30T10:07:12Z</time>
      </trkpt>
      <trkpt lat="48.70213" lon="2.13348">
        <ele>6.8</ele>
        <time>2026-01-30T10:07:13Z</time>
      </trkpt>
      <trkpt lat="48.70213" lon="2.13355">
        <ele>6.8</ele>
        <time>2026-01-30T10:07:14Z</time>
      </trkpt>
      <trkpt lat="48.70213" lon="2.13363">
        <ele>6.8</ele>
        <time>2026-01-30T10:07:15Z</time>
      </trkpt>
      <trkpt lat="48.70214" lon="2.13371">
        <ele>7.6</ele>
        <time>2026-01-30T10:07:16Z</time>
      </trkpt>
      <trkpt lat="48.70215" lon="2.13378">
        <ele>7.6</ele>
        <time>2026-01-30T10:07:17Z</time>
      </trkpt>
      <trkpt lat="48.70216" lon="2.13385">
        <ele>7.6</ele>
        <time>2026-01-30T10:07:18Z</time>
      </trkpt>
      <trkpt lat="48.70217" lon="2.13392">
        <ele>8.2</ele>
        <time>2026-01-30T10:07:19Z</time>
      </trkpt>
      <trkpt lat="48.70219" lon="2.134">
        <ele>9.8</ele>
        <time>2026-01-30T10:07:20Z</time>
      </trkpt>
      <trkpt lat="48.7022" lon="2.13408">
        <ele>9.8</ele>
        <time>2026-01-30T10:07:21Z</time>
      </trkpt>
      <trkpt lat="48.70222" lon="2.13415">
        <ele>9.8</ele>
        <time>2026-01-30T10:07:22Z</time>
      </trkpt>
      <trkpt lat="48.70223" lon="2.13424">
        <ele>9.4</ele>
        <time>2026-01-30T10:07:23Z</time>
      </trkpt>
      <trkpt lat="48.70223" lon="2.13432">
        <ele>10.4</ele>
        <time>2026-01-30T10:07:24Z</time>
      </trkpt>
      <trkpt lat="48.70224" lon="2.1344">
        <ele>10.4</ele>
        <time>2026-01-30T10:07:25Z</time>
      </trkpt>
      <trkpt lat="48.70225" lon="2.13448">
        <ele>10.4</ele>
        <time>2026-01-30T10:07:26Z</time>
      </trkpt>
      <trkpt lat="48.70226" lon="2.13456">
        <ele>10.8</ele>
        <time>2026-01-30T10:07:27Z</time>
      </trkpt>
      <trkpt lat="48.70228" lon="2.13464">
        <ele>11.6</ele>
        <time>2026-01-30T10:07:28Z</time>
      </trkpt>
      <trkpt lat="48.70229" lon="2.13471">
        <ele>11.6</ele>
        <time>2026-01-30T10:07:29Z</time>
      </trkpt>
      <trkpt lat="48.70229" lon="2.13478">
        <ele>11.6</ele>
        <time>2026-01-30T10:07:30Z</time>
      </trkpt>
      <trkpt lat="48.7023" lon="2.13485">
        <ele>12.6</ele>
        <time>2026-01-30T10:07:31Z</time>
      </trkpt>
      <trkpt lat="48.7023" lon="2.13492">
        <ele>13</ele>
        <time>2026-01-30T10:07:32Z</time>
      </trkpt>
      <trkpt lat="48.7023" lon="2.135">
        <ele>13</ele>
        <time>2026-01-30T10:07:33Z</time>
      </trkpt>
      <trkpt lat="48.7023" lon="2.13506">
        <ele>13</ele>
        <time>2026-01-30T10:07:34Z</time>
      </trkpt>
      <trkpt lat="48.70229" lon="2.13512">
        <ele>14</ele>
        <time>2026-01-30T10:07:35Z</time>
      </trkpt>
      <trkpt lat="48.70226" lon="2.13517">
        <ele>13.8</ele>
        <time>2026-01-30T10:07:36Z</time>
      </trkpt>
      <trkpt lat="48.70223" lon="2.13521">
        <ele>13.8</ele>
        <time>2026-01-30T10:07:37Z</time>
      </trkpt>
      <trkpt lat="48.7022" lon="2.13523">
        <ele>13.8</ele>
        <time>2026-01-30T10:07:38Z</time>
      </trkpt>
      <trkpt lat="48.70216" lon="2.13525">
        <ele>12.8</ele>
        <time>2026-01-30T10:07:39Z</time>
      </trkpt>
      <trkpt lat="48.70211" lon="2.13527">
        <ele>11.2</ele>
        <time>2026-01-30T10:07:40Z</time>
      </trkpt>
      <trkpt lat="48.70205" lon="2.1353">
        <ele>11.2</ele>
        <time>2026-01-30T10:07:41Z</time>
      </trkpt>
      <trkpt lat="48.702" lon="2.13533">
        <ele>11.2</ele>
        <time>2026-01-30T10:07:42Z</time>
      </trkpt>
      <trkpt lat="48.70193" lon="2.13537">
        <ele>11.2</ele>
        <time>2026-01-30T10:07:43Z</time>
      </trkpt>
      <trkpt lat="48.70187" lon="2.1354">
        <ele>8.8</ele>
        <time>2026-01-30T10:07:44Z</time>
      </trkpt>
      <trkpt lat="48.7018" lon="2.13543">
        <ele>8.8</ele>
        <time>2026-01-30T10:07:45Z</time>
      </trkpt>
      <trkpt lat="48.70173" lon="2.13546">
        <ele>8.8</ele>
        <time>2026-01-30T10:07:46Z</time>
      </trkpt>
      <trkpt lat="48.70167" lon="2.13549">
        <ele>8.8</ele>
        <time>2026-01-30T10:07:47Z</time>
      </trkpt>
      <trkpt lat="48.7016" lon="2.13551">
        <ele>5.4</ele>
        <time>2026-01-30T10:07:48Z</time>
      </trkpt>
      <trkpt lat="48.70153" lon="2.13553">
        <ele>5.4</ele>
        <time>2026-01-30T10:07:49Z</time>
      </trkpt>
      <trkpt lat="48.70147" lon="2.13556">
        <ele>5.4</ele>
        <time>2026-01-30T10:07:50Z</time>
      </trkpt>
      <trkpt lat="48.7014" lon="2.13557">
        <ele>4.4</ele>
        <time>2026-01-30T10:07:51Z</time>
      </trkpt>
      <trkpt lat="48.70133" lon="2.13559">
        <ele>2.2</ele>
        <time>2026-01-30T10:07:52Z</time>
      </trkpt>
      <trkpt lat="48.70125" lon="2.13561">
        <ele>2.2</ele>
        <time>2026-01-30T10:07:53Z</time>
      </trkpt>
      <trkpt lat="48.70118" lon="2.13563">
        <ele>2.2</ele>
        <time>2026-01-30T10:07:54Z</time>
      </trkpt>
      <trkpt lat="48.70111" lon="2.13566">
        <ele>2.2</ele>
        <time>2026-01-30T10:07:55Z</time>
      </trkpt>
      <trkpt lat="48.70104" lon="2.1357">
        <ele>2.2</ele>
        <time>2026-01-30T10:07:56Z</time>
      </trkpt>
      <trkpt lat="48.70096" lon="2.13575">
        <ele>2.2</ele>
        <time>2026-01-30T10:07:57Z</time>
      </trkpt>
      <trkpt lat="48.70088" lon="2.13578">
        <ele>2.2</ele>
        <time>2026-01-30T10:07:58Z</time>
      </trkpt>
      <trkpt lat="48.70081" lon="2.13582">
        <ele>2.4</ele>
        <time>2026-01-30T10:07:59Z</time>
      </trkpt>
      <trkpt lat="48.70074" lon="2.13586">
        <ele>2.8</ele>
        <time>2026-01-30T10:08:00Z</time>
      </trkpt>
      <trkpt lat="48.70068" lon="2.13589">
        <ele>2.8</ele>
        <time>2026-01-30T10:08:01Z</time>
      </trkpt>
      <trkpt lat="48.70061" lon="2.13592">
        <ele>2.8</ele>
        <time>2026-01-30T10:08:02Z</time>
      </trkpt>
      <trkpt lat="48.70055" lon="2.13594">
        <ele>2.8</ele>
        <time>2026-01-30T10:08:03Z</time>
      </trkpt>
      <trkpt lat="48.7005" lon="2.13595">
        <ele>2.6</ele>
        <time>2026-01-30T10:08:04Z</time>
      </trkpt>
      <trkpt lat="48.70044" lon="2.13597">
        <ele>2.6</ele>
        <time>2026-01-30T10:08:05Z</time>
      </trkpt>
      <trkpt lat="48.70038" lon="2.13598">
        <ele>2.6</ele>
        <time>2026-01-30T10:08:06Z</time>
      </trkpt>
      <trkpt lat="48.70033" lon="2.13599">
        <ele>2.6</ele>
        <time>2026-01-30T10:08:07Z</time>
      </trkpt>
      <trkpt lat="48.70027" lon="2.13602">
        <ele>3.2</ele>
        <time>2026-01-30T10:08:08Z</time>
      </trkpt>
      <trkpt lat="48.70022" lon="2.13604">
        <ele>3.2</ele>
        <time>2026-01-30T10:08:09Z</time>
      </trkpt>
      <trkpt lat="48.70016" lon="2.13606">
        <ele>3.2</ele>
        <time>2026-01-30T10:08:10Z</time>
      </trkpt>
      <trkpt lat="48.7001" lon="2.13608">
        <ele>3.2</ele>
        <time>2026-01-30T10:08:11Z</time>
      </trkpt>
      <trkpt lat="48.70004" lon="2.13611">
        <ele>4</ele>
        <time>2026-01-30T10:08:12Z</time>
      </trkpt>
      <trkpt lat="48.69999" lon="2.13613">
        <ele>4</ele>
        <time>2026-01-30T10:08:13Z</time>
      </trkpt>
      <trkpt lat="48.69993" lon="2.13616">
        <ele>4</ele>
        <time>2026-01-30T10:08:14Z</time>
      </trkpt>
      <trkpt lat="48.69987" lon="2.13618">
        <ele>4</ele>
        <time>2026-01-30T10:08:15Z</time>
      </trkpt>
      <trkpt lat="48.69981" lon="2.1362">
        <ele>3.4</ele>
        <time>2026-01-30T10:08:16Z</time>
      </trkpt>
      <trkpt lat="48.69975" lon="2.13623">
        <ele>3.4</ele>
        <time>2026-01-30T10:08:17Z</time>
      </trkpt>
      <trkpt lat="48.69969" lon="2.13626">
        <ele>3.4</ele>
        <time>2026-01-30T10:08:18Z</time>
      </trkpt>
      <trkpt lat="48.69962" lon="2.13629">
        <ele>2.4</ele>
        <time>2026-01-30T10:08:19Z</time>
      </trkpt>
      <trkpt lat="48.69955" lon="2.13633">
        <ele>1.8</ele>
        <time>2026-01-30T10:08:20Z</time>
      </trkpt>
      <trkpt lat="48.69949" lon="2.13638">
        <ele>1.8</ele>
        <time>2026-01-30T10:08:21Z</time>
      </trkpt>
      <trkpt lat="48.69944" lon="2.13643">
        <ele>1.8</ele>
        <time>2026-01-30T10:08:22Z</time>
      </trkpt>
      <trkpt lat="48.69938" lon="2.13649">
        <ele>2.8</ele>
        <time>2026-01-30T10:08:23Z</time>
      </trkpt>
      <trkpt lat="48.69933" lon="2.13655">
        <ele>3</ele>
        <time>2026-01-30T10:08:24Z</time>
      </trkpt>
      <trkpt lat="48.69929" lon="2.13662">
        <ele>3</ele>
        <time>2026-01-30T10:08:25Z</time>
      </trkpt>
      <trkpt lat="48.69926" lon="2.1367">
        <ele>3</ele>
        <time>2026-01-30T10:08:26Z</time>
      </trkpt>
      <trkpt lat="48.69923" lon="2.13678">
        <ele>3</ele>
        <time>2026-01-30T10:08:27Z</time>
      </trkpt>
      <trkpt lat="48.69921" lon="2.13686">
        <ele>4.4</ele>
        <time>2026-01-30T10:08:28Z</time>
      </trkpt>
      <trkpt lat="48.6992" lon="2.13694">
        <ele>4.4</ele>
        <time>2026-01-30T10:08:29Z</time>
      </trkpt>
      <trkpt lat="48.69918" lon="2.13699">
        <ele>4.4</ele>
        <time>2026-01-30T10:08:30Z</time>
      </trkpt>
      <trkpt lat="48.69917" lon="2.13703">
        <ele>5.4</ele>
        <time>2026-01-30T10:08:31Z</time>
      </trkpt>
      <trkpt lat="48.69916" lon="2.13706">
        <ele>5.4</ele>
        <time>2026-01-30T10:08:32Z</time>
      </trkpt>
      <trkpt lat="48.69915" lon="2.13709">
        <ele>5.4</ele>
        <time>2026-01-30T10:08:33Z</time>
      </trkpt>
      <trkpt lat="48.69914" lon="2.13712">
        <ele>5.4</ele>
        <time>2026-01-30T10:08:34Z</time>
      </trkpt>
      <trkpt lat="48.69913" lon="2.13716">
        <ele>5.8</ele>
        <time>2026-01-30T10:08:35Z</time>
      </trkpt>
      <trkpt lat="48.69912" lon="2.1372">
        <ele>5.6</ele>
        <time>2026-01-30T10:08:36Z</time>
      </trkpt>
      <trkpt lat="48.6991" lon="2.13724">
        <ele>5.6</ele>
        <time>2026-01-30T10:08:37Z</time>
      </trkpt>
      <trkpt lat="48.69909" lon="2.13729">
        <ele>5.6</ele>
        <time>2026-01-30T10:08:38Z</time>
      </trkpt>
      <trkpt lat="48.69907" lon="2.13734">
        <ele>5.6</ele>
        <time>2026-01-30T10:08:39Z</time>
      </trkpt>
      <trkpt lat="48.69906" lon="2.1374">
        <ele>5.6</ele>
        <time>2026-01-30T10:08:40Z</time>
      </trkpt>
      <trkpt lat="48.69904" lon="2.13745">
        <ele>5.6</ele>
        <time>2026-01-30T10:08:41Z</time>
      </trkpt>
      <trkpt lat="48.69902" lon="2.13751">
        <ele>5.6</ele>
        <time>2026-01-30T10:08:42Z</time>
      </trkpt>
      <trkpt lat="48.699" lon="2.13756">
        <ele>6.4</ele>
        <time>2026-01-30T10:08:43Z</time>
      </trkpt>
      <trkpt lat="48.69898" lon="2.13761">
        <ele>6.4</ele>
        <time>2026-01-30T10:08:44Z</time>
      </trkpt>
      <trkpt lat="48.69896" lon="2.13766">
        <ele>6.4</ele>
        <time>2026-01-30T10:08:45Z</time>
      </trkpt>
      <trkpt lat="48.69894" lon="2.13771">
        <ele>6.4</ele>
        <time>2026-01-30T10:08:46Z</time>
      </trkpt>
      <trkpt lat="48.69892" lon="2.13778">
        <ele>6.4</ele>
        <time>2026-01-30T10:08:47Z</time>
      </trkpt>
      <trkpt lat="48.69889" lon="2.13784">
        <ele>6.2</ele>
        <time>2026-01-30T10:08:48Z</time>
      </trkpt>
      <trkpt lat="48.69887" lon="2.13791">
        <ele>6.2</ele>
        <time>2026-01-30T10:08:49Z</time>
      </trkpt>
      <trkpt lat="48.69885" lon="2.13798">
        <ele>6.2</ele>
        <time>2026-01-30T10:08:50Z</time>
      </trkpt>
      <trkpt lat="48.69883" lon="2.13804">
        <ele>5.8</ele>
        <time>2026-01-30T10:08:51Z</time>
      </trkpt>
      <trkpt lat="48.6988" lon="2.1381">
        <ele>5.6</ele>
        <time>2026-01-30T10:08:52Z</time>
      </trkpt>
      <trkpt lat="48.69878" lon="2.13817">
        <ele>5.6</ele>
        <time>2026-01-30T10:08:53Z</time>
      </trkpt>
      <trkpt lat="48.69876" lon="2.13825">
        <ele>5.6</ele>
        <time>2026-01-30T10:08:54Z</time>
      </trkpt>
      <trkpt lat="48.69874" lon="2.13833">
        <ele>5.6</ele>
        <time>2026-01-30T10:08:55Z</time>
      </trkpt>
      <trkpt lat="48.69873" lon="2.13842">
        <ele>5</ele>
        <time>2026-01-30T10:08:56Z</time>
      </trkpt>
      <trkpt lat="48.69871" lon="2.1385">
        <ele>5</ele>
        <time>2026-01-30T10:08:57Z</time>
      </trkpt>
      <trkpt lat="48.69871" lon="2.13859">
        <ele>5</ele>
        <time>2026-01-30T10:08:58Z</time>
      </trkpt>
      <trkpt lat="48.69871" lon="2.13867">
        <ele>4.6</ele>
        <time>2026-01-30T10:08:59Z</time>
      </trkpt>
      <trkpt lat="48.69869" lon="2.13876">
        <ele>4.8</ele>
        <time>2026-01-30T10:09:00Z</time>
      </trkpt>
      <trkpt lat="48.69868" lon="2.13883">
        <ele>4.8</ele>
        <time>2026-01-30T10:09:01Z</time>
      </trkpt>
      <trkpt lat="48.69868" lon="2.1389">
        <ele>4.8</ele>
        <time>2026-01-30T10:09:02Z</time>
      </trkpt>
      <trkpt lat="48.69867" lon="2.13897">
        <ele>4.8</ele>
        <time>2026-01-30T10:09:03Z</time>
      </trkpt>
      <trkpt lat="48.69866" lon="2.13905">
        <ele>5.2</ele>
        <time>2026-01-30T10:09:04Z</time>
      </trkpt>
      <trkpt lat="48.69865" lon="2.13914">
        <ele>5.2</ele>
        <time>2026-01-30T10:09:05Z</time>
      </trkpt>
      <trkpt lat="48.69863" lon="2.13924">
        <ele>5.2</ele>
        <time>2026-01-30T10:09:06Z</time>
      </trkpt>
      <trkpt lat="48.6986" lon="2.13931">
        <ele>4.2</ele>
        <time>2026-01-30T10:09:07Z</time>
      </trkpt>
      <trkpt lat="48.69856" lon="2.13937">
        <ele>3.8</ele>
        <time>2026-01-30T10:09:08Z</time>
      </trkpt>
      <trkpt lat="48.69851" lon="2.13941">
        <ele>3.8</ele>
        <time>2026-01-30T10:09:09Z</time>
      </trkpt>
      <trkpt lat="48.69846" lon="2.13943">
        <ele>3.8</ele>
        <time>2026-01-30T10:09:10Z</time>
      </trkpt>
      <trkpt lat="48.69841" lon="2.13941">
        <ele>3.8</ele>
        <time>2026-01-30T10:09:11Z</time>
      </trkpt>
      <trkpt lat="48.69839" lon="2.13941">
        <ele>3.4</ele>
        <time>2026-01-30T10:09:12Z</time>
      </trkpt>
      <trkpt lat="48.69835" lon="2.13941">
        <ele>3.4</ele>
        <time>2026-01-30T10:09:13Z</time>
      </trkpt>
      <trkpt lat="48.69831" lon="2.13937">
        <ele>3.4</ele>
        <time>2026-01-30T10:09:14Z</time>
      </trkpt>
      <trkpt lat="48.69828" lon="2.13932">
        <ele>4.2</ele>
        <time>2026-01-30T10:09:15Z</time>
      </trkpt>
      <trkpt lat="48.69826" lon="2.13927">
        <ele>4.6</ele>
        <time>2026-01-30T10:09:16Z</time>
      </trkpt>
      <trkpt lat="48.69825" lon="2.13921">
        <ele>4.6</ele>
        <time>2026-01-30T10:09:17Z</time>
      </trkpt>
      <trkpt lat="48.69824" lon="2.13915">
        <ele>4.6</ele>
        <time>2026-01-30T10:09:18Z</time>
      </trkpt>
      <trkpt lat="48.69823" lon="2.13909">
        <ele>5</ele>
        <time>2026-01-30T10:09:19Z</time>
      </trkpt>
      <trkpt lat="48.69822" lon="2.13902">
        <ele>5.2</ele>
        <time>2026-01-30T10:09:20Z</time>
      </trkpt>
      <trkpt lat="48.69823" lon="2.13896">
        <ele>5.2</ele>
        <time>2026-01-30T10:09:21Z</time>
      </trkpt>
      <trkpt lat="48.69823" lon="2.13891">
        <ele>5.2</ele>
        <time>2026-01-30T10:09:22Z</time>
      </trkpt>
      <trkpt lat="48.69822" lon="2.13885">
        <ele>5.8</ele>
        <time>2026-01-30T10:09:23Z</time>
      </trkpt>
      <trkpt lat="48.69822" lon="2.1388">
        <ele>5.6</ele>
        <time>2026-01-30T10:09:24Z</time>
      </trkpt>
      <trkpt lat="48.69823" lon="2.13874">
        <ele>5.6</ele>
        <time>2026-01-30T10:09:25Z</time>
      </trkpt>
      <trkpt lat="48.69823" lon="2.13868">
        <ele>5.6</ele>
        <time>2026-01-30T10:09:26Z</time>
      </trkpt>
      <trkpt lat="48.69821" lon="2.13863">
        <ele>6.6</ele>
        <time>2026-01-30T10:09:27Z</time>
      </trkpt>
      <trkpt lat="48.69819" lon="2.13859">
        <ele>8</ele>
        <time>2026-01-30T10:09:28Z</time>
      </trkpt>
      <trkpt lat="48.69817" lon="2.13853">
        <ele>8</ele>
        <time>2026-01-30T10:09:29Z</time>
      </trkpt>
      <trkpt lat="48.69814" lon="2.13847">
        <ele>8</ele>
        <time>2026-01-30T10:09:30Z</time>
      </trkpt>
      <trkpt lat="48.69813" lon="2.1384">
        <ele>7.6</ele>
        <time>2026-01-30T10:09:31Z</time>
      </trkpt>
      <trkpt lat="48.69811" lon="2.13833">
        <ele>7.6</ele>
        <time>2026-01-30T10:09:32Z</time>
      </trkpt>
      <trkpt lat="48.6981" lon="2.13826">
        <ele>7.6</ele>
        <time>2026-01-30T10:09:33Z</time>
      </trkpt>
      <trkpt lat="48.69808" lon="2.13819">
        <ele>7.6</ele>
        <time>2026-01-30T10:09:34Z</time>
      </trkpt>
      <trkpt lat="48.69806" lon="2.13813">
        <ele>7.6</ele>
        <time>2026-01-30T10:09:35Z</time>
      </trkpt>
      <trkpt lat="48.69804" lon="2.13806">
        <ele>8.2</ele>
        <time>2026-01-30T10:09:36Z</time>
      </trkpt>
      <trkpt lat="48.69803" lon="2.13799">
        <ele>8.2</ele>
        <time>2026-01-30T10:09:37Z</time>
      </trkpt>
      <trkpt lat="48.69801" lon="2.13792">
        <ele>8.2</ele>
        <time>2026-01-30T10:09:38Z</time>
      </trkpt>
      <trkpt lat="48.698" lon="2.13786">
        <ele>8.4</ele>
        <time>2026-01-30T10:09:39Z</time>
      </trkpt>
      <trkpt lat="48.69799" lon="2.13779">
        <ele>9</ele>
        <time>2026-01-30T10:09:40Z</time>
      </trkpt>
      <trkpt lat="48.69797" lon="2.13772">
        <ele>9</ele>
        <time>2026-01-30T10:09:41Z</time>
      </trkpt>
      <trkpt lat="48.69796" lon="2.13765">
        <ele>9</ele>
        <time>2026-01-30T10:09:42Z</time>
      </trkpt>
      <trkpt lat="48.69795" lon="2.13758">
        <ele>9</ele>
        <time>2026-01-30T10:09:43Z</time>
      </trkpt>
      <trkpt lat="48.69795" lon="2.13751">
        <ele>9.6</ele>
        <time>2026-01-30T10:09:44Z</time>
      </trkpt>
      <trkpt lat="48.69794" lon="2.13743">
        <ele>9.6</ele>
        <time>2026-01-30T10:09:45Z</time>
      </trkpt>
      <trkpt lat="48.69793" lon="2.13736">
        <ele>9.6</ele>
        <time>2026-01-30T10:09:46Z</time>
      </trkpt>
      <trkpt lat="48.69792" lon="2.13729">
        <ele>9.6</ele>
        <time>2026-01-30T10:09:47Z</time>
      </trkpt>
      <trkpt lat="48.69791" lon="2.13722">
        <ele>10</ele>
        <time>2026-01-30T10:09:48Z</time>
      </trkpt>
      <trkpt lat="48.69789" lon="2.13715">
        <ele>10</ele>
        <time>2026-01-30T10:09:49Z</time>
      </trkpt>
      <trkpt lat="48.69788" lon="2.13708">
        <ele>10</ele>
        <time>2026-01-30T10:09:50Z</time>
      </trkpt>
      <trkpt lat="48.69787" lon="2.13701">
        <ele>9.8</ele>
        <time>2026-01-30T10:09:51Z</time>
      </trkpt>
      <trkpt lat="48.69785" lon="2.13693">
        <ele>9.8</ele>
        <time>2026-01-30T10:09:52Z</time>
      </trkpt>
      <trkpt lat="48.69784" lon="2.13685">
        <ele>9.8</ele>
        <time>2026-01-30T10:09:53Z</time>
      </trkpt>
      <trkpt lat="48.69783" lon="2.13677">
        <ele>9.8</ele>
        <time>2026-01-30T10:09:54Z</time>
      </trkpt>
      <trkpt lat="48.69782" lon="2.1367">
        <ele>9.8</ele>
        <time>2026-01-30T10:09:55Z</time>
      </trkpt>
      <trkpt lat="48.69781" lon="2.13661">
        <ele>10</ele>
        <time>2026-01-30T10:09:56Z</time>
      </trkpt>
      <trkpt lat="48.69781" lon="2.13652">
        <ele>10</ele>
        <time>2026-01-30T10:09:57Z</time>
      </trkpt>
      <trkpt lat="48.69781" lon="2.13644">
        <ele>10</ele>
        <time>2026-01-30T10:09:58Z</time>
      </trkpt>
      <trkpt lat="48.69781" lon="2.13635">
        <ele>10.4</ele>
        <time>2026-01-30T10:09:59Z</time>
      </trkpt>
      <trkpt lat="48.69781" lon="2.13627">
        <ele>10.4</ele>
        <time>2026-01-30T10:10:00Z</time>
      </trkpt>
      <trkpt lat="48.69781" lon="2.13617">
        <ele>10.4</ele>
        <time>2026-01-30T10:10:01Z</time>
      </trkpt>
      <trkpt lat="48.69781" lon="2.13609">
        <ele>10.4</ele>
        <time>2026-01-30T10:10:02Z</time>
      </trkpt>
      <trkpt lat="48.69782" lon="2.136">
        <ele>10.4</ele>
        <time>2026-01-30T10:10:03Z</time>
      </trkpt>
      <trkpt lat="48.69782" lon="2.13592">
        <ele>10.8</ele>
        <time>2026-01-30T10:10:04Z</time>
      </trkpt>
      <trkpt lat="48.69782" lon="2.13584">
        <ele>10.8</ele>
        <time>2026-01-30T10:10:05Z</time>
      </trkpt>
      <trkpt lat="48.69782" lon="2.13576">
        <ele>10.8</ele>
        <time>2026-01-30T10:10:06Z</time>
      </trkpt>
      <trkpt lat="48.69783" lon="2.13568">
        <ele>11.4</ele>
        <time>2026-01-30T10:10:07Z</time>
      </trkpt>
      <trkpt lat="48.69783" lon="2.13561">
        <ele>12</ele>
        <time>2026-01-30T10:10:08Z</time>
      </trkpt>
      <trkpt lat="48.69782" lon="2.13553">
        <ele>12</ele>
        <time>2026-01-30T10:10:09Z</time>
      </trkpt>
      <trkpt lat="48.69782" lon="2.13545">
        <ele>12</ele>
        <time>2026-01-30T10:10:10Z</time>
      </trkpt>
      <trkpt lat="48.69782" lon="2.13538">
        <ele>12.8</ele>
        <time>2026-01-30T10:10:11Z</time>
      </trkpt>
      <trkpt lat="48.69782" lon="2.1353">
        <ele>12.8</ele>
        <time>2026-01-30T10:10:12Z</time>
      </trkpt>
      <trkpt lat="48.69783" lon="2.13522">
        <ele>12.8</ele>
        <time>2026-01-30T10:10:13Z</time>
      </trkpt>
      <trkpt lat="48.69782" lon="2.13515">
        <ele>12.8</ele>
        <time>2026-01-30T10:10:14Z</time>
      </trkpt>
      <trkpt lat="48.69782" lon="2.13507">
        <ele>13.6</ele>
        <time>2026-01-30T10:10:15Z</time>
      </trkpt>
      <trkpt lat="48.69782" lon="2.13499">
        <ele>13.4</ele>
        <time>2026-01-30T10:10:16Z</time>
      </trkpt>
      <trkpt lat="48.69781" lon="2.13492">
        <ele>13.4</ele>
        <time>2026-01-30T10:10:17Z</time>
      </trkpt>
      <trkpt lat="48.6978" lon="2.13485">
        <ele>13.4</ele>
        <time>2026-01-30T10:10:18Z</time>
      </trkpt>
      <trkpt lat="48.6978" lon="2.13477">
        <ele>13.4</ele>
        <time>2026-01-30T10:10:19Z</time>
      </trkpt>
      <trkpt lat="48.69779" lon="2.13468">
        <ele>13.4</ele>
        <time>2026-01-30T10:10:20Z</time>
      </trkpt>
      <trkpt lat="48.69779" lon="2.1346">
        <ele>13.4</ele>
        <time>2026-01-30T10:10:21Z</time>
      </trkpt>
      <trkpt lat="48.69778" lon="2.13451">
        <ele>13.4</ele>
        <time>2026-01-30T10:10:22Z</time>
      </trkpt>
      <trkpt lat="48.69777" lon="2.13442">
        <ele>13.4</ele>
        <time>2026-01-30T10:10:23Z</time>
      </trkpt>
      <trkpt lat="48.69777" lon="2.13433">
        <ele>12.6</ele>
        <time>2026-01-30T10:10:24Z</time>
      </trkpt>
      <trkpt lat="48.69776" lon="2.13423">
        <ele>12.6</ele>
        <time>2026-01-30T10:10:25Z</time>
      </trkpt>
      <trkpt lat="48.69775" lon="2.13413">
        <ele>12.6</ele>
        <time>2026-01-30T10:10:26Z</time>
      </trkpt>
      <trkpt lat="48.69774" lon="2.13403">
        <ele>12.6</ele>
        <time>2026-01-30T10:10:27Z</time>
      </trkpt>
      <trkpt lat="48.69773" lon="2.13393">
        <ele>11.4</ele>
        <time>2026-01-30T10:10:28Z</time>
      </trkpt>
      <trkpt lat="48.69772" lon="2.13383">
        <ele>11.4</ele>
        <time>2026-01-30T10:10:29Z</time>
      </trkpt>
      <trkpt lat="48.69771" lon="2.13373">
        <ele>11.4</ele>
        <time>2026-01-30T10:10:30Z</time>
      </trkpt>
      <trkpt lat="48.6977" lon="2.13363">
        <ele>10.8</ele>
        <time>2026-01-30T10:10:31Z</time>
      </trkpt>
      <trkpt lat="48.6977" lon="2.13352">
        <ele>10.6</ele>
        <time>2026-01-30T10:10:32Z</time>
      </trkpt>
      <trkpt lat="48.69769" lon="2.13342">
        <ele>10.6</ele>
        <time>2026-01-30T10:10:33Z</time>
      </trkpt>
      <trkpt lat="48.69768" lon="2.1333">
        <ele>10.6</ele>
        <time>2026-01-30T10:10:34Z</time>
      </trkpt>
      <trkpt lat="48.69767" lon="2.13319">
        <ele>10.6</ele>
        <time>2026-01-30T10:10:35Z</time>
      </trkpt>
      <trkpt lat="48.69766" lon="2.13308">
        <ele>9.4</ele>
        <time>2026-01-30T10:10:36Z</time>
      </trkpt>
      <trkpt lat="48.69765" lon="2.13296">
        <ele>9.4</ele>
        <time>2026-01-30T10:10:37Z</time>
      </trkpt>
      <trkpt lat="48.69764" lon="2.13285">
        <ele>9.4</ele>
        <time>2026-01-30T10:10:38Z</time>
      </trkpt>
      <trkpt lat="48.69763" lon="2.13274">
        <ele>9.4</ele>
        <time>2026-01-30T10:10:39Z</time>
      </trkpt>
      <trkpt lat="48.69762" lon="2.13262">
        <ele>9</ele>
        <time>2026-01-30T10:10:40Z</time>
      </trkpt>
      <trkpt lat="48.69761" lon="2.1325">
        <ele>9</ele>
        <time>2026-01-30T10:10:41Z</time>
      </trkpt>
      <trkpt lat="48.6976" lon="2.13238">
        <ele>9</ele>
        <time>2026-01-30T10:10:42Z</time>
      </trkpt>
      <trkpt lat="48.69759" lon="2.13226">
        <ele>8</ele>
        <time>2026-01-30T10:10:43Z</time>
      </trkpt>
      <trkpt lat="48.69757" lon="2.13214">
        <ele>7.2</ele>
        <time>2026-01-30T10:10:44Z</time>
      </trkpt>
      <trkpt lat="48.69755" lon="2.13202">
        <ele>7.2</ele>
        <time>2026-01-30T10:10:45Z</time>
      </trkpt>
      <trkpt lat="48.69751" lon="2.13191">
        <ele>7.2</ele>
        <time>2026-01-30T10:10:46Z</time>
      </trkpt>
      <trkpt lat="48.69748" lon="2.13181">
        <ele>7.2</ele>
        <time>2026-01-30T10:10:47Z</time>
      </trkpt>
      <trkpt lat="48.69747" lon="2.1317">
        <ele>7.2</ele>
        <time>2026-01-30T10:10:48Z</time>
      </trkpt>
      <trkpt lat="48.69747" lon="2.13158">
        <ele>7.2</ele>
        <time>2026-01-30T10:10:49Z</time>
      </trkpt>
      <trkpt lat="48.69748" lon="2.13147">
        <ele>7.2</ele>
        <time>2026-01-30T10:10:50Z</time>
      </trkpt>
      <trkpt lat="48.69748" lon="2.13133">
        <ele>7.2</ele>
        <time>2026-01-30T10:10:51Z</time>
      </trkpt>
      <trkpt lat="48.69747" lon="2.1312">
        <ele>4.6</ele>
        <time>2026-01-30T10:10:52Z</time>
      </trkpt>
      <trkpt lat="48.69746" lon="2.13107">
        <ele>4.6</ele>
        <time>2026-01-30T10:10:53Z</time>
      </trkpt>
      <trkpt lat="48.69744" lon="2.13093">
        <ele>4.6</ele>
        <time>2026-01-30T10:10:54Z</time>
      </trkpt>
      <trkpt lat="48.69742" lon="2.13079">
        <ele>4.6</ele>
        <time>2026-01-30T10:10:55Z</time>
      </trkpt>
      <trkpt lat="48.69741" lon="2.13067">
        <ele>2.8</ele>
        <time>2026-01-30T10:10:56Z</time>
      </trkpt>
      <trkpt lat="48.69739" lon="2.13055">
        <ele>2.8</ele>
        <time>2026-01-30T10:10:57Z</time>
      </trkpt>
      <trkpt lat="48.69738" lon="2.13043">
        <ele>2.8</ele>
        <time>2026-01-30T10:10:58Z</time>
      </trkpt>
      <trkpt lat="48.69738" lon="2.13032">
        <ele>3.8</ele>
        <time>2026-01-30T10:10:59Z</time>
      </trkpt>
      <trkpt lat="48.69737" lon="2.13021">
        <ele>4.4</ele>
        <time>2026-01-30T10:11:00Z</time>
      </trkpt>
      <trkpt lat="48.69737" lon="2.13011">
        <ele>4.4</ele>
        <time>2026-01-30T10:11:01Z</time>
      </trkpt>
      <trkpt lat="48.69738" lon="2.13001">
        <ele>4.4</ele>
        <time>2026-01-30T10:11:02Z</time>
      </trkpt>
      <trkpt lat="48.69738" lon="2.12991">
        <ele>4.4</ele>
        <time>2026-01-30T10:11:03Z</time>
      </trkpt>
      <trkpt lat="48.69739" lon="2.12982">
        <ele>4.6</ele>
        <time>2026-01-30T10:11:04Z</time>
      </trkpt>
      <trkpt lat="48.6974" lon="2.12973">
        <ele>4.6</ele>
        <time>2026-01-30T10:11:05Z</time>
      </trkpt>
      <trkpt lat="48.6974" lon="2.12964">
        <ele>4.6</ele>
        <time>2026-01-30T10:11:06Z</time>
      </trkpt>
      <trkpt lat="48.69741" lon="2.12955">
        <ele>5.6</ele>
        <time>2026-01-30T10:11:07Z</time>
      </trkpt>
      <trkpt lat="48.69743" lon="2.12947">
        <ele>5.6</ele>
        <time>2026-01-30T10:11:08Z</time>
      </trkpt>
      <trkpt lat="48.69745" lon="2.12939">
        <ele>5.6</ele>
        <time>2026-01-30T10:11:09Z</time>
      </trkpt>
      <trkpt lat="48.69746" lon="2.12931">
        <ele>5.6</ele>
        <time>2026-01-30T10:11:10Z</time>
      </trkpt>
      <trkpt lat="48.69748" lon="2.12924">
        <ele>6</ele>
        <time>2026-01-30T10:11:11Z</time>
      </trkpt>
      <trkpt lat="48.6975" lon="2.12916">
        <ele>6.4</ele>
        <time>2026-01-30T10:11:12Z</time>
      </trkpt>
      <trkpt lat="48.69751" lon="2.12908">
        <ele>6.4</ele>
        <time>2026-01-30T10:11:13Z</time>
      </trkpt>
      <trkpt lat="48.69753" lon="2.129">
        <ele>6.4</ele>
        <time>2026-01-30T10:11:14Z</time>
      </trkpt>
      <trkpt lat="48.69754" lon="2.12892">
        <ele>6.4</ele>
        <time>2026-01-30T10:11:15Z</time>
      </trkpt>
      <trkpt lat="48.69757" lon="2.12884">
        <ele>6</ele>
        <time>2026-01-30T10:11:16Z</time>
      </trkpt>
      <trkpt lat="48.69759" lon="2.12876">
        <ele>6</ele>
        <time>2026-01-30T10:11:17Z</time>
      </trkpt>
      <trkpt lat="48.69761" lon="2.12868">
        <ele>6</ele>
        <time>2026-01-30T10:11:18Z</time>
      </trkpt>
      <trkpt lat="48.69763" lon="2.1286">
        <ele>6.4</ele>
        <time>2026-01-30T10:11:19Z</time>
      </trkpt>
      <trkpt lat="48.69765" lon="2.12852">
        <ele>6.2</ele>
        <time>2026-01-30T10:11:20Z</time>
      </trkpt>
      <trkpt lat="48.69767" lon="2.12844">
        <ele>6.2</ele>
        <time>2026-01-30T10:11:21Z</time>
      </trkpt>
      <trkpt lat="48.6977" lon="2.12835">
        <ele>6.2</ele>
        <time>2026-01-30T10:11:22Z</time>
      </trkpt>
      <trkpt lat="48.69772" lon="2.12827">
        <ele>6.2</ele>
        <time>2026-01-30T10:11:23Z</time>
      </trkpt>
      <trkpt lat="48.69774" lon="2.12818">
        <ele>7</ele>
        <time>2026-01-30T10:11:24Z</time>
      </trkpt>
      <trkpt lat="48.69776" lon="2.1281">
        <ele>7</ele>
        <time>2026-01-30T10:11:25Z</time>
      </trkpt>
      <trkpt lat="48.69778" lon="2.12802">
        <ele>7</ele>
        <time>2026-01-30T10:11:26Z</time>
      </trkpt>
      <trkpt lat="48.6978" lon="2.12794">
        <ele>7</ele>
        <time>2026-01-30T10:11:27Z</time>
      </trkpt>
      <trkpt lat="48.69782" lon="2.12786">
        <ele>7</ele>
        <time>2026-01-30T10:11:28Z</time>
      </trkpt>
      <trkpt lat="48.69785" lon="2.12778">
        <ele>7</ele>
        <time>2026-01-30T10:11:29Z</time>
      </trkpt>
      <trkpt lat="48.69787" lon="2.1277">
        <ele>7</ele>
        <time>2026-01-30T10:11:30Z</time>
      </trkpt>
      <trkpt lat="48.69789" lon="2.12762">
        <ele>7</ele>
        <time>2026-01-30T10:11:31Z</time>
      </trkpt>
      <trkpt lat="48.69791" lon="2.12754">
        <ele>7</ele>
        <time>2026-01-30T10:11:32Z</time>
      </trkpt>
      <trkpt lat="48.69793" lon="2.12746">
        <ele>7</ele>
        <time>2026-01-30T10:11:33Z</time>
      </trkpt>
      <trkpt lat="48.69795" lon="2.12738">
        <ele>7</ele>
        <time>2026-01-30T10:11:34Z</time>
      </trkpt>
      <trkpt lat="48.69797" lon="2.1273">
        <ele>7</ele>
        <time>2026-01-30T10:11:35Z</time>
      </trkpt>
      <trkpt lat="48.69799" lon="2.12722">
        <ele>7.4</ele>
        <time>2026-01-30T10:11:36Z</time>
      </trkpt>
      <trkpt lat="48.69801" lon="2.12715">
        <ele>7.4</ele>
        <time>2026-01-30T10:11:37Z</time>
      </trkpt>
      <trkpt lat="48.69803" lon="2.12707">
        <ele>7.4</ele>
        <time>2026-01-30T10:11:38Z</time>
      </trkpt>
      <trkpt lat="48.69806" lon="2.12699">
        <ele>7.4</ele>
        <time>2026-01-30T10:11:39Z</time>
      </trkpt>
      <trkpt lat="48.69808" lon="2.12691">
        <ele>7.6</ele>
        <time>2026-01-30T10:11:40Z</time>
      </trkpt>
      <trkpt lat="48.6981" lon="2.12683">
        <ele>7.6</ele>
        <time>2026-01-30T10:11:41Z</time>
      </trkpt>
      <trkpt lat="48.69812" lon="2.12675">
        <ele>7.6</ele>
        <time>2026-01-30T10:11:42Z</time>
      </trkpt>
      <trkpt lat="48.69814" lon="2.12667">
        <ele>7.8</ele>
        <time>2026-01-30T10:11:43Z</time>
      </trkpt>
      <trkpt lat="48.69816" lon="2.12659">
        <ele>7.8</ele>
        <time>2026-01-30T10:11:44Z</time>
      </trkpt>
      <trkpt lat="48.69818" lon="2.12651">
        <ele>7.8</ele>
        <time>2026-01-30T10:11:45Z</time>
      </trkpt>
      <trkpt lat="48.6982" lon="2.12643">
        <ele>7.8</ele>
        <time>2026-01-30T10:11:46Z</time>
      </trkpt>
      <trkpt lat="48.69822" lon="2.12635">
        <ele>8.6</ele>
        <time>2026-01-30T10:11:47Z</time>
      </trkpt>
      <trkpt lat="48.69824" lon="2.12628">
        <ele>8.4</ele>
        <time>2026-01-30T10:11:48Z</time>
      </trkpt>
      <trkpt lat="48.69826" lon="2.1262">
        <ele>8.4</ele>
        <time>2026-01-30T10:11:49Z</time>
      </trkpt>
      <trkpt lat="48.69827" lon="2.12612">
        <ele>8.4</ele>
        <time>2026-01-30T10:11:50Z</time>
      </trkpt>
      <trkpt lat="48.69829" lon="2.12605">
        <ele>9.4</ele>
        <time>2026-01-30T10:11:51Z</time>
      </trkpt>
      <trkpt lat="48.69831" lon="2.12597">
        <ele>9.4</ele>
        <time>2026-01-30T10:11:52Z</time>
      </trkpt>
      <trkpt lat="48.69833" lon="2.12589">
        <ele>9.4</ele>
        <time>2026-01-30T10:11:53Z</time>
      </trkpt>
      <trkpt lat="48.69835" lon="2.12582">
        <ele>9.4</ele>
        <time>2026-01-30T10:11:54Z</time>
      </trkpt>
      <trkpt lat="48.69836" lon="2.12574">
        <ele>9.4</ele>
        <time>2026-01-30T10:11:55Z</time>
      </trkpt>
      <trkpt lat="48.69838" lon="2.12566">
        <ele>9.8</ele>
        <time>2026-01-30T10:11:56Z</time>
      </trkpt>
      <trkpt lat="48.69839" lon="2.12558">
        <ele>9.8</ele>
        <time>2026-01-30T10:11:57Z</time>
      </trkpt>
      <trkpt lat="48.6984" lon="2.12551">
        <ele>9.8</ele>
        <time>2026-01-30T10:11:58Z</time>
      </trkpt>
      <trkpt lat="48.6984" lon="2.12543">
        <ele>9.8</ele>
        <time>2026-01-30T10:11:59Z</time>
      </trkpt>
      <trkpt lat="48.69841" lon="2.12536">
        <ele>10.6</ele>
        <time>2026-01-30T10:12:00Z</time>
      </trkpt>
      <trkpt lat="48.69841" lon="2.12528">
        <ele>10.6</ele>
        <time>2026-01-30T10:12:01Z</time>
      </trkpt>
      <trkpt lat="48.69841" lon="2.12521">
        <ele>10.6</ele>
        <time>2026-01-30T10:12:02Z</time>
      </trkpt>
      <trkpt lat="48.69842" lon="2.12514">
        <ele>10.6</ele>
        <time>2026-01-30T10:12:03Z</time>
      </trkpt>
      <trkpt lat="48.69842" lon="2.12507">
        <ele>11.2</ele>
        <time>2026-01-30T10:12:04Z</time>
      </trkpt>
      <trkpt lat="48.69841" lon="2.12499">
        <ele>11.2</ele>
        <time>2026-01-30T10:12:05Z</time>
      </trkpt>
      <trkpt lat="48.69837" lon="2.12494">
        <ele>11.2</ele>
        <time>2026-01-30T10:12:06Z</time>
      </trkpt>
      <trkpt lat="48.69833" lon="2.1249">
        <ele>11.2</ele>
        <time>2026-01-30T10:12:07Z</time>
      </trkpt>
      <trkpt lat="48.69828" lon="2.12487">
        <ele>12</ele>
        <time>2026-01-30T10:12:08Z</time>
      </trkpt>
      <trkpt lat="48.69823" lon="2.12484">
        <ele>12</ele>
        <time>2026-01-30T10:12:09Z</time>
      </trkpt>
      <trkpt lat="48.69819" lon="2.1248">
        <ele>12</ele>
        <time>2026-01-30T10:12:10Z</time>
      </trkpt>
      <trkpt lat="48.69816" lon="2.12473">
        <ele>12.2</ele>
        <time>2026-01-30T10:12:11Z</time>
      </trkpt>
      <trkpt lat="48.69815" lon="2.12466">
        <ele>12.4</ele>
        <time>2026-01-30T10:12:12Z</time>
      </trkpt>
      <trkpt lat="48.69815" lon="2.12459">
        <ele>12.4</ele>
        <time>2026-01-30T10:12:13Z</time>
      </trkpt>
      <trkpt lat="48.69815" lon="2.12453">
        <ele>12.4</ele>
        <time>2026-01-30T10:12:14Z</time>
      </trkpt>
      <trkpt lat="48.69815" lon="2.12447">
        <ele>12.8</ele>
        <time>2026-01-30T10:12:15Z</time>
      </trkpt>
      <trkpt lat="48.69815" lon="2.12442">
        <ele>13.4</ele>
        <time>2026-01-30T10:12:16Z</time>
      </trkpt>
      <trkpt lat="48.69815" lon="2.12437">
        <ele>13.4</ele>
        <time>2026-01-30T10:12:17Z</time>
      </trkpt>
      <trkpt lat="48.69815" lon="2.12432">
        <ele>13.4</ele>
        <time>2026-01-30T10:12:18Z</time>
      </trkpt>
      <trkpt lat="48.69815" lon="2.12428">
        <ele>14.4</ele>
        <time>2026-01-30T10:12:19Z</time>
      </trkpt>
      <trkpt lat="48.69814" lon="2.12423">
        <ele>15</ele>
        <time>2026-01-30T10:12:20Z</time>
      </trkpt>
      <trkpt lat="48.69814" lon="2.12419">
        <ele>15</ele>
        <time>2026-01-30T10:12:21Z</time>
      </trkpt>
      <trkpt lat="48.69814" lon="2.12415">
        <ele>15</ele>
        <time>2026-01-30T10:12:22Z</time>
      </trkpt>
      <trkpt lat="48.69814" lon="2.12411">
        <ele>15.8</ele>
        <time>2026-01-30T10:12:23Z</time>
      </trkpt>
      <trkpt lat="48.69814" lon="2.12407">
        <ele>15.8</ele>
        <time>2026-01-30T10:12:24Z</time>
      </trkpt>
      <trkpt lat="48.69814" lon="2.12403">
        <ele>15.8</ele>
        <time>2026-01-30T10:12:25Z</time>
      </trkpt>
      <trkpt lat="48.69814" lon="2.12399">
        <ele>15.8</ele>
        <time>2026-01-30T10:12:26Z</time>
      </trkpt>
      <trkpt lat="48.69814" lon="2.12394">
        <ele>15.8</ele>
        <time>2026-01-30T10:12:27Z</time>
      </trkpt>
      <trkpt lat="48.69813" lon="2.1239">
        <ele>17</ele>
        <time>2026-01-30T10:12:28Z</time>
      </trkpt>
      <trkpt lat="48.69813" lon="2.12386">
        <ele>17</ele>
        <time>2026-01-30T10:12:29Z</time>
      </trkpt>
      <trkpt lat="48.69813" lon="2.12381">
        <ele>17</ele>
        <time>2026-01-30T10:12:30Z</time>
      </trkpt>
      <trkpt lat="48.69813" lon="2.12376">
        <ele>17.6</ele>
        <time>2026-01-30T10:12:31Z</time>
      </trkpt>
      <trkpt lat="48.69813" lon="2.12372">
        <ele>17.6</ele>
        <time>2026-01-30T10:12:32Z</time>
      </trkpt>
      <trkpt lat="48.69813" lon="2.12367">
        <ele>17.6</ele>
        <time>2026-01-30T10:12:33Z</time>
      </trkpt>
      <trkpt lat="48.69813" lon="2.12362">
        <ele>17.6</ele>
        <time>2026-01-30T10:12:34Z</time>
      </trkpt>
      <trkpt lat="48.69813" lon="2.12358">
        <ele>18.4</ele>
        <time>2026-01-30T10:12:35Z</time>
      </trkpt>
      <trkpt lat="48.69813" lon="2.12353">
        <ele>18.8</ele>
        <time>2026-01-30T10:12:36Z</time>
      </trkpt>
      <trkpt lat="48.69812" lon="2.12349">
        <ele>18.8</ele>
        <time>2026-01-30T10:12:37Z</time>
      </trkpt>
      <trkpt lat="48.69812" lon="2.12344">
        <ele>18.8</ele>
        <time>2026-01-30T10:12:38Z</time>
      </trkpt>
      <trkpt lat="48.69812" lon="2.12339">
        <ele>19</ele>
        <time>2026-01-30T10:12:39Z</time>
      </trkpt>
      <trkpt lat="48.69812" lon="2.12334">
        <ele>18.8</ele>
        <time>2026-01-30T10:12:40Z</time>
      </trkpt>
      <trkpt lat="48.69812" lon="2.12329">
        <ele>18.8</ele>
        <time>2026-01-30T10:12:41Z</time>
      </trkpt>
      <trkpt lat="48.69813" lon="2.12323">
        <ele>18.8</ele>
        <time>2026-01-30T10:12:42Z</time>
      </trkpt>
      <trkpt lat="48.69813" lon="2.12318">
        <ele>19.2</ele>
        <time>2026-01-30T10:12:43Z</time>
      </trkpt>
      <trkpt lat="48.69813" lon="2.12312">
        <ele>19</ele>
        <time>2026-01-30T10:12:44Z</time>
      </trkpt>
      <trkpt lat="48.69813" lon="2.12306">
        <ele>19</ele>
        <time>2026-01-30T10:12:45Z</time>
      </trkpt>
      <trkpt lat="48.69812" lon="2.12301">
        <ele>19</ele>
        <time>2026-01-30T10:12:46Z</time>
      </trkpt>
      <trkpt lat="48.69811" lon="2.12295">
        <ele>19</ele>
        <time>2026-01-30T10:12:47Z</time>
      </trkpt>
      <trkpt lat="48.6981" lon="2.1229">
        <ele>20</ele>
        <time>2026-01-30T10:12:48Z</time>
      </trkpt>
      <trkpt lat="48.69809" lon="2.12285">
        <ele>20</ele>
        <time>2026-01-30T10:12:49Z</time>
      </trkpt>
      <trkpt lat="48.69809" lon="2.1228">
        <ele>20</ele>
        <time>2026-01-30T10:12:50Z</time>
      </trkpt>
      <trkpt lat="48.69809" lon="2.12276">
        <ele>21</ele>
        <time>2026-01-30T10:12:51Z</time>
      </trkpt>
      <trkpt lat="48.69809" lon="2.12271">
        <ele>20.8</ele>
        <time>2026-01-30T10:12:52Z</time>
      </trkpt>
      <trkpt lat="48.69809" lon="2.12266">
        <ele>20.8</ele>
        <time>2026-01-30T10:12:53Z</time>
      </trkpt>
      <trkpt lat="48.69809" lon="2.12261">
        <ele>20.8</ele>
        <time>2026-01-30T10:12:54Z</time>
      </trkpt>
      <trkpt lat="48.69809" lon="2.12257">
        <ele>21</ele>
        <time>2026-01-30T10:12:55Z</time>
      </trkpt>
      <trkpt lat="48.69809" lon="2.12252">
        <ele>21.2</ele>
        <time>2026-01-30T10:12:56Z</time>
      </trkpt>
      <trkpt lat="48.69809" lon="2.12247">
        <ele>21.2</ele>
        <time>2026-01-30T10:12:57Z</time>
      </trkpt>
      <trkpt lat="48.69809" lon="2.12243">
        <ele>21.2</ele>
        <time>2026-01-30T10:12:58Z</time>
      </trkpt>
      <trkpt lat="48.69809" lon="2.12238">
        <ele>21.8</ele>
        <time>2026-01-30T10:12:59Z</time>
      </trkpt>
      <trkpt lat="48.69809" lon="2.12233">
        <ele>22.4</ele>
        <time>2026-01-30T10:13:00Z</time>
      </trkpt>
      <trkpt lat="48.69808" lon="2.12229">
        <ele>22.4</ele>
        <time>2026-01-30T10:13:01Z</time>
      </trkpt>
      <trkpt lat="48.69808" lon="2.12224">
        <ele>22.4</ele>
        <time>2026-01-30T10:13:02Z</time>
      </trkpt>
      <trkpt lat="48.69808" lon="2.12219">
        <ele>22.4</ele>
        <time>2026-01-30T10:13:03Z</time>
      </trkpt>
      <trkpt lat="48.69808" lon="2.12215">
        <ele>23.4</ele>
        <time>2026-01-30T10:13:04Z</time>
      </trkpt>
      <trkpt lat="48.69808" lon="2.1221">
        <ele>23.4</ele>
        <time>2026-01-30T10:13:05Z</time>
      </trkpt>
      <trkpt lat="48.69808" lon="2.12205">
        <ele>23.4</ele>
        <time>2026-01-30T10:13:06Z</time>
      </trkpt>
      <trkpt lat="48.69808" lon="2.12201">
        <ele>24.2</ele>
        <time>2026-01-30T10:13:07Z</time>
      </trkpt>
      <trkpt lat="48.69808" lon="2.12196">
        <ele>24.4</ele>
        <time>2026-01-30T10:13:08Z</time>
      </trkpt>
      <trkpt lat="48.69807" lon="2.12192">
        <ele>24.4</ele>
        <time>2026-01-30T10:13:09Z</time>
      </trkpt>
      <trkpt lat="48.69808" lon="2.12187">
        <ele>24.4</ele>
        <time>2026-01-30T10:13:10Z</time>
      </trkpt>
      <trkpt lat="48.69808" lon="2.12183">
        <ele>25.4</ele>
        <time>2026-01-30T10:13:11Z</time>
      </trkpt>
      <trkpt lat="48.69808" lon="2.12178">
        <ele>25.2</ele>
        <time>2026-01-30T10:13:12Z</time>
      </trkpt>
      <trkpt lat="48.69808" lon="2.12173">
        <ele>25.2</ele>
        <time>2026-01-30T10:13:13Z</time>
      </trkpt>
      <trkpt lat="48.69807" lon="2.12169">
        <ele>25.2</ele>
        <time>2026-01-30T10:13:14Z</time>
      </trkpt>
      <trkpt lat="48.69807" lon="2.12164">
        <ele>25.4</ele>
        <time>2026-01-30T10:13:15Z</time>
      </trkpt>
      <trkpt lat="48.69806" lon="2.12159">
        <ele>25.6</ele>
        <time>2026-01-30T10:13:16Z</time>
      </trkpt>
      <trkpt lat="48.69806" lon="2.12154">
        <ele>25.6</ele>
        <time>2026-01-30T10:13:17Z</time>
      </trkpt>
      <trkpt lat="48.69805" lon="2.12149">
        <ele>25.6</ele>
        <time>2026-01-30T10:13:18Z</time>
      </trkpt>
      <trkpt lat="48.69805" lon="2.12144">
        <ele>26</ele>
        <time>2026-01-30T10:13:19Z</time>
      </trkpt>
      <trkpt lat="48.69805" lon="2.12139">
        <ele>26.2</ele>
        <time>2026-01-30T10:13:20Z</time>
      </trkpt>
      <trkpt lat="48.69804" lon="2.12134">
        <ele>26.2</ele>
        <time>2026-01-30T10:13:21Z</time>
      </trkpt>
      <trkpt lat="48.69804" lon="2.12129">
        <ele>26.2</ele>
        <time>2026-01-30T10:13:22Z</time>
      </trkpt>
      <trkpt lat="48.69804" lon="2.12124">
        <ele>27.2</ele>
        <time>2026-01-30T10:13:23Z</time>
      </trkpt>
      <trkpt lat="48.69804" lon="2.12118">
        <ele>27.2</ele>
        <time>2026-01-30T10:13:24Z</time>
      </trkpt>
      <trkpt lat="48.69804" lon="2.12113">
        <ele>27.2</ele>
        <time>2026-01-30T10:13:25Z</time>
      </trkpt>
      <trkpt lat="48.69804" lon="2.12108">
        <ele>27.2</ele>
        <time>2026-01-30T10:13:26Z</time>
      </trkpt>
      <trkpt lat="48.69803" lon="2.12103">
        <ele>26.8</ele>
        <time>2026-01-30T10:13:27Z</time>
      </trkpt>
      <trkpt lat="48.69803" lon="2.12098">
        <ele>27.2</ele>
        <time>2026-01-30T10:13:28Z</time>
      </trkpt>
      <trkpt lat="48.69803" lon="2.12092">
        <ele>27.2</ele>
        <time>2026-01-30T10:13:29Z</time>
      </trkpt>
      <trkpt lat="48.69804" lon="2.12087">
        <ele>27.2</ele>
        <time>2026-01-30T10:13:30Z</time>
      </trkpt>
      <trkpt lat="48.69804" lon="2.12082">
        <ele>27.2</ele>
        <time>2026-01-30T10:13:31Z</time>
      </trkpt>
      <trkpt lat="48.69805" lon="2.12076">
        <ele>27.2</ele>
        <time>2026-01-30T10:13:32Z</time>
      </trkpt>
      <trkpt lat="48.69805" lon="2.12071">
        <ele>27.2</ele>
        <time>2026-01-30T10:13:33Z</time>
      </trkpt>
      <trkpt lat="48.69806" lon="2.12065">
        <ele>27.2</ele>
        <time>2026-01-30T10:13:34Z</time>
      </trkpt>
      <trkpt lat="48.69806" lon="2.12058">
        <ele>27.2</ele>
        <time>2026-01-30T10:13:35Z</time>
      </trkpt>
      <trkpt lat="48.69806" lon="2.12052">
        <ele>27.4</ele>
        <time>2026-01-30T10:13:36Z</time>
      </trkpt>
      <trkpt lat="48.69807" lon="2.12045">
        <ele>27.4</ele>
        <time>2026-01-30T10:13:37Z</time>
      </trkpt>
      <trkpt lat="48.69807" lon="2.12038">
        <ele>27.4</ele>
        <time>2026-01-30T10:13:38Z</time>
      </trkpt>
      <trkpt lat="48.69808" lon="2.12031">
        <ele>26.4</ele>
        <time>2026-01-30T10:13:39Z</time>
      </trkpt>
      <trkpt lat="48.69809" lon="2.12024">
        <ele>26.6</ele>
        <time>2026-01-30T10:13:40Z</time>
      </trkpt>
      <trkpt lat="48.69809" lon="2.12017">
        <ele>26.6</ele>
        <time>2026-01-30T10:13:41Z</time>
      </trkpt>
      <trkpt lat="48.6981" lon="2.12009">
        <ele>26.6</ele>
        <time>2026-01-30T10:13:42Z</time>
      </trkpt>
      <trkpt lat="48.69811" lon="2.12002">
        <ele>26.6</ele>
        <time>2026-01-30T10:13:43Z</time>
      </trkpt>
      <trkpt lat="48.69811" lon="2.11994">
        <ele>25.2</ele>
        <time>2026-01-30T10:13:44Z</time>
      </trkpt>
      <trkpt lat="48.69812" lon="2.11986">
        <ele>25.2</ele>
        <time>2026-01-30T10:13:45Z</time>
      </trkpt>
      <trkpt lat="48.69813" lon="2.11978">
        <ele>25.2</ele>
        <time>2026-01-30T10:13:46Z</time>
      </trkpt>
      <trkpt lat="48.69813" lon="2.1197">
        <ele>25.2</ele>
        <time>2026-01-30T10:13:47Z</time>
      </trkpt>
      <trkpt lat="48.69814" lon="2.11961">
        <ele>24.2</ele>
        <time>2026-01-30T10:13:48Z</time>
      </trkpt>
      <trkpt lat="48.69815" lon="2.11953">
        <ele>24.2</ele>
        <time>2026-01-30T10:13:49Z</time>
      </trkpt>
      <trkpt lat="48.69815" lon="2.11945">
        <ele>24.2</ele>
        <time>2026-01-30T10:13:50Z</time>
      </trkpt>
      <trkpt lat="48.69816" lon="2.11936">
        <ele>25</ele>
        <time>2026-01-30T10:13:51Z</time>
      </trkpt>
      <trkpt lat="48.69817" lon="2.11928">
        <ele>25.4</ele>
        <time>2026-01-30T10:13:52Z</time>
      </trkpt>
      <trkpt lat="48.69817" lon="2.11919">
        <ele>25.4</ele>
        <time>2026-01-30T10:13:53Z</time>
      </trkpt>
      <trkpt lat="48.69818" lon="2.1191">
        <ele>25.4</ele>
        <time>2026-01-30T10:13:54Z</time>
      </trkpt>
      <trkpt lat="48.69819" lon="2.11901">
        <ele>24.4</ele>
        <time>2026-01-30T10:13:55Z</time>
      </trkpt>
      <trkpt lat="48.69819" lon="2.11891">
        <ele>25</ele>
        <time>2026-01-30T10:13:56Z</time>
      </trkpt>
      <trkpt lat="48.6982" lon="2.11882">
        <ele>25</ele>
        <time>2026-01-30T10:13:57Z</time>
      </trkpt>
      <trkpt lat="48.69821" lon="2.11873">
        <ele>25</ele>
        <time>2026-01-30T10:13:58Z</time>
      </trkpt>
      <trkpt lat="48.69822" lon="2.11864">
        <ele>24.2</ele>
        <time>2026-01-30T10:13:59Z</time>
      </trkpt>
      <trkpt lat="48.69824" lon="2.11855">
        <ele>24.4</ele>
        <time>2026-01-30T10:14:00Z</time>
      </trkpt>
      <trkpt lat="48.69826" lon="2.11847">
        <ele>24.4</ele>
        <time>2026-01-30T10:14:01Z</time>
      </trkpt>
      <trkpt lat="48.69827" lon="2.11839">
        <ele>24.4</ele>
        <time>2026-01-30T10:14:02Z</time>
      </trkpt>
      <trkpt lat="48.69829" lon="2.1183">
        <ele>25</ele>
        <time>2026-01-30T10:14:03Z</time>
      </trkpt>
      <trkpt lat="48.69831" lon="2.11823">
        <ele>25.2</ele>
        <time>2026-01-30T10:14:04Z</time>
      </trkpt>
      <trkpt lat="48.69833" lon="2.11815">
        <ele>25.2</ele>
        <time>2026-01-30T10:14:05Z</time>
      </trkpt>
      <trkpt lat="48.69834" lon="2.11808">
        <ele>25.2</ele>
        <time>2026-01-30T10:14:06Z</time>
      </trkpt>
      <trkpt lat="48.69835" lon="2.118">
        <ele>25.2</ele>
        <time>2026-01-30T10:14:07Z</time>
      </trkpt>
      <trkpt lat="48.69836" lon="2.11792">
        <ele>25.4</ele>
        <time>2026-01-30T10:14:08Z</time>
      </trkpt>
      <trkpt lat="48.69837" lon="2.11785">
        <ele>25.4</ele>
        <time>2026-01-30T10:14:09Z</time>
      </trkpt>
      <trkpt lat="48.69838" lon="2.11777">
        <ele>25.4</ele>
        <time>2026-01-30T10:14:10Z</time>
      </trkpt>
      <trkpt lat="48.69838" lon="2.1177">
        <ele>26.4</ele>
        <time>2026-01-30T10:14:11Z</time>
      </trkpt>
      <trkpt lat="48.69839" lon="2.11763">
        <ele>26.6</ele>
        <time>2026-01-30T10:14:12Z</time>
      </trkpt>
      <trkpt lat="48.69839" lon="2.11756">
        <ele>26.6</ele>
        <time>2026-01-30T10:14:13Z</time>
      </trkpt>
      <trkpt lat="48.6984" lon="2.1175">
        <ele>26.6</ele>
        <time>2026-01-30T10:14:14Z</time>
      </trkpt>
      <trkpt lat="48.6984" lon="2.11743">
        <ele>26.6</ele>
        <time>2026-01-30T10:14:15Z</time>
      </trkpt>
      <trkpt lat="48.6984" lon="2.11736">
        <ele>27.8</ele>
        <time>2026-01-30T10:14:16Z</time>
      </trkpt>
      <trkpt lat="48.6984" lon="2.1173">
        <ele>27.8</ele>
        <time>2026-01-30T10:14:17Z</time>
      </trkpt>
      <trkpt lat="48.6984" lon="2.11725">
        <ele>27.8</ele>
        <time>2026-01-30T10:14:18Z</time>
      </trkpt>
      <trkpt lat="48.69839" lon="2.11719">
        <ele>28.6</ele>
        <time>2026-01-30T10:14:19Z</time>
      </trkpt>
      <trkpt lat="48.69838" lon="2.11714">
        <ele>28.6</ele>
        <time>2026-01-30T10:14:20Z</time>
      </trkpt>
      <trkpt lat="48.69837" lon="2.11709">
        <ele>28.6</ele>
        <time>2026-01-30T10:14:21Z</time>
      </trkpt>
      <trkpt lat="48.69836" lon="2.11704">
        <ele>28.6</ele>
        <time>2026-01-30T10:14:22Z</time>
      </trkpt>
      <trkpt lat="48.69834" lon="2.117">
        <ele>29.2</ele>
        <time>2026-01-30T10:14:23Z</time>
      </trkpt>
      <trkpt lat="48.69833" lon="2.11695">
        <ele>29</ele>
        <time>2026-01-30T10:14:24Z</time>
      </trkpt>
      <trkpt lat="48.69831" lon="2.11691">
        <ele>29</ele>
        <time>2026-01-30T10:14:25Z</time>
      </trkpt>
      <trkpt lat="48.69829" lon="2.11687">
        <ele>29</ele>
        <time>2026-01-30T10:14:26Z</time>
      </trkpt>
      <trkpt lat="48.69828" lon="2.11683">
        <ele>30</ele>
        <time>2026-01-30T10:14:27Z</time>
      </trkpt>
      <trkpt lat="48.69826" lon="2.1168">
        <ele>29.6</ele>
        <time>2026-01-30T10:14:28Z</time>
      </trkpt>
      <trkpt lat="48.69824" lon="2.11676">
        <ele>29.6</ele>
        <time>2026-01-30T10:14:29Z</time>
      </trkpt>
      <trkpt lat="48.69823" lon="2.11672">
        <ele>29.6</ele>
        <time>2026-01-30T10:14:30Z</time>
      </trkpt>
      <trkpt lat="48.69821" lon="2.11668">
        <ele>30.6</ele>
        <time>2026-01-30T10:14:31Z</time>
      </trkpt>
      <trkpt lat="48.6982" lon="2.11664">
        <ele>31.2</ele>
        <time>2026-01-30T10:14:32Z</time>
      </trkpt>
      <trkpt lat="48.69819" lon="2.1166">
        <ele>31.2</ele>
        <time>2026-01-30T10:14:33Z</time>
      </trkpt>
      <trkpt lat="48.69817" lon="2.11656">
        <ele>31.2</ele>
        <time>2026-01-30T10:14:34Z</time>
      </trkpt>
      <trkpt lat="48.69816" lon="2.11652">
        <ele>31.2</ele>
        <time>2026-01-30T10:14:35Z</time>
      </trkpt>
      <trkpt lat="48.69815" lon="2.11648">
        <ele>32.4</ele>
        <time>2026-01-30T10:14:36Z</time>
      </trkpt>
      <trkpt lat="48.69814" lon="2.11643">
        <ele>32.4</ele>
        <time>2026-01-30T10:14:37Z</time>
      </trkpt>
      <trkpt lat="48.69813" lon="2.1164">
        <ele>32.4</ele>
        <time>2026-01-30T10:14:38Z</time>
      </trkpt>
      <trkpt lat="48.69813" lon="2.11636">
        <ele>32.4</ele>
        <time>2026-01-30T10:14:39Z</time>
      </trkpt>
      <trkpt lat="48.69813" lon="2.11631">
        <ele>32.8</ele>
        <time>2026-01-30T10:14:40Z</time>
      </trkpt>
      <trkpt lat="48.69812" lon="2.11627">
        <ele>32.8</ele>
        <time>2026-01-30T10:14:41Z</time>
      </trkpt>
      <trkpt lat="48.69812" lon="2.11622">
        <ele>32.8</ele>
        <time>2026-01-30T10:14:42Z</time>
      </trkpt>
      <trkpt lat="48.69812" lon="2.11618">
        <ele>33.8</ele>
        <time>2026-01-30T10:14:43Z</time>
      </trkpt>
      <trkpt lat="48.69812" lon="2.11613">
        <ele>33.4</ele>
        <time>2026-01-30T10:14:44Z</time>
      </trkpt>
      <trkpt lat="48.69813" lon="2.11608">
        <ele>33.4</ele>
        <time>2026-01-30T10:14:45Z</time>
      </trkpt>
      <trkpt lat="48.69813" lon="2.11603">
        <ele>33.4</ele>
        <time>2026-01-30T10:14:46Z</time>
      </trkpt>
      <trkpt lat="48.69813" lon="2.11599">
        <ele>33.6</ele>
        <time>2026-01-30T10:14:47Z</time>
      </trkpt>
      <trkpt lat="48.69813" lon="2.11594">
        <ele>34.4</ele>
        <time>2026-01-30T10:14:48Z</time>
      </trkpt>
      <trkpt lat="48.69812" lon="2.11589">
        <ele>34.4</ele>
        <time>2026-01-30T10:14:49Z</time>
      </trkpt>
      <trkpt lat="48.69812" lon="2.11584">
        <ele>34.4</ele>
        <time>2026-01-30T10:14:50Z</time>
      </trkpt>
      <trkpt lat="48.69811" lon="2.1158">
        <ele>35.4</ele>
        <time>2026-01-30T10:14:51Z</time>
      </trkpt>
      <trkpt lat="48.69811" lon="2.11575">
        <ele>35.6</ele>
        <time>2026-01-30T10:14:52Z</time>
      </trkpt>
      <trkpt lat="48.69811" lon="2.1157">
        <ele>35.6</ele>
        <time>2026-01-30T10:14:53Z</time>
      </trkpt>
      <trkpt lat="48.69812" lon="2.11565">
        <ele>35.6</ele>
        <time>2026-01-30T10:14:54Z</time>
      </trkpt>
      <trkpt lat="48.69812" lon="2.1156">
        <ele>35.6</ele>
        <time>2026-01-30T10:14:55Z</time>
      </trkpt>
      <trkpt lat="48.69812" lon="2.11554">
        <ele>36.4</ele>
        <time>2026-01-30T10:14:56Z</time>
      </trkpt>
      <trkpt lat="48.69812" lon="2.11549">
        <ele>36.4</ele>
        <time>2026-01-30T10:14:57Z</time>
      </trkpt>
      <trkpt lat="48.69812" lon="2.11544">
        <ele>36.4</ele>
        <time>2026-01-30T10:14:58Z</time>
      </trkpt>
      <trkpt lat="48.69812" lon="2.11538">
        <ele>36.4</ele>
        <time>2026-01-30T10:14:59Z</time>
      </trkpt>
      <trkpt lat="48.69812" lon="2.11533">
        <ele>36.4</ele>
        <time>2026-01-30T10:15:00Z</time>
      </trkpt>
      <trkpt lat="48.69812" lon="2.11527">
        <ele>36.4</ele>
        <time>2026-01-30T10:15:01Z</time>
      </trkpt>
      <trkpt lat="48.69812" lon="2.1152">
        <ele>36.4</ele>
        <time>2026-01-30T10:15:02Z</time>
      </trkpt>
      <trkpt lat="48.69812" lon="2.11514">
        <ele>36.4</ele>
        <time>2026-01-30T10:15:03Z</time>
      </trkpt>
      <trkpt lat="48.69812" lon="2.11507">
        <ele>35</ele>
        <time>2026-01-30T10:15:04Z</time>
      </trkpt>
      <trkpt lat="48.69812" lon="2.115">
        <ele>35</ele>
        <time>2026-01-30T10:15:05Z</time>
      </trkpt>
      <trkpt lat="48.69812" lon="2.11492">
        <ele>35</ele>
        <time>2026-01-30T10:15:06Z</time>
      </trkpt>
      <trkpt lat="48.69811" lon="2.11484">
        <ele>34.2</ele>
        <time>2026-01-30T10:15:07Z</time>
      </trkpt>
      <trkpt lat="48.69811" lon="2.11476">
        <ele>33</ele>
        <time>2026-01-30T10:15:08Z</time>
      </trkpt>
      <trkpt lat="48.69811" lon="2.11467">
        <ele>33</ele>
        <time>2026-01-30T10:15:09Z</time>
      </trkpt>
      <trkpt lat="48.6981" lon="2.11458">
        <ele>33</ele>
        <time>2026-01-30T10:15:10Z</time>
      </trkpt>
      <trkpt lat="48.69807" lon="2.11451">
        <ele>32.4</ele>
        <time>2026-01-30T10:15:11Z</time>
      </trkpt>
      <trkpt lat="48.69805" lon="2.11443">
        <ele>33</ele>
        <time>2026-01-30T10:15:12Z</time>
      </trkpt>
      <trkpt lat="48.69802" lon="2.11435">
        <ele>33</ele>
        <time>2026-01-30T10:15:13Z</time>
      </trkpt>
      <trkpt lat="48.69799" lon="2.11428">
        <ele>33</ele>
        <time>2026-01-30T10:15:14Z</time>
      </trkpt>
      <trkpt lat="48.69797" lon="2.11421">
        <ele>33</ele>
        <time>2026-01-30T10:15:15Z</time>
      </trkpt>
      <trkpt lat="48.69795" lon="2.11414">
        <ele>33.8</ele>
        <time>2026-01-30T10:15:16Z</time>
      </trkpt>
      <trkpt lat="48.69793" lon="2.11406">
        <ele>33.8</ele>
        <time>2026-01-30T10:15:17Z</time>
      </trkpt>
      <trkpt lat="48.69792" lon="2.11398">
        <ele>33.8</ele>
        <time>2026-01-30T10:15:18Z</time>
      </trkpt>
      <trkpt lat="48.69792" lon="2.1139">
        <ele>33.8</ele>
        <time>2026-01-30T10:15:19Z</time>
      </trkpt>
      <trkpt lat="48.69792" lon="2.11382">
        <ele>32.4</ele>
        <time>2026-01-30T10:15:20Z</time>
      </trkpt>
      <trkpt lat="48.69793" lon="2.11374">
        <ele>32.4</ele>
        <time>2026-01-30T10:15:21Z</time>
      </trkpt>
      <trkpt lat="48.69794" lon="2.11367">
        <ele>32.4</ele>
        <time>2026-01-30T10:15:22Z</time>
      </trkpt>
      <trkpt lat="48.69795" lon="2.1136">
        <ele>33.4</ele>
        <time>2026-01-30T10:15:23Z</time>
      </trkpt>
      <trkpt lat="48.69797" lon="2.11353">
        <ele>34.8</ele>
        <time>2026-01-30T10:15:24Z</time>
      </trkpt>
      <trkpt lat="48.69799" lon="2.11345">
        <ele>34.8</ele>
        <time>2026-01-30T10:15:25Z</time>
      </trkpt>
      <trkpt lat="48.698" lon="2.11338">
        <ele>34.8</ele>
        <time>2026-01-30T10:15:26Z</time>
      </trkpt>
      <trkpt lat="48.69802" lon="2.1133">
        <ele>33.8</ele>
        <time>2026-01-30T10:15:27Z</time>
      </trkpt>
      <trkpt lat="48.69805" lon="2.11322">
        <ele>34.4</ele>
        <time>2026-01-30T10:15:28Z</time>
      </trkpt>
      <trkpt lat="48.69807" lon="2.11315">
        <ele>34.4</ele>
        <time>2026-01-30T10:15:29Z</time>
      </trkpt>
      <trkpt lat="48.69811" lon="2.11307">
        <ele>34.4</ele>
        <time>2026-01-30T10:15:30Z</time>
      </trkpt>
      <trkpt lat="48.69814" lon="2.113">
        <ele>34.4</ele>
        <time>2026-01-30T10:15:31Z</time>
      </trkpt>
      <trkpt lat="48.69818" lon="2.11292">
        <ele>32.4</ele>
        <time>2026-01-30T10:15:32Z</time>
      </trkpt>
      <trkpt lat="48.69821" lon="2.11284">
        <ele>32.4</ele>
        <time>2026-01-30T10:15:33Z</time>
      </trkpt>
      <trkpt lat="48.69824" lon="2.11276">
        <ele>32.4</ele>
        <time>2026-01-30T10:15:34Z</time>
      </trkpt>
      <trkpt lat="48.69828" lon="2.11268">
        <ele>32.4</ele>
        <time>2026-01-30T10:15:35Z</time>
      </trkpt>
      <trkpt lat="48.69831" lon="2.1126">
        <ele>32.8</ele>
        <time>2026-01-30T10:15:36Z</time>
      </trkpt>
      <trkpt lat="48.69834" lon="2.11251">
        <ele>32.8</ele>
        <time>2026-01-30T10:15:37Z</time>
      </trkpt>
      <trkpt lat="48.69837" lon="2.11242">
        <ele>32.8</ele>
        <time>2026-01-30T10:15:38Z</time>
      </trkpt>
      <trkpt lat="48.6984" lon="2.11232">
        <ele>31.8</ele>
        <time>2026-01-30T10:15:39Z</time>
      </trkpt>
      <trkpt lat="48.69842" lon="2.11223">
        <ele>31</ele>
        <time>2026-01-30T10:15:40Z</time>
      </trkpt>
      <trkpt lat="48.69844" lon="2.11213">
        <ele>31</ele>
        <time>2026-01-30T10:15:41Z</time>
      </trkpt>
      <trkpt lat="48.69845" lon="2.11204">
        <ele>31</ele>
        <time>2026-01-30T10:15:42Z</time>
      </trkpt>
      <trkpt lat="48.69846" lon="2.11195">
        <ele>31.4</ele>
        <time>2026-01-30T10:15:43Z</time>
      </trkpt>
      <trkpt lat="48.69847" lon="2.11186">
        <ele>30.6</ele>
        <time>2026-01-30T10:15:44Z</time>
      </trkpt>
      <trkpt lat="48.69848" lon="2.11177">
        <ele>30.6</ele>
        <time>2026-01-30T10:15:45Z</time>
      </trkpt>
      <trkpt lat="48.69849" lon="2.11168">
        <ele>30.6</ele>
        <time>2026-01-30T10:15:46Z</time>
      </trkpt>
      <trkpt lat="48.6985" lon="2.11159">
        <ele>31.6</ele>
        <time>2026-01-30T10:15:47Z</time>
      </trkpt>
      <trkpt lat="48.6985" lon="2.1115">
        <ele>32.4</ele>
        <time>2026-01-30T10:15:48Z</time>
      </trkpt>
      <trkpt lat="48.69851" lon="2.11142">
        <ele>32.4</ele>
        <time>2026-01-30T10:15:49Z</time>
      </trkpt>
      <trkpt lat="48.69851" lon="2.11133">
        <ele>32.4</ele>
        <time>2026-01-30T10:15:50Z</time>
      </trkpt>
      <trkpt lat="48.69852" lon="2.11125">
        <ele>33</ele>
        <time>2026-01-30T10:15:51Z</time>
      </trkpt>
      <trkpt lat="48.69852" lon="2.11117">
        <ele>31.8</ele>
        <time>2026-01-30T10:15:52Z</time>
      </trkpt>
      <trkpt lat="48.69852" lon="2.11109">
        <ele>31.8</ele>
        <time>2026-01-30T10:15:53Z</time>
      </trkpt>
      <trkpt lat="48.69852" lon="2.11101">
        <ele>31.8</ele>
        <time>2026-01-30T10:15:54Z</time>
      </trkpt>
      <trkpt lat="48.69852" lon="2.11093">
        <ele>31.8</ele>
        <time>2026-01-30T10:15:55Z</time>
      </trkpt>
      <trkpt lat="48.69852" lon="2.11085">
        <ele>33.6</ele>
        <time>2026-01-30T10:15:56Z</time>
      </trkpt>
      <trkpt lat="48.69851" lon="2.11078">
        <ele>33.6</ele>
        <time>2026-01-30T10:15:57Z</time>
      </trkpt>
      <trkpt lat="48.6985" lon="2.1107">
        <ele>33.6</ele>
        <time>2026-01-30T10:15:58Z</time>
      </trkpt>
      <trkpt lat="48.69849" lon="2.11062">
        <ele>34</ele>
        <time>2026-01-30T10:15:59Z</time>
      </trkpt>
      <trkpt lat="48.69848" lon="2.11054">
        <ele>33.4</ele>
        <time>2026-01-30T10:16:00Z</time>
      </trkpt>
      <trkpt lat="48.69847" lon="2.11047">
        <ele>33.4</ele>
        <time>2026-01-30T10:16:01Z</time>
      </trkpt>
      <trkpt lat="48.69846" lon="2.1104">
        <ele>33.4</ele>
        <time>2026-01-30T10:16:02Z</time>
      </trkpt>
      <trkpt lat="48.69846" lon="2.11033">
        <ele>33.4</ele>
        <time>2026-01-30T10:16:03Z</time>
      </trkpt>
      <trkpt lat="48.69844" lon="2.11026">
        <ele>33.4</ele>
        <time>2026-01-30T10:16:04Z</time>
      </trkpt>
      <trkpt lat="48.69843" lon="2.11019">
        <ele>33.4</ele>
        <time>2026-01-30T10:16:05Z</time>
      </trkpt>
      <trkpt lat="48.69842" lon="2.11012">
        <ele>33.4</ele>
        <time>2026-01-30T10:16:06Z</time>
      </trkpt>
      <trkpt lat="48.69841" lon="2.11004">
        <ele>33.4</ele>
        <time>2026-01-30T10:16:07Z</time>
      </trkpt>
      <trkpt lat="48.6984" lon="2.10997">
        <ele>32.8</ele>
        <time>2026-01-30T10:16:08Z</time>
      </trkpt>
      <trkpt lat="48.69838" lon="2.10989">
        <ele>32.8</ele>
        <time>2026-01-30T10:16:09Z</time>
      </trkpt>
      <trkpt lat="48.69837" lon="2.10981">
        <ele>32.8</ele>
        <time>2026-01-30T10:16:10Z</time>
      </trkpt>
      <trkpt lat="48.69836" lon="2.10973">
        <ele>31.8</ele>
        <time>2026-01-30T10:16:11Z</time>
      </trkpt>
      <trkpt lat="48.69834" lon="2.10965">
        <ele>31.8</ele>
        <time>2026-01-30T10:16:12Z</time>
      </trkpt>
      <trkpt lat="48.69832" lon="2.10956">
        <ele>31.8</ele>
        <time>2026-01-30T10:16:13Z</time>
      </trkpt>
      <trkpt lat="48.6983" lon="2.10948">
        <ele>31.8</ele>
        <time>2026-01-30T10:16:14Z</time>
      </trkpt>
      <trkpt lat="48.69828" lon="2.10938">
        <ele>30.8</ele>
        <time>2026-01-30T10:16:15Z</time>
      </trkpt>
      <trkpt lat="48.69825" lon="2.10927">
        <ele>28.2</ele>
        <time>2026-01-30T10:16:16Z</time>
      </trkpt>
      <trkpt lat="48.69823" lon="2.10916">
        <ele>28.2</ele>
        <time>2026-01-30T10:16:17Z</time>
      </trkpt>
      <trkpt lat="48.69821" lon="2.10903">
        <ele>28.2</ele>
        <time>2026-01-30T10:16:18Z</time>
      </trkpt>
      <trkpt lat="48.6982" lon="2.1089">
        <ele>27.2</ele>
        <time>2026-01-30T10:16:19Z</time>
      </trkpt>
      <trkpt lat="48.69819" lon="2.10876">
        <ele>25.4</ele>
        <time>2026-01-30T10:16:20Z</time>
      </trkpt>
      <trkpt lat="48.69819" lon="2.10863">
        <ele>25.4</ele>
        <time>2026-01-30T10:16:21Z</time>
      </trkpt>
      <trkpt lat="48.69818" lon="2.10852">
        <ele>25.4</ele>
        <time>2026-01-30T10:16:22Z</time>
      </trkpt>
      <trkpt lat="48.69817" lon="2.10842">
        <ele>25.4</ele>
        <time>2026-01-30T10:16:23Z</time>
      </trkpt>
      <trkpt lat="48.69817" lon="2.10834">
        <ele>26</ele>
        <time>2026-01-30T10:16:24Z</time>
      </trkpt>
      <trkpt lat="48.69819" lon="2.10828">
        <ele>26</ele>
        <time>2026-01-30T10:16:25Z</time>
      </trkpt>
      <trkpt lat="48.69821" lon="2.10822">
        <ele>26</ele>
        <time>2026-01-30T10:16:26Z</time>
      </trkpt>
      <trkpt lat="48.69824" lon="2.10816">
        <ele>25</ele>
        <time>2026-01-30T10:16:27Z</time>
      </trkpt>
      <trkpt lat="48.69824" lon="2.10809">
        <ele>24.8</ele>
        <time>2026-01-30T10:16:28Z</time>
      </trkpt>
      <trkpt lat="48.69822" lon="2.10803">
        <ele>24.8</ele>
        <time>2026-01-30T10:16:29Z</time>
      </trkpt>
      <trkpt lat="48.69819" lon="2.10799">
        <ele>24.8</ele>
        <time>2026-01-30T10:16:30Z</time>
      </trkpt>
      <trkpt lat="48.69815" lon="2.10796">
        <ele>24.8</ele>
        <time>2026-01-30T10:16:31Z</time>
      </trkpt>
      <trkpt lat="48.69813" lon="2.10791">
        <ele>24.8</ele>
        <time>2026-01-30T10:16:32Z</time>
      </trkpt>
      <trkpt lat="48.6981" lon="2.10784">
        <ele>24.8</ele>
        <time>2026-01-30T10:16:33Z</time>
      </trkpt>
      <trkpt lat="48.69808" lon="2.10777">
        <ele>24.8</ele>
        <time>2026-01-30T10:16:34Z</time>
      </trkpt>
      <trkpt lat="48.69806" lon="2.10769">
        <ele>23.8</ele>
        <time>2026-01-30T10:16:35Z</time>
      </trkpt>
      <trkpt lat="48.69803" lon="2.10762">
        <ele>23.4</ele>
        <time>2026-01-30T10:16:36Z</time>
      </trkpt>
      <trkpt lat="48.698" lon="2.10754">
        <ele>23.4</ele>
        <time>2026-01-30T10:16:37Z</time>
      </trkpt>
      <trkpt lat="48.69796" lon="2.10747">
        <ele>23.4</ele>
        <time>2026-01-30T10:16:38Z</time>
      </trkpt>
      <trkpt lat="48.69792" lon="2.10739">
        <ele>23.4</ele>
        <time>2026-01-30T10:16:39Z</time>
      </trkpt>
      <trkpt lat="48.69789" lon="2.10732">
        <ele>23.6</ele>
        <time>2026-01-30T10:16:40Z</time>
      </trkpt>
      <trkpt lat="48.69784" lon="2.10725">
        <ele>23.6</ele>
        <time>2026-01-30T10:16:41Z</time>
      </trkpt>
      <trkpt lat="48.6978" lon="2.10718">
        <ele>23.6</ele>
        <time>2026-01-30T10:16:42Z</time>
      </trkpt>
      <trkpt lat="48.69776" lon="2.10712">
        <ele>23.6</ele>
        <time>2026-01-30T10:16:43Z</time>
      </trkpt>
      <trkpt lat="48.69771" lon="2.10705">
        <ele>22.8</ele>
        <time>2026-01-30T10:16:44Z</time>
      </trkpt>
      <trkpt lat="48.69767" lon="2.10699">
        <ele>22.8</ele>
        <time>2026-01-30T10:16:45Z</time>
      </trkpt>
      <trkpt lat="48.69762" lon="2.10692">
        <ele>22.8</ele>
        <time>2026-01-30T10:16:46Z</time>
      </trkpt>
      <trkpt lat="48.69758" lon="2.10686">
        <ele>22.8</ele>
        <time>2026-01-30T10:16:47Z</time>
      </trkpt>
      <trkpt lat="48.69753" lon="2.1068">
        <ele>24.2</ele>
        <time>2026-01-30T10:16:48Z</time>
      </trkpt>
      <trkpt lat="48.69749" lon="2.10674">
        <ele>24.2</ele>
        <time>2026-01-30T10:16:49Z</time>
      </trkpt>
      <trkpt lat="48.69744" lon="2.10667">
        <ele>24.2</ele>
        <time>2026-01-30T10:16:50Z</time>
      </trkpt>
      <trkpt lat="48.6974" lon="2.10661">
        <ele>24.2</ele>
        <time>2026-01-30T10:16:51Z</time>
      </trkpt>
      <trkpt lat="48.69735" lon="2.10655">
        <ele>23</ele>
        <time>2026-01-30T10:16:52Z</time>
      </trkpt>
      <trkpt lat="48.69731" lon="2.10649">
        <ele>23</ele>
        <time>2026-01-30T10:16:53Z</time>
      </trkpt>
      <trkpt lat="48.69727" lon="2.10643">
        <ele>23</ele>
        <time>2026-01-30T10:16:54Z</time>
      </trkpt>
      <trkpt lat="48.69723" lon="2.10638">
        <ele>24</ele>
        <time>2026-01-30T10:16:55Z</time>
      </trkpt>
      <trkpt lat="48.69719" lon="2.10632">
        <ele>24.2</ele>
        <time>2026-01-30T10:16:56Z</time>
      </trkpt>
      <trkpt lat="48.69715" lon="2.10627">
        <ele>24.2</ele>
        <time>2026-01-30T10:16:57Z</time>
      </trkpt>
      <trkpt lat="48.69712" lon="2.10622">
        <ele>24.2</ele>
        <time>2026-01-30T10:16:58Z</time>
      </trkpt>
      <trkpt lat="48.6971" lon="2.10615">
        <ele>24.2</ele>
        <time>2026-01-30T10:16:59Z</time>
      </trkpt>
      <trkpt lat="48.69707" lon="2.10608">
        <ele>24.4</ele>
        <time>2026-01-30T10:17:00Z</time>
      </trkpt>
      <trkpt lat="48.69703" lon="2.10602">
        <ele>24.4</ele>
        <time>2026-01-30T10:17:01Z</time>
      </trkpt>
      <trkpt lat="48.69699" lon="2.10599">
        <ele>24.4</ele>
        <time>2026-01-30T10:17:02Z</time>
      </trkpt>
      <trkpt lat="48.69694" lon="2.106">
        <ele>24.2</ele>
        <time>2026-01-30T10:17:03Z</time>
      </trkpt>
      <trkpt lat="48.69689" lon="2.10602">
        <ele>24.4</ele>
        <time>2026-01-30T10:17:04Z</time>
      </trkpt>
      <trkpt lat="48.69685" lon="2.10605">
        <ele>24.4</ele>
        <time>2026-01-30T10:17:05Z</time>
      </trkpt>
      <trkpt lat="48.69681" lon="2.10606">
        <ele>24.4</ele>
        <time>2026-01-30T10:17:06Z</time>
      </trkpt>
      <trkpt lat="48.69677" lon="2.10608">
        <ele>25.2</ele>
        <time>2026-01-30T10:17:07Z</time>
      </trkpt>
      <trkpt lat="48.69673" lon="2.10609">
        <ele>25.4</ele>
        <time>2026-01-30T10:17:08Z</time>
      </trkpt>
      <trkpt lat="48.69669" lon="2.1061">
        <ele>25.4</ele>
        <time>2026-01-30T10:17:09Z</time>
      </trkpt>
      <trkpt lat="48.69665" lon="2.10612">
        <ele>25.4</ele>
        <time>2026-01-30T10:17:10Z</time>
      </trkpt>
      <trkpt lat="48.69662" lon="2.10613">
        <ele>26</ele>
        <time>2026-01-30T10:17:11Z</time>
      </trkpt>
      <trkpt lat="48.69658" lon="2.10614">
        <ele>26.2</ele>
        <time>2026-01-30T10:17:12Z</time>
      </trkpt>
      <trkpt lat="48.69655" lon="2.10615">
        <ele>26.2</ele>
        <time>2026-01-30T10:17:13Z</time>
      </trkpt>
      <trkpt lat="48.69652" lon="2.10615">
        <ele>26.2</ele>
        <time>2026-01-30T10:17:14Z</time>
      </trkpt>
      <trkpt lat="48.69648" lon="2.10617">
        <ele>26.2</ele>
        <time>2026-01-30T10:17:15Z</time>
      </trkpt>
      <trkpt lat="48.69645" lon="2.10618">
        <ele>27.2</ele>
        <time>2026-01-30T10:17:16Z</time>
      </trkpt>
      <trkpt lat="48.69642" lon="2.10619">
        <ele>27.2</ele>
        <time>2026-01-30T10:17:17Z</time>
      </trkpt>
      <trkpt lat="48.69638" lon="2.10619">
        <ele>27.2</ele>
        <time>2026-01-30T10:17:18Z</time>
      </trkpt>
      <trkpt lat="48.69635" lon="2.1062">
        <ele>27.2</ele>
        <time>2026-01-30T10:17:19Z</time>
      </trkpt>
      <trkpt lat="48.69632" lon="2.10622">
        <ele>27.2</ele>
        <time>2026-01-30T10:17:20Z</time>
      </trkpt>
      <trkpt lat="48.69628" lon="2.10623">
        <ele>27.2</ele>
        <time>2026-01-30T10:17:21Z</time>
      </trkpt>
      <trkpt lat="48.69624" lon="2.10624">
        <ele>27.2</ele>
        <time>2026-01-30T10:17:22Z</time>
      </trkpt>
      <trkpt lat="48.69621" lon="2.10625">
        <ele>28.2</ele>
        <time>2026-01-30T10:17:23Z</time>
      </trkpt>
      <trkpt lat="48.69618" lon="2.10626">
        <ele>28.4</ele>
        <time>2026-01-30T10:17:24Z</time>
      </trkpt>
      <trkpt lat="48.69615" lon="2.10627">
        <ele>28.4</ele>
        <time>2026-01-30T10:17:25Z</time>
      </trkpt>
      <trkpt lat="48.69612" lon="2.10627">
        <ele>28.4</ele>
        <time>2026-01-30T10:17:26Z</time>
      </trkpt>
      <trkpt lat="48.69609" lon="2.10628">
        <ele>29.4</ele>
        <time>2026-01-30T10:17:27Z</time>
      </trkpt>
      <trkpt lat="48.69606" lon="2.10629">
        <ele>29.6</ele>
        <time>2026-01-30T10:17:28Z</time>
      </trkpt>
      <trkpt lat="48.69603" lon="2.1063">
        <ele>29.6</ele>
        <time>2026-01-30T10:17:29Z</time>
      </trkpt>
      <trkpt lat="48.696" lon="2.10631">
        <ele>29.6</ele>
        <time>2026-01-30T10:17:30Z</time>
      </trkpt>
      <trkpt lat="48.69596" lon="2.10633">
        <ele>29.6</ele>
        <time>2026-01-30T10:17:31Z</time>
      </trkpt>
      <trkpt lat="48.69593" lon="2.10634">
        <ele>30.2</ele>
        <time>2026-01-30T10:17:32Z</time>
      </trkpt>
      <trkpt lat="48.6959" lon="2.10635">
        <ele>30.2</ele>
        <time>2026-01-30T10:17:33Z</time>
      </trkpt>
      <trkpt lat="48.69586" lon="2.10637">
        <ele>30.2</ele>
        <time>2026-01-30T10:17:34Z</time>
      </trkpt>
      <trkpt lat="48.69583" lon="2.10638">
        <ele>30.2</ele>
        <time>2026-01-30T10:17:35Z</time>
      </trkpt>
      <trkpt lat="48.6958" lon="2.10639">
        <ele>30.6</ele>
        <time>2026-01-30T10:17:36Z</time>
      </trkpt>
      <trkpt lat="48.69576" lon="2.1064">
        <ele>30.6</ele>
        <time>2026-01-30T10:17:37Z</time>
      </trkpt>
      <trkpt lat="48.69573" lon="2.10642">
        <ele>30.6</ele>
        <time>2026-01-30T10:17:38Z</time>
      </trkpt>
      <trkpt lat="48.6957" lon="2.10643">
        <ele>31</ele>
        <time>2026-01-30T10:17:39Z</time>
      </trkpt>
      <trkpt lat="48.69566" lon="2.10645">
        <ele>31</ele>
        <time>2026-01-30T10:17:40Z</time>
      </trkpt>
      <trkpt lat="48.69564" lon="2.10645">
        <ele>31</ele>
        <time>2026-01-30T10:17:41Z</time>
      </trkpt>
      <trkpt lat="48.6956" lon="2.10646">
        <ele>31</ele>
        <time>2026-01-30T10:17:42Z</time>
      </trkpt>
      <trkpt lat="48.69557" lon="2.10647">
        <ele>31.8</ele>
        <time>2026-01-30T10:17:43Z</time>
      </trkpt>
      <trkpt lat="48.69554" lon="2.10648">
        <ele>32.2</ele>
        <time>2026-01-30T10:17:44Z</time>
      </trkpt>
      <trkpt lat="48.69551" lon="2.10649">
        <ele>32.2</ele>
        <time>2026-01-30T10:17:45Z</time>
      </trkpt>
      <trkpt lat="48.69549" lon="2.10649">
        <ele>32.2</ele>
        <time>2026-01-30T10:17:46Z</time>
      </trkpt>
      <trkpt lat="48.69546" lon="2.10651">
        <ele>32.6</ele>
        <time>2026-01-30T10:17:47Z</time>
      </trkpt>
      <trkpt lat="48.69542" lon="2.10652">
        <ele>32.6</ele>
        <time>2026-01-30T10:17:48Z</time>
      </trkpt>
      <trkpt lat="48.69539" lon="2.10654">
        <ele>32.6</ele>
        <time>2026-01-30T10:17:49Z</time>
      </trkpt>
      <trkpt lat="48.69535" lon="2.10655">
        <ele>32.6</ele>
        <time>2026-01-30T10:17:50Z</time>
      </trkpt>
      <trkpt lat="48.69532" lon="2.10656">
        <ele>32.8</ele>
        <time>2026-01-30T10:17:51Z</time>
      </trkpt>
      <trkpt lat="48.69529" lon="2.10657">
        <ele>33.2</ele>
        <time>2026-01-30T10:17:52Z</time>
      </trkpt>
      <trkpt lat="48.69526" lon="2.10659">
        <ele>33.2</ele>
        <time>2026-01-30T10:17:53Z</time>
      </trkpt>
      <trkpt lat="48.69523" lon="2.1066">
        <ele>33.2</ele>
        <time>2026-01-30T10:17:54Z</time>
      </trkpt>
      <trkpt lat="48.6952" lon="2.10661">
        <ele>33.6</ele>
        <time>2026-01-30T10:17:55Z</time>
      </trkpt>
      <trkpt lat="48.69516" lon="2.10662">
        <ele>34</ele>
        <time>2026-01-30T10:17:56Z</time>
      </trkpt>
      <trkpt lat="48.69513" lon="2.10663">
        <ele>34</ele>
        <time>2026-01-30T10:17:57Z</time>
      </trkpt>
      <trkpt lat="48.6951" lon="2.10664">
        <ele>34</ele>
        <time>2026-01-30T10:17:58Z</time>
      </trkpt>
      <trkpt lat="48.69507" lon="2.10665">
        <ele>35</ele>
        <time>2026-01-30T10:17:59Z</time>
      </trkpt>
      <trkpt lat="48.69504" lon="2.10666">
        <ele>35</ele>
        <time>2026-01-30T10:18:00Z</time>
      </trkpt>
      <trkpt lat="48.69501" lon="2.10667">
        <ele>35</ele>
        <time>2026-01-30T10:18:01Z</time>
      </trkpt>
      <trkpt lat="48.69498" lon="2.10669">
        <ele>35</ele>
        <time>2026-01-30T10:18:02Z</time>
      </trkpt>
      <trkpt lat="48.69495" lon="2.1067">
        <ele>34.8</ele>
        <time>2026-01-30T10:18:03Z</time>
      </trkpt>
      <trkpt lat="48.69492" lon="2.10671">
        <ele>35</ele>
        <time>2026-01-30T10:18:04Z</time>
      </trkpt>
      <trkpt lat="48.69488" lon="2.10672">
        <ele>35</ele>
        <time>2026-01-30T10:18:05Z</time>
      </trkpt>
      <trkpt lat="48.69485" lon="2.10673">
        <ele>35</ele>
        <time>2026-01-30T10:18:06Z</time>
      </trkpt>
      <trkpt lat="48.69482" lon="2.10674">
        <ele>35</ele>
        <time>2026-01-30T10:18:07Z</time>
      </trkpt>
      <trkpt lat="48.69478" lon="2.10676">
        <ele>35.4</ele>
        <time>2026-01-30T10:18:08Z</time>
      </trkpt>
      <trkpt lat="48.69475" lon="2.10677">
        <ele>35.4</ele>
        <time>2026-01-30T10:18:09Z</time>
      </trkpt>
      <trkpt lat="48.69472" lon="2.10678">
        <ele>35.4</ele>
        <time>2026-01-30T10:18:10Z</time>
      </trkpt>
      <trkpt lat="48.69469" lon="2.10679">
        <ele>35.8</ele>
        <time>2026-01-30T10:18:11Z</time>
      </trkpt>
      <trkpt lat="48.69466" lon="2.1068">
        <ele>36.4</ele>
        <time>2026-01-30T10:18:12Z</time>
      </trkpt>
      <trkpt lat="48.69462" lon="2.10681">
        <ele>36.4</ele>
        <time>2026-01-30T10:18:13Z</time>
      </trkpt>
      <trkpt lat="48.69459" lon="2.10682">
        <ele>36.4</ele>
        <time>2026-01-30T10:18:14Z</time>
      </trkpt>
      <trkpt lat="48.69456" lon="2.10683">
        <ele>37.4</ele>
        <time>2026-01-30T10:18:15Z</time>
      </trkpt>
      <trkpt lat="48.69453" lon="2.10684">
        <ele>37.4</ele>
        <time>2026-01-30T10:18:16Z</time>
      </trkpt>
      <trkpt lat="48.6945" lon="2.10684">
        <ele>37.4</ele>
        <time>2026-01-30T10:18:17Z</time>
      </trkpt>
      <trkpt lat="48.69446" lon="2.10684">
        <ele>37.4</ele>
        <time>2026-01-30T10:18:18Z</time>
      </trkpt>
      <trkpt lat="48.69443" lon="2.10683">
        <ele>37.4</ele>
        <time>2026-01-30T10:18:19Z</time>
      </trkpt>
      <trkpt lat="48.6944" lon="2.10682">
        <ele>38</ele>
        <time>2026-01-30T10:18:20Z</time>
      </trkpt>
      <trkpt lat="48.69437" lon="2.10681">
        <ele>38</ele>
        <time>2026-01-30T10:18:21Z</time>
      </trkpt>
      <trkpt lat="48.69434" lon="2.1068">
        <ele>38</ele>
        <time>2026-01-30T10:18:22Z</time>
      </trkpt>
      <trkpt lat="48.69431" lon="2.10678">
        <ele>38.6</ele>
        <time>2026-01-30T10:18:23Z</time>
      </trkpt>
      <trkpt lat="48.69428" lon="2.10675">
        <ele>39</ele>
        <time>2026-01-30T10:18:24Z</time>
      </trkpt>
      <trkpt lat="48.69426" lon="2.10673">
        <ele>39</ele>
        <time>2026-01-30T10:18:25Z</time>
      </trkpt>
      <trkpt lat="48.69424" lon="2.10669">
        <ele>39</ele>
        <time>2026-01-30T10:18:26Z</time>
      </trkpt>
      <trkpt lat="48.69422" lon="2.10666">
        <ele>39</ele>
        <time>2026-01-30T10:18:27Z</time>
      </trkpt>
      <trkpt lat="48.6942" lon="2.10662">
        <ele>40</ele>
        <time>2026-01-30T10:18:28Z</time>
      </trkpt>
      <trkpt lat="48.69418" lon="2.10657">
        <ele>40</ele>
        <time>2026-01-30T10:18:29Z</time>
      </trkpt>
      <trkpt lat="48.69417" lon="2.10653">
        <ele>40</ele>
        <time>2026-01-30T10:18:30Z</time>
      </trkpt>
      <trkpt lat="48.69416" lon="2.10648">
        <ele>40.6</ele>
        <time>2026-01-30T10:18:31Z</time>
      </trkpt>
      <trkpt lat="48.69415" lon="2.10643">
        <ele>41</ele>
        <time>2026-01-30T10:18:32Z</time>
      </trkpt>
      <trkpt lat="48.69415" lon="2.10639">
        <ele>41</ele>
        <time>2026-01-30T10:18:33Z</time>
      </trkpt>
      <trkpt lat="48.69414" lon="2.10634">
        <ele>41</ele>
        <time>2026-01-30T10:18:34Z</time>
      </trkpt>
      <trkpt lat="48.69414" lon="2.10629">
        <ele>41.2</ele>
        <time>2026-01-30T10:18:35Z</time>
      </trkpt>
      <trkpt lat="48.69414" lon="2.10624">
        <ele>41.8</ele>
        <time>2026-01-30T10:18:36Z</time>
      </trkpt>
      <trkpt lat="48.69413" lon="2.10619">
        <ele>41.8</ele>
        <time>2026-01-30T10:18:37Z</time>
      </trkpt>
      <trkpt lat="48.69413" lon="2.10613">
        <ele>41.8</ele>
        <time>2026-01-30T10:18:38Z</time>
      </trkpt>
      <trkpt lat="48.69413" lon="2.10608">
        <ele>42.4</ele>
        <time>2026-01-30T10:18:39Z</time>
      </trkpt>
      <trkpt lat="48.69414" lon="2.10603">
        <ele>42.4</ele>
        <time>2026-01-30T10:18:40Z</time>
      </trkpt>
      <trkpt lat="48.69414" lon="2.10599">
        <ele>42.4</ele>
        <time>2026-01-30T10:18:41Z</time>
      </trkpt>
      <trkpt lat="48.69415" lon="2.10594">
        <ele>42.4</ele>
        <time>2026-01-30T10:18:42Z</time>
      </trkpt>
      <trkpt lat="48.69416" lon="2.1059">
        <ele>42.8</ele>
        <time>2026-01-30T10:18:43Z</time>
      </trkpt>
      <trkpt lat="48.69416" lon="2.10585">
        <ele>43.2</ele>
        <time>2026-01-30T10:18:44Z</time>
      </trkpt>
      <trkpt lat="48.69417" lon="2.10581">
        <ele>43.2</ele>
        <time>2026-01-30T10:18:45Z</time>
      </trkpt>
      <trkpt lat="48.69417" lon="2.10576">
        <ele>43.2</ele>
        <time>2026-01-30T10:18:46Z</time>
      </trkpt>
      <trkpt lat="48.69418" lon="2.10572">
        <ele>43.8</ele>
        <time>2026-01-30T10:18:47Z</time>
      </trkpt>
      <trkpt lat="48.69418" lon="2.10568">
        <ele>43.6</ele>
        <time>2026-01-30T10:18:48Z</time>
      </trkpt>
      <trkpt lat="48.69419" lon="2.10563">
        <ele>43.6</ele>
        <time>2026-01-30T10:18:49Z</time>
      </trkpt>
      <trkpt lat="48.6942" lon="2.10559">
        <ele>43.6</ele>
        <time>2026-01-30T10:18:50Z</time>
      </trkpt>
      <trkpt lat="48.6942" lon="2.10555">
        <ele>44.2</ele>
        <time>2026-01-30T10:18:51Z</time>
      </trkpt>
      <trkpt lat="48.6942" lon="2.10551">
        <ele>44.4</ele>
        <time>2026-01-30T10:18:52Z</time>
      </trkpt>
      <trkpt lat="48.69421" lon="2.10547">
        <ele>44.4</ele>
        <time>2026-01-30T10:18:53Z</time>
      </trkpt>
      <trkpt lat="48.69421" lon="2.10542">
        <ele>44.4</ele>
        <time>2026-01-30T10:18:54Z</time>
      </trkpt>
      <trkpt lat="48.69421" lon="2.10538">
        <ele>45.2</ele>
        <time>2026-01-30T10:18:55Z</time>
      </trkpt>
      <trkpt lat="48.69422" lon="2.10535">
        <ele>45.4</ele>
        <time>2026-01-30T10:18:56Z</time>
      </trkpt>
      <trkpt lat="48.69423" lon="2.10531">
        <ele>45.4</ele>
        <time>2026-01-30T10:18:57Z</time>
      </trkpt>
      <trkpt lat="48.69424" lon="2.10528">
        <ele>45.4</ele>
        <time>2026-01-30T10:18:58Z</time>
      </trkpt>
      <trkpt lat="48.69426" lon="2.10525">
        <ele>45.4</ele>
        <time>2026-01-30T10:18:59Z</time>
      </trkpt>
      <trkpt lat="48.69428" lon="2.10522">
        <ele>45.6</ele>
        <time>2026-01-30T10:19:00Z</time>
      </trkpt>
      <trkpt lat="48.69428" lon="2.10519">
        <ele>45.6</ele>
        <time>2026-01-30T10:19:01Z</time>
      </trkpt>
      <trkpt lat="48.69429" lon="2.10516">
        <ele>45.6</ele>
        <time>2026-01-30T10:19:02Z</time>
      </trkpt>
      <trkpt lat="48.69429" lon="2.10512">
        <ele>46.2</ele>
        <time>2026-01-30T10:19:03Z</time>
      </trkpt>
      <trkpt lat="48.6943" lon="2.10508">
        <ele>46.4</ele>
        <time>2026-01-30T10:19:04Z</time>
      </trkpt>
      <trkpt lat="48.6943" lon="2.10505">
        <ele>46.4</ele>
        <time>2026-01-30T10:19:05Z</time>
      </trkpt>
      <trkpt lat="48.69431" lon="2.10502">
        <ele>46.4</ele>
        <time>2026-01-30T10:19:06Z</time>
      </trkpt>
      <trkpt lat="48.69431" lon="2.10498">
        <ele>47.2</ele>
        <time>2026-01-30T10:19:07Z</time>
      </trkpt>
      <trkpt lat="48.6943" lon="2.10494">
        <ele>47.2</ele>
        <time>2026-01-30T10:19:08Z</time>
      </trkpt>
      <trkpt lat="48.6943" lon="2.1049">
        <ele>47.2</ele>
        <time>2026-01-30T10:19:09Z</time>
      </trkpt>
      <trkpt lat="48.69429" lon="2.10487">
        <ele>47.2</ele>
        <time>2026-01-30T10:19:10Z</time>
      </trkpt>
      <trkpt lat="48.69429" lon="2.10483">
        <ele>47.6</ele>
        <time>2026-01-30T10:19:11Z</time>
      </trkpt>
      <trkpt lat="48.69427" lon="2.1048">
        <ele>48.6</ele>
        <time>2026-01-30T10:19:12Z</time>
      </trkpt>
      <trkpt lat="48.69427" lon="2.10477">
        <ele>48.6</ele>
        <time>2026-01-30T10:19:13Z</time>
      </trkpt>
      <trkpt lat="48.69425" lon="2.10473">
        <ele>48.6</ele>
        <time>2026-01-30T10:19:14Z</time>
      </trkpt>
      <trkpt lat="48.69425" lon="2.10469">
        <ele>48.4</ele>
        <time>2026-01-30T10:19:15Z</time>
      </trkpt>
      <trkpt lat="48.69423" lon="2.10464">
        <ele>48</ele>
        <time>2026-01-30T10:19:16Z</time>
      </trkpt>
      <trkpt lat="48.69421" lon="2.10459">
        <ele>48</ele>
        <time>2026-01-30T10:19:17Z</time>
      </trkpt>
      <trkpt lat="48.69418" lon="2.10454">
        <ele>48</ele>
        <time>2026-01-30T10:19:18Z</time>
      </trkpt>
      <trkpt lat="48.69416" lon="2.10449">
        <ele>48.6</ele>
        <time>2026-01-30T10:19:19Z</time>
      </trkpt>
      <trkpt lat="48.69413" lon="2.10446">
        <ele>48.8</ele>
        <time>2026-01-30T10:19:20Z</time>
      </trkpt>
      <trkpt lat="48.6941" lon="2.10443">
        <ele>48.8</ele>
        <time>2026-01-30T10:19:21Z</time>
      </trkpt>
      <trkpt lat="48.69408" lon="2.1044">
        <ele>48.8</ele>
        <time>2026-01-30T10:19:22Z</time>
      </trkpt>
      <trkpt lat="48.69405" lon="2.10437">
        <ele>48.8</ele>
        <time>2026-01-30T10:19:23Z</time>
      </trkpt>
      <trkpt lat="48.69403" lon="2.10435">
        <ele>49.6</ele>
        <time>2026-01-30T10:19:24Z</time>
      </trkpt>
      <trkpt lat="48.69401" lon="2.10434">
        <ele>49.6</ele>
        <time>2026-01-30T10:19:25Z</time>
      </trkpt>
      <trkpt lat="48.69399" lon="2.10433">
        <ele>49.6</ele>
        <time>2026-01-30T10:19:26Z</time>
      </trkpt>
      <trkpt lat="48.69396" lon="2.10431">
        <ele>49.6</ele>
        <time>2026-01-30T10:19:27Z</time>
      </trkpt>
      <trkpt lat="48.69394" lon="2.1043">
        <ele>50</ele>
        <time>2026-01-30T10:19:28Z</time>
      </trkpt>
      <trkpt lat="48.69392" lon="2.1043">
        <ele>50</ele>
        <time>2026-01-30T10:19:29Z</time>
      </trkpt>
      <trkpt lat="48.6939" lon="2.1043">
        <ele>50</ele>
        <time>2026-01-30T10:19:30Z</time>
      </trkpt>
      <trkpt lat="48.69388" lon="2.1043">
        <ele>51</ele>
        <time>2026-01-30T10:19:31Z</time>
      </trkpt>
      <trkpt lat="48.69386" lon="2.10431">
        <ele>51.2</ele>
        <time>2026-01-30T10:19:32Z</time>
      </trkpt>
      <trkpt lat="48.69385" lon="2.10432">
        <ele>51.2</ele>
        <time>2026-01-30T10:19:33Z</time>
      </trkpt>
      <trkpt lat="48.69383" lon="2.10434">
        <ele>51.2</ele>
        <time>2026-01-30T10:19:34Z</time>
      </trkpt>
      <trkpt lat="48.69382" lon="2.10435">
        <ele>51.2</ele>
        <time>2026-01-30T10:19:35Z</time>
      </trkpt>
      <trkpt lat="48.6938" lon="2.10437">
        <ele>51.8</ele>
        <time>2026-01-30T10:19:36Z</time>
      </trkpt>
      <trkpt lat="48.69379" lon="2.10439">
        <ele>51.8</ele>
        <time>2026-01-30T10:19:37Z</time>
      </trkpt>
      <trkpt lat="48.69377" lon="2.10442">
        <ele>51.8</ele>
        <time>2026-01-30T10:19:38Z</time>
      </trkpt>
      <trkpt lat="48.69375" lon="2.10445">
        <ele>51.8</ele>
        <time>2026-01-30T10:19:39Z</time>
      </trkpt>
      <trkpt lat="48.69374" lon="2.10449">
        <ele>52.4</ele>
        <time>2026-01-30T10:19:40Z</time>
      </trkpt>
      <trkpt lat="48.69374" lon="2.10452">
        <ele>52.4</ele>
        <time>2026-01-30T10:19:41Z</time>
      </trkpt>
      <trkpt lat="48.69372" lon="2.10456">
        <ele>52.4</ele>
        <time>2026-01-30T10:19:42Z</time>
      </trkpt>
      <trkpt lat="48.69371" lon="2.1046">
        <ele>52.4</ele>
        <time>2026-01-30T10:19:43Z</time>
      </trkpt>
      <trkpt lat="48.6937" lon="2.10464">
        <ele>52.8</ele>
        <time>2026-01-30T10:19:44Z</time>
      </trkpt>
      <trkpt lat="48.6937" lon="2.10468">
        <ele>52.8</ele>
        <time>2026-01-30T10:19:45Z</time>
      </trkpt>
      <trkpt lat="48.6937" lon="2.10472">
        <ele>52.8</ele>
        <time>2026-01-30T10:19:46Z</time>
      </trkpt>
      <trkpt lat="48.69369" lon="2.10475">
        <ele>52.8</ele>
        <time>2026-01-30T10:19:47Z</time>
      </trkpt>
      <trkpt lat="48.69368" lon="2.1048">
        <ele>52.8</ele>
        <time>2026-01-30T10:19:48Z</time>
      </trkpt>
      <trkpt lat="48.69368" lon="2.10483">
        <ele>52.8</ele>
        <time>2026-01-30T10:19:49Z</time>
      </trkpt>
      <trkpt lat="48.69368" lon="2.10488">
        <ele>52.8</ele>
        <time>2026-01-30T10:19:50Z</time>
      </trkpt>
      <trkpt lat="48.69367" lon="2.10492">
        <ele>53.4</ele>
        <time>2026-01-30T10:19:51Z</time>
      </trkpt>
      <trkpt lat="48.69366" lon="2.10496">
        <ele>53.8</ele>
        <time>2026-01-30T10:19:52Z</time>
      </trkpt>
      <trkpt lat="48.69366" lon="2.10499">
        <ele>53.8</ele>
        <time>2026-01-30T10:19:53Z</time>
      </trkpt>
      <trkpt lat="48.69365" lon="2.10504">
        <ele>53.8</ele>
        <time>2026-01-30T10:19:54Z</time>
      </trkpt>
      <trkpt lat="48.69365" lon="2.10508">
        <ele>54.6</ele>
        <time>2026-01-30T10:19:55Z</time>
      </trkpt>
      <trkpt lat="48.69364" lon="2.10511">
        <ele>54.6</ele>
        <time>2026-01-30T10:19:56Z</time>
      </trkpt>
      <trkpt lat="48.69362" lon="2.10516">
        <ele>54.6</ele>
        <time>2026-01-30T10:19:57Z</time>
      </trkpt>
      <trkpt lat="48.69362" lon="2.10518">
        <ele>54.6</ele>
        <time>2026-01-30T10:19:58Z</time>
      </trkpt>
      <trkpt lat="48.69361" lon="2.10522">
        <ele>55</ele>
        <time>2026-01-30T10:19:59Z</time>
      </trkpt>
      <trkpt lat="48.69362" lon="2.10523">
        <ele>55.2</ele>
        <time>2026-01-30T10:20:00Z</time>
      </trkpt>
      <trkpt lat="48.69361" lon="2.10527">
        <ele>55.2</ele>
        <time>2026-01-30T10:20:01Z</time>
      </trkpt>
      <trkpt lat="48.69359" lon="2.10531">
        <ele>55.2</ele>
        <time>2026-01-30T10:20:02Z</time>
      </trkpt>
      <trkpt lat="48.69358" lon="2.10535">
        <ele>55.2</ele>
        <time>2026-01-30T10:20:03Z</time>
      </trkpt>
      <trkpt lat="48.69356" lon="2.10539">
        <ele>56.2</ele>
        <time>2026-01-30T10:20:04Z</time>
      </trkpt>
      <trkpt lat="48.69355" lon="2.10542">
        <ele>56.2</ele>
        <time>2026-01-30T10:20:05Z</time>
      </trkpt>
      <trkpt lat="48.69352" lon="2.10545">
        <ele>56.2</ele>
        <time>2026-01-30T10:20:06Z</time>
      </trkpt>
      <trkpt lat="48.69351" lon="2.10549">
        <ele>56.8</ele>
        <time>2026-01-30T10:20:07Z</time>
      </trkpt>
      <trkpt lat="48.69349" lon="2.10552">
        <ele>57</ele>
        <time>2026-01-30T10:20:08Z</time>
      </trkpt>
      <trkpt lat="48.69348" lon="2.10555">
        <ele>57</ele>
        <time>2026-01-30T10:20:09Z</time>
      </trkpt>
      <trkpt lat="48.69346" lon="2.10558">
        <ele>57</ele>
        <time>2026-01-30T10:20:10Z</time>
      </trkpt>
      <trkpt lat="48.69343" lon="2.10561">
        <ele>57.8</ele>
        <time>2026-01-30T10:20:11Z</time>
      </trkpt>
      <trkpt lat="48.69341" lon="2.10563">
        <ele>57.6</ele>
        <time>2026-01-30T10:20:12Z</time>
      </trkpt>
      <trkpt lat="48.69339" lon="2.10567">
        <ele>57.6</ele>
        <time>2026-01-30T10:20:13Z</time>
      </trkpt>
      <trkpt lat="48.69338" lon="2.10569">
        <ele>57.6</ele>
        <time>2026-01-30T10:20:14Z</time>
      </trkpt>
      <trkpt lat="48.69335" lon="2.10573">
        <ele>58.6</ele>
        <time>2026-01-30T10:20:15Z</time>
      </trkpt>
      <trkpt lat="48.69332" lon="2.10576">
        <ele>59</ele>
        <time>2026-01-30T10:20:16Z</time>
      </trkpt>
      <trkpt lat="48.6933" lon="2.10578">
        <ele>59</ele>
        <time>2026-01-30T10:20:17Z</time>
      </trkpt>
      <trkpt lat="48.69327" lon="2.10583">
        <ele>59</ele>
        <time>2026-01-30T10:20:18Z</time>
      </trkpt>
      <trkpt lat="48.69324" lon="2.10586">
        <ele>59.8</ele>
        <time>2026-01-30T10:20:19Z</time>
      </trkpt>
      <trkpt lat="48.69322" lon="2.10591">
        <ele>60</ele>
        <time>2026-01-30T10:20:20Z</time>
      </trkpt>
      <trkpt lat="48.69319" lon="2.10595">
        <ele>60</ele>
        <time>2026-01-30T10:20:21Z</time>
      </trkpt>
      <trkpt lat="48.69317" lon="2.10598">
        <ele>60</ele>
        <time>2026-01-30T10:20:22Z</time>
      </trkpt>
      <trkpt lat="48.69314" lon="2.10603">
        <ele>60</ele>
        <time>2026-01-30T10:20:23Z</time>
      </trkpt>
      <trkpt lat="48.69312" lon="2.10607">
        <ele>60</ele>
        <time>2026-01-30T10:20:24Z</time>
      </trkpt>
      <trkpt lat="48.6931" lon="2.10611">
        <ele>60</ele>
        <time>2026-01-30T10:20:25Z</time>
      </trkpt>
      <trkpt lat="48.69308" lon="2.10615">
        <ele>60</ele>
        <time>2026-01-30T10:20:26Z</time>
      </trkpt>
      <trkpt lat="48.69305" lon="2.10619">
        <ele>60.6</ele>
        <time>2026-01-30T10:20:27Z</time>
      </trkpt>
      <trkpt lat="48.69303" lon="2.10623">
        <ele>60.8</ele>
        <time>2026-01-30T10:20:28Z</time>
      </trkpt>
      <trkpt lat="48.69301" lon="2.10627">
        <ele>60.8</ele>
        <time>2026-01-30T10:20:29Z</time>
      </trkpt>
      <trkpt lat="48.69299" lon="2.10631">
        <ele>60.8</ele>
        <time>2026-01-30T10:20:30Z</time>
      </trkpt>
      <trkpt lat="48.69297" lon="2.10635">
        <ele>61</ele>
        <time>2026-01-30T10:20:31Z</time>
      </trkpt>
      <trkpt lat="48.69295" lon="2.1064">
        <ele>61.2</ele>
        <time>2026-01-30T10:20:32Z</time>
      </trkpt>
      <trkpt lat="48.69293" lon="2.10645">
        <ele>61.2</ele>
        <time>2026-01-30T10:20:33Z</time>
      </trkpt>
      <trkpt lat="48.69291" lon="2.10649">
        <ele>61.2</ele>
        <time>2026-01-30T10:20:34Z</time>
      </trkpt>
      <trkpt lat="48.69289" lon="2.10653">
        <ele>62</ele>
        <time>2026-01-30T10:20:35Z</time>
      </trkpt>
      <trkpt lat="48.69287" lon="2.10658">
        <ele>62</ele>
        <time>2026-01-30T10:20:36Z</time>
      </trkpt>
      <trkpt lat="48.69286" lon="2.10663">
        <ele>62</ele>
        <time>2026-01-30T10:20:37Z</time>
      </trkpt>
      <trkpt lat="48.69284" lon="2.10667">
        <ele>62</ele>
        <time>2026-01-30T10:20:38Z</time>
      </trkpt>
      <trkpt lat="48.69282" lon="2.10672">
        <ele>62</ele>
        <time>2026-01-30T10:20:39Z</time>
      </trkpt>
      <trkpt lat="48.69281" lon="2.10676">
        <ele>62.6</ele>
        <time>2026-01-30T10:20:40Z</time>
      </trkpt>
      <trkpt lat="48.6928" lon="2.1068">
        <ele>62.6</ele>
        <time>2026-01-30T10:20:41Z</time>
      </trkpt>
      <trkpt lat="48.69278" lon="2.10684">
        <ele>62.6</ele>
        <time>2026-01-30T10:20:42Z</time>
      </trkpt>
      <trkpt lat="48.69277" lon="2.10689">
        <ele>62.6</ele>
        <time>2026-01-30T10:20:43Z</time>
      </trkpt>
      <trkpt lat="48.69276" lon="2.10693">
        <ele>63.6</ele>
        <time>2026-01-30T10:20:44Z</time>
      </trkpt>
      <trkpt lat="48.69275" lon="2.10699">
        <ele>63.6</ele>
        <time>2026-01-30T10:20:45Z</time>
      </trkpt>
      <trkpt lat="48.69273" lon="2.10704">
        <ele>63.6</ele>
        <time>2026-01-30T10:20:46Z</time>
      </trkpt>
      <trkpt lat="48.69272" lon="2.10709">
        <ele>63.6</ele>
        <time>2026-01-30T10:20:47Z</time>
      </trkpt>
      <trkpt lat="48.69271" lon="2.10714">
        <ele>64.2</ele>
        <time>2026-01-30T10:20:48Z</time>
      </trkpt>
      <trkpt lat="48.6927" lon="2.10719">
        <ele>64.2</ele>
        <time>2026-01-30T10:20:49Z</time>
      </trkpt>
      <trkpt lat="48.69269" lon="2.10724">
        <ele>64.2</ele>
        <time>2026-01-30T10:20:50Z</time>
      </trkpt>
      <trkpt lat="48.69267" lon="2.1073">
        <ele>64.8</ele>
        <time>2026-01-30T10:20:51Z</time>
      </trkpt>
      <trkpt lat="48.69266" lon="2.10735">
        <ele>64.8</ele>
        <time>2026-01-30T10:20:52Z</time>
      </trkpt>
      <trkpt lat="48.69265" lon="2.1074">
        <ele>64.8</ele>
        <time>2026-01-30T10:20:53Z</time>
      </trkpt>
      <trkpt lat="48.69263" lon="2.10745">
        <ele>64.8</ele>
        <time>2026-01-30T10:20:54Z</time>
      </trkpt>
      <trkpt lat="48.69262" lon="2.1075">
        <ele>65.4</ele>
        <time>2026-01-30T10:20:55Z</time>
      </trkpt>
      <trkpt lat="48.69261" lon="2.10755">
        <ele>65.8</ele>
        <time>2026-01-30T10:20:56Z</time>
      </trkpt>
      <trkpt lat="48.6926" lon="2.1076">
        <ele>65.8</ele>
        <time>2026-01-30T10:20:57Z</time>
      </trkpt>
      <trkpt lat="48.69259" lon="2.10766">
        <ele>65.8</ele>
        <time>2026-01-30T10:20:58Z</time>
      </trkpt>
      <trkpt lat="48.69258" lon="2.10771">
        <ele>65.8</ele>
        <time>2026-01-30T10:20:59Z</time>
      </trkpt>
      <trkpt lat="48.69256" lon="2.10776">
        <ele>66.4</ele>
        <time>2026-01-30T10:21:00Z</time>
      </trkpt>
      <trkpt lat="48.69255" lon="2.10781">
        <ele>66.4</ele>
        <time>2026-01-30T10:21:01Z</time>
      </trkpt>
      <trkpt lat="48.69254" lon="2.10786">
        <ele>66.4</ele>
        <time>2026-01-30T10:21:02Z</time>
      </trkpt>
      <trkpt lat="48.69252" lon="2.10791">
        <ele>66.8</ele>
        <time>2026-01-30T10:21:03Z</time>
      </trkpt>
      <trkpt lat="48.69251" lon="2.10796">
        <ele>66.6</ele>
        <time>2026-01-30T10:21:04Z</time>
      </trkpt>
      <trkpt lat="48.69249" lon="2.10801">
        <ele>66.6</ele>
        <time>2026-01-30T10:21:05Z</time>
      </trkpt>
      <trkpt lat="48.69248" lon="2.10805">
        <ele>66.6</ele>
        <time>2026-01-30T10:21:06Z</time>
      </trkpt>
      <trkpt lat="48.69247" lon="2.1081">
        <ele>67</ele>
        <time>2026-01-30T10:21:07Z</time>
      </trkpt>
      <trkpt lat="48.69245" lon="2.10815">
        <ele>67</ele>
        <time>2026-01-30T10:21:08Z</time>
      </trkpt>
      <trkpt lat="48.69244" lon="2.1082">
        <ele>67</ele>
        <time>2026-01-30T10:21:09Z</time>
      </trkpt>
      <trkpt lat="48.69243" lon="2.10825">
        <ele>67</ele>
        <time>2026-01-30T10:21:10Z</time>
      </trkpt>
      <trkpt lat="48.69242" lon="2.1083">
        <ele>67.4</ele>
        <time>2026-01-30T10:21:11Z</time>
      </trkpt>
      <trkpt lat="48.6924" lon="2.10835">
        <ele>68</ele>
        <time>2026-01-30T10:21:12Z</time>
      </trkpt>
      <trkpt lat="48.69239" lon="2.1084">
        <ele>68</ele>
        <time>2026-01-30T10:21:13Z</time>
      </trkpt>
      <trkpt lat="48.69238" lon="2.10844">
        <ele>68</ele>
        <time>2026-01-30T10:21:14Z</time>
      </trkpt>
      <trkpt lat="48.69237" lon="2.10848">
        <ele>68</ele>
        <time>2026-01-30T10:21:15Z</time>
      </trkpt>
      <trkpt lat="48.69236" lon="2.10852">
        <ele>68.2</ele>
        <time>2026-01-30T10:21:16Z</time>
      </trkpt>
      <trkpt lat="48.69234" lon="2.10857">
        <ele>68.2</ele>
        <time>2026-01-30T10:21:17Z</time>
      </trkpt>
      <trkpt lat="48.69233" lon="2.10862">
        <ele>68.2</ele>
        <time>2026-01-30T10:21:18Z</time>
      </trkpt>
      <trkpt lat="48.69231" lon="2.10866">
        <ele>68.4</ele>
        <time>2026-01-30T10:21:19Z</time>
      </trkpt>
      <trkpt lat="48.6923" lon="2.1087">
        <ele>68.6</ele>
        <time>2026-01-30T10:21:20Z</time>
      </trkpt>
      <trkpt lat="48.69228" lon="2.10874">
        <ele>68.6</ele>
        <time>2026-01-30T10:21:21Z</time>
      </trkpt>
      <trkpt lat="48.69226" lon="2.10877">
        <ele>68.6</ele>
        <time>2026-01-30T10:21:22Z</time>
      </trkpt>
      <trkpt lat="48.69224" lon="2.1088">
        <ele>68.8</ele>
        <time>2026-01-30T10:21:23Z</time>
      </trkpt>
      <trkpt lat="48.69222" lon="2.10883">
        <ele>69.4</ele>
        <time>2026-01-30T10:21:24Z</time>
      </trkpt>
      <trkpt lat="48.69219" lon="2.10886">
        <ele>69.4</ele>
        <time>2026-01-30T10:21:25Z</time>
      </trkpt>
      <trkpt lat="48.69216" lon="2.10889">
        <ele>69.4</ele>
        <time>2026-01-30T10:21:26Z</time>
      </trkpt>
      <trkpt lat="48.69213" lon="2.10892">
        <ele>70</ele>
        <time>2026-01-30T10:21:27Z</time>
      </trkpt>
      <trkpt lat="48.6921" lon="2.10894">
        <ele>70.2</ele>
        <time>2026-01-30T10:21:28Z</time>
      </trkpt>
      <trkpt lat="48.69207" lon="2.10895">
        <ele>70.2</ele>
        <time>2026-01-30T10:21:29Z</time>
      </trkpt>
      <trkpt lat="48.69204" lon="2.10896">
        <ele>70.2</ele>
        <time>2026-01-30T10:21:30Z</time>
      </trkpt>
      <trkpt lat="48.69201" lon="2.10896">
        <ele>71.2</ele>
        <time>2026-01-30T10:21:31Z</time>
      </trkpt>
      <trkpt lat="48.69198" lon="2.10896">
        <ele>71.4</ele>
        <time>2026-01-30T10:21:32Z</time>
      </trkpt>
      <trkpt lat="48.69195" lon="2.10896">
        <ele>71.4</ele>
        <time>2026-01-30T10:21:33Z</time>
      </trkpt>
      <trkpt lat="48.69192" lon="2.10895">
        <ele>71.4</ele>
        <time>2026-01-30T10:21:34Z</time>
      </trkpt>
      <trkpt lat="48.69189" lon="2.10894">
        <ele>72.2</ele>
        <time>2026-01-30T10:21:35Z</time>
      </trkpt>
      <trkpt lat="48.69186" lon="2.10892">
        <ele>72.2</ele>
        <time>2026-01-30T10:21:36Z</time>
      </trkpt>
      <trkpt lat="48.69183" lon="2.1089">
        <ele>72.2</ele>
        <time>2026-01-30T10:21:37Z</time>
      </trkpt>
      <trkpt lat="48.69181" lon="2.10887">
        <ele>72.2</ele>
        <time>2026-01-30T10:21:38Z</time>
      </trkpt>
      <trkpt lat="48.69179" lon="2.10883">
        <ele>72.2</ele>
        <time>2026-01-30T10:21:39Z</time>
      </trkpt>
      <trkpt lat="48.69178" lon="2.1088">
        <ele>72.4</ele>
        <time>2026-01-30T10:21:40Z</time>
      </trkpt>
      <trkpt lat="48.69176" lon="2.10876">
        <ele>72.4</ele>
        <time>2026-01-30T10:21:41Z</time>
      </trkpt>
      <trkpt lat="48.69175" lon="2.10873">
        <ele>72.4</ele>
        <time>2026-01-30T10:21:42Z</time>
      </trkpt>
      <trkpt lat="48.69174" lon="2.1087">
        <ele>72.8</ele>
        <time>2026-01-30T10:21:43Z</time>
      </trkpt>
      <trkpt lat="48.69174" lon="2.10867">
        <ele>73</ele>
        <time>2026-01-30T10:21:44Z</time>
      </trkpt>
      <trkpt lat="48.69173" lon="2.10863">
        <ele>73</ele>
        <time>2026-01-30T10:21:45Z</time>
      </trkpt>
      <trkpt lat="48.69173" lon="2.10858">
        <ele>73</ele>
        <time>2026-01-30T10:21:46Z</time>
      </trkpt>
      <trkpt lat="48.69173" lon="2.10854">
        <ele>73.4</ele>
        <time>2026-01-30T10:21:47Z</time>
      </trkpt>
      <trkpt lat="48.69174" lon="2.1085">
        <ele>73.6</ele>
        <time>2026-01-30T10:21:48Z</time>
      </trkpt>
      <trkpt lat="48.69174" lon="2.10847">
        <ele>73.6</ele>
        <time>2026-01-30T10:21:49Z</time>
      </trkpt>
      <trkpt lat="48.69176" lon="2.10843">
        <ele>73.6</ele>
        <time>2026-01-30T10:21:50Z</time>
      </trkpt>
      <trkpt lat="48.69177" lon="2.1084">
        <ele>73.6</ele>
        <time>2026-01-30T10:21:51Z</time>
      </trkpt>
      <trkpt lat="48.69178" lon="2.10837">
        <ele>74.2</ele>
        <time>2026-01-30T10:21:52Z</time>
      </trkpt>
      <trkpt lat="48.6918" lon="2.10834">
        <ele>74.2</ele>
        <time>2026-01-30T10:21:53Z</time>
      </trkpt>
      <trkpt lat="48.69181" lon="2.10831">
        <ele>74.2</ele>
        <time>2026-01-30T10:21:54Z</time>
      </trkpt>
      <trkpt lat="48.69182" lon="2.10828">
        <ele>74.2</ele>
        <time>2026-01-30T10:21:55Z</time>
      </trkpt>
      <trkpt lat="48.69184" lon="2.10825">
        <ele>74.6</ele>
        <time>2026-01-30T10:21:56Z</time>
      </trkpt>
      <trkpt lat="48.69185" lon="2.10821">
        <ele>74.6</ele>
        <time>2026-01-30T10:21:57Z</time>
      </trkpt>
      <trkpt lat="48.69186" lon="2.10818">
        <ele>74.6</ele>
        <time>2026-01-30T10:21:58Z</time>
      </trkpt>
      <trkpt lat="48.69188" lon="2.10815">
        <ele>75.6</ele>
        <time>2026-01-30T10:21:59Z</time>
      </trkpt>
      <trkpt lat="48.69189" lon="2.10812">
        <ele>75.6</ele>
        <time>2026-01-30T10:22:00Z</time>
      </trkpt>
      <trkpt lat="48.6919" lon="2.10807">
        <ele>75.6</ele>
        <time>2026-01-30T10:22:01Z</time>
      </trkpt>
      <trkpt lat="48.69191" lon="2.10806">
        <ele>75.6</ele>
        <time>2026-01-30T10:22:02Z</time>
      </trkpt>
      <trkpt lat="48.69192" lon="2.10802">
        <ele>75.6</ele>
        <time>2026-01-30T10:22:03Z</time>
      </trkpt>
      <trkpt lat="48.69194" lon="2.10803">
        <ele>76</ele>
        <time>2026-01-30T10:22:04Z</time>
      </trkpt>
      <trkpt lat="48.69195" lon="2.108">
        <ele>76</ele>
        <time>2026-01-30T10:22:05Z</time>
      </trkpt>
      <trkpt lat="48.69197" lon="2.10796">
        <ele>76</ele>
        <time>2026-01-30T10:22:06Z</time>
      </trkpt>
      <trkpt lat="48.69198" lon="2.10794">
        <ele>77</ele>
        <time>2026-01-30T10:22:07Z</time>
      </trkpt>
      <trkpt lat="48.692" lon="2.10793">
        <ele>77.2</ele>
        <time>2026-01-30T10:22:08Z</time>
      </trkpt>
      <trkpt lat="48.69201" lon="2.1079">
        <ele>77.2</ele>
        <time>2026-01-30T10:22:09Z</time>
      </trkpt>
      <trkpt lat="48.69203" lon="2.10787">
        <ele>77.2</ele>
        <time>2026-01-30T10:22:10Z</time>
      </trkpt>
      <trkpt lat="48.69203" lon="2.10783">
        <ele>77.2</ele>
        <time>2026-01-30T10:22:11Z</time>
      </trkpt>
      <trkpt lat="48.69205" lon="2.10778">
        <ele>77.8</ele>
        <time>2026-01-30T10:22:12Z</time>
      </trkpt>
      <trkpt lat="48.69206" lon="2.10774">
        <ele>77.8</ele>
        <time>2026-01-30T10:22:13Z</time>
      </trkpt>
      <trkpt lat="48.69206" lon="2.10766">
        <ele>77.8</ele>
        <time>2026-01-30T10:22:14Z</time>
      </trkpt>
      <trkpt lat="48.69206" lon="2.10761">
        <ele>78.6</ele>
        <time>2026-01-30T10:22:15Z</time>
      </trkpt>
      <trkpt lat="48.69206" lon="2.10756">
        <ele>78.2</ele>
        <time>2026-01-30T10:22:16Z</time>
      </trkpt>
      <trkpt lat="48.69207" lon="2.10751">
        <ele>78.2</ele>
        <time>2026-01-30T10:22:17Z</time>
      </trkpt>
      <trkpt lat="48.69208" lon="2.10746">
        <ele>78.2</ele>
        <time>2026-01-30T10:22:18Z</time>
      </trkpt>
      <trkpt lat="48.69209" lon="2.10741">
        <ele>79.2</ele>
        <time>2026-01-30T10:22:19Z</time>
      </trkpt>
      <trkpt lat="48.69211" lon="2.10737">
        <ele>79.4</ele>
        <time>2026-01-30T10:22:20Z</time>
      </trkpt>
      <trkpt lat="48.69212" lon="2.10732">
        <ele>79.4</ele>
        <time>2026-01-30T10:22:21Z</time>
      </trkpt>
      <trkpt lat="48.69213" lon="2.10728">
        <ele>79.4</ele>
        <time>2026-01-30T10:22:22Z</time>
      </trkpt>
      <trkpt lat="48.69214" lon="2.10723">
        <ele>79.4</ele>
        <time>2026-01-30T10:22:23Z</time>
      </trkpt>
      <trkpt lat="48.69215" lon="2.10718">
        <ele>79.8</ele>
        <time>2026-01-30T10:22:24Z</time>
      </trkpt>
      <trkpt lat="48.69216" lon="2.10714">
        <ele>79.8</ele>
        <time>2026-01-30T10:22:25Z</time>
      </trkpt>
      <trkpt lat="48.69217" lon="2.10708">
        <ele>79.8</ele>
        <time>2026-01-30T10:22:26Z</time>
      </trkpt>
      <trkpt lat="48.69219" lon="2.10704">
        <ele>80.2</ele>
        <time>2026-01-30T10:22:27Z</time>
      </trkpt>
      <trkpt lat="48.6922" lon="2.107">
        <ele>80.8</ele>
        <time>2026-01-30T10:22:28Z</time>
      </trkpt>
      <trkpt lat="48.69221" lon="2.10696">
        <ele>80.8</ele>
        <time>2026-01-30T10:22:29Z</time>
      </trkpt>
      <trkpt lat="48.69222" lon="2.10691">
        <ele>80.8</ele>
        <time>2026-01-30T10:22:30Z</time>
      </trkpt>
      <trkpt lat="48.69223" lon="2.10685">
        <ele>80.8</ele>
        <time>2026-01-30T10:22:31Z</time>
      </trkpt>
      <trkpt lat="48.69224" lon="2.10681">
        <ele>81.4</ele>
        <time>2026-01-30T10:22:32Z</time>
      </trkpt>
      <trkpt lat="48.69225" lon="2.10677">
        <ele>81.4</ele>
        <time>2026-01-30T10:22:33Z</time>
      </trkpt>
      <trkpt lat="48.69225" lon="2.10672">
        <ele>81.4</ele>
        <time>2026-01-30T10:22:34Z</time>
      </trkpt>
      <trkpt lat="48.69225" lon="2.10668">
        <ele>82.2</ele>
        <time>2026-01-30T10:22:35Z</time>
      </trkpt>
      <trkpt lat="48.69226" lon="2.10663">
        <ele>81.8</ele>
        <time>2026-01-30T10:22:36Z</time>
      </trkpt>
      <trkpt lat="48.69226" lon="2.10659">
        <ele>81.8</ele>
        <time>2026-01-30T10:22:37Z</time>
      </trkpt>
      <trkpt lat="48.69227" lon="2.10654">
        <ele>81.8</ele>
        <time>2026-01-30T10:22:38Z</time>
      </trkpt>
      <trkpt lat="48.69226" lon="2.10649">
        <ele>82.8</ele>
        <time>2026-01-30T10:22:39Z</time>
      </trkpt>
      <trkpt lat="48.69225" lon="2.10645">
        <ele>82.8</ele>
        <time>2026-01-30T10:22:40Z</time>
      </trkpt>
      <trkpt lat="48.69225" lon="2.10642">
        <ele>82.8</ele>
        <time>2026-01-30T10:22:41Z</time>
      </trkpt>
      <trkpt lat="48.69224" lon="2.10637">
        <ele>82.8</ele>
        <time>2026-01-30T10:22:42Z</time>
      </trkpt>
      <trkpt lat="48.69222" lon="2.10633">
        <ele>82.8</ele>
        <time>2026-01-30T10:22:43Z</time>
      </trkpt>
      <trkpt lat="48.6922" lon="2.10628">
        <ele>83.2</ele>
        <time>2026-01-30T10:22:44Z</time>
      </trkpt>
      <trkpt lat="48.69219" lon="2.10624">
        <ele>83.2</ele>
        <time>2026-01-30T10:22:45Z</time>
      </trkpt>
      <trkpt lat="48.69217" lon="2.10618">
        <ele>83.2</ele>
        <time>2026-01-30T10:22:46Z</time>
      </trkpt>
      <trkpt lat="48.69214" lon="2.10614">
        <ele>83.2</ele>
        <time>2026-01-30T10:22:47Z</time>
      </trkpt>
      <trkpt lat="48.69212" lon="2.1061">
        <ele>83.8</ele>
        <time>2026-01-30T10:22:48Z</time>
      </trkpt>
      <trkpt lat="48.69209" lon="2.10605">
        <ele>83.8</ele>
        <time>2026-01-30T10:22:49Z</time>
      </trkpt>
      <trkpt lat="48.69207" lon="2.10601">
        <ele>83.8</ele>
        <time>2026-01-30T10:22:50Z</time>
      </trkpt>
      <trkpt lat="48.69204" lon="2.10599">
        <ele>83.8</ele>
        <time>2026-01-30T10:22:51Z</time>
      </trkpt>
      <trkpt lat="48.69201" lon="2.10597">
        <ele>84.2</ele>
        <time>2026-01-30T10:22:52Z</time>
      </trkpt>
      <trkpt lat="48.69199" lon="2.10594">
        <ele>84.2</ele>
        <time>2026-01-30T10:22:53Z</time>
      </trkpt>
      <trkpt lat="48.69196" lon="2.10592">
        <ele>84.2</ele>
        <time>2026-01-30T10:22:54Z</time>
      </trkpt>
      <trkpt lat="48.69194" lon="2.10591">
        <ele>84.2</ele>
        <time>2026-01-30T10:22:55Z</time>
      </trkpt>
      <trkpt lat="48.69191" lon="2.1059">
        <ele>84.8</ele>
        <time>2026-01-30T10:22:56Z</time>
      </trkpt>
      <trkpt lat="48.69189" lon="2.10589">
        <ele>84.8</ele>
        <time>2026-01-30T10:22:57Z</time>
      </trkpt>
      <trkpt lat="48.69186" lon="2.1059">
        <ele>84.8</ele>
        <time>2026-01-30T10:22:58Z</time>
      </trkpt>
      <trkpt lat="48.69184" lon="2.10591">
        <ele>85.4</ele>
        <time>2026-01-30T10:22:59Z</time>
      </trkpt>
      <trkpt lat="48.69181" lon="2.10592">
        <ele>85.6</ele>
        <time>2026-01-30T10:23:00Z</time>
      </trkpt>
      <trkpt lat="48.69179" lon="2.10595">
        <ele>85.6</ele>
        <time>2026-01-30T10:23:01Z</time>
      </trkpt>
      <trkpt lat="48.69177" lon="2.10598">
        <ele>85.6</ele>
        <time>2026-01-30T10:23:02Z</time>
      </trkpt>
      <trkpt lat="48.69176" lon="2.10599">
        <ele>85.6</ele>
        <time>2026-01-30T10:23:03Z</time>
      </trkpt>
      <trkpt lat="48.69174" lon="2.10601">
        <ele>86.8</ele>
        <time>2026-01-30T10:23:04Z</time>
      </trkpt>
      <trkpt lat="48.69172" lon="2.10604">
        <ele>86.8</ele>
        <time>2026-01-30T10:23:05Z</time>
      </trkpt>
      <trkpt lat="48.6917" lon="2.10606">
        <ele>86.8</ele>
        <time>2026-01-30T10:23:06Z</time>
      </trkpt>
      <trkpt lat="48.69168" lon="2.1061">
        <ele>87.2</ele>
        <time>2026-01-30T10:23:07Z</time>
      </trkpt>
      <trkpt lat="48.69167" lon="2.10613">
        <ele>87.8</ele>
        <time>2026-01-30T10:23:08Z</time>
      </trkpt>
      <trkpt lat="48.69166" lon="2.10618">
        <ele>87.8</ele>
        <time>2026-01-30T10:23:09Z</time>
      </trkpt>
      <trkpt lat="48.69164" lon="2.10622">
        <ele>87.8</ele>
        <time>2026-01-30T10:23:10Z</time>
      </trkpt>
      <trkpt lat="48.69163" lon="2.10627">
        <ele>87.8</ele>
        <time>2026-01-30T10:23:11Z</time>
      </trkpt>
      <trkpt lat="48.69162" lon="2.10631">
        <ele>88</ele>
        <time>2026-01-30T10:23:12Z</time>
      </trkpt>
      <trkpt lat="48.69162" lon="2.10635">
        <ele>88</ele>
        <time>2026-01-30T10:23:13Z</time>
      </trkpt>
      <trkpt lat="48.69161" lon="2.10638">
        <ele>88</ele>
        <time>2026-01-30T10:23:14Z</time>
      </trkpt>
      <trkpt lat="48.69161" lon="2.10643">
        <ele>88.6</ele>
        <time>2026-01-30T10:23:15Z</time>
      </trkpt>
      <trkpt lat="48.6916" lon="2.10647">
        <ele>88.4</ele>
        <time>2026-01-30T10:23:16Z</time>
      </trkpt>
      <trkpt lat="48.6916" lon="2.10652">
        <ele>88.4</ele>
        <time>2026-01-30T10:23:17Z</time>
      </trkpt>
      <trkpt lat="48.69159" lon="2.10657">
        <ele>88.4</ele>
        <time>2026-01-30T10:23:18Z</time>
      </trkpt>
      <trkpt lat="48.69158" lon="2.10662">
        <ele>89</ele>
        <time>2026-01-30T10:23:19Z</time>
      </trkpt>
      <trkpt lat="48.69157" lon="2.10665">
        <ele>89</ele>
        <time>2026-01-30T10:23:20Z</time>
      </trkpt>
      <trkpt lat="48.69157" lon="2.10669">
        <ele>89</ele>
        <time>2026-01-30T10:23:21Z</time>
      </trkpt>
      <trkpt lat="48.69156" lon="2.10673">
        <ele>89</ele>
        <time>2026-01-30T10:23:22Z</time>
      </trkpt>
      <trkpt lat="48.69155" lon="2.10677">
        <ele>89.8</ele>
        <time>2026-01-30T10:23:23Z</time>
      </trkpt>
      <trkpt lat="48.69155" lon="2.1068">
        <ele>90.2</ele>
        <time>2026-01-30T10:23:24Z</time>
      </trkpt>
      <trkpt lat="48.69154" lon="2.10685">
        <ele>90.2</ele>
        <time>2026-01-30T10:23:25Z</time>
      </trkpt>
      <trkpt lat="48.69154" lon="2.10689">
        <ele>90.2</ele>
        <time>2026-01-30T10:23:26Z</time>
      </trkpt>
      <trkpt lat="48.69152" lon="2.10696">
        <ele>90.2</ele>
        <time>2026-01-30T10:23:27Z</time>
      </trkpt>
      <trkpt lat="48.69151" lon="2.107">
        <ele>90.4</ele>
        <time>2026-01-30T10:23:28Z</time>
      </trkpt>
      <trkpt lat="48.6915" lon="2.10704">
        <ele>90.4</ele>
        <time>2026-01-30T10:23:29Z</time>
      </trkpt>
      <trkpt lat="48.69148" lon="2.10709">
        <ele>90.4</ele>
        <time>2026-01-30T10:23:30Z</time>
      </trkpt>
      <trkpt lat="48.69147" lon="2.10713">
        <ele>91</ele>
        <time>2026-01-30T10:23:31Z</time>
      </trkpt>
      <trkpt lat="48.69145" lon="2.10718">
        <ele>91.6</ele>
        <time>2026-01-30T10:23:32Z</time>
      </trkpt>
      <trkpt lat="48.69143" lon="2.10723">
        <ele>91.6</ele>
        <time>2026-01-30T10:23:33Z</time>
      </trkpt>
      <trkpt lat="48.69141" lon="2.10728">
        <ele>91.6</ele>
        <time>2026-01-30T10:23:34Z</time>
      </trkpt>
      <trkpt lat="48.69139" lon="2.10734">
        <ele>91.6</ele>
        <time>2026-01-30T10:23:35Z</time>
      </trkpt>
      <trkpt lat="48.69137" lon="2.10739">
        <ele>92</ele>
        <time>2026-01-30T10:23:36Z</time>
      </trkpt>
      <trkpt lat="48.69134" lon="2.10744">
        <ele>92</ele>
        <time>2026-01-30T10:23:37Z</time>
      </trkpt>
      <trkpt lat="48.69131" lon="2.1075">
        <ele>92</ele>
        <time>2026-01-30T10:23:38Z</time>
      </trkpt>
      <trkpt lat="48.69129" lon="2.10755">
        <ele>92</ele>
        <time>2026-01-30T10:23:39Z</time>
      </trkpt>
      <trkpt lat="48.69127" lon="2.10759">
        <ele>92.6</ele>
        <time>2026-01-30T10:23:40Z</time>
      </trkpt>
      <trkpt lat="48.69124" lon="2.10763">
        <ele>92.6</ele>
        <time>2026-01-30T10:23:41Z</time>
      </trkpt>
      <trkpt lat="48.69121" lon="2.10768">
        <ele>92.6</ele>
        <time>2026-01-30T10:23:42Z</time>
      </trkpt>
      <trkpt lat="48.69118" lon="2.10772">
        <ele>92.6</ele>
        <time>2026-01-30T10:23:43Z</time>
      </trkpt>
      <trkpt lat="48.69116" lon="2.10775">
        <ele>93.4</ele>
        <time>2026-01-30T10:23:44Z</time>
      </trkpt>
      <trkpt lat="48.69113" lon="2.10779">
        <ele>93.4</ele>
        <time>2026-01-30T10:23:45Z</time>
      </trkpt>
      <trkpt lat="48.69111" lon="2.10783">
        <ele>93.4</ele>
        <time>2026-01-30T10:23:46Z</time>
      </trkpt>
      <trkpt lat="48.69108" lon="2.10787">
        <ele>93.4</ele>
        <time>2026-01-30T10:23:47Z</time>
      </trkpt>
      <trkpt lat="48.69106" lon="2.1079">
        <ele>94</ele>
        <time>2026-01-30T10:23:48Z</time>
      </trkpt>
      <trkpt lat="48.69103" lon="2.10794">
        <ele>94</ele>
        <time>2026-01-30T10:23:49Z</time>
      </trkpt>
      <trkpt lat="48.691" lon="2.10797">
        <ele>94</ele>
        <time>2026-01-30T10:23:50Z</time>
      </trkpt>
      <trkpt lat="48.69097" lon="2.10801">
        <ele>94</ele>
        <time>2026-01-30T10:23:51Z</time>
      </trkpt>
      <trkpt lat="48.69095" lon="2.10804">
        <ele>94</ele>
        <time>2026-01-30T10:23:52Z</time>
      </trkpt>
      <trkpt lat="48.69092" lon="2.10807">
        <ele>94</ele>
        <time>2026-01-30T10:23:53Z</time>
      </trkpt>
      <trkpt lat="48.69089" lon="2.10811">
        <ele>94</ele>
        <time>2026-01-30T10:23:54Z</time>
      </trkpt>
      <trkpt lat="48.69087" lon="2.10814">
        <ele>95</ele>
        <time>2026-01-30T10:23:55Z</time>
      </trkpt>
      <trkpt lat="48.69084" lon="2.10817">
        <ele>95</ele>
        <time>2026-01-30T10:23:56Z</time>
      </trkpt>
      <trkpt lat="48.69081" lon="2.1082">
        <ele>95</ele>
        <time>2026-01-30T10:23:57Z</time>
      </trkpt>
      <trkpt lat="48.69079" lon="2.10824">
        <ele>95</ele>
        <time>2026-01-30T10:23:58Z</time>
      </trkpt>
      <trkpt lat="48.69076" lon="2.10826">
        <ele>96</ele>
        <time>2026-01-30T10:23:59Z</time>
      </trkpt>
      <trkpt lat="48.69074" lon="2.10829">
        <ele>95.8</ele>
        <time>2026-01-30T10:24:00Z</time>
      </trkpt>
      <trkpt lat="48.69071" lon="2.10831">
        <ele>95.8</ele>
        <time>2026-01-30T10:24:01Z</time>
      </trkpt>
      <trkpt lat="48.69068" lon="2.10834">
        <ele>95.8</ele>
        <time>2026-01-30T10:24:02Z</time>
      </trkpt>
      <trkpt lat="48.69065" lon="2.10836">
        <ele>96.6</ele>
        <time>2026-01-30T10:24:03Z</time>
      </trkpt>
      <trkpt lat="48.69062" lon="2.10838">
        <ele>96.4</ele>
        <time>2026-01-30T10:24:04Z</time>
      </trkpt>
      <trkpt lat="48.69059" lon="2.1084">
        <ele>96.4</ele>
        <time>2026-01-30T10:24:05Z</time>
      </trkpt>
      <trkpt lat="48.69055" lon="2.10842">
        <ele>96.4</ele>
        <time>2026-01-30T10:24:06Z</time>
      </trkpt>
      <trkpt lat="48.69052" lon="2.10844">
        <ele>96.4</ele>
        <time>2026-01-30T10:24:07Z</time>
      </trkpt>
      <trkpt lat="48.69048" lon="2.10845">
        <ele>97</ele>
        <time>2026-01-30T10:24:08Z</time>
      </trkpt>
      <trkpt lat="48.69045" lon="2.10846">
        <ele>97</ele>
        <time>2026-01-30T10:24:09Z</time>
      </trkpt>
      <trkpt lat="48.69041" lon="2.10847">
        <ele>97</ele>
        <time>2026-01-30T10:24:10Z</time>
      </trkpt>
      <trkpt lat="48.69038" lon="2.10847">
        <ele>97</ele>
        <time>2026-01-30T10:24:11Z</time>
      </trkpt>
      <trkpt lat="48.69034" lon="2.10847">
        <ele>98</ele>
        <time>2026-01-30T10:24:12Z</time>
      </trkpt>
      <trkpt lat="48.69031" lon="2.10847">
        <ele>98</ele>
        <time>2026-01-30T10:24:13Z</time>
      </trkpt>
      <trkpt lat="48.69027" lon="2.10847">
        <ele>98</ele>
        <time>2026-01-30T10:24:14Z</time>
      </trkpt>
      <trkpt lat="48.69023" lon="2.10846">
        <ele>97.6</ele>
        <time>2026-01-30T10:24:15Z</time>
      </trkpt>
      <trkpt lat="48.6902" lon="2.10846">
        <ele>98</ele>
        <time>2026-01-30T10:24:16Z</time>
      </trkpt>
      <trkpt lat="48.69016" lon="2.10845">
        <ele>98</ele>
        <time>2026-01-30T10:24:17Z</time>
      </trkpt>
      <trkpt lat="48.69012" lon="2.10844">
        <ele>98</ele>
        <time>2026-01-30T10:24:18Z</time>
      </trkpt>
      <trkpt lat="48.69009" lon="2.10842">
        <ele>98</ele>
        <time>2026-01-30T10:24:19Z</time>
      </trkpt>
      <trkpt lat="48.69005" lon="2.10839">
        <ele>98</ele>
        <time>2026-01-30T10:24:20Z</time>
      </trkpt>
      <trkpt lat="48.69002" lon="2.10837">
        <ele>98</ele>
        <time>2026-01-30T10:24:21Z</time>
      </trkpt>
      <trkpt lat="48.68998" lon="2.10836">
        <ele>98</ele>
        <time>2026-01-30T10:24:22Z</time>
      </trkpt>
      <trkpt lat="48.68994" lon="2.10834">
        <ele>98</ele>
        <time>2026-01-30T10:24:23Z</time>
      </trkpt>
      <trkpt lat="48.6899" lon="2.10832">
        <ele>97.2</ele>
        <time>2026-01-30T10:24:24Z</time>
      </trkpt>
      <trkpt lat="48.68986" lon="2.1083">
        <ele>97.2</ele>
        <time>2026-01-30T10:24:25Z</time>
      </trkpt>
      <trkpt lat="48.68982" lon="2.10828">
        <ele>97.2</ele>
        <time>2026-01-30T10:24:26Z</time>
      </trkpt>
      <trkpt lat="48.68978" lon="2.10826">
        <ele>97.4</ele>
        <time>2026-01-30T10:24:27Z</time>
      </trkpt>
      <trkpt lat="48.68974" lon="2.10824">
        <ele>98.2</ele>
        <time>2026-01-30T10:24:28Z</time>
      </trkpt>
      <trkpt lat="48.6897" lon="2.10822">
        <ele>98.2</ele>
        <time>2026-01-30T10:24:29Z</time>
      </trkpt>
      <trkpt lat="48.68966" lon="2.10821">
        <ele>98.2</ele>
        <time>2026-01-30T10:24:30Z</time>
      </trkpt>
      <trkpt lat="48.68961" lon="2.10819">
        <ele>98.2</ele>
        <time>2026-01-30T10:24:31Z</time>
      </trkpt>
      <trkpt lat="48.68957" lon="2.10817">
        <ele>98.8</ele>
        <time>2026-01-30T10:24:32Z</time>
      </trkpt>
      <trkpt lat="48.68953" lon="2.10815">
        <ele>98.8</ele>
        <time>2026-01-30T10:24:33Z</time>
      </trkpt>
      <trkpt lat="48.68949" lon="2.10814">
        <ele>98.8</ele>
        <time>2026-01-30T10:24:34Z</time>
      </trkpt>
      <trkpt lat="48.68945" lon="2.10812">
        <ele>98.8</ele>
        <time>2026-01-30T10:24:35Z</time>
      </trkpt>
      <trkpt lat="48.6894" lon="2.10812">
        <ele>98.6</ele>
        <time>2026-01-30T10:24:36Z</time>
      </trkpt>
      <trkpt lat="48.68936" lon="2.10814">
        <ele>98.6</ele>
        <time>2026-01-30T10:24:37Z</time>
      </trkpt>
      <trkpt lat="48.68932" lon="2.10817">
        <ele>98.6</ele>
        <time>2026-01-30T10:24:38Z</time>
      </trkpt>
      <trkpt lat="48.68929" lon="2.10822">
        <ele>99.6</ele>
        <time>2026-01-30T10:24:39Z</time>
      </trkpt>
      <trkpt lat="48.68926" lon="2.10827">
        <ele>99.6</ele>
        <time>2026-01-30T10:24:40Z</time>
      </trkpt>
      <trkpt lat="48.68923" lon="2.10833">
        <ele>99.6</ele>
        <time>2026-01-30T10:24:41Z</time>
      </trkpt>
      <trkpt lat="48.6892" lon="2.10839">
        <ele>99.6</ele>
        <time>2026-01-30T10:24:42Z</time>
      </trkpt>
      <trkpt lat="48.68918" lon="2.10844">
        <ele>99.6</ele>
        <time>2026-01-30T10:24:43Z</time>
      </trkpt>
      <trkpt lat="48.68915" lon="2.1085">
        <ele>100</ele>
        <time>2026-01-30T10:24:44Z</time>
      </trkpt>
      <trkpt lat="48.68913" lon="2.10857">
        <ele>100</ele>
        <time>2026-01-30T10:24:45Z</time>
      </trkpt>
      <trkpt lat="48.6891" lon="2.10863">
        <ele>100</ele>
        <time>2026-01-30T10:24:46Z</time>
      </trkpt>
      <trkpt lat="48.68908" lon="2.1087">
        <ele>100</ele>
        <time>2026-01-30T10:24:47Z</time>
      </trkpt>
      <trkpt lat="48.68906" lon="2.10877">
        <ele>100</ele>
        <time>2026-01-30T10:24:48Z</time>
      </trkpt>
      <trkpt lat="48.68903" lon="2.10884">
        <ele>100</ele>
        <time>2026-01-30T10:24:49Z</time>
      </trkpt>
      <trkpt lat="48.689" lon="2.10891">
        <ele>100</ele>
        <time>2026-01-30T10:24:50Z</time>
      </trkpt>
      <trkpt lat="48.68897" lon="2.10898">
        <ele>100</ele>
        <time>2026-01-30T10:24:51Z</time>
      </trkpt>
      <trkpt lat="48.68894" lon="2.10906">
        <ele>99.6</ele>
        <time>2026-01-30T10:24:52Z</time>
      </trkpt>
      <trkpt lat="48.68891" lon="2.10913">
        <ele>99.6</ele>
        <time>2026-01-30T10:24:53Z</time>
      </trkpt>
      <trkpt lat="48.68888" lon="2.10921">
        <ele>99.6</ele>
        <time>2026-01-30T10:24:54Z</time>
      </trkpt>
      <trkpt lat="48.68886" lon="2.10929">
        <ele>99.6</ele>
        <time>2026-01-30T10:24:55Z</time>
      </trkpt>
      <trkpt lat="48.68883" lon="2.10938">
        <ele>99.2</ele>
        <time>2026-01-30T10:24:56Z</time>
      </trkpt>
      <trkpt lat="48.6888" lon="2.10946">
        <ele>99.2</ele>
        <time>2026-01-30T10:24:57Z</time>
      </trkpt>
      <trkpt lat="48.68878" lon="2.10955">
        <ele>99.2</ele>
        <time>2026-01-30T10:24:58Z</time>
      </trkpt>
      <trkpt lat="48.68875" lon="2.10963">
        <ele>99.2</ele>
        <time>2026-01-30T10:24:59Z</time>
      </trkpt>
      <trkpt lat="48.68873" lon="2.10972">
        <ele>99</ele>
        <time>2026-01-30T10:25:00Z</time>
      </trkpt>
      <trkpt lat="48.6887" lon="2.1098">
        <ele>99</ele>
        <time>2026-01-30T10:25:01Z</time>
      </trkpt>
      <trkpt lat="48.68866" lon="2.10988">
        <ele>99</ele>
        <time>2026-01-30T10:25:02Z</time>
      </trkpt>
      <trkpt lat="48.68863" lon="2.10996">
        <ele>98.4</ele>
        <time>2026-01-30T10:25:03Z</time>
      </trkpt>
      <trkpt lat="48.68859" lon="2.11004">
        <ele>99.6</ele>
        <time>2026-01-30T10:25:04Z</time>
      </trkpt>
      <trkpt lat="48.68856" lon="2.11012">
        <ele>99.6</ele>
        <time>2026-01-30T10:25:05Z</time>
      </trkpt>
      <trkpt lat="48.68852" lon="2.11019">
        <ele>99.6</ele>
        <time>2026-01-30T10:25:06Z</time>
      </trkpt>
      <trkpt lat="48.68848" lon="2.11026">
        <ele>98.6</ele>
        <time>2026-01-30T10:25:07Z</time>
      </trkpt>
      <trkpt lat="48.68844" lon="2.11033">
        <ele>98</ele>
        <time>2026-01-30T10:25:08Z</time>
      </trkpt>
      <trkpt lat="48.6884" lon="2.1104">
        <ele>98</ele>
        <time>2026-01-30T10:25:09Z</time>
      </trkpt>
      <trkpt lat="48.68835" lon="2.11047">
        <ele>98</ele>
        <time>2026-01-30T10:25:10Z</time>
      </trkpt>
      <trkpt lat="48.68831" lon="2.11054">
        <ele>98</ele>
        <time>2026-01-30T10:25:11Z</time>
      </trkpt>
      <trkpt lat="48.68827" lon="2.11062">
        <ele>98.4</ele>
        <time>2026-01-30T10:25:12Z</time>
      </trkpt>
      <trkpt lat="48.68822" lon="2.11069">
        <ele>98.4</ele>
        <time>2026-01-30T10:25:13Z</time>
      </trkpt>
      <trkpt lat="48.68819" lon="2.11076">
        <ele>98.4</ele>
        <time>2026-01-30T10:25:14Z</time>
      </trkpt>
      <trkpt lat="48.68815" lon="2.11082">
        <ele>99.4</ele>
        <time>2026-01-30T10:25:15Z</time>
      </trkpt>
      <trkpt lat="48.68811" lon="2.11089">
        <ele>99</ele>
        <time>2026-01-30T10:25:16Z</time>
      </trkpt>
      <trkpt lat="48.68807" lon="2.11095">
        <ele>99</ele>
        <time>2026-01-30T10:25:17Z</time>
      </trkpt>
      <trkpt lat="48.68804" lon="2.11101">
        <ele>99</ele>
        <time>2026-01-30T10:25:18Z</time>
      </trkpt>
      <trkpt lat="48.688" lon="2.11108">
        <ele>98.8</ele>
        <time>2026-01-30T10:25:19Z</time>
      </trkpt>
      <trkpt lat="48.68796" lon="2.11115">
        <ele>99</ele>
        <time>2026-01-30T10:25:20Z</time>
      </trkpt>
      <trkpt lat="48.68791" lon="2.11121">
        <ele>99</ele>
        <time>2026-01-30T10:25:21Z</time>
      </trkpt>
      <trkpt lat="48.68787" lon="2.11127">
        <ele>99</ele>
        <time>2026-01-30T10:25:22Z</time>
      </trkpt>
      <trkpt lat="48.68783" lon="2.11133">
        <ele>99</ele>
        <time>2026-01-30T10:25:23Z</time>
      </trkpt>
      <trkpt lat="48.68779" lon="2.11139">
        <ele>99.2</ele>
        <time>2026-01-30T10:25:24Z</time>
      </trkpt>
      <trkpt lat="48.68775" lon="2.11145">
        <ele>99.2</ele>
        <time>2026-01-30T10:25:25Z</time>
      </trkpt>
      <trkpt lat="48.6877" lon="2.1115">
        <ele>99.2</ele>
        <time>2026-01-30T10:25:26Z</time>
      </trkpt>
      <trkpt lat="48.68766" lon="2.11155">
        <ele>99.2</ele>
        <time>2026-01-30T10:25:27Z</time>
      </trkpt>
      <trkpt lat="48.68762" lon="2.1116">
        <ele>99.6</ele>
        <time>2026-01-30T10:25:28Z</time>
      </trkpt>
      <trkpt lat="48.68757" lon="2.11165">
        <ele>99.6</ele>
        <time>2026-01-30T10:25:29Z</time>
      </trkpt>
      <trkpt lat="48.68752" lon="2.11168">
        <ele>99.6</ele>
        <time>2026-01-30T10:25:30Z</time>
      </trkpt>
      <trkpt lat="48.68747" lon="2.1117">
        <ele>99.6</ele>
        <time>2026-01-30T10:25:31Z</time>
      </trkpt>
      <trkpt lat="48.68741" lon="2.11173">
        <ele>100.4</ele>
        <time>2026-01-30T10:25:32Z</time>
      </trkpt>
      <trkpt lat="48.68737" lon="2.11178">
        <ele>100.4</ele>
        <time>2026-01-30T10:25:33Z</time>
      </trkpt>
      <trkpt lat="48.68733" lon="2.11184">
        <ele>100.4</ele>
        <time>2026-01-30T10:25:34Z</time>
      </trkpt>
      <trkpt lat="48.68729" lon="2.1119">
        <ele>99.6</ele>
        <time>2026-01-30T10:25:35Z</time>
      </trkpt>
      <trkpt lat="48.68725" lon="2.11193">
        <ele>99.8</ele>
        <time>2026-01-30T10:25:36Z</time>
      </trkpt>
      <trkpt lat="48.6872" lon="2.11197">
        <ele>99.8</ele>
        <time>2026-01-30T10:25:37Z</time>
      </trkpt>
      <trkpt lat="48.68715" lon="2.112">
        <ele>99.8</ele>
        <time>2026-01-30T10:25:38Z</time>
      </trkpt>
      <trkpt lat="48.6871" lon="2.11204">
        <ele>99.6</ele>
        <time>2026-01-30T10:25:39Z</time>
      </trkpt>
      <trkpt lat="48.68705" lon="2.11208">
        <ele>99.4</ele>
        <time>2026-01-30T10:25:40Z</time>
      </trkpt>
      <trkpt lat="48.687" lon="2.11211">
        <ele>99.4</ele>
        <time>2026-01-30T10:25:41Z</time>
      </trkpt>
      <trkpt lat="48.68695" lon="2.11214">
        <ele>99.4</ele>
        <time>2026-01-30T10:25:42Z</time>
      </trkpt>
      <trkpt lat="48.6869" lon="2.11218">
        <ele>100.2</ele>
        <time>2026-01-30T10:25:43Z</time>
      </trkpt>
      <trkpt lat="48.68685" lon="2.11221">
        <ele>100.4</ele>
        <time>2026-01-30T10:25:44Z</time>
      </trkpt>
      <trkpt lat="48.6868" lon="2.11225">
        <ele>100.4</ele>
        <time>2026-01-30T10:25:45Z</time>
      </trkpt>
      <trkpt lat="48.68675" lon="2.11229">
        <ele>100.4</ele>
        <time>2026-01-30T10:25:46Z</time>
      </trkpt>
      <trkpt lat="48.6867" lon="2.11232">
        <ele>100.8</ele>
        <time>2026-01-30T10:25:47Z</time>
      </trkpt>
      <trkpt lat="48.68665" lon="2.11236">
        <ele>101</ele>
        <time>2026-01-30T10:25:48Z</time>
      </trkpt>
      <trkpt lat="48.68659" lon="2.11239">
        <ele>101</ele>
        <time>2026-01-30T10:25:49Z</time>
      </trkpt>
      <trkpt lat="48.68654" lon="2.11242">
        <ele>101</ele>
        <time>2026-01-30T10:25:50Z</time>
      </trkpt>
      <trkpt lat="48.68649" lon="2.11244">
        <ele>101</ele>
        <time>2026-01-30T10:25:51Z</time>
      </trkpt>
      <trkpt lat="48.68644" lon="2.11245">
        <ele>101.6</ele>
        <time>2026-01-30T10:25:52Z</time>
      </trkpt>
      <trkpt lat="48.68639" lon="2.11244">
        <ele>101.6</ele>
        <time>2026-01-30T10:25:53Z</time>
      </trkpt>
      <trkpt lat="48.68634" lon="2.11243">
        <ele>101.6</ele>
        <time>2026-01-30T10:25:54Z</time>
      </trkpt>
      <trkpt lat="48.68629" lon="2.11241">
        <ele>102.2</ele>
        <time>2026-01-30T10:25:55Z</time>
      </trkpt>
      <trkpt lat="48.68624" lon="2.11238">
        <ele>102.2</ele>
        <time>2026-01-30T10:25:56Z</time>
      </trkpt>
      <trkpt lat="48.68619" lon="2.11233">
        <ele>102.2</ele>
        <time>2026-01-30T10:25:57Z</time>
      </trkpt>
      <trkpt lat="48.68617" lon="2.11226">
        <ele>102.2</ele>
        <time>2026-01-30T10:25:58Z</time>
      </trkpt>
      <trkpt lat="48.68614" lon="2.11219">
        <ele>101.2</ele>
        <time>2026-01-30T10:25:59Z</time>
      </trkpt>
      <trkpt lat="48.68611" lon="2.11211">
        <ele>101.4</ele>
        <time>2026-01-30T10:26:00Z</time>
      </trkpt>
      <trkpt lat="48.68609" lon="2.11204">
        <ele>101.4</ele>
        <time>2026-01-30T10:26:01Z</time>
      </trkpt>
      <trkpt lat="48.68606" lon="2.11197">
        <ele>101.4</ele>
        <time>2026-01-30T10:26:02Z</time>
      </trkpt>
      <trkpt lat="48.68604" lon="2.11189">
        <ele>101.4</ele>
        <time>2026-01-30T10:26:03Z</time>
      </trkpt>
      <trkpt lat="48.68602" lon="2.11182">
        <ele>101.6</ele>
        <time>2026-01-30T10:26:04Z</time>
      </trkpt>
      <trkpt lat="48.686" lon="2.11175">
        <ele>101.6</ele>
        <time>2026-01-30T10:26:05Z</time>
      </trkpt>
      <trkpt lat="48.68597" lon="2.11167">
        <ele>101.6</ele>
        <time>2026-01-30T10:26:06Z</time>
      </trkpt>
      <trkpt lat="48.68595" lon="2.11159">
        <ele>101.6</ele>
        <time>2026-01-30T10:26:07Z</time>
      </trkpt>
      <trkpt lat="48.68593" lon="2.11152">
        <ele>102</ele>
        <time>2026-01-30T10:26:08Z</time>
      </trkpt>
      <trkpt lat="48.68591" lon="2.11144">
        <ele>102</ele>
        <time>2026-01-30T10:26:09Z</time>
      </trkpt>
      <trkpt lat="48.68589" lon="2.11136">
        <ele>102</ele>
        <time>2026-01-30T10:26:10Z</time>
      </trkpt>
      <trkpt lat="48.68587" lon="2.11128">
        <ele>102</ele>
        <time>2026-01-30T10:26:11Z</time>
      </trkpt>
      <trkpt lat="48.68585" lon="2.11121">
        <ele>101.8</ele>
        <time>2026-01-30T10:26:12Z</time>
      </trkpt>
      <trkpt lat="48.68583" lon="2.11112">
        <ele>101.8</ele>
        <time>2026-01-30T10:26:13Z</time>
      </trkpt>
      <trkpt lat="48.68581" lon="2.11104">
        <ele>101.8</ele>
        <time>2026-01-30T10:26:14Z</time>
      </trkpt>
      <trkpt lat="48.68579" lon="2.11096">
        <ele>101.8</ele>
        <time>2026-01-30T10:26:15Z</time>
      </trkpt>
      <trkpt lat="48.68577" lon="2.11088">
        <ele>101.4</ele>
        <time>2026-01-30T10:26:16Z</time>
      </trkpt>
      <trkpt lat="48.68575" lon="2.11079">
        <ele>101.4</ele>
        <time>2026-01-30T10:26:17Z</time>
      </trkpt>
      <trkpt lat="48.68573" lon="2.11071">
        <ele>101.4</ele>
        <time>2026-01-30T10:26:18Z</time>
      </trkpt>
      <trkpt lat="48.68571" lon="2.11062">
        <ele>101.4</ele>
        <time>2026-01-30T10:26:19Z</time>
      </trkpt>
      <trkpt lat="48.6857" lon="2.11054">
        <ele>101.4</ele>
        <time>2026-01-30T10:26:20Z</time>
      </trkpt>
      <trkpt lat="48.68567" lon="2.11045">
        <ele>101.4</ele>
        <time>2026-01-30T10:26:21Z</time>
      </trkpt>
      <trkpt lat="48.68565" lon="2.11036">
        <ele>101.4</ele>
        <time>2026-01-30T10:26:22Z</time>
      </trkpt>
      <trkpt lat="48.68563" lon="2.11027">
        <ele>101.4</ele>
        <time>2026-01-30T10:26:23Z</time>
      </trkpt>
      <trkpt lat="48.68561" lon="2.11018">
        <ele>100.8</ele>
        <time>2026-01-30T10:26:24Z</time>
      </trkpt>
      <trkpt lat="48.6856" lon="2.11009">
        <ele>100.8</ele>
        <time>2026-01-30T10:26:25Z</time>
      </trkpt>
      <trkpt lat="48.68558" lon="2.11001">
        <ele>100.8</ele>
        <time>2026-01-30T10:26:26Z</time>
      </trkpt>
      <trkpt lat="48.68556" lon="2.10992">
        <ele>100.8</ele>
        <time>2026-01-30T10:26:27Z</time>
      </trkpt>
      <trkpt lat="48.68555" lon="2.10984">
        <ele>101.2</ele>
        <time>2026-01-30T10:26:28Z</time>
      </trkpt>
      <trkpt lat="48.68553" lon="2.10975">
        <ele>101.2</ele>
        <time>2026-01-30T10:26:29Z</time>
      </trkpt>
      <trkpt lat="48.68551" lon="2.10966">
        <ele>101.2</ele>
        <time>2026-01-30T10:26:30Z</time>
      </trkpt>
      <trkpt lat="48.6855" lon="2.10956">
        <ele>101.2</ele>
        <time>2026-01-30T10:26:31Z</time>
      </trkpt>
      <trkpt lat="48.68548" lon="2.10946">
        <ele>99.8</ele>
        <time>2026-01-30T10:26:32Z</time>
      </trkpt>
      <trkpt lat="48.68547" lon="2.10936">
        <ele>99.8</ele>
        <time>2026-01-30T10:26:33Z</time>
      </trkpt>
      <trkpt lat="48.68546" lon="2.10925">
        <ele>99.8</ele>
        <time>2026-01-30T10:26:34Z</time>
      </trkpt>
      <trkpt lat="48.68545" lon="2.10915">
        <ele>99.8</ele>
        <time>2026-01-30T10:26:35Z</time>
      </trkpt>
      <trkpt lat="48.68543" lon="2.10906">
        <ele>100.6</ele>
        <time>2026-01-30T10:26:36Z</time>
      </trkpt>
      <trkpt lat="48.68542" lon="2.10896">
        <ele>100.6</ele>
        <time>2026-01-30T10:26:37Z</time>
      </trkpt>
      <trkpt lat="48.68541" lon="2.10886">
        <ele>100.6</ele>
        <time>2026-01-30T10:26:38Z</time>
      </trkpt>
      <trkpt lat="48.6854" lon="2.10878">
        <ele>100.8</ele>
        <time>2026-01-30T10:26:39Z</time>
      </trkpt>
      <trkpt lat="48.68538" lon="2.1087">
        <ele>100.8</ele>
        <time>2026-01-30T10:26:40Z</time>
      </trkpt>
      <trkpt lat="48.68537" lon="2.10862">
        <ele>100.8</ele>
        <time>2026-01-30T10:26:41Z</time>
      </trkpt>
      <trkpt lat="48.68535" lon="2.10853">
        <ele>100.8</ele>
        <time>2026-01-30T10:26:42Z</time>
      </trkpt>
      <trkpt lat="48.68533" lon="2.10845">
        <ele>100.8</ele>
        <time>2026-01-30T10:26:43Z</time>
      </trkpt>
      <trkpt lat="48.68531" lon="2.10836">
        <ele>100.6</ele>
        <time>2026-01-30T10:26:44Z</time>
      </trkpt>
      <trkpt lat="48.68529" lon="2.1083">
        <ele>100.6</ele>
        <time>2026-01-30T10:26:45Z</time>
      </trkpt>
      <trkpt lat="48.68527" lon="2.10822">
        <ele>100.6</ele>
        <time>2026-01-30T10:26:46Z</time>
      </trkpt>
      <trkpt lat="48.68525" lon="2.10814">
        <ele>100.6</ele>
        <time>2026-01-30T10:26:47Z</time>
      </trkpt>
      <trkpt lat="48.68523" lon="2.10808">
        <ele>101.2</ele>
        <time>2026-01-30T10:26:48Z</time>
      </trkpt>
      <trkpt lat="48.6852" lon="2.10799">
        <ele>101.2</ele>
        <time>2026-01-30T10:26:49Z</time>
      </trkpt>
      <trkpt lat="48.68517" lon="2.10791">
        <ele>101.2</ele>
        <time>2026-01-30T10:26:50Z</time>
      </trkpt>
      <trkpt lat="48.68514" lon="2.10782">
        <ele>101.2</ele>
        <time>2026-01-30T10:26:51Z</time>
      </trkpt>
      <trkpt lat="48.68511" lon="2.10773">
        <ele>101.6</ele>
        <time>2026-01-30T10:26:52Z</time>
      </trkpt>
      <trkpt lat="48.68507" lon="2.10765">
        <ele>101.6</ele>
        <time>2026-01-30T10:26:53Z</time>
      </trkpt>
      <trkpt lat="48.68504" lon="2.10757">
        <ele>101.6</ele>
        <time>2026-01-30T10:26:54Z</time>
      </trkpt>
      <trkpt lat="48.68501" lon="2.10749">
        <ele>101.2</ele>
        <time>2026-01-30T10:26:55Z</time>
      </trkpt>
      <trkpt lat="48.68498" lon="2.10741">
        <ele>101.6</ele>
        <time>2026-01-30T10:26:56Z</time>
      </trkpt>
      <trkpt lat="48.68494" lon="2.10733">
        <ele>101.6</ele>
        <time>2026-01-30T10:26:57Z</time>
      </trkpt>
      <trkpt lat="48.68491" lon="2.10726">
        <ele>101.6</ele>
        <time>2026-01-30T10:26:58Z</time>
      </trkpt>
      <trkpt lat="48.68487" lon="2.10718">
        <ele>100.8</ele>
        <time>2026-01-30T10:26:59Z</time>
      </trkpt>
      <trkpt lat="48.68483" lon="2.10711">
        <ele>101.4</ele>
        <time>2026-01-30T10:27:00Z</time>
      </trkpt>
      <trkpt lat="48.68479" lon="2.10703">
        <ele>101.4</ele>
        <time>2026-01-30T10:27:01Z</time>
      </trkpt>
      <trkpt lat="48.68474" lon="2.10695">
        <ele>101.4</ele>
        <time>2026-01-30T10:27:02Z</time>
      </trkpt>
      <trkpt lat="48.68469" lon="2.10687">
        <ele>101.4</ele>
        <time>2026-01-30T10:27:03Z</time>
      </trkpt>
      <trkpt lat="48.68465" lon="2.1068">
        <ele>101.4</ele>
        <time>2026-01-30T10:27:04Z</time>
      </trkpt>
      <trkpt lat="48.6846" lon="2.10673">
        <ele>101.4</ele>
        <time>2026-01-30T10:27:05Z</time>
      </trkpt>
      <trkpt lat="48.68455" lon="2.10665">
        <ele>101.4</ele>
        <time>2026-01-30T10:27:06Z</time>
      </trkpt>
      <trkpt lat="48.6845" lon="2.10658">
        <ele>102</ele>
        <time>2026-01-30T10:27:07Z</time>
      </trkpt>
      <trkpt lat="48.68445" lon="2.10651">
        <ele>102</ele>
        <time>2026-01-30T10:27:08Z</time>
      </trkpt>
      <trkpt lat="48.68441" lon="2.10644">
        <ele>102</ele>
        <time>2026-01-30T10:27:09Z</time>
      </trkpt>
      <trkpt lat="48.68436" lon="2.10639">
        <ele>102</ele>
        <time>2026-01-30T10:27:10Z</time>
      </trkpt>
      <trkpt lat="48.68432" lon="2.10633">
        <ele>102.2</ele>
        <time>2026-01-30T10:27:11Z</time>
      </trkpt>
      <trkpt lat="48.68427" lon="2.10627">
        <ele>102.2</ele>
        <time>2026-01-30T10:27:12Z</time>
      </trkpt>
      <trkpt lat="48.68422" lon="2.10621">
        <ele>102.2</ele>
        <time>2026-01-30T10:27:13Z</time>
      </trkpt>
      <trkpt lat="48.68417" lon="2.10616">
        <ele>102.2</ele>
        <time>2026-01-30T10:27:14Z</time>
      </trkpt>
      <trkpt lat="48.68411" lon="2.1061">
        <ele>102.2</ele>
        <time>2026-01-30T10:27:15Z</time>
      </trkpt>
      <trkpt lat="48.68407" lon="2.10604">
        <ele>103.6</ele>
        <time>2026-01-30T10:27:16Z</time>
      </trkpt>
      <trkpt lat="48.68402" lon="2.106">
        <ele>103.6</ele>
        <time>2026-01-30T10:27:17Z</time>
      </trkpt>
      <trkpt lat="48.68397" lon="2.10595">
        <ele>103.6</ele>
        <time>2026-01-30T10:27:18Z</time>
      </trkpt>
      <trkpt lat="48.68392" lon="2.10591">
        <ele>103.6</ele>
        <time>2026-01-30T10:27:19Z</time>
      </trkpt>
      <trkpt lat="48.68387" lon="2.10587">
        <ele>103.8</ele>
        <time>2026-01-30T10:27:20Z</time>
      </trkpt>
      <trkpt lat="48.68382" lon="2.10584">
        <ele>103.8</ele>
        <time>2026-01-30T10:27:21Z</time>
      </trkpt>
      <trkpt lat="48.68377" lon="2.1058">
        <ele>103.8</ele>
        <time>2026-01-30T10:27:22Z</time>
      </trkpt>
      <trkpt lat="48.68371" lon="2.10577">
        <ele>104.4</ele>
        <time>2026-01-30T10:27:23Z</time>
      </trkpt>
      <trkpt lat="48.68367" lon="2.10574">
        <ele>104.4</ele>
        <time>2026-01-30T10:27:24Z</time>
      </trkpt>
      <trkpt lat="48.68361" lon="2.10571">
        <ele>104.4</ele>
        <time>2026-01-30T10:27:25Z</time>
      </trkpt>
      <trkpt lat="48.68356" lon="2.1057">
        <ele>104.4</ele>
        <time>2026-01-30T10:27:26Z</time>
      </trkpt>
      <trkpt lat="48.6835" lon="2.10567">
        <ele>104.2</ele>
        <time>2026-01-30T10:27:27Z</time>
      </trkpt>
      <trkpt lat="48.68346" lon="2.10565">
        <ele>104.4</ele>
        <time>2026-01-30T10:27:28Z</time>
      </trkpt>
      <trkpt lat="48.68341" lon="2.10562">
        <ele>104.4</ele>
        <time>2026-01-30T10:27:29Z</time>
      </trkpt>
      <trkpt lat="48.68335" lon="2.1056">
        <ele>104.4</ele>
        <time>2026-01-30T10:27:30Z</time>
      </trkpt>
      <trkpt lat="48.6833" lon="2.10558">
        <ele>104.4</ele>
        <time>2026-01-30T10:27:31Z</time>
      </trkpt>
      <trkpt lat="48.68324" lon="2.10556">
        <ele>105.4</ele>
        <time>2026-01-30T10:27:32Z</time>
      </trkpt>
      <trkpt lat="48.6832" lon="2.10554">
        <ele>105.4</ele>
        <time>2026-01-30T10:27:33Z</time>
      </trkpt>
      <trkpt lat="48.68315" lon="2.10552">
        <ele>105.4</ele>
        <time>2026-01-30T10:27:34Z</time>
      </trkpt>
      <trkpt lat="48.68309" lon="2.1055">
        <ele>104.8</ele>
        <time>2026-01-30T10:27:35Z</time>
      </trkpt>
      <trkpt lat="48.68304" lon="2.10547">
        <ele>105</ele>
        <time>2026-01-30T10:27:36Z</time>
      </trkpt>
      <trkpt lat="48.68299" lon="2.10547">
        <ele>105</ele>
        <time>2026-01-30T10:27:37Z</time>
      </trkpt>
      <trkpt lat="48.68295" lon="2.10545">
        <ele>105</ele>
        <time>2026-01-30T10:27:38Z</time>
      </trkpt>
      <trkpt lat="48.6829" lon="2.10544">
        <ele>105</ele>
        <time>2026-01-30T10:27:39Z</time>
      </trkpt>
      <trkpt lat="48.68285" lon="2.10543">
        <ele>105.8</ele>
        <time>2026-01-30T10:27:40Z</time>
      </trkpt>
      <trkpt lat="48.6828" lon="2.10541">
        <ele>105.8</ele>
        <time>2026-01-30T10:27:41Z</time>
      </trkpt>
      <trkpt lat="48.68274" lon="2.10539">
        <ele>105.8</ele>
        <time>2026-01-30T10:27:42Z</time>
      </trkpt>
      <trkpt lat="48.6827" lon="2.10538">
        <ele>106</ele>
        <time>2026-01-30T10:27:43Z</time>
      </trkpt>
      <trkpt lat="48.68265" lon="2.10535">
        <ele>106.4</ele>
        <time>2026-01-30T10:27:44Z</time>
      </trkpt>
      <trkpt lat="48.6826" lon="2.10534">
        <ele>106.4</ele>
        <time>2026-01-30T10:27:45Z</time>
      </trkpt>
      <trkpt lat="48.68255" lon="2.10533">
        <ele>106.4</ele>
        <time>2026-01-30T10:27:46Z</time>
      </trkpt>
      <trkpt lat="48.68248" lon="2.10532">
        <ele>106.4</ele>
        <time>2026-01-30T10:27:47Z</time>
      </trkpt>
      <trkpt lat="48.68243" lon="2.10531">
        <ele>106.2</ele>
        <time>2026-01-30T10:27:48Z</time>
      </trkpt>
      <trkpt lat="48.68237" lon="2.1053">
        <ele>106.2</ele>
        <time>2026-01-30T10:27:49Z</time>
      </trkpt>
      <trkpt lat="48.68231" lon="2.1053">
        <ele>106.2</ele>
        <time>2026-01-30T10:27:50Z</time>
      </trkpt>
      <trkpt lat="48.68225" lon="2.1053">
        <ele>106.8</ele>
        <time>2026-01-30T10:27:51Z</time>
      </trkpt>
      <trkpt lat="48.68218" lon="2.10531">
        <ele>107.2</ele>
        <time>2026-01-30T10:27:52Z</time>
      </trkpt>
      <trkpt lat="48.68212" lon="2.10531">
        <ele>107.2</ele>
        <time>2026-01-30T10:27:53Z</time>
      </trkpt>
      <trkpt lat="48.68207" lon="2.1053">
        <ele>107.2</ele>
        <time>2026-01-30T10:27:54Z</time>
      </trkpt>
      <trkpt lat="48.68201" lon="2.1053">
        <ele>107.2</ele>
        <time>2026-01-30T10:27:55Z</time>
      </trkpt>
      <trkpt lat="48.68196" lon="2.10531">
        <ele>107.4</ele>
        <time>2026-01-30T10:27:56Z</time>
      </trkpt>
      <trkpt lat="48.6819" lon="2.10531">
        <ele>107.4</ele>
        <time>2026-01-30T10:27:57Z</time>
      </trkpt>
      <trkpt lat="48.68185" lon="2.10531">
        <ele>107.4</ele>
        <time>2026-01-30T10:27:58Z</time>
      </trkpt>
      <trkpt lat="48.68179" lon="2.10531">
        <ele>108.2</ele>
        <time>2026-01-30T10:27:59Z</time>
      </trkpt>
      <trkpt lat="48.68174" lon="2.10531">
        <ele>108</ele>
        <time>2026-01-30T10:28:00Z</time>
      </trkpt>
      <trkpt lat="48.68169" lon="2.1053">
        <ele>108</ele>
        <time>2026-01-30T10:28:01Z</time>
      </trkpt>
      <trkpt lat="48.68163" lon="2.1053">
        <ele>108</ele>
        <time>2026-01-30T10:28:02Z</time>
      </trkpt>
      <trkpt lat="48.68159" lon="2.10529">
        <ele>108.4</ele>
        <time>2026-01-30T10:28:03Z</time>
      </trkpt>
      <trkpt lat="48.68153" lon="2.10529">
        <ele>108.6</ele>
        <time>2026-01-30T10:28:04Z</time>
      </trkpt>
      <trkpt lat="48.68147" lon="2.10531">
        <ele>108.6</ele>
        <time>2026-01-30T10:28:05Z</time>
      </trkpt>
      <trkpt lat="48.68141" lon="2.10531">
        <ele>108.6</ele>
        <time>2026-01-30T10:28:06Z</time>
      </trkpt>
      <trkpt lat="48.68136" lon="2.10531">
        <ele>108.6</ele>
        <time>2026-01-30T10:28:07Z</time>
      </trkpt>
      <trkpt lat="48.6813" lon="2.10532">
        <ele>109.6</ele>
        <time>2026-01-30T10:28:08Z</time>
      </trkpt>
      <trkpt lat="48.68125" lon="2.10532">
        <ele>109.6</ele>
        <time>2026-01-30T10:28:09Z</time>
      </trkpt>
      <trkpt lat="48.6812" lon="2.10533">
        <ele>109.6</ele>
        <time>2026-01-30T10:28:10Z</time>
      </trkpt>
      <trkpt lat="48.68114" lon="2.10535">
        <ele>109.8</ele>
        <time>2026-01-30T10:28:11Z</time>
      </trkpt>
      <trkpt lat="48.68109" lon="2.10537">
        <ele>110</ele>
        <time>2026-01-30T10:28:12Z</time>
      </trkpt>
      <trkpt lat="48.68104" lon="2.10541">
        <ele>110</ele>
        <time>2026-01-30T10:28:13Z</time>
      </trkpt>
      <trkpt lat="48.68098" lon="2.10543">
        <ele>110</ele>
        <time>2026-01-30T10:28:14Z</time>
      </trkpt>
      <trkpt lat="48.68093" lon="2.10546">
        <ele>110</ele>
        <time>2026-01-30T10:28:15Z</time>
      </trkpt>
      <trkpt lat="48.68088" lon="2.10549">
        <ele>110</ele>
        <time>2026-01-30T10:28:16Z</time>
      </trkpt>
      <trkpt lat="48.68083" lon="2.10552">
        <ele>110</ele>
        <time>2026-01-30T10:28:17Z</time>
      </trkpt>
      <trkpt lat="48.68078" lon="2.10555">
        <ele>110</ele>
        <time>2026-01-30T10:28:18Z</time>
      </trkpt>
      <trkpt lat="48.68073" lon="2.10557">
        <ele>109.8</ele>
        <time>2026-01-30T10:28:19Z</time>
      </trkpt>
      <trkpt lat="48.68068" lon="2.10559">
        <ele>109.8</ele>
        <time>2026-01-30T10:28:20Z</time>
      </trkpt>
      <trkpt lat="48.68063" lon="2.1056">
        <ele>109.8</ele>
        <time>2026-01-30T10:28:21Z</time>
      </trkpt>
      <trkpt lat="48.68059" lon="2.10562">
        <ele>109.8</ele>
        <time>2026-01-30T10:28:22Z</time>
      </trkpt>
      <trkpt lat="48.68054" lon="2.10563">
        <ele>110.4</ele>
        <time>2026-01-30T10:28:23Z</time>
      </trkpt>
      <trkpt lat="48.6805" lon="2.10565">
        <ele>110.6</ele>
        <time>2026-01-30T10:28:24Z</time>
      </trkpt>
      <trkpt lat="48.68045" lon="2.10566">
        <ele>110.6</ele>
        <time>2026-01-30T10:28:25Z</time>
      </trkpt>
      <trkpt lat="48.68041" lon="2.10566">
        <ele>110.6</ele>
        <time>2026-01-30T10:28:26Z</time>
      </trkpt>
      <trkpt lat="48.68037" lon="2.10567">
        <ele>110.6</ele>
        <time>2026-01-30T10:28:27Z</time>
      </trkpt>
      <trkpt lat="48.68032" lon="2.10569">
        <ele>111</ele>
        <time>2026-01-30T10:28:28Z</time>
      </trkpt>
      <trkpt lat="48.68027" lon="2.10571">
        <ele>111</ele>
        <time>2026-01-30T10:28:29Z</time>
      </trkpt>
      <trkpt lat="48.68023" lon="2.10572">
        <ele>111</ele>
        <time>2026-01-30T10:28:30Z</time>
      </trkpt>
      <trkpt lat="48.68018" lon="2.10574">
        <ele>111</ele>
        <time>2026-01-30T10:28:31Z</time>
      </trkpt>
      <trkpt lat="48.68013" lon="2.10575">
        <ele>111.2</ele>
        <time>2026-01-30T10:28:32Z</time>
      </trkpt>
      <trkpt lat="48.68008" lon="2.10577">
        <ele>111.2</ele>
        <time>2026-01-30T10:28:33Z</time>
      </trkpt>
      <trkpt lat="48.68003" lon="2.10579">
        <ele>111.2</ele>
        <time>2026-01-30T10:28:34Z</time>
      </trkpt>
      <trkpt lat="48.67998" lon="2.10582">
        <ele>111.2</ele>
        <time>2026-01-30T10:28:35Z</time>
      </trkpt>
      <trkpt lat="48.67993" lon="2.10585">
        <ele>111.8</ele>
        <time>2026-01-30T10:28:36Z</time>
      </trkpt>
      <trkpt lat="48.67987" lon="2.10588">
        <ele>111.8</ele>
        <time>2026-01-30T10:28:37Z</time>
      </trkpt>
      <trkpt lat="48.67982" lon="2.1059">
        <ele>111.8</ele>
        <time>2026-01-30T10:28:38Z</time>
      </trkpt>
      <trkpt lat="48.67977" lon="2.10593">
        <ele>111.8</ele>
        <time>2026-01-30T10:28:39Z</time>
      </trkpt>
      <trkpt lat="48.67973" lon="2.10595">
        <ele>112.2</ele>
        <time>2026-01-30T10:28:40Z</time>
      </trkpt>
      <trkpt lat="48.67968" lon="2.10596">
        <ele>112.2</ele>
        <time>2026-01-30T10:28:41Z</time>
      </trkpt>
      <trkpt lat="48.67965" lon="2.10597">
        <ele>112.2</ele>
        <time>2026-01-30T10:28:42Z</time>
      </trkpt>
      <trkpt lat="48.67961" lon="2.10598">
        <ele>113</ele>
        <time>2026-01-30T10:28:43Z</time>
      </trkpt>
      <trkpt lat="48.67957" lon="2.10599">
        <ele>112.6</ele>
        <time>2026-01-30T10:28:44Z</time>
      </trkpt>
      <trkpt lat="48.67952" lon="2.10601">
        <ele>112.6</ele>
        <time>2026-01-30T10:28:45Z</time>
      </trkpt>
      <trkpt lat="48.67947" lon="2.10603">
        <ele>112.6</ele>
        <time>2026-01-30T10:28:46Z</time>
      </trkpt>
      <trkpt lat="48.67942" lon="2.10606">
        <ele>112.6</ele>
        <time>2026-01-30T10:28:47Z</time>
      </trkpt>
      <trkpt lat="48.67937" lon="2.1061">
        <ele>113</ele>
        <time>2026-01-30T10:28:48Z</time>
      </trkpt>
      <trkpt lat="48.67932" lon="2.10614">
        <ele>113</ele>
        <time>2026-01-30T10:28:49Z</time>
      </trkpt>
      <trkpt lat="48.67927" lon="2.10618">
        <ele>113</ele>
        <time>2026-01-30T10:28:50Z</time>
      </trkpt>
      <trkpt lat="48.67923" lon="2.10622">
        <ele>113</ele>
        <time>2026-01-30T10:28:51Z</time>
      </trkpt>
      <trkpt lat="48.67918" lon="2.10626">
        <ele>112.8</ele>
        <time>2026-01-30T10:28:52Z</time>
      </trkpt>
      <trkpt lat="48.67913" lon="2.10632">
        <ele>112.8</ele>
        <time>2026-01-30T10:28:53Z</time>
      </trkpt>
      <trkpt lat="48.67908" lon="2.10637">
        <ele>112.8</ele>
        <time>2026-01-30T10:28:54Z</time>
      </trkpt>
      <trkpt lat="48.67904" lon="2.10642">
        <ele>112.8</ele>
        <time>2026-01-30T10:28:55Z</time>
      </trkpt>
      <trkpt lat="48.67899" lon="2.10647">
        <ele>113.2</ele>
        <time>2026-01-30T10:28:56Z</time>
      </trkpt>
      <trkpt lat="48.67894" lon="2.10651">
        <ele>113.2</ele>
        <time>2026-01-30T10:28:57Z</time>
      </trkpt>
      <trkpt lat="48.67891" lon="2.10654">
        <ele>113.2</ele>
        <time>2026-01-30T10:28:58Z</time>
      </trkpt>
      <trkpt lat="48.67886" lon="2.10658">
        <ele>113</ele>
        <time>2026-01-30T10:28:59Z</time>
      </trkpt>
      <trkpt lat="48.67883" lon="2.10662">
        <ele>113</ele>
        <time>2026-01-30T10:29:00Z</time>
      </trkpt>
      <trkpt lat="48.67879" lon="2.10667">
        <ele>113</ele>
        <time>2026-01-30T10:29:01Z</time>
      </trkpt>
      <trkpt lat="48.67875" lon="2.10672">
        <ele>113</ele>
        <time>2026-01-30T10:29:02Z</time>
      </trkpt>
      <trkpt lat="48.6787" lon="2.10675">
        <ele>113.2</ele>
        <time>2026-01-30T10:29:03Z</time>
      </trkpt>
      <trkpt lat="48.67866" lon="2.10675">
        <ele>113.4</ele>
        <time>2026-01-30T10:29:04Z</time>
      </trkpt>
      <trkpt lat="48.67863" lon="2.10674">
        <ele>113.4</ele>
        <time>2026-01-30T10:29:05Z</time>
      </trkpt>
      <trkpt lat="48.67858" lon="2.10678">
        <ele>113.4</ele>
        <time>2026-01-30T10:29:06Z</time>
      </trkpt>
      <trkpt lat="48.67855" lon="2.10682">
        <ele>113.6</ele>
        <time>2026-01-30T10:29:07Z</time>
      </trkpt>
      <trkpt lat="48.67852" lon="2.10686">
        <ele>113.8</ele>
        <time>2026-01-30T10:29:08Z</time>
      </trkpt>
      <trkpt lat="48.67849" lon="2.1069">
        <ele>113.8</ele>
        <time>2026-01-30T10:29:09Z</time>
      </trkpt>
      <trkpt lat="48.67847" lon="2.10694">
        <ele>113.8</ele>
        <time>2026-01-30T10:29:10Z</time>
      </trkpt>
      <trkpt lat="48.67844" lon="2.10698">
        <ele>114.2</ele>
        <time>2026-01-30T10:30:48Z</time>
      </trkpt>
      <trkpt lat="48.67841" lon="2.10702">
        <ele>114.2</ele>
        <time>2026-01-30T10:30:49Z</time>
      </trkpt>
      <trkpt lat="48.6784" lon="2.10707">
        <ele>114.2</ele>
        <time>2026-01-30T10:30:50Z</time>
      </trkpt>
      <trkpt lat="48.6784" lon="2.10713">
        <ele>113.4</ele>
        <time>2026-01-30T10:30:51Z</time>
      </trkpt>
      <trkpt lat="48.6784" lon="2.10719">
        <ele>113.2</ele>
        <time>2026-01-30T10:30:52Z</time>
      </trkpt>
      <trkpt lat="48.67842" lon="2.10725">
        <ele>113.2</ele>
        <time>2026-01-30T10:30:53Z</time>
      </trkpt>
      <trkpt lat="48.67845" lon="2.10731">
        <ele>113.2</ele>
        <time>2026-01-30T10:30:54Z</time>
      </trkpt>
      <trkpt lat="48.67848" lon="2.10738">
        <ele>113.2</ele>
        <time>2026-01-30T10:30:55Z</time>
      </trkpt>
      <trkpt lat="48.6785" lon="2.10744">
        <ele>112.8</ele>
        <time>2026-01-30T10:30:56Z</time>
      </trkpt>
      <trkpt lat="48.67853" lon="2.10752">
        <ele>112.8</ele>
        <time>2026-01-30T10:30:57Z</time>
      </trkpt>
      <trkpt lat="48.67855" lon="2.10759">
        <ele>112.8</ele>
        <time>2026-01-30T10:30:58Z</time>
      </trkpt>
      <trkpt lat="48.67857" lon="2.10767">
        <ele>111.8</ele>
        <time>2026-01-30T10:30:59Z</time>
      </trkpt>
      <trkpt lat="48.67859" lon="2.10776">
        <ele>111.8</ele>
        <time>2026-01-30T10:31:00Z</time>
      </trkpt>
      <trkpt lat="48.67861" lon="2.10784">
        <ele>111.8</ele>
        <time>2026-01-30T10:31:01Z</time>
      </trkpt>
      <trkpt lat="48.67862" lon="2.10793">
        <ele>111.8</ele>
        <time>2026-01-30T10:31:02Z</time>
      </trkpt>
      <trkpt lat="48.67863" lon="2.10803">
        <ele>111.4</ele>
        <time>2026-01-30T10:31:03Z</time>
      </trkpt>
      <trkpt lat="48.67864" lon="2.10813">
        <ele>111.6</ele>
        <time>2026-01-30T10:31:04Z</time>
      </trkpt>
      <trkpt lat="48.67864" lon="2.10823">
        <ele>111.6</ele>
        <time>2026-01-30T10:31:05Z</time>
      </trkpt>
      <trkpt lat="48.67864" lon="2.10833">
        <ele>111.6</ele>
        <time>2026-01-30T10:31:06Z</time>
      </trkpt>
      <trkpt lat="48.67864" lon="2.10843">
        <ele>111.6</ele>
        <time>2026-01-30T10:31:07Z</time>
      </trkpt>
      <trkpt lat="48.67865" lon="2.10853">
        <ele>110.8</ele>
        <time>2026-01-30T10:31:08Z</time>
      </trkpt>
      <trkpt lat="48.67865" lon="2.10863">
        <ele>110.8</ele>
        <time>2026-01-30T10:31:09Z</time>
      </trkpt>
      <trkpt lat="48.67864" lon="2.10874">
        <ele>110.8</ele>
        <time>2026-01-30T10:31:10Z</time>
      </trkpt>
      <trkpt lat="48.67864" lon="2.10884">
        <ele>110.8</ele>
        <time>2026-01-30T10:31:11Z</time>
      </trkpt>
      <trkpt lat="48.67865" lon="2.10895">
        <ele>110.6</ele>
        <time>2026-01-30T10:31:12Z</time>
      </trkpt>
      <trkpt lat="48.67865" lon="2.10906">
        <ele>110.6</ele>
        <time>2026-01-30T10:31:13Z</time>
      </trkpt>
      <trkpt lat="48.67866" lon="2.10916">
        <ele>110.6</ele>
        <time>2026-01-30T10:31:14Z</time>
      </trkpt>
      <trkpt lat="48.67866" lon="2.10927">
        <ele>110.6</ele>
        <time>2026-01-30T10:31:15Z</time>
      </trkpt>
      <trkpt lat="48.67867" lon="2.10938">
        <ele>110.4</ele>
        <time>2026-01-30T10:31:16Z</time>
      </trkpt>
      <trkpt lat="48.67868" lon="2.10949">
        <ele>110.4</ele>
        <time>2026-01-30T10:31:17Z</time>
      </trkpt>
      <trkpt lat="48.67868" lon="2.10959">
        <ele>110.4</ele>
        <time>2026-01-30T10:31:18Z</time>
      </trkpt>
      <trkpt lat="48.67869" lon="2.1097">
        <ele>110.4</ele>
        <time>2026-01-30T10:31:19Z</time>
      </trkpt>
      <trkpt lat="48.6787" lon="2.10981">
        <ele>111</ele>
        <time>2026-01-30T10:31:20Z</time>
      </trkpt>
      <trkpt lat="48.6787" lon="2.10992">
        <ele>111</ele>
        <time>2026-01-30T10:31:21Z</time>
      </trkpt>
      <trkpt lat="48.67871" lon="2.11003">
        <ele>111</ele>
        <time>2026-01-30T10:31:22Z</time>
      </trkpt>
      <trkpt lat="48.67871" lon="2.11013">
        <ele>110</ele>
        <time>2026-01-30T10:31:23Z</time>
      </trkpt>
      <trkpt lat="48.67872" lon="2.11024">
        <ele>109.6</ele>
        <time>2026-01-30T10:31:24Z</time>
      </trkpt>
      <trkpt lat="48.67872" lon="2.11035">
        <ele>109.6</ele>
        <time>2026-01-30T10:31:25Z</time>
      </trkpt>
      <trkpt lat="48.67873" lon="2.11046">
        <ele>109.6</ele>
        <time>2026-01-30T10:31:26Z</time>
      </trkpt>
      <trkpt lat="48.67875" lon="2.11057">
        <ele>109.6</ele>
        <time>2026-01-30T10:31:27Z</time>
      </trkpt>
      <trkpt lat="48.67877" lon="2.11067">
        <ele>109.4</ele>
        <time>2026-01-30T10:31:28Z</time>
      </trkpt>
      <trkpt lat="48.67878" lon="2.11078">
        <ele>109.4</ele>
        <time>2026-01-30T10:31:29Z</time>
      </trkpt>
      <trkpt lat="48.6788" lon="2.11088">
        <ele>109.4</ele>
        <time>2026-01-30T10:31:30Z</time>
      </trkpt>
      <trkpt lat="48.67881" lon="2.11098">
        <ele>108.4</ele>
        <time>2026-01-30T10:31:31Z</time>
      </trkpt>
      <trkpt lat="48.67882" lon="2.11109">
        <ele>108.6</ele>
        <time>2026-01-30T10:31:32Z</time>
      </trkpt>
      <trkpt lat="48.67883" lon="2.1112">
        <ele>108.6</ele>
        <time>2026-01-30T10:31:33Z</time>
      </trkpt>
      <trkpt lat="48.67885" lon="2.1113">
        <ele>108.6</ele>
        <time>2026-01-30T10:31:34Z</time>
      </trkpt>
      <trkpt lat="48.67887" lon="2.11139">
        <ele>108.6</ele>
        <time>2026-01-30T10:31:35Z</time>
      </trkpt>
      <trkpt lat="48.67889" lon="2.11149">
        <ele>108.6</ele>
        <time>2026-01-30T10:31:36Z</time>
      </trkpt>
      <trkpt lat="48.67891" lon="2.11158">
        <ele>108.6</ele>
        <time>2026-01-30T10:31:37Z</time>
      </trkpt>
      <trkpt lat="48.67892" lon="2.11167">
        <ele>108.6</ele>
        <time>2026-01-30T10:31:38Z</time>
      </trkpt>
      <trkpt lat="48.67891" lon="2.11173">
        <ele>109.2</ele>
        <time>2026-01-30T10:31:39Z</time>
      </trkpt>
      <trkpt lat="48.6789" lon="2.11178">
        <ele>109</ele>
        <time>2026-01-30T10:31:40Z</time>
      </trkpt>
      <trkpt lat="48.67888" lon="2.11181">
        <ele>109</ele>
        <time>2026-01-30T10:31:41Z</time>
      </trkpt>
      <trkpt lat="48.67884" lon="2.11183">
        <ele>109</ele>
        <time>2026-01-30T10:31:42Z</time>
      </trkpt>
      <trkpt lat="48.6788" lon="2.11185">
        <ele>109.4</ele>
        <time>2026-01-30T10:31:43Z</time>
      </trkpt>
      <trkpt lat="48.67875" lon="2.11187">
        <ele>109</ele>
        <time>2026-01-30T10:31:44Z</time>
      </trkpt>
      <trkpt lat="48.6787" lon="2.11191">
        <ele>109</ele>
        <time>2026-01-30T10:31:45Z</time>
      </trkpt>
      <trkpt lat="48.67864" lon="2.11196">
        <ele>109</ele>
        <time>2026-01-30T10:31:46Z</time>
      </trkpt>
      <trkpt lat="48.6786" lon="2.112">
        <ele>109</ele>
        <time>2026-01-30T10:31:47Z</time>
      </trkpt>
      <trkpt lat="48.67855" lon="2.11206">
        <ele>108.4</ele>
        <time>2026-01-30T10:31:48Z</time>
      </trkpt>
      <trkpt lat="48.6785" lon="2.11212">
        <ele>108.4</ele>
        <time>2026-01-30T10:31:49Z</time>
      </trkpt>
      <trkpt lat="48.67846" lon="2.11219">
        <ele>108.4</ele>
        <time>2026-01-30T10:31:50Z</time>
      </trkpt>
      <trkpt lat="48.67841" lon="2.11225">
        <ele>109.4</ele>
        <time>2026-01-30T10:31:51Z</time>
      </trkpt>
      <trkpt lat="48.67837" lon="2.11231">
        <ele>108.8</ele>
        <time>2026-01-30T10:31:52Z</time>
      </trkpt>
      <trkpt lat="48.67832" lon="2.11238">
        <ele>108.8</ele>
        <time>2026-01-30T10:31:53Z</time>
      </trkpt>
      <trkpt lat="48.67828" lon="2.11244">
        <ele>108.8</ele>
        <time>2026-01-30T10:31:54Z</time>
      </trkpt>
      <trkpt lat="48.67824" lon="2.11251">
        <ele>108.8</ele>
        <time>2026-01-30T10:31:55Z</time>
      </trkpt>
      <trkpt lat="48.67819" lon="2.11257">
        <ele>108.8</ele>
        <time>2026-01-30T10:31:56Z</time>
      </trkpt>
      <trkpt lat="48.67814" lon="2.11264">
        <ele>108.8</ele>
        <time>2026-01-30T10:31:57Z</time>
      </trkpt>
      <trkpt lat="48.6781" lon="2.11272">
        <ele>108.8</ele>
        <time>2026-01-30T10:31:58Z</time>
      </trkpt>
      <trkpt lat="48.67805" lon="2.11279">
        <ele>109</ele>
        <time>2026-01-30T10:31:59Z</time>
      </trkpt>
      <trkpt lat="48.67801" lon="2.11286">
        <ele>109.2</ele>
        <time>2026-01-30T10:32:00Z</time>
      </trkpt>
      <trkpt lat="48.67796" lon="2.11292">
        <ele>109.2</ele>
        <time>2026-01-30T10:32:01Z</time>
      </trkpt>
      <trkpt lat="48.67792" lon="2.11299">
        <ele>109.2</ele>
        <time>2026-01-30T10:32:02Z</time>
      </trkpt>
      <trkpt lat="48.67788" lon="2.11306">
        <ele>109.2</ele>
        <time>2026-01-30T10:32:03Z</time>
      </trkpt>
      <trkpt lat="48.67784" lon="2.11312">
        <ele>109.2</ele>
        <time>2026-01-30T10:32:04Z</time>
      </trkpt>
      <trkpt lat="48.6778" lon="2.11319">
        <ele>109.2</ele>
        <time>2026-01-30T10:32:05Z</time>
      </trkpt>
      <trkpt lat="48.67776" lon="2.11325">
        <ele>109.2</ele>
        <time>2026-01-30T10:32:06Z</time>
      </trkpt>
      <trkpt lat="48.67773" lon="2.11331">
        <ele>109.4</ele>
        <time>2026-01-30T10:32:07Z</time>
      </trkpt>
      <trkpt lat="48.67768" lon="2.11337">
        <ele>109.8</ele>
        <time>2026-01-30T10:32:08Z</time>
      </trkpt>
      <trkpt lat="48.67765" lon="2.11342">
        <ele>109.8</ele>
        <time>2026-01-30T10:32:09Z</time>
      </trkpt>
      <trkpt lat="48.6776" lon="2.11348">
        <ele>109.8</ele>
        <time>2026-01-30T10:32:10Z</time>
      </trkpt>
      <trkpt lat="48.67756" lon="2.11353">
        <ele>109.8</ele>
        <time>2026-01-30T10:32:11Z</time>
      </trkpt>
      <trkpt lat="48.67751" lon="2.11359">
        <ele>110</ele>
        <time>2026-01-30T10:32:12Z</time>
      </trkpt>
      <trkpt lat="48.67747" lon="2.11365">
        <ele>110</ele>
        <time>2026-01-30T10:32:13Z</time>
      </trkpt>
      <trkpt lat="48.67743" lon="2.11371">
        <ele>110</ele>
        <time>2026-01-30T10:32:14Z</time>
      </trkpt>
      <trkpt lat="48.6774" lon="2.11379">
        <ele>110</ele>
        <time>2026-01-30T10:32:15Z</time>
      </trkpt>
      <trkpt lat="48.67736" lon="2.11387">
        <ele>110.6</ele>
        <time>2026-01-30T10:32:16Z</time>
      </trkpt>
      <trkpt lat="48.67733" lon="2.11394">
        <ele>110.6</ele>
        <time>2026-01-30T10:32:17Z</time>
      </trkpt>
      <trkpt lat="48.67729" lon="2.114">
        <ele>110.6</ele>
        <time>2026-01-30T10:32:18Z</time>
      </trkpt>
      <trkpt lat="48.67725" lon="2.11406">
        <ele>110.6</ele>
        <time>2026-01-30T10:32:19Z</time>
      </trkpt>
      <trkpt lat="48.67721" lon="2.11411">
        <ele>110.4</ele>
        <time>2026-01-30T10:32:20Z</time>
      </trkpt>
      <trkpt lat="48.67716" lon="2.11416">
        <ele>110.4</ele>
        <time>2026-01-30T10:32:21Z</time>
      </trkpt>
      <trkpt lat="48.67712" lon="2.1142">
        <ele>110.4</ele>
        <time>2026-01-30T10:32:22Z</time>
      </trkpt>
      <trkpt lat="48.67707" lon="2.11423">
        <ele>110.4</ele>
        <time>2026-01-30T10:32:23Z</time>
      </trkpt>
      <trkpt lat="48.67702" lon="2.11427">
        <ele>109.8</ele>
        <time>2026-01-30T10:32:24Z</time>
      </trkpt>
      <trkpt lat="48.67697" lon="2.11432">
        <ele>109.8</ele>
        <time>2026-01-30T10:32:25Z</time>
      </trkpt>
      <trkpt lat="48.67692" lon="2.11438">
        <ele>109.8</ele>
        <time>2026-01-30T10:32:26Z</time>
      </trkpt>
      <trkpt lat="48.67687" lon="2.11444">
        <ele>109.8</ele>
        <time>2026-01-30T10:32:27Z</time>
      </trkpt>
      <trkpt lat="48.67683" lon="2.11451">
        <ele>109.4</ele>
        <time>2026-01-30T10:32:28Z</time>
      </trkpt>
      <trkpt lat="48.67678" lon="2.11458">
        <ele>109.4</ele>
        <time>2026-01-30T10:32:29Z</time>
      </trkpt>
      <trkpt lat="48.67673" lon="2.11465">
        <ele>109.4</ele>
        <time>2026-01-30T10:32:30Z</time>
      </trkpt>
      <trkpt lat="48.67669" lon="2.11472">
        <ele>110.2</ele>
        <time>2026-01-30T10:32:31Z</time>
      </trkpt>
      <trkpt lat="48.67665" lon="2.11479">
        <ele>111</ele>
        <time>2026-01-30T10:32:32Z</time>
      </trkpt>
      <trkpt lat="48.6766" lon="2.11487">
        <ele>111</ele>
        <time>2026-01-30T10:32:33Z</time>
      </trkpt>
      <trkpt lat="48.67656" lon="2.11494">
        <ele>111</ele>
        <time>2026-01-30T10:32:34Z</time>
      </trkpt>
      <trkpt lat="48.67651" lon="2.11501">
        <ele>110.2</ele>
        <time>2026-01-30T10:32:35Z</time>
      </trkpt>
      <trkpt lat="48.67647" lon="2.11508">
        <ele>110.6</ele>
        <time>2026-01-30T10:32:36Z</time>
      </trkpt>
      <trkpt lat="48.67642" lon="2.11514">
        <ele>110.6</ele>
        <time>2026-01-30T10:32:37Z</time>
      </trkpt>
      <trkpt lat="48.67638" lon="2.1152">
        <ele>110.6</ele>
        <time>2026-01-30T10:32:38Z</time>
      </trkpt>
      <trkpt lat="48.67633" lon="2.11526">
        <ele>110.6</ele>
        <time>2026-01-30T10:32:39Z</time>
      </trkpt>
      <trkpt lat="48.67628" lon="2.11532">
        <ele>109.2</ele>
        <time>2026-01-30T10:32:40Z</time>
      </trkpt>
      <trkpt lat="48.67623" lon="2.11539">
        <ele>109.2</ele>
        <time>2026-01-30T10:32:41Z</time>
      </trkpt>
      <trkpt lat="48.67618" lon="2.11546">
        <ele>109.2</ele>
        <time>2026-01-30T10:32:42Z</time>
      </trkpt>
      <trkpt lat="48.67614" lon="2.11552">
        <ele>109.2</ele>
        <time>2026-01-30T10:32:43Z</time>
      </trkpt>
      <trkpt lat="48.67609" lon="2.11558">
        <ele>110</ele>
        <time>2026-01-30T10:32:44Z</time>
      </trkpt>
      <trkpt lat="48.67604" lon="2.11564">
        <ele>110</ele>
        <time>2026-01-30T10:32:45Z</time>
      </trkpt>
      <trkpt lat="48.67599" lon="2.11569">
        <ele>110</ele>
        <time>2026-01-30T10:32:46Z</time>
      </trkpt>
      <trkpt lat="48.67595" lon="2.11574">
        <ele>110</ele>
        <time>2026-01-30T10:32:47Z</time>
      </trkpt>
      <trkpt lat="48.6759" lon="2.1158">
        <ele>110.8</ele>
        <time>2026-01-30T10:32:48Z</time>
      </trkpt>
      <trkpt lat="48.67584" lon="2.11585">
        <ele>110.8</ele>
        <time>2026-01-30T10:32:49Z</time>
      </trkpt>
      <trkpt lat="48.67579" lon="2.11591">
        <ele>110.8</ele>
        <time>2026-01-30T10:32:50Z</time>
      </trkpt>
      <trkpt lat="48.67574" lon="2.11596">
        <ele>110.4</ele>
        <time>2026-01-30T10:32:51Z</time>
      </trkpt>
      <trkpt lat="48.67569" lon="2.11601">
        <ele>110.6</ele>
        <time>2026-01-30T10:32:52Z</time>
      </trkpt>
      <trkpt lat="48.67563" lon="2.11606">
        <ele>110.6</ele>
        <time>2026-01-30T10:32:53Z</time>
      </trkpt>
      <trkpt lat="48.67558" lon="2.11612">
        <ele>110.6</ele>
        <time>2026-01-30T10:32:54Z</time>
      </trkpt>
      <trkpt lat="48.67552" lon="2.11618">
        <ele>109.6</ele>
        <time>2026-01-30T10:32:55Z</time>
      </trkpt>
      <trkpt lat="48.67546" lon="2.11624">
        <ele>110.6</ele>
        <time>2026-01-30T10:32:56Z</time>
      </trkpt>
      <trkpt lat="48.67541" lon="2.1163">
        <ele>110.6</ele>
        <time>2026-01-30T10:32:57Z</time>
      </trkpt>
      <trkpt lat="48.67535" lon="2.11636">
        <ele>110.6</ele>
        <time>2026-01-30T10:32:58Z</time>
      </trkpt>
      <trkpt lat="48.6753" lon="2.11642">
        <ele>110.6</ele>
        <time>2026-01-30T10:32:59Z</time>
      </trkpt>
      <trkpt lat="48.67525" lon="2.11648">
        <ele>110.4</ele>
        <time>2026-01-30T10:33:00Z</time>
      </trkpt>
      <trkpt lat="48.6752" lon="2.11654">
        <ele>110.4</ele>
        <time>2026-01-30T10:33:01Z</time>
      </trkpt>
      <trkpt lat="48.67515" lon="2.11661">
        <ele>110.4</ele>
        <time>2026-01-30T10:33:02Z</time>
      </trkpt>
      <trkpt lat="48.67511" lon="2.11668">
        <ele>111.4</ele>
        <time>2026-01-30T10:33:03Z</time>
      </trkpt>
      <trkpt lat="48.67506" lon="2.11675">
        <ele>111.4</ele>
        <time>2026-01-30T10:33:04Z</time>
      </trkpt>
      <trkpt lat="48.67502" lon="2.11682">
        <ele>111.4</ele>
        <time>2026-01-30T10:33:05Z</time>
      </trkpt>
      <trkpt lat="48.67498" lon="2.11689">
        <ele>111.4</ele>
        <time>2026-01-30T10:33:06Z</time>
      </trkpt>
      <trkpt lat="48.67493" lon="2.11696">
        <ele>111.8</ele>
        <time>2026-01-30T10:33:07Z</time>
      </trkpt>
      <trkpt lat="48.6749" lon="2.11704">
        <ele>111.2</ele>
        <time>2026-01-30T10:33:08Z</time>
      </trkpt>
      <trkpt lat="48.67486" lon="2.11712">
        <ele>111.2</ele>
        <time>2026-01-30T10:33:09Z</time>
      </trkpt>
      <trkpt lat="48.67482" lon="2.11719">
        <ele>111.2</ele>
        <time>2026-01-30T10:33:10Z</time>
      </trkpt>
      <trkpt lat="48.67478" lon="2.11727">
        <ele>111.2</ele>
        <time>2026-01-30T10:33:11Z</time>
      </trkpt>
      <trkpt lat="48.67474" lon="2.11735">
        <ele>112</ele>
        <time>2026-01-30T10:33:12Z</time>
      </trkpt>
      <trkpt lat="48.67471" lon="2.11744">
        <ele>112</ele>
        <time>2026-01-30T10:33:13Z</time>
      </trkpt>
      <trkpt lat="48.67467" lon="2.11752">
        <ele>112</ele>
        <time>2026-01-30T10:33:14Z</time>
      </trkpt>
      <trkpt lat="48.67464" lon="2.11761">
        <ele>111</ele>
        <time>2026-01-30T10:33:15Z</time>
      </trkpt>
      <trkpt lat="48.6746" lon="2.11769">
        <ele>110.6</ele>
        <time>2026-01-30T10:33:16Z</time>
      </trkpt>
      <trkpt lat="48.67456" lon="2.11778">
        <ele>110.6</ele>
        <time>2026-01-30T10:33:17Z</time>
      </trkpt>
      <trkpt lat="48.67453" lon="2.11786">
        <ele>110.6</ele>
        <time>2026-01-30T10:33:18Z</time>
      </trkpt>
      <trkpt lat="48.67449" lon="2.11795">
        <ele>111</ele>
        <time>2026-01-30T10:33:19Z</time>
      </trkpt>
      <trkpt lat="48.67446" lon="2.11803">
        <ele>111.4</ele>
        <time>2026-01-30T10:33:20Z</time>
      </trkpt>
      <trkpt lat="48.67442" lon="2.11812">
        <ele>111.4</ele>
        <time>2026-01-30T10:33:21Z</time>
      </trkpt>
      <trkpt lat="48.67439" lon="2.1182">
        <ele>111.4</ele>
        <time>2026-01-30T10:33:22Z</time>
      </trkpt>
      <trkpt lat="48.67435" lon="2.11829">
        <ele>111.4</ele>
        <time>2026-01-30T10:33:23Z</time>
      </trkpt>
      <trkpt lat="48.67431" lon="2.11838">
        <ele>110.6</ele>
        <time>2026-01-30T10:33:24Z</time>
      </trkpt>
      <trkpt lat="48.67427" lon="2.11847">
        <ele>110.6</ele>
        <time>2026-01-30T10:33:25Z</time>
      </trkpt>
      <trkpt lat="48.67423" lon="2.11856">
        <ele>110.6</ele>
        <time>2026-01-30T10:33:26Z</time>
      </trkpt>
      <trkpt lat="48.67419" lon="2.11864">
        <ele>110</ele>
        <time>2026-01-30T10:33:27Z</time>
      </trkpt>
      <trkpt lat="48.67415" lon="2.11873">
        <ele>110</ele>
        <time>2026-01-30T10:33:28Z</time>
      </trkpt>
      <trkpt lat="48.67411" lon="2.11881">
        <ele>110</ele>
        <time>2026-01-30T10:33:29Z</time>
      </trkpt>
      <trkpt lat="48.67406" lon="2.1189">
        <ele>110</ele>
        <time>2026-01-30T10:33:30Z</time>
      </trkpt>
      <trkpt lat="48.67402" lon="2.11898">
        <ele>110</ele>
        <time>2026-01-30T10:33:31Z</time>
      </trkpt>
      <trkpt lat="48.67399" lon="2.11907">
        <ele>110.8</ele>
        <time>2026-01-30T10:33:32Z</time>
      </trkpt>
      <trkpt lat="48.67396" lon="2.11915">
        <ele>110.8</ele>
        <time>2026-01-30T10:33:33Z</time>
      </trkpt>
      <trkpt lat="48.67393" lon="2.11924">
        <ele>110.8</ele>
        <time>2026-01-30T10:33:34Z</time>
      </trkpt>
      <trkpt lat="48.6739" lon="2.11933">
        <ele>110.8</ele>
        <time>2026-01-30T10:33:35Z</time>
      </trkpt>
      <trkpt lat="48.67387" lon="2.11942">
        <ele>110.2</ele>
        <time>2026-01-30T10:33:36Z</time>
      </trkpt>
      <trkpt lat="48.67384" lon="2.11952">
        <ele>110.2</ele>
        <time>2026-01-30T10:33:37Z</time>
      </trkpt>
      <trkpt lat="48.67381" lon="2.11961">
        <ele>110.2</ele>
        <time>2026-01-30T10:33:38Z</time>
      </trkpt>
      <trkpt lat="48.67379" lon="2.1197">
        <ele>110.2</ele>
        <time>2026-01-30T10:33:39Z</time>
      </trkpt>
      <trkpt lat="48.67376" lon="2.11979">
        <ele>110.4</ele>
        <time>2026-01-30T10:33:40Z</time>
      </trkpt>
      <trkpt lat="48.67373" lon="2.11987">
        <ele>110.4</ele>
        <time>2026-01-30T10:33:41Z</time>
      </trkpt>
      <trkpt lat="48.67371" lon="2.11996">
        <ele>110.4</ele>
        <time>2026-01-30T10:33:42Z</time>
      </trkpt>
      <trkpt lat="48.67368" lon="2.12005">
        <ele>110.8</ele>
        <time>2026-01-30T10:33:43Z</time>
      </trkpt>
      <trkpt lat="48.67366" lon="2.12014">
        <ele>110.4</ele>
        <time>2026-01-30T10:33:44Z</time>
      </trkpt>
      <trkpt lat="48.67363" lon="2.12022">
        <ele>110.4</ele>
        <time>2026-01-30T10:33:45Z</time>
      </trkpt>
      <trkpt lat="48.67361" lon="2.12031">
        <ele>110.4</ele>
        <time>2026-01-30T10:33:46Z</time>
      </trkpt>
      <trkpt lat="48.67358" lon="2.1204">
        <ele>110.4</ele>
        <time>2026-01-30T10:33:47Z</time>
      </trkpt>
      <trkpt lat="48.67356" lon="2.12048">
        <ele>110.4</ele>
        <time>2026-01-30T10:33:48Z</time>
      </trkpt>
      <trkpt lat="48.67353" lon="2.12057">
        <ele>110.4</ele>
        <time>2026-01-30T10:33:49Z</time>
      </trkpt>
      <trkpt lat="48.67351" lon="2.12065">
        <ele>110.4</ele>
        <time>2026-01-30T10:33:50Z</time>
      </trkpt>
      <trkpt lat="48.67349" lon="2.12074">
        <ele>111.4</ele>
        <time>2026-01-30T10:33:51Z</time>
      </trkpt>
      <trkpt lat="48.67346" lon="2.12083">
        <ele>111.2</ele>
        <time>2026-01-30T10:33:52Z</time>
      </trkpt>
      <trkpt lat="48.67344" lon="2.12092">
        <ele>111.2</ele>
        <time>2026-01-30T10:33:53Z</time>
      </trkpt>
      <trkpt lat="48.67341" lon="2.12101">
        <ele>111.2</ele>
        <time>2026-01-30T10:33:54Z</time>
      </trkpt>
      <trkpt lat="48.67339" lon="2.1211">
        <ele>111</ele>
        <time>2026-01-30T10:33:55Z</time>
      </trkpt>
      <trkpt lat="48.67337" lon="2.12119">
        <ele>111.2</ele>
        <time>2026-01-30T10:33:56Z</time>
      </trkpt>
      <trkpt lat="48.67334" lon="2.12129">
        <ele>111.2</ele>
        <time>2026-01-30T10:33:57Z</time>
      </trkpt>
      <trkpt lat="48.67332" lon="2.12138">
        <ele>111.2</ele>
        <time>2026-01-30T10:33:58Z</time>
      </trkpt>
      <trkpt lat="48.67329" lon="2.12148">
        <ele>111.2</ele>
        <time>2026-01-30T10:33:59Z</time>
      </trkpt>
      <trkpt lat="48.67327" lon="2.12157">
        <ele>111</ele>
        <time>2026-01-30T10:34:00Z</time>
      </trkpt>
      <trkpt lat="48.67325" lon="2.12167">
        <ele>111</ele>
        <time>2026-01-30T10:34:01Z</time>
      </trkpt>
      <trkpt lat="48.67323" lon="2.12177">
        <ele>111</ele>
        <time>2026-01-30T10:34:02Z</time>
      </trkpt>
      <trkpt lat="48.67321" lon="2.12186">
        <ele>111</ele>
        <time>2026-01-30T10:34:03Z</time>
      </trkpt>
      <trkpt lat="48.67318" lon="2.12196">
        <ele>111.2</ele>
        <time>2026-01-30T10:34:04Z</time>
      </trkpt>
      <trkpt lat="48.67316" lon="2.12205">
        <ele>111.2</ele>
        <time>2026-01-30T10:34:05Z</time>
      </trkpt>
      <trkpt lat="48.67312" lon="2.12214">
        <ele>111.2</ele>
        <time>2026-01-30T10:34:06Z</time>
      </trkpt>
      <trkpt lat="48.67308" lon="2.12221">
        <ele>110.2</ele>
        <time>2026-01-30T10:34:07Z</time>
      </trkpt>
      <trkpt lat="48.67302" lon="2.12226">
        <ele>108.4</ele>
        <time>2026-01-30T10:34:08Z</time>
      </trkpt>
      <trkpt lat="48.67296" lon="2.12228">
        <ele>108.4</ele>
        <time>2026-01-30T10:34:09Z</time>
      </trkpt>
      <trkpt lat="48.67289" lon="2.12227">
        <ele>108.4</ele>
        <time>2026-01-30T10:34:10Z</time>
      </trkpt>
      <trkpt lat="48.67284" lon="2.12224">
        <ele>108.4</ele>
        <time>2026-01-30T10:34:11Z</time>
      </trkpt>
      <trkpt lat="48.67278" lon="2.1222">
        <ele>109.2</ele>
        <time>2026-01-30T10:34:12Z</time>
      </trkpt>
      <trkpt lat="48.67272" lon="2.12216">
        <ele>109.2</ele>
        <time>2026-01-30T10:34:13Z</time>
      </trkpt>
      <trkpt lat="48.67267" lon="2.12211">
        <ele>109.2</ele>
        <time>2026-01-30T10:34:14Z</time>
      </trkpt>
      <trkpt lat="48.67262" lon="2.12206">
        <ele>109.2</ele>
        <time>2026-01-30T10:34:15Z</time>
      </trkpt>
      <trkpt lat="48.67257" lon="2.12201">
        <ele>108.6</ele>
        <time>2026-01-30T10:34:16Z</time>
      </trkpt>
      <trkpt lat="48.67251" lon="2.12197">
        <ele>108.6</ele>
        <time>2026-01-30T10:34:17Z</time>
      </trkpt>
      <trkpt lat="48.67246" lon="2.12192">
        <ele>108.6</ele>
        <time>2026-01-30T10:34:18Z</time>
      </trkpt>
      <trkpt lat="48.67242" lon="2.12187">
        <ele>109</ele>
        <time>2026-01-30T10:34:19Z</time>
      </trkpt>
      <trkpt lat="48.67237" lon="2.12182">
        <ele>108.6</ele>
        <time>2026-01-30T10:34:20Z</time>
      </trkpt>
      <trkpt lat="48.67232" lon="2.12177">
        <ele>108.6</ele>
        <time>2026-01-30T10:34:21Z</time>
      </trkpt>
      <trkpt lat="48.67227" lon="2.12172">
        <ele>108.6</ele>
        <time>2026-01-30T10:34:22Z</time>
      </trkpt>
      <trkpt lat="48.67223" lon="2.12168">
        <ele>108.6</ele>
        <time>2026-01-30T10:34:23Z</time>
      </trkpt>
      <trkpt lat="48.6722" lon="2.12165">
        <ele>110.2</ele>
        <time>2026-01-30T10:34:24Z</time>
      </trkpt>
      <trkpt lat="48.67218" lon="2.12163">
        <ele>110.2</ele>
        <time>2026-01-30T10:34:25Z</time>
      </trkpt>
      <trkpt lat="48.67216" lon="2.12161">
        <ele>110.2</ele>
        <time>2026-01-30T10:34:26Z</time>
      </trkpt>
      <trkpt lat="48.67213" lon="2.1216">
        <ele>110.2</ele>
        <time>2026-01-30T10:34:27Z</time>
      </trkpt>
      <trkpt lat="48.6721" lon="2.12161">
        <ele>110.2</ele>
        <time>2026-01-30T10:34:28Z</time>
      </trkpt>
      <trkpt lat="48.67207" lon="2.12163">
        <ele>110.2</ele>
        <time>2026-01-30T10:34:29Z</time>
      </trkpt>
      <trkpt lat="48.67203" lon="2.12167">
        <ele>110.2</ele>
        <time>2026-01-30T10:34:30Z</time>
      </trkpt>
      <trkpt lat="48.672" lon="2.12173">
        <ele>109.2</ele>
        <time>2026-01-30T10:34:31Z</time>
      </trkpt>
      <trkpt lat="48.67198" lon="2.1218">
        <ele>107.6</ele>
        <time>2026-01-30T10:34:32Z</time>
      </trkpt>
      <trkpt lat="48.67195" lon="2.12188">
        <ele>107.6</ele>
        <time>2026-01-30T10:34:33Z</time>
      </trkpt>
      <trkpt lat="48.67192" lon="2.12196">
        <ele>107.6</ele>
        <time>2026-01-30T10:34:34Z</time>
      </trkpt>
      <trkpt lat="48.67189" lon="2.12204">
        <ele>108</ele>
        <time>2026-01-30T10:34:35Z</time>
      </trkpt>
      <trkpt lat="48.67186" lon="2.12212">
        <ele>108.2</ele>
        <time>2026-01-30T10:34:36Z</time>
      </trkpt>
      <trkpt lat="48.67183" lon="2.12221">
        <ele>108.2</ele>
        <time>2026-01-30T10:34:37Z</time>
      </trkpt>
      <trkpt lat="48.67179" lon="2.12229">
        <ele>108.2</ele>
        <time>2026-01-30T10:34:38Z</time>
      </trkpt>
      <trkpt lat="48.67176" lon="2.12238">
        <ele>108</ele>
        <time>2026-01-30T10:34:39Z</time>
      </trkpt>
      <trkpt lat="48.67173" lon="2.12246">
        <ele>108</ele>
        <time>2026-01-30T10:34:40Z</time>
      </trkpt>
      <trkpt lat="48.6717" lon="2.12255">
        <ele>108</ele>
        <time>2026-01-30T10:34:41Z</time>
      </trkpt>
      <trkpt lat="48.67167" lon="2.12263">
        <ele>108</ele>
        <time>2026-01-30T10:34:42Z</time>
      </trkpt>
      <trkpt lat="48.67164" lon="2.12271">
        <ele>108</ele>
        <time>2026-01-30T10:34:43Z</time>
      </trkpt>
      <trkpt lat="48.67161" lon="2.1228">
        <ele>107.6</ele>
        <time>2026-01-30T10:34:44Z</time>
      </trkpt>
      <trkpt lat="48.67157" lon="2.12288">
        <ele>107.6</ele>
        <time>2026-01-30T10:34:45Z</time>
      </trkpt>
      <trkpt lat="48.67154" lon="2.12297">
        <ele>107.6</ele>
        <time>2026-01-30T10:34:46Z</time>
      </trkpt>
      <trkpt lat="48.6715" lon="2.12305">
        <ele>106.6</ele>
        <time>2026-01-30T10:34:47Z</time>
      </trkpt>
      <trkpt lat="48.67146" lon="2.12312">
        <ele>106.2</ele>
        <time>2026-01-30T10:34:48Z</time>
      </trkpt>
      <trkpt lat="48.67142" lon="2.12317">
        <ele>106.2</ele>
        <time>2026-01-30T10:34:49Z</time>
      </trkpt>
      <trkpt lat="48.67137" lon="2.12323">
        <ele>106.2</ele>
        <time>2026-01-30T10:34:50Z</time>
      </trkpt>
      <trkpt lat="48.67135" lon="2.12331">
        <ele>107.2</ele>
        <time>2026-01-30T10:34:51Z</time>
      </trkpt>
      <trkpt lat="48.67134" lon="2.1234">
        <ele>107.8</ele>
        <time>2026-01-30T10:34:52Z</time>
      </trkpt>
      <trkpt lat="48.67135" lon="2.12349">
        <ele>107.8</ele>
        <time>2026-01-30T10:34:53Z</time>
      </trkpt>
      <trkpt lat="48.67136" lon="2.12358">
        <ele>107.8</ele>
        <time>2026-01-30T10:34:54Z</time>
      </trkpt>
      <trkpt lat="48.67138" lon="2.12367">
        <ele>108.4</ele>
        <time>2026-01-30T10:34:55Z</time>
      </trkpt>
      <trkpt lat="48.6714" lon="2.12376">
        <ele>108.6</ele>
        <time>2026-01-30T10:34:56Z</time>
      </trkpt>
      <trkpt lat="48.67143" lon="2.12385">
        <ele>108.6</ele>
        <time>2026-01-30T10:34:57Z</time>
      </trkpt>
      <trkpt lat="48.67145" lon="2.12394">
        <ele>108.6</ele>
        <time>2026-01-30T10:34:58Z</time>
      </trkpt>
      <trkpt lat="48.67148" lon="2.12402">
        <ele>108.6</ele>
        <time>2026-01-30T10:34:59Z</time>
      </trkpt>
      <trkpt lat="48.6715" lon="2.12412">
        <ele>108.6</ele>
        <time>2026-01-30T10:35:00Z</time>
      </trkpt>
      <trkpt lat="48.67153" lon="2.1242">
        <ele>108.6</ele>
        <time>2026-01-30T10:35:01Z</time>
      </trkpt>
      <trkpt lat="48.67156" lon="2.12429">
        <ele>108.6</ele>
        <time>2026-01-30T10:35:02Z</time>
      </trkpt>
      <trkpt lat="48.67158" lon="2.12438">
        <ele>108.6</ele>
        <time>2026-01-30T10:35:03Z</time>
      </trkpt>
      <trkpt lat="48.67161" lon="2.12447">
        <ele>109.2</ele>
        <time>2026-01-30T10:35:04Z</time>
      </trkpt>
      <trkpt lat="48.67163" lon="2.12455">
        <ele>109.2</ele>
        <time>2026-01-30T10:35:05Z</time>
      </trkpt>
      <trkpt lat="48.67166" lon="2.12464">
        <ele>109.2</ele>
        <time>2026-01-30T10:35:06Z</time>
      </trkpt>
      <trkpt lat="48.67169" lon="2.12472">
        <ele>109.2</ele>
        <time>2026-01-30T10:35:07Z</time>
      </trkpt>
      <trkpt lat="48.67173" lon="2.12479">
        <ele>110</ele>
        <time>2026-01-30T10:35:08Z</time>
      </trkpt>
      <trkpt lat="48.67176" lon="2.12486">
        <ele>110</ele>
        <time>2026-01-30T10:35:09Z</time>
      </trkpt>
      <trkpt lat="48.6718" lon="2.12493">
        <ele>110</ele>
        <time>2026-01-30T10:35:10Z</time>
      </trkpt>
      <trkpt lat="48.67184" lon="2.12499">
        <ele>110</ele>
        <time>2026-01-30T10:35:11Z</time>
      </trkpt>
      <trkpt lat="48.67187" lon="2.12507">
        <ele>111.2</ele>
        <time>2026-01-30T10:35:12Z</time>
      </trkpt>
      <trkpt lat="48.67187" lon="2.12516">
        <ele>111.2</ele>
        <time>2026-01-30T10:35:13Z</time>
      </trkpt>
      <trkpt lat="48.67185" lon="2.12525">
        <ele>111.2</ele>
        <time>2026-01-30T10:35:14Z</time>
      </trkpt>
      <trkpt lat="48.67182" lon="2.12532">
        <ele>110.2</ele>
        <time>2026-01-30T10:35:15Z</time>
      </trkpt>
      <trkpt lat="48.67178" lon="2.12539">
        <ele>110.6</ele>
        <time>2026-01-30T10:35:16Z</time>
      </trkpt>
      <trkpt lat="48.67173" lon="2.12545">
        <ele>110.6</ele>
        <time>2026-01-30T10:35:17Z</time>
      </trkpt>
      <trkpt lat="48.67169" lon="2.12552">
        <ele>110.6</ele>
        <time>2026-01-30T10:35:18Z</time>
      </trkpt>
      <trkpt lat="48.67165" lon="2.12559">
        <ele>109.6</ele>
        <time>2026-01-30T10:35:19Z</time>
      </trkpt>
      <trkpt lat="48.6716" lon="2.12566">
        <ele>106.6</ele>
        <time>2026-01-30T10:35:20Z</time>
      </trkpt>
      <trkpt lat="48.67156" lon="2.12572">
        <ele>106.6</ele>
        <time>2026-01-30T10:35:21Z</time>
      </trkpt>
      <trkpt lat="48.67151" lon="2.12579">
        <ele>106.6</ele>
        <time>2026-01-30T10:35:22Z</time>
      </trkpt>
      <trkpt lat="48.67147" lon="2.12586">
        <ele>107.6</ele>
        <time>2026-01-30T10:35:23Z</time>
      </trkpt>
      <trkpt lat="48.67143" lon="2.12593">
        <ele>109.4</ele>
        <time>2026-01-30T10:35:24Z</time>
      </trkpt>
      <trkpt lat="48.67138" lon="2.126">
        <ele>109.4</ele>
        <time>2026-01-30T10:35:25Z</time>
      </trkpt>
      <trkpt lat="48.67133" lon="2.12607">
        <ele>109.4</ele>
        <time>2026-01-30T10:35:26Z</time>
      </trkpt>
      <trkpt lat="48.67128" lon="2.12615">
        <ele>109.4</ele>
        <time>2026-01-30T10:35:27Z</time>
      </trkpt>
      <trkpt lat="48.67123" lon="2.12622">
        <ele>108.4</ele>
        <time>2026-01-30T10:35:28Z</time>
      </trkpt>
      <trkpt lat="48.67118" lon="2.1263">
        <ele>108.4</ele>
        <time>2026-01-30T10:35:29Z</time>
      </trkpt>
      <trkpt lat="48.67113" lon="2.12638">
        <ele>108.4</ele>
        <time>2026-01-30T10:35:30Z</time>
      </trkpt>
      <trkpt lat="48.67108" lon="2.12645">
        <ele>107.6</ele>
        <time>2026-01-30T10:35:31Z</time>
      </trkpt>
      <trkpt lat="48.67103" lon="2.12653">
        <ele>107.2</ele>
        <time>2026-01-30T10:35:32Z</time>
      </trkpt>
      <trkpt lat="48.67097" lon="2.1266">
        <ele>107.2</ele>
        <time>2026-01-30T10:35:33Z</time>
      </trkpt>
      <trkpt lat="48.67092" lon="2.12667">
        <ele>107.2</ele>
        <time>2026-01-30T10:35:34Z</time>
      </trkpt>
      <trkpt lat="48.67087" lon="2.12675">
        <ele>107.2</ele>
        <time>2026-01-30T10:35:35Z</time>
      </trkpt>
      <trkpt lat="48.67082" lon="2.12683">
        <ele>106.6</ele>
        <time>2026-01-30T10:35:36Z</time>
      </trkpt>
      <trkpt lat="48.67077" lon="2.12691">
        <ele>106.6</ele>
        <time>2026-01-30T10:35:37Z</time>
      </trkpt>
      <trkpt lat="48.67072" lon="2.12698">
        <ele>106.6</ele>
        <time>2026-01-30T10:35:38Z</time>
      </trkpt>
      <trkpt lat="48.67067" lon="2.12705">
        <ele>106.2</ele>
        <time>2026-01-30T10:35:39Z</time>
      </trkpt>
      <trkpt lat="48.67062" lon="2.12713">
        <ele>106.6</ele>
        <time>2026-01-30T10:35:40Z</time>
      </trkpt>
      <trkpt lat="48.67057" lon="2.1272">
        <ele>106.6</ele>
        <time>2026-01-30T10:35:41Z</time>
      </trkpt>
      <trkpt lat="48.67052" lon="2.12727">
        <ele>106.6</ele>
        <time>2026-01-30T10:35:42Z</time>
      </trkpt>
      <trkpt lat="48.67047" lon="2.12734">
        <ele>106.6</ele>
        <time>2026-01-30T10:35:43Z</time>
      </trkpt>
      <trkpt lat="48.67043" lon="2.12741">
        <ele>108.4</ele>
        <time>2026-01-30T10:35:44Z</time>
      </trkpt>
      <trkpt lat="48.6704" lon="2.12748">
        <ele>108.4</ele>
        <time>2026-01-30T10:35:45Z</time>
      </trkpt>
      <trkpt lat="48.67037" lon="2.12756">
        <ele>108.4</ele>
        <time>2026-01-30T10:35:46Z</time>
      </trkpt>
      <trkpt lat="48.67035" lon="2.12764">
        <ele>108.6</ele>
        <time>2026-01-30T10:35:47Z</time>
      </trkpt>
      <trkpt lat="48.67032" lon="2.12773">
        <ele>109.2</ele>
        <time>2026-01-30T10:35:48Z</time>
      </trkpt>
      <trkpt lat="48.67028" lon="2.12781">
        <ele>109.2</ele>
        <time>2026-01-30T10:35:49Z</time>
      </trkpt>
      <trkpt lat="48.67024" lon="2.12789">
        <ele>109.2</ele>
        <time>2026-01-30T10:35:50Z</time>
      </trkpt>
      <trkpt lat="48.67019" lon="2.12797">
        <ele>108.2</ele>
        <time>2026-01-30T10:35:51Z</time>
      </trkpt>
      <trkpt lat="48.67014" lon="2.12805">
        <ele>108</ele>
        <time>2026-01-30T10:35:52Z</time>
      </trkpt>
      <trkpt lat="48.6701" lon="2.12813">
        <ele>108</ele>
        <time>2026-01-30T10:35:53Z</time>
      </trkpt>
      <trkpt lat="48.67005" lon="2.1282">
        <ele>108</ele>
        <time>2026-01-30T10:35:54Z</time>
      </trkpt>
      <trkpt lat="48.67" lon="2.12829">
        <ele>108</ele>
        <time>2026-01-30T10:35:55Z</time>
      </trkpt>
      <trkpt lat="48.66995" lon="2.12837">
        <ele>107.4</ele>
        <time>2026-01-30T10:35:56Z</time>
      </trkpt>
      <trkpt lat="48.6699" lon="2.12845">
        <ele>107.4</ele>
        <time>2026-01-30T10:35:57Z</time>
      </trkpt>
      <trkpt lat="48.66985" lon="2.12853">
        <ele>107.4</ele>
        <time>2026-01-30T10:35:58Z</time>
      </trkpt>
      <trkpt lat="48.6698" lon="2.12861">
        <ele>107.4</ele>
        <time>2026-01-30T10:35:59Z</time>
      </trkpt>
      <trkpt lat="48.66974" lon="2.12869">
        <ele>106.4</ele>
        <time>2026-01-30T10:36:00Z</time>
      </trkpt>
      <trkpt lat="48.66969" lon="2.12877">
        <ele>106.4</ele>
        <time>2026-01-30T10:36:01Z</time>
      </trkpt>
      <trkpt lat="48.66963" lon="2.12884">
        <ele>106.4</ele>
        <time>2026-01-30T10:36:02Z</time>
      </trkpt>
      <trkpt lat="48.66956" lon="2.12891">
        <ele>106.4</ele>
        <time>2026-01-30T10:36:03Z</time>
      </trkpt>
      <trkpt lat="48.66949" lon="2.12896">
        <ele>105.6</ele>
        <time>2026-01-30T10:36:04Z</time>
      </trkpt>
      <trkpt lat="48.66943" lon="2.12902">
        <ele>105.6</ele>
        <time>2026-01-30T10:36:05Z</time>
      </trkpt>
      <trkpt lat="48.66936" lon="2.12906">
        <ele>105.6</ele>
        <time>2026-01-30T10:36:06Z</time>
      </trkpt>
      <trkpt lat="48.66928" lon="2.1291">
        <ele>104.6</ele>
        <time>2026-01-30T10:36:07Z</time>
      </trkpt>
      <trkpt lat="48.6692" lon="2.12912">
        <ele>102.8</ele>
        <time>2026-01-30T10:36:08Z</time>
      </trkpt>
      <trkpt lat="48.66912" lon="2.12913">
        <ele>102.8</ele>
        <time>2026-01-30T10:36:09Z</time>
      </trkpt>
      <trkpt lat="48.66903" lon="2.12913">
        <ele>102.8</ele>
        <time>2026-01-30T10:36:10Z</time>
      </trkpt>
      <trkpt lat="48.66894" lon="2.12912">
        <ele>101.8</ele>
        <time>2026-01-30T10:36:11Z</time>
      </trkpt>
      <trkpt lat="48.66885" lon="2.1291">
        <ele>98.6</ele>
        <time>2026-01-30T10:36:12Z</time>
      </trkpt>
      <trkpt lat="48.66875" lon="2.12907">
        <ele>98.6</ele>
        <time>2026-01-30T10:36:13Z</time>
      </trkpt>
      <trkpt lat="48.66866" lon="2.12904">
        <ele>98.6</ele>
        <time>2026-01-30T10:36:14Z</time>
      </trkpt>
      <trkpt lat="48.66856" lon="2.129">
        <ele>97.6</ele>
        <time>2026-01-30T10:36:15Z</time>
      </trkpt>
      <trkpt lat="48.66847" lon="2.12895">
        <ele>95.8</ele>
        <time>2026-01-30T10:36:16Z</time>
      </trkpt>
      <trkpt lat="48.66837" lon="2.12891">
        <ele>95.8</ele>
        <time>2026-01-30T10:36:17Z</time>
      </trkpt>
      <trkpt lat="48.66827" lon="2.12887">
        <ele>95.8</ele>
        <time>2026-01-30T10:36:18Z</time>
      </trkpt>
      <trkpt lat="48.66818" lon="2.12882">
        <ele>95.8</ele>
        <time>2026-01-30T10:36:19Z</time>
      </trkpt>
      <trkpt lat="48.66808" lon="2.12878">
        <ele>93.6</ele>
        <time>2026-01-30T10:36:20Z</time>
      </trkpt>
      <trkpt lat="48.66798" lon="2.12874">
        <ele>93.6</ele>
        <time>2026-01-30T10:36:21Z</time>
      </trkpt>
      <trkpt lat="48.66788" lon="2.1287">
        <ele>93.6</ele>
        <time>2026-01-30T10:36:22Z</time>
      </trkpt>
      <trkpt lat="48.66779" lon="2.12866">
        <ele>92.8</ele>
        <time>2026-01-30T10:36:23Z</time>
      </trkpt>
      <trkpt lat="48.6677" lon="2.12862">
        <ele>92.6</ele>
        <time>2026-01-30T10:36:24Z</time>
      </trkpt>
      <trkpt lat="48.66761" lon="2.12858">
        <ele>92.6</ele>
        <time>2026-01-30T10:36:25Z</time>
      </trkpt>
      <trkpt lat="48.66752" lon="2.12854">
        <ele>92.6</ele>
        <time>2026-01-30T10:36:26Z</time>
      </trkpt>
      <trkpt lat="48.66744" lon="2.12851">
        <ele>93.6</ele>
        <time>2026-01-30T10:36:27Z</time>
      </trkpt>
      <trkpt lat="48.66736" lon="2.12847">
        <ele>94.8</ele>
        <time>2026-01-30T10:36:28Z</time>
      </trkpt>
      <trkpt lat="48.66728" lon="2.12844">
        <ele>94.8</ele>
        <time>2026-01-30T10:36:29Z</time>
      </trkpt>
      <trkpt lat="48.66721" lon="2.1284">
        <ele>94.8</ele>
        <time>2026-01-30T10:36:30Z</time>
      </trkpt>
      <trkpt lat="48.66713" lon="2.12837">
        <ele>94.2</ele>
        <time>2026-01-30T10:36:31Z</time>
      </trkpt>
      <trkpt lat="48.66705" lon="2.12833">
        <ele>94.8</ele>
        <time>2026-01-30T10:36:32Z</time>
      </trkpt>
      <trkpt lat="48.66698" lon="2.1283">
        <ele>94.8</ele>
        <time>2026-01-30T10:36:33Z</time>
      </trkpt>
      <trkpt lat="48.6669" lon="2.12827">
        <ele>94.8</ele>
        <time>2026-01-30T10:36:34Z</time>
      </trkpt>
      <trkpt lat="48.66683" lon="2.12824">
        <ele>94.8</ele>
        <time>2026-01-30T10:36:35Z</time>
      </trkpt>
      <trkpt lat="48.66675" lon="2.12821">
        <ele>94.6</ele>
        <time>2026-01-30T10:36:36Z</time>
      </trkpt>
      <trkpt lat="48.66668" lon="2.12818">
        <ele>94.6</ele>
        <time>2026-01-30T10:36:37Z</time>
      </trkpt>
      <trkpt lat="48.66661" lon="2.12815">
        <ele>94.6</ele>
        <time>2026-01-30T10:36:38Z</time>
      </trkpt>
      <trkpt lat="48.66654" lon="2.12811">
        <ele>94.6</ele>
        <time>2026-01-30T10:36:39Z</time>
      </trkpt>
      <trkpt lat="48.66647" lon="2.12808">
        <ele>93.6</ele>
        <time>2026-01-30T10:36:40Z</time>
      </trkpt>
      <trkpt lat="48.6664" lon="2.12805">
        <ele>93.6</ele>
        <time>2026-01-30T10:36:41Z</time>
      </trkpt>
      <trkpt lat="48.66633" lon="2.12802">
        <ele>93.6</ele>
        <time>2026-01-30T10:36:42Z</time>
      </trkpt>
      <trkpt lat="48.66626" lon="2.12799">
        <ele>94.6</ele>
        <time>2026-01-30T10:36:43Z</time>
      </trkpt>
      <trkpt lat="48.6662" lon="2.12796">
        <ele>95.2</ele>
        <time>2026-01-30T10:36:44Z</time>
      </trkpt>
      <trkpt lat="48.66614" lon="2.12794">
        <ele>95.2</ele>
        <time>2026-01-30T10:36:45Z</time>
      </trkpt>
      <trkpt lat="48.66608" lon="2.12791">
        <ele>95.2</ele>
        <time>2026-01-30T10:36:46Z</time>
      </trkpt>
      <trkpt lat="48.66602" lon="2.12789">
        <ele>95.2</ele>
        <time>2026-01-30T10:36:47Z</time>
      </trkpt>
      <trkpt lat="48.66597" lon="2.12787">
        <ele>96.2</ele>
        <time>2026-01-30T10:36:48Z</time>
      </trkpt>
      <trkpt lat="48.66591" lon="2.12785">
        <ele>96.2</ele>
        <time>2026-01-30T10:36:49Z</time>
      </trkpt>
      <trkpt lat="48.66586" lon="2.12782">
        <ele>96.2</ele>
        <time>2026-01-30T10:36:50Z</time>
      </trkpt>
      <trkpt lat="48.66581" lon="2.1278">
        <ele>96.2</ele>
        <time>2026-01-30T10:36:51Z</time>
      </trkpt>
      <trkpt lat="48.66576" lon="2.12778">
        <ele>96.8</ele>
        <time>2026-01-30T10:36:52Z</time>
      </trkpt>
      <trkpt lat="48.66571" lon="2.12776">
        <ele>96.8</ele>
        <time>2026-01-30T10:36:53Z</time>
      </trkpt>
      <trkpt lat="48.66566" lon="2.12774">
        <ele>96.8</ele>
        <time>2026-01-30T10:36:54Z</time>
      </trkpt>
      <trkpt lat="48.66561" lon="2.12771">
        <ele>96.8</ele>
        <time>2026-01-30T10:36:55Z</time>
      </trkpt>
      <trkpt lat="48.66556" lon="2.12769">
        <ele>97.4</ele>
        <time>2026-01-30T10:36:56Z</time>
      </trkpt>
      <trkpt lat="48.66552" lon="2.12767">
        <ele>97.4</ele>
        <time>2026-01-30T10:36:57Z</time>
      </trkpt>
      <trkpt lat="48.66547" lon="2.12764">
        <ele>97.4</ele>
        <time>2026-01-30T10:36:58Z</time>
      </trkpt>
      <trkpt lat="48.66542" lon="2.12762">
        <ele>98</ele>
        <time>2026-01-30T10:36:59Z</time>
      </trkpt>
      <trkpt lat="48.66537" lon="2.12761">
        <ele>98</ele>
        <time>2026-01-30T10:37:00Z</time>
      </trkpt>
      <trkpt lat="48.66533" lon="2.12759">
        <ele>98</ele>
        <time>2026-01-30T10:37:01Z</time>
      </trkpt>
      <trkpt lat="48.66528" lon="2.12757">
        <ele>98</ele>
        <time>2026-01-30T10:37:02Z</time>
      </trkpt>
      <trkpt lat="48.66524" lon="2.12755">
        <ele>98.4</ele>
        <time>2026-01-30T10:37:03Z</time>
      </trkpt>
      <trkpt lat="48.66519" lon="2.12753">
        <ele>98.4</ele>
        <time>2026-01-30T10:37:04Z</time>
      </trkpt>
      <trkpt lat="48.66514" lon="2.12751">
        <ele>98.4</ele>
        <time>2026-01-30T10:37:05Z</time>
      </trkpt>
      <trkpt lat="48.66509" lon="2.12749">
        <ele>98.4</ele>
        <time>2026-01-30T10:37:06Z</time>
      </trkpt>
      <trkpt lat="48.66505" lon="2.12746">
        <ele>98.6</ele>
        <time>2026-01-30T10:37:07Z</time>
      </trkpt>
      <trkpt lat="48.665" lon="2.12744">
        <ele>99.6</ele>
        <time>2026-01-30T10:37:08Z</time>
      </trkpt>
      <trkpt lat="48.66495" lon="2.12742">
        <ele>99.6</ele>
        <time>2026-01-30T10:37:09Z</time>
      </trkpt>
      <trkpt lat="48.6649" lon="2.1274">
        <ele>99.6</ele>
        <time>2026-01-30T10:37:10Z</time>
      </trkpt>
      <trkpt lat="48.66486" lon="2.12738">
        <ele>99.2</ele>
        <time>2026-01-30T10:37:11Z</time>
      </trkpt>
      <trkpt lat="48.66481" lon="2.12736">
        <ele>98</ele>
        <time>2026-01-30T10:37:12Z</time>
      </trkpt>
      <trkpt lat="48.66477" lon="2.12734">
        <ele>98</ele>
        <time>2026-01-30T10:37:13Z</time>
      </trkpt>
      <trkpt lat="48.66472" lon="2.12732">
        <ele>98</ele>
        <time>2026-01-30T10:37:14Z</time>
      </trkpt>
      <trkpt lat="48.66468" lon="2.1273">
        <ele>99</ele>
        <time>2026-01-30T10:37:15Z</time>
      </trkpt>
      <trkpt lat="48.66464" lon="2.12729">
        <ele>99.6</ele>
        <time>2026-01-30T10:37:16Z</time>
      </trkpt>
      <trkpt lat="48.6646" lon="2.12726">
        <ele>99.6</ele>
        <time>2026-01-30T10:37:17Z</time>
      </trkpt>
      <trkpt lat="48.66455" lon="2.12725">
        <ele>99.6</ele>
        <time>2026-01-30T10:37:18Z</time>
      </trkpt>
      <trkpt lat="48.66451" lon="2.12723">
        <ele>99.6</ele>
        <time>2026-01-30T10:37:19Z</time>
      </trkpt>
      <trkpt lat="48.66447" lon="2.12721">
        <ele>99.8</ele>
        <time>2026-01-30T10:37:20Z</time>
      </trkpt>
      <trkpt lat="48.66442" lon="2.12719">
        <ele>99.8</ele>
        <time>2026-01-30T10:37:21Z</time>
      </trkpt>
      <trkpt lat="48.66438" lon="2.12717">
        <ele>99.8</ele>
        <time>2026-01-30T10:37:22Z</time>
      </trkpt>
      <trkpt lat="48.66434" lon="2.12715">
        <ele>99.8</ele>
        <time>2026-01-30T10:37:23Z</time>
      </trkpt>
      <trkpt lat="48.66429" lon="2.12713">
        <ele>100.8</ele>
        <time>2026-01-30T10:37:24Z</time>
      </trkpt>
      <trkpt lat="48.66425" lon="2.12712">
        <ele>100.8</ele>
        <time>2026-01-30T10:37:25Z</time>
      </trkpt>
      <trkpt lat="48.66421" lon="2.1271">
        <ele>100.8</ele>
        <time>2026-01-30T10:37:26Z</time>
      </trkpt>
      <trkpt lat="48.66416" lon="2.12708">
        <ele>100.8</ele>
        <time>2026-01-30T10:37:27Z</time>
      </trkpt>
      <trkpt lat="48.66412" lon="2.12706">
        <ele>101</ele>
        <time>2026-01-30T10:37:28Z</time>
      </trkpt>
      <trkpt lat="48.66408" lon="2.12704">
        <ele>101</ele>
        <time>2026-01-30T10:37:29Z</time>
      </trkpt>
      <trkpt lat="48.66403" lon="2.12702">
        <ele>101</ele>
        <time>2026-01-30T10:37:30Z</time>
      </trkpt>
      <trkpt lat="48.66399" lon="2.127">
        <ele>101</ele>
        <time>2026-01-30T10:37:31Z</time>
      </trkpt>
      <trkpt lat="48.66395" lon="2.12698">
        <ele>101.6</ele>
        <time>2026-01-30T10:37:32Z</time>
      </trkpt>
      <trkpt lat="48.6639" lon="2.12696">
        <ele>101.6</ele>
        <time>2026-01-30T10:37:33Z</time>
      </trkpt>
      <trkpt lat="48.66386" lon="2.12694">
        <ele>101.6</ele>
        <time>2026-01-30T10:37:34Z</time>
      </trkpt>
      <trkpt lat="48.66381" lon="2.12692">
        <ele>101.6</ele>
        <time>2026-01-30T10:37:35Z</time>
      </trkpt>
      <trkpt lat="48.66377" lon="2.1269">
        <ele>102.4</ele>
        <time>2026-01-30T10:37:36Z</time>
      </trkpt>
      <trkpt lat="48.66372" lon="2.12688">
        <ele>102.4</ele>
        <time>2026-01-30T10:37:37Z</time>
      </trkpt>
      <trkpt lat="48.66368" lon="2.12687">
        <ele>102.4</ele>
        <time>2026-01-30T10:37:38Z</time>
      </trkpt>
      <trkpt lat="48.66363" lon="2.12685">
        <ele>101.6</ele>
        <time>2026-01-30T10:37:39Z</time>
      </trkpt>
      <trkpt lat="48.66359" lon="2.12683">
        <ele>102</ele>
        <time>2026-01-30T10:37:40Z</time>
      </trkpt>
      <trkpt lat="48.66354" lon="2.12681">
        <ele>102</ele>
        <time>2026-01-30T10:37:41Z</time>
      </trkpt>
      <trkpt lat="48.6635" lon="2.12679">
        <ele>102</ele>
        <time>2026-01-30T10:37:42Z</time>
      </trkpt>
      <trkpt lat="48.66345" lon="2.12678">
        <ele>101.8</ele>
        <time>2026-01-30T10:37:43Z</time>
      </trkpt>
      <trkpt lat="48.66341" lon="2.12676">
        <ele>102</ele>
        <time>2026-01-30T10:37:44Z</time>
      </trkpt>
      <trkpt lat="48.66337" lon="2.12674">
        <ele>102</ele>
        <time>2026-01-30T10:37:45Z</time>
      </trkpt>
      <trkpt lat="48.66332" lon="2.12672">
        <ele>102</ele>
        <time>2026-01-30T10:37:46Z</time>
      </trkpt>
      <trkpt lat="48.66328" lon="2.1267">
        <ele>102</ele>
        <time>2026-01-30T10:37:47Z</time>
      </trkpt>
      <trkpt lat="48.66324" lon="2.12668">
        <ele>100.8</ele>
        <time>2026-01-30T10:37:48Z</time>
      </trkpt>
      <trkpt lat="48.66319" lon="2.12667">
        <ele>100.8</ele>
        <time>2026-01-30T10:37:49Z</time>
      </trkpt>
      <trkpt lat="48.66315" lon="2.12665">
        <ele>100.8</ele>
        <time>2026-01-30T10:37:50Z</time>
      </trkpt>
      <trkpt lat="48.66311" lon="2.12663">
        <ele>101.8</ele>
        <time>2026-01-30T10:37:51Z</time>
      </trkpt>
      <trkpt lat="48.66307" lon="2.12661">
        <ele>102.6</ele>
        <time>2026-01-30T10:37:52Z</time>
      </trkpt>
      <trkpt lat="48.66302" lon="2.12659">
        <ele>102.6</ele>
        <time>2026-01-30T10:37:53Z</time>
      </trkpt>
      <trkpt lat="48.66298" lon="2.12657">
        <ele>102.6</ele>
        <time>2026-01-30T10:37:54Z</time>
      </trkpt>
      <trkpt lat="48.66294" lon="2.12656">
        <ele>103.4</ele>
        <time>2026-01-30T10:37:55Z</time>
      </trkpt>
      <trkpt lat="48.66289" lon="2.12654">
        <ele>103.6</ele>
        <time>2026-01-30T10:37:56Z</time>
      </trkpt>
      <trkpt lat="48.66285" lon="2.12652">
        <ele>103.6</ele>
        <time>2026-01-30T10:37:57Z</time>
      </trkpt>
      <trkpt lat="48.66281" lon="2.1265">
        <ele>103.6</ele>
        <time>2026-01-30T10:37:58Z</time>
      </trkpt>
      <trkpt lat="48.66276" lon="2.12648">
        <ele>103.6</ele>
        <time>2026-01-30T10:37:59Z</time>
      </trkpt>
      <trkpt lat="48.66272" lon="2.12646">
        <ele>103</ele>
        <time>2026-01-30T10:38:00Z</time>
      </trkpt>
      <trkpt lat="48.66268" lon="2.12644">
        <ele>103</ele>
        <time>2026-01-30T10:38:01Z</time>
      </trkpt>
      <trkpt lat="48.66264" lon="2.12643">
        <ele>103</ele>
        <time>2026-01-30T10:38:02Z</time>
      </trkpt>
      <trkpt lat="48.66259" lon="2.12641">
        <ele>103.6</ele>
        <time>2026-01-30T10:38:03Z</time>
      </trkpt>
      <trkpt lat="48.66255" lon="2.12639">
        <ele>104.2</ele>
        <time>2026-01-30T10:38:04Z</time>
      </trkpt>
      <trkpt lat="48.66251" lon="2.12637">
        <ele>104.2</ele>
        <time>2026-01-30T10:38:05Z</time>
      </trkpt>
      <trkpt lat="48.66247" lon="2.12635">
        <ele>104.2</ele>
        <time>2026-01-30T10:38:06Z</time>
      </trkpt>
      <trkpt lat="48.66242" lon="2.12633">
        <ele>104.2</ele>
        <time>2026-01-30T10:38:07Z</time>
      </trkpt>
      <trkpt lat="48.66238" lon="2.12632">
        <ele>105</ele>
        <time>2026-01-30T10:38:08Z</time>
      </trkpt>
      <trkpt lat="48.66235" lon="2.1263">
        <ele>105</ele>
        <time>2026-01-30T10:38:09Z</time>
      </trkpt>
      <trkpt lat="48.66231" lon="2.12628">
        <ele>105</ele>
        <time>2026-01-30T10:38:10Z</time>
      </trkpt>
      <trkpt lat="48.66226" lon="2.12626">
        <ele>104.8</ele>
        <time>2026-01-30T10:38:11Z</time>
      </trkpt>
      <trkpt lat="48.66222" lon="2.12624">
        <ele>105.6</ele>
        <time>2026-01-30T10:38:12Z</time>
      </trkpt>
      <trkpt lat="48.66218" lon="2.12623">
        <ele>105.6</ele>
        <time>2026-01-30T10:38:13Z</time>
      </trkpt>
      <trkpt lat="48.66214" lon="2.12621">
        <ele>105.6</ele>
        <time>2026-01-30T10:38:14Z</time>
      </trkpt>
      <trkpt lat="48.6621" lon="2.12619">
        <ele>105.6</ele>
        <time>2026-01-30T10:38:15Z</time>
      </trkpt>
      <trkpt lat="48.66206" lon="2.12617">
        <ele>105.8</ele>
        <time>2026-01-30T10:38:16Z</time>
      </trkpt>
      <trkpt lat="48.66202" lon="2.12616">
        <ele>105.8</ele>
        <time>2026-01-30T10:38:17Z</time>
      </trkpt>
      <trkpt lat="48.66198" lon="2.12614">
        <ele>105.8</ele>
        <time>2026-01-30T10:38:18Z</time>
      </trkpt>
      <trkpt lat="48.66194" lon="2.12612">
        <ele>105.2</ele>
        <time>2026-01-30T10:38:19Z</time>
      </trkpt>
      <trkpt lat="48.6619" lon="2.1261">
        <ele>105.8</ele>
        <time>2026-01-30T10:38:20Z</time>
      </trkpt>
      <trkpt lat="48.66186" lon="2.12609">
        <ele>105.8</ele>
        <time>2026-01-30T10:38:21Z</time>
      </trkpt>
      <trkpt lat="48.66181" lon="2.12607">
        <ele>105.8</ele>
        <time>2026-01-30T10:38:22Z</time>
      </trkpt>
      <trkpt lat="48.66177" lon="2.12605">
        <ele>106.4</ele>
        <time>2026-01-30T10:38:23Z</time>
      </trkpt>
      <trkpt lat="48.66173" lon="2.12603">
        <ele>106.6</ele>
        <time>2026-01-30T10:38:24Z</time>
      </trkpt>
      <trkpt lat="48.66169" lon="2.12602">
        <ele>106.6</ele>
        <time>2026-01-30T10:38:25Z</time>
      </trkpt>
      <trkpt lat="48.66165" lon="2.126">
        <ele>106.6</ele>
        <time>2026-01-30T10:38:26Z</time>
      </trkpt>
      <trkpt lat="48.66162" lon="2.12598">
        <ele>106.6</ele>
        <time>2026-01-30T10:38:27Z</time>
      </trkpt>
      <trkpt lat="48.66158" lon="2.12597">
        <ele>105.8</ele>
        <time>2026-01-30T10:38:28Z</time>
      </trkpt>
      <trkpt lat="48.66154" lon="2.12595">
        <ele>105.8</ele>
        <time>2026-01-30T10:38:29Z</time>
      </trkpt>
      <trkpt lat="48.6615" lon="2.12593">
        <ele>105.8</ele>
        <time>2026-01-30T10:38:30Z</time>
      </trkpt>
      <trkpt lat="48.66146" lon="2.12592">
        <ele>106.4</ele>
        <time>2026-01-30T10:38:31Z</time>
      </trkpt>
      <trkpt lat="48.66142" lon="2.1259">
        <ele>107</ele>
        <time>2026-01-30T10:38:32Z</time>
      </trkpt>
      <trkpt lat="48.66138" lon="2.12588">
        <ele>107</ele>
        <time>2026-01-30T10:38:33Z</time>
      </trkpt>
      <trkpt lat="48.66134" lon="2.12587">
        <ele>107</ele>
        <time>2026-01-30T10:38:34Z</time>
      </trkpt>
      <trkpt lat="48.6613" lon="2.12585">
        <ele>107</ele>
        <time>2026-01-30T10:38:35Z</time>
      </trkpt>
      <trkpt lat="48.66127" lon="2.12583">
        <ele>106.4</ele>
        <time>2026-01-30T10:38:36Z</time>
      </trkpt>
      <trkpt lat="48.66123" lon="2.12582">
        <ele>106.4</ele>
        <time>2026-01-30T10:38:37Z</time>
      </trkpt>
      <trkpt lat="48.66119" lon="2.1258">
        <ele>106.4</ele>
        <time>2026-01-30T10:38:38Z</time>
      </trkpt>
      <trkpt lat="48.66115" lon="2.12579">
        <ele>106.4</ele>
        <time>2026-01-30T10:38:39Z</time>
      </trkpt>
      <trkpt lat="48.66111" lon="2.12577">
        <ele>107.6</ele>
        <time>2026-01-30T10:38:40Z</time>
      </trkpt>
      <trkpt lat="48.66107" lon="2.12575">
        <ele>107.6</ele>
        <time>2026-01-30T10:38:41Z</time>
      </trkpt>
      <trkpt lat="48.66103" lon="2.12573">
        <ele>107.6</ele>
        <time>2026-01-30T10:38:42Z</time>
      </trkpt>
      <trkpt lat="48.66099" lon="2.12572">
        <ele>107.6</ele>
        <time>2026-01-30T10:38:43Z</time>
      </trkpt>
      <trkpt lat="48.66095" lon="2.1257">
        <ele>106.8</ele>
        <time>2026-01-30T10:38:44Z</time>
      </trkpt>
      <trkpt lat="48.66091" lon="2.12568">
        <ele>106.8</ele>
        <time>2026-01-30T10:38:45Z</time>
      </trkpt>
      <trkpt lat="48.66087" lon="2.12566">
        <ele>106.8</ele>
        <time>2026-01-30T10:38:46Z</time>
      </trkpt>
      <trkpt lat="48.66083" lon="2.12564">
        <ele>107.8</ele>
        <time>2026-01-30T10:38:47Z</time>
      </trkpt>
      <trkpt lat="48.66079" lon="2.12563">
        <ele>109.4</ele>
        <time>2026-01-30T10:38:48Z</time>
      </trkpt>
      <trkpt lat="48.66075" lon="2.12561">
        <ele>109.4</ele>
        <time>2026-01-30T10:38:49Z</time>
      </trkpt>
      <trkpt lat="48.6607" lon="2.12559">
        <ele>109.4</ele>
        <time>2026-01-30T10:38:50Z</time>
      </trkpt>
      <trkpt lat="48.66066" lon="2.12557">
        <ele>109.4</ele>
        <time>2026-01-30T10:38:51Z</time>
      </trkpt>
      <trkpt lat="48.66062" lon="2.12555">
        <ele>109.2</ele>
        <time>2026-01-30T10:38:52Z</time>
      </trkpt>
      <trkpt lat="48.66058" lon="2.12554">
        <ele>109.2</ele>
        <time>2026-01-30T10:38:53Z</time>
      </trkpt>
      <trkpt lat="48.66054" lon="2.12552">
        <ele>109.2</ele>
        <time>2026-01-30T10:38:54Z</time>
      </trkpt>
      <trkpt lat="48.6605" lon="2.1255">
        <ele>110</ele>
        <time>2026-01-30T10:38:55Z</time>
      </trkpt>
      <trkpt lat="48.66046" lon="2.12548">
        <ele>110</ele>
        <time>2026-01-30T10:38:56Z</time>
      </trkpt>
      <trkpt lat="48.66042" lon="2.12546">
        <ele>110</ele>
        <time>2026-01-30T10:38:57Z</time>
      </trkpt>
      <trkpt lat="48.66038" lon="2.12545">
        <ele>110</ele>
        <time>2026-01-30T10:38:58Z</time>
      </trkpt>
      <trkpt lat="48.66033" lon="2.12543">
        <ele>110</ele>
        <time>2026-01-30T10:38:59Z</time>
      </trkpt>
      <trkpt lat="48.66029" lon="2.12541">
        <ele>110</ele>
        <time>2026-01-30T10:39:00Z</time>
      </trkpt>
      <trkpt lat="48.66025" lon="2.12539">
        <ele>110</ele>
        <time>2026-01-30T10:39:01Z</time>
      </trkpt>
      <trkpt lat="48.66021" lon="2.12537">
        <ele>110</ele>
        <time>2026-01-30T10:39:02Z</time>
      </trkpt>
      <trkpt lat="48.66016" lon="2.12535">
        <ele>110</ele>
        <time>2026-01-30T10:39:03Z</time>
      </trkpt>
      <trkpt lat="48.66012" lon="2.12533">
        <ele>110.6</ele>
        <time>2026-01-30T10:39:04Z</time>
      </trkpt>
      <trkpt lat="48.66008" lon="2.12532">
        <ele>110.6</ele>
        <time>2026-01-30T10:39:05Z</time>
      </trkpt>
      <trkpt lat="48.66003" lon="2.1253">
        <ele>110.6</ele>
        <time>2026-01-30T10:39:06Z</time>
      </trkpt>
      <trkpt lat="48.65999" lon="2.12528">
        <ele>109.6</ele>
        <time>2026-01-30T10:39:07Z</time>
      </trkpt>
      <trkpt lat="48.65994" lon="2.12526">
        <ele>109.2</ele>
        <time>2026-01-30T10:39:08Z</time>
      </trkpt>
      <trkpt lat="48.6599" lon="2.12524">
        <ele>109.2</ele>
        <time>2026-01-30T10:39:09Z</time>
      </trkpt>
      <trkpt lat="48.65986" lon="2.12522">
        <ele>109.2</ele>
        <time>2026-01-30T10:39:10Z</time>
      </trkpt>
      <trkpt lat="48.65981" lon="2.1252">
        <ele>110.2</ele>
        <time>2026-01-30T10:39:11Z</time>
      </trkpt>
      <trkpt lat="48.65977" lon="2.12518">
        <ele>111</ele>
        <time>2026-01-30T10:39:12Z</time>
      </trkpt>
      <trkpt lat="48.65972" lon="2.12516">
        <ele>111</ele>
        <time>2026-01-30T10:39:13Z</time>
      </trkpt>
      <trkpt lat="48.65968" lon="2.12514">
        <ele>111</ele>
        <time>2026-01-30T10:39:14Z</time>
      </trkpt>
      <trkpt lat="48.65963" lon="2.12512">
        <ele>110.4</ele>
        <time>2026-01-30T10:39:15Z</time>
      </trkpt>
      <trkpt lat="48.65959" lon="2.1251">
        <ele>110.4</ele>
        <time>2026-01-30T10:39:16Z</time>
      </trkpt>
      <trkpt lat="48.65954" lon="2.12508">
        <ele>110.4</ele>
        <time>2026-01-30T10:39:17Z</time>
      </trkpt>
      <trkpt lat="48.65949" lon="2.12506">
        <ele>110.4</ele>
        <time>2026-01-30T10:39:18Z</time>
      </trkpt>
      <trkpt lat="48.65944" lon="2.12504">
        <ele>110.4</ele>
        <time>2026-01-30T10:39:19Z</time>
      </trkpt>
      <trkpt lat="48.6594" lon="2.12502">
        <ele>110.4</ele>
        <time>2026-01-30T10:39:20Z</time>
      </trkpt>
      <trkpt lat="48.65935" lon="2.125">
        <ele>110.4</ele>
        <time>2026-01-30T10:39:21Z</time>
      </trkpt>
      <trkpt lat="48.6593" lon="2.12498">
        <ele>110.4</ele>
        <time>2026-01-30T10:39:22Z</time>
      </trkpt>
      <trkpt lat="48.65925" lon="2.12496">
        <ele>110.4</ele>
        <time>2026-01-30T10:39:23Z</time>
      </trkpt>
      <trkpt lat="48.65921" lon="2.12494">
        <ele>110.6</ele>
        <time>2026-01-30T10:39:24Z</time>
      </trkpt>
      <trkpt lat="48.65916" lon="2.12492">
        <ele>110.6</ele>
        <time>2026-01-30T10:39:25Z</time>
      </trkpt>
      <trkpt lat="48.65911" lon="2.1249">
        <ele>110.6</ele>
        <time>2026-01-30T10:39:26Z</time>
      </trkpt>
      <trkpt lat="48.65907" lon="2.12488">
        <ele>111.2</ele>
        <time>2026-01-30T10:39:27Z</time>
      </trkpt>
      <trkpt lat="48.65902" lon="2.12486">
        <ele>110</ele>
        <time>2026-01-30T10:39:28Z</time>
      </trkpt>
      <trkpt lat="48.65897" lon="2.12484">
        <ele>110</ele>
        <time>2026-01-30T10:39:29Z</time>
      </trkpt>
      <trkpt lat="48.65892" lon="2.12482">
        <ele>110</ele>
        <time>2026-01-30T10:39:30Z</time>
      </trkpt>
      <trkpt lat="48.65888" lon="2.1248">
        <ele>110</ele>
        <time>2026-01-30T10:39:31Z</time>
      </trkpt>
      <trkpt lat="48.65883" lon="2.12478">
        <ele>109.4</ele>
        <time>2026-01-30T10:39:32Z</time>
      </trkpt>
      <trkpt lat="48.65878" lon="2.12476">
        <ele>109.4</ele>
        <time>2026-01-30T10:39:33Z</time>
      </trkpt>
      <trkpt lat="48.65874" lon="2.12474">
        <ele>109.4</ele>
        <time>2026-01-30T10:39:34Z</time>
      </trkpt>
      <trkpt lat="48.65869" lon="2.12472">
        <ele>110.4</ele>
        <time>2026-01-30T10:39:35Z</time>
      </trkpt>
      <trkpt lat="48.65864" lon="2.1247">
        <ele>110.2</ele>
        <time>2026-01-30T10:39:36Z</time>
      </trkpt>
      <trkpt lat="48.65859" lon="2.12468">
        <ele>110.2</ele>
        <time>2026-01-30T10:39:37Z</time>
      </trkpt>
      <trkpt lat="48.65854" lon="2.12467">
        <ele>110.2</ele>
        <time>2026-01-30T10:39:38Z</time>
      </trkpt>
      <trkpt lat="48.65849" lon="2.12465">
        <ele>110.6</ele>
        <time>2026-01-30T10:39:39Z</time>
      </trkpt>
      <trkpt lat="48.65844" lon="2.12463">
        <ele>111</ele>
        <time>2026-01-30T10:39:40Z</time>
      </trkpt>
      <trkpt lat="48.65839" lon="2.12462">
        <ele>111</ele>
        <time>2026-01-30T10:39:41Z</time>
      </trkpt>
      <trkpt lat="48.65834" lon="2.1246">
        <ele>111</ele>
        <time>2026-01-30T10:39:42Z</time>
      </trkpt>
      <trkpt lat="48.65829" lon="2.12459">
        <ele>110.2</ele>
        <time>2026-01-30T10:39:43Z</time>
      </trkpt>
      <trkpt lat="48.65824" lon="2.12457">
        <ele>110.8</ele>
        <time>2026-01-30T10:39:44Z</time>
      </trkpt>
      <trkpt lat="48.65818" lon="2.12456">
        <ele>110.8</ele>
        <time>2026-01-30T10:39:45Z</time>
      </trkpt>
      <trkpt lat="48.65813" lon="2.12455">
        <ele>110.8</ele>
        <time>2026-01-30T10:39:46Z</time>
      </trkpt>
      <trkpt lat="48.65808" lon="2.12453">
        <ele>110.8</ele>
        <time>2026-01-30T10:39:47Z</time>
      </trkpt>
      <trkpt lat="48.65803" lon="2.12452">
        <ele>111</ele>
        <time>2026-01-30T10:39:48Z</time>
      </trkpt>
      <trkpt lat="48.65797" lon="2.12451">
        <ele>111</ele>
        <time>2026-01-30T10:39:49Z</time>
      </trkpt>
      <trkpt lat="48.65792" lon="2.1245">
        <ele>111</ele>
        <time>2026-01-30T10:39:50Z</time>
      </trkpt>
      <trkpt lat="48.65786" lon="2.12449">
        <ele>110.6</ele>
        <time>2026-01-30T10:39:51Z</time>
      </trkpt>
      <trkpt lat="48.65781" lon="2.12448">
        <ele>111.2</ele>
        <time>2026-01-30T10:39:52Z</time>
      </trkpt>
      <trkpt lat="48.65775" lon="2.12448">
        <ele>111.2</ele>
        <time>2026-01-30T10:39:53Z</time>
      </trkpt>
      <trkpt lat="48.6577" lon="2.12447">
        <ele>111.2</ele>
        <time>2026-01-30T10:39:54Z</time>
      </trkpt>
      <trkpt lat="48.65764" lon="2.12446">
        <ele>111.2</ele>
        <time>2026-01-30T10:39:55Z</time>
      </trkpt>
      <trkpt lat="48.65758" lon="2.12445">
        <ele>110.6</ele>
        <time>2026-01-30T10:39:56Z</time>
      </trkpt>
      <trkpt lat="48.65752" lon="2.12444">
        <ele>110.6</ele>
        <time>2026-01-30T10:39:57Z</time>
      </trkpt>
      <trkpt lat="48.65747" lon="2.12444">
        <ele>110.6</ele>
        <time>2026-01-30T10:39:58Z</time>
      </trkpt>
      <trkpt lat="48.65741" lon="2.12443">
        <ele>110.6</ele>
        <time>2026-01-30T10:39:59Z</time>
      </trkpt>
      <trkpt lat="48.65735" lon="2.12442">
        <ele>110</ele>
        <time>2026-01-30T10:40:00Z</time>
      </trkpt>
      <trkpt lat="48.65729" lon="2.12441">
        <ele>110</ele>
        <time>2026-01-30T10:40:01Z</time>
      </trkpt>
      <trkpt lat="48.65723" lon="2.1244">
        <ele>110</ele>
        <time>2026-01-30T10:40:02Z</time>
      </trkpt>
      <trkpt lat="48.65717" lon="2.1244">
        <ele>109</ele>
        <time>2026-01-30T10:40:03Z</time>
      </trkpt>
      <trkpt lat="48.65711" lon="2.12439">
        <ele>109.4</ele>
        <time>2026-01-30T10:40:04Z</time>
      </trkpt>
      <trkpt lat="48.65705" lon="2.12438">
        <ele>109.4</ele>
        <time>2026-01-30T10:40:05Z</time>
      </trkpt>
      <trkpt lat="48.65699" lon="2.12437">
        <ele>109.4</ele>
        <time>2026-01-30T10:40:06Z</time>
      </trkpt>
      <trkpt lat="48.65692" lon="2.12436">
        <ele>109.4</ele>
        <time>2026-01-30T10:40:07Z</time>
      </trkpt>
      <trkpt lat="48.65686" lon="2.12436">
        <ele>108.6</ele>
        <time>2026-01-30T10:40:08Z</time>
      </trkpt>
      <trkpt lat="48.6568" lon="2.12435">
        <ele>108.6</ele>
        <time>2026-01-30T10:40:09Z</time>
      </trkpt>
      <trkpt lat="48.65674" lon="2.12434">
        <ele>108.6</ele>
        <time>2026-01-30T10:40:10Z</time>
      </trkpt>
      <trkpt lat="48.65668" lon="2.12433">
        <ele>108.6</ele>
        <time>2026-01-30T10:40:11Z</time>
      </trkpt>
      <trkpt lat="48.65661" lon="2.12433">
        <ele>108</ele>
        <time>2026-01-30T10:40:12Z</time>
      </trkpt>
      <trkpt lat="48.65655" lon="2.12432">
        <ele>108</ele>
        <time>2026-01-30T10:40:13Z</time>
      </trkpt>
      <trkpt lat="48.65649" lon="2.12431">
        <ele>108</ele>
        <time>2026-01-30T10:40:14Z</time>
      </trkpt>
      <trkpt lat="48.65643" lon="2.1243">
        <ele>108</ele>
        <time>2026-01-30T10:40:15Z</time>
      </trkpt>
      <trkpt lat="48.65637" lon="2.12429">
        <ele>108.2</ele>
        <time>2026-01-30T10:40:16Z</time>
      </trkpt>
      <trkpt lat="48.65631" lon="2.12429">
        <ele>108.2</ele>
        <time>2026-01-30T10:40:17Z</time>
      </trkpt>
      <trkpt lat="48.65625" lon="2.12428">
        <ele>108.2</ele>
        <time>2026-01-30T10:40:18Z</time>
      </trkpt>
      <trkpt lat="48.65619" lon="2.12427">
        <ele>107.8</ele>
        <time>2026-01-30T10:40:19Z</time>
      </trkpt>
      <trkpt lat="48.65612" lon="2.12426">
        <ele>107.4</ele>
        <time>2026-01-30T10:40:20Z</time>
      </trkpt>
      <trkpt lat="48.65606" lon="2.12425">
        <ele>107.4</ele>
        <time>2026-01-30T10:40:21Z</time>
      </trkpt>
      <trkpt lat="48.656" lon="2.12425">
        <ele>107.4</ele>
        <time>2026-01-30T10:40:22Z</time>
      </trkpt>
      <trkpt lat="48.65594" lon="2.12424">
        <ele>108</ele>
        <time>2026-01-30T10:40:23Z</time>
      </trkpt>
      <trkpt lat="48.65588" lon="2.12423">
        <ele>107.2</ele>
        <time>2026-01-30T10:40:24Z</time>
      </trkpt>
      <trkpt lat="48.65582" lon="2.12422">
        <ele>107.2</ele>
        <time>2026-01-30T10:40:25Z</time>
      </trkpt>
      <trkpt lat="48.65576" lon="2.12421">
        <ele>107.2</ele>
        <time>2026-01-30T10:40:26Z</time>
      </trkpt>
      <trkpt lat="48.6557" lon="2.1242">
        <ele>107.2</ele>
        <time>2026-01-30T10:40:27Z</time>
      </trkpt>
      <trkpt lat="48.65564" lon="2.1242">
        <ele>107.8</ele>
        <time>2026-01-30T10:40:28Z</time>
      </trkpt>
      <trkpt lat="48.65558" lon="2.12419">
        <ele>107.8</ele>
        <time>2026-01-30T10:40:29Z</time>
      </trkpt>
      <trkpt lat="48.65552" lon="2.12418">
        <ele>107.8</ele>
        <time>2026-01-30T10:40:30Z</time>
      </trkpt>
      <trkpt lat="48.65545" lon="2.12417">
        <ele>107.4</ele>
        <time>2026-01-30T10:40:31Z</time>
      </trkpt>
      <trkpt lat="48.65539" lon="2.12416">
        <ele>107.4</ele>
        <time>2026-01-30T10:40:32Z</time>
      </trkpt>
      <trkpt lat="48.65533" lon="2.12415">
        <ele>107.4</ele>
        <time>2026-01-30T10:40:33Z</time>
      </trkpt>
      <trkpt lat="48.65527" lon="2.12415">
        <ele>107.4</ele>
        <time>2026-01-30T10:40:34Z</time>
      </trkpt>
      <trkpt lat="48.65521" lon="2.12414">
        <ele>107.8</ele>
        <time>2026-01-30T10:40:35Z</time>
      </trkpt>
      <trkpt lat="48.65515" lon="2.12413">
        <ele>106.2</ele>
        <time>2026-01-30T10:40:36Z</time>
      </trkpt>
      <trkpt lat="48.65509" lon="2.12413">
        <ele>106.2</ele>
        <time>2026-01-30T10:40:37Z</time>
      </trkpt>
      <trkpt lat="48.65503" lon="2.12412">
        <ele>106.2</ele>
        <time>2026-01-30T10:40:38Z</time>
      </trkpt>
      <trkpt lat="48.65497" lon="2.12411">
        <ele>106.2</ele>
        <time>2026-01-30T10:40:39Z</time>
      </trkpt>
      <trkpt lat="48.65491" lon="2.1241">
        <ele>106.2</ele>
        <time>2026-01-30T10:40:40Z</time>
      </trkpt>
      <trkpt lat="48.65485" lon="2.12409">
        <ele>106.2</ele>
        <time>2026-01-30T10:40:41Z</time>
      </trkpt>
      <trkpt lat="48.65479" lon="2.12408">
        <ele>106.2</ele>
        <time>2026-01-30T10:40:42Z</time>
      </trkpt>
      <trkpt lat="48.65473" lon="2.12407">
        <ele>107</ele>
        <time>2026-01-30T10:40:43Z</time>
      </trkpt>
      <trkpt lat="48.65467" lon="2.12407">
        <ele>107.2</ele>
        <time>2026-01-30T10:40:44Z</time>
      </trkpt>
      <trkpt lat="48.65461" lon="2.12405">
        <ele>107.2</ele>
        <time>2026-01-30T10:40:45Z</time>
      </trkpt>
      <trkpt lat="48.65455" lon="2.12404">
        <ele>107.2</ele>
        <time>2026-01-30T10:40:46Z</time>
      </trkpt>
      <trkpt lat="48.65449" lon="2.12403">
        <ele>107.2</ele>
        <time>2026-01-30T10:40:47Z</time>
      </trkpt>
      <trkpt lat="48.65443" lon="2.12401">
        <ele>106.6</ele>
        <time>2026-01-30T10:40:48Z</time>
      </trkpt>
      <trkpt lat="48.65437" lon="2.12399">
        <ele>106.6</ele>
        <time>2026-01-30T10:40:49Z</time>
      </trkpt>
      <trkpt lat="48.65431" lon="2.12397">
        <ele>106.6</ele>
        <time>2026-01-30T10:40:50Z</time>
      </trkpt>
      <trkpt lat="48.65425" lon="2.12395">
        <ele>106.6</ele>
        <time>2026-01-30T10:40:51Z</time>
      </trkpt>
      <trkpt lat="48.65419" lon="2.12393">
        <ele>106.6</ele>
        <time>2026-01-30T10:40:52Z</time>
      </trkpt>
      <trkpt lat="48.65413" lon="2.1239">
        <ele>106.6</ele>
        <time>2026-01-30T10:40:53Z</time>
      </trkpt>
      <trkpt lat="48.65407" lon="2.12387">
        <ele>106.6</ele>
        <time>2026-01-30T10:40:54Z</time>
      </trkpt>
      <trkpt lat="48.65401" lon="2.12384">
        <ele>106.6</ele>
        <time>2026-01-30T10:40:55Z</time>
      </trkpt>
      <trkpt lat="48.65396" lon="2.12381">
        <ele>106.2</ele>
        <time>2026-01-30T10:40:56Z</time>
      </trkpt>
      <trkpt lat="48.6539" lon="2.12378">
        <ele>106.2</ele>
        <time>2026-01-30T10:40:57Z</time>
      </trkpt>
      <trkpt lat="48.65385" lon="2.12375">
        <ele>106.2</ele>
        <time>2026-01-30T10:40:58Z</time>
      </trkpt>
      <trkpt lat="48.65379" lon="2.12372">
        <ele>106.2</ele>
        <time>2026-01-30T10:40:59Z</time>
      </trkpt>
      <trkpt lat="48.65374" lon="2.12369">
        <ele>106.2</ele>
        <time>2026-01-30T10:41:00Z</time>
      </trkpt>
      <trkpt lat="48.65368" lon="2.12365">
        <ele>106.2</ele>
        <time>2026-01-30T10:41:01Z</time>
      </trkpt>
      <trkpt lat="48.65363" lon="2.12362">
        <ele>106.2</ele>
        <time>2026-01-30T10:41:02Z</time>
      </trkpt>
      <trkpt lat="48.65358" lon="2.12359">
        <ele>106.2</ele>
        <time>2026-01-30T10:41:03Z</time>
      </trkpt>
      <trkpt lat="48.65353" lon="2.12355">
        <ele>105.8</ele>
        <time>2026-01-30T10:41:04Z</time>
      </trkpt>
      <trkpt lat="48.65348" lon="2.12352">
        <ele>105.8</ele>
        <time>2026-01-30T10:41:05Z</time>
      </trkpt>
      <trkpt lat="48.65343" lon="2.12349">
        <ele>105.8</ele>
        <time>2026-01-30T10:41:06Z</time>
      </trkpt>
      <trkpt lat="48.65338" lon="2.12346">
        <ele>105.8</ele>
        <time>2026-01-30T10:41:07Z</time>
      </trkpt>
      <trkpt lat="48.65333" lon="2.12343">
        <ele>107.4</ele>
        <time>2026-01-30T10:41:08Z</time>
      </trkpt>
      <trkpt lat="48.65328" lon="2.1234">
        <ele>107.4</ele>
        <time>2026-01-30T10:41:09Z</time>
      </trkpt>
      <trkpt lat="48.65323" lon="2.12337">
        <ele>107.4</ele>
        <time>2026-01-30T10:41:10Z</time>
      </trkpt>
      <trkpt lat="48.65318" lon="2.12334">
        <ele>107.4</ele>
        <time>2026-01-30T10:41:11Z</time>
      </trkpt>
      <trkpt lat="48.65313" lon="2.12331">
        <ele>106.2</ele>
        <time>2026-01-30T10:41:12Z</time>
      </trkpt>
      <trkpt lat="48.65308" lon="2.12328">
        <ele>106.2</ele>
        <time>2026-01-30T10:41:13Z</time>
      </trkpt>
      <trkpt lat="48.65303" lon="2.12325">
        <ele>106.2</ele>
        <time>2026-01-30T10:41:14Z</time>
      </trkpt>
      <trkpt lat="48.65298" lon="2.12322">
        <ele>107</ele>
        <time>2026-01-30T10:41:15Z</time>
      </trkpt>
      <trkpt lat="48.65293" lon="2.12319">
        <ele>107.4</ele>
        <time>2026-01-30T10:41:16Z</time>
      </trkpt>
      <trkpt lat="48.65288" lon="2.12315">
        <ele>107.4</ele>
        <time>2026-01-30T10:41:17Z</time>
      </trkpt>
      <trkpt lat="48.65283" lon="2.12312">
        <ele>107.4</ele>
        <time>2026-01-30T10:41:18Z</time>
      </trkpt>
      <trkpt lat="48.65278" lon="2.12309">
        <ele>107.4</ele>
        <time>2026-01-30T10:41:19Z</time>
      </trkpt>
      <trkpt lat="48.65273" lon="2.12306">
        <ele>107.4</ele>
        <time>2026-01-30T10:41:20Z</time>
      </trkpt>
      <trkpt lat="48.65269" lon="2.12303">
        <ele>107.4</ele>
        <time>2026-01-30T10:41:21Z</time>
      </trkpt>
      <trkpt lat="48.65264" lon="2.123">
        <ele>107.4</ele>
        <time>2026-01-30T10:41:22Z</time>
      </trkpt>
      <trkpt lat="48.65259" lon="2.12296">
        <ele>108</ele>
        <time>2026-01-30T10:41:23Z</time>
      </trkpt>
      <trkpt lat="48.65254" lon="2.12294">
        <ele>107.8</ele>
        <time>2026-01-30T10:41:24Z</time>
      </trkpt>
      <trkpt lat="48.65249" lon="2.12291">
        <ele>107.8</ele>
        <time>2026-01-30T10:41:25Z</time>
      </trkpt>
      <trkpt lat="48.65244" lon="2.12288">
        <ele>107.8</ele>
        <time>2026-01-30T10:41:26Z</time>
      </trkpt>
      <trkpt lat="48.65239" lon="2.12284">
        <ele>107.8</ele>
        <time>2026-01-30T10:41:27Z</time>
      </trkpt>
      <trkpt lat="48.65235" lon="2.12281">
        <ele>108.2</ele>
        <time>2026-01-30T10:41:28Z</time>
      </trkpt>
      <trkpt lat="48.6523" lon="2.12278">
        <ele>108.2</ele>
        <time>2026-01-30T10:41:29Z</time>
      </trkpt>
      <trkpt lat="48.65225" lon="2.12275">
        <ele>108.2</ele>
        <time>2026-01-30T10:41:30Z</time>
      </trkpt>
      <trkpt lat="48.6522" lon="2.12272">
        <ele>107.4</ele>
        <time>2026-01-30T10:41:31Z</time>
      </trkpt>
      <trkpt lat="48.65215" lon="2.12269">
        <ele>106.4</ele>
        <time>2026-01-30T10:41:32Z</time>
      </trkpt>
      <trkpt lat="48.6521" lon="2.12266">
        <ele>106.4</ele>
        <time>2026-01-30T10:41:33Z</time>
      </trkpt>
      <trkpt lat="48.65206" lon="2.12264">
        <ele>106.4</ele>
        <time>2026-01-30T10:41:34Z</time>
      </trkpt>
      <trkpt lat="48.65201" lon="2.12261">
        <ele>106.6</ele>
        <time>2026-01-30T10:41:35Z</time>
      </trkpt>
      <trkpt lat="48.65196" lon="2.12258">
        <ele>107.8</ele>
        <time>2026-01-30T10:41:36Z</time>
      </trkpt>
      <trkpt lat="48.65191" lon="2.12255">
        <ele>107.8</ele>
        <time>2026-01-30T10:41:37Z</time>
      </trkpt>
      <trkpt lat="48.65186" lon="2.12252">
        <ele>107.8</ele>
        <time>2026-01-30T10:41:38Z</time>
      </trkpt>
      <trkpt lat="48.65182" lon="2.12249">
        <ele>108</ele>
        <time>2026-01-30T10:41:39Z</time>
      </trkpt>
      <trkpt lat="48.65177" lon="2.12246">
        <ele>107.6</ele>
        <time>2026-01-30T10:41:40Z</time>
      </trkpt>
      <trkpt lat="48.65172" lon="2.12243">
        <ele>107.6</ele>
        <time>2026-01-30T10:41:41Z</time>
      </trkpt>
      <trkpt lat="48.65167" lon="2.12239">
        <ele>107.6</ele>
        <time>2026-01-30T10:41:42Z</time>
      </trkpt>
      <trkpt lat="48.65162" lon="2.12237">
        <ele>108</ele>
        <time>2026-01-30T10:41:43Z</time>
      </trkpt>
      <trkpt lat="48.65157" lon="2.12234">
        <ele>108</ele>
        <time>2026-01-30T10:41:44Z</time>
      </trkpt>
      <trkpt lat="48.65152" lon="2.12231">
        <ele>108</ele>
        <time>2026-01-30T10:41:45Z</time>
      </trkpt>
      <trkpt lat="48.65147" lon="2.12228">
        <ele>108</ele>
        <time>2026-01-30T10:41:46Z</time>
      </trkpt>
      <trkpt lat="48.65142" lon="2.12225">
        <ele>108.6</ele>
        <time>2026-01-30T10:41:47Z</time>
      </trkpt>
      <trkpt lat="48.65138" lon="2.12222">
        <ele>108.8</ele>
        <time>2026-01-30T10:41:48Z</time>
      </trkpt>
      <trkpt lat="48.65133" lon="2.12219">
        <ele>108.8</ele>
        <time>2026-01-30T10:41:49Z</time>
      </trkpt>
      <trkpt lat="48.65128" lon="2.12216">
        <ele>108.8</ele>
        <time>2026-01-30T10:41:50Z</time>
      </trkpt>
      <trkpt lat="48.65123" lon="2.12213">
        <ele>108.4</ele>
        <time>2026-01-30T10:41:51Z</time>
      </trkpt>
      <trkpt lat="48.65118" lon="2.1221">
        <ele>108.6</ele>
        <time>2026-01-30T10:41:52Z</time>
      </trkpt>
      <trkpt lat="48.65113" lon="2.12206">
        <ele>108.6</ele>
        <time>2026-01-30T10:41:53Z</time>
      </trkpt>
      <trkpt lat="48.65108" lon="2.12203">
        <ele>108.6</ele>
        <time>2026-01-30T10:41:54Z</time>
      </trkpt>
      <trkpt lat="48.65104" lon="2.122">
        <ele>107.6</ele>
        <time>2026-01-30T10:41:55Z</time>
      </trkpt>
      <trkpt lat="48.65099" lon="2.12198">
        <ele>107.4</ele>
        <time>2026-01-30T10:41:56Z</time>
      </trkpt>
      <trkpt lat="48.65094" lon="2.12195">
        <ele>107.4</ele>
        <time>2026-01-30T10:41:57Z</time>
      </trkpt>
      <trkpt lat="48.65089" lon="2.12192">
        <ele>107.4</ele>
        <time>2026-01-30T10:41:58Z</time>
      </trkpt>
      <trkpt lat="48.65084" lon="2.12189">
        <ele>108.4</ele>
        <time>2026-01-30T10:41:59Z</time>
      </trkpt>
      <trkpt lat="48.6508" lon="2.12186">
        <ele>108.6</ele>
        <time>2026-01-30T10:42:00Z</time>
      </trkpt>
      <trkpt lat="48.65075" lon="2.12183">
        <ele>108.6</ele>
        <time>2026-01-30T10:42:01Z</time>
      </trkpt>
      <trkpt lat="48.6507" lon="2.1218">
        <ele>108.6</ele>
        <time>2026-01-30T10:42:02Z</time>
      </trkpt>
      <trkpt lat="48.65065" lon="2.12177">
        <ele>107.6</ele>
        <time>2026-01-30T10:42:03Z</time>
      </trkpt>
      <trkpt lat="48.6506" lon="2.12174">
        <ele>107.6</ele>
        <time>2026-01-30T10:42:04Z</time>
      </trkpt>
      <trkpt lat="48.65056" lon="2.12171">
        <ele>107.6</ele>
        <time>2026-01-30T10:42:05Z</time>
      </trkpt>
      <trkpt lat="48.65051" lon="2.12168">
        <ele>107.6</ele>
        <time>2026-01-30T10:42:06Z</time>
      </trkpt>
      <trkpt lat="48.65046" lon="2.12165">
        <ele>108.2</ele>
        <time>2026-01-30T10:42:07Z</time>
      </trkpt>
      <trkpt lat="48.65042" lon="2.12162">
        <ele>108.6</ele>
        <time>2026-01-30T10:42:08Z</time>
      </trkpt>
      <trkpt lat="48.65037" lon="2.12159">
        <ele>108.6</ele>
        <time>2026-01-30T10:42:09Z</time>
      </trkpt>
      <trkpt lat="48.65032" lon="2.12157">
        <ele>108.6</ele>
        <time>2026-01-30T10:42:10Z</time>
      </trkpt>
      <trkpt lat="48.65028" lon="2.12154">
        <ele>108.2</ele>
        <time>2026-01-30T10:42:11Z</time>
      </trkpt>
      <trkpt lat="48.65023" lon="2.12151">
        <ele>108.2</ele>
        <time>2026-01-30T10:42:12Z</time>
      </trkpt>
      <trkpt lat="48.65018" lon="2.12148">
        <ele>108.2</ele>
        <time>2026-01-30T10:42:13Z</time>
      </trkpt>
      <trkpt lat="48.65014" lon="2.12145">
        <ele>108.2</ele>
        <time>2026-01-30T10:42:14Z</time>
      </trkpt>
      <trkpt lat="48.65009" lon="2.12142">
        <ele>109.2</ele>
        <time>2026-01-30T10:42:15Z</time>
      </trkpt>
      <trkpt lat="48.65004" lon="2.12139">
        <ele>108.6</ele>
        <time>2026-01-30T10:42:16Z</time>
      </trkpt>
      <trkpt lat="48.65" lon="2.12136">
        <ele>108.6</ele>
        <time>2026-01-30T10:42:17Z</time>
      </trkpt>
      <trkpt lat="48.64995" lon="2.12134">
        <ele>108.6</ele>
        <time>2026-01-30T10:42:18Z</time>
      </trkpt>
      <trkpt lat="48.6499" lon="2.12131">
        <ele>108.6</ele>
        <time>2026-01-30T10:42:19Z</time>
      </trkpt>
      <trkpt lat="48.64986" lon="2.12128">
        <ele>110</ele>
        <time>2026-01-30T10:42:20Z</time>
      </trkpt>
      <trkpt lat="48.64981" lon="2.12125">
        <ele>110</ele>
        <time>2026-01-30T10:42:21Z</time>
      </trkpt>
      <trkpt lat="48.64976" lon="2.12122">
        <ele>110</ele>
        <time>2026-01-30T10:42:22Z</time>
      </trkpt>
      <trkpt lat="48.64972" lon="2.12119">
        <ele>110</ele>
        <time>2026-01-30T10:42:23Z</time>
      </trkpt>
      <trkpt lat="48.64967" lon="2.12116">
        <ele>109.6</ele>
        <time>2026-01-30T10:42:24Z</time>
      </trkpt>
      <trkpt lat="48.64962" lon="2.12113">
        <ele>109.6</ele>
        <time>2026-01-30T10:42:25Z</time>
      </trkpt>
      <trkpt lat="48.64958" lon="2.1211">
        <ele>109.6</ele>
        <time>2026-01-30T10:42:26Z</time>
      </trkpt>
      <trkpt lat="48.64953" lon="2.12108">
        <ele>109.6</ele>
        <time>2026-01-30T10:42:27Z</time>
      </trkpt>
      <trkpt lat="48.64948" lon="2.12105">
        <ele>109.4</ele>
        <time>2026-01-30T10:42:28Z</time>
      </trkpt>
      <trkpt lat="48.64944" lon="2.12102">
        <ele>109.4</ele>
        <time>2026-01-30T10:42:29Z</time>
      </trkpt>
      <trkpt lat="48.64939" lon="2.12099">
        <ele>109.4</ele>
        <time>2026-01-30T10:42:30Z</time>
      </trkpt>
      <trkpt lat="48.64934" lon="2.12096">
        <ele>110.4</ele>
        <time>2026-01-30T10:42:31Z</time>
      </trkpt>
      <trkpt lat="48.64929" lon="2.12093">
        <ele>111</ele>
        <time>2026-01-30T10:42:32Z</time>
      </trkpt>
      <trkpt lat="48.64924" lon="2.12091">
        <ele>111</ele>
        <time>2026-01-30T10:42:33Z</time>
      </trkpt>
      <trkpt lat="48.6492" lon="2.12088">
        <ele>111</ele>
        <time>2026-01-30T10:42:34Z</time>
      </trkpt>
      <trkpt lat="48.64915" lon="2.12085">
        <ele>110.6</ele>
        <time>2026-01-30T10:42:35Z</time>
      </trkpt>
      <trkpt lat="48.6491" lon="2.12081">
        <ele>110.6</ele>
        <time>2026-01-30T10:42:36Z</time>
      </trkpt>
      <trkpt lat="48.64905" lon="2.12077">
        <ele>110.6</ele>
        <time>2026-01-30T10:42:37Z</time>
      </trkpt>
      <trkpt lat="48.649" lon="2.12074">
        <ele>110.6</ele>
        <time>2026-01-30T10:42:38Z</time>
      </trkpt>
      <trkpt lat="48.64896" lon="2.12071">
        <ele>111.6</ele>
        <time>2026-01-30T10:42:39Z</time>
      </trkpt>
      <trkpt lat="48.64891" lon="2.12067">
        <ele>111.2</ele>
        <time>2026-01-30T10:42:40Z</time>
      </trkpt>
      <trkpt lat="48.64886" lon="2.12064">
        <ele>111.2</ele>
        <time>2026-01-30T10:42:41Z</time>
      </trkpt>
      <trkpt lat="48.64881" lon="2.12061">
        <ele>111.2</ele>
        <time>2026-01-30T10:42:42Z</time>
      </trkpt>
      <trkpt lat="48.64876" lon="2.12058">
        <ele>111.2</ele>
        <time>2026-01-30T10:42:43Z</time>
      </trkpt>
      <trkpt lat="48.64871" lon="2.12055">
        <ele>111</ele>
        <time>2026-01-30T10:42:44Z</time>
      </trkpt>
      <trkpt lat="48.64866" lon="2.12052">
        <ele>111</ele>
        <time>2026-01-30T10:42:45Z</time>
      </trkpt>
      <trkpt lat="48.64861" lon="2.12049">
        <ele>111</ele>
        <time>2026-01-30T10:42:46Z</time>
      </trkpt>
      <trkpt lat="48.64857" lon="2.12045">
        <ele>111</ele>
        <time>2026-01-30T10:42:47Z</time>
      </trkpt>
      <trkpt lat="48.64852" lon="2.12041">
        <ele>111.6</ele>
        <time>2026-01-30T10:42:48Z</time>
      </trkpt>
      <trkpt lat="48.64847" lon="2.12037">
        <ele>111.6</ele>
        <time>2026-01-30T10:42:49Z</time>
      </trkpt>
      <trkpt lat="48.64843" lon="2.12032">
        <ele>111.6</ele>
        <time>2026-01-30T10:42:50Z</time>
      </trkpt>
      <trkpt lat="48.64838" lon="2.12027">
        <ele>110.6</ele>
        <time>2026-01-30T10:42:51Z</time>
      </trkpt>
      <trkpt lat="48.64834" lon="2.12022">
        <ele>111.2</ele>
        <time>2026-01-30T10:42:52Z</time>
      </trkpt>
      <trkpt lat="48.64829" lon="2.12018">
        <ele>111.2</ele>
        <time>2026-01-30T10:42:53Z</time>
      </trkpt>
      <trkpt lat="48.64825" lon="2.12013">
        <ele>111.2</ele>
        <time>2026-01-30T10:42:54Z</time>
      </trkpt>
      <trkpt lat="48.6482" lon="2.12008">
        <ele>111.2</ele>
        <time>2026-01-30T10:42:55Z</time>
      </trkpt>
      <trkpt lat="48.64816" lon="2.12004">
        <ele>110.8</ele>
        <time>2026-01-30T10:42:56Z</time>
      </trkpt>
      <trkpt lat="48.64811" lon="2.11999">
        <ele>110.8</ele>
        <time>2026-01-30T10:42:57Z</time>
      </trkpt>
      <trkpt lat="48.64807" lon="2.11994">
        <ele>110.8</ele>
        <time>2026-01-30T10:42:58Z</time>
      </trkpt>
      <trkpt lat="48.64802" lon="2.1199">
        <ele>111.8</ele>
        <time>2026-01-30T10:42:59Z</time>
      </trkpt>
      <trkpt lat="48.64798" lon="2.11985">
        <ele>112.4</ele>
        <time>2026-01-30T10:43:00Z</time>
      </trkpt>
      <trkpt lat="48.64793" lon="2.11981">
        <ele>112.4</ele>
        <time>2026-01-30T10:43:01Z</time>
      </trkpt>
      <trkpt lat="48.64788" lon="2.11977">
        <ele>112.4</ele>
        <time>2026-01-30T10:43:02Z</time>
      </trkpt>
      <trkpt lat="48.64783" lon="2.11974">
        <ele>112.4</ele>
        <time>2026-01-30T10:43:03Z</time>
      </trkpt>
      <trkpt lat="48.64778" lon="2.11971">
        <ele>111.6</ele>
        <time>2026-01-30T10:43:04Z</time>
      </trkpt>
      <trkpt lat="48.64772" lon="2.11969">
        <ele>111.6</ele>
        <time>2026-01-30T10:43:05Z</time>
      </trkpt>
      <trkpt lat="48.64767" lon="2.11967">
        <ele>111.6</ele>
        <time>2026-01-30T10:43:06Z</time>
      </trkpt>
      <trkpt lat="48.64762" lon="2.11966">
        <ele>111.4</ele>
        <time>2026-01-30T10:43:07Z</time>
      </trkpt>
      <trkpt lat="48.64757" lon="2.11965">
        <ele>111.6</ele>
        <time>2026-01-30T10:43:08Z</time>
      </trkpt>
      <trkpt lat="48.64752" lon="2.11966">
        <ele>111.6</ele>
        <time>2026-01-30T10:43:09Z</time>
      </trkpt>
      <trkpt lat="48.64747" lon="2.11966">
        <ele>111.6</ele>
        <time>2026-01-30T10:43:10Z</time>
      </trkpt>
      <trkpt lat="48.64741" lon="2.11967">
        <ele>111.4</ele>
        <time>2026-01-30T10:43:11Z</time>
      </trkpt>
      <trkpt lat="48.64736" lon="2.1197">
        <ele>111.8</ele>
        <time>2026-01-30T10:43:12Z</time>
      </trkpt>
      <trkpt lat="48.6473" lon="2.11972">
        <ele>111.8</ele>
        <time>2026-01-30T10:43:13Z</time>
      </trkpt>
      <trkpt lat="48.64725" lon="2.11975">
        <ele>111.8</ele>
        <time>2026-01-30T10:43:14Z</time>
      </trkpt>
      <trkpt lat="48.6472" lon="2.11977">
        <ele>111.8</ele>
        <time>2026-01-30T10:43:15Z</time>
      </trkpt>
      <trkpt lat="48.64715" lon="2.11978">
        <ele>111</ele>
        <time>2026-01-30T10:43:16Z</time>
      </trkpt>
      <trkpt lat="48.6471" lon="2.1198">
        <ele>111</ele>
        <time>2026-01-30T10:43:17Z</time>
      </trkpt>
      <trkpt lat="48.64705" lon="2.11983">
        <ele>111</ele>
        <time>2026-01-30T10:43:18Z</time>
      </trkpt>
      <trkpt lat="48.647" lon="2.11986">
        <ele>111</ele>
        <time>2026-01-30T10:43:19Z</time>
      </trkpt>
      <trkpt lat="48.64695" lon="2.11989">
        <ele>111</ele>
        <time>2026-01-30T10:43:20Z</time>
      </trkpt>
      <trkpt lat="48.64689" lon="2.11992">
        <ele>111</ele>
        <time>2026-01-30T10:43:21Z</time>
      </trkpt>
      <trkpt lat="48.64684" lon="2.11996">
        <ele>111</ele>
        <time>2026-01-30T10:43:22Z</time>
      </trkpt>
      <trkpt lat="48.64679" lon="2.11999">
        <ele>111</ele>
        <time>2026-01-30T10:43:23Z</time>
      </trkpt>
      <trkpt lat="48.64674" lon="2.12003">
        <ele>110</ele>
        <time>2026-01-30T10:43:24Z</time>
      </trkpt>
      <trkpt lat="48.64669" lon="2.12006">
        <ele>110</ele>
        <time>2026-01-30T10:43:25Z</time>
      </trkpt>
      <trkpt lat="48.64663" lon="2.1201">
        <ele>110</ele>
        <time>2026-01-30T10:43:26Z</time>
      </trkpt>
      <trkpt lat="48.64658" lon="2.12013">
        <ele>109.4</ele>
        <time>2026-01-30T10:43:27Z</time>
      </trkpt>
      <trkpt lat="48.64653" lon="2.12016">
        <ele>110.2</ele>
        <time>2026-01-30T10:43:28Z</time>
      </trkpt>
      <trkpt lat="48.64647" lon="2.12019">
        <ele>110.2</ele>
        <time>2026-01-30T10:43:29Z</time>
      </trkpt>
      <trkpt lat="48.64641" lon="2.12023">
        <ele>110.2</ele>
        <time>2026-01-30T10:43:30Z</time>
      </trkpt>
      <trkpt lat="48.64635" lon="2.12026">
        <ele>110.8</ele>
        <time>2026-01-30T10:43:31Z</time>
      </trkpt>
      <trkpt lat="48.6463" lon="2.12028">
        <ele>110.8</ele>
        <time>2026-01-30T10:43:32Z</time>
      </trkpt>
      <trkpt lat="48.64624" lon="2.12031">
        <ele>110.8</ele>
        <time>2026-01-30T10:43:33Z</time>
      </trkpt>
      <trkpt lat="48.64618" lon="2.12033">
        <ele>110.8</ele>
        <time>2026-01-30T10:43:34Z</time>
      </trkpt>
      <trkpt lat="48.64612" lon="2.12036">
        <ele>111.2</ele>
        <time>2026-01-30T10:43:35Z</time>
      </trkpt>
      <trkpt lat="48.64606" lon="2.12038">
        <ele>111.8</ele>
        <time>2026-01-30T10:43:36Z</time>
      </trkpt>
      <trkpt lat="48.646" lon="2.12041">
        <ele>111.8</ele>
        <time>2026-01-30T10:43:37Z</time>
      </trkpt>
      <trkpt lat="48.64594" lon="2.12043">
        <ele>111.8</ele>
        <time>2026-01-30T10:43:38Z</time>
      </trkpt>
      <trkpt lat="48.64588" lon="2.12046">
        <ele>111.4</ele>
        <time>2026-01-30T10:43:39Z</time>
      </trkpt>
      <trkpt lat="48.64582" lon="2.12048">
        <ele>111.6</ele>
        <time>2026-01-30T10:43:40Z</time>
      </trkpt>
      <trkpt lat="48.64576" lon="2.1205">
        <ele>111.6</ele>
        <time>2026-01-30T10:43:41Z</time>
      </trkpt>
      <trkpt lat="48.6457" lon="2.12053">
        <ele>111.6</ele>
        <time>2026-01-30T10:43:42Z</time>
      </trkpt>
      <trkpt lat="48.64564" lon="2.12056">
        <ele>111.2</ele>
        <time>2026-01-30T10:43:43Z</time>
      </trkpt>
      <trkpt lat="48.64558" lon="2.12058">
        <ele>110.8</ele>
        <time>2026-01-30T10:43:44Z</time>
      </trkpt>
      <trkpt lat="48.64552" lon="2.1206">
        <ele>110.8</ele>
        <time>2026-01-30T10:43:45Z</time>
      </trkpt>
      <trkpt lat="48.64546" lon="2.12063">
        <ele>110.8</ele>
        <time>2026-01-30T10:43:46Z</time>
      </trkpt>
      <trkpt lat="48.64539" lon="2.12065">
        <ele>110.8</ele>
        <time>2026-01-30T10:43:47Z</time>
      </trkpt>
      <trkpt lat="48.64533" lon="2.12068">
        <ele>110</ele>
        <time>2026-01-30T10:43:48Z</time>
      </trkpt>
      <trkpt lat="48.64527" lon="2.1207">
        <ele>110</ele>
        <time>2026-01-30T10:43:49Z</time>
      </trkpt>
      <trkpt lat="48.64521" lon="2.12073">
        <ele>110</ele>
        <time>2026-01-30T10:43:50Z</time>
      </trkpt>
      <trkpt lat="48.64515" lon="2.12076">
        <ele>111</ele>
        <time>2026-01-30T10:43:51Z</time>
      </trkpt>
      <trkpt lat="48.64509" lon="2.12078">
        <ele>110.6</ele>
        <time>2026-01-30T10:43:52Z</time>
      </trkpt>
      <trkpt lat="48.64503" lon="2.1208">
        <ele>110.6</ele>
        <time>2026-01-30T10:43:53Z</time>
      </trkpt>
      <trkpt lat="48.64496" lon="2.12083">
        <ele>110.6</ele>
        <time>2026-01-30T10:43:54Z</time>
      </trkpt>
      <trkpt lat="48.6449" lon="2.12085">
        <ele>110.6</ele>
        <time>2026-01-30T10:43:55Z</time>
      </trkpt>
      <trkpt lat="48.64484" lon="2.12088">
        <ele>110</ele>
        <time>2026-01-30T10:43:56Z</time>
      </trkpt>
      <trkpt lat="48.64478" lon="2.1209">
        <ele>110</ele>
        <time>2026-01-30T10:43:57Z</time>
      </trkpt>
      <trkpt lat="48.64472" lon="2.12093">
        <ele>110</ele>
        <time>2026-01-30T10:43:58Z</time>
      </trkpt>
      <trkpt lat="48.64466" lon="2.12095">
        <ele>109</ele>
        <time>2026-01-30T10:43:59Z</time>
      </trkpt>
      <trkpt lat="48.6446" lon="2.12098">
        <ele>109.4</ele>
        <time>2026-01-30T10:44:00Z</time>
      </trkpt>
      <trkpt lat="48.64454" lon="2.121">
        <ele>109.4</ele>
        <time>2026-01-30T10:44:01Z</time>
      </trkpt>
      <trkpt lat="48.64448" lon="2.12102">
        <ele>109.4</ele>
        <time>2026-01-30T10:44:02Z</time>
      </trkpt>
      <trkpt lat="48.64442" lon="2.12105">
        <ele>110.2</ele>
        <time>2026-01-30T10:44:03Z</time>
      </trkpt>
      <trkpt lat="48.64437" lon="2.12107">
        <ele>110.6</ele>
        <time>2026-01-30T10:44:04Z</time>
      </trkpt>
      <trkpt lat="48.64431" lon="2.12109">
        <ele>110.6</ele>
        <time>2026-01-30T10:44:05Z</time>
      </trkpt>
      <trkpt lat="48.64425" lon="2.12112">
        <ele>110.6</ele>
        <time>2026-01-30T10:44:06Z</time>
      </trkpt>
      <trkpt lat="48.64419" lon="2.12114">
        <ele>110.6</ele>
        <time>2026-01-30T10:44:07Z</time>
      </trkpt>
      <trkpt lat="48.64413" lon="2.12116">
        <ele>111.2</ele>
        <time>2026-01-30T10:44:08Z</time>
      </trkpt>
      <trkpt lat="48.64407" lon="2.12119">
        <ele>111.2</ele>
        <time>2026-01-30T10:44:09Z</time>
      </trkpt>
      <trkpt lat="48.64401" lon="2.12121">
        <ele>111.2</ele>
        <time>2026-01-30T10:44:10Z</time>
      </trkpt>
      <trkpt lat="48.64396" lon="2.12124">
        <ele>111.2</ele>
        <time>2026-01-30T10:44:11Z</time>
      </trkpt>
      <trkpt lat="48.6439" lon="2.12126">
        <ele>110.8</ele>
        <time>2026-01-30T10:44:12Z</time>
      </trkpt>
      <trkpt lat="48.64384" lon="2.12128">
        <ele>110.8</ele>
        <time>2026-01-30T10:44:13Z</time>
      </trkpt>
      <trkpt lat="48.64378" lon="2.12131">
        <ele>110.8</ele>
        <time>2026-01-30T10:44:14Z</time>
      </trkpt>
      <trkpt lat="48.64372" lon="2.12133">
        <ele>110.8</ele>
        <time>2026-01-30T10:44:15Z</time>
      </trkpt>
      <trkpt lat="48.64366" lon="2.12136">
        <ele>111.8</ele>
        <time>2026-01-30T10:44:16Z</time>
      </trkpt>
      <trkpt lat="48.6436" lon="2.12138">
        <ele>111.8</ele>
        <time>2026-01-30T10:44:17Z</time>
      </trkpt>
      <trkpt lat="48.64353" lon="2.12141">
        <ele>111.8</ele>
        <time>2026-01-30T10:44:18Z</time>
      </trkpt>
      <trkpt lat="48.64347" lon="2.12143">
        <ele>111.8</ele>
        <time>2026-01-30T10:44:19Z</time>
      </trkpt>
      <trkpt lat="48.64341" lon="2.12145">
        <ele>109.6</ele>
        <time>2026-01-30T10:44:20Z</time>
      </trkpt>
      <trkpt lat="48.64335" lon="2.12148">
        <ele>109.6</ele>
        <time>2026-01-30T10:44:21Z</time>
      </trkpt>
      <trkpt lat="48.64329" lon="2.1215">
        <ele>109.6</ele>
        <time>2026-01-30T10:44:22Z</time>
      </trkpt>
      <trkpt lat="48.64323" lon="2.12153">
        <ele>110.6</ele>
        <time>2026-01-30T10:44:23Z</time>
      </trkpt>
      <trkpt lat="48.64317" lon="2.12155">
        <ele>111.2</ele>
        <time>2026-01-30T10:44:24Z</time>
      </trkpt>
      <trkpt lat="48.64311" lon="2.12158">
        <ele>111.2</ele>
        <time>2026-01-30T10:44:25Z</time>
      </trkpt>
      <trkpt lat="48.64304" lon="2.12161">
        <ele>111.2</ele>
        <time>2026-01-30T10:44:26Z</time>
      </trkpt>
      <trkpt lat="48.64298" lon="2.12163">
        <ele>111.2</ele>
        <time>2026-01-30T10:44:27Z</time>
      </trkpt>
      <trkpt lat="48.64292" lon="2.12166">
        <ele>110</ele>
        <time>2026-01-30T10:44:28Z</time>
      </trkpt>
      <trkpt lat="48.64285" lon="2.12168">
        <ele>110</ele>
        <time>2026-01-30T10:44:29Z</time>
      </trkpt>
      <trkpt lat="48.64279" lon="2.12171">
        <ele>110</ele>
        <time>2026-01-30T10:44:30Z</time>
      </trkpt>
      <trkpt lat="48.64273" lon="2.12173">
        <ele>110</ele>
        <time>2026-01-30T10:44:31Z</time>
      </trkpt>
      <trkpt lat="48.64267" lon="2.12176">
        <ele>108.8</ele>
        <time>2026-01-30T10:44:32Z</time>
      </trkpt>
      <trkpt lat="48.6426" lon="2.12178">
        <ele>108.8</ele>
        <time>2026-01-30T10:44:33Z</time>
      </trkpt>
      <trkpt lat="48.64254" lon="2.12181">
        <ele>108.8</ele>
        <time>2026-01-30T10:44:34Z</time>
      </trkpt>
      <trkpt lat="48.64248" lon="2.12183">
        <ele>108.8</ele>
        <time>2026-01-30T10:44:35Z</time>
      </trkpt>
      <trkpt lat="48.64242" lon="2.12186">
        <ele>109.6</ele>
        <time>2026-01-30T10:44:36Z</time>
      </trkpt>
      <trkpt lat="48.64236" lon="2.12188">
        <ele>109.6</ele>
        <time>2026-01-30T10:44:37Z</time>
      </trkpt>
      <trkpt lat="48.64229" lon="2.12191">
        <ele>109.6</ele>
        <time>2026-01-30T10:44:38Z</time>
      </trkpt>
      <trkpt lat="48.64223" lon="2.12193">
        <ele>109.8</ele>
        <time>2026-01-30T10:44:39Z</time>
      </trkpt>
      <trkpt lat="48.64217" lon="2.12196">
        <ele>109.4</ele>
        <time>2026-01-30T10:44:40Z</time>
      </trkpt>
      <trkpt lat="48.64211" lon="2.12198">
        <ele>109.4</ele>
        <time>2026-01-30T10:44:41Z</time>
      </trkpt>
      <trkpt lat="48.64204" lon="2.12201">
        <ele>109.4</ele>
        <time>2026-01-30T10:44:42Z</time>
      </trkpt>
      <trkpt lat="48.64198" lon="2.12204">
        <ele>109.4</ele>
        <time>2026-01-30T10:44:43Z</time>
      </trkpt>
      <trkpt lat="48.64192" lon="2.12206">
        <ele>108.6</ele>
        <time>2026-01-30T10:44:44Z</time>
      </trkpt>
      <trkpt lat="48.64186" lon="2.12209">
        <ele>108.6</ele>
        <time>2026-01-30T10:44:45Z</time>
      </trkpt>
      <trkpt lat="48.6418" lon="2.12211">
        <ele>108.6</ele>
        <time>2026-01-30T10:44:46Z</time>
      </trkpt>
      <trkpt lat="48.64173" lon="2.12214">
        <ele>109.6</ele>
        <time>2026-01-30T10:44:47Z</time>
      </trkpt>
      <trkpt lat="48.64166" lon="2.12217">
        <ele>109.2</ele>
        <time>2026-01-30T10:44:48Z</time>
      </trkpt>
      <trkpt lat="48.6416" lon="2.12219">
        <ele>109.2</ele>
        <time>2026-01-30T10:44:49Z</time>
      </trkpt>
      <trkpt lat="48.64153" lon="2.12222">
        <ele>109.2</ele>
        <time>2026-01-30T10:44:50Z</time>
      </trkpt>
      <trkpt lat="48.64146" lon="2.12224">
        <ele>109.8</ele>
        <time>2026-01-30T10:44:51Z</time>
      </trkpt>
      <trkpt lat="48.64139" lon="2.12227">
        <ele>109.4</ele>
        <time>2026-01-30T10:44:52Z</time>
      </trkpt>
      <trkpt lat="48.64133" lon="2.12228">
        <ele>109.4</ele>
        <time>2026-01-30T10:44:53Z</time>
      </trkpt>
      <trkpt lat="48.64126" lon="2.12229">
        <ele>109.4</ele>
        <time>2026-01-30T10:44:54Z</time>
      </trkpt>
      <trkpt lat="48.64119" lon="2.12227">
        <ele>108.8</ele>
        <time>2026-01-30T10:44:55Z</time>
      </trkpt>
      <trkpt lat="48.64114" lon="2.12222">
        <ele>110</ele>
        <time>2026-01-30T10:44:56Z</time>
      </trkpt>
      <trkpt lat="48.6411" lon="2.12214">
        <ele>110</ele>
        <time>2026-01-30T10:44:57Z</time>
      </trkpt>
      <trkpt lat="48.64108" lon="2.12205">
        <ele>110</ele>
        <time>2026-01-30T10:44:58Z</time>
      </trkpt>
      <trkpt lat="48.64109" lon="2.12195">
        <ele>110.8</ele>
        <time>2026-01-30T10:44:59Z</time>
      </trkpt>
      <trkpt lat="48.6411" lon="2.12185">
        <ele>110.2</ele>
        <time>2026-01-30T10:45:00Z</time>
      </trkpt>
      <trkpt lat="48.64113" lon="2.12176">
        <ele>110.2</ele>
        <time>2026-01-30T10:45:01Z</time>
      </trkpt>
      <trkpt lat="48.64116" lon="2.12167">
        <ele>110.2</ele>
        <time>2026-01-30T10:45:02Z</time>
      </trkpt>
      <trkpt lat="48.64119" lon="2.12158">
        <ele>110.2</ele>
        <time>2026-01-30T10:45:03Z</time>
      </trkpt>
      <trkpt lat="48.64123" lon="2.12149">
        <ele>110.2</ele>
        <time>2026-01-30T10:45:04Z</time>
      </trkpt>
      <trkpt lat="48.64127" lon="2.1214">
        <ele>110.2</ele>
        <time>2026-01-30T10:45:05Z</time>
      </trkpt>
      <trkpt lat="48.64131" lon="2.12132">
        <ele>110.2</ele>
        <time>2026-01-30T10:45:06Z</time>
      </trkpt>
      <trkpt lat="48.64135" lon="2.12123">
        <ele>109.6</ele>
        <time>2026-01-30T10:45:07Z</time>
      </trkpt>
      <trkpt lat="48.64139" lon="2.12115">
        <ele>109</ele>
        <time>2026-01-30T10:45:08Z</time>
      </trkpt>
      <trkpt lat="48.64144" lon="2.12106">
        <ele>109</ele>
        <time>2026-01-30T10:45:09Z</time>
      </trkpt>
      <trkpt lat="48.64148" lon="2.12098">
        <ele>109</ele>
        <time>2026-01-30T10:45:10Z</time>
      </trkpt>
      <trkpt lat="48.64152" lon="2.12089">
        <ele>108.8</ele>
        <time>2026-01-30T10:45:11Z</time>
      </trkpt>
      <trkpt lat="48.64156" lon="2.12081">
        <ele>108.6</ele>
        <time>2026-01-30T10:45:12Z</time>
      </trkpt>
      <trkpt lat="48.6416" lon="2.12073">
        <ele>108.6</ele>
        <time>2026-01-30T10:45:13Z</time>
      </trkpt>
      <trkpt lat="48.64165" lon="2.12065">
        <ele>108.6</ele>
        <time>2026-01-30T10:45:14Z</time>
      </trkpt>
      <trkpt lat="48.64169" lon="2.12057">
        <ele>108.6</ele>
        <time>2026-01-30T10:45:15Z</time>
      </trkpt>
      <trkpt lat="48.64173" lon="2.12049">
        <ele>108.8</ele>
        <time>2026-01-30T10:45:16Z</time>
      </trkpt>
      <trkpt lat="48.64177" lon="2.12041">
        <ele>108.8</ele>
        <time>2026-01-30T10:45:17Z</time>
      </trkpt>
      <trkpt lat="48.64181" lon="2.12032">
        <ele>108.8</ele>
        <time>2026-01-30T10:45:18Z</time>
      </trkpt>
      <trkpt lat="48.64185" lon="2.12025">
        <ele>109.6</ele>
        <time>2026-01-30T10:45:19Z</time>
      </trkpt>
      <trkpt lat="48.64189" lon="2.12017">
        <ele>109.8</ele>
        <time>2026-01-30T10:45:20Z</time>
      </trkpt>
      <trkpt lat="48.64192" lon="2.12009">
        <ele>109.8</ele>
        <time>2026-01-30T10:45:21Z</time>
      </trkpt>
      <trkpt lat="48.64196" lon="2.12001">
        <ele>109.8</ele>
        <time>2026-01-30T10:45:22Z</time>
      </trkpt>
      <trkpt lat="48.642" lon="2.11993">
        <ele>110</ele>
        <time>2026-01-30T10:45:23Z</time>
      </trkpt>
      <trkpt lat="48.64204" lon="2.11985">
        <ele>109.8</ele>
        <time>2026-01-30T10:45:24Z</time>
      </trkpt>
      <trkpt lat="48.64207" lon="2.11978">
        <ele>109.8</ele>
        <time>2026-01-30T10:45:25Z</time>
      </trkpt>
      <trkpt lat="48.64211" lon="2.1197">
        <ele>109.8</ele>
        <time>2026-01-30T10:45:26Z</time>
      </trkpt>
      <trkpt lat="48.64215" lon="2.11962">
        <ele>109.8</ele>
        <time>2026-01-30T10:45:27Z</time>
      </trkpt>
      <trkpt lat="48.64219" lon="2.11954">
        <ele>109.4</ele>
        <time>2026-01-30T10:45:28Z</time>
      </trkpt>
      <trkpt lat="48.64223" lon="2.11946">
        <ele>109.4</ele>
        <time>2026-01-30T10:45:29Z</time>
      </trkpt>
      <trkpt lat="48.64227" lon="2.11938">
        <ele>109.4</ele>
        <time>2026-01-30T10:45:30Z</time>
      </trkpt>
      <trkpt lat="48.64231" lon="2.1193">
        <ele>109.8</ele>
        <time>2026-01-30T10:45:31Z</time>
      </trkpt>
      <trkpt lat="48.64234" lon="2.11923">
        <ele>109.4</ele>
        <time>2026-01-30T10:45:32Z</time>
      </trkpt>
      <trkpt lat="48.64238" lon="2.11915">
        <ele>109.4</ele>
        <time>2026-01-30T10:45:33Z</time>
      </trkpt>
      <trkpt lat="48.64242" lon="2.11907">
        <ele>109.4</ele>
        <time>2026-01-30T10:45:34Z</time>
      </trkpt>
      <trkpt lat="48.64246" lon="2.11899">
        <ele>109.4</ele>
        <time>2026-01-30T10:45:35Z</time>
      </trkpt>
      <trkpt lat="48.6425" lon="2.11891">
        <ele>108.8</ele>
        <time>2026-01-30T10:45:36Z</time>
      </trkpt>
      <trkpt lat="48.64254" lon="2.11884">
        <ele>108.8</ele>
        <time>2026-01-30T10:45:37Z</time>
      </trkpt>
      <trkpt lat="48.64257" lon="2.11876">
        <ele>108.8</ele>
        <time>2026-01-30T10:45:38Z</time>
      </trkpt>
      <trkpt lat="48.64261" lon="2.11868">
        <ele>109.8</ele>
        <time>2026-01-30T10:45:39Z</time>
      </trkpt>
      <trkpt lat="48.64265" lon="2.1186">
        <ele>109.6</ele>
        <time>2026-01-30T10:45:40Z</time>
      </trkpt>
      <trkpt lat="48.64268" lon="2.11853">
        <ele>109.6</ele>
        <time>2026-01-30T10:45:41Z</time>
      </trkpt>
      <trkpt lat="48.64272" lon="2.11845">
        <ele>109.6</ele>
        <time>2026-01-30T10:45:42Z</time>
      </trkpt>
      <trkpt lat="48.64276" lon="2.11837">
        <ele>110.2</ele>
        <time>2026-01-30T10:45:43Z</time>
      </trkpt>
      <trkpt lat="48.6428" lon="2.1183">
        <ele>110</ele>
        <time>2026-01-30T10:45:44Z</time>
      </trkpt>
      <trkpt lat="48.64283" lon="2.11822">
        <ele>110</ele>
        <time>2026-01-30T10:45:45Z</time>
      </trkpt>
      <trkpt lat="48.64287" lon="2.11815">
        <ele>110</ele>
        <time>2026-01-30T10:45:46Z</time>
      </trkpt>
      <trkpt lat="48.64291" lon="2.11807">
        <ele>110.4</ele>
        <time>2026-01-30T10:45:47Z</time>
      </trkpt>
      <trkpt lat="48.64294" lon="2.11799">
        <ele>110.6</ele>
        <time>2026-01-30T10:45:48Z</time>
      </trkpt>
      <trkpt lat="48.64298" lon="2.11792">
        <ele>110.6</ele>
        <time>2026-01-30T10:45:49Z</time>
      </trkpt>
      <trkpt lat="48.64302" lon="2.11784">
        <ele>110.6</ele>
        <time>2026-01-30T10:45:50Z</time>
      </trkpt>
      <trkpt lat="48.64305" lon="2.11777">
        <ele>110.2</ele>
        <time>2026-01-30T10:45:51Z</time>
      </trkpt>
      <trkpt lat="48.64309" lon="2.11769">
        <ele>110.2</ele>
        <time>2026-01-30T10:45:52Z</time>
      </trkpt>
      <trkpt lat="48.64313" lon="2.11761">
        <ele>110.2</ele>
        <time>2026-01-30T10:45:53Z</time>
      </trkpt>
      <trkpt lat="48.64316" lon="2.11754">
        <ele>110.2</ele>
        <time>2026-01-30T10:45:54Z</time>
      </trkpt>
      <trkpt lat="48.6432" lon="2.11746">
        <ele>110.6</ele>
        <time>2026-01-30T10:45:55Z</time>
      </trkpt>
      <trkpt lat="48.64324" lon="2.11739">
        <ele>110.4</ele>
        <time>2026-01-30T10:45:56Z</time>
      </trkpt>
      <trkpt lat="48.64328" lon="2.11731">
        <ele>110.4</ele>
        <time>2026-01-30T10:45:57Z</time>
      </trkpt>
      <trkpt lat="48.64332" lon="2.11723">
        <ele>110.4</ele>
        <time>2026-01-30T10:45:58Z</time>
      </trkpt>
      <trkpt lat="48.64336" lon="2.11714">
        <ele>109.4</ele>
        <time>2026-01-30T10:45:59Z</time>
      </trkpt>
      <trkpt lat="48.6434" lon="2.11706">
        <ele>109.8</ele>
        <time>2026-01-30T10:46:00Z</time>
      </trkpt>
      <trkpt lat="48.64345" lon="2.11697">
        <ele>109.8</ele>
        <time>2026-01-30T10:46:01Z</time>
      </trkpt>
      <trkpt lat="48.64349" lon="2.11689">
        <ele>109.8</ele>
        <time>2026-01-30T10:46:02Z</time>
      </trkpt>
      <trkpt lat="48.64353" lon="2.11681">
        <ele>110</ele>
        <time>2026-01-30T10:46:03Z</time>
      </trkpt>
      <trkpt lat="48.64357" lon="2.11672">
        <ele>110.2</ele>
        <time>2026-01-30T10:46:04Z</time>
      </trkpt>
      <trkpt lat="48.64361" lon="2.11664">
        <ele>110.2</ele>
        <time>2026-01-30T10:46:05Z</time>
      </trkpt>
      <trkpt lat="48.64365" lon="2.11656">
        <ele>110.2</ele>
        <time>2026-01-30T10:46:06Z</time>
      </trkpt>
      <trkpt lat="48.64369" lon="2.11648">
        <ele>110.6</ele>
        <time>2026-01-30T10:46:07Z</time>
      </trkpt>
      <trkpt lat="48.64373" lon="2.1164">
        <ele>110.8</ele>
        <time>2026-01-30T10:46:08Z</time>
      </trkpt>
      <trkpt lat="48.64377" lon="2.11632">
        <ele>110.8</ele>
        <time>2026-01-30T10:46:09Z</time>
      </trkpt>
      <trkpt lat="48.64381" lon="2.11624">
        <ele>110.8</ele>
        <time>2026-01-30T10:46:10Z</time>
      </trkpt>
      <trkpt lat="48.64385" lon="2.11616">
        <ele>110.8</ele>
        <time>2026-01-30T10:46:11Z</time>
      </trkpt>
      <trkpt lat="48.64389" lon="2.11608">
        <ele>110.8</ele>
        <time>2026-01-30T10:46:12Z</time>
      </trkpt>
      <trkpt lat="48.64393" lon="2.116">
        <ele>110.8</ele>
        <time>2026-01-30T10:46:13Z</time>
      </trkpt>
      <trkpt lat="48.64397" lon="2.11592">
        <ele>110.8</ele>
        <time>2026-01-30T10:46:14Z</time>
      </trkpt>
      <trkpt lat="48.64401" lon="2.11584">
        <ele>110</ele>
        <time>2026-01-30T10:46:15Z</time>
      </trkpt>
      <trkpt lat="48.64404" lon="2.11575">
        <ele>110.4</ele>
        <time>2026-01-30T10:46:16Z</time>
      </trkpt>
      <trkpt lat="48.64408" lon="2.11567">
        <ele>110.4</ele>
        <time>2026-01-30T10:46:17Z</time>
      </trkpt>
      <trkpt lat="48.64412" lon="2.11559">
        <ele>110.4</ele>
        <time>2026-01-30T10:46:18Z</time>
      </trkpt>
      <trkpt lat="48.64416" lon="2.11551">
        <ele>110.4</ele>
        <time>2026-01-30T10:46:19Z</time>
      </trkpt>
      <trkpt lat="48.6442" lon="2.11544">
        <ele>110.2</ele>
        <time>2026-01-30T10:46:20Z</time>
      </trkpt>
      <trkpt lat="48.64425" lon="2.11535">
        <ele>110.2</ele>
        <time>2026-01-30T10:46:21Z</time>
      </trkpt>
      <trkpt lat="48.64429" lon="2.11527">
        <ele>110.2</ele>
        <time>2026-01-30T10:46:22Z</time>
      </trkpt>
      <trkpt lat="48.64433" lon="2.11519">
        <ele>110.2</ele>
        <time>2026-01-30T10:46:23Z</time>
      </trkpt>
      <trkpt lat="48.64437" lon="2.11511">
        <ele>109.8</ele>
        <time>2026-01-30T10:46:24Z</time>
      </trkpt>
      <trkpt lat="48.64441" lon="2.11503">
        <ele>109.8</ele>
        <time>2026-01-30T10:46:25Z</time>
      </trkpt>
      <trkpt lat="48.64445" lon="2.11495">
        <ele>109.8</ele>
        <time>2026-01-30T10:46:26Z</time>
      </trkpt>
      <trkpt lat="48.64449" lon="2.11487">
        <ele>110</ele>
        <time>2026-01-30T10:46:27Z</time>
      </trkpt>
      <trkpt lat="48.64453" lon="2.11478">
        <ele>110</ele>
        <time>2026-01-30T10:46:28Z</time>
      </trkpt>
      <trkpt lat="48.64457" lon="2.1147">
        <ele>110</ele>
        <time>2026-01-30T10:46:29Z</time>
      </trkpt>
      <trkpt lat="48.6446" lon="2.11463">
        <ele>110</ele>
        <time>2026-01-30T10:46:30Z</time>
      </trkpt>
      <trkpt lat="48.64464" lon="2.11455">
        <ele>110</ele>
        <time>2026-01-30T10:46:31Z</time>
      </trkpt>
      <trkpt lat="48.64468" lon="2.11447">
        <ele>110.4</ele>
        <time>2026-01-30T10:46:32Z</time>
      </trkpt>
      <trkpt lat="48.64472" lon="2.11439">
        <ele>110.4</ele>
        <time>2026-01-30T10:46:33Z</time>
      </trkpt>
      <trkpt lat="48.64476" lon="2.11431">
        <ele>110.4</ele>
        <time>2026-01-30T10:46:34Z</time>
      </trkpt>
      <trkpt lat="48.6448" lon="2.11423">
        <ele>110.8</ele>
        <time>2026-01-30T10:46:35Z</time>
      </trkpt>
      <trkpt lat="48.64484" lon="2.11416">
        <ele>111</ele>
        <time>2026-01-30T10:46:36Z</time>
      </trkpt>
      <trkpt lat="48.64488" lon="2.11408">
        <ele>111</ele>
        <time>2026-01-30T10:46:37Z</time>
      </trkpt>
      <trkpt lat="48.64492" lon="2.114">
        <ele>111</ele>
        <time>2026-01-30T10:46:38Z</time>
      </trkpt>
      <trkpt lat="48.64496" lon="2.11392">
        <ele>111</ele>
        <time>2026-01-30T10:46:39Z</time>
      </trkpt>
      <trkpt lat="48.645" lon="2.11384">
        <ele>110.2</ele>
        <time>2026-01-30T10:46:40Z</time>
      </trkpt>
      <trkpt lat="48.64503" lon="2.11377">
        <ele>110.2</ele>
        <time>2026-01-30T10:46:41Z</time>
      </trkpt>
      <trkpt lat="48.64507" lon="2.11369">
        <ele>110.2</ele>
        <time>2026-01-30T10:46:42Z</time>
      </trkpt>
      <trkpt lat="48.64511" lon="2.11361">
        <ele>110.8</ele>
        <time>2026-01-30T10:46:43Z</time>
      </trkpt>
      <trkpt lat="48.64515" lon="2.11353">
        <ele>111.4</ele>
        <time>2026-01-30T10:46:44Z</time>
      </trkpt>
      <trkpt lat="48.64519" lon="2.11346">
        <ele>111.4</ele>
        <time>2026-01-30T10:46:45Z</time>
      </trkpt>
      <trkpt lat="48.64522" lon="2.11338">
        <ele>111.4</ele>
        <time>2026-01-30T10:46:46Z</time>
      </trkpt>
      <trkpt lat="48.64526" lon="2.1133">
        <ele>111.4</ele>
        <time>2026-01-30T10:46:47Z</time>
      </trkpt>
      <trkpt lat="48.6453" lon="2.11322">
        <ele>111</ele>
        <time>2026-01-30T10:46:48Z</time>
      </trkpt>
      <trkpt lat="48.64534" lon="2.11315">
        <ele>111</ele>
        <time>2026-01-30T10:46:49Z</time>
      </trkpt>
      <trkpt lat="48.64538" lon="2.11307">
        <ele>111</ele>
        <time>2026-01-30T10:46:50Z</time>
      </trkpt>
      <trkpt lat="48.64542" lon="2.113">
        <ele>111</ele>
        <time>2026-01-30T10:46:51Z</time>
      </trkpt>
      <trkpt lat="48.64546" lon="2.11292">
        <ele>111</ele>
        <time>2026-01-30T10:46:52Z</time>
      </trkpt>
      <trkpt lat="48.64549" lon="2.11284">
        <ele>111</ele>
        <time>2026-01-30T10:46:53Z</time>
      </trkpt>
      <trkpt lat="48.64553" lon="2.11277">
        <ele>111</ele>
        <time>2026-01-30T10:46:54Z</time>
      </trkpt>
      <trkpt lat="48.64557" lon="2.11269">
        <ele>111</ele>
        <time>2026-01-30T10:46:55Z</time>
      </trkpt>
      <trkpt lat="48.64561" lon="2.11261">
        <ele>111.4</ele>
        <time>2026-01-30T10:46:56Z</time>
      </trkpt>
      <trkpt lat="48.64564" lon="2.11254">
        <ele>111.4</ele>
        <time>2026-01-30T10:46:57Z</time>
      </trkpt>
      <trkpt lat="48.64568" lon="2.11246">
        <ele>111.4</ele>
        <time>2026-01-30T10:46:58Z</time>
      </trkpt>
      <trkpt lat="48.64572" lon="2.11239">
        <ele>111.4</ele>
        <time>2026-01-30T10:46:59Z</time>
      </trkpt>
      <trkpt lat="48.64576" lon="2.11231">
        <ele>111.6</ele>
        <time>2026-01-30T10:47:00Z</time>
      </trkpt>
      <trkpt lat="48.6458" lon="2.11222">
        <ele>111.6</ele>
        <time>2026-01-30T10:47:01Z</time>
      </trkpt>
      <trkpt lat="48.64584" lon="2.11214">
        <ele>111.6</ele>
        <time>2026-01-30T10:47:02Z</time>
      </trkpt>
      <trkpt lat="48.64588" lon="2.11205">
        <ele>111.6</ele>
        <time>2026-01-30T10:47:03Z</time>
      </trkpt>
      <trkpt lat="48.64592" lon="2.11197">
        <ele>112.2</ele>
        <time>2026-01-30T10:47:04Z</time>
      </trkpt>
      <trkpt lat="48.64597" lon="2.11189">
        <ele>112.2</ele>
        <time>2026-01-30T10:47:05Z</time>
      </trkpt>
      <trkpt lat="48.64601" lon="2.1118">
        <ele>112.2</ele>
        <time>2026-01-30T10:47:06Z</time>
      </trkpt>
      <trkpt lat="48.64605" lon="2.11172">
        <ele>112.4</ele>
        <time>2026-01-30T10:47:07Z</time>
      </trkpt>
      <trkpt lat="48.64609" lon="2.11164">
        <ele>111.8</ele>
        <time>2026-01-30T10:47:08Z</time>
      </trkpt>
      <trkpt lat="48.64612" lon="2.11156">
        <ele>111.8</ele>
        <time>2026-01-30T10:47:09Z</time>
      </trkpt>
      <trkpt lat="48.64616" lon="2.11148">
        <ele>111.8</ele>
        <time>2026-01-30T10:47:10Z</time>
      </trkpt>
      <trkpt lat="48.64621" lon="2.1114">
        <ele>111.8</ele>
        <time>2026-01-30T10:47:11Z</time>
      </trkpt>
      <trkpt lat="48.64624" lon="2.11132">
        <ele>111.4</ele>
        <time>2026-01-30T10:47:12Z</time>
      </trkpt>
      <trkpt lat="48.64629" lon="2.11124">
        <ele>111.4</ele>
        <time>2026-01-30T10:47:13Z</time>
      </trkpt>
      <trkpt lat="48.64633" lon="2.11116">
        <ele>111.4</ele>
        <time>2026-01-30T10:47:14Z</time>
      </trkpt>
      <trkpt lat="48.64637" lon="2.11108">
        <ele>111.8</ele>
        <time>2026-01-30T10:47:15Z</time>
      </trkpt>
      <trkpt lat="48.64641" lon="2.111">
        <ele>111.6</ele>
        <time>2026-01-30T10:47:16Z</time>
      </trkpt>
      <trkpt lat="48.64644" lon="2.11092">
        <ele>111.6</ele>
        <time>2026-01-30T10:47:17Z</time>
      </trkpt>
      <trkpt lat="48.64648" lon="2.11084">
        <ele>111.6</ele>
        <time>2026-01-30T10:47:18Z</time>
      </trkpt>
      <trkpt lat="48.64652" lon="2.11076">
        <ele>112.4</ele>
        <time>2026-01-30T10:47:19Z</time>
      </trkpt>
      <trkpt lat="48.64656" lon="2.11069">
        <ele>113</ele>
        <time>2026-01-30T10:47:20Z</time>
      </trkpt>
      <trkpt lat="48.6466" lon="2.1106">
        <ele>113</ele>
        <time>2026-01-30T10:47:21Z</time>
      </trkpt>
      <trkpt lat="48.64664" lon="2.11052">
        <ele>113</ele>
        <time>2026-01-30T10:47:22Z</time>
      </trkpt>
      <trkpt lat="48.64668" lon="2.11044">
        <ele>113</ele>
        <time>2026-01-30T10:47:23Z</time>
      </trkpt>
      <trkpt lat="48.64672" lon="2.11036">
        <ele>112</ele>
        <time>2026-01-30T10:47:24Z</time>
      </trkpt>
      <trkpt lat="48.64676" lon="2.11028">
        <ele>112</ele>
        <time>2026-01-30T10:47:25Z</time>
      </trkpt>
      <trkpt lat="48.6468" lon="2.1102">
        <ele>112</ele>
        <time>2026-01-30T10:47:26Z</time>
      </trkpt>
      <trkpt lat="48.64684" lon="2.11011">
        <ele>111.2</ele>
        <time>2026-01-30T10:47:27Z</time>
      </trkpt>
      <trkpt lat="48.64688" lon="2.11003">
        <ele>111</ele>
        <time>2026-01-30T10:47:28Z</time>
      </trkpt>
      <trkpt lat="48.64693" lon="2.10994">
        <ele>111</ele>
        <time>2026-01-30T10:47:29Z</time>
      </trkpt>
      <trkpt lat="48.64697" lon="2.10986">
        <ele>111</ele>
        <time>2026-01-30T10:47:30Z</time>
      </trkpt>
      <trkpt lat="48.64701" lon="2.10978">
        <ele>111</ele>
        <time>2026-01-30T10:47:31Z</time>
      </trkpt>
      <trkpt lat="48.64705" lon="2.10969">
        <ele>110.6</ele>
        <time>2026-01-30T10:47:32Z</time>
      </trkpt>
      <trkpt lat="48.64709" lon="2.10961">
        <ele>110.6</ele>
        <time>2026-01-30T10:47:33Z</time>
      </trkpt>
      <trkpt lat="48.64713" lon="2.10953">
        <ele>110.6</ele>
        <time>2026-01-30T10:47:34Z</time>
      </trkpt>
      <trkpt lat="48.64717" lon="2.10944">
        <ele>110.6</ele>
        <time>2026-01-30T10:47:35Z</time>
      </trkpt>
      <trkpt lat="48.64722" lon="2.10936">
        <ele>111.2</ele>
        <time>2026-01-30T10:47:36Z</time>
      </trkpt>
      <trkpt lat="48.64726" lon="2.10928">
        <ele>111.2</ele>
        <time>2026-01-30T10:47:37Z</time>
      </trkpt>
      <trkpt lat="48.64731" lon="2.10921">
        <ele>111.2</ele>
        <time>2026-01-30T10:47:38Z</time>
      </trkpt>
      <trkpt lat="48.64736" lon="2.10916">
        <ele>111.2</ele>
        <time>2026-01-30T10:47:39Z</time>
      </trkpt>
      <trkpt lat="48.64741" lon="2.10911">
        <ele>111.4</ele>
        <time>2026-01-30T10:47:40Z</time>
      </trkpt>
      <trkpt lat="48.64745" lon="2.10904">
        <ele>111.4</ele>
        <time>2026-01-30T10:47:41Z</time>
      </trkpt>
      <trkpt lat="48.64746" lon="2.10896">
        <ele>111.4</ele>
        <time>2026-01-30T10:47:42Z</time>
      </trkpt>
      <trkpt lat="48.64744" lon="2.10888">
        <ele>112.2</ele>
        <time>2026-01-30T10:47:43Z</time>
      </trkpt>
      <trkpt lat="48.64739" lon="2.10883">
        <ele>111.8</ele>
        <time>2026-01-30T10:47:44Z</time>
      </trkpt>
      <trkpt lat="48.64735" lon="2.10878">
        <ele>111.8</ele>
        <time>2026-01-30T10:47:45Z</time>
      </trkpt>
      <trkpt lat="48.64731" lon="2.10871">
        <ele>111.8</ele>
        <time>2026-01-30T10:47:46Z</time>
      </trkpt>
      <trkpt lat="48.64728" lon="2.10862">
        <ele>110.8</ele>
        <time>2026-01-30T10:47:47Z</time>
      </trkpt>
      <trkpt lat="48.64727" lon="2.10852">
        <ele>110.2</ele>
        <time>2026-01-30T10:47:48Z</time>
      </trkpt>
      <trkpt lat="48.64727" lon="2.10842">
        <ele>110.2</ele>
        <time>2026-01-30T10:47:49Z</time>
      </trkpt>
      <trkpt lat="48.64726" lon="2.10831">
        <ele>110.2</ele>
        <time>2026-01-30T10:47:50Z</time>
      </trkpt>
      <trkpt lat="48.64726" lon="2.10821">
        <ele>109.4</ele>
        <time>2026-01-30T10:47:51Z</time>
      </trkpt>
      <trkpt lat="48.64726" lon="2.10811">
        <ele>109.6</ele>
        <time>2026-01-30T10:47:52Z</time>
      </trkpt>
      <trkpt lat="48.64726" lon="2.108">
        <ele>109.6</ele>
        <time>2026-01-30T10:47:53Z</time>
      </trkpt>
      <trkpt lat="48.64727" lon="2.1079">
        <ele>109.6</ele>
        <time>2026-01-30T10:47:54Z</time>
      </trkpt>
      <trkpt lat="48.64726" lon="2.1078">
        <ele>109.6</ele>
        <time>2026-01-30T10:47:55Z</time>
      </trkpt>
      <trkpt lat="48.64726" lon="2.10769">
        <ele>110</ele>
        <time>2026-01-30T10:47:56Z</time>
      </trkpt>
      <trkpt lat="48.64726" lon="2.10759">
        <ele>110</ele>
        <time>2026-01-30T10:47:57Z</time>
      </trkpt>
      <trkpt lat="48.64724" lon="2.10749">
        <ele>110</ele>
        <time>2026-01-30T10:47:58Z</time>
      </trkpt>
      <trkpt lat="48.64722" lon="2.1074">
        <ele>109.8</ele>
        <time>2026-01-30T10:47:59Z</time>
      </trkpt>
      <trkpt lat="48.64721" lon="2.1073">
        <ele>109.6</ele>
        <time>2026-01-30T10:48:00Z</time>
      </trkpt>
      <trkpt lat="48.64719" lon="2.1072">
        <ele>109.6</ele>
        <time>2026-01-30T10:48:01Z</time>
      </trkpt>
      <trkpt lat="48.64717" lon="2.1071">
        <ele>109.6</ele>
        <time>2026-01-30T10:48:02Z</time>
      </trkpt>
      <trkpt lat="48.64715" lon="2.10701">
        <ele>109.6</ele>
        <time>2026-01-30T10:48:03Z</time>
      </trkpt>
      <trkpt lat="48.64713" lon="2.10692">
        <ele>109.6</ele>
        <time>2026-01-30T10:48:04Z</time>
      </trkpt>
      <trkpt lat="48.64711" lon="2.10682">
        <ele>109.6</ele>
        <time>2026-01-30T10:48:05Z</time>
      </trkpt>
      <trkpt lat="48.6471" lon="2.10673">
        <ele>109.6</ele>
        <time>2026-01-30T10:48:06Z</time>
      </trkpt>
      <trkpt lat="48.64708" lon="2.10663">
        <ele>109.6</ele>
        <time>2026-01-30T10:48:07Z</time>
      </trkpt>
      <trkpt lat="48.64707" lon="2.10654">
        <ele>110.8</ele>
        <time>2026-01-30T10:48:08Z</time>
      </trkpt>
      <trkpt lat="48.64707" lon="2.10644">
        <ele>110.8</ele>
        <time>2026-01-30T10:48:09Z</time>
      </trkpt>
      <trkpt lat="48.64706" lon="2.10635">
        <ele>110.8</ele>
        <time>2026-01-30T10:48:10Z</time>
      </trkpt>
      <trkpt lat="48.64707" lon="2.10625">
        <ele>110.8</ele>
        <time>2026-01-30T10:48:11Z</time>
      </trkpt>
      <trkpt lat="48.64709" lon="2.10616">
        <ele>109.8</ele>
        <time>2026-01-30T10:48:12Z</time>
      </trkpt>
      <trkpt lat="48.6471" lon="2.10607">
        <ele>109.8</ele>
        <time>2026-01-30T10:48:13Z</time>
      </trkpt>
      <trkpt lat="48.64712" lon="2.10598">
        <ele>109.8</ele>
        <time>2026-01-30T10:48:14Z</time>
      </trkpt>
      <trkpt lat="48.64714" lon="2.10589">
        <ele>110.8</ele>
        <time>2026-01-30T10:48:15Z</time>
      </trkpt>
      <trkpt lat="48.64716" lon="2.10579">
        <ele>111.2</ele>
        <time>2026-01-30T10:48:16Z</time>
      </trkpt>
      <trkpt lat="48.64719" lon="2.1057">
        <ele>111.2</ele>
        <time>2026-01-30T10:48:17Z</time>
      </trkpt>
      <trkpt lat="48.64722" lon="2.10561">
        <ele>111.2</ele>
        <time>2026-01-30T10:48:18Z</time>
      </trkpt>
      <trkpt lat="48.64724" lon="2.10552">
        <ele>110.6</ele>
        <time>2026-01-30T10:48:19Z</time>
      </trkpt>
      <trkpt lat="48.64728" lon="2.10544">
        <ele>109.8</ele>
        <time>2026-01-30T10:48:20Z</time>
      </trkpt>
      <trkpt lat="48.64731" lon="2.10536">
        <ele>109.8</ele>
        <time>2026-01-30T10:48:21Z</time>
      </trkpt>
      <trkpt lat="48.64734" lon="2.10528">
        <ele>109.8</ele>
        <time>2026-01-30T10:48:22Z</time>
      </trkpt>
      <trkpt lat="48.64738" lon="2.1052">
        <ele>110.4</ele>
        <time>2026-01-30T10:48:23Z</time>
      </trkpt>
      <trkpt lat="48.64741" lon="2.10512">
        <ele>110.2</ele>
        <time>2026-01-30T10:48:24Z</time>
      </trkpt>
      <trkpt lat="48.64744" lon="2.10504">
        <ele>110.2</ele>
        <time>2026-01-30T10:48:25Z</time>
      </trkpt>
      <trkpt lat="48.64747" lon="2.10496">
        <ele>110.2</ele>
        <time>2026-01-30T10:48:26Z</time>
      </trkpt>
      <trkpt lat="48.6475" lon="2.10488">
        <ele>109.6</ele>
        <time>2026-01-30T10:48:27Z</time>
      </trkpt>
      <trkpt lat="48.64754" lon="2.1048">
        <ele>109.6</ele>
        <time>2026-01-30T10:48:28Z</time>
      </trkpt>
      <trkpt lat="48.64757" lon="2.10471">
        <ele>109.6</ele>
        <time>2026-01-30T10:48:29Z</time>
      </trkpt>
      <trkpt lat="48.64761" lon="2.10462">
        <ele>109.6</ele>
        <time>2026-01-30T10:48:30Z</time>
      </trkpt>
      <trkpt lat="48.64764" lon="2.10454">
        <ele>108.6</ele>
        <time>2026-01-30T10:48:31Z</time>
      </trkpt>
      <trkpt lat="48.64768" lon="2.10445">
        <ele>108</ele>
        <time>2026-01-30T10:48:32Z</time>
      </trkpt>
      <trkpt lat="48.64771" lon="2.10437">
        <ele>108</ele>
        <time>2026-01-30T10:48:33Z</time>
      </trkpt>
      <trkpt lat="48.64774" lon="2.10428">
        <ele>108</ele>
        <time>2026-01-30T10:48:34Z</time>
      </trkpt>
      <trkpt lat="48.64777" lon="2.1042">
        <ele>108</ele>
        <time>2026-01-30T10:48:35Z</time>
      </trkpt>
      <trkpt lat="48.6478" lon="2.10411">
        <ele>107.4</ele>
        <time>2026-01-30T10:48:36Z</time>
      </trkpt>
      <trkpt lat="48.64782" lon="2.10401">
        <ele>107.4</ele>
        <time>2026-01-30T10:48:37Z</time>
      </trkpt>
      <trkpt lat="48.64781" lon="2.1039">
        <ele>107.4</ele>
        <time>2026-01-30T10:48:38Z</time>
      </trkpt>
      <trkpt lat="48.6478" lon="2.10379">
        <ele>106.4</ele>
        <time>2026-01-30T10:48:39Z</time>
      </trkpt>
      <trkpt lat="48.64777" lon="2.10367">
        <ele>103</ele>
        <time>2026-01-30T10:48:40Z</time>
      </trkpt>
      <trkpt lat="48.64773" lon="2.10356">
        <ele>103</ele>
        <time>2026-01-30T10:48:41Z</time>
      </trkpt>
      <trkpt lat="48.64767" lon="2.10346">
        <ele>103</ele>
        <time>2026-01-30T10:48:42Z</time>
      </trkpt>
      <trkpt lat="48.64761" lon="2.10336">
        <ele>102</ele>
        <time>2026-01-30T10:48:43Z</time>
      </trkpt>
      <trkpt lat="48.64754" lon="2.10329">
        <ele>100</ele>
        <time>2026-01-30T10:48:44Z</time>
      </trkpt>
      <trkpt lat="48.64746" lon="2.10323">
        <ele>100</ele>
        <time>2026-01-30T10:48:45Z</time>
      </trkpt>
      <trkpt lat="48.64737" lon="2.10317">
        <ele>100</ele>
        <time>2026-01-30T10:48:46Z</time>
      </trkpt>
      <trkpt lat="48.64729" lon="2.10312">
        <ele>99</ele>
        <time>2026-01-30T10:48:47Z</time>
      </trkpt>
      <trkpt lat="48.6472" lon="2.10307">
        <ele>97.6</ele>
        <time>2026-01-30T10:48:48Z</time>
      </trkpt>
      <trkpt lat="48.6471" lon="2.10303">
        <ele>97.6</ele>
        <time>2026-01-30T10:48:49Z</time>
      </trkpt>
      <trkpt lat="48.64701" lon="2.10297">
        <ele>97.6</ele>
        <time>2026-01-30T10:48:50Z</time>
      </trkpt>
      <trkpt lat="48.64692" lon="2.10288">
        <ele>96.6</ele>
        <time>2026-01-30T10:48:51Z</time>
      </trkpt>
      <trkpt lat="48.64684" lon="2.10278">
        <ele>92.4</ele>
        <time>2026-01-30T10:48:52Z</time>
      </trkpt>
      <trkpt lat="48.64677" lon="2.10266">
        <ele>92.4</ele>
        <time>2026-01-30T10:48:53Z</time>
      </trkpt>
      <trkpt lat="48.6467" lon="2.10253">
        <ele>92.4</ele>
        <time>2026-01-30T10:48:54Z</time>
      </trkpt>
      <trkpt lat="48.64665" lon="2.10238">
        <ele>91.4</ele>
        <time>2026-01-30T10:48:55Z</time>
      </trkpt>
      <trkpt lat="48.64661" lon="2.10224">
        <ele>90.4</ele>
        <time>2026-01-30T10:48:56Z</time>
      </trkpt>
      <trkpt lat="48.64657" lon="2.10209">
        <ele>90.4</ele>
        <time>2026-01-30T10:48:57Z</time>
      </trkpt>
      <trkpt lat="48.64653" lon="2.10192">
        <ele>90.4</ele>
        <time>2026-01-30T10:48:58Z</time>
      </trkpt>
      <trkpt lat="48.64648" lon="2.10178">
        <ele>89.4</ele>
        <time>2026-01-30T10:48:59Z</time>
      </trkpt>
      <trkpt lat="48.64641" lon="2.10163">
        <ele>85.6</ele>
        <time>2026-01-30T10:49:00Z</time>
      </trkpt>
      <trkpt lat="48.64634" lon="2.10151">
        <ele>85.6</ele>
        <time>2026-01-30T10:49:01Z</time>
      </trkpt>
      <trkpt lat="48.64627" lon="2.10139">
        <ele>85.6</ele>
        <time>2026-01-30T10:49:02Z</time>
      </trkpt>
      <trkpt lat="48.64618" lon="2.1013">
        <ele>84.6</ele>
        <time>2026-01-30T10:49:03Z</time>
      </trkpt>
      <trkpt lat="48.6461" lon="2.10122">
        <ele>82.4</ele>
        <time>2026-01-30T10:49:04Z</time>
      </trkpt>
      <trkpt lat="48.64601" lon="2.10116">
        <ele>82.4</ele>
        <time>2026-01-30T10:49:05Z</time>
      </trkpt>
      <trkpt lat="48.64593" lon="2.1011">
        <ele>82.4</ele>
        <time>2026-01-30T10:49:06Z</time>
      </trkpt>
      <trkpt lat="48.64584" lon="2.10103">
        <ele>81.8</ele>
        <time>2026-01-30T10:49:07Z</time>
      </trkpt>
      <trkpt lat="48.64575" lon="2.10097">
        <ele>81.6</ele>
        <time>2026-01-30T10:49:08Z</time>
      </trkpt>
      <trkpt lat="48.64567" lon="2.10091">
        <ele>81.6</ele>
        <time>2026-01-30T10:49:09Z</time>
      </trkpt>
      <trkpt lat="48.64559" lon="2.10082">
        <ele>81.6</ele>
        <time>2026-01-30T10:49:10Z</time>
      </trkpt>
      <trkpt lat="48.64552" lon="2.10075">
        <ele>80.6</ele>
        <time>2026-01-30T10:49:11Z</time>
      </trkpt>
      <trkpt lat="48.64544" lon="2.10065">
        <ele>79.2</ele>
        <time>2026-01-30T10:49:12Z</time>
      </trkpt>
      <trkpt lat="48.64538" lon="2.10054">
        <ele>79.2</ele>
        <time>2026-01-30T10:49:13Z</time>
      </trkpt>
      <trkpt lat="48.64533" lon="2.10041">
        <ele>79.2</ele>
        <time>2026-01-30T10:49:14Z</time>
      </trkpt>
      <trkpt lat="48.64529" lon="2.10028">
        <ele>78.2</ele>
        <time>2026-01-30T10:49:15Z</time>
      </trkpt>
      <trkpt lat="48.64526" lon="2.10014">
        <ele>77</ele>
        <time>2026-01-30T10:49:16Z</time>
      </trkpt>
      <trkpt lat="48.64524" lon="2.1">
        <ele>77</ele>
        <time>2026-01-30T10:49:17Z</time>
      </trkpt>
      <trkpt lat="48.64522" lon="2.09985">
        <ele>77</ele>
        <time>2026-01-30T10:49:18Z</time>
      </trkpt>
      <trkpt lat="48.64521" lon="2.0997">
        <ele>76</ele>
        <time>2026-01-30T10:49:19Z</time>
      </trkpt>
      <trkpt lat="48.64519" lon="2.09954">
        <ele>72.4</ele>
        <time>2026-01-30T10:49:20Z</time>
      </trkpt>
      <trkpt lat="48.64516" lon="2.09938">
        <ele>72.4</ele>
        <time>2026-01-30T10:49:21Z</time>
      </trkpt>
      <trkpt lat="48.64512" lon="2.09922">
        <ele>72.4</ele>
        <time>2026-01-30T10:49:22Z</time>
      </trkpt>
      <trkpt lat="48.64507" lon="2.09906">
        <ele>71.4</ele>
        <time>2026-01-30T10:49:23Z</time>
      </trkpt>
      <trkpt lat="48.64502" lon="2.09893">
        <ele>70.2</ele>
        <time>2026-01-30T10:49:24Z</time>
      </trkpt>
      <trkpt lat="48.64497" lon="2.09882">
        <ele>70.2</ele>
        <time>2026-01-30T10:49:25Z</time>
      </trkpt>
      <trkpt lat="48.64492" lon="2.09871">
        <ele>70.2</ele>
        <time>2026-01-30T10:49:26Z</time>
      </trkpt>
      <trkpt lat="48.64485" lon="2.09859">
        <ele>69.2</ele>
        <time>2026-01-30T10:49:27Z</time>
      </trkpt>
      <trkpt lat="48.64479" lon="2.09847">
        <ele>68.2</ele>
        <time>2026-01-30T10:49:28Z</time>
      </trkpt>
      <trkpt lat="48.64471" lon="2.09835">
        <ele>68.2</ele>
        <time>2026-01-30T10:49:29Z</time>
      </trkpt>
      <trkpt lat="48.64464" lon="2.09823">
        <ele>68.2</ele>
        <time>2026-01-30T10:49:30Z</time>
      </trkpt>
      <trkpt lat="48.64457" lon="2.09812">
        <ele>68.2</ele>
        <time>2026-01-30T10:49:31Z</time>
      </trkpt>
      <trkpt lat="48.64451" lon="2.09802">
        <ele>69</ele>
        <time>2026-01-30T10:49:32Z</time>
      </trkpt>
      <trkpt lat="48.64444" lon="2.09791">
        <ele>69</ele>
        <time>2026-01-30T10:49:33Z</time>
      </trkpt>
      <trkpt lat="48.64437" lon="2.09781">
        <ele>69</ele>
        <time>2026-01-30T10:49:34Z</time>
      </trkpt>
      <trkpt lat="48.64431" lon="2.09771">
        <ele>68.4</ele>
        <time>2026-01-30T10:49:35Z</time>
      </trkpt>
      <trkpt lat="48.64426" lon="2.09763">
        <ele>68.4</ele>
        <time>2026-01-30T10:49:36Z</time>
      </trkpt>
      <trkpt lat="48.6442" lon="2.09753">
        <ele>68.4</ele>
        <time>2026-01-30T10:49:37Z</time>
      </trkpt>
      <trkpt lat="48.64414" lon="2.09745">
        <ele>68.4</ele>
        <time>2026-01-30T10:49:38Z</time>
      </trkpt>
      <trkpt lat="48.64407" lon="2.09736">
        <ele>67.6</ele>
        <time>2026-01-30T10:49:39Z</time>
      </trkpt>
      <trkpt lat="48.64401" lon="2.09728">
        <ele>66.8</ele>
        <time>2026-01-30T10:49:40Z</time>
      </trkpt>
      <trkpt lat="48.64395" lon="2.09717">
        <ele>66.8</ele>
        <time>2026-01-30T10:49:41Z</time>
      </trkpt>
      <trkpt lat="48.6439" lon="2.09707">
        <ele>66.8</ele>
        <time>2026-01-30T10:49:42Z</time>
      </trkpt>
      <trkpt lat="48.64385" lon="2.09696">
        <ele>66.8</ele>
        <time>2026-01-30T10:49:43Z</time>
      </trkpt>
      <trkpt lat="48.64381" lon="2.09684">
        <ele>66</ele>
        <time>2026-01-30T10:49:44Z</time>
      </trkpt>
      <trkpt lat="48.64379" lon="2.09671">
        <ele>66</ele>
        <time>2026-01-30T10:49:45Z</time>
      </trkpt>
      <trkpt lat="48.64376" lon="2.09658">
        <ele>66</ele>
        <time>2026-01-30T10:49:46Z</time>
      </trkpt>
      <trkpt lat="48.64374" lon="2.09644">
        <ele>65</ele>
        <time>2026-01-30T10:49:47Z</time>
      </trkpt>
      <trkpt lat="48.64374" lon="2.09629">
        <ele>63.6</ele>
        <time>2026-01-30T10:49:48Z</time>
      </trkpt>
      <trkpt lat="48.64374" lon="2.09615">
        <ele>63.6</ele>
        <time>2026-01-30T10:49:49Z</time>
      </trkpt>
      <trkpt lat="48.64376" lon="2.09601">
        <ele>63.6</ele>
        <time>2026-01-30T10:49:50Z</time>
      </trkpt>
      <trkpt lat="48.64378" lon="2.09587">
        <ele>62.6</ele>
        <time>2026-01-30T10:49:51Z</time>
      </trkpt>
      <trkpt lat="48.64379" lon="2.09572">
        <ele>62</ele>
        <time>2026-01-30T10:49:52Z</time>
      </trkpt>
      <trkpt lat="48.6438" lon="2.09558">
        <ele>62</ele>
        <time>2026-01-30T10:49:53Z</time>
      </trkpt>
      <trkpt lat="48.64382" lon="2.09545">
        <ele>62</ele>
        <time>2026-01-30T10:49:54Z</time>
      </trkpt>
      <trkpt lat="48.64385" lon="2.09531">
        <ele>61.2</ele>
        <time>2026-01-30T10:49:55Z</time>
      </trkpt>
      <trkpt lat="48.64388" lon="2.09517">
        <ele>60.6</ele>
        <time>2026-01-30T10:49:56Z</time>
      </trkpt>
      <trkpt lat="48.6439" lon="2.09503">
        <ele>60.6</ele>
        <time>2026-01-30T10:49:57Z</time>
      </trkpt>
      <trkpt lat="48.64392" lon="2.09489">
        <ele>60.6</ele>
        <time>2026-01-30T10:49:58Z</time>
      </trkpt>
      <trkpt lat="48.64394" lon="2.09475">
        <ele>59.6</ele>
        <time>2026-01-30T10:49:59Z</time>
      </trkpt>
      <trkpt lat="48.64397" lon="2.09462">
        <ele>59</ele>
        <time>2026-01-30T10:50:00Z</time>
      </trkpt>
      <trkpt lat="48.64399" lon="2.0945">
        <ele>59</ele>
        <time>2026-01-30T10:50:01Z</time>
      </trkpt>
      <trkpt lat="48.64401" lon="2.09438">
        <ele>59</ele>
        <time>2026-01-30T10:50:02Z</time>
      </trkpt>
      <trkpt lat="48.64404" lon="2.09425">
        <ele>58</ele>
        <time>2026-01-30T10:50:03Z</time>
      </trkpt>
      <trkpt lat="48.64407" lon="2.09413">
        <ele>57.2</ele>
        <time>2026-01-30T10:50:04Z</time>
      </trkpt>
      <trkpt lat="48.64411" lon="2.094">
        <ele>57.2</ele>
        <time>2026-01-30T10:50:05Z</time>
      </trkpt>
      <trkpt lat="48.64414" lon="2.09387">
        <ele>57.2</ele>
        <time>2026-01-30T10:50:06Z</time>
      </trkpt>
      <trkpt lat="48.64417" lon="2.09373">
        <ele>57.2</ele>
        <time>2026-01-30T10:50:07Z</time>
      </trkpt>
      <trkpt lat="48.6442" lon="2.09359">
        <ele>56.2</ele>
        <time>2026-01-30T10:50:08Z</time>
      </trkpt>
      <trkpt lat="48.64422" lon="2.09346">
        <ele>56.2</ele>
        <time>2026-01-30T10:50:09Z</time>
      </trkpt>
      <trkpt lat="48.64425" lon="2.09333">
        <ele>56.2</ele>
        <time>2026-01-30T10:50:10Z</time>
      </trkpt>
      <trkpt lat="48.64428" lon="2.09321">
        <ele>56.2</ele>
        <time>2026-01-30T10:50:11Z</time>
      </trkpt>
      <trkpt lat="48.6443" lon="2.09308">
        <ele>56.4</ele>
        <time>2026-01-30T10:50:12Z</time>
      </trkpt>
      <trkpt lat="48.64433" lon="2.09296">
        <ele>56.4</ele>
        <time>2026-01-30T10:50:13Z</time>
      </trkpt>
      <trkpt lat="48.64435" lon="2.09284">
        <ele>56.4</ele>
        <time>2026-01-30T10:50:14Z</time>
      </trkpt>
      <trkpt lat="48.64437" lon="2.09273">
        <ele>56.4</ele>
        <time>2026-01-30T10:50:15Z</time>
      </trkpt>
      <trkpt lat="48.6444" lon="2.09262">
        <ele>57.4</ele>
        <time>2026-01-30T10:50:16Z</time>
      </trkpt>
      <trkpt lat="48.64442" lon="2.09251">
        <ele>57.4</ele>
        <time>2026-01-30T10:50:17Z</time>
      </trkpt>
      <trkpt lat="48.64445" lon="2.09241">
        <ele>57.4</ele>
        <time>2026-01-30T10:50:18Z</time>
      </trkpt>
      <trkpt lat="48.64448" lon="2.09231">
        <ele>57.4</ele>
        <time>2026-01-30T10:50:19Z</time>
      </trkpt>
      <trkpt lat="48.64451" lon="2.09221">
        <ele>57.4</ele>
        <time>2026-01-30T10:50:20Z</time>
      </trkpt>
      <trkpt lat="48.64452" lon="2.09211">
        <ele>57.4</ele>
        <time>2026-01-30T10:50:21Z</time>
      </trkpt>
      <trkpt lat="48.64454" lon="2.09201">
        <ele>57.4</ele>
        <time>2026-01-30T10:50:22Z</time>
      </trkpt>
      <trkpt lat="48.64455" lon="2.0919">
        <ele>58.2</ele>
        <time>2026-01-30T10:50:23Z</time>
      </trkpt>
      <trkpt lat="48.64457" lon="2.0918">
        <ele>57.8</ele>
        <time>2026-01-30T10:50:24Z</time>
      </trkpt>
      <trkpt lat="48.64458" lon="2.09171">
        <ele>57.8</ele>
        <time>2026-01-30T10:50:25Z</time>
      </trkpt>
      <trkpt lat="48.6446" lon="2.09161">
        <ele>57.8</ele>
        <time>2026-01-30T10:50:26Z</time>
      </trkpt>
      <trkpt lat="48.64461" lon="2.09152">
        <ele>58.2</ele>
        <time>2026-01-30T10:50:27Z</time>
      </trkpt>
      <trkpt lat="48.64463" lon="2.09143">
        <ele>59.4</ele>
        <time>2026-01-30T10:50:28Z</time>
      </trkpt>
      <trkpt lat="48.64465" lon="2.09135">
        <ele>59.4</ele>
        <time>2026-01-30T10:50:29Z</time>
      </trkpt>
      <trkpt lat="48.64467" lon="2.09126">
        <ele>59.4</ele>
        <time>2026-01-30T10:50:30Z</time>
      </trkpt>
      <trkpt lat="48.64468" lon="2.09117">
        <ele>59.4</ele>
        <time>2026-01-30T10:50:31Z</time>
      </trkpt>
      <trkpt lat="48.6447" lon="2.09109">
        <ele>60</ele>
        <time>2026-01-30T10:50:32Z</time>
      </trkpt>
      <trkpt lat="48.64472" lon="2.09101">
        <ele>60</ele>
        <time>2026-01-30T10:50:33Z</time>
      </trkpt>
      <trkpt lat="48.64474" lon="2.09093">
        <ele>60</ele>
        <time>2026-01-30T10:50:34Z</time>
      </trkpt>
      <trkpt lat="48.64477" lon="2.09084">
        <ele>60.8</ele>
        <time>2026-01-30T10:50:35Z</time>
      </trkpt>
      <trkpt lat="48.64479" lon="2.09076">
        <ele>61</ele>
        <time>2026-01-30T10:50:36Z</time>
      </trkpt>
      <trkpt lat="48.64482" lon="2.09068">
        <ele>61</ele>
        <time>2026-01-30T10:50:37Z</time>
      </trkpt>
      <trkpt lat="48.64485" lon="2.0906">
        <ele>61</ele>
        <time>2026-01-30T10:50:38Z</time>
      </trkpt>
      <trkpt lat="48.64488" lon="2.09053">
        <ele>60.2</ele>
        <time>2026-01-30T10:50:39Z</time>
      </trkpt>
      <trkpt lat="48.64492" lon="2.09047">
        <ele>59.4</ele>
        <time>2026-01-30T10:50:40Z</time>
      </trkpt>
      <trkpt lat="48.64496" lon="2.0904">
        <ele>59.4</ele>
        <time>2026-01-30T10:50:41Z</time>
      </trkpt>
      <trkpt lat="48.64499" lon="2.09033">
        <ele>59.4</ele>
        <time>2026-01-30T10:50:42Z</time>
      </trkpt>
      <trkpt lat="48.64503" lon="2.09026">
        <ele>60.4</ele>
        <time>2026-01-30T10:50:43Z</time>
      </trkpt>
      <trkpt lat="48.64508" lon="2.0902">
        <ele>59.8</ele>
        <time>2026-01-30T10:50:44Z</time>
      </trkpt>
      <trkpt lat="48.64512" lon="2.09015">
        <ele>59.8</ele>
        <time>2026-01-30T10:50:45Z</time>
      </trkpt>
      <trkpt lat="48.64517" lon="2.09009">
        <ele>59.8</ele>
        <time>2026-01-30T10:50:46Z</time>
      </trkpt>
      <trkpt lat="48.64522" lon="2.09004">
        <ele>59.8</ele>
        <time>2026-01-30T10:50:47Z</time>
      </trkpt>
      <trkpt lat="48.64526" lon="2.08999">
        <ele>59.4</ele>
        <time>2026-01-30T10:50:48Z</time>
      </trkpt>
      <trkpt lat="48.64531" lon="2.08994">
        <ele>59.4</ele>
        <time>2026-01-30T10:50:49Z</time>
      </trkpt>
      <trkpt lat="48.64535" lon="2.08989">
        <ele>59.4</ele>
        <time>2026-01-30T10:50:50Z</time>
      </trkpt>
      <trkpt lat="48.64539" lon="2.08983">
        <ele>60.4</ele>
        <time>2026-01-30T10:50:51Z</time>
      </trkpt>
      <trkpt lat="48.64543" lon="2.08977">
        <ele>60.6</ele>
        <time>2026-01-30T10:50:52Z</time>
      </trkpt>
      <trkpt lat="48.64547" lon="2.08971">
        <ele>60.6</ele>
        <time>2026-01-30T10:50:53Z</time>
      </trkpt>
      <trkpt lat="48.64551" lon="2.08964">
        <ele>60.6</ele>
        <time>2026-01-30T10:50:54Z</time>
      </trkpt>
      <trkpt lat="48.64554" lon="2.08957">
        <ele>60.6</ele>
        <time>2026-01-30T10:50:55Z</time>
      </trkpt>
      <trkpt lat="48.64557" lon="2.08951">
        <ele>59.8</ele>
        <time>2026-01-30T10:50:56Z</time>
      </trkpt>
      <trkpt lat="48.6456" lon="2.08944">
        <ele>59.8</ele>
        <time>2026-01-30T10:50:57Z</time>
      </trkpt>
      <trkpt lat="48.64562" lon="2.08936">
        <ele>59.8</ele>
        <time>2026-01-30T10:50:58Z</time>
      </trkpt>
      <trkpt lat="48.64564" lon="2.08928">
        <ele>60.8</ele>
        <time>2026-01-30T10:50:59Z</time>
      </trkpt>
      <trkpt lat="48.64565" lon="2.0892">
        <ele>61.2</ele>
        <time>2026-01-30T10:51:00Z</time>
      </trkpt>
      <trkpt lat="48.64566" lon="2.08911">
        <ele>61.2</ele>
        <time>2026-01-30T10:51:01Z</time>
      </trkpt>
      <trkpt lat="48.64566" lon="2.08903">
        <ele>61.2</ele>
        <time>2026-01-30T10:51:02Z</time>
      </trkpt>
      <trkpt lat="48.64567" lon="2.08894">
        <ele>61.2</ele>
        <time>2026-01-30T10:51:03Z</time>
      </trkpt>
      <trkpt lat="48.64567" lon="2.08886">
        <ele>61.2</ele>
        <time>2026-01-30T10:51:04Z</time>
      </trkpt>
      <trkpt lat="48.64567" lon="2.08878">
        <ele>61.2</ele>
        <time>2026-01-30T10:51:05Z</time>
      </trkpt>
      <trkpt lat="48.64566" lon="2.0887">
        <ele>61.2</ele>
        <time>2026-01-30T10:51:06Z</time>
      </trkpt>
      <trkpt lat="48.64566" lon="2.08862">
        <ele>61.2</ele>
        <time>2026-01-30T10:51:07Z</time>
      </trkpt>
      <trkpt lat="48.64565" lon="2.08853">
        <ele>61.2</ele>
        <time>2026-01-30T10:51:08Z</time>
      </trkpt>
      <trkpt lat="48.64563" lon="2.08844">
        <ele>61.2</ele>
        <time>2026-01-30T10:51:09Z</time>
      </trkpt>
      <trkpt lat="48.64562" lon="2.08836">
        <ele>61.2</ele>
        <time>2026-01-30T10:51:10Z</time>
      </trkpt>
      <trkpt lat="48.64561" lon="2.08827">
        <ele>61.2</ele>
        <time>2026-01-30T10:51:11Z</time>
      </trkpt>
      <trkpt lat="48.6456" lon="2.08819">
        <ele>60.8</ele>
        <time>2026-01-30T10:51:12Z</time>
      </trkpt>
      <trkpt lat="48.64559" lon="2.0881">
        <ele>60.8</ele>
        <time>2026-01-30T10:51:13Z</time>
      </trkpt>
      <trkpt lat="48.64557" lon="2.08801">
        <ele>60.8</ele>
        <time>2026-01-30T10:51:14Z</time>
      </trkpt>
      <trkpt lat="48.64556" lon="2.08792">
        <ele>61.2</ele>
        <time>2026-01-30T10:51:15Z</time>
      </trkpt>
      <trkpt lat="48.64555" lon="2.08784">
        <ele>61.8</ele>
        <time>2026-01-30T10:51:16Z</time>
      </trkpt>
      <trkpt lat="48.64554" lon="2.08775">
        <ele>61.8</ele>
        <time>2026-01-30T10:51:17Z</time>
      </trkpt>
      <trkpt lat="48.64554" lon="2.08766">
        <ele>61.8</ele>
        <time>2026-01-30T10:51:18Z</time>
      </trkpt>
      <trkpt lat="48.64553" lon="2.08758">
        <ele>61.2</ele>
        <time>2026-01-30T10:51:19Z</time>
      </trkpt>
      <trkpt lat="48.64553" lon="2.08749">
        <ele>61.2</ele>
        <time>2026-01-30T10:51:20Z</time>
      </trkpt>
      <trkpt lat="48.64553" lon="2.08741">
        <ele>61.2</ele>
        <time>2026-01-30T10:51:21Z</time>
      </trkpt>
      <trkpt lat="48.64554" lon="2.08732">
        <ele>61.2</ele>
        <time>2026-01-30T10:51:22Z</time>
      </trkpt>
      <trkpt lat="48.64555" lon="2.08723">
        <ele>61.2</ele>
        <time>2026-01-30T10:51:23Z</time>
      </trkpt>
      <trkpt lat="48.64556" lon="2.08715">
        <ele>62.2</ele>
        <time>2026-01-30T10:51:24Z</time>
      </trkpt>
      <trkpt lat="48.64557" lon="2.08707">
        <ele>62.2</ele>
        <time>2026-01-30T10:51:25Z</time>
      </trkpt>
      <trkpt lat="48.64559" lon="2.08698">
        <ele>62.2</ele>
        <time>2026-01-30T10:51:26Z</time>
      </trkpt>
      <trkpt lat="48.6456" lon="2.0869">
        <ele>62.2</ele>
        <time>2026-01-30T10:51:27Z</time>
      </trkpt>
      <trkpt lat="48.64562" lon="2.08681">
        <ele>62.8</ele>
        <time>2026-01-30T10:51:28Z</time>
      </trkpt>
      <trkpt lat="48.64564" lon="2.08673">
        <ele>62.8</ele>
        <time>2026-01-30T10:51:29Z</time>
      </trkpt>
      <trkpt lat="48.64566" lon="2.08665">
        <ele>62.8</ele>
        <time>2026-01-30T10:51:30Z</time>
      </trkpt>
      <trkpt lat="48.64567" lon="2.08657">
        <ele>63</ele>
        <time>2026-01-30T10:51:31Z</time>
      </trkpt>
      <trkpt lat="48.64569" lon="2.08649">
        <ele>63</ele>
        <time>2026-01-30T10:51:32Z</time>
      </trkpt>
      <trkpt lat="48.64571" lon="2.08641">
        <ele>63</ele>
        <time>2026-01-30T10:51:33Z</time>
      </trkpt>
      <trkpt lat="48.64573" lon="2.08633">
        <ele>63</ele>
        <time>2026-01-30T10:51:34Z</time>
      </trkpt>
      <trkpt lat="48.64575" lon="2.08625">
        <ele>63.6</ele>
        <time>2026-01-30T10:51:35Z</time>
      </trkpt>
      <trkpt lat="48.64577" lon="2.08618">
        <ele>63.4</ele>
        <time>2026-01-30T10:51:36Z</time>
      </trkpt>
      <trkpt lat="48.64579" lon="2.08609">
        <ele>63.4</ele>
        <time>2026-01-30T10:51:37Z</time>
      </trkpt>
      <trkpt lat="48.64581" lon="2.086">
        <ele>63.4</ele>
        <time>2026-01-30T10:51:38Z</time>
      </trkpt>
      <trkpt lat="48.64583" lon="2.08592">
        <ele>64.2</ele>
        <time>2026-01-30T10:51:39Z</time>
      </trkpt>
      <trkpt lat="48.64585" lon="2.08583">
        <ele>64</ele>
        <time>2026-01-30T10:51:40Z</time>
      </trkpt>
      <trkpt lat="48.64587" lon="2.08575">
        <ele>64</ele>
        <time>2026-01-30T10:51:41Z</time>
      </trkpt>
      <trkpt lat="48.64588" lon="2.08567">
        <ele>64</ele>
        <time>2026-01-30T10:51:42Z</time>
      </trkpt>
      <trkpt lat="48.6459" lon="2.08559">
        <ele>64</ele>
        <time>2026-01-30T10:51:43Z</time>
      </trkpt>
      <trkpt lat="48.64592" lon="2.08551">
        <ele>64.8</ele>
        <time>2026-01-30T10:51:44Z</time>
      </trkpt>
      <trkpt lat="48.64593" lon="2.08544">
        <ele>64.8</ele>
        <time>2026-01-30T10:51:45Z</time>
      </trkpt>
      <trkpt lat="48.64595" lon="2.08537">
        <ele>64.8</ele>
        <time>2026-01-30T10:51:46Z</time>
      </trkpt>
      <trkpt lat="48.64598" lon="2.0853">
        <ele>64.8</ele>
        <time>2026-01-30T10:51:47Z</time>
      </trkpt>
      <trkpt lat="48.646" lon="2.08523">
        <ele>64.8</ele>
        <time>2026-01-30T10:51:48Z</time>
      </trkpt>
      <trkpt lat="48.64603" lon="2.08517">
        <ele>64.8</ele>
        <time>2026-01-30T10:51:49Z</time>
      </trkpt>
      <trkpt lat="48.64605" lon="2.08511">
        <ele>64.8</ele>
        <time>2026-01-30T10:51:50Z</time>
      </trkpt>
      <trkpt lat="48.64608" lon="2.08504">
        <ele>64.8</ele>
        <time>2026-01-30T10:51:51Z</time>
      </trkpt>
      <trkpt lat="48.6461" lon="2.08498">
        <ele>65.4</ele>
        <time>2026-01-30T10:51:52Z</time>
      </trkpt>
      <trkpt lat="48.64613" lon="2.08492">
        <ele>65.4</ele>
        <time>2026-01-30T10:51:53Z</time>
      </trkpt>
      <trkpt lat="48.64616" lon="2.08485">
        <ele>65.4</ele>
        <time>2026-01-30T10:51:54Z</time>
      </trkpt>
      <trkpt lat="48.64619" lon="2.08479">
        <ele>65.2</ele>
        <time>2026-01-30T10:51:55Z</time>
      </trkpt>
      <trkpt lat="48.64622" lon="2.08472">
        <ele>65</ele>
        <time>2026-01-30T10:51:56Z</time>
      </trkpt>
      <trkpt lat="48.64624" lon="2.08465">
        <ele>65</ele>
        <time>2026-01-30T10:51:57Z</time>
      </trkpt>
      <trkpt lat="48.64627" lon="2.08458">
        <ele>65</ele>
        <time>2026-01-30T10:51:58Z</time>
      </trkpt>
      <trkpt lat="48.6463" lon="2.08452">
        <ele>64.8</ele>
        <time>2026-01-30T10:51:59Z</time>
      </trkpt>
      <trkpt lat="48.64633" lon="2.08445">
        <ele>64.8</ele>
        <time>2026-01-30T10:52:00Z</time>
      </trkpt>
      <trkpt lat="48.64636" lon="2.08439">
        <ele>64.8</ele>
        <time>2026-01-30T10:52:01Z</time>
      </trkpt>
      <trkpt lat="48.64639" lon="2.08432">
        <ele>64.8</ele>
        <time>2026-01-30T10:52:02Z</time>
      </trkpt>
      <trkpt lat="48.64641" lon="2.08425">
        <ele>64.8</ele>
        <time>2026-01-30T10:52:03Z</time>
      </trkpt>
      <trkpt lat="48.64644" lon="2.08418">
        <ele>65</ele>
        <time>2026-01-30T10:52:04Z</time>
      </trkpt>
      <trkpt lat="48.64646" lon="2.0841">
        <ele>65</ele>
        <time>2026-01-30T10:52:05Z</time>
      </trkpt>
      <trkpt lat="48.64647" lon="2.08403">
        <ele>65</ele>
        <time>2026-01-30T10:52:06Z</time>
      </trkpt>
      <trkpt lat="48.64649" lon="2.08395">
        <ele>65</ele>
        <time>2026-01-30T10:52:07Z</time>
      </trkpt>
      <trkpt lat="48.64651" lon="2.08388">
        <ele>64.8</ele>
        <time>2026-01-30T10:52:08Z</time>
      </trkpt>
      <trkpt lat="48.64653" lon="2.0838">
        <ele>64.8</ele>
        <time>2026-01-30T10:52:09Z</time>
      </trkpt>
      <trkpt lat="48.64654" lon="2.08372">
        <ele>64.8</ele>
        <time>2026-01-30T10:52:10Z</time>
      </trkpt>
      <trkpt lat="48.64655" lon="2.08365">
        <ele>65</ele>
        <time>2026-01-30T10:52:11Z</time>
      </trkpt>
      <trkpt lat="48.64657" lon="2.08357">
        <ele>65</ele>
        <time>2026-01-30T10:52:12Z</time>
      </trkpt>
      <trkpt lat="48.64658" lon="2.0835">
        <ele>65</ele>
        <time>2026-01-30T10:52:13Z</time>
      </trkpt>
      <trkpt lat="48.64658" lon="2.08343">
        <ele>65</ele>
        <time>2026-01-30T10:52:14Z</time>
      </trkpt>
      <trkpt lat="48.64659" lon="2.08335">
        <ele>65</ele>
        <time>2026-01-30T10:52:15Z</time>
      </trkpt>
      <trkpt lat="48.64659" lon="2.08327">
        <ele>65.8</ele>
        <time>2026-01-30T10:52:16Z</time>
      </trkpt>
      <trkpt lat="48.6466" lon="2.08319">
        <ele>65.8</ele>
        <time>2026-01-30T10:52:17Z</time>
      </trkpt>
      <trkpt lat="48.6466" lon="2.08311">
        <ele>65.8</ele>
        <time>2026-01-30T10:52:18Z</time>
      </trkpt>
      <trkpt lat="48.64661" lon="2.08303">
        <ele>66.6</ele>
        <time>2026-01-30T10:52:19Z</time>
      </trkpt>
      <trkpt lat="48.64661" lon="2.08295">
        <ele>66.4</ele>
        <time>2026-01-30T10:52:20Z</time>
      </trkpt>
      <trkpt lat="48.64662" lon="2.08287">
        <ele>66.4</ele>
        <time>2026-01-30T10:52:21Z</time>
      </trkpt>
      <trkpt lat="48.64663" lon="2.08278">
        <ele>66.4</ele>
        <time>2026-01-30T10:52:22Z</time>
      </trkpt>
      <trkpt lat="48.64664" lon="2.0827">
        <ele>65.4</ele>
        <time>2026-01-30T10:52:23Z</time>
      </trkpt>
      <trkpt lat="48.64665" lon="2.08262">
        <ele>65.6</ele>
        <time>2026-01-30T10:52:24Z</time>
      </trkpt>
      <trkpt lat="48.64666" lon="2.08254">
        <ele>65.6</ele>
        <time>2026-01-30T10:52:25Z</time>
      </trkpt>
      <trkpt lat="48.64668" lon="2.08247">
        <ele>65.6</ele>
        <time>2026-01-30T10:52:26Z</time>
      </trkpt>
      <trkpt lat="48.6467" lon="2.0824">
        <ele>66.4</ele>
        <time>2026-01-30T10:52:27Z</time>
      </trkpt>
      <trkpt lat="48.64671" lon="2.08232">
        <ele>66.6</ele>
        <time>2026-01-30T10:52:28Z</time>
      </trkpt>
      <trkpt lat="48.64673" lon="2.08225">
        <ele>66.6</ele>
        <time>2026-01-30T10:52:29Z</time>
      </trkpt>
      <trkpt lat="48.64675" lon="2.08218">
        <ele>66.6</ele>
        <time>2026-01-30T10:52:30Z</time>
      </trkpt>
      <trkpt lat="48.64676" lon="2.0821">
        <ele>66.6</ele>
        <time>2026-01-30T10:52:31Z</time>
      </trkpt>
      <trkpt lat="48.64677" lon="2.08202">
        <ele>66.4</ele>
        <time>2026-01-30T10:52:32Z</time>
      </trkpt>
      <trkpt lat="48.64679" lon="2.08194">
        <ele>66.4</ele>
        <time>2026-01-30T10:52:33Z</time>
      </trkpt>
      <trkpt lat="48.6468" lon="2.08186">
        <ele>66.4</ele>
        <time>2026-01-30T10:52:34Z</time>
      </trkpt>
      <trkpt lat="48.64681" lon="2.08178">
        <ele>66.4</ele>
        <time>2026-01-30T10:52:35Z</time>
      </trkpt>
      <trkpt lat="48.64683" lon="2.0817">
        <ele>66.4</ele>
        <time>2026-01-30T10:52:36Z</time>
      </trkpt>
      <trkpt lat="48.64684" lon="2.08163">
        <ele>66.4</ele>
        <time>2026-01-30T10:52:37Z</time>
      </trkpt>
      <trkpt lat="48.64686" lon="2.08155">
        <ele>66.4</ele>
        <time>2026-01-30T10:52:38Z</time>
      </trkpt>
      <trkpt lat="48.64687" lon="2.08147">
        <ele>67</ele>
        <time>2026-01-30T10:52:39Z</time>
      </trkpt>
      <trkpt lat="48.64689" lon="2.0814">
        <ele>67.2</ele>
        <time>2026-01-30T10:52:40Z</time>
      </trkpt>
      <trkpt lat="48.64691" lon="2.08132">
        <ele>67.2</ele>
        <time>2026-01-30T10:52:41Z</time>
      </trkpt>
      <trkpt lat="48.64692" lon="2.08124">
        <ele>67.2</ele>
        <time>2026-01-30T10:52:42Z</time>
      </trkpt>
      <trkpt lat="48.64693" lon="2.08117">
        <ele>67.8</ele>
        <time>2026-01-30T10:52:43Z</time>
      </trkpt>
      <trkpt lat="48.64695" lon="2.08109">
        <ele>68.2</ele>
        <time>2026-01-30T10:52:44Z</time>
      </trkpt>
      <trkpt lat="48.64696" lon="2.08101">
        <ele>68.2</ele>
        <time>2026-01-30T10:52:45Z</time>
      </trkpt>
      <trkpt lat="48.64698" lon="2.08093">
        <ele>68.2</ele>
        <time>2026-01-30T10:52:46Z</time>
      </trkpt>
      <trkpt lat="48.647" lon="2.08085">
        <ele>67.8</ele>
        <time>2026-01-30T10:52:47Z</time>
      </trkpt>
      <trkpt lat="48.64702" lon="2.08077">
        <ele>67.4</ele>
        <time>2026-01-30T10:52:48Z</time>
      </trkpt>
      <trkpt lat="48.64703" lon="2.0807">
        <ele>67.4</ele>
        <time>2026-01-30T10:52:49Z</time>
      </trkpt>
      <trkpt lat="48.64705" lon="2.08062">
        <ele>67.4</ele>
        <time>2026-01-30T10:52:50Z</time>
      </trkpt>
      <trkpt lat="48.64707" lon="2.08054">
        <ele>68</ele>
        <time>2026-01-30T10:52:51Z</time>
      </trkpt>
      <trkpt lat="48.64709" lon="2.08047">
        <ele>68.4</ele>
        <time>2026-01-30T10:52:52Z</time>
      </trkpt>
      <trkpt lat="48.6471" lon="2.0804">
        <ele>68.4</ele>
        <time>2026-01-30T10:52:53Z</time>
      </trkpt>
      <trkpt lat="48.64712" lon="2.08032">
        <ele>68.4</ele>
        <time>2026-01-30T10:52:54Z</time>
      </trkpt>
      <trkpt lat="48.64714" lon="2.08024">
        <ele>69</ele>
        <time>2026-01-30T10:52:55Z</time>
      </trkpt>
      <trkpt lat="48.64715" lon="2.08017">
        <ele>68.8</ele>
        <time>2026-01-30T10:52:56Z</time>
      </trkpt>
      <trkpt lat="48.64716" lon="2.08009">
        <ele>68.8</ele>
        <time>2026-01-30T10:52:57Z</time>
      </trkpt>
      <trkpt lat="48.64716" lon="2.08">
        <ele>68.8</ele>
        <time>2026-01-30T10:52:58Z</time>
      </trkpt>
      <trkpt lat="48.64716" lon="2.07992">
        <ele>68.2</ele>
        <time>2026-01-30T10:52:59Z</time>
      </trkpt>
      <trkpt lat="48.64716" lon="2.07983">
        <ele>67.8</ele>
        <time>2026-01-30T10:53:00Z</time>
      </trkpt>
      <trkpt lat="48.64715" lon="2.07975">
        <ele>67.8</ele>
        <time>2026-01-30T10:53:01Z</time>
      </trkpt>
      <trkpt lat="48.64714" lon="2.07967">
        <ele>67.8</ele>
        <time>2026-01-30T10:53:02Z</time>
      </trkpt>
      <trkpt lat="48.64713" lon="2.07959">
        <ele>68.2</ele>
        <time>2026-01-30T10:53:03Z</time>
      </trkpt>
      <trkpt lat="48.64712" lon="2.07951">
        <ele>68</ele>
        <time>2026-01-30T10:53:04Z</time>
      </trkpt>
      <trkpt lat="48.64711" lon="2.07943">
        <ele>68</ele>
        <time>2026-01-30T10:53:05Z</time>
      </trkpt>
      <trkpt lat="48.6471" lon="2.07936">
        <ele>68</ele>
        <time>2026-01-30T10:53:06Z</time>
      </trkpt>
      <trkpt lat="48.64709" lon="2.07928">
        <ele>68.6</ele>
        <time>2026-01-30T10:53:07Z</time>
      </trkpt>
      <trkpt lat="48.64708" lon="2.07921">
        <ele>68.8</ele>
        <time>2026-01-30T10:53:08Z</time>
      </trkpt>
      <trkpt lat="48.64708" lon="2.07914">
        <ele>68.8</ele>
        <time>2026-01-30T10:53:09Z</time>
      </trkpt>
      <trkpt lat="48.64707" lon="2.07908">
        <ele>68.8</ele>
        <time>2026-01-30T10:53:10Z</time>
      </trkpt>
      <trkpt lat="48.64706" lon="2.07901">
        <ele>69.6</ele>
        <time>2026-01-30T10:53:11Z</time>
      </trkpt>
      <trkpt lat="48.64705" lon="2.07893">
        <ele>69.8</ele>
        <time>2026-01-30T10:53:12Z</time>
      </trkpt>
      <trkpt lat="48.64704" lon="2.07887">
        <ele>69.8</ele>
        <time>2026-01-30T10:53:13Z</time>
      </trkpt>
      <trkpt lat="48.64703" lon="2.07879">
        <ele>69.8</ele>
        <time>2026-01-30T10:53:14Z</time>
      </trkpt>
      <trkpt lat="48.64702" lon="2.07872">
        <ele>69.8</ele>
        <time>2026-01-30T10:53:15Z</time>
      </trkpt>
      <trkpt lat="48.64701" lon="2.07865">
        <ele>70.2</ele>
        <time>2026-01-30T10:53:16Z</time>
      </trkpt>
      <trkpt lat="48.647" lon="2.07857">
        <ele>70.2</ele>
        <time>2026-01-30T10:53:17Z</time>
      </trkpt>
      <trkpt lat="48.64698" lon="2.07848">
        <ele>70.2</ele>
        <time>2026-01-30T10:53:18Z</time>
      </trkpt>
      <trkpt lat="48.64697" lon="2.0784">
        <ele>70.8</ele>
        <time>2026-01-30T10:53:19Z</time>
      </trkpt>
      <trkpt lat="48.64696" lon="2.07832">
        <ele>70.8</ele>
        <time>2026-01-30T10:53:20Z</time>
      </trkpt>
      <trkpt lat="48.64695" lon="2.07823">
        <ele>70.8</ele>
        <time>2026-01-30T10:53:21Z</time>
      </trkpt>
      <trkpt lat="48.64695" lon="2.07816">
        <ele>70.8</ele>
        <time>2026-01-30T10:53:22Z</time>
      </trkpt>
      <trkpt lat="48.64694" lon="2.07809">
        <ele>70.8</ele>
        <time>2026-01-30T10:53:23Z</time>
      </trkpt>
      <trkpt lat="48.64694" lon="2.07801">
        <ele>70.4</ele>
        <time>2026-01-30T10:53:24Z</time>
      </trkpt>
      <trkpt lat="48.64694" lon="2.07794">
        <ele>70.4</ele>
        <time>2026-01-30T10:53:25Z</time>
      </trkpt>
      <trkpt lat="48.64694" lon="2.07785">
        <ele>70.4</ele>
        <time>2026-01-30T10:53:26Z</time>
      </trkpt>
      <trkpt lat="48.64694" lon="2.07776">
        <ele>70.4</ele>
        <time>2026-01-30T10:53:27Z</time>
      </trkpt>
      <trkpt lat="48.64694" lon="2.07767">
        <ele>71.4</ele>
        <time>2026-01-30T10:53:28Z</time>
      </trkpt>
      <trkpt lat="48.64693" lon="2.07759">
        <ele>71.4</ele>
        <time>2026-01-30T10:53:29Z</time>
      </trkpt>
      <trkpt lat="48.64693" lon="2.07751">
        <ele>71.4</ele>
        <time>2026-01-30T10:53:30Z</time>
      </trkpt>
      <trkpt lat="48.64692" lon="2.07744">
        <ele>71</ele>
        <time>2026-01-30T10:53:31Z</time>
      </trkpt>
      <trkpt lat="48.64692" lon="2.07735">
        <ele>71.2</ele>
        <time>2026-01-30T10:53:32Z</time>
      </trkpt>
      <trkpt lat="48.64692" lon="2.07726">
        <ele>71.2</ele>
        <time>2026-01-30T10:53:33Z</time>
      </trkpt>
      <trkpt lat="48.64691" lon="2.07718">
        <ele>71.2</ele>
        <time>2026-01-30T10:53:34Z</time>
      </trkpt>
      <trkpt lat="48.64691" lon="2.0771">
        <ele>72</ele>
        <time>2026-01-30T10:53:35Z</time>
      </trkpt>
      <trkpt lat="48.64691" lon="2.07702">
        <ele>71.6</ele>
        <time>2026-01-30T10:53:36Z</time>
      </trkpt>
      <trkpt lat="48.64691" lon="2.07694">
        <ele>71.6</ele>
        <time>2026-01-30T10:53:37Z</time>
      </trkpt>
      <trkpt lat="48.64691" lon="2.07686">
        <ele>71.6</ele>
        <time>2026-01-30T10:53:38Z</time>
      </trkpt>
      <trkpt lat="48.64691" lon="2.07677">
        <ele>71.8</ele>
        <time>2026-01-30T10:53:39Z</time>
      </trkpt>
      <trkpt lat="48.64691" lon="2.07669">
        <ele>71.8</ele>
        <time>2026-01-30T10:53:40Z</time>
      </trkpt>
      <trkpt lat="48.6469" lon="2.07661">
        <ele>71.8</ele>
        <time>2026-01-30T10:53:41Z</time>
      </trkpt>
      <trkpt lat="48.6469" lon="2.07654">
        <ele>71.8</ele>
        <time>2026-01-30T10:53:42Z</time>
      </trkpt>
      <trkpt lat="48.64688" lon="2.07648">
        <ele>71.8</ele>
        <time>2026-01-30T10:53:43Z</time>
      </trkpt>
      <trkpt lat="48.64688" lon="2.07641">
        <ele>72.6</ele>
        <time>2026-01-30T10:53:44Z</time>
      </trkpt>
      <trkpt lat="48.64688" lon="2.07634">
        <ele>72.6</ele>
        <time>2026-01-30T10:53:45Z</time>
      </trkpt>
      <trkpt lat="48.64688" lon="2.07627">
        <ele>72.6</ele>
        <time>2026-01-30T10:53:46Z</time>
      </trkpt>
      <trkpt lat="48.64688" lon="2.0762">
        <ele>72.6</ele>
        <time>2026-01-30T10:53:47Z</time>
      </trkpt>
      <trkpt lat="48.64688" lon="2.07612">
        <ele>72.4</ele>
        <time>2026-01-30T10:53:48Z</time>
      </trkpt>
      <trkpt lat="48.64688" lon="2.07605">
        <ele>72.4</ele>
        <time>2026-01-30T10:53:49Z</time>
      </trkpt>
      <trkpt lat="48.64687" lon="2.07597">
        <ele>72.4</ele>
        <time>2026-01-30T10:53:50Z</time>
      </trkpt>
      <trkpt lat="48.64687" lon="2.07589">
        <ele>73</ele>
        <time>2026-01-30T10:53:51Z</time>
      </trkpt>
      <trkpt lat="48.64687" lon="2.07581">
        <ele>72.8</ele>
        <time>2026-01-30T10:53:52Z</time>
      </trkpt>
      <trkpt lat="48.64686" lon="2.07573">
        <ele>72.8</ele>
        <time>2026-01-30T10:53:53Z</time>
      </trkpt>
      <trkpt lat="48.64685" lon="2.07565">
        <ele>72.8</ele>
        <time>2026-01-30T10:53:54Z</time>
      </trkpt>
      <trkpt lat="48.64684" lon="2.07556">
        <ele>72.6</ele>
        <time>2026-01-30T10:53:55Z</time>
      </trkpt>
      <trkpt lat="48.64683" lon="2.07549">
        <ele>73.4</ele>
        <time>2026-01-30T10:53:56Z</time>
      </trkpt>
      <trkpt lat="48.64682" lon="2.07544">
        <ele>73.4</ele>
        <time>2026-01-30T10:53:57Z</time>
      </trkpt>
      <trkpt lat="48.64682" lon="2.07538">
        <ele>73.4</ele>
        <time>2026-01-30T10:53:58Z</time>
      </trkpt>
      <trkpt lat="48.64681" lon="2.07532">
        <ele>74</ele>
        <time>2026-01-30T10:53:59Z</time>
      </trkpt>
      <trkpt lat="48.6468" lon="2.07525">
        <ele>74</ele>
        <time>2026-01-30T10:54:00Z</time>
      </trkpt>
      <trkpt lat="48.64679" lon="2.07518">
        <ele>74</ele>
        <time>2026-01-30T10:54:01Z</time>
      </trkpt>
      <trkpt lat="48.64678" lon="2.0751">
        <ele>74</ele>
        <time>2026-01-30T10:54:02Z</time>
      </trkpt>
      <trkpt lat="48.64677" lon="2.07503">
        <ele>73.8</ele>
        <time>2026-01-30T10:54:03Z</time>
      </trkpt>
      <trkpt lat="48.64675" lon="2.07495">
        <ele>73.8</ele>
        <time>2026-01-30T10:54:04Z</time>
      </trkpt>
      <trkpt lat="48.64674" lon="2.07488">
        <ele>73.8</ele>
        <time>2026-01-30T10:54:05Z</time>
      </trkpt>
      <trkpt lat="48.64672" lon="2.07482">
        <ele>73.8</ele>
        <time>2026-01-30T10:54:06Z</time>
      </trkpt>
      <trkpt lat="48.64669" lon="2.07477">
        <ele>74.2</ele>
        <time>2026-01-30T10:54:07Z</time>
      </trkpt>
      <trkpt lat="48.64664" lon="2.07474">
        <ele>74.4</ele>
        <time>2026-01-30T10:54:08Z</time>
      </trkpt>
      <trkpt lat="48.64659" lon="2.07473">
        <ele>74.4</ele>
        <time>2026-01-30T10:54:09Z</time>
      </trkpt>
      <trkpt lat="48.64654" lon="2.07471">
        <ele>74.4</ele>
        <time>2026-01-30T10:54:10Z</time>
      </trkpt>
      <trkpt lat="48.64649" lon="2.0747">
        <ele>75</ele>
        <time>2026-01-30T10:54:11Z</time>
      </trkpt>
      <trkpt lat="48.64644" lon="2.07469">
        <ele>74.2</ele>
        <time>2026-01-30T10:54:12Z</time>
      </trkpt>
      <trkpt lat="48.64638" lon="2.07468">
        <ele>74.2</ele>
        <time>2026-01-30T10:54:13Z</time>
      </trkpt>
      <trkpt lat="48.64633" lon="2.07467">
        <ele>74.2</ele>
        <time>2026-01-30T10:54:14Z</time>
      </trkpt>
      <trkpt lat="48.64627" lon="2.07465">
        <ele>74</ele>
        <time>2026-01-30T10:54:15Z</time>
      </trkpt>
      <trkpt lat="48.64621" lon="2.07464">
        <ele>73.8</ele>
        <time>2026-01-30T10:54:16Z</time>
      </trkpt>
      <trkpt lat="48.64616" lon="2.07462">
        <ele>73.8</ele>
        <time>2026-01-30T10:54:17Z</time>
      </trkpt>
      <trkpt lat="48.6461" lon="2.07461">
        <ele>73.8</ele>
        <time>2026-01-30T10:54:18Z</time>
      </trkpt>
      <trkpt lat="48.64605" lon="2.0746">
        <ele>74.8</ele>
        <time>2026-01-30T10:54:19Z</time>
      </trkpt>
      <trkpt lat="48.64601" lon="2.07459">
        <ele>76.4</ele>
        <time>2026-01-30T10:54:20Z</time>
      </trkpt>
      <trkpt lat="48.64596" lon="2.07459">
        <ele>76.4</ele>
        <time>2026-01-30T10:54:21Z</time>
      </trkpt>
      <trkpt lat="48.64591" lon="2.07458">
        <ele>76.4</ele>
        <time>2026-01-30T10:54:22Z</time>
      </trkpt>
      <trkpt lat="48.64586" lon="2.07458">
        <ele>76.4</ele>
        <time>2026-01-30T10:54:23Z</time>
      </trkpt>
      <trkpt lat="48.64582" lon="2.07458">
        <ele>76.6</ele>
        <time>2026-01-30T10:54:24Z</time>
      </trkpt>
      <trkpt lat="48.64577" lon="2.07457">
        <ele>76.6</ele>
        <time>2026-01-30T10:54:25Z</time>
      </trkpt>
      <trkpt lat="48.64573" lon="2.07456">
        <ele>76.6</ele>
        <time>2026-01-30T10:54:26Z</time>
      </trkpt>
      <trkpt lat="48.64568" lon="2.07455">
        <ele>76.6</ele>
        <time>2026-01-30T10:54:27Z</time>
      </trkpt>
      <trkpt lat="48.64564" lon="2.07454">
        <ele>77.2</ele>
        <time>2026-01-30T10:54:28Z</time>
      </trkpt>
      <trkpt lat="48.6456" lon="2.07454">
        <ele>77.2</ele>
        <time>2026-01-30T10:54:29Z</time>
      </trkpt>
      <trkpt lat="48.64555" lon="2.07454">
        <ele>77.2</ele>
        <time>2026-01-30T10:54:30Z</time>
      </trkpt>
      <trkpt lat="48.64551" lon="2.07454">
        <ele>78</ele>
        <time>2026-01-30T10:54:31Z</time>
      </trkpt>
      <trkpt lat="48.64547" lon="2.07454">
        <ele>78</ele>
        <time>2026-01-30T10:54:32Z</time>
      </trkpt>
      <trkpt lat="48.64543" lon="2.07453">
        <ele>78</ele>
        <time>2026-01-30T10:54:33Z</time>
      </trkpt>
      <trkpt lat="48.64538" lon="2.07452">
        <ele>78</ele>
        <time>2026-01-30T10:54:34Z</time>
      </trkpt>
      <trkpt lat="48.64534" lon="2.07452">
        <ele>79</ele>
        <time>2026-01-30T10:54:35Z</time>
      </trkpt>
      <trkpt lat="48.6453" lon="2.07451">
        <ele>79.8</ele>
        <time>2026-01-30T10:54:36Z</time>
      </trkpt>
      <trkpt lat="48.64526" lon="2.07452">
        <ele>79.8</ele>
        <time>2026-01-30T10:54:37Z</time>
      </trkpt>
      <trkpt lat="48.64521" lon="2.07452">
        <ele>79.8</ele>
        <time>2026-01-30T10:54:38Z</time>
      </trkpt>
      <trkpt lat="48.64517" lon="2.07453">
        <ele>79</ele>
        <time>2026-01-30T10:54:39Z</time>
      </trkpt>
      <trkpt lat="48.64512" lon="2.07455">
        <ele>79.2</ele>
        <time>2026-01-30T10:54:40Z</time>
      </trkpt>
      <trkpt lat="48.64507" lon="2.07458">
        <ele>79.2</ele>
        <time>2026-01-30T10:54:41Z</time>
      </trkpt>
      <trkpt lat="48.64503" lon="2.07462">
        <ele>79.2</ele>
        <time>2026-01-30T10:54:42Z</time>
      </trkpt>
      <trkpt lat="48.64501" lon="2.07468">
        <ele>79.2</ele>
        <time>2026-01-30T10:54:43Z</time>
      </trkpt>
      <trkpt lat="48.645" lon="2.07476">
        <ele>78.8</ele>
        <time>2026-01-30T10:54:44Z</time>
      </trkpt>
      <trkpt lat="48.64501" lon="2.07484">
        <ele>78.8</ele>
        <time>2026-01-30T10:54:45Z</time>
      </trkpt>
      <trkpt lat="48.64502" lon="2.07491">
        <ele>78.8</ele>
        <time>2026-01-30T10:54:46Z</time>
      </trkpt>
      <trkpt lat="48.64504" lon="2.07499">
        <ele>78.8</ele>
        <time>2026-01-30T10:54:47Z</time>
      </trkpt>
      <trkpt lat="48.64506" lon="2.07507">
        <ele>78.4</ele>
        <time>2026-01-30T10:54:48Z</time>
      </trkpt>
      <trkpt lat="48.64507" lon="2.07515">
        <ele>78.4</ele>
        <time>2026-01-30T10:54:49Z</time>
      </trkpt>
      <trkpt lat="48.64507" lon="2.07524">
        <ele>78.4</ele>
        <time>2026-01-30T10:54:50Z</time>
      </trkpt>
      <trkpt lat="48.64507" lon="2.07533">
        <ele>78</ele>
        <time>2026-01-30T10:54:51Z</time>
      </trkpt>
      <trkpt lat="48.64507" lon="2.07542">
        <ele>77.2</ele>
        <time>2026-01-30T10:54:52Z</time>
      </trkpt>
      <trkpt lat="48.64506" lon="2.07551">
        <ele>77.2</ele>
        <time>2026-01-30T10:54:53Z</time>
      </trkpt>
      <trkpt lat="48.64506" lon="2.07561">
        <ele>77.2</ele>
        <time>2026-01-30T10:54:54Z</time>
      </trkpt>
      <trkpt lat="48.64505" lon="2.0757">
        <ele>77.2</ele>
        <time>2026-01-30T10:54:55Z</time>
      </trkpt>
      <trkpt lat="48.64505" lon="2.07579">
        <ele>76.6</ele>
        <time>2026-01-30T10:54:56Z</time>
      </trkpt>
      <trkpt lat="48.64505" lon="2.07589">
        <ele>76.6</ele>
        <time>2026-01-30T10:54:57Z</time>
      </trkpt>
      <trkpt lat="48.64505" lon="2.07598">
        <ele>76.6</ele>
        <time>2026-01-30T10:54:58Z</time>
      </trkpt>
      <trkpt lat="48.64504" lon="2.07605">
        <ele>76.6</ele>
        <time>2026-01-30T10:54:59Z</time>
      </trkpt>
      <trkpt lat="48.64504" lon="2.07612">
        <ele>76.8</ele>
        <time>2026-01-30T10:55:00Z</time>
      </trkpt>
      <trkpt lat="48.64502" lon="2.07617">
        <ele>76.8</ele>
        <time>2026-01-30T10:55:01Z</time>
      </trkpt>
      <trkpt lat="48.64499" lon="2.07619">
        <ele>76.8</ele>
        <time>2026-01-30T10:55:02Z</time>
      </trkpt>
      <trkpt lat="48.64495" lon="2.0762">
        <ele>76.8</ele>
        <time>2026-01-30T10:55:03Z</time>
      </trkpt>
      <trkpt lat="48.64491" lon="2.07619">
        <ele>77</ele>
        <time>2026-01-30T10:55:04Z</time>
      </trkpt>
      <trkpt lat="48.64487" lon="2.07618">
        <ele>77</ele>
        <time>2026-01-30T10:55:05Z</time>
      </trkpt>
      <trkpt lat="48.64484" lon="2.07617">
        <ele>77</ele>
        <time>2026-01-30T10:55:06Z</time>
      </trkpt>
      <trkpt lat="48.64479" lon="2.07616">
        <ele>77.2</ele>
        <time>2026-01-30T10:55:07Z</time>
      </trkpt>
      <trkpt lat="48.64476" lon="2.07615">
        <ele>77</ele>
        <time>2026-01-30T10:55:08Z</time>
      </trkpt>
      <trkpt lat="48.64472" lon="2.07615">
        <ele>77</ele>
        <time>2026-01-30T10:55:09Z</time>
      </trkpt>
      <trkpt lat="48.64468" lon="2.07613">
        <ele>77</ele>
        <time>2026-01-30T10:55:10Z</time>
      </trkpt>
      <trkpt lat="48.64464" lon="2.07611">
        <ele>78</ele>
        <time>2026-01-30T10:55:11Z</time>
      </trkpt>
      <trkpt lat="48.64461" lon="2.07608">
        <ele>78.8</ele>
        <time>2026-01-30T10:55:12Z</time>
      </trkpt>
      <trkpt lat="48.64458" lon="2.07606">
        <ele>78.8</ele>
        <time>2026-01-30T10:55:13Z</time>
      </trkpt>
      <trkpt lat="48.64455" lon="2.07604">
        <ele>78.8</ele>
        <time>2026-01-30T10:55:14Z</time>
      </trkpt>
      <trkpt lat="48.64452" lon="2.07601">
        <ele>78.8</ele>
        <time>2026-01-30T10:55:15Z</time>
      </trkpt>
      <trkpt lat="48.64449" lon="2.07599">
        <ele>79.4</ele>
        <time>2026-01-30T10:55:16Z</time>
      </trkpt>
      <trkpt lat="48.64445" lon="2.07596">
        <ele>79.4</ele>
        <time>2026-01-30T10:55:17Z</time>
      </trkpt>
      <trkpt lat="48.64442" lon="2.07594">
        <ele>79.4</ele>
        <time>2026-01-30T10:55:18Z</time>
      </trkpt>
      <trkpt lat="48.64439" lon="2.07591">
        <ele>79.6</ele>
        <time>2026-01-30T10:55:19Z</time>
      </trkpt>
      <trkpt lat="48.64436" lon="2.07589">
        <ele>80.2</ele>
        <time>2026-01-30T10:55:20Z</time>
      </trkpt>
      <trkpt lat="48.64434" lon="2.07586">
        <ele>80.2</ele>
        <time>2026-01-30T10:55:21Z</time>
      </trkpt>
      <trkpt lat="48.64431" lon="2.07584">
        <ele>80.2</ele>
        <time>2026-01-30T10:55:22Z</time>
      </trkpt>
      <trkpt lat="48.64428" lon="2.07581">
        <ele>81</ele>
        <time>2026-01-30T10:55:23Z</time>
      </trkpt>
      <trkpt lat="48.64425" lon="2.07579">
        <ele>81.2</ele>
        <time>2026-01-30T10:55:24Z</time>
      </trkpt>
      <trkpt lat="48.64422" lon="2.07577">
        <ele>81.2</ele>
        <time>2026-01-30T10:55:25Z</time>
      </trkpt>
      <trkpt lat="48.64419" lon="2.07575">
        <ele>81.2</ele>
        <time>2026-01-30T10:55:26Z</time>
      </trkpt>
      <trkpt lat="48.64416" lon="2.07572">
        <ele>81.2</ele>
        <time>2026-01-30T10:55:27Z</time>
      </trkpt>
      <trkpt lat="48.64413" lon="2.07571">
        <ele>81.8</ele>
        <time>2026-01-30T10:55:28Z</time>
      </trkpt>
      <trkpt lat="48.6441" lon="2.07569">
        <ele>81.8</ele>
        <time>2026-01-30T10:55:29Z</time>
      </trkpt>
      <trkpt lat="48.64407" lon="2.07568">
        <ele>81.8</ele>
        <time>2026-01-30T10:55:30Z</time>
      </trkpt>
      <trkpt lat="48.64404" lon="2.07567">
        <ele>81.4</ele>
        <time>2026-01-30T10:55:31Z</time>
      </trkpt>
      <trkpt lat="48.64401" lon="2.07564">
        <ele>81.6</ele>
        <time>2026-01-30T10:55:32Z</time>
      </trkpt>
      <trkpt lat="48.64398" lon="2.07561">
        <ele>81.6</ele>
        <time>2026-01-30T10:55:33Z</time>
      </trkpt>
      <trkpt lat="48.64396" lon="2.07558">
        <ele>81.6</ele>
        <time>2026-01-30T10:55:34Z</time>
      </trkpt>
      <trkpt lat="48.64393" lon="2.07556">
        <ele>82.6</ele>
        <time>2026-01-30T10:55:35Z</time>
      </trkpt>
      <trkpt lat="48.64391" lon="2.07553">
        <ele>82.6</ele>
        <time>2026-01-30T10:55:36Z</time>
      </trkpt>
      <trkpt lat="48.64388" lon="2.07551">
        <ele>82.6</ele>
        <time>2026-01-30T10:55:37Z</time>
      </trkpt>
      <trkpt lat="48.64385" lon="2.07549">
        <ele>82.6</ele>
        <time>2026-01-30T10:55:38Z</time>
      </trkpt>
      <trkpt lat="48.64382" lon="2.07546">
        <ele>83.6</ele>
        <time>2026-01-30T10:55:39Z</time>
      </trkpt>
      <trkpt lat="48.64379" lon="2.07544">
        <ele>83.2</ele>
        <time>2026-01-30T10:55:40Z</time>
      </trkpt>
      <trkpt lat="48.64377" lon="2.07541">
        <ele>83.2</ele>
        <time>2026-01-30T10:55:41Z</time>
      </trkpt>
      <trkpt lat="48.64375" lon="2.07538">
        <ele>83.2</ele>
        <time>2026-01-30T10:55:42Z</time>
      </trkpt>
      <trkpt lat="48.64372" lon="2.07535">
        <ele>84.2</ele>
        <time>2026-01-30T10:55:43Z</time>
      </trkpt>
      <trkpt lat="48.64369" lon="2.07533">
        <ele>84.8</ele>
        <time>2026-01-30T10:55:44Z</time>
      </trkpt>
      <trkpt lat="48.64367" lon="2.07531">
        <ele>84.8</ele>
        <time>2026-01-30T10:55:45Z</time>
      </trkpt>
      <trkpt lat="48.64364" lon="2.07529">
        <ele>84.8</ele>
        <time>2026-01-30T10:55:46Z</time>
      </trkpt>
      <trkpt lat="48.64362" lon="2.07526">
        <ele>84.8</ele>
        <time>2026-01-30T10:55:47Z</time>
      </trkpt>
      <trkpt lat="48.64359" lon="2.07524">
        <ele>85.4</ele>
        <time>2026-01-30T10:55:48Z</time>
      </trkpt>
      <trkpt lat="48.64357" lon="2.07522">
        <ele>85.4</ele>
        <time>2026-01-30T10:55:49Z</time>
      </trkpt>
      <trkpt lat="48.64354" lon="2.0752">
        <ele>85.4</ele>
        <time>2026-01-30T10:55:50Z</time>
      </trkpt>
      <trkpt lat="48.64352" lon="2.07518">
        <ele>86.2</ele>
        <time>2026-01-30T10:55:51Z</time>
      </trkpt>
      <trkpt lat="48.6435" lon="2.07515">
        <ele>86.2</ele>
        <time>2026-01-30T10:55:52Z</time>
      </trkpt>
      <trkpt lat="48.64347" lon="2.07513">
        <ele>86.2</ele>
        <time>2026-01-30T10:55:53Z</time>
      </trkpt>
      <trkpt lat="48.64345" lon="2.07511">
        <ele>86.2</ele>
        <time>2026-01-30T10:55:54Z</time>
      </trkpt>
      <trkpt lat="48.64343" lon="2.0751">
        <ele>87.2</ele>
        <time>2026-01-30T10:55:55Z</time>
      </trkpt>
      <trkpt lat="48.6434" lon="2.07508">
        <ele>87.4</ele>
        <time>2026-01-30T10:55:56Z</time>
      </trkpt>
      <trkpt lat="48.64338" lon="2.07506">
        <ele>87.4</ele>
        <time>2026-01-30T10:55:57Z</time>
      </trkpt>
      <trkpt lat="48.64336" lon="2.07504">
        <ele>87.4</ele>
        <time>2026-01-30T10:55:58Z</time>
      </trkpt>
      <trkpt lat="48.64334" lon="2.07502">
        <ele>88.2</ele>
        <time>2026-01-30T10:55:59Z</time>
      </trkpt>
      <trkpt lat="48.64331" lon="2.075">
        <ele>88.2</ele>
        <time>2026-01-30T10:56:00Z</time>
      </trkpt>
      <trkpt lat="48.64329" lon="2.07498">
        <ele>88.2</ele>
        <time>2026-01-30T10:56:01Z</time>
      </trkpt>
      <trkpt lat="48.64327" lon="2.07496">
        <ele>88.2</ele>
        <time>2026-01-30T10:56:02Z</time>
      </trkpt>
      <trkpt lat="48.64325" lon="2.07495">
        <ele>89.2</ele>
        <time>2026-01-30T10:56:03Z</time>
      </trkpt>
      <trkpt lat="48.64322" lon="2.07494">
        <ele>90.2</ele>
        <time>2026-01-30T10:56:04Z</time>
      </trkpt>
      <trkpt lat="48.6432" lon="2.07492">
        <ele>90.2</ele>
        <time>2026-01-30T10:56:05Z</time>
      </trkpt>
      <trkpt lat="48.64317" lon="2.0749">
        <ele>90.2</ele>
        <time>2026-01-30T10:56:06Z</time>
      </trkpt>
      <trkpt lat="48.64315" lon="2.07489">
        <ele>90.2</ele>
        <time>2026-01-30T10:56:07Z</time>
      </trkpt>
      <trkpt lat="48.64313" lon="2.07487">
        <ele>91.2</ele>
        <time>2026-01-30T10:56:08Z</time>
      </trkpt>
      <trkpt lat="48.64311" lon="2.07485">
        <ele>91.2</ele>
        <time>2026-01-30T10:56:09Z</time>
      </trkpt>
      <trkpt lat="48.64309" lon="2.07482">
        <ele>91.2</ele>
        <time>2026-01-30T10:56:10Z</time>
      </trkpt>
      <trkpt lat="48.64306" lon="2.0748">
        <ele>91.6</ele>
        <time>2026-01-30T10:56:11Z</time>
      </trkpt>
      <trkpt lat="48.64304" lon="2.07479">
        <ele>91.4</ele>
        <time>2026-01-30T10:56:12Z</time>
      </trkpt>
      <trkpt lat="48.64301" lon="2.07478">
        <ele>91.4</ele>
        <time>2026-01-30T10:56:13Z</time>
      </trkpt>
      <trkpt lat="48.64299" lon="2.07477">
        <ele>91.4</ele>
        <time>2026-01-30T10:56:14Z</time>
      </trkpt>
      <trkpt lat="48.64297" lon="2.07475">
        <ele>92.4</ele>
        <time>2026-01-30T10:56:15Z</time>
      </trkpt>
      <trkpt lat="48.64294" lon="2.07473">
        <ele>92.4</ele>
        <time>2026-01-30T10:56:16Z</time>
      </trkpt>
      <trkpt lat="48.64292" lon="2.07472">
        <ele>92.4</ele>
        <time>2026-01-30T10:56:17Z</time>
      </trkpt>
      <trkpt lat="48.6429" lon="2.0747">
        <ele>92.4</ele>
        <time>2026-01-30T10:56:18Z</time>
      </trkpt>
      <trkpt lat="48.64288" lon="2.07468">
        <ele>93.4</ele>
        <time>2026-01-30T10:56:19Z</time>
      </trkpt>
      <trkpt lat="48.64285" lon="2.07467">
        <ele>93.2</ele>
        <time>2026-01-30T10:56:20Z</time>
      </trkpt>
      <trkpt lat="48.64283" lon="2.07465">
        <ele>93.2</ele>
        <time>2026-01-30T10:56:21Z</time>
      </trkpt>
      <trkpt lat="48.6428" lon="2.07464">
        <ele>93.2</ele>
        <time>2026-01-30T10:56:22Z</time>
      </trkpt>
      <trkpt lat="48.64278" lon="2.07462">
        <ele>94.2</ele>
        <time>2026-01-30T10:56:23Z</time>
      </trkpt>
      <trkpt lat="48.64276" lon="2.07461">
        <ele>94.4</ele>
        <time>2026-01-30T10:56:24Z</time>
      </trkpt>
      <trkpt lat="48.64273" lon="2.0746">
        <ele>94.4</ele>
        <time>2026-01-30T10:56:25Z</time>
      </trkpt>
      <trkpt lat="48.64271" lon="2.07458">
        <ele>94.4</ele>
        <time>2026-01-30T10:56:26Z</time>
      </trkpt>
      <trkpt lat="48.64269" lon="2.07457">
        <ele>95</ele>
        <time>2026-01-30T10:56:27Z</time>
      </trkpt>
      <trkpt lat="48.64266" lon="2.07455">
        <ele>95.4</ele>
        <time>2026-01-30T10:56:28Z</time>
      </trkpt>
      <trkpt lat="48.64264" lon="2.07454">
        <ele>95.4</ele>
        <time>2026-01-30T10:56:29Z</time>
      </trkpt>
      <trkpt lat="48.64262" lon="2.07453">
        <ele>95.4</ele>
        <time>2026-01-30T10:56:30Z</time>
      </trkpt>
      <trkpt lat="48.64259" lon="2.07451">
        <ele>96</ele>
        <time>2026-01-30T10:56:31Z</time>
      </trkpt>
      <trkpt lat="48.64257" lon="2.07449">
        <ele>96.4</ele>
        <time>2026-01-30T10:56:32Z</time>
      </trkpt>
      <trkpt lat="48.64255" lon="2.07447">
        <ele>96.4</ele>
        <time>2026-01-30T10:56:33Z</time>
      </trkpt>
      <trkpt lat="48.64252" lon="2.07446">
        <ele>96.4</ele>
        <time>2026-01-30T10:56:34Z</time>
      </trkpt>
      <trkpt lat="48.6425" lon="2.07445">
        <ele>96.4</ele>
        <time>2026-01-30T10:56:35Z</time>
      </trkpt>
      <trkpt lat="48.64248" lon="2.07443">
        <ele>96.8</ele>
        <time>2026-01-30T10:56:36Z</time>
      </trkpt>
      <trkpt lat="48.64245" lon="2.07441">
        <ele>96.8</ele>
        <time>2026-01-30T10:56:37Z</time>
      </trkpt>
      <trkpt lat="48.64243" lon="2.0744">
        <ele>96.8</ele>
        <time>2026-01-30T10:56:38Z</time>
      </trkpt>
      <trkpt lat="48.6424" lon="2.07439">
        <ele>97.6</ele>
        <time>2026-01-30T10:56:39Z</time>
      </trkpt>
      <trkpt lat="48.64238" lon="2.07437">
        <ele>97.4</ele>
        <time>2026-01-30T10:56:40Z</time>
      </trkpt>
      <trkpt lat="48.64236" lon="2.07436">
        <ele>97.4</ele>
        <time>2026-01-30T10:56:41Z</time>
      </trkpt>
      <trkpt lat="48.64233" lon="2.07435">
        <ele>97.4</ele>
        <time>2026-01-30T10:56:42Z</time>
      </trkpt>
      <trkpt lat="48.64231" lon="2.07433">
        <ele>98.4</ele>
        <time>2026-01-30T10:56:43Z</time>
      </trkpt>
      <trkpt lat="48.64228" lon="2.07432">
        <ele>99</ele>
        <time>2026-01-30T10:56:44Z</time>
      </trkpt>
      <trkpt lat="48.64226" lon="2.0743">
        <ele>99</ele>
        <time>2026-01-30T10:56:45Z</time>
      </trkpt>
      <trkpt lat="48.64224" lon="2.07429">
        <ele>99</ele>
        <time>2026-01-30T10:56:46Z</time>
      </trkpt>
      <trkpt lat="48.64221" lon="2.07427">
        <ele>99</ele>
        <time>2026-01-30T10:56:47Z</time>
      </trkpt>
      <trkpt lat="48.64219" lon="2.07426">
        <ele>99.4</ele>
        <time>2026-01-30T10:56:48Z</time>
      </trkpt>
      <trkpt lat="48.64216" lon="2.07425">
        <ele>99.4</ele>
        <time>2026-01-30T10:56:49Z</time>
      </trkpt>
      <trkpt lat="48.64214" lon="2.07423">
        <ele>99.4</ele>
        <time>2026-01-30T10:56:50Z</time>
      </trkpt>
      <trkpt lat="48.64212" lon="2.07422">
        <ele>100</ele>
        <time>2026-01-30T10:56:51Z</time>
      </trkpt>
      <trkpt lat="48.64209" lon="2.0742">
        <ele>101</ele>
        <time>2026-01-30T10:56:52Z</time>
      </trkpt>
      <trkpt lat="48.64207" lon="2.07419">
        <ele>101</ele>
        <time>2026-01-30T10:56:53Z</time>
      </trkpt>
      <trkpt lat="48.64204" lon="2.07418">
        <ele>101</ele>
        <time>2026-01-30T10:56:54Z</time>
      </trkpt>
      <trkpt lat="48.64201" lon="2.07416">
        <ele>101</ele>
        <time>2026-01-30T10:56:55Z</time>
      </trkpt>
      <trkpt lat="48.64199" lon="2.07415">
        <ele>101.4</ele>
        <time>2026-01-30T10:56:56Z</time>
      </trkpt>
      <trkpt lat="48.64196" lon="2.07414">
        <ele>101.4</ele>
        <time>2026-01-30T10:56:57Z</time>
      </trkpt>
      <trkpt lat="48.64194" lon="2.07413">
        <ele>101.4</ele>
        <time>2026-01-30T10:56:58Z</time>
      </trkpt>
      <trkpt lat="48.64191" lon="2.07411">
        <ele>101.4</ele>
        <time>2026-01-30T10:56:59Z</time>
      </trkpt>
      <trkpt lat="48.64189" lon="2.0741">
        <ele>101.8</ele>
        <time>2026-01-30T10:57:00Z</time>
      </trkpt>
      <trkpt lat="48.64186" lon="2.07408">
        <ele>101.8</ele>
        <time>2026-01-30T10:57:01Z</time>
      </trkpt>
      <trkpt lat="48.64184" lon="2.07406">
        <ele>101.8</ele>
        <time>2026-01-30T10:57:02Z</time>
      </trkpt>
      <trkpt lat="48.64182" lon="2.07404">
        <ele>102.8</ele>
        <time>2026-01-30T10:57:03Z</time>
      </trkpt>
      <trkpt lat="48.6418" lon="2.07402">
        <ele>102.4</ele>
        <time>2026-01-30T10:57:04Z</time>
      </trkpt>
      <trkpt lat="48.64177" lon="2.074">
        <ele>102.4</ele>
        <time>2026-01-30T10:57:05Z</time>
      </trkpt>
      <trkpt lat="48.64175" lon="2.07398">
        <ele>102.4</ele>
        <time>2026-01-30T10:57:06Z</time>
      </trkpt>
      <trkpt lat="48.64172" lon="2.07397">
        <ele>103</ele>
        <time>2026-01-30T10:57:07Z</time>
      </trkpt>
      <trkpt lat="48.6417" lon="2.07395">
        <ele>103.4</ele>
        <time>2026-01-30T10:57:08Z</time>
      </trkpt>
      <trkpt lat="48.64167" lon="2.07394">
        <ele>103.4</ele>
        <time>2026-01-30T10:57:09Z</time>
      </trkpt>
      <trkpt lat="48.64165" lon="2.07392">
        <ele>103.4</ele>
        <time>2026-01-30T10:57:10Z</time>
      </trkpt>
      <trkpt lat="48.64162" lon="2.07391">
        <ele>103.4</ele>
        <time>2026-01-30T10:57:11Z</time>
      </trkpt>
      <trkpt lat="48.6416" lon="2.07389">
        <ele>104.2</ele>
        <time>2026-01-30T10:57:12Z</time>
      </trkpt>
      <trkpt lat="48.64157" lon="2.07388">
        <ele>104.2</ele>
        <time>2026-01-30T10:57:13Z</time>
      </trkpt>
      <trkpt lat="48.64155" lon="2.07386">
        <ele>104.2</ele>
        <time>2026-01-30T10:57:14Z</time>
      </trkpt>
      <trkpt lat="48.64152" lon="2.07385">
        <ele>105</ele>
        <time>2026-01-30T10:57:15Z</time>
      </trkpt>
      <trkpt lat="48.64149" lon="2.07383">
        <ele>105.2</ele>
        <time>2026-01-30T10:57:16Z</time>
      </trkpt>
      <trkpt lat="48.64147" lon="2.07381">
        <ele>105.2</ele>
        <time>2026-01-30T10:57:17Z</time>
      </trkpt>
      <trkpt lat="48.64145" lon="2.07379">
        <ele>105.2</ele>
        <time>2026-01-30T10:57:18Z</time>
      </trkpt>
      <trkpt lat="48.64142" lon="2.07377">
        <ele>105.6</ele>
        <time>2026-01-30T10:57:19Z</time>
      </trkpt>
      <trkpt lat="48.64139" lon="2.07375">
        <ele>105.8</ele>
        <time>2026-01-30T10:57:20Z</time>
      </trkpt>
      <trkpt lat="48.64137" lon="2.07374">
        <ele>105.8</ele>
        <time>2026-01-30T10:57:21Z</time>
      </trkpt>
      <trkpt lat="48.64134" lon="2.07373">
        <ele>105.8</ele>
        <time>2026-01-30T10:57:22Z</time>
      </trkpt>
      <trkpt lat="48.64132" lon="2.07371">
        <ele>105.8</ele>
        <time>2026-01-30T10:57:23Z</time>
      </trkpt>
      <trkpt lat="48.64129" lon="2.0737">
        <ele>106.2</ele>
        <time>2026-01-30T10:57:24Z</time>
      </trkpt>
      <trkpt lat="48.64127" lon="2.07368">
        <ele>106.2</ele>
        <time>2026-01-30T10:57:25Z</time>
      </trkpt>
      <trkpt lat="48.64124" lon="2.07366">
        <ele>106.2</ele>
        <time>2026-01-30T10:57:26Z</time>
      </trkpt>
      <trkpt lat="48.64121" lon="2.07364">
        <ele>107.2</ele>
        <time>2026-01-30T10:57:27Z</time>
      </trkpt>
      <trkpt lat="48.64118" lon="2.07363">
        <ele>107.2</ele>
        <time>2026-01-30T10:57:28Z</time>
      </trkpt>
      <trkpt lat="48.64115" lon="2.07361">
        <ele>107.2</ele>
        <time>2026-01-30T10:57:29Z</time>
      </trkpt>
      <trkpt lat="48.64113" lon="2.07359">
        <ele>107.2</ele>
        <time>2026-01-30T10:57:30Z</time>
      </trkpt>
      <trkpt lat="48.6411" lon="2.07357">
        <ele>107.2</ele>
        <time>2026-01-30T10:57:31Z</time>
      </trkpt>
      <trkpt lat="48.64106" lon="2.07356">
        <ele>107.8</ele>
        <time>2026-01-30T10:57:32Z</time>
      </trkpt>
      <trkpt lat="48.64103" lon="2.07354">
        <ele>107.8</ele>
        <time>2026-01-30T10:57:33Z</time>
      </trkpt>
      <trkpt lat="48.641" lon="2.07352">
        <ele>107.8</ele>
        <time>2026-01-30T10:57:34Z</time>
      </trkpt>
      <trkpt lat="48.64097" lon="2.0735">
        <ele>107.8</ele>
        <time>2026-01-30T10:57:35Z</time>
      </trkpt>
      <trkpt lat="48.64094" lon="2.07348">
        <ele>108</ele>
        <time>2026-01-30T10:57:36Z</time>
      </trkpt>
      <trkpt lat="48.64091" lon="2.07346">
        <ele>108</ele>
        <time>2026-01-30T10:57:37Z</time>
      </trkpt>
      <trkpt lat="48.64087" lon="2.07344">
        <ele>108</ele>
        <time>2026-01-30T10:57:38Z</time>
      </trkpt>
      <trkpt lat="48.64084" lon="2.07342">
        <ele>108</ele>
        <time>2026-01-30T10:57:39Z</time>
      </trkpt>
      <trkpt lat="48.64081" lon="2.0734">
        <ele>107.4</ele>
        <time>2026-01-30T10:57:40Z</time>
      </trkpt>
      <trkpt lat="48.64077" lon="2.07338">
        <ele>107.4</ele>
        <time>2026-01-30T10:57:41Z</time>
      </trkpt>
      <trkpt lat="48.64074" lon="2.07336">
        <ele>107.4</ele>
        <time>2026-01-30T10:57:42Z</time>
      </trkpt>
      <trkpt lat="48.64071" lon="2.07333">
        <ele>108.4</ele>
        <time>2026-01-30T10:57:43Z</time>
      </trkpt>
      <trkpt lat="48.64067" lon="2.07331">
        <ele>108.8</ele>
        <time>2026-01-30T10:57:44Z</time>
      </trkpt>
      <trkpt lat="48.64064" lon="2.07329">
        <ele>108.8</ele>
        <time>2026-01-30T10:57:45Z</time>
      </trkpt>
      <trkpt lat="48.6406" lon="2.07327">
        <ele>108.8</ele>
        <time>2026-01-30T10:57:46Z</time>
      </trkpt>
      <trkpt lat="48.64057" lon="2.07325">
        <ele>108.8</ele>
        <time>2026-01-30T10:57:47Z</time>
      </trkpt>
      <trkpt lat="48.64053" lon="2.07322">
        <ele>109.4</ele>
        <time>2026-01-30T10:57:48Z</time>
      </trkpt>
      <trkpt lat="48.6405" lon="2.0732">
        <ele>109.4</ele>
        <time>2026-01-30T10:57:49Z</time>
      </trkpt>
      <trkpt lat="48.64046" lon="2.07317">
        <ele>109.4</ele>
        <time>2026-01-30T10:57:50Z</time>
      </trkpt>
      <trkpt lat="48.64043" lon="2.07315">
        <ele>109.4</ele>
        <time>2026-01-30T10:57:51Z</time>
      </trkpt>
      <trkpt lat="48.64039" lon="2.07313">
        <ele>109.4</ele>
        <time>2026-01-30T10:57:52Z</time>
      </trkpt>
      <trkpt lat="48.64036" lon="2.0731">
        <ele>109.4</ele>
        <time>2026-01-30T10:57:53Z</time>
      </trkpt>
      <trkpt lat="48.64032" lon="2.07308">
        <ele>109.4</ele>
        <time>2026-01-30T10:57:54Z</time>
      </trkpt>
      <trkpt lat="48.64029" lon="2.07306">
        <ele>109.4</ele>
        <time>2026-01-30T10:57:55Z</time>
      </trkpt>
      <trkpt lat="48.64025" lon="2.07303">
        <ele>109.8</ele>
        <time>2026-01-30T10:57:56Z</time>
      </trkpt>
      <trkpt lat="48.64022" lon="2.07301">
        <ele>109.8</ele>
        <time>2026-01-30T10:57:57Z</time>
      </trkpt>
      <trkpt lat="48.64018" lon="2.07299">
        <ele>109.8</ele>
        <time>2026-01-30T10:57:58Z</time>
      </trkpt>
      <trkpt lat="48.64014" lon="2.07297">
        <ele>109.8</ele>
        <time>2026-01-30T10:57:59Z</time>
      </trkpt>
      <trkpt lat="48.64011" lon="2.07294">
        <ele>109.6</ele>
        <time>2026-01-30T10:58:00Z</time>
      </trkpt>
      <trkpt lat="48.64007" lon="2.07291">
        <ele>109.6</ele>
        <time>2026-01-30T10:58:01Z</time>
      </trkpt>
      <trkpt lat="48.64004" lon="2.07289">
        <ele>109.6</ele>
        <time>2026-01-30T10:58:02Z</time>
      </trkpt>
      <trkpt lat="48.64" lon="2.07286">
        <ele>110.2</ele>
        <time>2026-01-30T10:58:03Z</time>
      </trkpt>
      <trkpt lat="48.63996" lon="2.07284">
        <ele>110.6</ele>
        <time>2026-01-30T10:58:04Z</time>
      </trkpt>
      <trkpt lat="48.63993" lon="2.07281">
        <ele>110.6</ele>
        <time>2026-01-30T10:58:05Z</time>
      </trkpt>
      <trkpt lat="48.63989" lon="2.07279">
        <ele>110.6</ele>
        <time>2026-01-30T10:58:06Z</time>
      </trkpt>
      <trkpt lat="48.63986" lon="2.07276">
        <ele>110.6</ele>
        <time>2026-01-30T10:58:07Z</time>
      </trkpt>
      <trkpt lat="48.63982" lon="2.07274">
        <ele>110.8</ele>
        <time>2026-01-30T10:58:08Z</time>
      </trkpt>
      <trkpt lat="48.63978" lon="2.07272">
        <ele>110.8</ele>
        <time>2026-01-30T10:58:09Z</time>
      </trkpt>
      <trkpt lat="48.63975" lon="2.07269">
        <ele>110.8</ele>
        <time>2026-01-30T10:58:10Z</time>
      </trkpt>
      <trkpt lat="48.63971" lon="2.07266">
        <ele>111.8</ele>
        <time>2026-01-30T10:58:11Z</time>
      </trkpt>
      <trkpt lat="48.63968" lon="2.07263">
        <ele>111.4</ele>
        <time>2026-01-30T10:58:12Z</time>
      </trkpt>
      <trkpt lat="48.63965" lon="2.0726">
        <ele>111.4</ele>
        <time>2026-01-30T10:58:13Z</time>
      </trkpt>
      <trkpt lat="48.63962" lon="2.07256">
        <ele>111.4</ele>
        <time>2026-01-30T10:58:14Z</time>
      </trkpt>
      <trkpt lat="48.63958" lon="2.07253">
        <ele>111.4</ele>
        <time>2026-01-30T10:58:15Z</time>
      </trkpt>
      <trkpt lat="48.63955" lon="2.07251">
        <ele>111.4</ele>
        <time>2026-01-30T10:58:16Z</time>
      </trkpt>
      <trkpt lat="48.63952" lon="2.07248">
        <ele>111.4</ele>
        <time>2026-01-30T10:58:17Z</time>
      </trkpt>
      <trkpt lat="48.63948" lon="2.07245">
        <ele>111.4</ele>
        <time>2026-01-30T10:58:18Z</time>
      </trkpt>
      <trkpt lat="48.63945" lon="2.07243">
        <ele>112.2</ele>
        <time>2026-01-30T10:58:19Z</time>
      </trkpt>
      <trkpt lat="48.63941" lon="2.07241">
        <ele>111.8</ele>
        <time>2026-01-30T10:58:20Z</time>
      </trkpt>
      <trkpt lat="48.63937" lon="2.07238">
        <ele>111.8</ele>
        <time>2026-01-30T10:58:21Z</time>
      </trkpt>
      <trkpt lat="48.63933" lon="2.07236">
        <ele>111.8</ele>
        <time>2026-01-30T10:58:22Z</time>
      </trkpt>
      <trkpt lat="48.63929" lon="2.07234">
        <ele>112.4</ele>
        <time>2026-01-30T10:58:23Z</time>
      </trkpt>
      <trkpt lat="48.63925" lon="2.07233">
        <ele>112.4</ele>
        <time>2026-01-30T10:58:24Z</time>
      </trkpt>
      <trkpt lat="48.6392" lon="2.07232">
        <ele>112.4</ele>
        <time>2026-01-30T10:58:25Z</time>
      </trkpt>
      <trkpt lat="48.63916" lon="2.07231">
        <ele>112.4</ele>
        <time>2026-01-30T10:58:26Z</time>
      </trkpt>
      <trkpt lat="48.63911" lon="2.07231">
        <ele>112.8</ele>
        <time>2026-01-30T10:58:27Z</time>
      </trkpt>
      <trkpt lat="48.63907" lon="2.0723">
        <ele>112.2</ele>
        <time>2026-01-30T10:58:28Z</time>
      </trkpt>
      <trkpt lat="48.63902" lon="2.0723">
        <ele>112.2</ele>
        <time>2026-01-30T10:58:29Z</time>
      </trkpt>
      <trkpt lat="48.63897" lon="2.0723">
        <ele>112.2</ele>
        <time>2026-01-30T10:58:30Z</time>
      </trkpt>
      <trkpt lat="48.63892" lon="2.07228">
        <ele>113.2</ele>
        <time>2026-01-30T10:58:31Z</time>
      </trkpt>
      <trkpt lat="48.63887" lon="2.07227">
        <ele>113.6</ele>
        <time>2026-01-30T10:58:32Z</time>
      </trkpt>
      <trkpt lat="48.63883" lon="2.07225">
        <ele>113.6</ele>
        <time>2026-01-30T10:58:33Z</time>
      </trkpt>
      <trkpt lat="48.63878" lon="2.07222">
        <ele>113.6</ele>
        <time>2026-01-30T10:58:34Z</time>
      </trkpt>
      <trkpt lat="48.63874" lon="2.07218">
        <ele>112.6</ele>
        <time>2026-01-30T10:58:35Z</time>
      </trkpt>
      <trkpt lat="48.63869" lon="2.07214">
        <ele>112.6</ele>
        <time>2026-01-30T10:58:36Z</time>
      </trkpt>
      <trkpt lat="48.63865" lon="2.0721">
        <ele>112.6</ele>
        <time>2026-01-30T10:58:37Z</time>
      </trkpt>
      <trkpt lat="48.63861" lon="2.07205">
        <ele>112.6</ele>
        <time>2026-01-30T10:58:38Z</time>
      </trkpt>
      <trkpt lat="48.63858" lon="2.07199">
        <ele>112.6</ele>
        <time>2026-01-30T10:58:39Z</time>
      </trkpt>
      <trkpt lat="48.63855" lon="2.07193">
        <ele>112.2</ele>
        <time>2026-01-30T10:58:40Z</time>
      </trkpt>
      <trkpt lat="48.63852" lon="2.07187">
        <ele>112.2</ele>
        <time>2026-01-30T10:58:41Z</time>
      </trkpt>
      <trkpt lat="48.63849" lon="2.0718">
        <ele>112.2</ele>
        <time>2026-01-30T10:58:42Z</time>
      </trkpt>
      <trkpt lat="48.63847" lon="2.07173">
        <ele>112.2</ele>
        <time>2026-01-30T10:58:43Z</time>
      </trkpt>
      <trkpt lat="48.63845" lon="2.07166">
        <ele>112.8</ele>
        <time>2026-01-30T10:58:44Z</time>
      </trkpt>
      <trkpt lat="48.63843" lon="2.07159">
        <ele>112.8</ele>
        <time>2026-01-30T10:58:45Z</time>
      </trkpt>
      <trkpt lat="48.63841" lon="2.07151">
        <ele>112.8</ele>
        <time>2026-01-30T10:58:46Z</time>
      </trkpt>
      <trkpt lat="48.63838" lon="2.07144">
        <ele>112.8</ele>
        <time>2026-01-30T10:58:47Z</time>
      </trkpt>
      <trkpt lat="48.63836" lon="2.07137">
        <ele>113.2</ele>
        <time>2026-01-30T10:58:48Z</time>
      </trkpt>
      <trkpt lat="48.63834" lon="2.0713">
        <ele>113.2</ele>
        <time>2026-01-30T10:58:49Z</time>
      </trkpt>
      <trkpt lat="48.63832" lon="2.07122">
        <ele>113.2</ele>
        <time>2026-01-30T10:58:50Z</time>
      </trkpt>
      <trkpt lat="48.6383" lon="2.07114">
        <ele>113.2</ele>
        <time>2026-01-30T10:58:51Z</time>
      </trkpt>
      <trkpt lat="48.63827" lon="2.07107">
        <ele>112</ele>
        <time>2026-01-30T10:58:52Z</time>
      </trkpt>
      <trkpt lat="48.63825" lon="2.07099">
        <ele>112</ele>
        <time>2026-01-30T10:58:53Z</time>
      </trkpt>
      <trkpt lat="48.63823" lon="2.0709">
        <ele>112</ele>
        <time>2026-01-30T10:58:54Z</time>
      </trkpt>
      <trkpt lat="48.6382" lon="2.07082">
        <ele>113</ele>
        <time>2026-01-30T10:58:55Z</time>
      </trkpt>
      <trkpt lat="48.63818" lon="2.07073">
        <ele>113</ele>
        <time>2026-01-30T10:58:56Z</time>
      </trkpt>
      <trkpt lat="48.63815" lon="2.07065">
        <ele>113</ele>
        <time>2026-01-30T10:58:57Z</time>
      </trkpt>
      <trkpt lat="48.63813" lon="2.07057">
        <ele>113</ele>
        <time>2026-01-30T10:58:58Z</time>
      </trkpt>
      <trkpt lat="48.6381" lon="2.07048">
        <ele>112.6</ele>
        <time>2026-01-30T10:58:59Z</time>
      </trkpt>
      <trkpt lat="48.63808" lon="2.0704">
        <ele>113</ele>
        <time>2026-01-30T10:59:00Z</time>
      </trkpt>
      <trkpt lat="48.63806" lon="2.07031">
        <ele>113</ele>
        <time>2026-01-30T10:59:01Z</time>
      </trkpt>
      <trkpt lat="48.63803" lon="2.07023">
        <ele>113</ele>
        <time>2026-01-30T10:59:02Z</time>
      </trkpt>
      <trkpt lat="48.63801" lon="2.07015">
        <ele>113</ele>
        <time>2026-01-30T10:59:03Z</time>
      </trkpt>
      <trkpt lat="48.63798" lon="2.07007">
        <ele>112.6</ele>
        <time>2026-01-30T10:59:04Z</time>
      </trkpt>
      <trkpt lat="48.63796" lon="2.06999">
        <ele>112.6</ele>
        <time>2026-01-30T10:59:05Z</time>
      </trkpt>
      <trkpt lat="48.63793" lon="2.06991">
        <ele>112.6</ele>
        <time>2026-01-30T10:59:06Z</time>
      </trkpt>
      <trkpt lat="48.6379" lon="2.06983">
        <ele>113.4</ele>
        <time>2026-01-30T10:59:07Z</time>
      </trkpt>
      <trkpt lat="48.63787" lon="2.06976">
        <ele>113</ele>
        <time>2026-01-30T10:59:08Z</time>
      </trkpt>
      <trkpt lat="48.63784" lon="2.06968">
        <ele>113</ele>
        <time>2026-01-30T10:59:09Z</time>
      </trkpt>
      <trkpt lat="48.63781" lon="2.0696">
        <ele>113</ele>
        <time>2026-01-30T10:59:10Z</time>
      </trkpt>
      <trkpt lat="48.63778" lon="2.06953">
        <ele>112</ele>
        <time>2026-01-30T10:59:11Z</time>
      </trkpt>
      <trkpt lat="48.63775" lon="2.06946">
        <ele>112.2</ele>
        <time>2026-01-30T10:59:12Z</time>
      </trkpt>
      <trkpt lat="48.63772" lon="2.06938">
        <ele>112.2</ele>
        <time>2026-01-30T10:59:13Z</time>
      </trkpt>
      <trkpt lat="48.6377" lon="2.06931">
        <ele>112.2</ele>
        <time>2026-01-30T10:59:14Z</time>
      </trkpt>
      <trkpt lat="48.63767" lon="2.06924">
        <ele>111.2</ele>
        <time>2026-01-30T10:59:15Z</time>
      </trkpt>
      <trkpt lat="48.63764" lon="2.06917">
        <ele>111.6</ele>
        <time>2026-01-30T10:59:16Z</time>
      </trkpt>
      <trkpt lat="48.63762" lon="2.0691">
        <ele>111.6</ele>
        <time>2026-01-30T10:59:17Z</time>
      </trkpt>
      <trkpt lat="48.63759" lon="2.06903">
        <ele>111.6</ele>
        <time>2026-01-30T10:59:18Z</time>
      </trkpt>
      <trkpt lat="48.63756" lon="2.06895">
        <ele>111.4</ele>
        <time>2026-01-30T10:59:19Z</time>
      </trkpt>
      <trkpt lat="48.63753" lon="2.06888">
        <ele>111.8</ele>
        <time>2026-01-30T10:59:20Z</time>
      </trkpt>
      <trkpt lat="48.63751" lon="2.06881">
        <ele>111.8</ele>
        <time>2026-01-30T10:59:21Z</time>
      </trkpt>
      <trkpt lat="48.63748" lon="2.06873">
        <ele>111.8</ele>
        <time>2026-01-30T10:59:22Z</time>
      </trkpt>
      <trkpt lat="48.63745" lon="2.06866">
        <ele>111.8</ele>
        <time>2026-01-30T10:59:23Z</time>
      </trkpt>
      <trkpt lat="48.63742" lon="2.06859">
        <ele>111.6</ele>
        <time>2026-01-30T10:59:24Z</time>
      </trkpt>
      <trkpt lat="48.6374" lon="2.06851">
        <ele>111.6</ele>
        <time>2026-01-30T10:59:25Z</time>
      </trkpt>
      <trkpt lat="48.63737" lon="2.06843">
        <ele>111.6</ele>
        <time>2026-01-30T10:59:26Z</time>
      </trkpt>
      <trkpt lat="48.63735" lon="2.06836">
        <ele>111.6</ele>
        <time>2026-01-30T10:59:27Z</time>
      </trkpt>
      <trkpt lat="48.63733" lon="2.06828">
        <ele>110.4</ele>
        <time>2026-01-30T10:59:28Z</time>
      </trkpt>
      <trkpt lat="48.6373" lon="2.0682">
        <ele>110.4</ele>
        <time>2026-01-30T10:59:29Z</time>
      </trkpt>
      <trkpt lat="48.63728" lon="2.06813">
        <ele>110.4</ele>
        <time>2026-01-30T10:59:30Z</time>
      </trkpt>
      <trkpt lat="48.63726" lon="2.06805">
        <ele>110.4</ele>
        <time>2026-01-30T10:59:31Z</time>
      </trkpt>
      <trkpt lat="48.63724" lon="2.06797">
        <ele>110.2</ele>
        <time>2026-01-30T10:59:32Z</time>
      </trkpt>
      <trkpt lat="48.63722" lon="2.0679">
        <ele>110.2</ele>
        <time>2026-01-30T10:59:33Z</time>
      </trkpt>
      <trkpt lat="48.6372" lon="2.06782">
        <ele>110.2</ele>
        <time>2026-01-30T10:59:34Z</time>
      </trkpt>
      <trkpt lat="48.63718" lon="2.06775">
        <ele>110.2</ele>
        <time>2026-01-30T10:59:35Z</time>
      </trkpt>
      <trkpt lat="48.63716" lon="2.06767">
        <ele>110</ele>
        <time>2026-01-30T10:59:36Z</time>
      </trkpt>
      <trkpt lat="48.63714" lon="2.0676">
        <ele>110</ele>
        <time>2026-01-30T10:59:37Z</time>
      </trkpt>
      <trkpt lat="48.63712" lon="2.06752">
        <ele>110</ele>
        <time>2026-01-30T10:59:38Z</time>
      </trkpt>
      <trkpt lat="48.6371" lon="2.06745">
        <ele>110</ele>
        <time>2026-01-30T10:59:39Z</time>
      </trkpt>
      <trkpt lat="48.63708" lon="2.06737">
        <ele>110.4</ele>
        <time>2026-01-30T10:59:40Z</time>
      </trkpt>
      <trkpt lat="48.63706" lon="2.0673">
        <ele>110.4</ele>
        <time>2026-01-30T10:59:41Z</time>
      </trkpt>
      <trkpt lat="48.63704" lon="2.06722">
        <ele>110.4</ele>
        <time>2026-01-30T10:59:42Z</time>
      </trkpt>
      <trkpt lat="48.63702" lon="2.06715">
        <ele>111</ele>
        <time>2026-01-30T10:59:43Z</time>
      </trkpt>
      <trkpt lat="48.637" lon="2.06708">
        <ele>110.6</ele>
        <time>2026-01-30T10:59:44Z</time>
      </trkpt>
      <trkpt lat="48.63698" lon="2.06701">
        <ele>110.6</ele>
        <time>2026-01-30T10:59:45Z</time>
      </trkpt>
      <trkpt lat="48.63696" lon="2.06694">
        <ele>110.6</ele>
        <time>2026-01-30T10:59:46Z</time>
      </trkpt>
      <trkpt lat="48.63694" lon="2.06686">
        <ele>110.6</ele>
        <time>2026-01-30T10:59:47Z</time>
      </trkpt>
      <trkpt lat="48.63692" lon="2.06679">
        <ele>111.4</ele>
        <time>2026-01-30T10:59:48Z</time>
      </trkpt>
      <trkpt lat="48.6369" lon="2.06672">
        <ele>111.4</ele>
        <time>2026-01-30T10:59:49Z</time>
      </trkpt>
      <trkpt lat="48.63688" lon="2.06665">
        <ele>111.4</ele>
        <time>2026-01-30T10:59:50Z</time>
      </trkpt>
      <trkpt lat="48.63686" lon="2.06658">
        <ele>111</ele>
        <time>2026-01-30T10:59:51Z</time>
      </trkpt>
      <trkpt lat="48.63684" lon="2.06651">
        <ele>111.6</ele>
        <time>2026-01-30T10:59:52Z</time>
      </trkpt>
      <trkpt lat="48.63682" lon="2.06643">
        <ele>111.6</ele>
        <time>2026-01-30T10:59:53Z</time>
      </trkpt>
      <trkpt lat="48.6368" lon="2.06636">
        <ele>111.6</ele>
        <time>2026-01-30T10:59:54Z</time>
      </trkpt>
      <trkpt lat="48.63678" lon="2.06629">
        <ele>111.6</ele>
        <time>2026-01-30T10:59:55Z</time>
      </trkpt>
      <trkpt lat="48.63676" lon="2.06622">
        <ele>112.4</ele>
        <time>2026-01-30T10:59:56Z</time>
      </trkpt>
      <trkpt lat="48.63674" lon="2.06615">
        <ele>112.4</ele>
        <time>2026-01-30T10:59:57Z</time>
      </trkpt>
      <trkpt lat="48.63671" lon="2.06608">
        <ele>112.4</ele>
        <time>2026-01-30T10:59:58Z</time>
      </trkpt>
      <trkpt lat="48.63669" lon="2.06601">
        <ele>112.4</ele>
        <time>2026-01-30T10:59:59Z</time>
      </trkpt>
      <trkpt lat="48.63666" lon="2.06594">
        <ele>112.4</ele>
        <time>2026-01-30T11:00:00Z</time>
      </trkpt>
      <trkpt lat="48.63663" lon="2.06588">
        <ele>112.4</ele>
        <time>2026-01-30T11:00:01Z</time>
      </trkpt>
      <trkpt lat="48.6366" lon="2.06581">
        <ele>112.4</ele>
        <time>2026-01-30T11:00:02Z</time>
      </trkpt>
      <trkpt lat="48.63657" lon="2.06575">
        <ele>111.4</ele>
        <time>2026-01-30T11:00:03Z</time>
      </trkpt>
      <trkpt lat="48.63654" lon="2.06569">
        <ele>110.6</ele>
        <time>2026-01-30T11:00:04Z</time>
      </trkpt>
      <trkpt lat="48.6365" lon="2.06563">
        <ele>110.6</ele>
        <time>2026-01-30T11:00:05Z</time>
      </trkpt>
      <trkpt lat="48.63647" lon="2.06557">
        <ele>110.6</ele>
        <time>2026-01-30T11:00:06Z</time>
      </trkpt>
      <trkpt lat="48.63643" lon="2.06551">
        <ele>110.6</ele>
        <time>2026-01-30T11:00:07Z</time>
      </trkpt>
      <trkpt lat="48.63639" lon="2.06545">
        <ele>111</ele>
        <time>2026-01-30T11:00:08Z</time>
      </trkpt>
      <trkpt lat="48.63635" lon="2.06539">
        <ele>111</ele>
        <time>2026-01-30T11:00:09Z</time>
      </trkpt>
      <trkpt lat="48.63631" lon="2.06533">
        <ele>111</ele>
        <time>2026-01-30T11:00:10Z</time>
      </trkpt>
      <trkpt lat="48.63627" lon="2.06527">
        <ele>111</ele>
        <time>2026-01-30T11:00:11Z</time>
      </trkpt>
      <trkpt lat="48.63623" lon="2.06521">
        <ele>111.4</ele>
        <time>2026-01-30T11:00:12Z</time>
      </trkpt>
      <trkpt lat="48.63618" lon="2.06516">
        <ele>111.4</ele>
        <time>2026-01-30T11:00:13Z</time>
      </trkpt>
      <trkpt lat="48.63614" lon="2.0651">
        <ele>111.4</ele>
        <time>2026-01-30T11:00:14Z</time>
      </trkpt>
      <trkpt lat="48.63609" lon="2.06505">
        <ele>111.4</ele>
        <time>2026-01-30T11:00:15Z</time>
      </trkpt>
      <trkpt lat="48.63605" lon="2.06499">
        <ele>110.8</ele>
        <time>2026-01-30T11:00:16Z</time>
      </trkpt>
      <trkpt lat="48.636" lon="2.06494">
        <ele>110.8</ele>
        <time>2026-01-30T11:00:17Z</time>
      </trkpt>
      <trkpt lat="48.63595" lon="2.06488">
        <ele>110.8</ele>
        <time>2026-01-30T11:00:18Z</time>
      </trkpt>
      <trkpt lat="48.6359" lon="2.06483">
        <ele>111.2</ele>
        <time>2026-01-30T11:00:19Z</time>
      </trkpt>
      <trkpt lat="48.63585" lon="2.06477">
        <ele>112.4</ele>
        <time>2026-01-30T11:00:20Z</time>
      </trkpt>
      <trkpt lat="48.6358" lon="2.06472">
        <ele>112.4</ele>
        <time>2026-01-30T11:00:21Z</time>
      </trkpt>
      <trkpt lat="48.63575" lon="2.06467">
        <ele>112.4</ele>
        <time>2026-01-30T11:00:22Z</time>
      </trkpt>
      <trkpt lat="48.63569" lon="2.06462">
        <ele>111.4</ele>
        <time>2026-01-30T11:00:23Z</time>
      </trkpt>
      <trkpt lat="48.63564" lon="2.06457">
        <ele>110.8</ele>
        <time>2026-01-30T11:00:24Z</time>
      </trkpt>
      <trkpt lat="48.63558" lon="2.06451">
        <ele>110.8</ele>
        <time>2026-01-30T11:00:25Z</time>
      </trkpt>
      <trkpt lat="48.63552" lon="2.06446">
        <ele>110.8</ele>
        <time>2026-01-30T11:00:26Z</time>
      </trkpt>
      <trkpt lat="48.63547" lon="2.06441">
        <ele>110.4</ele>
        <time>2026-01-30T11:00:27Z</time>
      </trkpt>
      <trkpt lat="48.63541" lon="2.06436">
        <ele>110.4</ele>
        <time>2026-01-30T11:00:28Z</time>
      </trkpt>
      <trkpt lat="48.63536" lon="2.06431">
        <ele>110.4</ele>
        <time>2026-01-30T11:00:29Z</time>
      </trkpt>
      <trkpt lat="48.6353" lon="2.06426">
        <ele>110.4</ele>
        <time>2026-01-30T11:00:30Z</time>
      </trkpt>
      <trkpt lat="48.63524" lon="2.06421">
        <ele>110.4</ele>
        <time>2026-01-30T11:00:31Z</time>
      </trkpt>
      <trkpt lat="48.63519" lon="2.06416">
        <ele>111</ele>
        <time>2026-01-30T11:00:32Z</time>
      </trkpt>
      <trkpt lat="48.63514" lon="2.06411">
        <ele>111</ele>
        <time>2026-01-30T11:00:33Z</time>
      </trkpt>
      <trkpt lat="48.63509" lon="2.06406">
        <ele>111</ele>
        <time>2026-01-30T11:00:34Z</time>
      </trkpt>
      <trkpt lat="48.63504" lon="2.064">
        <ele>111</ele>
        <time>2026-01-30T11:00:35Z</time>
      </trkpt>
      <trkpt lat="48.635" lon="2.06395">
        <ele>110</ele>
        <time>2026-01-30T11:00:36Z</time>
      </trkpt>
      <trkpt lat="48.63495" lon="2.06389">
        <ele>110</ele>
        <time>2026-01-30T11:00:37Z</time>
      </trkpt>
      <trkpt lat="48.63491" lon="2.06383">
        <ele>110</ele>
        <time>2026-01-30T11:00:38Z</time>
      </trkpt>
      <trkpt lat="48.63488" lon="2.06378">
        <ele>110</ele>
        <time>2026-01-30T11:00:39Z</time>
      </trkpt>
      <trkpt lat="48.63485" lon="2.06373">
        <ele>110.8</ele>
        <time>2026-01-30T11:00:40Z</time>
      </trkpt>
      <trkpt lat="48.63482" lon="2.06367">
        <ele>110.8</ele>
        <time>2026-01-30T11:00:41Z</time>
      </trkpt>
      <trkpt lat="48.63479" lon="2.06362">
        <ele>110.8</ele>
        <time>2026-01-30T11:00:42Z</time>
      </trkpt>
      <trkpt lat="48.63475" lon="2.06356">
        <ele>109.8</ele>
        <time>2026-01-30T11:00:43Z</time>
      </trkpt>
      <trkpt lat="48.63471" lon="2.0635">
        <ele>109.2</ele>
        <time>2026-01-30T11:00:44Z</time>
      </trkpt>
      <trkpt lat="48.63467" lon="2.06344">
        <ele>109.2</ele>
        <time>2026-01-30T11:00:45Z</time>
      </trkpt>
      <trkpt lat="48.63462" lon="2.06337">
        <ele>109.2</ele>
        <time>2026-01-30T11:00:46Z</time>
      </trkpt>
      <trkpt lat="48.63458" lon="2.06331">
        <ele>108.6</ele>
        <time>2026-01-30T11:00:47Z</time>
      </trkpt>
      <trkpt lat="48.63454" lon="2.06324">
        <ele>108.8</ele>
        <time>2026-01-30T11:00:48Z</time>
      </trkpt>
      <trkpt lat="48.6345" lon="2.06317">
        <ele>108.8</ele>
        <time>2026-01-30T11:00:49Z</time>
      </trkpt>
      <trkpt lat="48.63445" lon="2.0631">
        <ele>108.8</ele>
        <time>2026-01-30T11:00:50Z</time>
      </trkpt>
      <trkpt lat="48.63441" lon="2.06303">
        <ele>108.8</ele>
        <time>2026-01-30T11:00:51Z</time>
      </trkpt>
      <trkpt lat="48.63436" lon="2.06297">
        <ele>106.6</ele>
        <time>2026-01-30T11:00:52Z</time>
      </trkpt>
      <trkpt lat="48.63432" lon="2.0629">
        <ele>106.6</ele>
        <time>2026-01-30T11:00:53Z</time>
      </trkpt>
      <trkpt lat="48.63427" lon="2.06283">
        <ele>106.6</ele>
        <time>2026-01-30T11:00:54Z</time>
      </trkpt>
      <trkpt lat="48.63423" lon="2.06276">
        <ele>106.6</ele>
        <time>2026-01-30T11:00:55Z</time>
      </trkpt>
      <trkpt lat="48.63418" lon="2.06269">
        <ele>107</ele>
        <time>2026-01-30T11:00:56Z</time>
      </trkpt>
      <trkpt lat="48.63414" lon="2.06262">
        <ele>107</ele>
        <time>2026-01-30T11:00:57Z</time>
      </trkpt>
      <trkpt lat="48.6341" lon="2.06255">
        <ele>107</ele>
        <time>2026-01-30T11:00:58Z</time>
      </trkpt>
      <trkpt lat="48.63405" lon="2.06248">
        <ele>106</ele>
        <time>2026-01-30T11:00:59Z</time>
      </trkpt>
      <trkpt lat="48.63401" lon="2.06241">
        <ele>106</ele>
        <time>2026-01-30T11:01:00Z</time>
      </trkpt>
      <trkpt lat="48.63397" lon="2.06234">
        <ele>106</ele>
        <time>2026-01-30T11:01:01Z</time>
      </trkpt>
      <trkpt lat="48.63392" lon="2.06227">
        <ele>106</ele>
        <time>2026-01-30T11:01:02Z</time>
      </trkpt>
      <trkpt lat="48.63388" lon="2.0622">
        <ele>106</ele>
        <time>2026-01-30T11:01:03Z</time>
      </trkpt>
      <trkpt lat="48.63383" lon="2.06213">
        <ele>106</ele>
        <time>2026-01-30T11:01:04Z</time>
      </trkpt>
      <trkpt lat="48.63379" lon="2.06206">
        <ele>106</ele>
        <time>2026-01-30T11:01:05Z</time>
      </trkpt>
      <trkpt lat="48.63374" lon="2.062">
        <ele>106</ele>
        <time>2026-01-30T11:01:06Z</time>
      </trkpt>
      <trkpt lat="48.6337" lon="2.06193">
        <ele>106.6</ele>
        <time>2026-01-30T11:01:07Z</time>
      </trkpt>
      <trkpt lat="48.63365" lon="2.06186">
        <ele>106.2</ele>
        <time>2026-01-30T11:01:08Z</time>
      </trkpt>
      <trkpt lat="48.63361" lon="2.0618">
        <ele>106.2</ele>
        <time>2026-01-30T11:01:09Z</time>
      </trkpt>
      <trkpt lat="48.63356" lon="2.06173">
        <ele>106.2</ele>
        <time>2026-01-30T11:01:10Z</time>
      </trkpt>
      <trkpt lat="48.63351" lon="2.06167">
        <ele>106.2</ele>
        <time>2026-01-30T11:01:11Z</time>
      </trkpt>
      <trkpt lat="48.63346" lon="2.06161">
        <ele>106.2</ele>
        <time>2026-01-30T11:01:12Z</time>
      </trkpt>
      <trkpt lat="48.63341" lon="2.06155">
        <ele>106.2</ele>
        <time>2026-01-30T11:01:13Z</time>
      </trkpt>
      <trkpt lat="48.63336" lon="2.06149">
        <ele>106.2</ele>
        <time>2026-01-30T11:01:14Z</time>
      </trkpt>
      <trkpt lat="48.63331" lon="2.06143">
        <ele>106.2</ele>
        <time>2026-01-30T11:01:15Z</time>
      </trkpt>
      <trkpt lat="48.63326" lon="2.06137">
        <ele>105.8</ele>
        <time>2026-01-30T11:01:16Z</time>
      </trkpt>
      <trkpt lat="48.6332" lon="2.06131">
        <ele>105.8</ele>
        <time>2026-01-30T11:01:17Z</time>
      </trkpt>
      <trkpt lat="48.63315" lon="2.06125">
        <ele>105.8</ele>
        <time>2026-01-30T11:01:18Z</time>
      </trkpt>
      <trkpt lat="48.6331" lon="2.06119">
        <ele>105.8</ele>
        <time>2026-01-30T11:01:19Z</time>
      </trkpt>
      <trkpt lat="48.63305" lon="2.06114">
        <ele>105.8</ele>
        <time>2026-01-30T11:01:20Z</time>
      </trkpt>
      <trkpt lat="48.63299" lon="2.06108">
        <ele>105.8</ele>
        <time>2026-01-30T11:01:21Z</time>
      </trkpt>
      <trkpt lat="48.63294" lon="2.06102">
        <ele>105.8</ele>
        <time>2026-01-30T11:01:22Z</time>
      </trkpt>
      <trkpt lat="48.63289" lon="2.06096">
        <ele>105.6</ele>
        <time>2026-01-30T11:01:23Z</time>
      </trkpt>
      <trkpt lat="48.63284" lon="2.06091">
        <ele>106.2</ele>
        <time>2026-01-30T11:01:24Z</time>
      </trkpt>
      <trkpt lat="48.63279" lon="2.06085">
        <ele>106.2</ele>
        <time>2026-01-30T11:01:25Z</time>
      </trkpt>
      <trkpt lat="48.63274" lon="2.06079">
        <ele>106.2</ele>
        <time>2026-01-30T11:01:26Z</time>
      </trkpt>
      <trkpt lat="48.63269" lon="2.06074">
        <ele>106.2</ele>
        <time>2026-01-30T11:01:27Z</time>
      </trkpt>
      <trkpt lat="48.63264" lon="2.06068">
        <ele>106.2</ele>
        <time>2026-01-30T11:01:28Z</time>
      </trkpt>
      <trkpt lat="48.63259" lon="2.06062">
        <ele>106.2</ele>
        <time>2026-01-30T11:01:29Z</time>
      </trkpt>
      <trkpt lat="48.63254" lon="2.06057">
        <ele>106.2</ele>
        <time>2026-01-30T11:01:30Z</time>
      </trkpt>
      <trkpt lat="48.63249" lon="2.06051">
        <ele>106.2</ele>
        <time>2026-01-30T11:01:31Z</time>
      </trkpt>
      <trkpt lat="48.63244" lon="2.06045">
        <ele>106</ele>
        <time>2026-01-30T11:01:32Z</time>
      </trkpt>
      <trkpt lat="48.63239" lon="2.0604">
        <ele>106</ele>
        <time>2026-01-30T11:01:33Z</time>
      </trkpt>
      <trkpt lat="48.63234" lon="2.06034">
        <ele>106</ele>
        <time>2026-01-30T11:01:34Z</time>
      </trkpt>
      <trkpt lat="48.63229" lon="2.06028">
        <ele>106</ele>
        <time>2026-01-30T11:01:35Z</time>
      </trkpt>
      <trkpt lat="48.63224" lon="2.06022">
        <ele>106.8</ele>
        <time>2026-01-30T11:01:36Z</time>
      </trkpt>
      <trkpt lat="48.6322" lon="2.06016">
        <ele>106.8</ele>
        <time>2026-01-30T11:01:37Z</time>
      </trkpt>
      <trkpt lat="48.63215" lon="2.0601">
        <ele>106.8</ele>
        <time>2026-01-30T11:01:38Z</time>
      </trkpt>
      <trkpt lat="48.6321" lon="2.06004">
        <ele>106.8</ele>
        <time>2026-01-30T11:01:39Z</time>
      </trkpt>
      <trkpt lat="48.63205" lon="2.05997">
        <ele>105.2</ele>
        <time>2026-01-30T11:01:40Z</time>
      </trkpt>
      <trkpt lat="48.632" lon="2.05991">
        <ele>105.2</ele>
        <time>2026-01-30T11:01:41Z</time>
      </trkpt>
      <trkpt lat="48.63194" lon="2.05985">
        <ele>105.2</ele>
        <time>2026-01-30T11:01:42Z</time>
      </trkpt>
      <trkpt lat="48.63189" lon="2.05979">
        <ele>105.2</ele>
        <time>2026-01-30T11:01:43Z</time>
      </trkpt>
      <trkpt lat="48.63183" lon="2.05974">
        <ele>105.2</ele>
        <time>2026-01-30T11:01:44Z</time>
      </trkpt>
      <trkpt lat="48.63176" lon="2.05969">
        <ele>105.2</ele>
        <time>2026-01-30T11:01:45Z</time>
      </trkpt>
      <trkpt lat="48.6317" lon="2.05964">
        <ele>105.2</ele>
        <time>2026-01-30T11:01:46Z</time>
      </trkpt>
      <trkpt lat="48.63163" lon="2.0596">
        <ele>104.2</ele>
        <time>2026-01-30T11:01:47Z</time>
      </trkpt>
      <trkpt lat="48.63157" lon="2.05956">
        <ele>104.2</ele>
        <time>2026-01-30T11:01:48Z</time>
      </trkpt>
      <trkpt lat="48.6315" lon="2.05952">
        <ele>104.2</ele>
        <time>2026-01-30T11:01:49Z</time>
      </trkpt>
      <trkpt lat="48.63143" lon="2.05948">
        <ele>104.2</ele>
        <time>2026-01-30T11:01:50Z</time>
      </trkpt>
      <trkpt lat="48.63136" lon="2.05945">
        <ele>103.6</ele>
        <time>2026-01-30T11:01:51Z</time>
      </trkpt>
      <trkpt lat="48.63129" lon="2.05942">
        <ele>103.4</ele>
        <time>2026-01-30T11:01:52Z</time>
      </trkpt>
      <trkpt lat="48.63123" lon="2.0594">
        <ele>103.4</ele>
        <time>2026-01-30T11:01:53Z</time>
      </trkpt>
      <trkpt lat="48.63116" lon="2.05937">
        <ele>103.4</ele>
        <time>2026-01-30T11:01:54Z</time>
      </trkpt>
      <trkpt lat="48.63109" lon="2.05935">
        <ele>103.4</ele>
        <time>2026-01-30T11:01:55Z</time>
      </trkpt>
      <trkpt lat="48.63102" lon="2.05933">
        <ele>103.2</ele>
        <time>2026-01-30T11:01:56Z</time>
      </trkpt>
      <trkpt lat="48.63095" lon="2.05931">
        <ele>103.2</ele>
        <time>2026-01-30T11:01:57Z</time>
      </trkpt>
      <trkpt lat="48.63088" lon="2.05928">
        <ele>103.2</ele>
        <time>2026-01-30T11:01:58Z</time>
      </trkpt>
      <trkpt lat="48.63082" lon="2.05925">
        <ele>103.2</ele>
        <time>2026-01-30T11:01:59Z</time>
      </trkpt>
      <trkpt lat="48.63075" lon="2.05921">
        <ele>104.2</ele>
        <time>2026-01-30T11:02:00Z</time>
      </trkpt>
      <trkpt lat="48.63069" lon="2.05917">
        <ele>104.2</ele>
        <time>2026-01-30T11:02:01Z</time>
      </trkpt>
      <trkpt lat="48.63062" lon="2.05913">
        <ele>104.2</ele>
        <time>2026-01-30T11:02:02Z</time>
      </trkpt>
      <trkpt lat="48.63056" lon="2.05908">
        <ele>104.2</ele>
        <time>2026-01-30T11:02:03Z</time>
      </trkpt>
      <trkpt lat="48.6305" lon="2.05903">
        <ele>103.6</ele>
        <time>2026-01-30T11:02:04Z</time>
      </trkpt>
      <trkpt lat="48.63044" lon="2.05898">
        <ele>103.6</ele>
        <time>2026-01-30T11:02:05Z</time>
      </trkpt>
      <trkpt lat="48.63038" lon="2.05893">
        <ele>103.6</ele>
        <time>2026-01-30T11:02:06Z</time>
      </trkpt>
      <trkpt lat="48.63032" lon="2.05888">
        <ele>104.4</ele>
        <time>2026-01-30T11:02:07Z</time>
      </trkpt>
      <trkpt lat="48.63026" lon="2.05882">
        <ele>104.4</ele>
        <time>2026-01-30T11:02:08Z</time>
      </trkpt>
      <trkpt lat="48.6302" lon="2.05877">
        <ele>104.4</ele>
        <time>2026-01-30T11:02:09Z</time>
      </trkpt>
      <trkpt lat="48.63014" lon="2.05872">
        <ele>104.4</ele>
        <time>2026-01-30T11:02:10Z</time>
      </trkpt>
      <trkpt lat="48.63008" lon="2.05867">
        <ele>104.4</ele>
        <time>2026-01-30T11:02:11Z</time>
      </trkpt>
      <trkpt lat="48.63003" lon="2.05862">
        <ele>104.4</ele>
        <time>2026-01-30T11:02:12Z</time>
      </trkpt>
      <trkpt lat="48.62997" lon="2.05857">
        <ele>104.4</ele>
        <time>2026-01-30T11:02:13Z</time>
      </trkpt>
      <trkpt lat="48.62991" lon="2.05851">
        <ele>104.4</ele>
        <time>2026-01-30T11:02:14Z</time>
      </trkpt>
      <trkpt lat="48.62986" lon="2.05845">
        <ele>104.4</ele>
        <time>2026-01-30T11:02:15Z</time>
      </trkpt>
      <trkpt lat="48.62981" lon="2.05838">
        <ele>103.6</ele>
        <time>2026-01-30T11:02:16Z</time>
      </trkpt>
      <trkpt lat="48.62977" lon="2.0583">
        <ele>104.4</ele>
        <time>2026-01-30T11:02:17Z</time>
      </trkpt>
      <trkpt lat="48.62973" lon="2.05821">
        <ele>104.4</ele>
        <time>2026-01-30T11:02:18Z</time>
      </trkpt>
      <trkpt lat="48.6297" lon="2.05812">
        <ele>104.4</ele>
        <time>2026-01-30T11:02:19Z</time>
      </trkpt>
      <trkpt lat="48.62967" lon="2.05802">
        <ele>103.8</ele>
        <time>2026-01-30T11:02:20Z</time>
      </trkpt>
      <trkpt lat="48.62963" lon="2.05794">
        <ele>103.8</ele>
        <time>2026-01-30T11:02:21Z</time>
      </trkpt>
      <trkpt lat="48.6296" lon="2.05785">
        <ele>103.8</ele>
        <time>2026-01-30T11:02:22Z</time>
      </trkpt>
      <trkpt lat="48.62956" lon="2.05776">
        <ele>103.8</ele>
        <time>2026-01-30T11:02:23Z</time>
      </trkpt>
      <trkpt lat="48.62953" lon="2.05768">
        <ele>104.2</ele>
        <time>2026-01-30T11:02:24Z</time>
      </trkpt>
      <trkpt lat="48.6295" lon="2.05759">
        <ele>105</ele>
        <time>2026-01-30T11:02:25Z</time>
      </trkpt>
      <trkpt lat="48.62947" lon="2.05751">
        <ele>105</ele>
        <time>2026-01-30T11:02:26Z</time>
      </trkpt>
      <trkpt lat="48.62943" lon="2.05743">
        <ele>105</ele>
        <time>2026-01-30T11:02:27Z</time>
      </trkpt>
      <trkpt lat="48.6294" lon="2.05735">
        <ele>105</ele>
        <time>2026-01-30T11:02:28Z</time>
      </trkpt>
      <trkpt lat="48.62937" lon="2.05728">
        <ele>105.8</ele>
        <time>2026-01-30T11:02:29Z</time>
      </trkpt>
      <trkpt lat="48.62933" lon="2.0572">
        <ele>105.8</ele>
        <time>2026-01-30T11:02:30Z</time>
      </trkpt>
      <trkpt lat="48.62929" lon="2.05712">
        <ele>105.8</ele>
        <time>2026-01-30T11:02:31Z</time>
      </trkpt>
      <trkpt lat="48.62926" lon="2.05705">
        <ele>105.8</ele>
        <time>2026-01-30T11:02:32Z</time>
      </trkpt>
      <trkpt lat="48.62923" lon="2.05697">
        <ele>106</ele>
        <time>2026-01-30T11:02:33Z</time>
      </trkpt>
      <trkpt lat="48.62919" lon="2.05689">
        <ele>106</ele>
        <time>2026-01-30T11:02:34Z</time>
      </trkpt>
      <trkpt lat="48.62915" lon="2.05681">
        <ele>106</ele>
        <time>2026-01-30T11:02:35Z</time>
      </trkpt>
      <trkpt lat="48.62912" lon="2.05674">
        <ele>106</ele>
        <time>2026-01-30T11:02:36Z</time>
      </trkpt>
      <trkpt lat="48.62908" lon="2.05666">
        <ele>105.6</ele>
        <time>2026-01-30T11:02:37Z</time>
      </trkpt>
      <trkpt lat="48.62905" lon="2.05658">
        <ele>105.6</ele>
        <time>2026-01-30T11:02:38Z</time>
      </trkpt>
      <trkpt lat="48.62901" lon="2.05651">
        <ele>105.6</ele>
        <time>2026-01-30T11:02:39Z</time>
      </trkpt>
      <trkpt lat="48.62897" lon="2.05643">
        <ele>106.6</ele>
        <time>2026-01-30T11:02:40Z</time>
      </trkpt>
      <trkpt lat="48.62894" lon="2.05636">
        <ele>106.4</ele>
        <time>2026-01-30T11:02:41Z</time>
      </trkpt>
      <trkpt lat="48.6289" lon="2.05628">
        <ele>106.4</ele>
        <time>2026-01-30T11:02:42Z</time>
      </trkpt>
      <trkpt lat="48.62887" lon="2.05621">
        <ele>106.4</ele>
        <time>2026-01-30T11:02:43Z</time>
      </trkpt>
      <trkpt lat="48.62883" lon="2.05614">
        <ele>106.4</ele>
        <time>2026-01-30T11:02:44Z</time>
      </trkpt>
      <trkpt lat="48.6288" lon="2.05606">
        <ele>106.2</ele>
        <time>2026-01-30T11:02:45Z</time>
      </trkpt>
      <trkpt lat="48.62876" lon="2.05599">
        <ele>106.2</ele>
        <time>2026-01-30T11:02:46Z</time>
      </trkpt>
      <trkpt lat="48.62873" lon="2.05591">
        <ele>106.2</ele>
        <time>2026-01-30T11:02:47Z</time>
      </trkpt>
      <trkpt lat="48.6287" lon="2.05582">
        <ele>105.2</ele>
        <time>2026-01-30T11:02:48Z</time>
      </trkpt>
      <trkpt lat="48.62867" lon="2.05574">
        <ele>104.2</ele>
        <time>2026-01-30T11:02:49Z</time>
      </trkpt>
      <trkpt lat="48.62863" lon="2.05565">
        <ele>104.2</ele>
        <time>2026-01-30T11:02:50Z</time>
      </trkpt>
      <trkpt lat="48.62859" lon="2.05556">
        <ele>104.2</ele>
        <time>2026-01-30T11:02:51Z</time>
      </trkpt>
      <trkpt lat="48.62855" lon="2.05548">
        <ele>103.2</ele>
        <time>2026-01-30T11:02:52Z</time>
      </trkpt>
      <trkpt lat="48.62852" lon="2.05538">
        <ele>101.6</ele>
        <time>2026-01-30T11:02:53Z</time>
      </trkpt>
      <trkpt lat="48.62848" lon="2.05529">
        <ele>101.6</ele>
        <time>2026-01-30T11:02:54Z</time>
      </trkpt>
      <trkpt lat="48.62844" lon="2.05519">
        <ele>101.6</ele>
        <time>2026-01-30T11:02:55Z</time>
      </trkpt>
      <trkpt lat="48.6284" lon="2.05509">
        <ele>100.6</ele>
        <time>2026-01-30T11:02:56Z</time>
      </trkpt>
      <trkpt lat="48.62835" lon="2.05498">
        <ele>100.2</ele>
        <time>2026-01-30T11:02:57Z</time>
      </trkpt>
      <trkpt lat="48.62831" lon="2.05487">
        <ele>100.2</ele>
        <time>2026-01-30T11:02:58Z</time>
      </trkpt>
      <trkpt lat="48.62826" lon="2.05475">
        <ele>100.2</ele>
        <time>2026-01-30T11:02:59Z</time>
      </trkpt>
      <trkpt lat="48.62821" lon="2.05463">
        <ele>99.2</ele>
        <time>2026-01-30T11:03:00Z</time>
      </trkpt>
      <trkpt lat="48.62817" lon="2.05451">
        <ele>96.2</ele>
        <time>2026-01-30T11:03:01Z</time>
      </trkpt>
      <trkpt lat="48.62812" lon="2.05439">
        <ele>96.2</ele>
        <time>2026-01-30T11:03:02Z</time>
      </trkpt>
      <trkpt lat="48.62808" lon="2.05427">
        <ele>96.2</ele>
        <time>2026-01-30T11:03:03Z</time>
      </trkpt>
      <trkpt lat="48.62803" lon="2.05415">
        <ele>95.2</ele>
        <time>2026-01-30T11:03:04Z</time>
      </trkpt>
      <trkpt lat="48.62799" lon="2.05403">
        <ele>93.6</ele>
        <time>2026-01-30T11:03:05Z</time>
      </trkpt>
      <trkpt lat="48.62794" lon="2.05392">
        <ele>93.6</ele>
        <time>2026-01-30T11:03:06Z</time>
      </trkpt>
      <trkpt lat="48.62789" lon="2.05381">
        <ele>93.6</ele>
        <time>2026-01-30T11:03:07Z</time>
      </trkpt>
      <trkpt lat="48.62785" lon="2.05371">
        <ele>92.6</ele>
        <time>2026-01-30T11:03:08Z</time>
      </trkpt>
      <trkpt lat="48.6278" lon="2.05359">
        <ele>91.4</ele>
        <time>2026-01-30T11:03:09Z</time>
      </trkpt>
      <trkpt lat="48.62776" lon="2.05348">
        <ele>91.4</ele>
        <time>2026-01-30T11:03:10Z</time>
      </trkpt>
      <trkpt lat="48.62771" lon="2.05337">
        <ele>91.4</ele>
        <time>2026-01-30T11:03:11Z</time>
      </trkpt>
      <trkpt lat="48.62766" lon="2.05324">
        <ele>90.4</ele>
        <time>2026-01-30T11:03:12Z</time>
      </trkpt>
      <trkpt lat="48.62762" lon="2.05311">
        <ele>88</ele>
        <time>2026-01-30T11:03:13Z</time>
      </trkpt>
      <trkpt lat="48.62758" lon="2.05298">
        <ele>88</ele>
        <time>2026-01-30T11:03:14Z</time>
      </trkpt>
      <trkpt lat="48.62756" lon="2.05285">
        <ele>88</ele>
        <time>2026-01-30T11:03:15Z</time>
      </trkpt>
      <trkpt lat="48.62754" lon="2.05272">
        <ele>88</ele>
        <time>2026-01-30T11:03:16Z</time>
      </trkpt>
      <trkpt lat="48.62753" lon="2.0526">
        <ele>86.8</ele>
        <time>2026-01-30T11:03:17Z</time>
      </trkpt>
      <trkpt lat="48.62753" lon="2.05247">
        <ele>86.8</ele>
        <time>2026-01-30T11:03:18Z</time>
      </trkpt>
      <trkpt lat="48.62754" lon="2.05236">
        <ele>86.8</ele>
        <time>2026-01-30T11:03:19Z</time>
      </trkpt>
      <trkpt lat="48.62755" lon="2.05224">
        <ele>85.8</ele>
        <time>2026-01-30T11:03:20Z</time>
      </trkpt>
      <trkpt lat="48.62757" lon="2.05212">
        <ele>82.6</ele>
        <time>2026-01-30T11:03:21Z</time>
      </trkpt>
      <trkpt lat="48.6276" lon="2.05201">
        <ele>82.6</ele>
        <time>2026-01-30T11:03:22Z</time>
      </trkpt>
      <trkpt lat="48.62762" lon="2.0519">
        <ele>82.6</ele>
        <time>2026-01-30T11:03:23Z</time>
      </trkpt>
      <trkpt lat="48.62763" lon="2.05179">
        <ele>81.6</ele>
        <time>2026-01-30T11:03:24Z</time>
      </trkpt>
      <trkpt lat="48.62763" lon="2.05168">
        <ele>79.8</ele>
        <time>2026-01-30T11:03:25Z</time>
      </trkpt>
      <trkpt lat="48.62762" lon="2.05158">
        <ele>79.8</ele>
        <time>2026-01-30T11:03:26Z</time>
      </trkpt>
      <trkpt lat="48.62762" lon="2.05149">
        <ele>79.8</ele>
        <time>2026-01-30T11:03:27Z</time>
      </trkpt>
      <trkpt lat="48.62762" lon="2.05141">
        <ele>80.2</ele>
        <time>2026-01-30T11:03:28Z</time>
      </trkpt>
      <trkpt lat="48.62762" lon="2.05134">
        <ele>80.2</ele>
        <time>2026-01-30T11:03:29Z</time>
      </trkpt>
      <trkpt lat="48.62762" lon="2.05129">
        <ele>80.2</ele>
        <time>2026-01-30T11:03:30Z</time>
      </trkpt>
      <trkpt lat="48.62761" lon="2.05124">
        <ele>80.2</ele>
        <time>2026-01-30T11:03:31Z</time>
      </trkpt>
      <trkpt lat="48.62757" lon="2.05121">
        <ele>79.2</ele>
        <time>2026-01-30T11:03:32Z</time>
      </trkpt>
      <trkpt lat="48.62753" lon="2.0512">
        <ele>78.2</ele>
        <time>2026-01-30T11:03:33Z</time>
      </trkpt>
      <trkpt lat="48.62747" lon="2.05119">
        <ele>78.2</ele>
        <time>2026-01-30T11:03:34Z</time>
      </trkpt>
      <trkpt lat="48.62741" lon="2.05118">
        <ele>78.2</ele>
        <time>2026-01-30T11:03:35Z</time>
      </trkpt>
      <trkpt lat="48.62734" lon="2.05118">
        <ele>78.2</ele>
        <time>2026-01-30T11:03:36Z</time>
      </trkpt>
      <trkpt lat="48.62728" lon="2.05117">
        <ele>76.2</ele>
        <time>2026-01-30T11:03:37Z</time>
      </trkpt>
      <trkpt lat="48.62721" lon="2.05115">
        <ele>76.2</ele>
        <time>2026-01-30T11:03:38Z</time>
      </trkpt>
      <trkpt lat="48.62715" lon="2.05112">
        <ele>76.2</ele>
        <time>2026-01-30T11:03:39Z</time>
      </trkpt>
      <trkpt lat="48.62708" lon="2.05107">
        <ele>76</ele>
        <time>2026-01-30T11:03:40Z</time>
      </trkpt>
      <trkpt lat="48.62701" lon="2.05103">
        <ele>76.6</ele>
        <time>2026-01-30T11:03:41Z</time>
      </trkpt>
      <trkpt lat="48.62694" lon="2.05099">
        <ele>76.6</ele>
        <time>2026-01-30T11:03:42Z</time>
      </trkpt>
      <trkpt lat="48.62687" lon="2.05095">
        <ele>76.6</ele>
        <time>2026-01-30T11:03:43Z</time>
      </trkpt>
      <trkpt lat="48.6268" lon="2.05092">
        <ele>76.6</ele>
        <time>2026-01-30T11:03:44Z</time>
      </trkpt>
      <trkpt lat="48.62673" lon="2.05089">
        <ele>75</ele>
        <time>2026-01-30T11:03:45Z</time>
      </trkpt>
      <trkpt lat="48.62665" lon="2.05088">
        <ele>75</ele>
        <time>2026-01-30T11:03:46Z</time>
      </trkpt>
      <trkpt lat="48.62658" lon="2.05085">
        <ele>75</ele>
        <time>2026-01-30T11:03:47Z</time>
      </trkpt>
      <trkpt lat="48.62651" lon="2.05082">
        <ele>75</ele>
        <time>2026-01-30T11:03:48Z</time>
      </trkpt>
      <trkpt lat="48.62643" lon="2.0508">
        <ele>74.4</ele>
        <time>2026-01-30T11:03:49Z</time>
      </trkpt>
      <trkpt lat="48.62636" lon="2.05079">
        <ele>74.4</ele>
        <time>2026-01-30T11:03:50Z</time>
      </trkpt>
      <trkpt lat="48.62628" lon="2.05078">
        <ele>74.4</ele>
        <time>2026-01-30T11:03:51Z</time>
      </trkpt>
      <trkpt lat="48.6262" lon="2.05078">
        <ele>73.6</ele>
        <time>2026-01-30T11:03:52Z</time>
      </trkpt>
      <trkpt lat="48.62612" lon="2.05077">
        <ele>72.2</ele>
        <time>2026-01-30T11:03:53Z</time>
      </trkpt>
      <trkpt lat="48.62604" lon="2.05075">
        <ele>72.2</ele>
        <time>2026-01-30T11:03:54Z</time>
      </trkpt>
      <trkpt lat="48.62595" lon="2.05074">
        <ele>72.2</ele>
        <time>2026-01-30T11:03:55Z</time>
      </trkpt>
      <trkpt lat="48.62586" lon="2.05072">
        <ele>72.2</ele>
        <time>2026-01-30T11:03:56Z</time>
      </trkpt>
      <trkpt lat="48.62578" lon="2.0507">
        <ele>72</ele>
        <time>2026-01-30T11:03:57Z</time>
      </trkpt>
      <trkpt lat="48.62569" lon="2.05066">
        <ele>72</ele>
        <time>2026-01-30T11:03:58Z</time>
      </trkpt>
      <trkpt lat="48.62561" lon="2.05063">
        <ele>72</ele>
        <time>2026-01-30T11:03:59Z</time>
      </trkpt>
      <trkpt lat="48.62553" lon="2.05059">
        <ele>72</ele>
        <time>2026-01-30T11:04:00Z</time>
      </trkpt>
      <trkpt lat="48.62545" lon="2.05054">
        <ele>71.6</ele>
        <time>2026-01-30T11:04:01Z</time>
      </trkpt>
      <trkpt lat="48.62538" lon="2.05049">
        <ele>71.6</ele>
        <time>2026-01-30T11:04:02Z</time>
      </trkpt>
      <trkpt lat="48.6253" lon="2.05045">
        <ele>71.6</ele>
        <time>2026-01-30T11:04:03Z</time>
      </trkpt>
      <trkpt lat="48.62523" lon="2.0504">
        <ele>72.6</ele>
        <time>2026-01-30T11:04:04Z</time>
      </trkpt>
      <trkpt lat="48.62517" lon="2.05036">
        <ele>73.2</ele>
        <time>2026-01-30T11:04:05Z</time>
      </trkpt>
      <trkpt lat="48.62511" lon="2.05033">
        <ele>73.2</ele>
        <time>2026-01-30T11:04:06Z</time>
      </trkpt>
      <trkpt lat="48.62505" lon="2.0503">
        <ele>73.2</ele>
        <time>2026-01-30T11:04:07Z</time>
      </trkpt>
      <trkpt lat="48.62499" lon="2.05027">
        <ele>73.2</ele>
        <time>2026-01-30T11:04:08Z</time>
      </trkpt>
      <trkpt lat="48.62493" lon="2.05024">
        <ele>74.8</ele>
        <time>2026-01-30T11:04:09Z</time>
      </trkpt>
      <trkpt lat="48.62487" lon="2.05021">
        <ele>74.8</ele>
        <time>2026-01-30T11:04:10Z</time>
      </trkpt>
      <trkpt lat="48.62481" lon="2.05018">
        <ele>74.8</ele>
        <time>2026-01-30T11:04:11Z</time>
      </trkpt>
      <trkpt lat="48.62476" lon="2.05016">
        <ele>75.8</ele>
        <time>2026-01-30T11:04:12Z</time>
      </trkpt>
      <trkpt lat="48.6247" lon="2.05013">
        <ele>76.6</ele>
        <time>2026-01-30T11:04:13Z</time>
      </trkpt>
      <trkpt lat="48.62465" lon="2.0501">
        <ele>76.6</ele>
        <time>2026-01-30T11:04:14Z</time>
      </trkpt>
      <trkpt lat="48.6246" lon="2.05007">
        <ele>76.6</ele>
        <time>2026-01-30T11:04:15Z</time>
      </trkpt>
      <trkpt lat="48.62456" lon="2.05003">
        <ele>77.4</ele>
        <time>2026-01-30T11:04:16Z</time>
      </trkpt>
      <trkpt lat="48.62451" lon="2.05">
        <ele>77.8</ele>
        <time>2026-01-30T11:04:17Z</time>
      </trkpt>
      <trkpt lat="48.62446" lon="2.04996">
        <ele>77.8</ele>
        <time>2026-01-30T11:04:18Z</time>
      </trkpt>
      <trkpt lat="48.62442" lon="2.04992">
        <ele>77.8</ele>
        <time>2026-01-30T11:04:19Z</time>
      </trkpt>
      <trkpt lat="48.62437" lon="2.04988">
        <ele>77.8</ele>
        <time>2026-01-30T11:04:20Z</time>
      </trkpt>
      <trkpt lat="48.62432" lon="2.04984">
        <ele>76.6</ele>
        <time>2026-01-30T11:04:21Z</time>
      </trkpt>
      <trkpt lat="48.62427" lon="2.0498">
        <ele>76.6</ele>
        <time>2026-01-30T11:04:22Z</time>
      </trkpt>
      <trkpt lat="48.62422" lon="2.04976">
        <ele>76.6</ele>
        <time>2026-01-30T11:04:23Z</time>
      </trkpt>
      <trkpt lat="48.62417" lon="2.04971">
        <ele>76.6</ele>
        <time>2026-01-30T11:04:24Z</time>
      </trkpt>
      <trkpt lat="48.62411" lon="2.04967">
        <ele>74.6</ele>
        <time>2026-01-30T11:04:25Z</time>
      </trkpt>
      <trkpt lat="48.62405" lon="2.04962">
        <ele>74.6</ele>
        <time>2026-01-30T11:04:26Z</time>
      </trkpt>
      <trkpt lat="48.624" lon="2.04957">
        <ele>74.6</ele>
        <time>2026-01-30T11:04:27Z</time>
      </trkpt>
      <trkpt lat="48.62393" lon="2.04952">
        <ele>73.8</ele>
        <time>2026-01-30T11:04:28Z</time>
      </trkpt>
      <trkpt lat="48.62387" lon="2.04946">
        <ele>72.8</ele>
        <time>2026-01-30T11:04:29Z</time>
      </trkpt>
      <trkpt lat="48.6238" lon="2.04939">
        <ele>72.8</ele>
        <time>2026-01-30T11:04:30Z</time>
      </trkpt>
      <trkpt lat="48.62373" lon="2.04933">
        <ele>72.8</ele>
        <time>2026-01-30T11:04:31Z</time>
      </trkpt>
      <trkpt lat="48.62366" lon="2.04926">
        <ele>71.8</ele>
        <time>2026-01-30T11:04:32Z</time>
      </trkpt>
      <trkpt lat="48.62358" lon="2.0492">
        <ele>70.4</ele>
        <time>2026-01-30T11:04:33Z</time>
      </trkpt>
      <trkpt lat="48.62349" lon="2.04914">
        <ele>70.4</ele>
        <time>2026-01-30T11:04:34Z</time>
      </trkpt>
      <trkpt lat="48.62341" lon="2.04908">
        <ele>70.4</ele>
        <time>2026-01-30T11:04:35Z</time>
      </trkpt>
      <trkpt lat="48.62332" lon="2.04901">
        <ele>69.4</ele>
        <time>2026-01-30T11:04:36Z</time>
      </trkpt>
      <trkpt lat="48.62324" lon="2.04894">
        <ele>66.2</ele>
        <time>2026-01-30T11:04:37Z</time>
      </trkpt>
      <trkpt lat="48.62315" lon="2.04888">
        <ele>66.2</ele>
        <time>2026-01-30T11:04:38Z</time>
      </trkpt>
      <trkpt lat="48.62306" lon="2.04881">
        <ele>66.2</ele>
        <time>2026-01-30T11:04:39Z</time>
      </trkpt>
      <trkpt lat="48.62297" lon="2.04875">
        <ele>65.2</ele>
        <time>2026-01-30T11:04:40Z</time>
      </trkpt>
      <trkpt lat="48.62288" lon="2.04868">
        <ele>64</ele>
        <time>2026-01-30T11:04:41Z</time>
      </trkpt>
      <trkpt lat="48.62279" lon="2.04862">
        <ele>64</ele>
        <time>2026-01-30T11:04:42Z</time>
      </trkpt>
      <trkpt lat="48.6227" lon="2.04857">
        <ele>64</ele>
        <time>2026-01-30T11:04:43Z</time>
      </trkpt>
      <trkpt lat="48.62261" lon="2.04851">
        <ele>64</ele>
        <time>2026-01-30T11:04:44Z</time>
      </trkpt>
      <trkpt lat="48.62252" lon="2.04846">
        <ele>60.8</ele>
        <time>2026-01-30T11:04:45Z</time>
      </trkpt>
      <trkpt lat="48.62243" lon="2.04843">
        <ele>60.8</ele>
        <time>2026-01-30T11:04:46Z</time>
      </trkpt>
      <trkpt lat="48.62233" lon="2.0484">
        <ele>60.8</ele>
        <time>2026-01-30T11:04:47Z</time>
      </trkpt>
      <trkpt lat="48.62224" lon="2.04837">
        <ele>60.8</ele>
        <time>2026-01-30T11:04:48Z</time>
      </trkpt>
      <trkpt lat="48.62214" lon="2.04835">
        <ele>61</ele>
        <time>2026-01-30T11:04:49Z</time>
      </trkpt>
      <trkpt lat="48.62205" lon="2.04833">
        <ele>61</ele>
        <time>2026-01-30T11:04:50Z</time>
      </trkpt>
      <trkpt lat="48.62196" lon="2.04831">
        <ele>61</ele>
        <time>2026-01-30T11:04:51Z</time>
      </trkpt>
      <trkpt lat="48.62187" lon="2.04829">
        <ele>60</ele>
        <time>2026-01-30T11:04:52Z</time>
      </trkpt>
      <trkpt lat="48.62178" lon="2.04827">
        <ele>59</ele>
        <time>2026-01-30T11:04:53Z</time>
      </trkpt>
      <trkpt lat="48.62169" lon="2.04825">
        <ele>59</ele>
        <time>2026-01-30T11:04:54Z</time>
      </trkpt>
      <trkpt lat="48.6216" lon="2.04823">
        <ele>59</ele>
        <time>2026-01-30T11:04:55Z</time>
      </trkpt>
      <trkpt lat="48.62151" lon="2.04821">
        <ele>59</ele>
        <time>2026-01-30T11:04:56Z</time>
      </trkpt>
      <trkpt lat="48.62142" lon="2.0482">
        <ele>58.8</ele>
        <time>2026-01-30T11:04:57Z</time>
      </trkpt>
      <trkpt lat="48.62133" lon="2.04818">
        <ele>58.8</ele>
        <time>2026-01-30T11:04:58Z</time>
      </trkpt>
      <trkpt lat="48.62124" lon="2.04816">
        <ele>58.8</ele>
        <time>2026-01-30T11:04:59Z</time>
      </trkpt>
      <trkpt lat="48.62115" lon="2.04814">
        <ele>58.8</ele>
        <time>2026-01-30T11:05:00Z</time>
      </trkpt>
      <trkpt lat="48.62107" lon="2.04812">
        <ele>58.4</ele>
        <time>2026-01-30T11:05:01Z</time>
      </trkpt>
      <trkpt lat="48.62098" lon="2.0481">
        <ele>58.4</ele>
        <time>2026-01-30T11:05:02Z</time>
      </trkpt>
      <trkpt lat="48.62089" lon="2.04808">
        <ele>58.4</ele>
        <time>2026-01-30T11:05:03Z</time>
      </trkpt>
      <trkpt lat="48.62081" lon="2.04807">
        <ele>57.4</ele>
        <time>2026-01-30T11:05:04Z</time>
      </trkpt>
      <trkpt lat="48.62073" lon="2.04805">
        <ele>57.4</ele>
        <time>2026-01-30T11:05:05Z</time>
      </trkpt>
      <trkpt lat="48.62064" lon="2.04804">
        <ele>57.4</ele>
        <time>2026-01-30T11:05:06Z</time>
      </trkpt>
      <trkpt lat="48.62056" lon="2.04802">
        <ele>57.4</ele>
        <time>2026-01-30T11:05:07Z</time>
      </trkpt>
      <trkpt lat="48.62048" lon="2.048">
        <ele>57.4</ele>
        <time>2026-01-30T11:05:08Z</time>
      </trkpt>
      <trkpt lat="48.6204" lon="2.04799">
        <ele>57.4</ele>
        <time>2026-01-30T11:05:09Z</time>
      </trkpt>
      <trkpt lat="48.62032" lon="2.04797">
        <ele>57.4</ele>
        <time>2026-01-30T11:05:10Z</time>
      </trkpt>
      <trkpt lat="48.62024" lon="2.04795">
        <ele>57.4</ele>
        <time>2026-01-30T11:05:11Z</time>
      </trkpt>
      <trkpt lat="48.62016" lon="2.04794">
        <ele>57.4</ele>
        <time>2026-01-30T11:05:12Z</time>
      </trkpt>
      <trkpt lat="48.62008" lon="2.04792">
        <ele>58.2</ele>
        <time>2026-01-30T11:05:13Z</time>
      </trkpt>
      <trkpt lat="48.62" lon="2.0479">
        <ele>58.2</ele>
        <time>2026-01-30T11:05:14Z</time>
      </trkpt>
      <trkpt lat="48.61992" lon="2.04789">
        <ele>58.2</ele>
        <time>2026-01-30T11:05:15Z</time>
      </trkpt>
      <trkpt lat="48.61984" lon="2.04787">
        <ele>58</ele>
        <time>2026-01-30T11:05:16Z</time>
      </trkpt>
      <trkpt lat="48.61976" lon="2.04786">
        <ele>57.4</ele>
        <time>2026-01-30T11:05:17Z</time>
      </trkpt>
      <trkpt lat="48.61968" lon="2.04784">
        <ele>57.4</ele>
        <time>2026-01-30T11:05:18Z</time>
      </trkpt>
      <trkpt lat="48.61961" lon="2.04782">
        <ele>57.4</ele>
        <time>2026-01-30T11:05:19Z</time>
      </trkpt>
      <trkpt lat="48.61953" lon="2.04781">
        <ele>57.4</ele>
        <time>2026-01-30T11:05:20Z</time>
      </trkpt>
      <trkpt lat="48.61945" lon="2.04779">
        <ele>57</ele>
        <time>2026-01-30T11:05:21Z</time>
      </trkpt>
      <trkpt lat="48.61937" lon="2.04778">
        <ele>57</ele>
        <time>2026-01-30T11:05:22Z</time>
      </trkpt>
      <trkpt lat="48.6193" lon="2.04776">
        <ele>57</ele>
        <time>2026-01-30T11:05:23Z</time>
      </trkpt>
      <trkpt lat="48.61922" lon="2.04775">
        <ele>56.4</ele>
        <time>2026-01-30T11:05:24Z</time>
      </trkpt>
      <trkpt lat="48.61914" lon="2.04773">
        <ele>56.2</ele>
        <time>2026-01-30T11:05:25Z</time>
      </trkpt>
      <trkpt lat="48.61906" lon="2.04772">
        <ele>56.2</ele>
        <time>2026-01-30T11:05:26Z</time>
      </trkpt>
      <trkpt lat="48.61899" lon="2.0477">
        <ele>56.2</ele>
        <time>2026-01-30T11:05:27Z</time>
      </trkpt>
      <trkpt lat="48.61891" lon="2.04769">
        <ele>56.6</ele>
        <time>2026-01-30T11:05:28Z</time>
      </trkpt>
      <trkpt lat="48.61883" lon="2.04767">
        <ele>56.6</ele>
        <time>2026-01-30T11:05:29Z</time>
      </trkpt>
      <trkpt lat="48.61876" lon="2.04766">
        <ele>56.6</ele>
        <time>2026-01-30T11:05:30Z</time>
      </trkpt>
      <trkpt lat="48.61868" lon="2.04764">
        <ele>56.6</ele>
        <time>2026-01-30T11:05:31Z</time>
      </trkpt>
      <trkpt lat="48.61861" lon="2.04762">
        <ele>56.6</ele>
        <time>2026-01-30T11:05:32Z</time>
      </trkpt>
      <trkpt lat="48.61854" lon="2.04761">
        <ele>56.6</ele>
        <time>2026-01-30T11:05:33Z</time>
      </trkpt>
      <trkpt lat="48.61846" lon="2.04759">
        <ele>56.6</ele>
        <time>2026-01-30T11:05:34Z</time>
      </trkpt>
      <trkpt lat="48.61839" lon="2.04758">
        <ele>56.6</ele>
        <time>2026-01-30T11:05:35Z</time>
      </trkpt>
      <trkpt lat="48.61832" lon="2.04756">
        <ele>56</ele>
        <time>2026-01-30T11:05:36Z</time>
      </trkpt>
      <trkpt lat="48.61824" lon="2.04755">
        <ele>56.2</ele>
        <time>2026-01-30T11:05:37Z</time>
      </trkpt>
      <trkpt lat="48.61817" lon="2.04753">
        <ele>56.2</ele>
        <time>2026-01-30T11:05:38Z</time>
      </trkpt>
      <trkpt lat="48.6181" lon="2.04752">
        <ele>56.2</ele>
        <time>2026-01-30T11:05:39Z</time>
      </trkpt>
      <trkpt lat="48.61803" lon="2.0475">
        <ele>56.2</ele>
        <time>2026-01-30T11:05:40Z</time>
      </trkpt>
      <trkpt lat="48.61796" lon="2.04749">
        <ele>56</ele>
        <time>2026-01-30T11:05:41Z</time>
      </trkpt>
      <trkpt lat="48.61789" lon="2.04747">
        <ele>56</ele>
        <time>2026-01-30T11:05:42Z</time>
      </trkpt>
      <trkpt lat="48.61782" lon="2.04746">
        <ele>56</ele>
        <time>2026-01-30T11:05:43Z</time>
      </trkpt>
      <trkpt lat="48.61775" lon="2.04745">
        <ele>56.4</ele>
        <time>2026-01-30T11:05:44Z</time>
      </trkpt>
      <trkpt lat="48.61769" lon="2.04743">
        <ele>56.2</ele>
        <time>2026-01-30T11:05:45Z</time>
      </trkpt>
      <trkpt lat="48.61762" lon="2.04742">
        <ele>56.2</ele>
        <time>2026-01-30T11:05:46Z</time>
      </trkpt>
      <trkpt lat="48.61755" lon="2.04741">
        <ele>56.2</ele>
        <time>2026-01-30T11:05:47Z</time>
      </trkpt>
      <trkpt lat="48.61748" lon="2.0474">
        <ele>56.2</ele>
        <time>2026-01-30T11:05:48Z</time>
      </trkpt>
      <trkpt lat="48.61741" lon="2.04739">
        <ele>55.6</ele>
        <time>2026-01-30T11:05:49Z</time>
      </trkpt>
      <trkpt lat="48.61734" lon="2.04737">
        <ele>55.6</ele>
        <time>2026-01-30T11:05:50Z</time>
      </trkpt>
      <trkpt lat="48.61728" lon="2.04736">
        <ele>55.6</ele>
        <time>2026-01-30T11:05:51Z</time>
      </trkpt>
      <trkpt lat="48.61721" lon="2.04734">
        <ele>56.4</ele>
        <time>2026-01-30T11:05:52Z</time>
      </trkpt>
      <trkpt lat="48.61714" lon="2.04733">
        <ele>55.8</ele>
        <time>2026-01-30T11:05:53Z</time>
      </trkpt>
      <trkpt lat="48.61707" lon="2.04732">
        <ele>55.8</ele>
        <time>2026-01-30T11:05:54Z</time>
      </trkpt>
      <trkpt lat="48.61701" lon="2.04731">
        <ele>55.8</ele>
        <time>2026-01-30T11:05:55Z</time>
      </trkpt>
      <trkpt lat="48.61694" lon="2.04729">
        <ele>55.8</ele>
        <time>2026-01-30T11:05:56Z</time>
      </trkpt>
      <trkpt lat="48.61687" lon="2.04727">
        <ele>55.6</ele>
        <time>2026-01-30T11:05:57Z</time>
      </trkpt>
      <trkpt lat="48.6168" lon="2.04725">
        <ele>55.6</ele>
        <time>2026-01-30T11:05:58Z</time>
      </trkpt>
      <trkpt lat="48.61673" lon="2.04724">
        <ele>55.6</ele>
        <time>2026-01-30T11:05:59Z</time>
      </trkpt>
      <trkpt lat="48.61666" lon="2.04723">
        <ele>56</ele>
        <time>2026-01-30T11:06:00Z</time>
      </trkpt>
      <trkpt lat="48.61659" lon="2.04722">
        <ele>55.6</ele>
        <time>2026-01-30T11:06:01Z</time>
      </trkpt>
      <trkpt lat="48.61652" lon="2.0472">
        <ele>55.6</ele>
        <time>2026-01-30T11:06:02Z</time>
      </trkpt>
      <trkpt lat="48.61644" lon="2.04718">
        <ele>55.6</ele>
        <time>2026-01-30T11:06:03Z</time>
      </trkpt>
      <trkpt lat="48.61637" lon="2.04715">
        <ele>54.6</ele>
        <time>2026-01-30T11:06:04Z</time>
      </trkpt>
      <trkpt lat="48.6163" lon="2.0471">
        <ele>53.6</ele>
        <time>2026-01-30T11:06:05Z</time>
      </trkpt>
      <trkpt lat="48.61623" lon="2.04702">
        <ele>53.6</ele>
        <time>2026-01-30T11:06:06Z</time>
      </trkpt>
      <trkpt lat="48.61618" lon="2.04692">
        <ele>53.6</ele>
        <time>2026-01-30T11:06:07Z</time>
      </trkpt>
      <trkpt lat="48.61614" lon="2.04681">
        <ele>52.6</ele>
        <time>2026-01-30T11:06:08Z</time>
      </trkpt>
      <trkpt lat="48.61611" lon="2.04668">
        <ele>51.6</ele>
        <time>2026-01-30T11:06:09Z</time>
      </trkpt>
      <trkpt lat="48.6161" lon="2.04656">
        <ele>51.6</ele>
        <time>2026-01-30T11:06:10Z</time>
      </trkpt>
      <trkpt lat="48.6161" lon="2.04643">
        <ele>51.6</ele>
        <time>2026-01-30T11:06:11Z</time>
      </trkpt>
      <trkpt lat="48.61611" lon="2.04631">
        <ele>51.6</ele>
        <time>2026-01-30T11:06:12Z</time>
      </trkpt>
      <trkpt lat="48.61612" lon="2.04618">
        <ele>51.8</ele>
        <time>2026-01-30T11:06:13Z</time>
      </trkpt>
      <trkpt lat="48.61614" lon="2.04606">
        <ele>51.8</ele>
        <time>2026-01-30T11:06:14Z</time>
      </trkpt>
      <trkpt lat="48.61615" lon="2.04594">
        <ele>51.8</ele>
        <time>2026-01-30T11:06:15Z</time>
      </trkpt>
      <trkpt lat="48.61616" lon="2.04581">
        <ele>51.8</ele>
        <time>2026-01-30T11:06:16Z</time>
      </trkpt>
      <trkpt lat="48.61617" lon="2.04569">
        <ele>52.4</ele>
        <time>2026-01-30T11:06:17Z</time>
      </trkpt>
      <trkpt lat="48.61618" lon="2.04557">
        <ele>52.4</ele>
        <time>2026-01-30T11:06:18Z</time>
      </trkpt>
      <trkpt lat="48.61619" lon="2.04544">
        <ele>52.4</ele>
        <time>2026-01-30T11:06:19Z</time>
      </trkpt>
      <trkpt lat="48.6162" lon="2.04532">
        <ele>51.4</ele>
        <time>2026-01-30T11:06:20Z</time>
      </trkpt>
      <trkpt lat="48.61621" lon="2.0452">
        <ele>52</ele>
        <time>2026-01-30T11:06:21Z</time>
      </trkpt>
      <trkpt lat="48.61622" lon="2.04509">
        <ele>52</ele>
        <time>2026-01-30T11:06:22Z</time>
      </trkpt>
      <trkpt lat="48.61623" lon="2.04497">
        <ele>52</ele>
        <time>2026-01-30T11:06:23Z</time>
      </trkpt>
      <trkpt lat="48.61624" lon="2.04486">
        <ele>52</ele>
        <time>2026-01-30T11:06:24Z</time>
      </trkpt>
      <trkpt lat="48.61625" lon="2.04475">
        <ele>51.6</ele>
        <time>2026-01-30T11:06:25Z</time>
      </trkpt>
      <trkpt lat="48.61626" lon="2.04464">
        <ele>51.6</ele>
        <time>2026-01-30T11:06:26Z</time>
      </trkpt>
      <trkpt lat="48.61627" lon="2.04453">
        <ele>51.6</ele>
        <time>2026-01-30T11:06:27Z</time>
      </trkpt>
      <trkpt lat="48.61629" lon="2.04442">
        <ele>51.6</ele>
        <time>2026-01-30T11:06:28Z</time>
      </trkpt>
      <trkpt lat="48.6163" lon="2.04433">
        <ele>53.2</ele>
        <time>2026-01-30T11:06:29Z</time>
      </trkpt>
      <trkpt lat="48.61631" lon="2.04422">
        <ele>53.2</ele>
        <time>2026-01-30T11:06:30Z</time>
      </trkpt>
      <trkpt lat="48.61632" lon="2.04412">
        <ele>53.2</ele>
        <time>2026-01-30T11:06:31Z</time>
      </trkpt>
      <trkpt lat="48.61633" lon="2.04402">
        <ele>52.8</ele>
        <time>2026-01-30T11:06:32Z</time>
      </trkpt>
      <trkpt lat="48.61634" lon="2.04391">
        <ele>53</ele>
        <time>2026-01-30T11:06:33Z</time>
      </trkpt>
      <trkpt lat="48.61635" lon="2.04381">
        <ele>53</ele>
        <time>2026-01-30T11:06:34Z</time>
      </trkpt>
      <trkpt lat="48.61635" lon="2.04372">
        <ele>53</ele>
        <time>2026-01-30T11:06:35Z</time>
      </trkpt>
      <trkpt lat="48.61636" lon="2.04362">
        <ele>53.6</ele>
        <time>2026-01-30T11:06:36Z</time>
      </trkpt>
      <trkpt lat="48.61637" lon="2.04352">
        <ele>53.2</ele>
        <time>2026-01-30T11:06:37Z</time>
      </trkpt>
      <trkpt lat="48.61638" lon="2.04343">
        <ele>53.2</ele>
        <time>2026-01-30T11:06:38Z</time>
      </trkpt>
      <trkpt lat="48.61639" lon="2.04334">
        <ele>53.2</ele>
        <time>2026-01-30T11:06:39Z</time>
      </trkpt>
      <trkpt lat="48.6164" lon="2.04325">
        <ele>53.2</ele>
        <time>2026-01-30T11:06:40Z</time>
      </trkpt>
      <trkpt lat="48.61641" lon="2.04316">
        <ele>52.8</ele>
        <time>2026-01-30T11:06:41Z</time>
      </trkpt>
      <trkpt lat="48.61641" lon="2.04307">
        <ele>52.8</ele>
        <time>2026-01-30T11:06:42Z</time>
      </trkpt>
      <trkpt lat="48.61642" lon="2.04298">
        <ele>52.8</ele>
        <time>2026-01-30T11:06:43Z</time>
      </trkpt>
      <trkpt lat="48.61643" lon="2.0429">
        <ele>53.6</ele>
        <time>2026-01-30T11:06:44Z</time>
      </trkpt>
      <trkpt lat="48.61644" lon="2.04281">
        <ele>55.2</ele>
        <time>2026-01-30T11:06:45Z</time>
      </trkpt>
      <trkpt lat="48.61645" lon="2.04273">
        <ele>55.2</ele>
        <time>2026-01-30T11:06:46Z</time>
      </trkpt>
      <trkpt lat="48.61645" lon="2.04265">
        <ele>55.2</ele>
        <time>2026-01-30T11:06:47Z</time>
      </trkpt>
      <trkpt lat="48.61646" lon="2.04257">
        <ele>54.2</ele>
        <time>2026-01-30T11:06:48Z</time>
      </trkpt>
      <trkpt lat="48.61647" lon="2.04249">
        <ele>53.8</ele>
        <time>2026-01-30T11:06:49Z</time>
      </trkpt>
      <trkpt lat="48.61647" lon="2.04241">
        <ele>53.8</ele>
        <time>2026-01-30T11:06:50Z</time>
      </trkpt>
      <trkpt lat="48.61648" lon="2.04233">
        <ele>53.8</ele>
        <time>2026-01-30T11:06:51Z</time>
      </trkpt>
      <trkpt lat="48.61649" lon="2.04225">
        <ele>53.8</ele>
        <time>2026-01-30T11:06:52Z</time>
      </trkpt>
      <trkpt lat="48.6165" lon="2.04218">
        <ele>54.6</ele>
        <time>2026-01-30T11:06:53Z</time>
      </trkpt>
      <trkpt lat="48.6165" lon="2.0421">
        <ele>54.6</ele>
        <time>2026-01-30T11:06:54Z</time>
      </trkpt>
      <trkpt lat="48.61651" lon="2.04202">
        <ele>54.6</ele>
        <time>2026-01-30T11:06:55Z</time>
      </trkpt>
      <trkpt lat="48.61652" lon="2.04194">
        <ele>55.6</ele>
        <time>2026-01-30T11:06:56Z</time>
      </trkpt>
      <trkpt lat="48.61653" lon="2.04186">
        <ele>56.4</ele>
        <time>2026-01-30T11:06:57Z</time>
      </trkpt>
      <trkpt lat="48.61653" lon="2.04179">
        <ele>56.4</ele>
        <time>2026-01-30T11:06:58Z</time>
      </trkpt>
      <trkpt lat="48.61654" lon="2.04171">
        <ele>56.4</ele>
        <time>2026-01-30T11:06:59Z</time>
      </trkpt>
      <trkpt lat="48.61655" lon="2.04163">
        <ele>56.4</ele>
        <time>2026-01-30T11:07:00Z</time>
      </trkpt>
      <trkpt lat="48.61656" lon="2.04155">
        <ele>56.2</ele>
        <time>2026-01-30T11:07:01Z</time>
      </trkpt>
      <trkpt lat="48.61656" lon="2.04147">
        <ele>56.2</ele>
        <time>2026-01-30T11:07:02Z</time>
      </trkpt>
      <trkpt lat="48.61657" lon="2.04139">
        <ele>56.2</ele>
        <time>2026-01-30T11:07:03Z</time>
      </trkpt>
      <trkpt lat="48.61658" lon="2.04131">
        <ele>56.6</ele>
        <time>2026-01-30T11:07:04Z</time>
      </trkpt>
      <trkpt lat="48.61659" lon="2.04124">
        <ele>55.4</ele>
        <time>2026-01-30T11:07:05Z</time>
      </trkpt>
      <trkpt lat="48.61659" lon="2.04116">
        <ele>55.4</ele>
        <time>2026-01-30T11:07:06Z</time>
      </trkpt>
      <trkpt lat="48.6166" lon="2.04108">
        <ele>55.4</ele>
        <time>2026-01-30T11:07:07Z</time>
      </trkpt>
      <trkpt lat="48.61661" lon="2.04101">
        <ele>55.4</ele>
        <time>2026-01-30T11:07:08Z</time>
      </trkpt>
      <trkpt lat="48.61661" lon="2.04093">
        <ele>57.6</ele>
        <time>2026-01-30T11:07:09Z</time>
      </trkpt>
      <trkpt lat="48.61662" lon="2.04085">
        <ele>57.6</ele>
        <time>2026-01-30T11:07:10Z</time>
      </trkpt>
      <trkpt lat="48.61663" lon="2.04078">
        <ele>57.6</ele>
        <time>2026-01-30T11:07:11Z</time>
      </trkpt>
      <trkpt lat="48.61663" lon="2.0407">
        <ele>57.6</ele>
        <time>2026-01-30T11:07:12Z</time>
      </trkpt>
      <trkpt lat="48.61664" lon="2.04062">
        <ele>57.8</ele>
        <time>2026-01-30T11:07:13Z</time>
      </trkpt>
      <trkpt lat="48.61665" lon="2.04054">
        <ele>57.8</ele>
        <time>2026-01-30T11:07:14Z</time>
      </trkpt>
      <trkpt lat="48.61666" lon="2.04046">
        <ele>57.8</ele>
        <time>2026-01-30T11:07:15Z</time>
      </trkpt>
      <trkpt lat="48.61666" lon="2.04039">
        <ele>58</ele>
        <time>2026-01-30T11:07:16Z</time>
      </trkpt>
      <trkpt lat="48.61667" lon="2.04031">
        <ele>59.4</ele>
        <time>2026-01-30T11:07:17Z</time>
      </trkpt>
      <trkpt lat="48.61668" lon="2.04023">
        <ele>59.4</ele>
        <time>2026-01-30T11:07:18Z</time>
      </trkpt>
      <trkpt lat="48.61669" lon="2.04015">
        <ele>59.4</ele>
        <time>2026-01-30T11:07:19Z</time>
      </trkpt>
      <trkpt lat="48.61669" lon="2.04008">
        <ele>58.6</ele>
        <time>2026-01-30T11:07:20Z</time>
      </trkpt>
      <trkpt lat="48.6167" lon="2.04">
        <ele>58.2</ele>
        <time>2026-01-30T11:07:21Z</time>
      </trkpt>
      <trkpt lat="48.6167" lon="2.03993">
        <ele>58.2</ele>
        <time>2026-01-30T11:07:22Z</time>
      </trkpt>
      <trkpt lat="48.61671" lon="2.03985">
        <ele>58.2</ele>
        <time>2026-01-30T11:07:23Z</time>
      </trkpt>
      <trkpt lat="48.61672" lon="2.03978">
        <ele>59</ele>
        <time>2026-01-30T11:07:24Z</time>
      </trkpt>
      <trkpt lat="48.61672" lon="2.03971">
        <ele>59.6</ele>
        <time>2026-01-30T11:07:25Z</time>
      </trkpt>
      <trkpt lat="48.61673" lon="2.03963">
        <ele>59.6</ele>
        <time>2026-01-30T11:07:26Z</time>
      </trkpt>
      <trkpt lat="48.61674" lon="2.03956">
        <ele>59.6</ele>
        <time>2026-01-30T11:07:27Z</time>
      </trkpt>
      <trkpt lat="48.61674" lon="2.03949">
        <ele>60</ele>
        <time>2026-01-30T11:07:28Z</time>
      </trkpt>
      <trkpt lat="48.61675" lon="2.03942">
        <ele>60.6</ele>
        <time>2026-01-30T11:07:29Z</time>
      </trkpt>
      <trkpt lat="48.61676" lon="2.03934">
        <ele>60.6</ele>
        <time>2026-01-30T11:07:30Z</time>
      </trkpt>
      <trkpt lat="48.61676" lon="2.03927">
        <ele>60.6</ele>
        <time>2026-01-30T11:07:31Z</time>
      </trkpt>
      <trkpt lat="48.61677" lon="2.0392">
        <ele>59.8</ele>
        <time>2026-01-30T11:07:32Z</time>
      </trkpt>
      <trkpt lat="48.61677" lon="2.03912">
        <ele>59.6</ele>
        <time>2026-01-30T11:07:33Z</time>
      </trkpt>
      <trkpt lat="48.61677" lon="2.03905">
        <ele>59.6</ele>
        <time>2026-01-30T11:07:34Z</time>
      </trkpt>
      <trkpt lat="48.61677" lon="2.03898">
        <ele>59.6</ele>
        <time>2026-01-30T11:07:35Z</time>
      </trkpt>
      <trkpt lat="48.61677" lon="2.0389">
        <ele>59.8</ele>
        <time>2026-01-30T11:07:36Z</time>
      </trkpt>
      <trkpt lat="48.61677" lon="2.03883">
        <ele>60.6</ele>
        <time>2026-01-30T11:07:37Z</time>
      </trkpt>
      <trkpt lat="48.61677" lon="2.03876">
        <ele>60.6</ele>
        <time>2026-01-30T11:07:38Z</time>
      </trkpt>
      <trkpt lat="48.61677" lon="2.03869">
        <ele>60.6</ele>
        <time>2026-01-30T11:07:39Z</time>
      </trkpt>
      <trkpt lat="48.61677" lon="2.03861">
        <ele>60.6</ele>
        <time>2026-01-30T11:07:40Z</time>
      </trkpt>
      <trkpt lat="48.61677" lon="2.03854">
        <ele>60</ele>
        <time>2026-01-30T11:07:41Z</time>
      </trkpt>
      <trkpt lat="48.61677" lon="2.03847">
        <ele>60</ele>
        <time>2026-01-30T11:07:42Z</time>
      </trkpt>
      <trkpt lat="48.61678" lon="2.0384">
        <ele>60</ele>
        <time>2026-01-30T11:07:43Z</time>
      </trkpt>
      <trkpt lat="48.61678" lon="2.03832">
        <ele>60</ele>
        <time>2026-01-30T11:07:44Z</time>
      </trkpt>
      <trkpt lat="48.61678" lon="2.03825">
        <ele>60</ele>
        <time>2026-01-30T11:07:45Z</time>
      </trkpt>
      <trkpt lat="48.61679" lon="2.03818">
        <ele>60</ele>
        <time>2026-01-30T11:07:46Z</time>
      </trkpt>
      <trkpt lat="48.6168" lon="2.03811">
        <ele>60</ele>
        <time>2026-01-30T11:07:47Z</time>
      </trkpt>
      <trkpt lat="48.6168" lon="2.03803">
        <ele>61</ele>
        <time>2026-01-30T11:07:48Z</time>
      </trkpt>
      <trkpt lat="48.6168" lon="2.03796">
        <ele>60</ele>
        <time>2026-01-30T11:07:49Z</time>
      </trkpt>
      <trkpt lat="48.6168" lon="2.03788">
        <ele>60</ele>
        <time>2026-01-30T11:07:50Z</time>
      </trkpt>
      <trkpt lat="48.6168" lon="2.03781">
        <ele>60</ele>
        <time>2026-01-30T11:07:51Z</time>
      </trkpt>
      <trkpt lat="48.6168" lon="2.03773">
        <ele>60</ele>
        <time>2026-01-30T11:07:52Z</time>
      </trkpt>
      <trkpt lat="48.61681" lon="2.03765">
        <ele>60.2</ele>
        <time>2026-01-30T11:07:53Z</time>
      </trkpt>
      <trkpt lat="48.61681" lon="2.03758">
        <ele>60.2</ele>
        <time>2026-01-30T11:07:54Z</time>
      </trkpt>
      <trkpt lat="48.61681" lon="2.0375">
        <ele>60.2</ele>
        <time>2026-01-30T11:07:55Z</time>
      </trkpt>
      <trkpt lat="48.6168" lon="2.03741">
        <ele>60.2</ele>
        <time>2026-01-30T11:07:56Z</time>
      </trkpt>
      <trkpt lat="48.6168" lon="2.03733">
        <ele>60.2</ele>
        <time>2026-01-30T11:07:57Z</time>
      </trkpt>
      <trkpt lat="48.6168" lon="2.03724">
        <ele>60.2</ele>
        <time>2026-01-30T11:07:58Z</time>
      </trkpt>
      <trkpt lat="48.61679" lon="2.03715">
        <ele>60.2</ele>
        <time>2026-01-30T11:07:59Z</time>
      </trkpt>
      <trkpt lat="48.61679" lon="2.03707">
        <ele>61</ele>
        <time>2026-01-30T11:08:00Z</time>
      </trkpt>
      <trkpt lat="48.61678" lon="2.03698">
        <ele>60.8</ele>
        <time>2026-01-30T11:08:01Z</time>
      </trkpt>
      <trkpt lat="48.61677" lon="2.03689">
        <ele>60.8</ele>
        <time>2026-01-30T11:08:02Z</time>
      </trkpt>
      <trkpt lat="48.61677" lon="2.0368">
        <ele>60.8</ele>
        <time>2026-01-30T11:08:03Z</time>
      </trkpt>
      <trkpt lat="48.61676" lon="2.03671">
        <ele>60.6</ele>
        <time>2026-01-30T11:08:04Z</time>
      </trkpt>
      <trkpt lat="48.61675" lon="2.03662">
        <ele>61</ele>
        <time>2026-01-30T11:08:05Z</time>
      </trkpt>
      <trkpt lat="48.61674" lon="2.03652">
        <ele>61</ele>
        <time>2026-01-30T11:08:06Z</time>
      </trkpt>
      <trkpt lat="48.61674" lon="2.03643">
        <ele>61</ele>
        <time>2026-01-30T11:08:07Z</time>
      </trkpt>
      <trkpt lat="48.61673" lon="2.03633">
        <ele>60</ele>
        <time>2026-01-30T11:08:08Z</time>
      </trkpt>
      <trkpt lat="48.61672" lon="2.03623">
        <ele>60.4</ele>
        <time>2026-01-30T11:08:09Z</time>
      </trkpt>
      <trkpt lat="48.61671" lon="2.03613">
        <ele>60.4</ele>
        <time>2026-01-30T11:08:10Z</time>
      </trkpt>
      <trkpt lat="48.6167" lon="2.03603">
        <ele>60.4</ele>
        <time>2026-01-30T11:08:11Z</time>
      </trkpt>
      <trkpt lat="48.6167" lon="2.03593">
        <ele>60.4</ele>
        <time>2026-01-30T11:08:12Z</time>
      </trkpt>
      <trkpt lat="48.61669" lon="2.03583">
        <ele>59.6</ele>
        <time>2026-01-30T11:08:13Z</time>
      </trkpt>
      <trkpt lat="48.61669" lon="2.03573">
        <ele>59.6</ele>
        <time>2026-01-30T11:08:14Z</time>
      </trkpt>
      <trkpt lat="48.61668" lon="2.03563">
        <ele>59.6</ele>
        <time>2026-01-30T11:08:15Z</time>
      </trkpt>
      <trkpt lat="48.61668" lon="2.03552">
        <ele>59.4</ele>
        <time>2026-01-30T11:08:16Z</time>
      </trkpt>
      <trkpt lat="48.61667" lon="2.03542">
        <ele>59.2</ele>
        <time>2026-01-30T11:08:17Z</time>
      </trkpt>
      <trkpt lat="48.61667" lon="2.03532">
        <ele>59.2</ele>
        <time>2026-01-30T11:08:18Z</time>
      </trkpt>
      <trkpt lat="48.61667" lon="2.03521">
        <ele>59.2</ele>
        <time>2026-01-30T11:08:19Z</time>
      </trkpt>
      <trkpt lat="48.61666" lon="2.03511">
        <ele>58.8</ele>
        <time>2026-01-30T11:08:20Z</time>
      </trkpt>
      <trkpt lat="48.61667" lon="2.035">
        <ele>58.6</ele>
        <time>2026-01-30T11:08:21Z</time>
      </trkpt>
      <trkpt lat="48.61667" lon="2.03489">
        <ele>58.6</ele>
        <time>2026-01-30T11:08:22Z</time>
      </trkpt>
      <trkpt lat="48.61667" lon="2.03478">
        <ele>58.6</ele>
        <time>2026-01-30T11:08:23Z</time>
      </trkpt>
      <trkpt lat="48.61667" lon="2.03467">
        <ele>57.6</ele>
        <time>2026-01-30T11:08:24Z</time>
      </trkpt>
      <trkpt lat="48.61668" lon="2.03456">
        <ele>57.6</ele>
        <time>2026-01-30T11:08:25Z</time>
      </trkpt>
      <trkpt lat="48.61668" lon="2.03444">
        <ele>57.4</ele>
        <time>2026-01-30T11:08:26Z</time>
      </trkpt>
      <trkpt lat="48.61668" lon="2.03433">
        <ele>57.4</ele>
        <time>2026-01-30T11:08:27Z</time>
      </trkpt>
      <trkpt lat="48.61669" lon="2.03422">
        <ele>56.6</ele>
        <time>2026-01-30T11:08:28Z</time>
      </trkpt>
      <trkpt lat="48.61669" lon="2.03412">
        <ele>56.8</ele>
        <time>2026-01-30T11:08:29Z</time>
      </trkpt>
      <trkpt lat="48.61668" lon="2.03402">
        <ele>56.8</ele>
        <time>2026-01-30T11:08:30Z</time>
      </trkpt>
      <trkpt lat="48.61666" lon="2.03392">
        <ele>56.8</ele>
        <time>2026-01-30T11:08:31Z</time>
      </trkpt>
      <trkpt lat="48.61663" lon="2.03382">
        <ele>57.4</ele>
        <time>2026-01-30T11:08:32Z</time>
      </trkpt>
      <trkpt lat="48.61661" lon="2.03372">
        <ele>55.4</ele>
        <time>2026-01-30T11:08:33Z</time>
      </trkpt>
      <trkpt lat="48.61662" lon="2.03363">
        <ele>55.4</ele>
        <time>2026-01-30T11:08:34Z</time>
      </trkpt>
      <trkpt lat="48.61664" lon="2.03357">
        <ele>55.4</ele>
        <time>2026-01-30T11:08:35Z</time>
      </trkpt>
      <trkpt lat="48.61666" lon="2.03352">
        <ele>56.4</ele>
        <time>2026-01-30T11:08:36Z</time>
      </trkpt>
      <trkpt lat="48.61667" lon="2.03348">
        <ele>58.8</ele>
        <time>2026-01-30T11:08:37Z</time>
      </trkpt>
      <trkpt lat="48.61669" lon="2.03344">
        <ele>58.8</ele>
        <time>2026-01-30T11:08:38Z</time>
      </trkpt>
      <trkpt lat="48.61671" lon="2.0334">
        <ele>58.8</ele>
        <time>2026-01-30T11:08:39Z</time>
      </trkpt>
      <trkpt lat="48.61672" lon="2.03334">
        <ele>58.8</ele>
        <time>2026-01-30T11:08:40Z</time>
      </trkpt>
      <trkpt lat="48.61674" lon="2.03328">
        <ele>58.2</ele>
        <time>2026-01-30T11:08:41Z</time>
      </trkpt>
      <trkpt lat="48.61677" lon="2.03321">
        <ele>58.2</ele>
        <time>2026-01-30T11:08:42Z</time>
      </trkpt>
      <trkpt lat="48.61679" lon="2.03313">
        <ele>58.2</ele>
        <time>2026-01-30T11:08:43Z</time>
      </trkpt>
      <trkpt lat="48.61681" lon="2.03305">
        <ele>58.2</ele>
        <time>2026-01-30T11:08:44Z</time>
      </trkpt>
      <trkpt lat="48.61683" lon="2.03296">
        <ele>56.6</ele>
        <time>2026-01-30T11:08:45Z</time>
      </trkpt>
      <trkpt lat="48.61685" lon="2.03288">
        <ele>56.6</ele>
        <time>2026-01-30T11:08:46Z</time>
      </trkpt>
      <trkpt lat="48.61687" lon="2.03279">
        <ele>56.6</ele>
        <time>2026-01-30T11:08:47Z</time>
      </trkpt>
      <trkpt lat="48.6169" lon="2.03271">
        <ele>56.6</ele>
        <time>2026-01-30T11:08:48Z</time>
      </trkpt>
      <trkpt lat="48.61692" lon="2.03262">
        <ele>57</ele>
        <time>2026-01-30T11:08:49Z</time>
      </trkpt>
      <trkpt lat="48.61695" lon="2.03254">
        <ele>57</ele>
        <time>2026-01-30T11:08:50Z</time>
      </trkpt>
      <trkpt lat="48.61697" lon="2.03245">
        <ele>57</ele>
        <time>2026-01-30T11:08:51Z</time>
      </trkpt>
      <trkpt lat="48.617" lon="2.03236">
        <ele>57</ele>
        <time>2026-01-30T11:08:52Z</time>
      </trkpt>
      <trkpt lat="48.61702" lon="2.03227">
        <ele>56.2</ele>
        <time>2026-01-30T11:08:53Z</time>
      </trkpt>
      <trkpt lat="48.61704" lon="2.03218">
        <ele>56.2</ele>
        <time>2026-01-30T11:08:54Z</time>
      </trkpt>
      <trkpt lat="48.61705" lon="2.03209">
        <ele>56.2</ele>
        <time>2026-01-30T11:08:55Z</time>
      </trkpt>
      <trkpt lat="48.61707" lon="2.03199">
        <ele>56.2</ele>
        <time>2026-01-30T11:08:56Z</time>
      </trkpt>
      <trkpt lat="48.61708" lon="2.0319">
        <ele>57.4</ele>
        <time>2026-01-30T11:08:57Z</time>
      </trkpt>
      <trkpt lat="48.6171" lon="2.03181">
        <ele>57.4</ele>
        <time>2026-01-30T11:08:58Z</time>
      </trkpt>
      <trkpt lat="48.61712" lon="2.03172">
        <ele>57.4</ele>
        <time>2026-01-30T11:08:59Z</time>
      </trkpt>
      <trkpt lat="48.61714" lon="2.03163">
        <ele>57.4</ele>
        <time>2026-01-30T11:09:00Z</time>
      </trkpt>
      <trkpt lat="48.61715" lon="2.03153">
        <ele>56.4</ele>
        <time>2026-01-30T11:09:01Z</time>
      </trkpt>
      <trkpt lat="48.61716" lon="2.03144">
        <ele>56.4</ele>
        <time>2026-01-30T11:09:02Z</time>
      </trkpt>
      <trkpt lat="48.61717" lon="2.03135">
        <ele>56.4</ele>
        <time>2026-01-30T11:09:03Z</time>
      </trkpt>
      <trkpt lat="48.61718" lon="2.03126">
        <ele>56.4</ele>
        <time>2026-01-30T11:09:04Z</time>
      </trkpt>
      <trkpt lat="48.61719" lon="2.03117">
        <ele>56.4</ele>
        <time>2026-01-30T11:09:05Z</time>
      </trkpt>
      <trkpt lat="48.6172" lon="2.03107">
        <ele>56.4</ele>
        <time>2026-01-30T11:09:06Z</time>
      </trkpt>
      <trkpt lat="48.6172" lon="2.03098">
        <ele>56.4</ele>
        <time>2026-01-30T11:09:07Z</time>
      </trkpt>
      <trkpt lat="48.61721" lon="2.03088">
        <ele>56.4</ele>
        <time>2026-01-30T11:09:08Z</time>
      </trkpt>
      <trkpt lat="48.61722" lon="2.03079">
        <ele>58</ele>
        <time>2026-01-30T11:09:09Z</time>
      </trkpt>
      <trkpt lat="48.61723" lon="2.03069">
        <ele>58</ele>
        <time>2026-01-30T11:09:10Z</time>
      </trkpt>
      <trkpt lat="48.61724" lon="2.0306">
        <ele>58</ele>
        <time>2026-01-30T11:09:11Z</time>
      </trkpt>
      <trkpt lat="48.61725" lon="2.03051">
        <ele>58.6</ele>
        <time>2026-01-30T11:09:12Z</time>
      </trkpt>
      <trkpt lat="48.61726" lon="2.03042">
        <ele>58.6</ele>
        <time>2026-01-30T11:09:13Z</time>
      </trkpt>
      <trkpt lat="48.61726" lon="2.03033">
        <ele>58.6</ele>
        <time>2026-01-30T11:09:14Z</time>
      </trkpt>
      <trkpt lat="48.61726" lon="2.03024">
        <ele>58.6</ele>
        <time>2026-01-30T11:09:15Z</time>
      </trkpt>
      <trkpt lat="48.61726" lon="2.03015">
        <ele>58.6</ele>
        <time>2026-01-30T11:09:16Z</time>
      </trkpt>
      <trkpt lat="48.61727" lon="2.03006">
        <ele>57.6</ele>
        <time>2026-01-30T11:09:17Z</time>
      </trkpt>
      <trkpt lat="48.61727" lon="2.02997">
        <ele>57.6</ele>
        <time>2026-01-30T11:09:18Z</time>
      </trkpt>
      <trkpt lat="48.61728" lon="2.02989">
        <ele>57.6</ele>
        <time>2026-01-30T11:09:19Z</time>
      </trkpt>
      <trkpt lat="48.61728" lon="2.02981">
        <ele>57.6</ele>
        <time>2026-01-30T11:09:20Z</time>
      </trkpt>
      <trkpt lat="48.61729" lon="2.02973">
        <ele>57</ele>
        <time>2026-01-30T11:09:21Z</time>
      </trkpt>
      <trkpt lat="48.6173" lon="2.02965">
        <ele>57</ele>
        <time>2026-01-30T11:09:22Z</time>
      </trkpt>
      <trkpt lat="48.6173" lon="2.02957">
        <ele>57</ele>
        <time>2026-01-30T11:09:23Z</time>
      </trkpt>
      <trkpt lat="48.61731" lon="2.0295">
        <ele>58</ele>
        <time>2026-01-30T11:09:24Z</time>
      </trkpt>
      <trkpt lat="48.61731" lon="2.02944">
        <ele>58.6</ele>
        <time>2026-01-30T11:09:25Z</time>
      </trkpt>
      <trkpt lat="48.6173" lon="2.02938">
        <ele>58.6</ele>
        <time>2026-01-30T11:09:26Z</time>
      </trkpt>
      <trkpt lat="48.61729" lon="2.02932">
        <ele>58.6</ele>
        <time>2026-01-30T11:09:27Z</time>
      </trkpt>
      <trkpt lat="48.61731" lon="2.02925">
        <ele>57.8</ele>
        <time>2026-01-30T11:09:28Z</time>
      </trkpt>
      <trkpt lat="48.61734" lon="2.02919">
        <ele>58.2</ele>
        <time>2026-01-30T11:09:29Z</time>
      </trkpt>
      <trkpt lat="48.61736" lon="2.02911">
        <ele>58.2</ele>
        <time>2026-01-30T11:09:30Z</time>
      </trkpt>
      <trkpt lat="48.61739" lon="2.02904">
        <ele>58.2</ele>
        <time>2026-01-30T11:09:31Z</time>
      </trkpt>
      <trkpt lat="48.61742" lon="2.02897">
        <ele>58.2</ele>
        <time>2026-01-30T11:09:32Z</time>
      </trkpt>
      <trkpt lat="48.61746" lon="2.02891">
        <ele>59</ele>
        <time>2026-01-30T11:09:33Z</time>
      </trkpt>
      <trkpt lat="48.6175" lon="2.02884">
        <ele>59</ele>
        <time>2026-01-30T11:09:34Z</time>
      </trkpt>
      <trkpt lat="48.61754" lon="2.02877">
        <ele>59</ele>
        <time>2026-01-30T11:09:35Z</time>
      </trkpt>
      <trkpt lat="48.61759" lon="2.02871">
        <ele>59</ele>
        <time>2026-01-30T11:09:36Z</time>
      </trkpt>
      <trkpt lat="48.61764" lon="2.02865">
        <ele>58.8</ele>
        <time>2026-01-30T11:09:37Z</time>
      </trkpt>
      <trkpt lat="48.61768" lon="2.02859">
        <ele>58.8</ele>
        <time>2026-01-30T11:09:38Z</time>
      </trkpt>
      <trkpt lat="48.61773" lon="2.02853">
        <ele>58.8</ele>
        <time>2026-01-30T11:09:39Z</time>
      </trkpt>
      <trkpt lat="48.61777" lon="2.02847">
        <ele>58.8</ele>
        <time>2026-01-30T11:09:40Z</time>
      </trkpt>
      <trkpt lat="48.61782" lon="2.02841">
        <ele>58</ele>
        <time>2026-01-30T11:09:41Z</time>
      </trkpt>
      <trkpt lat="48.61786" lon="2.02836">
        <ele>58</ele>
        <time>2026-01-30T11:09:42Z</time>
      </trkpt>
      <trkpt lat="48.61791" lon="2.0283">
        <ele>58</ele>
        <time>2026-01-30T11:09:43Z</time>
      </trkpt>
      <trkpt lat="48.61796" lon="2.02826">
        <ele>58.8</ele>
        <time>2026-01-30T11:09:44Z</time>
      </trkpt>
      <trkpt lat="48.618" lon="2.02821">
        <ele>59.4</ele>
        <time>2026-01-30T11:09:45Z</time>
      </trkpt>
      <trkpt lat="48.61805" lon="2.02815">
        <ele>59.4</ele>
        <time>2026-01-30T11:09:46Z</time>
      </trkpt>
      <trkpt lat="48.6181" lon="2.02809">
        <ele>59.4</ele>
        <time>2026-01-30T11:09:47Z</time>
      </trkpt>
      <trkpt lat="48.61813" lon="2.02801">
        <ele>59.6</ele>
        <time>2026-01-30T11:09:48Z</time>
      </trkpt>
      <trkpt lat="48.61818" lon="2.02795">
        <ele>60.2</ele>
        <time>2026-01-30T11:09:49Z</time>
      </trkpt>
      <trkpt lat="48.61822" lon="2.02789">
        <ele>60.2</ele>
        <time>2026-01-30T11:09:50Z</time>
      </trkpt>
      <trkpt lat="48.61827" lon="2.02783">
        <ele>60.2</ele>
        <time>2026-01-30T11:09:51Z</time>
      </trkpt>
      <trkpt lat="48.61831" lon="2.02777">
        <ele>60.2</ele>
        <time>2026-01-30T11:09:52Z</time>
      </trkpt>
      <trkpt lat="48.61835" lon="2.02772">
        <ele>60.6</ele>
        <time>2026-01-30T11:09:53Z</time>
      </trkpt>
      <trkpt lat="48.6184" lon="2.02766">
        <ele>60.6</ele>
        <time>2026-01-30T11:09:54Z</time>
      </trkpt>
      <trkpt lat="48.61844" lon="2.02761">
        <ele>60.6</ele>
        <time>2026-01-30T11:09:55Z</time>
      </trkpt>
      <trkpt lat="48.61847" lon="2.02756">
        <ele>61</ele>
        <time>2026-01-30T11:09:56Z</time>
      </trkpt>
      <trkpt lat="48.61851" lon="2.02752">
        <ele>60.2</ele>
        <time>2026-01-30T11:09:57Z</time>
      </trkpt>
      <trkpt lat="48.61855" lon="2.02747">
        <ele>60.2</ele>
        <time>2026-01-30T11:09:58Z</time>
      </trkpt>
      <trkpt lat="48.61859" lon="2.02742">
        <ele>60.2</ele>
        <time>2026-01-30T11:09:59Z</time>
      </trkpt>
      <trkpt lat="48.61863" lon="2.02737">
        <ele>60.8</ele>
        <time>2026-01-30T11:10:00Z</time>
      </trkpt>
      <trkpt lat="48.61867" lon="2.02731">
        <ele>60.6</ele>
        <time>2026-01-30T11:10:01Z</time>
      </trkpt>
      <trkpt lat="48.61871" lon="2.02724">
        <ele>60.6</ele>
        <time>2026-01-30T11:10:02Z</time>
      </trkpt>
      <trkpt lat="48.61876" lon="2.02718">
        <ele>60.6</ele>
        <time>2026-01-30T11:10:03Z</time>
      </trkpt>
      <trkpt lat="48.61881" lon="2.02711">
        <ele>61.2</ele>
        <time>2026-01-30T11:10:04Z</time>
      </trkpt>
      <trkpt lat="48.61886" lon="2.02705">
        <ele>60.6</ele>
        <time>2026-01-30T11:10:05Z</time>
      </trkpt>
      <trkpt lat="48.61891" lon="2.02698">
        <ele>60.6</ele>
        <time>2026-01-30T11:10:06Z</time>
      </trkpt>
      <trkpt lat="48.61895" lon="2.02691">
        <ele>60.6</ele>
        <time>2026-01-30T11:10:07Z</time>
      </trkpt>
      <trkpt lat="48.61899" lon="2.02684">
        <ele>61</ele>
        <time>2026-01-30T11:10:08Z</time>
      </trkpt>
      <trkpt lat="48.61903" lon="2.02677">
        <ele>62</ele>
        <time>2026-01-30T11:10:09Z</time>
      </trkpt>
      <trkpt lat="48.61907" lon="2.02671">
        <ele>62</ele>
        <time>2026-01-30T11:10:10Z</time>
      </trkpt>
      <trkpt lat="48.61911" lon="2.02665">
        <ele>62</ele>
        <time>2026-01-30T11:10:11Z</time>
      </trkpt>
      <trkpt lat="48.61915" lon="2.0266">
        <ele>62</ele>
        <time>2026-01-30T11:10:12Z</time>
      </trkpt>
      <trkpt lat="48.6192" lon="2.02655">
        <ele>61.8</ele>
        <time>2026-01-30T11:10:13Z</time>
      </trkpt>
      <trkpt lat="48.61924" lon="2.02649">
        <ele>61.8</ele>
        <time>2026-01-30T11:10:14Z</time>
      </trkpt>
      <trkpt lat="48.61928" lon="2.02643">
        <ele>61.8</ele>
        <time>2026-01-30T11:10:15Z</time>
      </trkpt>
      <trkpt lat="48.61931" lon="2.02636">
        <ele>62.8</ele>
        <time>2026-01-30T11:10:16Z</time>
      </trkpt>
      <trkpt lat="48.61934" lon="2.0263">
        <ele>63.4</ele>
        <time>2026-01-30T11:10:17Z</time>
      </trkpt>
      <trkpt lat="48.61938" lon="2.02624">
        <ele>63.4</ele>
        <time>2026-01-30T11:10:18Z</time>
      </trkpt>
      <trkpt lat="48.6194" lon="2.02616">
        <ele>63.4</ele>
        <time>2026-01-30T11:10:19Z</time>
      </trkpt>
      <trkpt lat="48.61942" lon="2.02607">
        <ele>64.4</ele>
        <time>2026-01-30T11:10:20Z</time>
      </trkpt>
      <trkpt lat="48.61944" lon="2.02599">
        <ele>63.6</ele>
        <time>2026-01-30T11:10:21Z</time>
      </trkpt>
      <trkpt lat="48.61948" lon="2.02592">
        <ele>63.6</ele>
        <time>2026-01-30T11:10:22Z</time>
      </trkpt>
      <trkpt lat="48.61952" lon="2.02586">
        <ele>63.6</ele>
        <time>2026-01-30T11:10:23Z</time>
      </trkpt>
      <trkpt lat="48.61955" lon="2.02578">
        <ele>62.6</ele>
        <time>2026-01-30T11:10:24Z</time>
      </trkpt>
      <trkpt lat="48.6196" lon="2.02572">
        <ele>61.2</ele>
        <time>2026-01-30T11:10:25Z</time>
      </trkpt>
      <trkpt lat="48.61966" lon="2.02565">
        <ele>61.2</ele>
        <time>2026-01-30T11:10:26Z</time>
      </trkpt>
      <trkpt lat="48.61972" lon="2.0256">
        <ele>61.2</ele>
        <time>2026-01-30T11:10:27Z</time>
      </trkpt>
      <trkpt lat="48.61979" lon="2.02556">
        <ele>61.2</ele>
        <time>2026-01-30T11:10:28Z</time>
      </trkpt>
      <trkpt lat="48.61986" lon="2.02552">
        <ele>61.8</ele>
        <time>2026-01-30T11:10:29Z</time>
      </trkpt>
      <trkpt lat="48.61992" lon="2.02546">
        <ele>61.8</ele>
        <time>2026-01-30T11:10:30Z</time>
      </trkpt>
      <trkpt lat="48.61999" lon="2.02542">
        <ele>61.8</ele>
        <time>2026-01-30T11:10:31Z</time>
      </trkpt>
      <trkpt lat="48.62006" lon="2.02537">
        <ele>61</ele>
        <time>2026-01-30T11:10:32Z</time>
      </trkpt>
      <trkpt lat="48.62013" lon="2.02532">
        <ele>60.6</ele>
        <time>2026-01-30T11:10:33Z</time>
      </trkpt>
      <trkpt lat="48.6202" lon="2.02528">
        <ele>60.6</ele>
        <time>2026-01-30T11:10:34Z</time>
      </trkpt>
      <trkpt lat="48.62027" lon="2.02523">
        <ele>60.6</ele>
        <time>2026-01-30T11:10:35Z</time>
      </trkpt>
      <trkpt lat="48.62035" lon="2.02519">
        <ele>60.6</ele>
        <time>2026-01-30T11:10:36Z</time>
      </trkpt>
      <trkpt lat="48.62042" lon="2.02515">
        <ele>60.6</ele>
        <time>2026-01-30T11:10:37Z</time>
      </trkpt>
      <trkpt lat="48.62048" lon="2.0251">
        <ele>60.6</ele>
        <time>2026-01-30T11:10:38Z</time>
      </trkpt>
      <trkpt lat="48.62056" lon="2.02508">
        <ele>60.6</ele>
        <time>2026-01-30T11:10:39Z</time>
      </trkpt>
      <trkpt lat="48.62063" lon="2.02507">
        <ele>60.6</ele>
        <time>2026-01-30T11:10:40Z</time>
      </trkpt>
      <trkpt lat="48.6207" lon="2.02508">
        <ele>61.4</ele>
        <time>2026-01-30T11:10:41Z</time>
      </trkpt>
      <trkpt lat="48.62077" lon="2.02509">
        <ele>61.4</ele>
        <time>2026-01-30T11:10:42Z</time>
      </trkpt>
      <trkpt lat="48.62083" lon="2.02509">
        <ele>61.4</ele>
        <time>2026-01-30T11:10:43Z</time>
      </trkpt>
      <trkpt lat="48.6209" lon="2.0251">
        <ele>60.6</ele>
        <time>2026-01-30T11:10:44Z</time>
      </trkpt>
      <trkpt lat="48.62097" lon="2.02511">
        <ele>60</ele>
        <time>2026-01-30T11:10:45Z</time>
      </trkpt>
      <trkpt lat="48.62103" lon="2.0251">
        <ele>60</ele>
        <time>2026-01-30T11:10:46Z</time>
      </trkpt>
      <trkpt lat="48.62109" lon="2.02507">
        <ele>60</ele>
        <time>2026-01-30T11:10:47Z</time>
      </trkpt>
      <trkpt lat="48.62115" lon="2.02502">
        <ele>60.8</ele>
        <time>2026-01-30T11:10:48Z</time>
      </trkpt>
      <trkpt lat="48.6212" lon="2.02497">
        <ele>61.2</ele>
        <time>2026-01-30T11:10:49Z</time>
      </trkpt>
      <trkpt lat="48.62126" lon="2.02492">
        <ele>61.2</ele>
        <time>2026-01-30T11:10:50Z</time>
      </trkpt>
      <trkpt lat="48.62132" lon="2.02487">
        <ele>61.2</ele>
        <time>2026-01-30T11:10:51Z</time>
      </trkpt>
      <trkpt lat="48.62137" lon="2.02482">
        <ele>61.8</ele>
        <time>2026-01-30T11:10:52Z</time>
      </trkpt>
      <trkpt lat="48.62142" lon="2.02477">
        <ele>62.4</ele>
        <time>2026-01-30T11:10:53Z</time>
      </trkpt>
      <trkpt lat="48.62147" lon="2.02471">
        <ele>62.4</ele>
        <time>2026-01-30T11:10:54Z</time>
      </trkpt>
      <trkpt lat="48.62152" lon="2.02466">
        <ele>62.4</ele>
        <time>2026-01-30T11:10:55Z</time>
      </trkpt>
      <trkpt lat="48.62157" lon="2.0246">
        <ele>61.6</ele>
        <time>2026-01-30T11:10:56Z</time>
      </trkpt>
      <trkpt lat="48.62162" lon="2.02454">
        <ele>62.2</ele>
        <time>2026-01-30T11:10:57Z</time>
      </trkpt>
      <trkpt lat="48.62166" lon="2.02449">
        <ele>62.2</ele>
        <time>2026-01-30T11:10:58Z</time>
      </trkpt>
      <trkpt lat="48.6217" lon="2.02443">
        <ele>62.2</ele>
        <time>2026-01-30T11:10:59Z</time>
      </trkpt>
      <trkpt lat="48.62175" lon="2.02437">
        <ele>62.6</ele>
        <time>2026-01-30T11:11:00Z</time>
      </trkpt>
      <trkpt lat="48.6218" lon="2.02431">
        <ele>62</ele>
        <time>2026-01-30T11:11:01Z</time>
      </trkpt>
      <trkpt lat="48.62185" lon="2.02424">
        <ele>62</ele>
        <time>2026-01-30T11:11:02Z</time>
      </trkpt>
      <trkpt lat="48.62189" lon="2.02417">
        <ele>62</ele>
        <time>2026-01-30T11:11:03Z</time>
      </trkpt>
      <trkpt lat="48.62192" lon="2.02409">
        <ele>62.4</ele>
        <time>2026-01-30T11:11:04Z</time>
      </trkpt>
      <trkpt lat="48.62194" lon="2.02399">
        <ele>63.6</ele>
        <time>2026-01-30T11:11:05Z</time>
      </trkpt>
      <trkpt lat="48.62196" lon="2.02389">
        <ele>63.6</ele>
        <time>2026-01-30T11:11:06Z</time>
      </trkpt>
      <trkpt lat="48.62197" lon="2.0238">
        <ele>63.6</ele>
        <time>2026-01-30T11:11:07Z</time>
      </trkpt>
      <trkpt lat="48.62196" lon="2.02371">
        <ele>62.6</ele>
        <time>2026-01-30T11:11:08Z</time>
      </trkpt>
      <trkpt lat="48.62196" lon="2.02362">
        <ele>62</ele>
        <time>2026-01-30T11:11:09Z</time>
      </trkpt>
      <trkpt lat="48.62196" lon="2.02353">
        <ele>62</ele>
        <time>2026-01-30T11:11:10Z</time>
      </trkpt>
      <trkpt lat="48.62195" lon="2.02346">
        <ele>62</ele>
        <time>2026-01-30T11:11:11Z</time>
      </trkpt>
      <trkpt lat="48.62194" lon="2.0234">
        <ele>62</ele>
        <time>2026-01-30T11:11:12Z</time>
      </trkpt>
      <trkpt lat="48.62194" lon="2.02335">
        <ele>63.6</ele>
        <time>2026-01-30T11:11:13Z</time>
      </trkpt>
      <trkpt lat="48.62195" lon="2.02332">
        <ele>63.6</ele>
        <time>2026-01-30T11:11:14Z</time>
      </trkpt>
      <trkpt lat="48.62195" lon="2.0233">
        <ele>63.6</ele>
        <time>2026-01-30T11:11:15Z</time>
      </trkpt>
      <trkpt lat="48.62196" lon="2.0233">
        <ele>63.6</ele>
        <time>2026-01-30T11:11:16Z</time>
      </trkpt>
      <trkpt lat="48.62196" lon="2.0233">
        <ele>64.4</ele>
        <time>2026-01-30T11:11:17Z</time>
      </trkpt>
      <trkpt lat="48.62199" lon="2.02326">
        <ele>64.4</ele>
        <time>2026-01-30T11:11:20Z</time>
      </trkpt>
      <trkpt lat="48.622" lon="2.02323">
        <ele>63.6</ele>
        <time>2026-01-30T11:11:21Z</time>
      </trkpt>
      <trkpt lat="48.62202" lon="2.0232">
        <ele>63.6</ele>
        <time>2026-01-30T11:11:22Z</time>
      </trkpt>
      <trkpt lat="48.62201" lon="2.02313">
        <ele>63.6</ele>
        <time>2026-01-30T11:11:23Z</time>
      </trkpt>
      <trkpt lat="48.62201" lon="2.02307">
        <ele>62.8</ele>
        <time>2026-01-30T11:11:24Z</time>
      </trkpt>
      <trkpt lat="48.622" lon="2.023">
        <ele>62.2</ele>
        <time>2026-01-30T11:11:25Z</time>
      </trkpt>
      <trkpt lat="48.622" lon="2.02293">
        <ele>62.2</ele>
        <time>2026-01-30T11:11:26Z</time>
      </trkpt>
      <trkpt lat="48.622" lon="2.02285">
        <ele>62.2</ele>
        <time>2026-01-30T11:11:27Z</time>
      </trkpt>
      <trkpt lat="48.622" lon="2.02276">
        <ele>61.2</ele>
        <time>2026-01-30T11:11:28Z</time>
      </trkpt>
      <trkpt lat="48.622" lon="2.02267">
        <ele>60.8</ele>
        <time>2026-01-30T11:11:29Z</time>
      </trkpt>
      <trkpt lat="48.622" lon="2.02257">
        <ele>60.8</ele>
        <time>2026-01-30T11:11:30Z</time>
      </trkpt>
      <trkpt lat="48.622" lon="2.02247">
        <ele>60.8</ele>
        <time>2026-01-30T11:11:31Z</time>
      </trkpt>
      <trkpt lat="48.62199" lon="2.02237">
        <ele>60.8</ele>
        <time>2026-01-30T11:11:32Z</time>
      </trkpt>
      <trkpt lat="48.62199" lon="2.02227">
        <ele>62.4</ele>
        <time>2026-01-30T11:11:33Z</time>
      </trkpt>
      <trkpt lat="48.622" lon="2.02218">
        <ele>62.4</ele>
        <time>2026-01-30T11:11:34Z</time>
      </trkpt>
      <trkpt lat="48.622" lon="2.02208">
        <ele>62.4</ele>
        <time>2026-01-30T11:11:35Z</time>
      </trkpt>
      <trkpt lat="48.622" lon="2.02199">
        <ele>62.4</ele>
        <time>2026-01-30T11:11:36Z</time>
      </trkpt>
      <trkpt lat="48.62201" lon="2.02189">
        <ele>61.8</ele>
        <time>2026-01-30T11:11:37Z</time>
      </trkpt>
      <trkpt lat="48.62202" lon="2.0218">
        <ele>61.8</ele>
        <time>2026-01-30T11:11:38Z</time>
      </trkpt>
      <trkpt lat="48.62203" lon="2.0217">
        <ele>61.8</ele>
        <time>2026-01-30T11:11:39Z</time>
      </trkpt>
      <trkpt lat="48.62204" lon="2.0216">
        <ele>61.8</ele>
        <time>2026-01-30T11:11:40Z</time>
      </trkpt>
      <trkpt lat="48.62205" lon="2.0215">
        <ele>61.8</ele>
        <time>2026-01-30T11:11:41Z</time>
      </trkpt>
      <trkpt lat="48.62206" lon="2.0214">
        <ele>61.8</ele>
        <time>2026-01-30T11:11:42Z</time>
      </trkpt>
      <trkpt lat="48.62207" lon="2.0213">
        <ele>61.8</ele>
        <time>2026-01-30T11:11:43Z</time>
      </trkpt>
      <trkpt lat="48.62208" lon="2.0212">
        <ele>61.8</ele>
        <time>2026-01-30T11:11:44Z</time>
      </trkpt>
      <trkpt lat="48.62208" lon="2.0211">
        <ele>62.4</ele>
        <time>2026-01-30T11:11:45Z</time>
      </trkpt>
      <trkpt lat="48.62209" lon="2.021">
        <ele>62.4</ele>
        <time>2026-01-30T11:11:46Z</time>
      </trkpt>
      <trkpt lat="48.6221" lon="2.0209">
        <ele>62.4</ele>
        <time>2026-01-30T11:11:47Z</time>
      </trkpt>
      <trkpt lat="48.62211" lon="2.02081">
        <ele>61.8</ele>
        <time>2026-01-30T11:11:48Z</time>
      </trkpt>
      <trkpt lat="48.62212" lon="2.02071">
        <ele>61.8</ele>
        <time>2026-01-30T11:11:49Z</time>
      </trkpt>
      <trkpt lat="48.62213" lon="2.02061">
        <ele>61.8</ele>
        <time>2026-01-30T11:11:50Z</time>
      </trkpt>
      <trkpt lat="48.62214" lon="2.02052">
        <ele>61.8</ele>
        <time>2026-01-30T11:11:51Z</time>
      </trkpt>
      <trkpt lat="48.62215" lon="2.02042">
        <ele>62</ele>
        <time>2026-01-30T11:11:52Z</time>
      </trkpt>
      <trkpt lat="48.62217" lon="2.02033">
        <ele>62</ele>
        <time>2026-01-30T11:11:53Z</time>
      </trkpt>
      <trkpt lat="48.62218" lon="2.02024">
        <ele>62</ele>
        <time>2026-01-30T11:11:54Z</time>
      </trkpt>
      <trkpt lat="48.62219" lon="2.02016">
        <ele>62</ele>
        <time>2026-01-30T11:11:55Z</time>
      </trkpt>
      <trkpt lat="48.6222" lon="2.02007">
        <ele>62.4</ele>
        <time>2026-01-30T11:11:56Z</time>
      </trkpt>
      <trkpt lat="48.62221" lon="2.01998">
        <ele>62.6</ele>
        <time>2026-01-30T11:11:57Z</time>
      </trkpt>
      <trkpt lat="48.62222" lon="2.01989">
        <ele>62.6</ele>
        <time>2026-01-30T11:11:58Z</time>
      </trkpt>
      <trkpt lat="48.62224" lon="2.0198">
        <ele>62.6</ele>
        <time>2026-01-30T11:11:59Z</time>
      </trkpt>
      <trkpt lat="48.62225" lon="2.01971">
        <ele>62.4</ele>
        <time>2026-01-30T11:12:00Z</time>
      </trkpt>
      <trkpt lat="48.62226" lon="2.01962">
        <ele>62.2</ele>
        <time>2026-01-30T11:12:01Z</time>
      </trkpt>
      <trkpt lat="48.62227" lon="2.01954">
        <ele>62.2</ele>
        <time>2026-01-30T11:12:02Z</time>
      </trkpt>
      <trkpt lat="48.62228" lon="2.01944">
        <ele>62.2</ele>
        <time>2026-01-30T11:12:03Z</time>
      </trkpt>
      <trkpt lat="48.62229" lon="2.01936">
        <ele>62.4</ele>
        <time>2026-01-30T11:12:04Z</time>
      </trkpt>
      <trkpt lat="48.6223" lon="2.01927">
        <ele>62.6</ele>
        <time>2026-01-30T11:12:05Z</time>
      </trkpt>
      <trkpt lat="48.62233" lon="2.01919">
        <ele>62.6</ele>
        <time>2026-01-30T11:12:06Z</time>
      </trkpt>
      <trkpt lat="48.62237" lon="2.01912">
        <ele>62.6</ele>
        <time>2026-01-30T11:12:07Z</time>
      </trkpt>
      <trkpt lat="48.62241" lon="2.01908">
        <ele>63.2</ele>
        <time>2026-01-30T11:12:08Z</time>
      </trkpt>
      <trkpt lat="48.62246" lon="2.01905">
        <ele>63.6</ele>
        <time>2026-01-30T11:12:09Z</time>
      </trkpt>
      <trkpt lat="48.6225" lon="2.019">
        <ele>63.6</ele>
        <time>2026-01-30T11:12:10Z</time>
      </trkpt>
      <trkpt lat="48.62253" lon="2.01894">
        <ele>63.6</ele>
        <time>2026-01-30T11:12:11Z</time>
      </trkpt>
      <trkpt lat="48.62252" lon="2.01886">
        <ele>63.6</ele>
        <time>2026-01-30T11:12:12Z</time>
      </trkpt>
      <trkpt lat="48.62251" lon="2.0188">
        <ele>64.4</ele>
        <time>2026-01-30T11:12:13Z</time>
      </trkpt>
      <trkpt lat="48.62249" lon="2.01871">
        <ele>64.4</ele>
        <time>2026-01-30T11:12:14Z</time>
      </trkpt>
      <trkpt lat="48.62249" lon="2.01864">
        <ele>64.4</ele>
        <time>2026-01-30T11:12:15Z</time>
      </trkpt>
      <trkpt lat="48.62251" lon="2.01858">
        <ele>64.4</ele>
        <time>2026-01-30T11:12:16Z</time>
      </trkpt>
      <trkpt lat="48.62254" lon="2.01853">
        <ele>64.4</ele>
        <time>2026-01-30T11:12:17Z</time>
      </trkpt>
      <trkpt lat="48.62257" lon="2.01849">
        <ele>64.4</ele>
        <time>2026-01-30T11:12:18Z</time>
      </trkpt>
      <trkpt lat="48.6226" lon="2.01845">
        <ele>64.4</ele>
        <time>2026-01-30T11:12:19Z</time>
      </trkpt>
      <trkpt lat="48.62262" lon="2.01841">
        <ele>65.2</ele>
        <time>2026-01-30T11:12:20Z</time>
      </trkpt>
      <trkpt lat="48.62263" lon="2.01838">
        <ele>65.6</ele>
        <time>2026-01-30T11:12:21Z</time>
      </trkpt>
      <trkpt lat="48.62262" lon="2.01837">
        <ele>65.6</ele>
        <time>2026-01-30T11:12:22Z</time>
      </trkpt>
      <trkpt lat="48.62262" lon="2.01835">
        <ele>65.6</ele>
        <time>2026-01-30T11:12:23Z</time>
      </trkpt>
      <trkpt lat="48.62262" lon="2.01835">
        <ele>65.4</ele>
        <time>2026-01-30T11:12:24Z</time>
      </trkpt>
    </trkseg>
  </trk>
</gpx>